<?xml version='1.0' encoding='UTF-8'?><gpx version="1.1" creator="JPX - https://github.com/jenetics/jpx" xmlns="http://www.topografix.com/GPX/1/1"><trk><trkseg><trkpt lat="28.494816570212844" lon="-11.336629364439052"><ele>1.9999999999999998</ele><time>2026-04-29T07:46:00.998Z</time></trkpt><trkpt lat="28.49483171669348" lon="-11.33654834086707"><ele>2.0</ele><time>2026-04-29T07:46:02.998Z</time></trkpt><trkpt lat="28.494785753028243" lon="-11.336463276636797"><ele>2.0</ele><time>2026-04-29T07:46:04.999Z</time></trkpt><trkpt lat="28.494722743412254" lon="-11.336450028542517"><ele>2.0</ele><time>2026-04-29T07:46:06.999Z</time></trkpt><trkpt lat="28.494646872727888" lon="-11.336461543274808"><ele>1.9999999999999998</ele><time>2026-04-29T07:46:08.999Z</time></trkpt><trkpt lat="28.494576267385785" lon="-11.336457359486335"><ele>2.0</ele><time>2026-04-29T07:46:10.999Z</time></trkpt><trkpt lat="28.494495951181623" lon="-11.336455680095268"><ele>2.833333333333333</ele><time>2026-04-29T07:46:12.999Z</time></trkpt><trkpt lat="28.494417117738465" lon="-11.336455880129046"><ele>3.666666666666667</ele><time>2026-04-29T07:46:14.999Z</time></trkpt><trkpt lat="28.49434473604146" lon="-11.336456753614184"><ele>4.5</ele><time>2026-04-29T07:46:17Z</time></trkpt><trkpt lat="28.494273050511552" lon="-11.336466285193888"><ele>5.333333333333334</ele><time>2026-04-29T07:46:19Z</time></trkpt><trkpt lat="28.494207443440228" lon="-11.33648001968151"><ele>6.166666666666667</ele><time>2026-04-29T07:46:21Z</time></trkpt><trkpt lat="28.49412575588401" lon="-11.336454354731337"><ele>7.0</ele><time>2026-04-29T07:46:24Z</time></trkpt><trkpt lat="28.49410776673845" lon="-11.3363456730171"><ele>7.3999999999999995</ele><time>2026-04-29T07:46:27Z</time></trkpt><trkpt lat="28.494094174508408" lon="-11.336263302928975"><ele>7.799999999999999</ele><time>2026-04-29T07:46:30Z</time></trkpt><trkpt lat="28.494046079941675" lon="-11.336194431506227"><ele>8.2</ele><time>2026-04-29T07:46:32Z</time></trkpt><trkpt lat="28.493971047677107" lon="-11.336154335107784"><ele>8.6</ele><time>2026-04-29T07:46:34Z</time></trkpt><trkpt lat="28.49386780070717" lon="-11.336138278149004"><ele>9.0</ele><time>2026-04-29T07:46:36Z</time></trkpt><trkpt lat="28.493749862013598" lon="-11.336150005269868"><ele>9.666666666666666</ele><time>2026-04-29T07:46:38Z</time></trkpt><trkpt lat="28.493685900238987" lon="-11.336165020332475"><ele>10.333333333333332</ele><time>2026-04-29T07:46:39Z</time></trkpt><trkpt lat="28.493618725765806" lon="-11.33617377511115"><ele>11.0</ele><time>2026-04-29T07:46:40Z</time></trkpt><trkpt lat="28.49355405524579" lon="-11.336195639658524"><ele>11.666666666666666</ele><time>2026-04-29T07:46:41Z</time></trkpt><trkpt lat="28.49345627675835" lon="-11.336226671766612"><ele>12.333333333333332</ele><time>2026-04-29T07:46:43Z</time></trkpt><trkpt lat="28.49338694622665" lon="-11.336241688947943"><ele>13.0</ele><time>2026-04-29T07:46:44Z</time></trkpt><trkpt lat="28.493294723768592" lon="-11.336259377756154"><ele>12.999999999999998</ele><time>2026-04-29T07:46:46Z</time></trkpt><trkpt lat="28.49321066026611" lon="-11.336286745253057"><ele>13.0</ele><time>2026-04-29T07:46:48Z</time></trkpt><trkpt lat="28.493123125839062" lon="-11.336329431251034"><ele>13.0</ele><time>2026-04-29T07:46:50Z</time></trkpt><trkpt lat="28.493073901403342" lon="-11.336377690432254"><ele>13.0</ele><time>2026-04-29T07:46:51Z</time></trkpt><trkpt lat="28.49298405150828" lon="-11.336463230218213"><ele>12.999999999999998</ele><time>2026-04-29T07:46:53Z</time></trkpt><trkpt lat="28.492919741173633" lon="-11.33648083595085"><ele>13.0</ele><time>2026-04-29T07:46:54Z</time></trkpt><trkpt lat="28.492838628234942" lon="-11.336490239780597"><ele>12.999999999999998</ele><time>2026-04-29T07:46:55Z</time></trkpt><trkpt lat="28.492757829400723" lon="-11.33650027506855"><ele>13.0</ele><time>2026-04-29T07:46:56Z</time></trkpt><trkpt lat="28.492680094257185" lon="-11.336537193401302"><ele>13.0</ele><time>2026-04-29T07:46:57Z</time></trkpt><trkpt lat="28.492608983622862" lon="-11.336587113281112"><ele>13.0</ele><time>2026-04-29T07:46:58Z</time></trkpt><trkpt lat="28.492537365285816" lon="-11.33663995604209"><ele>12.999999999999998</ele><time>2026-04-29T07:46:59Z</time></trkpt><trkpt lat="28.492461259198762" lon="-11.336689640146943"><ele>13.0</ele><time>2026-04-29T07:47:00Z</time></trkpt><trkpt lat="28.49238210884376" lon="-11.33673689616018"><ele>13.0</ele><time>2026-04-29T07:47:01Z</time></trkpt><trkpt lat="28.4923056382086" lon="-11.336784210470906"><ele>13.0</ele><time>2026-04-29T07:47:02Z</time></trkpt><trkpt lat="28.492236402264574" lon="-11.336827148502726"><ele>13.0</ele><time>2026-04-29T07:47:03Z</time></trkpt><trkpt lat="28.492138922281452" lon="-11.336887016637798"><ele>13.0</ele><time>2026-04-29T07:47:05Z</time></trkpt><trkpt lat="28.492031899319954" lon="-11.336951649669318"><ele>13.0</ele><time>2026-04-29T07:47:07Z</time></trkpt><trkpt lat="28.49192865948926" lon="-11.337006129893496"><ele>13.75</ele><time>2026-04-29T07:47:09Z</time></trkpt><trkpt lat="28.49183711954887" lon="-11.337066360427603"><ele>14.5</ele><time>2026-04-29T07:47:11Z</time></trkpt><trkpt lat="28.491681382722213" lon="-11.336907794454364"><ele>15.25</ele><time>2026-04-29T07:47:14Z</time></trkpt><trkpt lat="28.491696195793192" lon="-11.336833649576079"><ele>16.0</ele><time>2026-04-29T07:47:15Z</time></trkpt><trkpt lat="28.4917336106648" lon="-11.336751552074187"><ele>16.0</ele><time>2026-04-29T07:47:16Z</time></trkpt><trkpt lat="28.49175743035951" lon="-11.336651997820017"><ele>16.0</ele><time>2026-04-29T07:47:17Z</time></trkpt><trkpt lat="28.491784928025027" lon="-11.33654555456518"><ele>16.0</ele><time>2026-04-29T07:47:18Z</time></trkpt><trkpt lat="28.491796299075386" lon="-11.336431030020666"><ele>16.0</ele><time>2026-04-29T07:47:19Z</time></trkpt><trkpt lat="28.491824743401178" lon="-11.336316696284966"><ele>16.0</ele><time>2026-04-29T07:47:20Z</time></trkpt><trkpt lat="28.491852459075368" lon="-11.336204644205717"><ele>15.8</ele><time>2026-04-29T07:47:21Z</time></trkpt><trkpt lat="28.491880218024857" lon="-11.336092417151614"><ele>15.600000000000001</ele><time>2026-04-29T07:47:22Z</time></trkpt><trkpt lat="28.49190777642023" lon="-11.335981000930754"><ele>15.4</ele><time>2026-04-29T07:47:23Z</time></trkpt><trkpt lat="28.491934071619262" lon="-11.33587469168666"><ele>15.2</ele><time>2026-04-29T07:47:24Z</time></trkpt><trkpt lat="28.491959949272182" lon="-11.335770070589406"><ele>15.0</ele><time>2026-04-29T07:47:25Z</time></trkpt><trkpt lat="28.491984841278445" lon="-11.335669434349272"><ele>15.0</ele><time>2026-04-29T07:47:26Z</time></trkpt><trkpt lat="28.49201171896232" lon="-11.335560770212734"><ele>15.0</ele><time>2026-04-29T07:47:27Z</time></trkpt><trkpt lat="28.492039278596476" lon="-11.335449336562013"><ele>15.0</ele><time>2026-04-29T07:47:28Z</time></trkpt><trkpt lat="28.492067689006852" lon="-11.335334455495849"><ele>15.0</ele><time>2026-04-29T07:47:29Z</time></trkpt><trkpt lat="28.492095829006065" lon="-11.335220667884556"><ele>15.0</ele><time>2026-04-29T07:47:30Z</time></trkpt><trkpt lat="28.49212400529249" lon="-11.335106733537499"><ele>15.0</ele><time>2026-04-29T07:47:31Z</time></trkpt><trkpt lat="28.492151429500957" lon="-11.334995840308931"><ele>15.0</ele><time>2026-04-29T07:47:32Z</time></trkpt><trkpt lat="28.49218014370834" lon="-11.334879730809373"><ele>15.0</ele><time>2026-04-29T07:47:33Z</time></trkpt><trkpt lat="28.492208977638022" lon="-11.334763137232331"><ele>15.0</ele><time>2026-04-29T07:47:34Z</time></trkpt><trkpt lat="28.492238908821992" lon="-11.334642049892116"><ele>15.0</ele><time>2026-04-29T07:47:35Z</time></trkpt><trkpt lat="28.492270023295795" lon="-11.334516069259392"><ele>16.0</ele><time>2026-04-29T07:47:36Z</time></trkpt><trkpt lat="28.49230088693709" lon="-11.334391104487528"><ele>17.0</ele><time>2026-04-29T07:47:37Z</time></trkpt><trkpt lat="28.492334147876143" lon="-11.334259393831811"><ele>18.0</ele><time>2026-04-29T07:47:38Z</time></trkpt><trkpt lat="28.492367635705747" lon="-11.334126026285254"><ele>19.0</ele><time>2026-04-29T07:47:39Z</time></trkpt><trkpt lat="28.492401893631257" lon="-11.333989591758709"><ele>21.0</ele><time>2026-04-29T07:47:40Z</time></trkpt><trkpt lat="28.492434879458145" lon="-11.33385822345788"><ele>23.0</ele><time>2026-04-29T07:47:41Z</time></trkpt><trkpt lat="28.492467313885893" lon="-11.333729057227805"><ele>25.0</ele><time>2026-04-29T07:47:42Z</time></trkpt><trkpt lat="28.492500993985256" lon="-11.333594960064"><ele>27.0</ele><time>2026-04-29T07:47:43Z</time></trkpt><trkpt lat="28.492533613099166" lon="-11.33346508720014"><ele>27.0</ele><time>2026-04-29T07:47:44Z</time></trkpt><trkpt lat="28.49256487856016" lon="-11.33334060392389"><ele>27.000000000000004</ele><time>2026-04-29T07:47:45Z</time></trkpt><trkpt lat="28.492595217602126" lon="-11.333219785320171"><ele>27.000000000000004</ele><time>2026-04-29T07:47:46Z</time></trkpt><trkpt lat="28.49262364860807" lon="-11.333106412617347"><ele>27.0</ele><time>2026-04-29T07:47:47Z</time></trkpt><trkpt lat="28.492651017790372" lon="-11.33299727406286"><ele>27.0</ele><time>2026-04-29T07:47:48Z</time></trkpt><trkpt lat="28.492677329274972" lon="-11.33289235322883"><ele>27.8</ele><time>2026-04-29T07:47:49Z</time></trkpt><trkpt lat="28.49270105595015" lon="-11.332797739706615"><ele>28.6</ele><time>2026-04-29T07:47:50Z</time></trkpt><trkpt lat="28.492736033257543" lon="-11.3326587594168"><ele>29.400000000000002</ele><time>2026-04-29T07:47:52Z</time></trkpt><trkpt lat="28.49275666853227" lon="-11.33257691347087"><ele>30.200000000000003</ele><time>2026-04-29T07:47:53Z</time></trkpt><trkpt lat="28.492775420125508" lon="-11.332502538766562"><ele>31.0</ele><time>2026-04-29T07:47:54Z</time></trkpt><trkpt lat="28.49280521056683" lon="-11.33238438055625"><ele>31.000000000000004</ele><time>2026-04-29T07:47:56Z</time></trkpt><trkpt lat="28.492824379188345" lon="-11.332308351797124"><ele>31.0</ele><time>2026-04-29T07:47:58Z</time></trkpt><trkpt lat="28.49284461149154" lon="-11.332228104152739"><ele>31.0</ele><time>2026-04-29T07:48:01Z</time></trkpt><trkpt lat="28.492775014696367" lon="-11.332137951905487"><ele>31.0</ele><time>2026-04-29T07:48:04Z</time></trkpt><trkpt lat="28.492698418115143" lon="-11.332126335585977"><ele>31.000000000000004</ele><time>2026-04-29T07:48:05Z</time></trkpt><trkpt lat="28.492624397822944" lon="-11.332111486739615"><ele>31.0</ele><time>2026-04-29T07:48:06Z</time></trkpt><trkpt lat="28.492538932654018" lon="-11.332091350399601"><ele>31.0</ele><time>2026-04-29T07:48:07Z</time></trkpt><trkpt lat="28.492445279119455" lon="-11.33206871351255"><ele>31.0</ele><time>2026-04-29T07:48:08Z</time></trkpt><trkpt lat="28.49233750056792" lon="-11.332046222651035"><ele>31.0</ele><time>2026-04-29T07:48:09Z</time></trkpt><trkpt lat="28.492228709461347" lon="-11.332022652576795"><ele>31.0</ele><time>2026-04-29T07:48:10Z</time></trkpt><trkpt lat="28.492113342723627" lon="-11.331996456667932"><ele>31.0</ele><time>2026-04-29T07:48:11Z</time></trkpt><trkpt lat="28.491990932597986" lon="-11.331967903696484"><ele>31.0</ele><time>2026-04-29T07:48:12Z</time></trkpt><trkpt lat="28.4918553117391" lon="-11.331937549827874"><ele>31.0</ele><time>2026-04-29T07:48:13Z</time></trkpt><trkpt lat="28.491712978581855" lon="-11.331903929594333"><ele>31.0</ele><time>2026-04-29T07:48:14Z</time></trkpt><trkpt lat="28.491572831490693" lon="-11.331871288432142"><ele>31.0</ele><time>2026-04-29T07:48:15Z</time></trkpt><trkpt lat="28.49143485462038" lon="-11.331839238603065"><ele>31.0</ele><time>2026-04-29T07:48:16Z</time></trkpt><trkpt lat="28.491289074695015" lon="-11.331807799925205"><ele>31.0</ele><time>2026-04-29T07:48:17Z</time></trkpt><trkpt lat="28.49114279540071" lon="-11.331774772819559"><ele>31.0</ele><time>2026-04-29T07:48:18Z</time></trkpt><trkpt lat="28.490995129106533" lon="-11.331740055476603"><ele>31.0</ele><time>2026-04-29T07:48:19Z</time></trkpt><trkpt lat="28.490847481565027" lon="-11.331704325188834"><ele>31.0</ele><time>2026-04-29T07:48:20Z</time></trkpt><trkpt lat="28.490709603003136" lon="-11.331671716719791"><ele>31.0</ele><time>2026-04-29T07:48:21Z</time></trkpt><trkpt lat="28.490584630523994" lon="-11.331642397435795"><ele>31.0</ele><time>2026-04-29T07:48:22Z</time></trkpt><trkpt lat="28.490460370241895" lon="-11.33161230906647"><ele>31.0</ele><time>2026-04-29T07:48:23Z</time></trkpt><trkpt lat="28.49033678658985" lon="-11.331581805413256"><ele>31.0</ele><time>2026-04-29T07:48:24Z</time></trkpt><trkpt lat="28.490214862465816" lon="-11.331554034983672"><ele>31.0</ele><time>2026-04-29T07:48:25Z</time></trkpt><trkpt lat="28.490094230885013" lon="-11.331527274389995"><ele>31.0</ele><time>2026-04-29T07:48:26Z</time></trkpt><trkpt lat="28.48997414241064" lon="-11.331501585775596"><ele>31.0</ele><time>2026-04-29T07:48:27Z</time></trkpt><trkpt lat="28.48985591110218" lon="-11.331474541765054"><ele>31.0</ele><time>2026-04-29T07:48:28Z</time></trkpt><trkpt lat="28.489734597979325" lon="-11.331446798187551"><ele>31.0</ele><time>2026-04-29T07:48:29Z</time></trkpt><trkpt lat="28.489616551224845" lon="-11.331418130943966"><ele>31.0</ele><time>2026-04-29T07:48:30Z</time></trkpt><trkpt lat="28.489504789884894" lon="-11.331389566974511"><ele>31.0</ele><time>2026-04-29T07:48:31Z</time></trkpt><trkpt lat="28.489390601160192" lon="-11.33135990398236"><ele>31.25</ele><time>2026-04-29T07:48:32Z</time></trkpt><trkpt lat="28.48926633028772" lon="-11.331333385880269"><ele>31.5</ele><time>2026-04-29T07:48:33Z</time></trkpt><trkpt lat="28.489134555572424" lon="-11.33130051659018"><ele>31.75</ele><time>2026-04-29T07:48:34Z</time></trkpt><trkpt lat="28.488999605870877" lon="-11.331266706992443"><ele>32.0</ele><time>2026-04-29T07:48:35Z</time></trkpt><trkpt lat="28.488866233011514" lon="-11.331232838905409"><ele>32.0</ele><time>2026-04-29T07:48:36Z</time></trkpt><trkpt lat="28.48873640053316" lon="-11.331200208400077"><ele>32.0</ele><time>2026-04-29T07:48:37Z</time></trkpt><trkpt lat="28.488608864354195" lon="-11.331168123450228"><ele>32.0</ele><time>2026-04-29T07:48:38Z</time></trkpt><trkpt lat="28.48848330719395" lon="-11.3311376070038"><ele>32.0</ele><time>2026-04-29T07:48:39Z</time></trkpt><trkpt lat="28.488368199811994" lon="-11.331110685967388"><ele>32.0</ele><time>2026-04-29T07:48:40Z</time></trkpt><trkpt lat="28.48825996626534" lon="-11.331081952906045"><ele>32.0</ele><time>2026-04-29T07:48:41Z</time></trkpt><trkpt lat="28.488167223327384" lon="-11.331060811497245"><ele>32.0</ele><time>2026-04-29T07:48:42Z</time></trkpt><trkpt lat="28.488080840937155" lon="-11.331039422433813"><ele>32.0</ele><time>2026-04-29T07:48:43Z</time></trkpt><trkpt lat="28.48799418261505" lon="-11.331017787064606"><ele>32.0</ele><time>2026-04-29T07:48:44Z</time></trkpt><trkpt lat="28.4879036128045" lon="-11.330999021725576"><ele>32.666666666666664</ele><time>2026-04-29T07:48:45Z</time></trkpt><trkpt lat="28.487815248866355" lon="-11.330961178334764"><ele>33.33333333333333</ele><time>2026-04-29T07:48:46Z</time></trkpt><trkpt lat="28.487729115548046" lon="-11.330959566772599"><ele>34.0</ele><time>2026-04-29T07:48:47Z</time></trkpt><trkpt lat="28.4876546247619" lon="-11.330960537549029"><ele>34.666666666666664</ele><time>2026-04-29T07:48:48Z</time></trkpt><trkpt lat="28.48759010623852" lon="-11.330964817646686"><ele>35.333333333333336</ele><time>2026-04-29T07:48:49Z</time></trkpt><trkpt lat="28.487475113265234" lon="-11.331024544492454"><ele>36.0</ele><time>2026-04-29T07:48:51Z</time></trkpt><trkpt lat="28.487373588315002" lon="-11.330982987693458"><ele>36.0</ele><time>2026-04-29T07:48:53Z</time></trkpt><trkpt lat="28.487304003577634" lon="-11.33087428008886"><ele>36.0</ele><time>2026-04-29T07:48:55Z</time></trkpt><trkpt lat="28.48729755937614" lon="-11.330797056734715"><ele>36.0</ele><time>2026-04-29T07:48:56Z</time></trkpt><trkpt lat="28.487309215750383" lon="-11.33070925822236"><ele>36.0</ele><time>2026-04-29T07:48:57Z</time></trkpt><trkpt lat="28.48731763707596" lon="-11.330625758207136"><ele>36.0</ele><time>2026-04-29T07:48:58Z</time></trkpt><trkpt lat="28.487310860937026" lon="-11.330537966284943"><ele>36.0</ele><time>2026-04-29T07:48:59Z</time></trkpt><trkpt lat="28.487296682688413" lon="-11.330438821660245"><ele>36.333333333333336</ele><time>2026-04-29T07:49:00Z</time></trkpt><trkpt lat="28.487289025471867" lon="-11.330363365229008"><ele>36.666666666666664</ele><time>2026-04-29T07:49:01Z</time></trkpt><trkpt lat="28.487278538906867" lon="-11.330292435042688"><ele>37.0</ele><time>2026-04-29T07:49:02Z</time></trkpt><trkpt lat="28.487262812775363" lon="-11.330212345510335"><ele>37.33333333333333</ele><time>2026-04-29T07:49:03Z</time></trkpt><trkpt lat="28.48724321956827" lon="-11.330114248950244"><ele>37.666666666666664</ele><time>2026-04-29T07:49:04Z</time></trkpt><trkpt lat="28.48721975333695" lon="-11.33001431534062"><ele>38.0</ele><time>2026-04-29T07:49:05Z</time></trkpt><trkpt lat="28.487198538018582" lon="-11.329930434806977"><ele>38.0</ele><time>2026-04-29T07:49:06Z</time></trkpt><trkpt lat="28.48716810024062" lon="-11.329838013073394"><ele>38.0</ele><time>2026-04-29T07:49:07Z</time></trkpt><trkpt lat="28.487137315313255" lon="-11.329724188569246"><ele>38.0</ele><time>2026-04-29T07:49:08Z</time></trkpt><trkpt lat="28.487106379698005" lon="-11.329595379934675"><ele>38.0</ele><time>2026-04-29T07:49:09Z</time></trkpt><trkpt lat="28.48707374031951" lon="-11.329461362572607"><ele>38.0</ele><time>2026-04-29T07:49:10Z</time></trkpt><trkpt lat="28.487037732767895" lon="-11.329327381458539"><ele>38.0</ele><time>2026-04-29T07:49:11Z</time></trkpt><trkpt lat="28.48700369052069" lon="-11.329195627588442"><ele>38.0</ele><time>2026-04-29T07:49:12Z</time></trkpt><trkpt lat="28.486969747396433" lon="-11.32906160297021"><ele>38.0</ele><time>2026-04-29T07:49:13Z</time></trkpt><trkpt lat="28.48693733311326" lon="-11.328930549908202"><ele>38.0</ele><time>2026-04-29T07:49:14Z</time></trkpt><trkpt lat="28.486904644533183" lon="-11.328800094915952"><ele>38.0</ele><time>2026-04-29T07:49:15Z</time></trkpt><trkpt lat="28.486869912342435" lon="-11.328669310820878"><ele>38.0</ele><time>2026-04-29T07:49:16Z</time></trkpt><trkpt lat="28.48683545616507" lon="-11.328540062818115"><ele>38.0</ele><time>2026-04-29T07:49:17Z</time></trkpt><trkpt lat="28.486798398745357" lon="-11.328408213899284"><ele>38.0</ele><time>2026-04-29T07:49:18Z</time></trkpt><trkpt lat="28.486760016455797" lon="-11.328274772007715"><ele>38.0</ele><time>2026-04-29T07:49:19Z</time></trkpt><trkpt lat="28.48672438854777" lon="-11.32814111625559"><ele>38.0</ele><time>2026-04-29T07:49:20Z</time></trkpt><trkpt lat="28.486688088449988" lon="-11.32800193980532"><ele>38.0</ele><time>2026-04-29T07:49:21Z</time></trkpt><trkpt lat="28.486653470078668" lon="-11.327863812666529"><ele>38.0</ele><time>2026-04-29T07:49:22Z</time></trkpt><trkpt lat="28.48661794096926" lon="-11.32772615243679"><ele>38.75</ele><time>2026-04-29T07:49:23Z</time></trkpt><trkpt lat="28.486584241225753" lon="-11.32758721716089"><ele>39.5</ele><time>2026-04-29T07:49:24Z</time></trkpt><trkpt lat="28.486547187981948" lon="-11.327449603989283"><ele>40.25</ele><time>2026-04-29T07:49:25Z</time></trkpt><trkpt lat="28.48651046490562" lon="-11.32731216194592"><ele>41.0</ele><time>2026-04-29T07:49:26Z</time></trkpt><trkpt lat="28.48647435691452" lon="-11.327174947093427"><ele>41.25</ele><time>2026-04-29T07:49:27Z</time></trkpt><trkpt lat="28.486439388842278" lon="-11.327038188493843"><ele>41.5</ele><time>2026-04-29T07:49:28Z</time></trkpt><trkpt lat="28.486404959102682" lon="-11.3269061689369"><ele>41.75</ele><time>2026-04-29T07:49:29Z</time></trkpt><trkpt lat="28.486366684819654" lon="-11.326775630247564"><ele>42.0</ele><time>2026-04-29T07:49:30Z</time></trkpt><trkpt lat="28.486328775607426" lon="-11.326641693326568"><ele>42.0</ele><time>2026-04-29T07:49:31Z</time></trkpt><trkpt lat="28.486290424927006" lon="-11.326506175102308"><ele>42.0</ele><time>2026-04-29T07:49:32Z</time></trkpt><trkpt lat="28.486251768595373" lon="-11.326372610975765"><ele>42.0</ele><time>2026-04-29T07:49:33Z</time></trkpt><trkpt lat="28.486212681789567" lon="-11.326232938501951"><ele>42.0</ele><time>2026-04-29T07:49:34Z</time></trkpt><trkpt lat="28.486171733795125" lon="-11.326088195652076"><ele>42.5</ele><time>2026-04-29T07:49:35Z</time></trkpt><trkpt lat="28.486130831471783" lon="-11.325936632458914"><ele>43.0</ele><time>2026-04-29T07:49:36Z</time></trkpt><trkpt lat="28.48609125235061" lon="-11.325779175159159"><ele>43.5</ele><time>2026-04-29T07:49:37Z</time></trkpt><trkpt lat="28.48605308478366" lon="-11.325621485977328"><ele>44.0</ele><time>2026-04-29T07:49:38Z</time></trkpt><trkpt lat="28.48601456252148" lon="-11.32546641898384"><ele>44.0</ele><time>2026-04-29T07:49:39Z</time></trkpt><trkpt lat="28.4859733357511" lon="-11.325311431503224"><ele>44.0</ele><time>2026-04-29T07:49:40Z</time></trkpt><trkpt lat="28.485931717572182" lon="-11.325153622352287"><ele>44.0</ele><time>2026-04-29T07:49:41Z</time></trkpt><trkpt lat="28.48589070636307" lon="-11.324994852988404"><ele>44.0</ele><time>2026-04-29T07:49:42Z</time></trkpt><trkpt lat="28.48585082840276" lon="-11.324840036825064"><ele>44.25</ele><time>2026-04-29T07:49:43Z</time></trkpt><trkpt lat="28.485812140873396" lon="-11.324682916934982"><ele>44.5</ele><time>2026-04-29T07:49:44Z</time></trkpt><trkpt lat="28.485774376822945" lon="-11.324527370890614"><ele>44.75</ele><time>2026-04-29T07:49:45Z</time></trkpt><trkpt lat="28.485734318811303" lon="-11.324376602798225"><ele>45.0</ele><time>2026-04-29T07:49:46Z</time></trkpt><trkpt lat="28.485696339000015" lon="-11.324232074129624"><ele>45.0</ele><time>2026-04-29T07:49:47Z</time></trkpt><trkpt lat="28.485662149037957" lon="-11.324092372135405"><ele>45.0</ele><time>2026-04-29T07:49:48Z</time></trkpt><trkpt lat="28.485626962451576" lon="-11.323958849213515"><ele>45.0</ele><time>2026-04-29T07:49:49Z</time></trkpt><trkpt lat="28.485593226786957" lon="-11.323830234049067"><ele>45.0</ele><time>2026-04-29T07:49:50Z</time></trkpt><trkpt lat="28.485562444977862" lon="-11.323717948007184"><ele>45.2</ele><time>2026-04-29T07:49:51Z</time></trkpt><trkpt lat="28.48553131203274" lon="-11.323612330906126"><ele>45.4</ele><time>2026-04-29T07:49:52Z</time></trkpt><trkpt lat="28.485500954105348" lon="-11.323512588460359"><ele>45.599999999999994</ele><time>2026-04-29T07:49:53Z</time></trkpt><trkpt lat="28.48546569181143" lon="-11.32340383397099"><ele>45.8</ele><time>2026-04-29T07:49:54Z</time></trkpt><trkpt lat="28.485428328608364" lon="-11.323291932193326"><ele>46.0</ele><time>2026-04-29T07:49:55Z</time></trkpt><trkpt lat="28.485381058695783" lon="-11.323179415998224"><ele>46.25</ele><time>2026-04-29T07:49:56Z</time></trkpt><trkpt lat="28.485329726713555" lon="-11.323059668860276"><ele>46.5</ele><time>2026-04-29T07:49:57Z</time></trkpt><trkpt lat="28.485287512516962" lon="-11.322919321220555"><ele>46.75</ele><time>2026-04-29T07:49:58Z</time></trkpt><trkpt lat="28.48526333052558" lon="-11.322750371810187"><ele>47.0</ele><time>2026-04-29T07:49:59Z</time></trkpt><trkpt lat="28.485261158868333" lon="-11.322555895069039"><ele>47.0</ele><time>2026-04-29T07:50:00Z</time></trkpt><trkpt lat="28.485235370910257" lon="-11.322385660564287"><ele>47.0</ele><time>2026-04-29T07:50:01Z</time></trkpt><trkpt lat="28.4852002316341" lon="-11.322225509314817"><ele>47.0</ele><time>2026-04-29T07:50:02Z</time></trkpt><trkpt lat="28.485169578337125" lon="-11.32208711251951"><ele>47.0</ele><time>2026-04-29T07:50:03Z</time></trkpt><trkpt lat="28.48513633712459" lon="-11.3219459189733"><ele>47.25</ele><time>2026-04-29T07:50:04Z</time></trkpt><trkpt lat="28.48509824630204" lon="-11.321803787677183"><ele>47.5</ele><time>2026-04-29T07:50:05Z</time></trkpt><trkpt lat="28.485056862638167" lon="-11.321659132982417"><ele>47.75</ele><time>2026-04-29T07:50:06Z</time></trkpt><trkpt lat="28.48501197900192" lon="-11.32150953332813"><ele>48.0</ele><time>2026-04-29T07:50:07Z</time></trkpt><trkpt lat="28.48496540006494" lon="-11.32135382108993"><ele>48.33333333333333</ele><time>2026-04-29T07:50:08Z</time></trkpt><trkpt lat="28.484919060583078" lon="-11.321191856052918"><ele>48.666666666666664</ele><time>2026-04-29T07:50:09Z</time></trkpt><trkpt lat="28.484874314430492" lon="-11.321022190775448"><ele>49.0</ele><time>2026-04-29T07:50:10Z</time></trkpt><trkpt lat="28.484828138926925" lon="-11.32085028994221"><ele>49.0</ele><time>2026-04-29T07:50:11Z</time></trkpt><trkpt lat="28.484782873407152" lon="-11.320683253494122"><ele>49.0</ele><time>2026-04-29T07:50:12Z</time></trkpt><trkpt lat="28.4847431068469" lon="-11.320517257945664"><ele>49.0</ele><time>2026-04-29T07:50:13Z</time></trkpt><trkpt lat="28.48470077805737" lon="-11.320356938197598"><ele>49.5</ele><time>2026-04-29T07:50:14Z</time></trkpt><trkpt lat="28.48465614996712" lon="-11.320197185613402"><ele>50.0</ele><time>2026-04-29T07:50:15Z</time></trkpt><trkpt lat="28.484611105855254" lon="-11.320035841169066"><ele>50.5</ele><time>2026-04-29T07:50:16Z</time></trkpt><trkpt lat="28.484567150301114" lon="-11.3198782979289"><ele>51.0</ele><time>2026-04-29T07:50:17Z</time></trkpt><trkpt lat="28.484526802146387" lon="-11.319721381046609"><ele>52.25</ele><time>2026-04-29T07:50:18Z</time></trkpt><trkpt lat="28.48448648604981" lon="-11.319571432240338"><ele>53.5</ele><time>2026-04-29T07:50:19Z</time></trkpt><trkpt lat="28.484444827975153" lon="-11.319424860938467"><ele>54.75</ele><time>2026-04-29T07:50:20Z</time></trkpt><trkpt lat="28.48439607149739" lon="-11.319274891555981"><ele>56.0</ele><time>2026-04-29T07:50:21Z</time></trkpt><trkpt lat="28.484342017399815" lon="-11.319124768003782"><ele>56.0</ele><time>2026-04-29T07:50:22Z</time></trkpt><trkpt lat="28.484287366482345" lon="-11.318969391019234"><ele>56.0</ele><time>2026-04-29T07:50:23Z</time></trkpt><trkpt lat="28.484235321102446" lon="-11.318808844912212"><ele>56.0</ele><time>2026-04-29T07:50:24Z</time></trkpt><trkpt lat="28.484183940499612" lon="-11.318642376760382"><ele>56.66666666666667</ele><time>2026-04-29T07:50:25Z</time></trkpt><trkpt lat="28.48413057370734" lon="-11.31846411099237"><ele>57.33333333333333</ele><time>2026-04-29T07:50:26Z</time></trkpt><trkpt lat="28.484078818775806" lon="-11.318273213479927"><ele>58.0</ele><time>2026-04-29T07:50:27Z</time></trkpt><trkpt lat="28.48403173397148" lon="-11.318080226594141"><ele>58.666666666666664</ele><time>2026-04-29T07:50:28Z</time></trkpt><trkpt lat="28.48398523299344" lon="-11.31789170954464"><ele>59.33333333333333</ele><time>2026-04-29T07:50:29Z</time></trkpt><trkpt lat="28.483935126602464" lon="-11.317694396772358"><ele>60.0</ele><time>2026-04-29T07:50:30Z</time></trkpt><trkpt lat="28.483884171972377" lon="-11.317481337996242"><ele>60.0</ele><time>2026-04-29T07:50:31Z</time></trkpt><trkpt lat="28.483828746341683" lon="-11.317254565444186"><ele>60.0</ele><time>2026-04-29T07:50:32Z</time></trkpt><trkpt lat="28.483770722044664" lon="-11.317017054541576"><ele>60.0</ele><time>2026-04-29T07:50:33Z</time></trkpt><trkpt lat="28.483709561930134" lon="-11.316773226432268"><ele>60.0</ele><time>2026-04-29T07:50:34Z</time></trkpt><trkpt lat="28.483644544218098" lon="-11.316531465321683"><ele>60.0</ele><time>2026-04-29T07:50:35Z</time></trkpt><trkpt lat="28.483575930562928" lon="-11.316288161033434"><ele>60.0</ele><time>2026-04-29T07:50:36Z</time></trkpt><trkpt lat="28.483501314788374" lon="-11.316043787480218"><ele>60.0</ele><time>2026-04-29T07:50:37Z</time></trkpt><trkpt lat="28.483421918083746" lon="-11.315803557618837"><ele>60.0</ele><time>2026-04-29T07:50:38Z</time></trkpt><trkpt lat="28.483348282676737" lon="-11.315567102732645"><ele>60.0</ele><time>2026-04-29T07:50:39Z</time></trkpt><trkpt lat="28.483283496193" lon="-11.315340712084398"><ele>60.0</ele><time>2026-04-29T07:50:40Z</time></trkpt><trkpt lat="28.483225904651558" lon="-11.31513019141864"><ele>60.0</ele><time>2026-04-29T07:50:41Z</time></trkpt><trkpt lat="28.483169915137548" lon="-11.31493253377587"><ele>60.0</ele><time>2026-04-29T07:50:42Z</time></trkpt><trkpt lat="28.483118025101536" lon="-11.31473510463759"><ele>59.66666666666667</ele><time>2026-04-29T07:50:43Z</time></trkpt><trkpt lat="28.483070038972496" lon="-11.314547169803072"><ele>59.333333333333336</ele><time>2026-04-29T07:50:44Z</time></trkpt><trkpt lat="28.483022988253705" lon="-11.314369498999575"><ele>59.0</ele><time>2026-04-29T07:50:45Z</time></trkpt><trkpt lat="28.482974560889573" lon="-11.314182357471328"><ele>59.0</ele><time>2026-04-29T07:50:46Z</time></trkpt><trkpt lat="28.482928139889566" lon="-11.314001298416054"><ele>59.0</ele><time>2026-04-29T07:50:47Z</time></trkpt><trkpt lat="28.482884823875484" lon="-11.313834217900895"><ele>59.0</ele><time>2026-04-29T07:50:48Z</time></trkpt><trkpt lat="28.482840765346936" lon="-11.313665822372558"><ele>58.66666666666667</ele><time>2026-04-29T07:50:49Z</time></trkpt><trkpt lat="28.482796514013277" lon="-11.313493839228123"><ele>58.33333333333333</ele><time>2026-04-29T07:50:50Z</time></trkpt><trkpt lat="28.4827518491849" lon="-11.313323946686008"><ele>58.0</ele><time>2026-04-29T07:50:51Z</time></trkpt><trkpt lat="28.482707314200873" lon="-11.313147360468207"><ele>60.0</ele><time>2026-04-29T07:50:52Z</time></trkpt><trkpt lat="28.482662323815656" lon="-11.312974756513466"><ele>62.0</ele><time>2026-04-29T07:50:53Z</time></trkpt><trkpt lat="28.482615506154367" lon="-11.31279827955959"><ele>64.0</ele><time>2026-04-29T07:50:54Z</time></trkpt><trkpt lat="28.482567323295804" lon="-11.312623243024516"><ele>64.0</ele><time>2026-04-29T07:50:55Z</time></trkpt><trkpt lat="28.482518456853214" lon="-11.312445282251055"><ele>64.0</ele><time>2026-04-29T07:50:56Z</time></trkpt><trkpt lat="28.482470928934152" lon="-11.312265372437873"><ele>64.0</ele><time>2026-04-29T07:50:57Z</time></trkpt><trkpt lat="28.482421262065255" lon="-11.312080660241957"><ele>63.33333333333333</ele><time>2026-04-29T07:50:58Z</time></trkpt><trkpt lat="28.482369975007128" lon="-11.31189245969406"><ele>62.66666666666667</ele><time>2026-04-29T07:50:59Z</time></trkpt><trkpt lat="28.482317213823233" lon="-11.311699955125851"><ele>62.0</ele><time>2026-04-29T07:51:00Z</time></trkpt><trkpt lat="28.482265403566046" lon="-11.311503050220905"><ele>62.333333333333336</ele><time>2026-04-29T07:51:01Z</time></trkpt><trkpt lat="28.48221085517316" lon="-11.311295816187108"><ele>62.66666666666667</ele><time>2026-04-29T07:51:02Z</time></trkpt><trkpt lat="28.482152269352074" lon="-11.311079186532673"><ele>63.0</ele><time>2026-04-29T07:51:03Z</time></trkpt><trkpt lat="28.48209227145241" lon="-11.310864873475426"><ele>63.0</ele><time>2026-04-29T07:51:04Z</time></trkpt><trkpt lat="28.482038250031867" lon="-11.310655848255356"><ele>63.0</ele><time>2026-04-29T07:51:05Z</time></trkpt><trkpt lat="28.481989288674608" lon="-11.310463517335833"><ele>63.0</ele><time>2026-04-29T07:51:06Z</time></trkpt><trkpt lat="28.48194202837252" lon="-11.310279947597165"><ele>63.33333333333333</ele><time>2026-04-29T07:51:07Z</time></trkpt><trkpt lat="28.481898801366444" lon="-11.310106197005839"><ele>63.666666666666664</ele><time>2026-04-29T07:51:08Z</time></trkpt><trkpt lat="28.48185192959643" lon="-11.309933881308908"><ele>64.0</ele><time>2026-04-29T07:51:09Z</time></trkpt><trkpt lat="28.481803369550565" lon="-11.30975661028257"><ele>64.0</ele><time>2026-04-29T07:51:10Z</time></trkpt><trkpt lat="28.48175480374838" lon="-11.309570234753933"><ele>64.0</ele><time>2026-04-29T07:51:11Z</time></trkpt><trkpt lat="28.48170594740763" lon="-11.309379229918221"><ele>64.0</ele><time>2026-04-29T07:51:12Z</time></trkpt><trkpt lat="28.481656776121536" lon="-11.309191081704954"><ele>64.0</ele><time>2026-04-29T07:51:13Z</time></trkpt><trkpt lat="28.481605635058134" lon="-11.309003961961926"><ele>64.0</ele><time>2026-04-29T07:51:14Z</time></trkpt><trkpt lat="28.481553686309358" lon="-11.308815482634275"><ele>64.0</ele><time>2026-04-29T07:51:15Z</time></trkpt><trkpt lat="28.481503571776475" lon="-11.308626033335269"><ele>64.33333333333333</ele><time>2026-04-29T07:51:16Z</time></trkpt><trkpt lat="28.481453923272067" lon="-11.30843727948367"><ele>64.66666666666667</ele><time>2026-04-29T07:51:17Z</time></trkpt><trkpt lat="28.481406333883978" lon="-11.308262043999669"><ele>65.0</ele><time>2026-04-29T07:51:18Z</time></trkpt><trkpt lat="28.48136260258199" lon="-11.308096030319094"><ele>64.75</ele><time>2026-04-29T07:51:19Z</time></trkpt><trkpt lat="28.481321726647675" lon="-11.307940184315703"><ele>64.5</ele><time>2026-04-29T07:51:20Z</time></trkpt><trkpt lat="28.48127904667691" lon="-11.307780273975363"><ele>64.25</ele><time>2026-04-29T07:51:21Z</time></trkpt><trkpt lat="28.481237064643636" lon="-11.307621215526137"><ele>64.0</ele><time>2026-04-29T07:51:22Z</time></trkpt><trkpt lat="28.48119824624179" lon="-11.307473035576646"><ele>63.75</ele><time>2026-04-29T07:51:23Z</time></trkpt><trkpt lat="28.481162832244525" lon="-11.307336408143959"><ele>63.5</ele><time>2026-04-29T07:51:24Z</time></trkpt><trkpt lat="28.481129198801433" lon="-11.307204475649527"><ele>63.25</ele><time>2026-04-29T07:51:25Z</time></trkpt><trkpt lat="28.481096867923384" lon="-11.307074428633177"><ele>63.0</ele><time>2026-04-29T07:51:26Z</time></trkpt><trkpt lat="28.481062453357655" lon="-11.306946587850362"><ele>63.75</ele><time>2026-04-29T07:51:27Z</time></trkpt><trkpt lat="28.481028922392927" lon="-11.306815471984065"><ele>64.5</ele><time>2026-04-29T07:51:28Z</time></trkpt><trkpt lat="28.48099342210844" lon="-11.306685443359767"><ele>65.25</ele><time>2026-04-29T07:51:29Z</time></trkpt><trkpt lat="28.480958851244193" lon="-11.306570139216781"><ele>66.0</ele><time>2026-04-29T07:51:30Z</time></trkpt><trkpt lat="28.48092024032577" lon="-11.3064597339446"><ele>66.16666666666667</ele><time>2026-04-29T07:51:31Z</time></trkpt><trkpt lat="28.480873202153173" lon="-11.30634586621823"><ele>66.33333333333333</ele><time>2026-04-29T07:51:32Z</time></trkpt><trkpt lat="28.48082087352947" lon="-11.306245013665642"><ele>66.5</ele><time>2026-04-29T07:51:33Z</time></trkpt><trkpt lat="28.480775529790677" lon="-11.306160329110641"><ele>66.66666666666666</ele><time>2026-04-29T07:51:34Z</time></trkpt><trkpt lat="28.480734057917818" lon="-11.306105244952517"><ele>66.83333333333333</ele><time>2026-04-29T07:51:35Z</time></trkpt><trkpt lat="28.48068942414699" lon="-11.306037578650539"><ele>67.0</ele><time>2026-04-29T07:51:37Z</time></trkpt><trkpt lat="28.48067792073525" lon="-11.30587205992908"><ele>67.0</ele><time>2026-04-29T07:51:52Z</time></trkpt><trkpt lat="28.480686033500493" lon="-11.305796332669658"><ele>67.0</ele><time>2026-04-29T07:51:53Z</time></trkpt><trkpt lat="28.480693915007972" lon="-11.305699117981922"><ele>67.0</ele><time>2026-04-29T07:51:54Z</time></trkpt><trkpt lat="28.480695504516426" lon="-11.305602001319723"><ele>67.0</ele><time>2026-04-29T07:51:55Z</time></trkpt><trkpt lat="28.48069023343241" lon="-11.305494617408446"><ele>67.0</ele><time>2026-04-29T07:51:56Z</time></trkpt><trkpt lat="28.480668781392325" lon="-11.30537934727358"><ele>67.0</ele><time>2026-04-29T07:51:57Z</time></trkpt><trkpt lat="28.480634247400655" lon="-11.305252701476109"><ele>67.25</ele><time>2026-04-29T07:51:58Z</time></trkpt><trkpt lat="28.48058974493218" lon="-11.305112434397655"><ele>67.5</ele><time>2026-04-29T07:51:59Z</time></trkpt><trkpt lat="28.480541032920264" lon="-11.304966771295998"><ele>67.75</ele><time>2026-04-29T07:52:00Z</time></trkpt><trkpt lat="28.480495785190428" lon="-11.304815983780923"><ele>68.0</ele><time>2026-04-29T07:52:01Z</time></trkpt><trkpt lat="28.480457866785372" lon="-11.30465783348027"><ele>67.66666666666667</ele><time>2026-04-29T07:52:02Z</time></trkpt><trkpt lat="28.480423741285712" lon="-11.304491032849278"><ele>67.33333333333333</ele><time>2026-04-29T07:52:03Z</time></trkpt><trkpt lat="28.480385843863438" lon="-11.304321195593374"><ele>67.0</ele><time>2026-04-29T07:52:04Z</time></trkpt><trkpt lat="28.480344488573742" lon="-11.304148278208297"><ele>67.0</ele><time>2026-04-29T07:52:05Z</time></trkpt><trkpt lat="28.480300660583154" lon="-11.303972107373664"><ele>67.0</ele><time>2026-04-29T07:52:06Z</time></trkpt><trkpt lat="28.480255867578304" lon="-11.30379628077007"><ele>67.0</ele><time>2026-04-29T07:52:07Z</time></trkpt><trkpt lat="28.48020548535578" lon="-11.303616272808522"><ele>67.66666666666666</ele><time>2026-04-29T07:52:08Z</time></trkpt><trkpt lat="28.480145697564122" lon="-11.30344501701719"><ele>68.33333333333333</ele><time>2026-04-29T07:52:09Z</time></trkpt><trkpt lat="28.480086795609598" lon="-11.303274288309858"><ele>69.0</ele><time>2026-04-29T07:52:10Z</time></trkpt><trkpt lat="28.48003528120968" lon="-11.303100652640037"><ele>69.66666666666667</ele><time>2026-04-29T07:52:11Z</time></trkpt><trkpt lat="28.47998989692028" lon="-11.302925922287308"><ele>70.33333333333334</ele><time>2026-04-29T07:52:12Z</time></trkpt><trkpt lat="28.479947908061835" lon="-11.30275086158854"><ele>71.0</ele><time>2026-04-29T07:52:13Z</time></trkpt><trkpt lat="28.479906342483538" lon="-11.302572838021144"><ele>71.0</ele><time>2026-04-29T07:52:14Z</time></trkpt><trkpt lat="28.479869757214846" lon="-11.302395955654788"><ele>71.0</ele><time>2026-04-29T07:52:15Z</time></trkpt><trkpt lat="28.47983422615911" lon="-11.302213078685305"><ele>71.0</ele><time>2026-04-29T07:52:16Z</time></trkpt><trkpt lat="28.479802042050224" lon="-11.302025721979534"><ele>70.33333333333334</ele><time>2026-04-29T07:52:17Z</time></trkpt><trkpt lat="28.47977378504067" lon="-11.301836557611795"><ele>69.66666666666667</ele><time>2026-04-29T07:52:18Z</time></trkpt><trkpt lat="28.479750712957593" lon="-11.30164720507231"><ele>69.0</ele><time>2026-04-29T07:52:19Z</time></trkpt><trkpt lat="28.479729924597795" lon="-11.301453685756835"><ele>69.66666666666667</ele><time>2026-04-29T07:52:20Z</time></trkpt><trkpt lat="28.479712213841825" lon="-11.30125717118512"><ele>70.33333333333334</ele><time>2026-04-29T07:52:21Z</time></trkpt><trkpt lat="28.479697440317565" lon="-11.301056648466394"><ele>71.0</ele><time>2026-04-29T07:52:22Z</time></trkpt><trkpt lat="28.479688880821872" lon="-11.300850120628912"><ele>71.0</ele><time>2026-04-29T07:52:23Z</time></trkpt><trkpt lat="28.479682114497034" lon="-11.30063561900299"><ele>71.0</ele><time>2026-04-29T07:52:24Z</time></trkpt><trkpt lat="28.47967991537059" lon="-11.30042997182077"><ele>71.0</ele><time>2026-04-29T07:52:25Z</time></trkpt><trkpt lat="28.479682099135587" lon="-11.30021909935445"><ele>71.0</ele><time>2026-04-29T07:52:26Z</time></trkpt><trkpt lat="28.479688902314674" lon="-11.299998219484578"><ele>71.0</ele><time>2026-04-29T07:52:27Z</time></trkpt><trkpt lat="28.479695052280825" lon="-11.299771328163093"><ele>71.0</ele><time>2026-04-29T07:52:28Z</time></trkpt><trkpt lat="28.479703339854666" lon="-11.299542624006273"><ele>71.33333333333334</ele><time>2026-04-29T07:52:29Z</time></trkpt><trkpt lat="28.479713348211757" lon="-11.299311695973197"><ele>71.66666666666667</ele><time>2026-04-29T07:52:30Z</time></trkpt><trkpt lat="28.47972124197269" lon="-11.299081679951637"><ele>72.0</ele><time>2026-04-29T07:52:31Z</time></trkpt><trkpt lat="28.479728320220808" lon="-11.298849259825776"><ele>71.0</ele><time>2026-04-29T07:52:32Z</time></trkpt><trkpt lat="28.47973700335001" lon="-11.298616455197688"><ele>70.0</ele><time>2026-04-29T07:52:33Z</time></trkpt><trkpt lat="28.479745677173764" lon="-11.298381156439596"><ele>69.0</ele><time>2026-04-29T07:52:34Z</time></trkpt><trkpt lat="28.479755159437744" lon="-11.29814574305439"><ele>69.33333333333333</ele><time>2026-04-29T07:52:35Z</time></trkpt><trkpt lat="28.479765378719243" lon="-11.297908580927595"><ele>69.66666666666666</ele><time>2026-04-29T07:52:36Z</time></trkpt><trkpt lat="28.47977305649951" lon="-11.297669864028906"><ele>70.0</ele><time>2026-04-29T07:52:37Z</time></trkpt><trkpt lat="28.47978134060438" lon="-11.29743527047735"><ele>70.0</ele><time>2026-04-29T07:52:38Z</time></trkpt><trkpt lat="28.479788631263293" lon="-11.297194386592242"><ele>70.0</ele><time>2026-04-29T07:52:39Z</time></trkpt><trkpt lat="28.479796691269357" lon="-11.296954980548124"><ele>70.0</ele><time>2026-04-29T07:52:40Z</time></trkpt><trkpt lat="28.479806898001545" lon="-11.29671303841717"><ele>70.0</ele><time>2026-04-29T07:52:41Z</time></trkpt><trkpt lat="28.47981609823282" lon="-11.296470432653424"><ele>70.0</ele><time>2026-04-29T07:52:42Z</time></trkpt><trkpt lat="28.47982469730572" lon="-11.296231417024023"><ele>70.0</ele><time>2026-04-29T07:52:43Z</time></trkpt><trkpt lat="28.479832618168892" lon="-11.295990991070362"><ele>70.0</ele><time>2026-04-29T07:52:44Z</time></trkpt><trkpt lat="28.479840223758398" lon="-11.29575250645421"><ele>70.0</ele><time>2026-04-29T07:52:45Z</time></trkpt><trkpt lat="28.47984858532971" lon="-11.295514585662717"><ele>70.0</ele><time>2026-04-29T07:52:46Z</time></trkpt><trkpt lat="28.47985843929818" lon="-11.295277393699466"><ele>70.66666666666666</ele><time>2026-04-29T07:52:47Z</time></trkpt><trkpt lat="28.479867947337087" lon="-11.295041333782148"><ele>71.33333333333333</ele><time>2026-04-29T07:52:48Z</time></trkpt><trkpt lat="28.47987700660409" lon="-11.294803108726613"><ele>72.0</ele><time>2026-04-29T07:52:49Z</time></trkpt><trkpt lat="28.479884933531714" lon="-11.294566020031823"><ele>72.0</ele><time>2026-04-29T07:52:50Z</time></trkpt><trkpt lat="28.4798936589006" lon="-11.294327809914368"><ele>72.0</ele><time>2026-04-29T07:52:51Z</time></trkpt><trkpt lat="28.479902653034763" lon="-11.294090143262876"><ele>72.0</ele><time>2026-04-29T07:52:52Z</time></trkpt><trkpt lat="28.479912069454702" lon="-11.293850557216485"><ele>71.66666666666667</ele><time>2026-04-29T07:52:53Z</time></trkpt><trkpt lat="28.47992102039269" lon="-11.293612788264376"><ele>71.33333333333334</ele><time>2026-04-29T07:52:54Z</time></trkpt><trkpt lat="28.47993075034228" lon="-11.293374761153222"><ele>71.0</ele><time>2026-04-29T07:52:55Z</time></trkpt><trkpt lat="28.479940556314048" lon="-11.293136889746679"><ele>71.0</ele><time>2026-04-29T07:52:56Z</time></trkpt><trkpt lat="28.479951070103553" lon="-11.292898610291708"><ele>71.0</ele><time>2026-04-29T07:52:57Z</time></trkpt><trkpt lat="28.47996106157853" lon="-11.292658365441676"><ele>71.0</ele><time>2026-04-29T07:52:58Z</time></trkpt><trkpt lat="28.479973076777224" lon="-11.292417439081676"><ele>71.33333333333334</ele><time>2026-04-29T07:52:59Z</time></trkpt><trkpt lat="28.47998354867944" lon="-11.292179842293114"><ele>71.66666666666667</ele><time>2026-04-29T07:53:00Z</time></trkpt><trkpt lat="28.4799931971424" lon="-11.291941345817202"><ele>72.0</ele><time>2026-04-29T07:53:01Z</time></trkpt><trkpt lat="28.48000289781027" lon="-11.29170449387797"><ele>72.0</ele><time>2026-04-29T07:53:02Z</time></trkpt><trkpt lat="28.480013307315936" lon="-11.291464116690626"><ele>72.0</ele><time>2026-04-29T07:53:03Z</time></trkpt><trkpt lat="28.480024481563763" lon="-11.291214970490769"><ele>72.0</ele><time>2026-04-29T07:53:04Z</time></trkpt><trkpt lat="28.480038385634934" lon="-11.290956275595699"><ele>72.0</ele><time>2026-04-29T07:53:05Z</time></trkpt><trkpt lat="28.480053290472892" lon="-11.290690741546298"><ele>72.0</ele><time>2026-04-29T07:53:06Z</time></trkpt><trkpt lat="28.48006613681188" lon="-11.290419211062847"><ele>72.0</ele><time>2026-04-29T07:53:07Z</time></trkpt><trkpt lat="28.480077612266427" lon="-11.290144633841026"><ele>72.0</ele><time>2026-04-29T07:53:08Z</time></trkpt><trkpt lat="28.480091259081064" lon="-11.289866840906424"><ele>72.5</ele><time>2026-04-29T07:53:09Z</time></trkpt><trkpt lat="28.480104481308615" lon="-11.289588949493012"><ele>73.0</ele><time>2026-04-29T07:53:10Z</time></trkpt><trkpt lat="28.480117661903527" lon="-11.28930734341226"><ele>73.0</ele><time>2026-04-29T07:53:11Z</time></trkpt><trkpt lat="28.480130701230987" lon="-11.289025762038179"><ele>73.0</ele><time>2026-04-29T07:53:12Z</time></trkpt><trkpt lat="28.480139515577804" lon="-11.288745078484661"><ele>73.5</ele><time>2026-04-29T07:53:13Z</time></trkpt><trkpt lat="28.480143125689587" lon="-11.288462162099574"><ele>74.0</ele><time>2026-04-29T07:53:14Z</time></trkpt><trkpt lat="28.480143174245445" lon="-11.288179647564938"><ele>73.5</ele><time>2026-04-29T07:53:15Z</time></trkpt><trkpt lat="28.480147685725775" lon="-11.28789635640278"><ele>73.0</ele><time>2026-04-29T07:53:16Z</time></trkpt><trkpt lat="28.480155707091136" lon="-11.287614873679969"><ele>73.0</ele><time>2026-04-29T07:53:17Z</time></trkpt><trkpt lat="28.4801684419734" lon="-11.287334078123207"><ele>73.0</ele><time>2026-04-29T07:53:18Z</time></trkpt><trkpt lat="28.480180382727156" lon="-11.287054689792647"><ele>73.0</ele><time>2026-04-29T07:53:19Z</time></trkpt><trkpt lat="28.48019055342807" lon="-11.28677750273596"><ele>73.0</ele><time>2026-04-29T07:53:20Z</time></trkpt><trkpt lat="28.480200277682354" lon="-11.286500089222727"><ele>72.5</ele><time>2026-04-29T07:53:21Z</time></trkpt><trkpt lat="28.480207336716575" lon="-11.286225984653695"><ele>72.0</ele><time>2026-04-29T07:53:22Z</time></trkpt><trkpt lat="28.48021607247939" lon="-11.28595247777715"><ele>72.0</ele><time>2026-04-29T07:53:23Z</time></trkpt><trkpt lat="28.480227239170816" lon="-11.285680345944309"><ele>72.0</ele><time>2026-04-29T07:53:24Z</time></trkpt><trkpt lat="28.48023752511515" lon="-11.285411737338118"><ele>71.0</ele><time>2026-04-29T07:53:25Z</time></trkpt><trkpt lat="28.480245342741682" lon="-11.285143922193143"><ele>70.0</ele><time>2026-04-29T07:53:26Z</time></trkpt><trkpt lat="28.480251750590657" lon="-11.284873388181614"><ele>71.0</ele><time>2026-04-29T07:53:27Z</time></trkpt><trkpt lat="28.48026171731613" lon="-11.284601297892142"><ele>72.0</ele><time>2026-04-29T07:53:28Z</time></trkpt><trkpt lat="28.480270131060948" lon="-11.28432955275958"><ele>72.0</ele><time>2026-04-29T07:53:29Z</time></trkpt><trkpt lat="28.480281047326454" lon="-11.284058260090584"><ele>72.0</ele><time>2026-04-29T07:53:30Z</time></trkpt><trkpt lat="28.480291119611465" lon="-11.283782657762238"><ele>72.0</ele><time>2026-04-29T07:53:31Z</time></trkpt><trkpt lat="28.480301601192462" lon="-11.283507755237947"><ele>72.0</ele><time>2026-04-29T07:53:32Z</time></trkpt><trkpt lat="28.480305547377565" lon="-11.283236036033632"><ele>72.0</ele><time>2026-04-29T07:53:33Z</time></trkpt><trkpt lat="28.480302995256885" lon="-11.282961435172975"><ele>72.0</ele><time>2026-04-29T07:53:34Z</time></trkpt><trkpt lat="28.480294207751367" lon="-11.282684130609383"><ele>72.0</ele><time>2026-04-29T07:53:35Z</time></trkpt><trkpt lat="28.48028160530238" lon="-11.282401614289872"><ele>72.0</ele><time>2026-04-29T07:53:36Z</time></trkpt><trkpt lat="28.480298431995855" lon="-11.28211983022017"><ele>71.0</ele><time>2026-04-29T07:53:37Z</time></trkpt><trkpt lat="28.480251399127596" lon="-11.281833088990139"><ele>70.0</ele><time>2026-04-29T07:53:38Z</time></trkpt><trkpt lat="28.48023338383" lon="-11.281543993515877"><ele>71.0</ele><time>2026-04-29T07:53:39Z</time></trkpt><trkpt lat="28.48021564105123" lon="-11.281254820867817"><ele>72.0</ele><time>2026-04-29T07:53:40Z</time></trkpt><trkpt lat="28.48020258994847" lon="-11.280957872208663"><ele>72.0</ele><time>2026-04-29T07:53:41Z</time></trkpt><trkpt lat="28.480192346840774" lon="-11.280649640674135"><ele>72.0</ele><time>2026-04-29T07:53:42Z</time></trkpt><trkpt lat="28.48018128726878" lon="-11.28033789183787"><ele>72.5</ele><time>2026-04-29T07:53:43Z</time></trkpt><trkpt lat="28.480164355441726" lon="-11.280026750242017"><ele>73.0</ele><time>2026-04-29T07:53:44Z</time></trkpt><trkpt lat="28.48014497326817" lon="-11.279723664895682"><ele>71.5</ele><time>2026-04-29T07:53:45Z</time></trkpt><trkpt lat="28.48012748132667" lon="-11.279426825220822"><ele>70.0</ele><time>2026-04-29T07:53:46Z</time></trkpt><trkpt lat="28.480114405960276" lon="-11.279126944371027"><ele>71.5</ele><time>2026-04-29T07:53:47Z</time></trkpt><trkpt lat="28.48010259911666" lon="-11.278804792077198"><ele>73.0</ele><time>2026-04-29T07:53:48Z</time></trkpt><trkpt lat="28.480083250132733" lon="-11.27847534425831"><ele>73.0</ele><time>2026-04-29T07:53:49Z</time></trkpt><trkpt lat="28.480053336055846" lon="-11.278152758199388"><ele>73.0</ele><time>2026-04-29T07:53:50Z</time></trkpt><trkpt lat="28.480018893340866" lon="-11.277843987785454"><ele>73.0</ele><time>2026-04-29T07:53:51Z</time></trkpt><trkpt lat="28.479989160625347" lon="-11.277551433715345"><ele>73.0</ele><time>2026-04-29T07:53:52Z</time></trkpt><trkpt lat="28.47996673366148" lon="-11.277261604202724"><ele>73.5</ele><time>2026-04-29T07:53:53Z</time></trkpt><trkpt lat="28.479950513465994" lon="-11.276980898556841"><ele>74.0</ele><time>2026-04-29T07:53:54Z</time></trkpt><trkpt lat="28.47993607465275" lon="-11.27672101550253"><ele>74.0</ele><time>2026-04-29T07:53:55Z</time></trkpt><trkpt lat="28.479921552530865" lon="-11.276476074356221"><ele>74.0</ele><time>2026-04-29T07:53:56Z</time></trkpt><trkpt lat="28.479906387988148" lon="-11.276235897868238"><ele>74.0</ele><time>2026-04-29T07:53:57Z</time></trkpt><trkpt lat="28.479888610262993" lon="-11.276002967198963"><ele>74.0</ele><time>2026-04-29T07:53:58Z</time></trkpt><trkpt lat="28.479873234152432" lon="-11.275789081874109"><ele>74.0</ele><time>2026-04-29T07:53:59Z</time></trkpt><trkpt lat="28.479863099163993" lon="-11.275585697381986"><ele>74.0</ele><time>2026-04-29T07:54:00Z</time></trkpt><trkpt lat="28.479853174078197" lon="-11.275365856591282"><ele>74.0</ele><time>2026-04-29T07:54:01Z</time></trkpt><trkpt lat="28.479838577623674" lon="-11.275132854452332"><ele>74.0</ele><time>2026-04-29T07:54:02Z</time></trkpt><trkpt lat="28.479820609182127" lon="-11.274886252379368"><ele>74.0</ele><time>2026-04-29T07:54:03Z</time></trkpt><trkpt lat="28.479802723567847" lon="-11.274621312266467"><ele>74.0</ele><time>2026-04-29T07:54:04Z</time></trkpt><trkpt lat="28.47978486873741" lon="-11.274339083693077"><ele>74.0</ele><time>2026-04-29T07:54:05Z</time></trkpt><trkpt lat="28.479766030104397" lon="-11.274052428612945"><ele>74.0</ele><time>2026-04-29T07:54:06Z</time></trkpt><trkpt lat="28.479749305042617" lon="-11.27377167955622"><ele>74.0</ele><time>2026-04-29T07:54:07Z</time></trkpt><trkpt lat="28.479732200159884" lon="-11.273499610038519"><ele>74.0</ele><time>2026-04-29T07:54:08Z</time></trkpt><trkpt lat="28.479712714799824" lon="-11.273235205107447"><ele>74.0</ele><time>2026-04-29T07:54:09Z</time></trkpt><trkpt lat="28.479697155181853" lon="-11.27297513963002"><ele>74.0</ele><time>2026-04-29T07:54:10Z</time></trkpt><trkpt lat="28.479682289940207" lon="-11.272719606738281"><ele>74.0</ele><time>2026-04-29T07:54:11Z</time></trkpt><trkpt lat="28.479667369856408" lon="-11.272471829247323"><ele>74.0</ele><time>2026-04-29T07:54:12Z</time></trkpt><trkpt lat="28.479652609204585" lon="-11.272233369130795"><ele>74.33333333333334</ele><time>2026-04-29T07:54:13Z</time></trkpt><trkpt lat="28.479635589776166" lon="-11.272000523381639"><ele>74.66666666666667</ele><time>2026-04-29T07:54:14Z</time></trkpt><trkpt lat="28.47962025068609" lon="-11.271770805401516"><ele>75.0</ele><time>2026-04-29T07:54:15Z</time></trkpt><trkpt lat="28.479605014730648" lon="-11.271544627851494"><ele>74.66666666666667</ele><time>2026-04-29T07:54:16Z</time></trkpt><trkpt lat="28.47959000298623" lon="-11.271319225784364"><ele>74.33333333333334</ele><time>2026-04-29T07:54:17Z</time></trkpt><trkpt lat="28.479577880308586" lon="-11.2710953374955"><ele>74.0</ele><time>2026-04-29T07:54:18Z</time></trkpt><trkpt lat="28.47956287245732" lon="-11.270867885315104"><ele>74.0</ele><time>2026-04-29T07:54:19Z</time></trkpt><trkpt lat="28.479547714556002" lon="-11.270635473343113"><ele>74.0</ele><time>2026-04-29T07:54:20Z</time></trkpt><trkpt lat="28.479531933470117" lon="-11.27039578719391"><ele>74.0</ele><time>2026-04-29T07:54:21Z</time></trkpt><trkpt lat="28.479518818120386" lon="-11.270153121637062"><ele>73.66666666666667</ele><time>2026-04-29T07:54:22Z</time></trkpt><trkpt lat="28.479504450829737" lon="-11.269914437845884"><ele>73.33333333333333</ele><time>2026-04-29T07:54:23Z</time></trkpt><trkpt lat="28.479489051732166" lon="-11.269666262300069"><ele>73.0</ele><time>2026-04-29T07:54:24Z</time></trkpt><trkpt lat="28.479472966086377" lon="-11.269412944666259"><ele>73.0</ele><time>2026-04-29T07:54:25Z</time></trkpt><trkpt lat="28.479454860692385" lon="-11.269142621547392"><ele>73.0</ele><time>2026-04-29T07:54:26Z</time></trkpt><trkpt lat="28.479436769099735" lon="-11.268866471694539"><ele>73.0</ele><time>2026-04-29T07:54:27Z</time></trkpt><trkpt lat="28.47941911906123" lon="-11.268590575517292"><ele>73.0</ele><time>2026-04-29T07:54:28Z</time></trkpt><trkpt lat="28.479402833217282" lon="-11.268317103805591"><ele>74.0</ele><time>2026-04-29T07:54:29Z</time></trkpt><trkpt lat="28.47938591305998" lon="-11.268041361748958"><ele>75.0</ele><time>2026-04-29T07:54:30Z</time></trkpt><trkpt lat="28.47936785356305" lon="-11.267769759951983"><ele>75.0</ele><time>2026-04-29T07:54:31Z</time></trkpt><trkpt lat="28.479351317093435" lon="-11.267499762556863"><ele>75.0</ele><time>2026-04-29T07:54:32Z</time></trkpt><trkpt lat="28.479333644784322" lon="-11.267223978182495"><ele>75.5</ele><time>2026-04-29T07:54:33Z</time></trkpt><trkpt lat="28.479313899988302" lon="-11.266955959504939"><ele>76.0</ele><time>2026-04-29T07:54:34Z</time></trkpt><trkpt lat="28.47929478459673" lon="-11.266687623598964"><ele>76.5</ele><time>2026-04-29T07:54:35Z</time></trkpt><trkpt lat="28.479282587477016" lon="-11.266425730189638"><ele>77.0</ele><time>2026-04-29T07:54:36Z</time></trkpt><trkpt lat="28.47926702084445" lon="-11.266163101283798"><ele>77.0</ele><time>2026-04-29T07:54:37Z</time></trkpt><trkpt lat="28.47925366969682" lon="-11.265905786107231"><ele>77.0</ele><time>2026-04-29T07:54:38Z</time></trkpt><trkpt lat="28.479236066744615" lon="-11.265649773842698"><ele>76.33333333333334</ele><time>2026-04-29T07:54:39Z</time></trkpt><trkpt lat="28.47922168946282" lon="-11.265402821485452"><ele>75.66666666666667</ele><time>2026-04-29T07:54:40Z</time></trkpt><trkpt lat="28.4792053835215" lon="-11.265157623461473"><ele>75.0</ele><time>2026-04-29T07:54:41Z</time></trkpt><trkpt lat="28.479189159939732" lon="-11.264908681931551"><ele>75.0</ele><time>2026-04-29T07:54:42Z</time></trkpt><trkpt lat="28.479175284485407" lon="-11.26466102825914"><ele>75.0</ele><time>2026-04-29T07:54:43Z</time></trkpt><trkpt lat="28.479159746591986" lon="-11.264415973659139"><ele>75.0</ele><time>2026-04-29T07:54:44Z</time></trkpt><trkpt lat="28.479142488272988" lon="-11.264168607937796"><ele>74.66666666666667</ele><time>2026-04-29T07:54:45Z</time></trkpt><trkpt lat="28.47912572216217" lon="-11.263924294595762"><ele>74.33333333333334</ele><time>2026-04-29T07:54:46Z</time></trkpt><trkpt lat="28.479112409524962" lon="-11.263683204682186"><ele>74.0</ele><time>2026-04-29T07:54:47Z</time></trkpt><trkpt lat="28.479098989676594" lon="-11.263437145829423"><ele>74.0</ele><time>2026-04-29T07:54:48Z</time></trkpt><trkpt lat="28.479087132359254" lon="-11.2631902015227"><ele>74.0</ele><time>2026-04-29T07:54:49Z</time></trkpt><trkpt lat="28.479072444350955" lon="-11.262936872001632"><ele>74.0</ele><time>2026-04-29T07:54:50Z</time></trkpt><trkpt lat="28.479054896883525" lon="-11.262686408989325"><ele>74.0</ele><time>2026-04-29T07:54:51Z</time></trkpt><trkpt lat="28.479037486270084" lon="-11.262433370079078"><ele>74.0</ele><time>2026-04-29T07:54:52Z</time></trkpt><trkpt lat="28.479019592076018" lon="-11.262180994382117"><ele>74.0</ele><time>2026-04-29T07:54:53Z</time></trkpt><trkpt lat="28.47900364023296" lon="-11.261927727684858"><ele>73.66666666666667</ele><time>2026-04-29T07:54:54Z</time></trkpt><trkpt lat="28.478985680240527" lon="-11.261675727979059"><ele>73.33333333333333</ele><time>2026-04-29T07:54:55Z</time></trkpt><trkpt lat="28.478969229305434" lon="-11.261422369731026"><ele>73.0</ele><time>2026-04-29T07:54:56Z</time></trkpt><trkpt lat="28.47895188005903" lon="-11.261169604321333"><ele>72.66666666666666</ele><time>2026-04-29T07:54:57Z</time></trkpt><trkpt lat="28.478936905352928" lon="-11.260920360923658"><ele>72.33333333333333</ele><time>2026-04-29T07:54:58Z</time></trkpt><trkpt lat="28.47892152931285" lon="-11.260672485423658"><ele>72.0</ele><time>2026-04-29T07:54:59Z</time></trkpt><trkpt lat="28.478908178942703" lon="-11.260428822281588"><ele>72.0</ele><time>2026-04-29T07:55:00Z</time></trkpt><trkpt lat="28.47889665862095" lon="-11.260182558800622"><ele>72.0</ele><time>2026-04-29T07:55:01Z</time></trkpt><trkpt lat="28.4788831384756" lon="-11.259935096708903"><ele>72.0</ele><time>2026-04-29T07:55:02Z</time></trkpt><trkpt lat="28.478869018723273" lon="-11.25968637633233"><ele>72.66666666666667</ele><time>2026-04-29T07:55:03Z</time></trkpt><trkpt lat="28.47885455695643" lon="-11.25943546759514"><ele>73.33333333333334</ele><time>2026-04-29T07:55:04Z</time></trkpt><trkpt lat="28.47883948941015" lon="-11.259184733762108"><ele>74.0</ele><time>2026-04-29T07:55:05Z</time></trkpt><trkpt lat="28.478823810536344" lon="-11.258938412785296"><ele>74.0</ele><time>2026-04-29T07:55:06Z</time></trkpt><trkpt lat="28.478806916918728" lon="-11.258686548612845"><ele>74.0</ele><time>2026-04-29T07:55:07Z</time></trkpt><trkpt lat="28.478790399163987" lon="-11.25842991320395"><ele>74.0</ele><time>2026-04-29T07:55:08Z</time></trkpt><trkpt lat="28.478774111599503" lon="-11.258169112302317"><ele>74.0</ele><time>2026-04-29T07:55:09Z</time></trkpt><trkpt lat="28.47875747396835" lon="-11.2579081614241"><ele>74.0</ele><time>2026-04-29T07:55:10Z</time></trkpt><trkpt lat="28.47874080373976" lon="-11.257650354339303"><ele>74.0</ele><time>2026-04-29T07:55:11Z</time></trkpt><trkpt lat="28.478725928764817" lon="-11.257393058365402"><ele>74.0</ele><time>2026-04-29T07:55:12Z</time></trkpt><trkpt lat="28.47871075944032" lon="-11.257135568555155"><ele>75.0</ele><time>2026-04-29T07:55:13Z</time></trkpt><trkpt lat="28.478694381631357" lon="-11.256878682551784"><ele>76.0</ele><time>2026-04-29T07:55:14Z</time></trkpt><trkpt lat="28.478678117206577" lon="-11.256623292332065"><ele>76.33333333333333</ele><time>2026-04-29T07:55:15Z</time></trkpt><trkpt lat="28.4786604938226" lon="-11.25636816699138"><ele>76.66666666666667</ele><time>2026-04-29T07:55:16Z</time></trkpt><trkpt lat="28.47864296779229" lon="-11.256114243252329"><ele>77.0</ele><time>2026-04-29T07:55:17Z</time></trkpt><trkpt lat="28.47862819604594" lon="-11.255861162587513"><ele>76.66666666666667</ele><time>2026-04-29T07:55:18Z</time></trkpt><trkpt lat="28.478613003032695" lon="-11.255608297610472"><ele>76.33333333333333</ele><time>2026-04-29T07:55:19Z</time></trkpt><trkpt lat="28.47859764339055" lon="-11.255357480339262"><ele>76.0</ele><time>2026-04-29T07:55:20Z</time></trkpt><trkpt lat="28.47858270301065" lon="-11.255108065293042"><ele>76.0</ele><time>2026-04-29T07:55:21Z</time></trkpt><trkpt lat="28.478567350634414" lon="-11.25485510101147"><ele>76.0</ele><time>2026-04-29T07:55:22Z</time></trkpt><trkpt lat="28.478551762759533" lon="-11.254601819026767"><ele>76.0</ele><time>2026-04-29T07:55:23Z</time></trkpt><trkpt lat="28.478534726503906" lon="-11.254352007623993"><ele>76.0</ele><time>2026-04-29T07:55:24Z</time></trkpt><trkpt lat="28.478519375273027" lon="-11.254102112628987"><ele>76.0</ele><time>2026-04-29T07:55:25Z</time></trkpt><trkpt lat="28.47850694155772" lon="-11.253852976429565"><ele>76.0</ele><time>2026-04-29T07:55:26Z</time></trkpt><trkpt lat="28.478493138123188" lon="-11.253606837606357"><ele>75.66666666666666</ele><time>2026-04-29T07:55:27Z</time></trkpt><trkpt lat="28.478477416904774" lon="-11.253363997341552"><ele>75.33333333333333</ele><time>2026-04-29T07:55:28Z</time></trkpt><trkpt lat="28.47846157103993" lon="-11.253118733590604"><ele>75.0</ele><time>2026-04-29T07:55:29Z</time></trkpt><trkpt lat="28.478445866621783" lon="-11.252875098465937"><ele>75.0</ele><time>2026-04-29T07:55:30Z</time></trkpt><trkpt lat="28.478427479155883" lon="-11.252632619039918"><ele>75.0</ele><time>2026-04-29T07:55:31Z</time></trkpt><trkpt lat="28.478412219398752" lon="-11.25239012110744"><ele>75.0</ele><time>2026-04-29T07:55:32Z</time></trkpt><trkpt lat="28.47839941255187" lon="-11.25214981077394"><ele>75.0</ele><time>2026-04-29T07:55:33Z</time></trkpt><trkpt lat="28.478384135122425" lon="-11.251909626128706"><ele>75.0</ele><time>2026-04-29T07:55:34Z</time></trkpt><trkpt lat="28.478367764899932" lon="-11.25166570672616"><ele>75.0</ele><time>2026-04-29T07:55:35Z</time></trkpt><trkpt lat="28.478350375759874" lon="-11.251419232805576"><ele>75.0</ele><time>2026-04-29T07:55:36Z</time></trkpt><trkpt lat="28.478334781675347" lon="-11.251172185801158"><ele>75.0</ele><time>2026-04-29T07:55:37Z</time></trkpt><trkpt lat="28.4783191466596" lon="-11.25092564764134"><ele>75.0</ele><time>2026-04-29T07:55:38Z</time></trkpt><trkpt lat="28.478304461126623" lon="-11.250682343601786"><ele>75.0</ele><time>2026-04-29T07:55:39Z</time></trkpt><trkpt lat="28.478289486951727" lon="-11.250438500068073"><ele>75.0</ele><time>2026-04-29T07:55:40Z</time></trkpt><trkpt lat="28.478276256228018" lon="-11.250195844995735"><ele>75.0</ele><time>2026-04-29T07:55:41Z</time></trkpt><trkpt lat="28.47826198875647" lon="-11.249954446128498"><ele>75.0</ele><time>2026-04-29T07:55:42Z</time></trkpt><trkpt lat="28.478249404195587" lon="-11.249705403807685"><ele>75.0</ele><time>2026-04-29T07:55:43Z</time></trkpt><trkpt lat="28.478236435572605" lon="-11.2494511147645"><ele>75.0</ele><time>2026-04-29T07:55:44Z</time></trkpt><trkpt lat="28.478219528681354" lon="-11.249197841697134"><ele>75.0</ele><time>2026-04-29T07:55:45Z</time></trkpt><trkpt lat="28.478202885372948" lon="-11.248942471828986"><ele>75.0</ele><time>2026-04-29T07:55:46Z</time></trkpt><trkpt lat="28.47818728503117" lon="-11.248685408564077"><ele>75.0</ele><time>2026-04-29T07:55:47Z</time></trkpt><trkpt lat="28.47817032352586" lon="-11.248417581946013"><ele>75.0</ele><time>2026-04-29T07:55:48Z</time></trkpt><trkpt lat="28.47815274852648" lon="-11.248141438389364"><ele>75.5</ele><time>2026-04-29T07:55:49Z</time></trkpt><trkpt lat="28.478137311415335" lon="-11.247851211168811"><ele>76.0</ele><time>2026-04-29T07:55:50Z</time></trkpt><trkpt lat="28.478128832904005" lon="-11.247558011587628"><ele>75.5</ele><time>2026-04-29T07:55:51Z</time></trkpt><trkpt lat="28.4781287762245" lon="-11.247269890234275"><ele>75.0</ele><time>2026-04-29T07:55:52Z</time></trkpt><trkpt lat="28.478132781126824" lon="-11.246980716989468"><ele>75.0</ele><time>2026-04-29T07:55:53Z</time></trkpt><trkpt lat="28.47813650369209" lon="-11.24669214916145"><ele>75.0</ele><time>2026-04-29T07:55:54Z</time></trkpt><trkpt lat="28.478139387438464" lon="-11.24640530555281"><ele>75.5</ele><time>2026-04-29T07:55:55Z</time></trkpt><trkpt lat="28.478141676537497" lon="-11.246120956206566"><ele>76.0</ele><time>2026-04-29T07:55:56Z</time></trkpt><trkpt lat="28.47814567154523" lon="-11.245840877474688"><ele>76.5</ele><time>2026-04-29T07:55:57Z</time></trkpt><trkpt lat="28.478147865460326" lon="-11.245564169411677"><ele>77.0</ele><time>2026-04-29T07:55:58Z</time></trkpt><trkpt lat="28.478150338545316" lon="-11.245290727458794"><ele>77.0</ele><time>2026-04-29T07:55:59Z</time></trkpt><trkpt lat="28.4781538088937" lon="-11.245018216974948"><ele>77.0</ele><time>2026-04-29T07:56:00Z</time></trkpt><trkpt lat="28.47815842622475" lon="-11.244753991667315"><ele>77.0</ele><time>2026-04-29T07:56:01Z</time></trkpt><trkpt lat="28.478163395308997" lon="-11.244493743135942"><ele>77.0</ele><time>2026-04-29T07:56:02Z</time></trkpt><trkpt lat="28.478166766701527" lon="-11.244234915398225"><ele>77.0</ele><time>2026-04-29T07:56:03Z</time></trkpt><trkpt lat="28.478171048824443" lon="-11.243975230797382"><ele>77.0</ele><time>2026-04-29T07:56:04Z</time></trkpt><trkpt lat="28.47817464583964" lon="-11.243718996639162"><ele>77.66666666666667</ele><time>2026-04-29T07:56:05Z</time></trkpt><trkpt lat="28.4781760072227" lon="-11.24346807630278"><ele>78.33333333333333</ele><time>2026-04-29T07:56:06Z</time></trkpt><trkpt lat="28.47817758694669" lon="-11.243222958543539"><ele>79.0</ele><time>2026-04-29T07:56:07Z</time></trkpt><trkpt lat="28.478180441167385" lon="-11.242984587923619"><ele>79.0</ele><time>2026-04-29T07:56:08Z</time></trkpt><trkpt lat="28.478183126340745" lon="-11.24274417127035"><ele>79.0</ele><time>2026-04-29T07:56:09Z</time></trkpt><trkpt lat="28.478184542985595" lon="-11.242503545160867"><ele>79.0</ele><time>2026-04-29T07:56:10Z</time></trkpt><trkpt lat="28.478185867600164" lon="-11.242273642664422"><ele>79.66666666666666</ele><time>2026-04-29T07:56:11Z</time></trkpt><trkpt lat="28.478186289422666" lon="-11.242047466438382"><ele>80.33333333333333</ele><time>2026-04-29T07:56:12Z</time></trkpt><trkpt lat="28.478189225429055" lon="-11.24182217372993"><ele>81.0</ele><time>2026-04-29T07:56:13Z</time></trkpt><trkpt lat="28.47819474412746" lon="-11.241598849322774"><ele>80.66666666666667</ele><time>2026-04-29T07:56:14Z</time></trkpt><trkpt lat="28.478199849872468" lon="-11.241376208898636"><ele>80.33333333333334</ele><time>2026-04-29T07:56:15Z</time></trkpt><trkpt lat="28.478203011329146" lon="-11.241151424135278"><ele>80.0</ele><time>2026-04-29T07:56:16Z</time></trkpt><trkpt lat="28.47820538832795" lon="-11.240926333819083"><ele>80.0</ele><time>2026-04-29T07:56:17Z</time></trkpt><trkpt lat="28.47820776903544" lon="-11.24069532020748"><ele>80.0</ele><time>2026-04-29T07:56:18Z</time></trkpt><trkpt lat="28.478209455521622" lon="-11.240456084970258"><ele>80.0</ele><time>2026-04-29T07:56:19Z</time></trkpt><trkpt lat="28.47821077478162" lon="-11.240212949724821"><ele>80.0</ele><time>2026-04-29T07:56:20Z</time></trkpt><trkpt lat="28.47821340704545" lon="-11.239964510850694"><ele>80.0</ele><time>2026-04-29T07:56:21Z</time></trkpt><trkpt lat="28.47821656885156" lon="-11.239710944417517"><ele>80.0</ele><time>2026-04-29T07:56:22Z</time></trkpt><trkpt lat="28.478220435600115" lon="-11.239451506750685"><ele>80.0</ele><time>2026-04-29T07:56:23Z</time></trkpt><trkpt lat="28.478223474233523" lon="-11.239187940736258"><ele>80.0</ele><time>2026-04-29T07:56:24Z</time></trkpt><trkpt lat="28.47822711251468" lon="-11.238920530593266"><ele>80.0</ele><time>2026-04-29T07:56:25Z</time></trkpt><trkpt lat="28.478230714906836" lon="-11.238650924724011"><ele>80.0</ele><time>2026-04-29T07:56:26Z</time></trkpt><trkpt lat="28.478232747061938" lon="-11.23838238378136"><ele>80.5</ele><time>2026-04-29T07:56:27Z</time></trkpt><trkpt lat="28.478235856018866" lon="-11.238117906509226"><ele>81.0</ele><time>2026-04-29T07:56:28Z</time></trkpt><trkpt lat="28.478238127320473" lon="-11.2378577925636"><ele>81.0</ele><time>2026-04-29T07:56:29Z</time></trkpt><trkpt lat="28.478239475808156" lon="-11.237599029206336"><ele>81.0</ele><time>2026-04-29T07:56:30Z</time></trkpt><trkpt lat="28.4782444209603" lon="-11.237338658010522"><ele>80.5</ele><time>2026-04-29T07:56:31Z</time></trkpt><trkpt lat="28.478250786549477" lon="-11.23707689450911"><ele>80.0</ele><time>2026-04-29T07:56:32Z</time></trkpt><trkpt lat="28.47825587459687" lon="-11.23681148158547"><ele>80.0</ele><time>2026-04-29T07:56:33Z</time></trkpt><trkpt lat="28.478258717668762" lon="-11.236551527746402"><ele>80.0</ele><time>2026-04-29T07:56:34Z</time></trkpt><trkpt lat="28.478261311238267" lon="-11.23629433814607"><ele>80.5</ele><time>2026-04-29T07:56:35Z</time></trkpt><trkpt lat="28.478263279106933" lon="-11.236037545430793"><ele>81.0</ele><time>2026-04-29T07:56:36Z</time></trkpt><trkpt lat="28.478265747799956" lon="-11.235779674451301"><ele>81.0</ele><time>2026-04-29T07:56:37Z</time></trkpt><trkpt lat="28.47826819404263" lon="-11.235522836373818"><ele>81.0</ele><time>2026-04-29T07:56:38Z</time></trkpt><trkpt lat="28.478270017735905" lon="-11.23526806741403"><ele>81.0</ele><time>2026-04-29T07:56:39Z</time></trkpt><trkpt lat="28.47827328189668" lon="-11.235013999566528"><ele>81.0</ele><time>2026-04-29T07:56:40Z</time></trkpt><trkpt lat="28.478278168884824" lon="-11.234760419417965"><ele>81.0</ele><time>2026-04-29T07:56:41Z</time></trkpt><trkpt lat="28.478282461530846" lon="-11.23450561313037"><ele>81.0</ele><time>2026-04-29T07:56:42Z</time></trkpt><trkpt lat="28.478285188216297" lon="-11.23425316440608"><ele>81.0</ele><time>2026-04-29T07:56:43Z</time></trkpt><trkpt lat="28.478287465865513" lon="-11.234001926413919"><ele>81.0</ele><time>2026-04-29T07:56:44Z</time></trkpt><trkpt lat="28.47828962958724" lon="-11.233749132597508"><ele>81.0</ele><time>2026-04-29T07:56:45Z</time></trkpt><trkpt lat="28.478292821731404" lon="-11.233492701325504"><ele>81.0</ele><time>2026-04-29T07:56:46Z</time></trkpt><trkpt lat="28.478297890980272" lon="-11.233233178198283"><ele>79.5</ele><time>2026-04-29T07:56:47Z</time></trkpt><trkpt lat="28.47830048325753" lon="-11.232971214976505"><ele>78.0</ele><time>2026-04-29T07:56:48Z</time></trkpt><trkpt lat="28.478303547668375" lon="-11.232706618736923"><ele>78.0</ele><time>2026-04-29T07:56:49Z</time></trkpt><trkpt lat="28.478306102522637" lon="-11.232438973573087"><ele>78.0</ele><time>2026-04-29T07:56:50Z</time></trkpt><trkpt lat="28.478308615739415" lon="-11.23216735563309"><ele>78.5</ele><time>2026-04-29T07:56:51Z</time></trkpt><trkpt lat="28.478311107882348" lon="-11.231898491399974"><ele>79.0</ele><time>2026-04-29T07:56:52Z</time></trkpt><trkpt lat="28.478313381824506" lon="-11.23163472528853"><ele>80.5</ele><time>2026-04-29T07:56:53Z</time></trkpt><trkpt lat="28.47831682302117" lon="-11.23137421838487"><ele>82.0</ele><time>2026-04-29T07:56:54Z</time></trkpt><trkpt lat="28.47831875645585" lon="-11.231117241942087"><ele>82.0</ele><time>2026-04-29T07:56:55Z</time></trkpt><trkpt lat="28.47832189612191" lon="-11.23086652980174"><ele>82.0</ele><time>2026-04-29T07:56:56Z</time></trkpt><trkpt lat="28.47832665482486" lon="-11.230619491805312"><ele>82.0</ele><time>2026-04-29T07:56:57Z</time></trkpt><trkpt lat="28.478330388196692" lon="-11.230371132624072"><ele>82.33333333333333</ele><time>2026-04-29T07:56:58Z</time></trkpt><trkpt lat="28.478334043334215" lon="-11.230125655939192"><ele>82.66666666666667</ele><time>2026-04-29T07:56:59Z</time></trkpt><trkpt lat="28.478337434331916" lon="-11.229881804482888"><ele>83.0</ele><time>2026-04-29T07:57:00Z</time></trkpt><trkpt lat="28.47834288014111" lon="-11.229639491960794"><ele>83.0</ele><time>2026-04-29T07:57:01Z</time></trkpt><trkpt lat="28.478346676762094" lon="-11.229397497980909"><ele>83.0</ele><time>2026-04-29T07:57:02Z</time></trkpt><trkpt lat="28.478346260475195" lon="-11.229158590725934"><ele>83.0</ele><time>2026-04-29T07:57:03Z</time></trkpt><trkpt lat="28.47834905417356" lon="-11.228922271831713"><ele>83.0</ele><time>2026-04-29T07:57:04Z</time></trkpt><trkpt lat="28.47835095430938" lon="-11.228684677147093"><ele>83.0</ele><time>2026-04-29T07:57:05Z</time></trkpt><trkpt lat="28.47835398250371" lon="-11.228442139832188"><ele>83.0</ele><time>2026-04-29T07:57:06Z</time></trkpt><trkpt lat="28.478357361196306" lon="-11.228198808911696"><ele>84.0</ele><time>2026-04-29T07:57:07Z</time></trkpt><trkpt lat="28.478360869088096" lon="-11.2279540399608"><ele>85.0</ele><time>2026-04-29T07:57:08Z</time></trkpt><trkpt lat="28.478362502043797" lon="-11.227706436857908"><ele>86.0</ele><time>2026-04-29T07:57:09Z</time></trkpt><trkpt lat="28.47836377356988" lon="-11.227455145860505"><ele>86.0</ele><time>2026-04-29T07:57:10Z</time></trkpt><trkpt lat="28.478365995042157" lon="-11.22720466314014"><ele>86.0</ele><time>2026-04-29T07:57:11Z</time></trkpt><trkpt lat="28.478366808952977" lon="-11.226957595753458"><ele>86.0</ele><time>2026-04-29T07:57:12Z</time></trkpt><trkpt lat="28.478368806311924" lon="-11.226709653593804"><ele>86.33333333333334</ele><time>2026-04-29T07:57:13Z</time></trkpt><trkpt lat="28.47837259966251" lon="-11.22646600110236"><ele>86.66666666666667</ele><time>2026-04-29T07:57:14Z</time></trkpt><trkpt lat="28.47837742130455" lon="-11.226221248550678"><ele>87.0</ele><time>2026-04-29T07:57:15Z</time></trkpt><trkpt lat="28.47838205421088" lon="-11.22597961604205"><ele>87.0</ele><time>2026-04-29T07:57:16Z</time></trkpt><trkpt lat="28.47838523809376" lon="-11.225741218184025"><ele>87.0</ele><time>2026-04-29T07:57:17Z</time></trkpt><trkpt lat="28.478388532732936" lon="-11.225503012149476"><ele>87.0</ele><time>2026-04-29T07:57:18Z</time></trkpt><trkpt lat="28.478389928511117" lon="-11.225267763564423"><ele>87.33333333333333</ele><time>2026-04-29T07:57:19Z</time></trkpt><trkpt lat="28.478391549376667" lon="-11.225034039335208"><ele>87.66666666666666</ele><time>2026-04-29T07:57:20Z</time></trkpt><trkpt lat="28.478393509131276" lon="-11.224801201089363"><ele>88.0</ele><time>2026-04-29T07:57:21Z</time></trkpt><trkpt lat="28.478397386554587" lon="-11.22457048624879"><ele>89.0</ele><time>2026-04-29T07:57:22Z</time></trkpt><trkpt lat="28.47840198848662" lon="-11.224337817194078"><ele>90.0</ele><time>2026-04-29T07:57:23Z</time></trkpt><trkpt lat="28.478404766268284" lon="-11.224105029717691"><ele>91.0</ele><time>2026-04-29T07:57:24Z</time></trkpt><trkpt lat="28.478405786926693" lon="-11.223870984888727"><ele>91.33333333333333</ele><time>2026-04-29T07:57:25Z</time></trkpt><trkpt lat="28.47840768219299" lon="-11.223634854010447"><ele>91.66666666666667</ele><time>2026-04-29T07:57:26Z</time></trkpt><trkpt lat="28.478409968076303" lon="-11.223397882739437"><ele>92.0</ele><time>2026-04-29T07:57:27Z</time></trkpt><trkpt lat="28.47841330332822" lon="-11.223159675133934"><ele>92.33333333333334</ele><time>2026-04-29T07:57:28Z</time></trkpt><trkpt lat="28.478417656887334" lon="-11.222922249722131"><ele>92.66666666666667</ele><time>2026-04-29T07:57:29Z</time></trkpt><trkpt lat="28.478421579204042" lon="-11.222684013154968"><ele>93.0</ele><time>2026-04-29T07:57:30Z</time></trkpt><trkpt lat="28.478426696260218" lon="-11.222447384895965"><ele>93.66666666666667</ele><time>2026-04-29T07:57:31Z</time></trkpt><trkpt lat="28.478432146490317" lon="-11.222210443538316"><ele>94.33333333333334</ele><time>2026-04-29T07:57:32Z</time></trkpt><trkpt lat="28.478436707624173" lon="-11.221979461835323"><ele>95.0</ele><time>2026-04-29T07:57:33Z</time></trkpt><trkpt lat="28.478438763771646" lon="-11.221756169479356"><ele>95.0</ele><time>2026-04-29T07:57:34Z</time></trkpt><trkpt lat="28.478441282957416" lon="-11.22153239684447"><ele>95.0</ele><time>2026-04-29T07:57:35Z</time></trkpt><trkpt lat="28.478443227936868" lon="-11.221305406734945"><ele>95.0</ele><time>2026-04-29T07:57:36Z</time></trkpt><trkpt lat="28.478444735374794" lon="-11.221074450177962"><ele>95.33333333333334</ele><time>2026-04-29T07:57:37Z</time></trkpt><trkpt lat="28.478446859640076" lon="-11.220838365048577"><ele>95.66666666666667</ele><time>2026-04-29T07:57:38Z</time></trkpt><trkpt lat="28.47845078457109" lon="-11.22060183663776"><ele>96.0</ele><time>2026-04-29T07:57:39Z</time></trkpt><trkpt lat="28.478455439418433" lon="-11.220364321011294"><ele>97.0</ele><time>2026-04-29T07:57:40Z</time></trkpt><trkpt lat="28.47845859484988" lon="-11.220124400523487"><ele>98.0</ele><time>2026-04-29T07:57:41Z</time></trkpt><trkpt lat="28.478463074007202" lon="-11.219880074822228"><ele>99.0</ele><time>2026-04-29T07:57:42Z</time></trkpt><trkpt lat="28.47846604664552" lon="-11.219637638065649"><ele>99.33333333333334</ele><time>2026-04-29T07:57:43Z</time></trkpt><trkpt lat="28.47846858692122" lon="-11.219394699365216"><ele>99.66666666666667</ele><time>2026-04-29T07:57:44Z</time></trkpt><trkpt lat="28.47847055313804" lon="-11.219150854644397"><ele>100.0</ele><time>2026-04-29T07:57:45Z</time></trkpt><trkpt lat="28.47847276722513" lon="-11.218907219066873"><ele>100.0</ele><time>2026-04-29T07:57:46Z</time></trkpt><trkpt lat="28.478474289782344" lon="-11.21866454025344"><ele>100.0</ele><time>2026-04-29T07:57:47Z</time></trkpt><trkpt lat="28.478476128655444" lon="-11.21841808156457"><ele>100.0</ele><time>2026-04-29T07:57:48Z</time></trkpt><trkpt lat="28.478479208831196" lon="-11.218167642707504"><ele>100.66666666666667</ele><time>2026-04-29T07:57:49Z</time></trkpt><trkpt lat="28.47848235327233" lon="-11.217915594071277"><ele>101.33333333333334</ele><time>2026-04-29T07:57:50Z</time></trkpt><trkpt lat="28.478484510444893" lon="-11.21766117019372"><ele>102.0</ele><time>2026-04-29T07:57:51Z</time></trkpt><trkpt lat="28.478489608021565" lon="-11.21740698799476"><ele>102.66666666666666</ele><time>2026-04-29T07:57:52Z</time></trkpt><trkpt lat="28.47849238994358" lon="-11.217154081387688"><ele>103.33333333333333</ele><time>2026-04-29T07:57:53Z</time></trkpt><trkpt lat="28.478494013825244" lon="-11.21689995480948"><ele>104.0</ele><time>2026-04-29T07:57:54Z</time></trkpt><trkpt lat="28.478494825991735" lon="-11.216645458199856"><ele>104.0</ele><time>2026-04-29T07:57:55Z</time></trkpt><trkpt lat="28.478499805013364" lon="-11.2163889401462"><ele>104.0</ele><time>2026-04-29T07:57:56Z</time></trkpt><trkpt lat="28.478502753174904" lon="-11.216130393711625"><ele>104.0</ele><time>2026-04-29T07:57:57Z</time></trkpt><trkpt lat="28.478503111354875" lon="-11.215871211606691"><ele>104.0</ele><time>2026-04-29T07:57:58Z</time></trkpt><trkpt lat="28.478506460189276" lon="-11.215609834726742"><ele>105.0</ele><time>2026-04-29T07:57:59Z</time></trkpt><trkpt lat="28.478511296229403" lon="-11.21534706445788"><ele>106.0</ele><time>2026-04-29T07:58:00Z</time></trkpt><trkpt lat="28.478515705005073" lon="-11.21508154757414"><ele>107.0</ele><time>2026-04-29T07:58:01Z</time></trkpt><trkpt lat="28.4785181039651" lon="-11.214820778841986"><ele>108.0</ele><time>2026-04-29T07:58:02Z</time></trkpt><trkpt lat="28.47852096156375" lon="-11.214562058052545"><ele>108.0</ele><time>2026-04-29T07:58:03Z</time></trkpt><trkpt lat="28.478524595249873" lon="-11.214305978741852"><ele>108.0</ele><time>2026-04-29T07:58:04Z</time></trkpt><trkpt lat="28.478528993409267" lon="-11.214055469935165"><ele>108.0</ele><time>2026-04-29T07:58:05Z</time></trkpt><trkpt lat="28.478533316661306" lon="-11.213807552722042"><ele>109.0</ele><time>2026-04-29T07:58:06Z</time></trkpt><trkpt lat="28.478535606291402" lon="-11.213562753813896"><ele>110.0</ele><time>2026-04-29T07:58:07Z</time></trkpt><trkpt lat="28.478538520664692" lon="-11.21331752855291"><ele>111.0</ele><time>2026-04-29T07:58:08Z</time></trkpt><trkpt lat="28.478541570795592" lon="-11.213073649590076"><ele>112.0</ele><time>2026-04-29T07:58:09Z</time></trkpt><trkpt lat="28.47854384925481" lon="-11.212831014446751"><ele>113.0</ele><time>2026-04-29T07:58:10Z</time></trkpt><trkpt lat="28.478545747780572" lon="-11.21258846592088"><ele>114.0</ele><time>2026-04-29T07:58:11Z</time></trkpt><trkpt lat="28.47854767644497" lon="-11.212342903133342"><ele>114.0</ele><time>2026-04-29T07:58:12Z</time></trkpt><trkpt lat="28.478550002378146" lon="-11.212098919233707"><ele>114.0</ele><time>2026-04-29T07:58:13Z</time></trkpt><trkpt lat="28.47855212035601" lon="-11.211851729304126"><ele>114.0</ele><time>2026-04-29T07:58:14Z</time></trkpt><trkpt lat="28.478555552295237" lon="-11.211607261699182"><ele>114.66666666666666</ele><time>2026-04-29T07:58:15Z</time></trkpt><trkpt lat="28.47855855715582" lon="-11.211362389571473"><ele>115.33333333333333</ele><time>2026-04-29T07:58:16Z</time></trkpt><trkpt lat="28.478561693662577" lon="-11.21111530733022"><ele>116.0</ele><time>2026-04-29T07:58:17Z</time></trkpt><trkpt lat="28.47856393881958" lon="-11.210872131831604"><ele>116.33333333333333</ele><time>2026-04-29T07:58:18Z</time></trkpt><trkpt lat="28.478567243704937" lon="-11.2106277925529"><ele>116.66666666666666</ele><time>2026-04-29T07:58:19Z</time></trkpt><trkpt lat="28.47857035918237" lon="-11.210387585369107"><ele>117.0</ele><time>2026-04-29T07:58:20Z</time></trkpt><trkpt lat="28.47857346786505" lon="-11.210147874009284"><ele>117.0</ele><time>2026-04-29T07:58:21Z</time></trkpt><trkpt lat="28.47857644317661" lon="-11.209913857810738"><ele>117.0</ele><time>2026-04-29T07:58:22Z</time></trkpt><trkpt lat="28.47857847981426" lon="-11.209683085188741"><ele>117.0</ele><time>2026-04-29T07:58:23Z</time></trkpt><trkpt lat="28.478575780009393" lon="-11.209453574396955"><ele>118.33333333333334</ele><time>2026-04-29T07:58:24Z</time></trkpt><trkpt lat="28.47856694843854" lon="-11.209227479013025"><ele>119.66666666666667</ele><time>2026-04-29T07:58:25Z</time></trkpt><trkpt lat="28.478553519444336" lon="-11.208998066860337"><ele>121.0</ele><time>2026-04-29T07:58:26Z</time></trkpt><trkpt lat="28.47853515805161" lon="-11.208761043221955"><ele>122.33333333333334</ele><time>2026-04-29T07:58:27Z</time></trkpt><trkpt lat="28.47851205656137" lon="-11.208516831616489"><ele>123.66666666666666</ele><time>2026-04-29T07:58:28Z</time></trkpt><trkpt lat="28.478488091500736" lon="-11.208271358659958"><ele>125.0</ele><time>2026-04-29T07:58:29Z</time></trkpt><trkpt lat="28.47846070548973" lon="-11.208024929351552"><ele>125.66666666666666</ele><time>2026-04-29T07:58:30Z</time></trkpt><trkpt lat="28.478425228093077" lon="-11.207777125161634"><ele>126.33333333333334</ele><time>2026-04-29T07:58:31Z</time></trkpt><trkpt lat="28.47837829753817" lon="-11.207523378811063"><ele>127.0</ele><time>2026-04-29T07:58:32Z</time></trkpt><trkpt lat="28.47831484357599" lon="-11.207264118802215"><ele>128.0</ele><time>2026-04-29T07:58:33Z</time></trkpt><trkpt lat="28.478247773134278" lon="-11.207010828541609"><ele>129.0</ele><time>2026-04-29T07:58:34Z</time></trkpt><trkpt lat="28.47817560042925" lon="-11.206761539832444"><ele>129.0</ele><time>2026-04-29T07:58:35Z</time></trkpt><trkpt lat="28.478107308570994" lon="-11.206512564318794"><ele>129.0</ele><time>2026-04-29T07:58:36Z</time></trkpt><trkpt lat="28.478040719510354" lon="-11.206282467836935"><ele>129.0</ele><time>2026-04-29T07:58:37Z</time></trkpt><trkpt lat="28.477978896753932" lon="-11.206068416096379"><ele>130.0</ele><time>2026-04-29T07:58:38Z</time></trkpt><trkpt lat="28.477923797485794" lon="-11.205867457523048"><ele>131.0</ele><time>2026-04-29T07:58:39Z</time></trkpt><trkpt lat="28.47787223426864" lon="-11.205675595960733"><ele>132.0</ele><time>2026-04-29T07:58:40Z</time></trkpt><trkpt lat="28.47782244907059" lon="-11.205486290940275"><ele>133.33333333333334</ele><time>2026-04-29T07:58:41Z</time></trkpt><trkpt lat="28.47777400735662" lon="-11.205300682010025"><ele>134.66666666666669</ele><time>2026-04-29T07:58:42Z</time></trkpt><trkpt lat="28.47772243893723" lon="-11.205117053858066"><ele>136.0</ele><time>2026-04-29T07:58:43Z</time></trkpt><trkpt lat="28.477669302988883" lon="-11.204928602952023"><ele>140.0</ele><time>2026-04-29T07:58:44Z</time></trkpt><trkpt lat="28.477615726168914" lon="-11.204731528542064"><ele>144.0</ele><time>2026-04-29T07:58:45Z</time></trkpt><trkpt lat="28.47756075150442" lon="-11.20453302318948"><ele>148.0</ele><time>2026-04-29T07:58:46Z</time></trkpt><trkpt lat="28.47750499494417" lon="-11.204333476760016"><ele>148.0</ele><time>2026-04-29T07:58:47Z</time></trkpt><trkpt lat="28.477446858123162" lon="-11.204130406413935"><ele>148.0</ele><time>2026-04-29T07:58:48Z</time></trkpt><trkpt lat="28.477388801576346" lon="-11.203928259040259"><ele>148.0</ele><time>2026-04-29T07:58:49Z</time></trkpt><trkpt lat="28.47733141668004" lon="-11.203727752264468"><ele>151.33333333333334</ele><time>2026-04-29T07:58:50Z</time></trkpt><trkpt lat="28.477275422928706" lon="-11.203532523327725"><ele>154.66666666666666</ele><time>2026-04-29T07:58:51Z</time></trkpt><trkpt lat="28.477220190555013" lon="-11.203345171567223"><ele>158.0</ele><time>2026-04-29T07:58:52Z</time></trkpt><trkpt lat="28.477159557694392" lon="-11.203166164454007"><ele>159.0</ele><time>2026-04-29T07:58:53Z</time></trkpt><trkpt lat="28.477097239399033" lon="-11.202990733179028"><ele>160.0</ele><time>2026-04-29T07:58:54Z</time></trkpt><trkpt lat="28.47702886207932" lon="-11.202813525185066"><ele>161.0</ele><time>2026-04-29T07:58:55Z</time></trkpt><trkpt lat="28.476957581829577" lon="-11.202633767314072"><ele>161.0</ele><time>2026-04-29T07:58:56Z</time></trkpt><trkpt lat="28.476884343839785" lon="-11.202457791918382"><ele>161.0</ele><time>2026-04-29T07:58:57Z</time></trkpt><trkpt lat="28.476808542515396" lon="-11.202281943139905"><ele>161.0</ele><time>2026-04-29T07:58:58Z</time></trkpt><trkpt lat="28.476726780412072" lon="-11.202102358106144"><ele>163.33333333333331</ele><time>2026-04-29T07:58:59Z</time></trkpt><trkpt lat="28.47664288606554" lon="-11.201921791567365"><ele>165.66666666666666</ele><time>2026-04-29T07:59:00Z</time></trkpt><trkpt lat="28.476557787286758" lon="-11.201744511570919"><ele>168.0</ele><time>2026-04-29T07:59:01Z</time></trkpt><trkpt lat="28.476467827138617" lon="-11.201569523039707"><ele>167.33333333333334</ele><time>2026-04-29T07:59:02Z</time></trkpt><trkpt lat="28.47637302834665" lon="-11.201392375682516"><ele>166.66666666666669</ele><time>2026-04-29T07:59:03Z</time></trkpt><trkpt lat="28.476277897743483" lon="-11.201221022605347"><ele>166.0</ele><time>2026-04-29T07:59:04Z</time></trkpt><trkpt lat="28.476177264120626" lon="-11.201054444988118"><ele>166.0</ele><time>2026-04-29T07:59:05Z</time></trkpt><trkpt lat="28.476072977380827" lon="-11.200885285760572"><ele>166.0</ele><time>2026-04-29T07:59:06Z</time></trkpt><trkpt lat="28.475964504368633" lon="-11.200706477499269"><ele>166.0</ele><time>2026-04-29T07:59:07Z</time></trkpt><trkpt lat="28.475846056004954" lon="-11.200517918525758"><ele>170.66666666666669</ele><time>2026-04-29T07:59:08Z</time></trkpt><trkpt lat="28.475725490108" lon="-11.20032273049567"><ele>175.33333333333334</ele><time>2026-04-29T07:59:09Z</time></trkpt><trkpt lat="28.475606045976047" lon="-11.200127706003364"><ele>180.0</ele><time>2026-04-29T07:59:10Z</time></trkpt><trkpt lat="28.475484179935236" lon="-11.199927522381646"><ele>181.33333333333334</ele><time>2026-04-29T07:59:11Z</time></trkpt><trkpt lat="28.475358441209956" lon="-11.199724562961078"><ele>182.66666666666669</ele><time>2026-04-29T07:59:12Z</time></trkpt><trkpt lat="28.475230203891527" lon="-11.199519884537121"><ele>184.0</ele><time>2026-04-29T07:59:13Z</time></trkpt><trkpt lat="28.47509603868908" lon="-11.199310240038063"><ele>184.0</ele><time>2026-04-29T07:59:14Z</time></trkpt><trkpt lat="28.474957635897024" lon="-11.199092756363388"><ele>184.0</ele><time>2026-04-29T07:59:15Z</time></trkpt><trkpt lat="28.474825089224385" lon="-11.198879634478953"><ele>184.5</ele><time>2026-04-29T07:59:16Z</time></trkpt><trkpt lat="28.474694376743898" lon="-11.198666522098131"><ele>185.0</ele><time>2026-04-29T07:59:17Z</time></trkpt><trkpt lat="28.474568246584433" lon="-11.1984571074176"><ele>185.0</ele><time>2026-04-29T07:59:18Z</time></trkpt><trkpt lat="28.47444575879527" lon="-11.198251933813234"><ele>185.0</ele><time>2026-04-29T07:59:19Z</time></trkpt><trkpt lat="28.474325755551348" lon="-11.19805409775719"><ele>185.0</ele><time>2026-04-29T07:59:20Z</time></trkpt><trkpt lat="28.474207819132115" lon="-11.197863074308948"><ele>185.33333333333331</ele><time>2026-04-29T07:59:21Z</time></trkpt><trkpt lat="28.474086854540534" lon="-11.197670580764624"><ele>185.66666666666666</ele><time>2026-04-29T07:59:22Z</time></trkpt><trkpt lat="28.47396439984278" lon="-11.19747293688174"><ele>186.0</ele><time>2026-04-29T07:59:23Z</time></trkpt><trkpt lat="28.473841204247044" lon="-11.197272015398068"><ele>186.33333333333334</ele><time>2026-04-29T07:59:24Z</time></trkpt><trkpt lat="28.47371759941148" lon="-11.197071503430303"><ele>186.66666666666669</ele><time>2026-04-29T07:59:25Z</time></trkpt><trkpt lat="28.473594244683277" lon="-11.196870440729644"><ele>187.0</ele><time>2026-04-29T07:59:26Z</time></trkpt><trkpt lat="28.47346979555183" lon="-11.19666883945717"><ele>186.66666666666669</ele><time>2026-04-29T07:59:27Z</time></trkpt><trkpt lat="28.473343742059594" lon="-11.196466220133589"><ele>186.33333333333334</ele><time>2026-04-29T07:59:28Z</time></trkpt><trkpt lat="28.4732163918081" lon="-11.19626326429496"><ele>186.0</ele><time>2026-04-29T07:59:29Z</time></trkpt><trkpt lat="28.473090384983646" lon="-11.196059255854209"><ele>186.0</ele><time>2026-04-29T07:59:30Z</time></trkpt><trkpt lat="28.472962453247366" lon="-11.19585347728712"><ele>186.0</ele><time>2026-04-29T07:59:31Z</time></trkpt><trkpt lat="28.472835275104764" lon="-11.195647881403403"><ele>186.0</ele><time>2026-04-29T07:59:32Z</time></trkpt><trkpt lat="28.472709288872455" lon="-11.195440492933207"><ele>185.0</ele><time>2026-04-29T07:59:33Z</time></trkpt><trkpt lat="28.472583898306745" lon="-11.195235264635876"><ele>184.0</ele><time>2026-04-29T07:59:34Z</time></trkpt><trkpt lat="28.472459548870006" lon="-11.195033258098128"><ele>183.0</ele><time>2026-04-29T07:59:35Z</time></trkpt><trkpt lat="28.472332527395164" lon="-11.194825940932407"><ele>183.0</ele><time>2026-04-29T07:59:36Z</time></trkpt><trkpt lat="28.47221103500263" lon="-11.194617118064386"><ele>183.0</ele><time>2026-04-29T07:59:37Z</time></trkpt><trkpt lat="28.4720975307063" lon="-11.194403302125435"><ele>183.0</ele><time>2026-04-29T07:59:38Z</time></trkpt><trkpt lat="28.471989740961916" lon="-11.194186029226223"><ele>183.66666666666666</ele><time>2026-04-29T07:59:39Z</time></trkpt><trkpt lat="28.471883860171" lon="-11.193961149768647"><ele>184.33333333333331</ele><time>2026-04-29T07:59:40Z</time></trkpt><trkpt lat="28.47178324646541" lon="-11.193734353470354"><ele>185.0</ele><time>2026-04-29T07:59:41Z</time></trkpt><trkpt lat="28.471686700898253" lon="-11.193498184949265"><ele>185.0</ele><time>2026-04-29T07:59:42Z</time></trkpt><trkpt lat="28.471593293758417" lon="-11.19325359528201"><ele>185.0</ele><time>2026-04-29T07:59:43Z</time></trkpt><trkpt lat="28.471507166362393" lon="-11.193002413038812"><ele>184.5</ele><time>2026-04-29T07:59:44Z</time></trkpt><trkpt lat="28.471427107993197" lon="-11.192744820797751"><ele>184.0</ele><time>2026-04-29T07:59:45Z</time></trkpt><trkpt lat="28.47135488860365" lon="-11.192483655169553"><ele>183.0</ele><time>2026-04-29T07:59:46Z</time></trkpt><trkpt lat="28.471288383234054" lon="-11.192221961512935"><ele>182.0</ele><time>2026-04-29T07:59:47Z</time></trkpt><trkpt lat="28.471227124835494" lon="-11.191956985192896"><ele>182.0</ele><time>2026-04-29T07:59:48Z</time></trkpt><trkpt lat="28.471166630656867" lon="-11.191693743624013"><ele>182.0</ele><time>2026-04-29T07:59:49Z</time></trkpt><trkpt lat="28.471108293215067" lon="-11.191428818646363"><ele>183.0</ele><time>2026-04-29T07:59:50Z</time></trkpt><trkpt lat="28.471048481820812" lon="-11.191164041958828"><ele>184.0</ele><time>2026-04-29T07:59:51Z</time></trkpt><trkpt lat="28.47098908049497" lon="-11.190899592760085"><ele>183.5</ele><time>2026-04-29T07:59:52Z</time></trkpt><trkpt lat="28.47092900377499" lon="-11.190634634949646"><ele>183.0</ele><time>2026-04-29T07:59:53Z</time></trkpt><trkpt lat="28.470869959142963" lon="-11.190371504460444"><ele>183.0</ele><time>2026-04-29T07:59:54Z</time></trkpt><trkpt lat="28.470811253768435" lon="-11.190107322634509"><ele>183.0</ele><time>2026-04-29T07:59:55Z</time></trkpt><trkpt lat="28.47075118964496" lon="-11.189843729113852"><ele>182.5</ele><time>2026-04-29T07:59:56Z</time></trkpt><trkpt lat="28.470691926645124" lon="-11.18958302709457"><ele>182.0</ele><time>2026-04-29T07:59:57Z</time></trkpt><trkpt lat="28.470632731134955" lon="-11.18932396000626"><ele>182.0</ele><time>2026-04-29T07:59:58Z</time></trkpt><trkpt lat="28.470577500838885" lon="-11.189067517814792"><ele>182.0</ele><time>2026-04-29T07:59:59Z</time></trkpt><trkpt lat="28.470524241014207" lon="-11.188810837207136"><ele>182.0</ele><time>2026-04-29T08:00:00Z</time></trkpt><trkpt lat="28.47046709277643" lon="-11.18855148020921"><ele>182.0</ele><time>2026-04-29T08:00:01Z</time></trkpt><trkpt lat="28.47040868382832" lon="-11.188293797322967"><ele>182.0</ele><time>2026-04-29T08:00:02Z</time></trkpt><trkpt lat="28.47034873835939" lon="-11.188036271934065"><ele>182.0</ele><time>2026-04-29T08:00:03Z</time></trkpt><trkpt lat="28.47029149066294" lon="-11.187779438966558"><ele>182.0</ele><time>2026-04-29T08:00:04Z</time></trkpt><trkpt lat="28.47023565050388" lon="-11.187521155833151"><ele>182.0</ele><time>2026-04-29T08:00:05Z</time></trkpt><trkpt lat="28.47017942604348" lon="-11.187262002260004"><ele>182.0</ele><time>2026-04-29T08:00:06Z</time></trkpt><trkpt lat="28.470121826987505" lon="-11.187006412074522"><ele>182.0</ele><time>2026-04-29T08:00:07Z</time></trkpt><trkpt lat="28.470064191275675" lon="-11.186748392813552"><ele>181.5</ele><time>2026-04-29T08:00:08Z</time></trkpt><trkpt lat="28.470006732515365" lon="-11.186490676737705"><ele>181.0</ele><time>2026-04-29T08:00:09Z</time></trkpt><trkpt lat="28.469948714218386" lon="-11.186234261759683"><ele>181.0</ele><time>2026-04-29T08:00:10Z</time></trkpt><trkpt lat="28.469888401343926" lon="-11.185976994817668"><ele>181.0</ele><time>2026-04-29T08:00:11Z</time></trkpt><trkpt lat="28.4698285218523" lon="-11.185718702000749"><ele>182.0</ele><time>2026-04-29T08:00:12Z</time></trkpt><trkpt lat="28.469771509472004" lon="-11.185454902267923"><ele>183.0</ele><time>2026-04-29T08:00:13Z</time></trkpt><trkpt lat="28.46971623757744" lon="-11.185192071584908"><ele>183.0</ele><time>2026-04-29T08:00:14Z</time></trkpt><trkpt lat="28.469660353002762" lon="-11.184930624797268"><ele>183.0</ele><time>2026-04-29T08:00:15Z</time></trkpt><trkpt lat="28.469600704012002" lon="-11.184669985025952"><ele>183.5</ele><time>2026-04-29T08:00:16Z</time></trkpt><trkpt lat="28.469540409769564" lon="-11.184405891745579"><ele>184.0</ele><time>2026-04-29T08:00:17Z</time></trkpt><trkpt lat="28.469481098500406" lon="-11.184143541938795"><ele>183.5</ele><time>2026-04-29T08:00:18Z</time></trkpt><trkpt lat="28.46942070091238" lon="-11.183880072741152"><ele>183.0</ele><time>2026-04-29T08:00:19Z</time></trkpt><trkpt lat="28.469361758397877" lon="-11.1836202189"><ele>183.0</ele><time>2026-04-29T08:00:20Z</time></trkpt><trkpt lat="28.469302064205426" lon="-11.18335843963309"><ele>183.0</ele><time>2026-04-29T08:00:21Z</time></trkpt><trkpt lat="28.46924241919328" lon="-11.183095487856228"><ele>184.5</ele><time>2026-04-29T08:00:22Z</time></trkpt><trkpt lat="28.469185657067488" lon="-11.18283264920911"><ele>186.0</ele><time>2026-04-29T08:00:23Z</time></trkpt><trkpt lat="28.469129054728757" lon="-11.182570563993137"><ele>185.5</ele><time>2026-04-29T08:00:24Z</time></trkpt><trkpt lat="28.4690714630812" lon="-11.18230627096644"><ele>185.0</ele><time>2026-04-29T08:00:25Z</time></trkpt><trkpt lat="28.46901323420963" lon="-11.182047274065884"><ele>185.0</ele><time>2026-04-29T08:00:26Z</time></trkpt><trkpt lat="28.46895357845654" lon="-11.181786742940265"><ele>185.0</ele><time>2026-04-29T08:00:27Z</time></trkpt><trkpt lat="28.468894004611606" lon="-11.181525967547788"><ele>184.5</ele><time>2026-04-29T08:00:28Z</time></trkpt><trkpt lat="28.468835156462045" lon="-11.18126495281804"><ele>184.0</ele><time>2026-04-29T08:00:29Z</time></trkpt><trkpt lat="28.468777349110304" lon="-11.181000221318508"><ele>184.5</ele><time>2026-04-29T08:00:30Z</time></trkpt><trkpt lat="28.46872049147036" lon="-11.18073734935977"><ele>185.0</ele><time>2026-04-29T08:00:31Z</time></trkpt><trkpt lat="28.468662871349114" lon="-11.18047718867164"><ele>186.5</ele><time>2026-04-29T08:00:32Z</time></trkpt><trkpt lat="28.468604824526402" lon="-11.18022212491089"><ele>188.0</ele><time>2026-04-29T08:00:33Z</time></trkpt><trkpt lat="28.468548057926196" lon="-11.179964044439222"><ele>188.0</ele><time>2026-04-29T08:00:34Z</time></trkpt><trkpt lat="28.468490781016314" lon="-11.179704294710112"><ele>188.0</ele><time>2026-04-29T08:00:35Z</time></trkpt><trkpt lat="28.46843219682586" lon="-11.179445848050445"><ele>188.0</ele><time>2026-04-29T08:00:36Z</time></trkpt><trkpt lat="28.468371380566435" lon="-11.17918239346881"><ele>188.0</ele><time>2026-04-29T08:00:37Z</time></trkpt><trkpt lat="28.468310514087552" lon="-11.178919643279764"><ele>188.0</ele><time>2026-04-29T08:00:38Z</time></trkpt><trkpt lat="28.468253605989013" lon="-11.178662874543798"><ele>188.0</ele><time>2026-04-29T08:00:39Z</time></trkpt><trkpt lat="28.46819802296739" lon="-11.178406010749686"><ele>188.0</ele><time>2026-04-29T08:00:40Z</time></trkpt><trkpt lat="28.468142070649176" lon="-11.17815048737973"><ele>188.0</ele><time>2026-04-29T08:00:41Z</time></trkpt><trkpt lat="28.46808581173146" lon="-11.177896277123338"><ele>188.0</ele><time>2026-04-29T08:00:42Z</time></trkpt><trkpt lat="28.468027874397535" lon="-11.177641744232686"><ele>188.0</ele><time>2026-04-29T08:00:43Z</time></trkpt><trkpt lat="28.46797151919658" lon="-11.177385362533721"><ele>188.5</ele><time>2026-04-29T08:00:44Z</time></trkpt><trkpt lat="28.467916471465003" lon="-11.17712521713593"><ele>189.0</ele><time>2026-04-29T08:00:45Z</time></trkpt><trkpt lat="28.46786220915969" lon="-11.176864769604569"><ele>189.0</ele><time>2026-04-29T08:00:46Z</time></trkpt><trkpt lat="28.46781498397127" lon="-11.176611001429976"><ele>189.0</ele><time>2026-04-29T08:00:47Z</time></trkpt><trkpt lat="28.467774101891507" lon="-11.17635551420278"><ele>189.5</ele><time>2026-04-29T08:00:48Z</time></trkpt><trkpt lat="28.46773591331544" lon="-11.17609070910504"><ele>190.0</ele><time>2026-04-29T08:00:49Z</time></trkpt><trkpt lat="28.467692952474106" lon="-11.175831747179016"><ele>190.5</ele><time>2026-04-29T08:00:50Z</time></trkpt><trkpt lat="28.467647836236512" lon="-11.175565920260885"><ele>191.0</ele><time>2026-04-29T08:00:51Z</time></trkpt><trkpt lat="28.467601778791273" lon="-11.175296079043457"><ele>191.0</ele><time>2026-04-29T08:00:52Z</time></trkpt><trkpt lat="28.46755828019653" lon="-11.175023061377045"><ele>191.0</ele><time>2026-04-29T08:00:53Z</time></trkpt><trkpt lat="28.467513266841006" lon="-11.174747158700018"><ele>190.5</ele><time>2026-04-29T08:00:54Z</time></trkpt><trkpt lat="28.467465911987084" lon="-11.174464434699235"><ele>190.0</ele><time>2026-04-29T08:00:55Z</time></trkpt><trkpt lat="28.46741834994984" lon="-11.174174943802738"><ele>188.5</ele><time>2026-04-29T08:00:56Z</time></trkpt><trkpt lat="28.46737239778653" lon="-11.173889857604628"><ele>187.0</ele><time>2026-04-29T08:00:57Z</time></trkpt><trkpt lat="28.467326303996874" lon="-11.173605252750233"><ele>187.0</ele><time>2026-04-29T08:00:58Z</time></trkpt><trkpt lat="28.467278286812796" lon="-11.173316429882357"><ele>187.0</ele><time>2026-04-29T08:00:59Z</time></trkpt><trkpt lat="28.46723011267338" lon="-11.173027994855522"><ele>189.0</ele><time>2026-04-29T08:01:00Z</time></trkpt><trkpt lat="28.46718083258055" lon="-11.172739574669041"><ele>191.0</ele><time>2026-04-29T08:01:01Z</time></trkpt><trkpt lat="28.467132060085106" lon="-11.172456959630807"><ele>191.5</ele><time>2026-04-29T08:01:02Z</time></trkpt><trkpt lat="28.467084092556647" lon="-11.172173263310501"><ele>192.0</ele><time>2026-04-29T08:01:03Z</time></trkpt><trkpt lat="28.467037263131296" lon="-11.1718867645455"><ele>192.0</ele><time>2026-04-29T08:01:04Z</time></trkpt><trkpt lat="28.466992637152035" lon="-11.171607238819592"><ele>192.0</ele><time>2026-04-29T08:01:05Z</time></trkpt><trkpt lat="28.466947491471664" lon="-11.171331417837274"><ele>192.0</ele><time>2026-04-29T08:01:06Z</time></trkpt><trkpt lat="28.46690142248576" lon="-11.171060032203767"><ele>192.0</ele><time>2026-04-29T08:01:07Z</time></trkpt><trkpt lat="28.466855148722626" lon="-11.17079164257693"><ele>192.5</ele><time>2026-04-29T08:01:08Z</time></trkpt><trkpt lat="28.466809857279383" lon="-11.170522089564267"><ele>193.0</ele><time>2026-04-29T08:01:09Z</time></trkpt><trkpt lat="28.466766533914" lon="-11.1702488442519"><ele>193.0</ele><time>2026-04-29T08:01:10Z</time></trkpt><trkpt lat="28.466720166058778" lon="-11.169976015236484"><ele>193.0</ele><time>2026-04-29T08:01:11Z</time></trkpt><trkpt lat="28.466675931736795" lon="-11.169698300581592"><ele>192.5</ele><time>2026-04-29T08:01:12Z</time></trkpt><trkpt lat="28.46663107776431" lon="-11.169420686156249"><ele>192.0</ele><time>2026-04-29T08:01:13Z</time></trkpt><trkpt lat="28.46658563806183" lon="-11.169143357556704"><ele>193.0</ele><time>2026-04-29T08:01:14Z</time></trkpt><trkpt lat="28.466540178684593" lon="-11.168868919791958"><ele>194.0</ele><time>2026-04-29T08:01:15Z</time></trkpt><trkpt lat="28.466498087474818" lon="-11.168594044673133"><ele>194.0</ele><time>2026-04-29T08:01:16Z</time></trkpt><trkpt lat="28.466467821823734" lon="-11.168319955654392"><ele>194.0</ele><time>2026-04-29T08:01:17Z</time></trkpt><trkpt lat="28.466446415156046" lon="-11.168047612663834"><ele>193.5</ele><time>2026-04-29T08:01:18Z</time></trkpt><trkpt lat="28.466433741192844" lon="-11.167781628071433"><ele>193.0</ele><time>2026-04-29T08:01:19Z</time></trkpt><trkpt lat="28.466425181686322" lon="-11.16753152519172"><ele>192.33333333333331</ele><time>2026-04-29T08:01:20Z</time></trkpt><trkpt lat="28.466417294335614" lon="-11.167302916038661"><ele>191.66666666666666</ele><time>2026-04-29T08:01:21Z</time></trkpt><trkpt lat="28.466408529413627" lon="-11.167079430412866"><ele>191.0</ele><time>2026-04-29T08:01:22Z</time></trkpt><trkpt lat="28.466401097889722" lon="-11.166869049158482"><ele>191.0</ele><time>2026-04-29T08:01:23Z</time></trkpt><trkpt lat="28.466396578409057" lon="-11.16667137938168"><ele>191.0</ele><time>2026-04-29T08:01:24Z</time></trkpt><trkpt lat="28.46639169853676" lon="-11.166472834699043"><ele>191.0</ele><time>2026-04-29T08:01:25Z</time></trkpt><trkpt lat="28.466389820488548" lon="-11.16627011179231"><ele>191.0</ele><time>2026-04-29T08:01:26Z</time></trkpt><trkpt lat="28.466386990802924" lon="-11.166061148321003"><ele>191.0</ele><time>2026-04-29T08:01:27Z</time></trkpt><trkpt lat="28.46638277592341" lon="-11.165845128611103"><ele>191.0</ele><time>2026-04-29T08:01:28Z</time></trkpt><trkpt lat="28.466379860450676" lon="-11.16562182133086"><ele>191.0</ele><time>2026-04-29T08:01:29Z</time></trkpt><trkpt lat="28.46637511383837" lon="-11.165401379756295"><ele>191.0</ele><time>2026-04-29T08:01:30Z</time></trkpt><trkpt lat="28.46636940073336" lon="-11.165188359964006"><ele>191.0</ele><time>2026-04-29T08:01:31Z</time></trkpt><trkpt lat="28.46636406148291" lon="-11.164985593630135"><ele>191.0</ele><time>2026-04-29T08:01:32Z</time></trkpt><trkpt lat="28.466358232707673" lon="-11.164780142761387"><ele>191.0</ele><time>2026-04-29T08:01:33Z</time></trkpt><trkpt lat="28.466355580329168" lon="-11.164572248353208"><ele>191.0</ele><time>2026-04-29T08:01:34Z</time></trkpt><trkpt lat="28.466348359941236" lon="-11.164354048761327"><ele>191.0</ele><time>2026-04-29T08:01:35Z</time></trkpt><trkpt lat="28.466343848159752" lon="-11.164132232280783"><ele>191.0</ele><time>2026-04-29T08:01:36Z</time></trkpt><trkpt lat="28.466336119217637" lon="-11.163902540044345"><ele>191.0</ele><time>2026-04-29T08:01:37Z</time></trkpt><trkpt lat="28.466327796435902" lon="-11.163665210569686"><ele>190.66666666666666</ele><time>2026-04-29T08:01:38Z</time></trkpt><trkpt lat="28.466321055823524" lon="-11.163420561761868"><ele>190.33333333333334</ele><time>2026-04-29T08:01:39Z</time></trkpt><trkpt lat="28.46631482265178" lon="-11.16317372404848"><ele>190.0</ele><time>2026-04-29T08:01:40Z</time></trkpt><trkpt lat="28.466310579776437" lon="-11.162921245450807"><ele>190.0</ele><time>2026-04-29T08:01:41Z</time></trkpt><trkpt lat="28.466306643046035" lon="-11.162667963466012"><ele>190.0</ele><time>2026-04-29T08:01:42Z</time></trkpt><trkpt lat="28.466299500896962" lon="-11.162408465293598"><ele>190.0</ele><time>2026-04-29T08:01:43Z</time></trkpt><trkpt lat="28.46629216101283" lon="-11.162146296738412"><ele>190.0</ele><time>2026-04-29T08:01:44Z</time></trkpt><trkpt lat="28.466287406022378" lon="-11.161872583823321"><ele>190.0</ele><time>2026-04-29T08:01:45Z</time></trkpt><trkpt lat="28.466280431900135" lon="-11.161585233153708"><ele>190.0</ele><time>2026-04-29T08:01:46Z</time></trkpt><trkpt lat="28.466275796918087" lon="-11.161290715064123"><ele>190.0</ele><time>2026-04-29T08:01:47Z</time></trkpt><trkpt lat="28.46627379252028" lon="-11.160995900258849"><ele>190.0</ele><time>2026-04-29T08:01:48Z</time></trkpt><trkpt lat="28.466273376798124" lon="-11.160693739293503"><ele>190.5</ele><time>2026-04-29T08:01:49Z</time></trkpt><trkpt lat="28.466270368224617" lon="-11.160403225302321"><ele>191.0</ele><time>2026-04-29T08:01:50Z</time></trkpt><trkpt lat="28.466270267353796" lon="-11.16011768091038"><ele>190.5</ele><time>2026-04-29T08:01:51Z</time></trkpt><trkpt lat="28.46626905780978" lon="-11.159839578443417"><ele>190.0</ele><time>2026-04-29T08:01:52Z</time></trkpt><trkpt lat="28.466267745385686" lon="-11.159576418960533"><ele>190.0</ele><time>2026-04-29T08:01:53Z</time></trkpt><trkpt lat="28.46626659422329" lon="-11.159325218411066"><ele>190.0</ele><time>2026-04-29T08:01:54Z</time></trkpt><trkpt lat="28.46626009897797" lon="-11.159069920712119"><ele>190.0</ele><time>2026-04-29T08:01:55Z</time></trkpt><trkpt lat="28.46624252640232" lon="-11.158806059976648"><ele>189.0</ele><time>2026-04-29T08:01:56Z</time></trkpt><trkpt lat="28.466220349561265" lon="-11.15853672922129"><ele>188.0</ele><time>2026-04-29T08:01:57Z</time></trkpt><trkpt lat="28.466203026621137" lon="-11.15826963452665"><ele>189.0</ele><time>2026-04-29T08:01:58Z</time></trkpt><trkpt lat="28.466193820553002" lon="-11.158003491485456"><ele>190.0</ele><time>2026-04-29T08:01:59Z</time></trkpt><trkpt lat="28.466191085660984" lon="-11.157740385767044"><ele>190.0</ele><time>2026-04-29T08:02:00Z</time></trkpt><trkpt lat="28.466189554974655" lon="-11.157478965584751"><ele>190.0</ele><time>2026-04-29T08:02:01Z</time></trkpt><trkpt lat="28.466183836562394" lon="-11.157219698550833"><ele>190.0</ele><time>2026-04-29T08:02:02Z</time></trkpt><trkpt lat="28.466174827982055" lon="-11.156962824154855"><ele>190.0</ele><time>2026-04-29T08:02:03Z</time></trkpt><trkpt lat="28.46616846940889" lon="-11.156708770582174"><ele>190.0</ele><time>2026-04-29T08:02:04Z</time></trkpt><trkpt lat="28.46616487429854" lon="-11.156465419554648"><ele>190.0</ele><time>2026-04-29T08:02:05Z</time></trkpt><trkpt lat="28.46616202467372" lon="-11.156228643330829"><ele>190.0</ele><time>2026-04-29T08:02:06Z</time></trkpt><trkpt lat="28.46616078733632" lon="-11.155982302061387"><ele>190.0</ele><time>2026-04-29T08:02:07Z</time></trkpt><trkpt lat="28.466156854429705" lon="-11.155736470178013"><ele>189.66666666666669</ele><time>2026-04-29T08:02:08Z</time></trkpt><trkpt lat="28.46614487826202" lon="-11.155486501074511"><ele>189.33333333333334</ele><time>2026-04-29T08:02:09Z</time></trkpt><trkpt lat="28.46613714795727" lon="-11.155231044197421"><ele>189.0</ele><time>2026-04-29T08:02:10Z</time></trkpt><trkpt lat="28.466132349516453" lon="-11.154968522619642"><ele>187.5</ele><time>2026-04-29T08:02:11Z</time></trkpt><trkpt lat="28.466125615393793" lon="-11.154701830392186"><ele>186.0</ele><time>2026-04-29T08:02:12Z</time></trkpt><trkpt lat="28.46611917560769" lon="-11.154435533375144"><ele>186.0</ele><time>2026-04-29T08:02:13Z</time></trkpt><trkpt lat="28.466112319895394" lon="-11.154158782086093"><ele>186.0</ele><time>2026-04-29T08:02:14Z</time></trkpt><trkpt lat="28.466107927127332" lon="-11.153882768902122"><ele>187.0</ele><time>2026-04-29T08:02:15Z</time></trkpt><trkpt lat="28.466103010452642" lon="-11.153607417317989"><ele>188.0</ele><time>2026-04-29T08:02:16Z</time></trkpt><trkpt lat="28.466097872790247" lon="-11.153331767193146"><ele>187.5</ele><time>2026-04-29T08:02:17Z</time></trkpt><trkpt lat="28.466093171014133" lon="-11.153061201294049"><ele>187.0</ele><time>2026-04-29T08:02:18Z</time></trkpt><trkpt lat="28.466089421102723" lon="-11.152793675568725"><ele>187.0</ele><time>2026-04-29T08:02:19Z</time></trkpt><trkpt lat="28.466084784443844" lon="-11.15252413457245"><ele>187.0</ele><time>2026-04-29T08:02:20Z</time></trkpt><trkpt lat="28.466078780104635" lon="-11.1522657105545"><ele>186.5</ele><time>2026-04-29T08:02:21Z</time></trkpt><trkpt lat="28.466069912722027" lon="-11.152004042305505"><ele>186.0</ele><time>2026-04-29T08:02:22Z</time></trkpt><trkpt lat="28.466055737477546" lon="-11.1517472013389"><ele>186.0</ele><time>2026-04-29T08:02:23Z</time></trkpt><trkpt lat="28.466036524345817" lon="-11.151501354853897"><ele>186.0</ele><time>2026-04-29T08:02:24Z</time></trkpt><trkpt lat="28.466006224589293" lon="-11.151267085712755"><ele>186.0</ele><time>2026-04-29T08:02:25Z</time></trkpt><trkpt lat="28.465967622941825" lon="-11.151028437401065"><ele>186.0</ele><time>2026-04-29T08:02:26Z</time></trkpt><trkpt lat="28.465919723951153" lon="-11.150780029536083"><ele>186.0</ele><time>2026-04-29T08:02:27Z</time></trkpt><trkpt lat="28.465861397622604" lon="-11.150529601725362"><ele>186.0</ele><time>2026-04-29T08:02:28Z</time></trkpt><trkpt lat="28.465789301734045" lon="-11.1502837739715"><ele>186.0</ele><time>2026-04-29T08:02:29Z</time></trkpt><trkpt lat="28.465713887916795" lon="-11.150043133300345"><ele>185.66666666666666</ele><time>2026-04-29T08:02:30Z</time></trkpt><trkpt lat="28.465637171061957" lon="-11.149806589882214"><ele>185.33333333333331</ele><time>2026-04-29T08:02:31Z</time></trkpt><trkpt lat="28.4655590849475" lon="-11.1495748474224"><ele>185.0</ele><time>2026-04-29T08:02:32Z</time></trkpt><trkpt lat="28.465471034853255" lon="-11.149338960363414"><ele>185.0</ele><time>2026-04-29T08:02:33Z</time></trkpt><trkpt lat="28.46537845567939" lon="-11.149107308469699"><ele>185.0</ele><time>2026-04-29T08:02:34Z</time></trkpt><trkpt lat="28.465286951716482" lon="-11.148876482349957"><ele>185.0</ele><time>2026-04-29T08:02:35Z</time></trkpt><trkpt lat="28.465199826234617" lon="-11.148649603911597"><ele>185.0</ele><time>2026-04-29T08:02:36Z</time></trkpt><trkpt lat="28.465112237067896" lon="-11.148424606679994"><ele>185.0</ele><time>2026-04-29T08:02:37Z</time></trkpt><trkpt lat="28.465027393553953" lon="-11.148199287988305"><ele>185.0</ele><time>2026-04-29T08:02:38Z</time></trkpt><trkpt lat="28.46494356742951" lon="-11.147973285683983"><ele>184.66666666666666</ele><time>2026-04-29T08:02:39Z</time></trkpt><trkpt lat="28.46486232945321" lon="-11.147752721042094"><ele>184.33333333333334</ele><time>2026-04-29T08:02:40Z</time></trkpt><trkpt lat="28.46478152939422" lon="-11.147531783253518"><ele>184.0</ele><time>2026-04-29T08:02:41Z</time></trkpt><trkpt lat="28.46469832054779" lon="-11.147314354854947"><ele>183.66666666666669</ele><time>2026-04-29T08:02:42Z</time></trkpt><trkpt lat="28.464612973481735" lon="-11.147092936277543"><ele>183.33333333333334</ele><time>2026-04-29T08:02:43Z</time></trkpt><trkpt lat="28.46452750797818" lon="-11.14687223768724"><ele>183.0</ele><time>2026-04-29T08:02:44Z</time></trkpt><trkpt lat="28.46444479094323" lon="-11.14664784078577"><ele>183.0</ele><time>2026-04-29T08:02:45Z</time></trkpt><trkpt lat="28.464360905552276" lon="-11.146417472047927"><ele>183.0</ele><time>2026-04-29T08:02:46Z</time></trkpt><trkpt lat="28.464272756649237" lon="-11.146182685425524"><ele>183.0</ele><time>2026-04-29T08:02:47Z</time></trkpt><trkpt lat="28.464179889389822" lon="-11.145945978136407"><ele>183.0</ele><time>2026-04-29T08:02:48Z</time></trkpt><trkpt lat="28.46408669978512" lon="-11.14570719691382"><ele>183.0</ele><time>2026-04-29T08:02:49Z</time></trkpt><trkpt lat="28.463990632565935" lon="-11.145466687031364"><ele>183.0</ele><time>2026-04-29T08:02:50Z</time></trkpt><trkpt lat="28.46389311685617" lon="-11.145218219942947"><ele>183.0</ele><time>2026-04-29T08:02:51Z</time></trkpt><trkpt lat="28.463795146771105" lon="-11.144961919631314"><ele>183.5</ele><time>2026-04-29T08:02:52Z</time></trkpt><trkpt lat="28.463698026764995" lon="-11.144695053857983"><ele>184.0</ele><time>2026-04-29T08:02:53Z</time></trkpt><trkpt lat="28.463600841840304" lon="-11.14443266826126"><ele>184.0</ele><time>2026-04-29T08:02:54Z</time></trkpt><trkpt lat="28.463506420604325" lon="-11.144171635411109"><ele>184.0</ele><time>2026-04-29T08:02:55Z</time></trkpt><trkpt lat="28.463415314785223" lon="-11.143910181541981"><ele>182.5</ele><time>2026-04-29T08:02:56Z</time></trkpt><trkpt lat="28.463326907543152" lon="-11.143644968406015"><ele>181.0</ele><time>2026-04-29T08:02:57Z</time></trkpt><trkpt lat="28.463247741343324" lon="-11.143380609912478"><ele>179.5</ele><time>2026-04-29T08:02:58Z</time></trkpt><trkpt lat="28.46317642381893" lon="-11.143121011003581"><ele>178.0</ele><time>2026-04-29T08:02:59Z</time></trkpt><trkpt lat="28.463113969629525" lon="-11.142867399231184"><ele>178.0</ele><time>2026-04-29T08:03:00Z</time></trkpt><trkpt lat="28.463059518049487" lon="-11.142612836396445"><ele>178.0</ele><time>2026-04-29T08:03:01Z</time></trkpt><trkpt lat="28.463009042049542" lon="-11.142348530373662"><ele>176.0</ele><time>2026-04-29T08:03:02Z</time></trkpt><trkpt lat="28.4629627276973" lon="-11.14208244458698"><ele>174.0</ele><time>2026-04-29T08:03:03Z</time></trkpt><trkpt lat="28.46292296588361" lon="-11.141816773539778"><ele>165.0</ele><time>2026-04-29T08:03:04Z</time></trkpt><trkpt lat="28.462888076241978" lon="-11.141546020591107"><ele>156.0</ele><time>2026-04-29T08:03:05Z</time></trkpt><trkpt lat="28.46285802624379" lon="-11.141276752726357"><ele>156.0</ele><time>2026-04-29T08:03:06Z</time></trkpt><trkpt lat="28.462834942179818" lon="-11.14100805105481"><ele>156.0</ele><time>2026-04-29T08:03:07Z</time></trkpt><trkpt lat="28.462815320011895" lon="-11.140743896983462"><ele>155.0</ele><time>2026-04-29T08:03:08Z</time></trkpt><trkpt lat="28.462797815222" lon="-11.140487068963322"><ele>154.0</ele><time>2026-04-29T08:03:09Z</time></trkpt><trkpt lat="28.462780081157977" lon="-11.140234680886389"><ele>153.0</ele><time>2026-04-29T08:03:10Z</time></trkpt><trkpt lat="28.462760778100133" lon="-11.139986905983667"><ele>151.33333333333334</ele><time>2026-04-29T08:03:11Z</time></trkpt><trkpt lat="28.46274370742908" lon="-11.139745986005064"><ele>149.66666666666669</ele><time>2026-04-29T08:03:12Z</time></trkpt><trkpt lat="28.462727883764" lon="-11.139504762162055"><ele>148.0</ele><time>2026-04-29T08:03:13Z</time></trkpt><trkpt lat="28.462711653470006" lon="-11.13926073286713"><ele>146.66666666666669</ele><time>2026-04-29T08:03:14Z</time></trkpt><trkpt lat="28.46269444472463" lon="-11.139019080328127"><ele>145.33333333333334</ele><time>2026-04-29T08:03:15Z</time></trkpt><trkpt lat="28.46267580722543" lon="-11.138778776782392"><ele>144.0</ele><time>2026-04-29T08:03:16Z</time></trkpt><trkpt lat="28.46265827349053" lon="-11.138535621710744"><ele>144.0</ele><time>2026-04-29T08:03:17Z</time></trkpt><trkpt lat="28.462637898174602" lon="-11.13828776434536"><ele>144.0</ele><time>2026-04-29T08:03:18Z</time></trkpt><trkpt lat="28.46260791117839" lon="-11.138035791721126"><ele>144.0</ele><time>2026-04-29T08:03:19Z</time></trkpt><trkpt lat="28.462573595636872" lon="-11.137786654521406"><ele>142.0</ele><time>2026-04-29T08:03:20Z</time></trkpt><trkpt lat="28.462537743639988" lon="-11.137539021946543"><ele>140.0</ele><time>2026-04-29T08:03:21Z</time></trkpt><trkpt lat="28.462499215459285" lon="-11.137302540276805"><ele>138.0</ele><time>2026-04-29T08:03:22Z</time></trkpt><trkpt lat="28.462457293733525" lon="-11.137069859732744"><ele>136.66666666666666</ele><time>2026-04-29T08:03:23Z</time></trkpt><trkpt lat="28.462411656253565" lon="-11.136827891426348"><ele>135.33333333333331</ele><time>2026-04-29T08:03:24Z</time></trkpt><trkpt lat="28.462359060325827" lon="-11.13658646697133"><ele>134.0</ele><time>2026-04-29T08:03:25Z</time></trkpt><trkpt lat="28.46229932665735" lon="-11.136344466167785"><ele>132.5</ele><time>2026-04-29T08:03:26Z</time></trkpt><trkpt lat="28.462234925197855" lon="-11.136100445937366"><ele>131.0</ele><time>2026-04-29T08:03:27Z</time></trkpt><trkpt lat="28.4621666989971" lon="-11.135855540854813"><ele>128.0</ele><time>2026-04-29T08:03:28Z</time></trkpt><trkpt lat="28.46209307210778" lon="-11.135608325720755"><ele>125.0</ele><time>2026-04-29T08:03:29Z</time></trkpt><trkpt lat="28.462011086651447" lon="-11.135364417076254"><ele>125.0</ele><time>2026-04-29T08:03:30Z</time></trkpt><trkpt lat="28.461921577106015" lon="-11.1351226611209"><ele>125.0</ele><time>2026-04-29T08:03:31Z</time></trkpt><trkpt lat="28.461824711241963" lon="-11.134880328076362"><ele>123.5</ele><time>2026-04-29T08:03:32Z</time></trkpt><trkpt lat="28.461724532429603" lon="-11.134637845967488"><ele>122.0</ele><time>2026-04-29T08:03:33Z</time></trkpt><trkpt lat="28.46162116842856" lon="-11.13440001420926"><ele>122.0</ele><time>2026-04-29T08:03:34Z</time></trkpt><trkpt lat="28.461517089558875" lon="-11.134167991640505"><ele>122.0</ele><time>2026-04-29T08:03:35Z</time></trkpt><trkpt lat="28.461415859274716" lon="-11.133941925428251"><ele>120.66666666666666</ele><time>2026-04-29T08:03:36Z</time></trkpt><trkpt lat="28.461318468985606" lon="-11.133720116528194"><ele>119.33333333333334</ele><time>2026-04-29T08:03:37Z</time></trkpt><trkpt lat="28.461220792178295" lon="-11.133497523804747"><ele>118.0</ele><time>2026-04-29T08:03:38Z</time></trkpt><trkpt lat="28.46112216304635" lon="-11.133269822479473"><ele>115.5</ele><time>2026-04-29T08:03:39Z</time></trkpt><trkpt lat="28.461023096113617" lon="-11.13304099459133"><ele>113.0</ele><time>2026-04-29T08:03:40Z</time></trkpt><trkpt lat="28.46092399867748" lon="-11.132806179192091"><ele>113.0</ele><time>2026-04-29T08:03:41Z</time></trkpt><trkpt lat="28.460825427549402" lon="-11.132576539500429"><ele>113.0</ele><time>2026-04-29T08:03:42Z</time></trkpt><trkpt lat="28.460728288559665" lon="-11.132352902585193"><ele>113.0</ele><time>2026-04-29T08:03:43Z</time></trkpt><trkpt lat="28.46062800016334" lon="-11.132131786398363"><ele>112.0</ele><time>2026-04-29T08:03:44Z</time></trkpt><trkpt lat="28.46052492293882" lon="-11.131910049825704"><ele>111.0</ele><time>2026-04-29T08:03:45Z</time></trkpt><trkpt lat="28.460427180528352" lon="-11.131695096083112"><ele>110.0</ele><time>2026-04-29T08:03:46Z</time></trkpt><trkpt lat="28.46033419385474" lon="-11.131483140718139"><ele>108.0</ele><time>2026-04-29T08:03:47Z</time></trkpt><trkpt lat="28.460242821153667" lon="-11.131276413266946"><ele>106.0</ele><time>2026-04-29T08:03:48Z</time></trkpt><trkpt lat="28.46015415097064" lon="-11.131077821419654"><ele>104.0</ele><time>2026-04-29T08:03:49Z</time></trkpt><trkpt lat="28.460073683919166" lon="-11.130885811218693"><ele>102.66666666666666</ele><time>2026-04-29T08:03:50Z</time></trkpt><trkpt lat="28.45999478961247" lon="-11.130706441125053"><ele>101.33333333333334</ele><time>2026-04-29T08:03:51Z</time></trkpt><trkpt lat="28.459920832870704" lon="-11.130540348025836"><ele>100.0</ele><time>2026-04-29T08:03:52Z</time></trkpt><trkpt lat="28.459849502104277" lon="-11.13038142111464"><ele>100.0</ele><time>2026-04-29T08:03:53Z</time></trkpt><trkpt lat="28.459783920034244" lon="-11.130229295971542"><ele>100.0</ele><time>2026-04-29T08:03:54Z</time></trkpt><trkpt lat="28.459719300865622" lon="-11.130084970406358"><ele>100.0</ele><time>2026-04-29T08:03:55Z</time></trkpt><trkpt lat="28.459655042179033" lon="-11.129953632387867"><ele>100.0</ele><time>2026-04-29T08:03:56Z</time></trkpt><trkpt lat="28.459596301700117" lon="-11.129827481545592"><ele>99.4</ele><time>2026-04-29T08:03:57Z</time></trkpt><trkpt lat="28.459544161860606" lon="-11.129708000740175"><ele>98.8</ele><time>2026-04-29T08:03:58Z</time></trkpt><trkpt lat="28.459497050372413" lon="-11.12959621088775"><ele>98.19999999999999</ele><time>2026-04-29T08:03:59Z</time></trkpt><trkpt lat="28.459447086431908" lon="-11.129482580859072"><ele>97.6</ele><time>2026-04-29T08:04:00Z</time></trkpt><trkpt lat="28.45939569433795" lon="-11.129371401838178"><ele>97.0</ele><time>2026-04-29T08:04:01Z</time></trkpt><trkpt lat="28.459332474039716" lon="-11.129258876739799"><ele>97.0</ele><time>2026-04-29T08:04:02Z</time></trkpt><trkpt lat="28.459262456794427" lon="-11.12915625311159"><ele>97.0</ele><time>2026-04-29T08:04:03Z</time></trkpt><trkpt lat="28.459191398479373" lon="-11.129070102041034"><ele>97.0</ele><time>2026-04-29T08:04:04Z</time></trkpt><trkpt lat="28.459126412104673" lon="-11.128989314233356"><ele>97.0</ele><time>2026-04-29T08:04:05Z</time></trkpt><trkpt lat="28.459078370285173" lon="-11.128905071669793"><ele>97.0</ele><time>2026-04-29T08:04:06Z</time></trkpt><trkpt lat="28.459048013368385" lon="-11.128799552005066"><ele>96.0</ele><time>2026-04-29T08:04:07Z</time></trkpt><trkpt lat="28.4590320055421" lon="-11.128681433880047"><ele>95.0</ele><time>2026-04-29T08:04:08Z</time></trkpt><trkpt lat="28.45900494950573" lon="-11.128550236347877"><ele>94.0</ele><time>2026-04-29T08:04:09Z</time></trkpt><trkpt lat="28.45896911058252" lon="-11.128419613794799"><ele>93.0</ele><time>2026-04-29T08:04:10Z</time></trkpt><trkpt lat="28.458929131928784" lon="-11.128276020252617"><ele>92.0</ele><time>2026-04-29T08:04:11Z</time></trkpt><trkpt lat="28.45887883950453" lon="-11.128106507535463"><ele>91.0</ele><time>2026-04-29T08:04:12Z</time></trkpt><trkpt lat="28.45881391912525" lon="-11.127929275493289"><ele>90.0</ele><time>2026-04-29T08:04:13Z</time></trkpt><trkpt lat="28.458748508823856" lon="-11.127774644176693"><ele>89.5</ele><time>2026-04-29T08:04:14Z</time></trkpt><trkpt lat="28.458685315440437" lon="-11.127628625890566"><ele>89.0</ele><time>2026-04-29T08:04:15Z</time></trkpt><trkpt lat="28.458623553065575" lon="-11.127481156830962"><ele>88.5</ele><time>2026-04-29T08:04:16Z</time></trkpt><trkpt lat="28.45856456634822" lon="-11.127334005288555"><ele>88.0</ele><time>2026-04-29T08:04:17Z</time></trkpt><trkpt lat="28.45850628532357" lon="-11.127181252892951"><ele>87.33333333333333</ele><time>2026-04-29T08:04:18Z</time></trkpt><trkpt lat="28.458445840722163" lon="-11.127026459706165"><ele>86.66666666666667</ele><time>2026-04-29T08:04:19Z</time></trkpt><trkpt lat="28.458382967965424" lon="-11.1268684663741"><ele>86.0</ele><time>2026-04-29T08:04:20Z</time></trkpt><trkpt lat="28.45831967723981" lon="-11.126704636372695"><ele>84.66666666666667</ele><time>2026-04-29T08:04:21Z</time></trkpt><trkpt lat="28.45825291445831" lon="-11.126532719515009"><ele>83.33333333333333</ele><time>2026-04-29T08:04:22Z</time></trkpt><trkpt lat="28.458183249145502" lon="-11.1263533591656"><ele>82.0</ele><time>2026-04-29T08:04:23Z</time></trkpt><trkpt lat="28.458112768592358" lon="-11.126173274809068"><ele>82.0</ele><time>2026-04-29T08:04:24Z</time></trkpt><trkpt lat="28.45804085896959" lon="-11.125990433593445"><ele>82.0</ele><time>2026-04-29T08:04:25Z</time></trkpt><trkpt lat="28.457963168563587" lon="-11.12579993575279"><ele>82.0</ele><time>2026-04-29T08:04:26Z</time></trkpt><trkpt lat="28.457883865707128" lon="-11.125604693975886"><ele>79.66666666666666</ele><time>2026-04-29T08:04:27Z</time></trkpt><trkpt lat="28.457802011076048" lon="-11.125401050625278"><ele>77.33333333333333</ele><time>2026-04-29T08:04:28Z</time></trkpt><trkpt lat="28.45771907515239" lon="-11.125190548992647"><ele>75.0</ele><time>2026-04-29T08:04:29Z</time></trkpt><trkpt lat="28.457635634933936" lon="-11.12497998391578"><ele>75.33333333333333</ele><time>2026-04-29T08:04:30Z</time></trkpt><trkpt lat="28.457551326469996" lon="-11.124768419797237"><ele>75.66666666666666</ele><time>2026-04-29T08:04:31Z</time></trkpt><trkpt lat="28.45746604853068" lon="-11.124554349994797"><ele>76.0</ele><time>2026-04-29T08:04:32Z</time></trkpt><trkpt lat="28.45737889132419" lon="-11.124339625393125"><ele>76.0</ele><time>2026-04-29T08:04:33Z</time></trkpt><trkpt lat="28.457290089229545" lon="-11.124125937419173"><ele>76.0</ele><time>2026-04-29T08:04:34Z</time></trkpt><trkpt lat="28.45720167291885" lon="-11.123907890254289"><ele>76.0</ele><time>2026-04-29T08:04:35Z</time></trkpt><trkpt lat="28.457114207522576" lon="-11.12369023409689"><ele>74.33333333333333</ele><time>2026-04-29T08:04:36Z</time></trkpt><trkpt lat="28.45702790401207" lon="-11.123470163478522"><ele>72.66666666666667</ele><time>2026-04-29T08:04:37Z</time></trkpt><trkpt lat="28.456939720620756" lon="-11.123250617453625"><ele>71.0</ele><time>2026-04-29T08:04:38Z</time></trkpt><trkpt lat="28.456855122400697" lon="-11.123032371659074"><ele>70.0</ele><time>2026-04-29T08:04:39Z</time></trkpt><trkpt lat="28.456775056387173" lon="-11.122826287676054"><ele>69.0</ele><time>2026-04-29T08:04:40Z</time></trkpt><trkpt lat="28.456696121146862" lon="-11.122627659631673"><ele>68.0</ele><time>2026-04-29T08:04:41Z</time></trkpt><trkpt lat="28.456615240473493" lon="-11.122431802896042"><ele>67.0</ele><time>2026-04-29T08:04:42Z</time></trkpt><trkpt lat="28.456536081409634" lon="-11.122236297499821"><ele>66.0</ele><time>2026-04-29T08:04:43Z</time></trkpt><trkpt lat="28.45645485407479" lon="-11.122037412712599"><ele>65.0</ele><time>2026-04-29T08:04:44Z</time></trkpt><trkpt lat="28.45637530871649" lon="-11.12183536374986"><ele>65.0</ele><time>2026-04-29T08:04:45Z</time></trkpt><trkpt lat="28.456292330005237" lon="-11.121626636855888"><ele>65.0</ele><time>2026-04-29T08:04:46Z</time></trkpt><trkpt lat="28.45620644464996" lon="-11.121414290201406"><ele>65.0</ele><time>2026-04-29T08:04:47Z</time></trkpt><trkpt lat="28.45611971882343" lon="-11.121198773708999"><ele>63.333333333333336</ele><time>2026-04-29T08:04:48Z</time></trkpt><trkpt lat="28.456036198822535" lon="-11.120988185898629"><ele>61.66666666666667</ele><time>2026-04-29T08:04:49Z</time></trkpt><trkpt lat="28.45595500256887" lon="-11.120785691106938"><ele>60.0</ele><time>2026-04-29T08:04:50Z</time></trkpt><trkpt lat="28.455878837044636" lon="-11.120590951973316"><ele>59.33333333333333</ele><time>2026-04-29T08:04:51Z</time></trkpt><trkpt lat="28.45580221857957" lon="-11.12039619174977"><ele>58.666666666666664</ele><time>2026-04-29T08:04:52Z</time></trkpt><trkpt lat="28.455721527050578" lon="-11.120197265511669"><ele>58.0</ele><time>2026-04-29T08:04:53Z</time></trkpt><trkpt lat="28.455639646454124" lon="-11.11999794848656"><ele>59.0</ele><time>2026-04-29T08:04:54Z</time></trkpt><trkpt lat="28.455556502576197" lon="-11.119806249321964"><ele>60.0</ele><time>2026-04-29T08:04:55Z</time></trkpt><trkpt lat="28.455467658590354" lon="-11.119614559094403"><ele>61.0</ele><time>2026-04-29T08:04:56Z</time></trkpt><trkpt lat="28.455374457148455" lon="-11.119425893693084"><ele>61.0</ele><time>2026-04-29T08:04:57Z</time></trkpt><trkpt lat="28.455274556898008" lon="-11.119237257665063"><ele>61.0</ele><time>2026-04-29T08:04:58Z</time></trkpt><trkpt lat="28.455173028111957" lon="-11.119052588100265"><ele>61.0</ele><time>2026-04-29T08:04:59Z</time></trkpt><trkpt lat="28.455069021021323" lon="-11.11887949218933"><ele>59.33333333333333</ele><time>2026-04-29T08:05:00Z</time></trkpt><trkpt lat="28.454963678716187" lon="-11.1187152836262"><ele>57.66666666666667</ele><time>2026-04-29T08:05:01Z</time></trkpt><trkpt lat="28.45485455390202" lon="-11.118555636417298"><ele>56.0</ele><time>2026-04-29T08:05:02Z</time></trkpt><trkpt lat="28.45473968682339" lon="-11.118394680760444"><ele>56.0</ele><time>2026-04-29T08:05:03Z</time></trkpt><trkpt lat="28.454620766421307" lon="-11.118236441587229"><ele>56.0</ele><time>2026-04-29T08:05:04Z</time></trkpt><trkpt lat="28.454496840195315" lon="-11.118081914098086"><ele>56.0</ele><time>2026-04-29T08:05:05Z</time></trkpt><trkpt lat="28.45436491202197" lon="-11.117930072166898"><ele>55.333333333333336</ele><time>2026-04-29T08:05:06Z</time></trkpt><trkpt lat="28.45421657458144" lon="-11.117771880009643"><ele>54.66666666666667</ele><time>2026-04-29T08:05:07Z</time></trkpt><trkpt lat="28.454066293503338" lon="-11.117616817727328"><ele>54.0</ele><time>2026-04-29T08:05:08Z</time></trkpt><trkpt lat="28.453914382188543" lon="-11.117465335998745"><ele>53.0</ele><time>2026-04-29T08:05:09Z</time></trkpt><trkpt lat="28.453767119247793" lon="-11.117323160266308"><ele>52.0</ele><time>2026-04-29T08:05:10Z</time></trkpt><trkpt lat="28.453622533469947" lon="-11.11718362746457"><ele>51.0</ele><time>2026-04-29T08:05:11Z</time></trkpt><trkpt lat="28.45348602375385" lon="-11.117049363781485"><ele>51.0</ele><time>2026-04-29T08:05:12Z</time></trkpt><trkpt lat="28.453355563090174" lon="-11.116923231628506"><ele>51.0</ele><time>2026-04-29T08:05:13Z</time></trkpt><trkpt lat="28.45323020112915" lon="-11.116801818401866"><ele>51.0</ele><time>2026-04-29T08:05:14Z</time></trkpt><trkpt lat="28.453106388790225" lon="-11.11667849867851"><ele>50.0</ele><time>2026-04-29T08:05:15Z</time></trkpt><trkpt lat="28.452979684804262" lon="-11.116551052364905"><ele>49.0</ele><time>2026-04-29T08:05:16Z</time></trkpt><trkpt lat="28.45285535353484" lon="-11.11642293552352"><ele>48.0</ele><time>2026-04-29T08:05:17Z</time></trkpt><trkpt lat="28.45273545416208" lon="-11.116292855667286"><ele>48.0</ele><time>2026-04-29T08:05:18Z</time></trkpt><trkpt lat="28.45261600392595" lon="-11.11616165612503"><ele>48.0</ele><time>2026-04-29T08:05:19Z</time></trkpt><trkpt lat="28.452501328694336" lon="-11.116028088730166"><ele>48.0</ele><time>2026-04-29T08:05:20Z</time></trkpt><trkpt lat="28.452384242669577" lon="-11.115893745514533"><ele>48.0</ele><time>2026-04-29T08:05:21Z</time></trkpt><trkpt lat="28.45226354756604" lon="-11.115758910980157"><ele>48.0</ele><time>2026-04-29T08:05:22Z</time></trkpt><trkpt lat="28.45213952454678" lon="-11.115625362823797"><ele>48.0</ele><time>2026-04-29T08:05:23Z</time></trkpt><trkpt lat="28.45201739736287" lon="-11.115496963736275"><ele>47.0</ele><time>2026-04-29T08:05:24Z</time></trkpt><trkpt lat="28.45190969606687" lon="-11.1153591498646"><ele>46.0</ele><time>2026-04-29T08:05:25Z</time></trkpt><trkpt lat="28.45177312644557" lon="-11.115251958320803"><ele>45.0</ele><time>2026-04-29T08:05:26Z</time></trkpt><trkpt lat="28.45164732175383" lon="-11.115125380545074"><ele>45.0</ele><time>2026-04-29T08:05:27Z</time></trkpt><trkpt lat="28.45152037963131" lon="-11.114997259951398"><ele>45.0</ele><time>2026-04-29T08:05:28Z</time></trkpt><trkpt lat="28.451391639019626" lon="-11.114871114619588"><ele>45.0</ele><time>2026-04-29T08:05:29Z</time></trkpt><trkpt lat="28.451271874617113" lon="-11.11475259470087"><ele>44.25</ele><time>2026-04-29T08:05:30Z</time></trkpt><trkpt lat="28.451157176834222" lon="-11.114639828195754"><ele>43.5</ele><time>2026-04-29T08:05:31Z</time></trkpt><trkpt lat="28.45104753290894" lon="-11.114532169552533"><ele>42.75</ele><time>2026-04-29T08:05:32Z</time></trkpt><trkpt lat="28.450941060100423" lon="-11.114431063638607"><ele>42.0</ele><time>2026-04-29T08:05:33Z</time></trkpt><trkpt lat="28.450838103168557" lon="-11.114333872618879"><ele>42.0</ele><time>2026-04-29T08:05:34Z</time></trkpt><trkpt lat="28.450742445438937" lon="-11.11423965245203"><ele>42.0</ele><time>2026-04-29T08:05:35Z</time></trkpt><trkpt lat="28.45064880089797" lon="-11.114146293879706"><ele>42.0</ele><time>2026-04-29T08:05:36Z</time></trkpt><trkpt lat="28.450551395954136" lon="-11.114048166113474"><ele>42.0</ele><time>2026-04-29T08:05:37Z</time></trkpt><trkpt lat="28.450453148630547" lon="-11.113948096056694"><ele>42.400000000000006</ele><time>2026-04-29T08:05:38Z</time></trkpt><trkpt lat="28.45036056025781" lon="-11.113855265636758"><ele>42.800000000000004</ele><time>2026-04-29T08:05:39Z</time></trkpt><trkpt lat="28.45027379693798" lon="-11.113765722531602"><ele>43.2</ele><time>2026-04-29T08:05:40Z</time></trkpt><trkpt lat="28.4501940775993" lon="-11.113683990262027"><ele>43.6</ele><time>2026-04-29T08:05:41Z</time></trkpt><trkpt lat="28.4501204169832" lon="-11.113608504866438"><ele>44.0</ele><time>2026-04-29T08:05:42Z</time></trkpt><trkpt lat="28.450052601117594" lon="-11.11353857027992"><ele>44.0</ele><time>2026-04-29T08:05:43Z</time></trkpt><trkpt lat="28.449990526467666" lon="-11.11347212166215"><ele>44.0</ele><time>2026-04-29T08:05:44Z</time></trkpt><trkpt lat="28.44992971889895" lon="-11.113404388853926"><ele>44.0</ele><time>2026-04-29T08:05:45Z</time></trkpt><trkpt lat="28.449863416335205" lon="-11.113329757946552"><ele>44.0</ele><time>2026-04-29T08:05:46Z</time></trkpt><trkpt lat="28.44978932134457" lon="-11.113253396923676"><ele>44.0</ele><time>2026-04-29T08:05:47Z</time></trkpt><trkpt lat="28.449712634551787" lon="-11.113176404415938"><ele>43.800000000000004</ele><time>2026-04-29T08:05:48Z</time></trkpt><trkpt lat="28.44964288269628" lon="-11.113103147496773"><ele>43.6</ele><time>2026-04-29T08:05:49Z</time></trkpt><trkpt lat="28.449580983614087" lon="-11.11304034267228"><ele>43.4</ele><time>2026-04-29T08:05:50Z</time></trkpt><trkpt lat="28.44951148350919" lon="-11.112966342567047"><ele>43.2</ele><time>2026-04-29T08:05:51Z</time></trkpt><trkpt lat="28.449425358833572" lon="-11.11287978360695"><ele>43.0</ele><time>2026-04-29T08:05:52Z</time></trkpt><trkpt lat="28.449330903227846" lon="-11.112789693044855"><ele>42.75</ele><time>2026-04-29T08:05:53Z</time></trkpt><trkpt lat="28.4492283831513" lon="-11.112690308883996"><ele>42.5</ele><time>2026-04-29T08:05:54Z</time></trkpt><trkpt lat="28.44911654958986" lon="-11.112582614461067"><ele>42.25</ele><time>2026-04-29T08:05:55Z</time></trkpt><trkpt lat="28.448993026774975" lon="-11.112472211236083"><ele>42.0</ele><time>2026-04-29T08:05:56Z</time></trkpt><trkpt lat="28.448868167632686" lon="-11.112371183259585"><ele>41.5</ele><time>2026-04-29T08:05:57Z</time></trkpt><trkpt lat="28.4487431781189" lon="-11.112274987111144"><ele>41.0</ele><time>2026-04-29T08:05:58Z</time></trkpt><trkpt lat="28.44861595823269" lon="-11.11217913113086"><ele>40.5</ele><time>2026-04-29T08:05:59Z</time></trkpt><trkpt lat="28.4484967448268" lon="-11.112088173160421"><ele>40.0</ele><time>2026-04-29T08:06:00Z</time></trkpt><trkpt lat="28.44838841092044" lon="-11.112012178603123"><ele>40.0</ele><time>2026-04-29T08:06:01Z</time></trkpt><trkpt lat="28.448278207791976" lon="-11.111939758546471"><ele>40.0</ele><time>2026-04-29T08:06:02Z</time></trkpt><trkpt lat="28.448166151713988" lon="-11.11187094318378"><ele>40.0</ele><time>2026-04-29T08:06:03Z</time></trkpt><trkpt lat="28.4480475307871" lon="-11.111794255759849"><ele>40.0</ele><time>2026-04-29T08:06:04Z</time></trkpt><trkpt lat="28.447920570526684" lon="-11.111725591748401"><ele>40.25</ele><time>2026-04-29T08:06:05Z</time></trkpt><trkpt lat="28.447789818655636" lon="-11.111663685306505"><ele>40.5</ele><time>2026-04-29T08:06:06Z</time></trkpt><trkpt lat="28.447655523773406" lon="-11.111601518719764"><ele>40.75</ele><time>2026-04-29T08:06:07Z</time></trkpt><trkpt lat="28.44751830841593" lon="-11.111541896914163"><ele>41.0</ele><time>2026-04-29T08:06:08Z</time></trkpt><trkpt lat="28.447379096112744" lon="-11.111482960468624"><ele>41.0</ele><time>2026-04-29T08:06:09Z</time></trkpt><trkpt lat="28.447245479675534" lon="-11.111425629163609"><ele>41.0</ele><time>2026-04-29T08:06:10Z</time></trkpt><trkpt lat="28.447108149012713" lon="-11.111391791455686"><ele>41.0</ele><time>2026-04-29T08:06:11Z</time></trkpt><trkpt lat="28.44697780094219" lon="-11.11134098142314"><ele>41.0</ele><time>2026-04-29T08:06:12Z</time></trkpt><trkpt lat="28.446850817702398" lon="-11.111291810359825"><ele>41.25</ele><time>2026-04-29T08:06:13Z</time></trkpt><trkpt lat="28.446729378239464" lon="-11.111244732591777"><ele>41.5</ele><time>2026-04-29T08:06:14Z</time></trkpt><trkpt lat="28.446613872126672" lon="-11.111199654221355"><ele>41.75</ele><time>2026-04-29T08:06:15Z</time></trkpt><trkpt lat="28.44650110305573" lon="-11.111148565175334"><ele>42.0</ele><time>2026-04-29T08:06:16Z</time></trkpt><trkpt lat="28.446381426623145" lon="-11.111096862266779"><ele>42.0</ele><time>2026-04-29T08:06:17Z</time></trkpt><trkpt lat="28.446265293471466" lon="-11.111046877552145"><ele>42.0</ele><time>2026-04-29T08:06:18Z</time></trkpt><trkpt lat="28.446153957450612" lon="-11.110999271476338"><ele>42.0</ele><time>2026-04-29T08:06:19Z</time></trkpt><trkpt lat="28.446048361469924" lon="-11.11095411980543"><ele>42.0</ele><time>2026-04-29T08:06:20Z</time></trkpt><trkpt lat="28.445949817391426" lon="-11.110911983425678"><ele>42.0</ele><time>2026-04-29T08:06:21Z</time></trkpt><trkpt lat="28.44586815331429" lon="-11.11085919553154"><ele>42.0</ele><time>2026-04-29T08:06:22Z</time></trkpt><trkpt lat="28.445777838146846" lon="-11.11083039906977"><ele>42.0</ele><time>2026-04-29T08:06:23Z</time></trkpt><trkpt lat="28.445687288573126" lon="-11.110789575271314"><ele>42.0</ele><time>2026-04-29T08:06:24Z</time></trkpt><trkpt lat="28.445599312278738" lon="-11.110753518582067"><ele>42.0</ele><time>2026-04-29T08:06:25Z</time></trkpt><trkpt lat="28.44551668179373" lon="-11.110717325818014"><ele>42.166666666666664</ele><time>2026-04-29T08:06:26Z</time></trkpt><trkpt lat="28.445447286442953" lon="-11.110689252185992"><ele>42.333333333333336</ele><time>2026-04-29T08:06:27Z</time></trkpt><trkpt lat="28.445387243873242" lon="-11.110667194163225"><ele>42.5</ele><time>2026-04-29T08:06:28Z</time></trkpt><trkpt lat="28.44529937155777" lon="-11.110631860979314"><ele>42.66666666666667</ele><time>2026-04-29T08:06:30Z</time></trkpt><trkpt lat="28.445227301031" lon="-11.110600614709336"><ele>42.833333333333336</ele><time>2026-04-29T08:06:32Z</time></trkpt><trkpt lat="28.445130027094386" lon="-11.110559216872584"><ele>43.0</ele><time>2026-04-29T08:06:34Z</time></trkpt><trkpt lat="28.445063885048583" lon="-11.110530349309323"><ele>43.0</ele><time>2026-04-29T08:06:35Z</time></trkpt><trkpt lat="28.44498200168706" lon="-11.110495952164127"><ele>43.0</ele><time>2026-04-29T08:06:36Z</time></trkpt><trkpt lat="28.444886727695778" lon="-11.11047887232395"><ele>43.0</ele><time>2026-04-29T08:06:37Z</time></trkpt><trkpt lat="28.444796062397153" lon="-11.110422534811638"><ele>43.0</ele><time>2026-04-29T08:06:38Z</time></trkpt><trkpt lat="28.444703500823632" lon="-11.110384320613806"><ele>43.0</ele><time>2026-04-29T08:06:39Z</time></trkpt><trkpt lat="28.44460887967382" lon="-11.110342073785828"><ele>43.2</ele><time>2026-04-29T08:06:40Z</time></trkpt><trkpt lat="28.44451335479742" lon="-11.11030400617071"><ele>43.4</ele><time>2026-04-29T08:06:41Z</time></trkpt><trkpt lat="28.444426562427225" lon="-11.110263375843259"><ele>43.6</ele><time>2026-04-29T08:06:42Z</time></trkpt><trkpt lat="28.444333307881887" lon="-11.110226070669729"><ele>43.800000000000004</ele><time>2026-04-29T08:06:43Z</time></trkpt><trkpt lat="28.44421987481061" lon="-11.110218675627312"><ele>44.0</ele><time>2026-04-29T08:06:44Z</time></trkpt><trkpt lat="28.444119085815114" lon="-11.110178475703128"><ele>44.0</ele><time>2026-04-29T08:06:45Z</time></trkpt><trkpt lat="28.444018823464" lon="-11.110140305710381"><ele>44.0</ele><time>2026-04-29T08:06:46Z</time></trkpt><trkpt lat="28.443921663765938" lon="-11.11010301479524"><ele>44.0</ele><time>2026-04-29T08:06:47Z</time></trkpt><trkpt lat="28.44381661447258" lon="-11.110062695752193"><ele>44.0</ele><time>2026-04-29T08:06:48Z</time></trkpt><trkpt lat="28.44370828668186" lon="-11.110021256993928"><ele>44.0</ele><time>2026-04-29T08:06:49Z</time></trkpt><trkpt lat="28.443596082712734" lon="-11.10997839936613"><ele>44.0</ele><time>2026-04-29T08:06:50Z</time></trkpt><trkpt lat="28.44348569967176" lon="-11.109936237270869"><ele>44.0</ele><time>2026-04-29T08:06:51Z</time></trkpt><trkpt lat="28.443370897126282" lon="-11.109892387082759"><ele>44.0</ele><time>2026-04-29T08:06:52Z</time></trkpt><trkpt lat="28.44325229903009" lon="-11.109846950569953"><ele>44.0</ele><time>2026-04-29T08:06:53Z</time></trkpt><trkpt lat="28.44313267496225" lon="-11.109805100590409"><ele>43.75</ele><time>2026-04-29T08:06:54Z</time></trkpt><trkpt lat="28.443013714925854" lon="-11.109765107103527"><ele>43.5</ele><time>2026-04-29T08:06:55Z</time></trkpt><trkpt lat="28.442893191063984" lon="-11.109725424962146"><ele>43.25</ele><time>2026-04-29T08:06:56Z</time></trkpt><trkpt lat="28.44277230932002" lon="-11.109689205346152"><ele>43.0</ele><time>2026-04-29T08:06:57Z</time></trkpt><trkpt lat="28.44265916686825" lon="-11.109664442181925"><ele>43.0</ele><time>2026-04-29T08:06:58Z</time></trkpt><trkpt lat="28.44255573605037" lon="-11.109643243176475"><ele>43.0</ele><time>2026-04-29T08:06:59Z</time></trkpt><trkpt lat="28.44245911405007" lon="-11.109625688804982"><ele>43.0</ele><time>2026-04-29T08:07:00Z</time></trkpt><trkpt lat="28.44236880310136" lon="-11.109613137713179"><ele>43.0</ele><time>2026-04-29T08:07:01Z</time></trkpt><trkpt lat="28.44228354997394" lon="-11.10960128871761"><ele>43.0</ele><time>2026-04-29T08:07:02Z</time></trkpt><trkpt lat="28.442203455291505" lon="-11.109590157444408"><ele>43.333333333333336</ele><time>2026-04-29T08:07:03Z</time></trkpt><trkpt lat="28.44212905172906" lon="-11.109579817097819"><ele>43.66666666666667</ele><time>2026-04-29T08:07:04Z</time></trkpt><trkpt lat="28.44205652637362" lon="-11.10956973778464"><ele>44.0</ele><time>2026-04-29T08:07:05Z</time></trkpt><trkpt lat="28.44198974361034" lon="-11.109560456560866"><ele>44.333333333333336</ele><time>2026-04-29T08:07:06Z</time></trkpt><trkpt lat="28.44187629684564" lon="-11.109544690133436"><ele>44.666666666666664</ele><time>2026-04-29T08:07:08Z</time></trkpt><trkpt lat="28.44178617033168" lon="-11.109532164847604"><ele>45.0</ele><time>2026-04-29T08:07:10Z</time></trkpt><trkpt lat="28.441739125782316" lon="-11.109456501052794"><ele>45.0</ele><time>2026-04-29T08:07:11Z</time></trkpt><trkpt lat="28.441646035877813" lon="-11.109445364668387"><ele>45.0</ele><time>2026-04-29T08:07:13Z</time></trkpt><trkpt lat="28.441545399114208" lon="-11.109434302129474"><ele>45.0</ele><time>2026-04-29T08:07:15Z</time></trkpt><trkpt lat="28.441441322447226" lon="-11.109429062232586"><ele>45.0</ele><time>2026-04-29T08:07:17Z</time></trkpt><trkpt lat="28.441321370160427" lon="-11.109411601315506"><ele>45.0</ele><time>2026-04-29T08:07:19Z</time></trkpt><trkpt lat="28.441253415176096" lon="-11.109364700366063"><ele>45.0</ele><time>2026-04-29T08:07:20Z</time></trkpt><trkpt lat="28.44120805340523" lon="-11.109285047209022"><ele>45.0</ele><time>2026-04-29T08:07:21Z</time></trkpt><trkpt lat="28.44114602512569" lon="-11.109221995898734"><ele>45.0</ele><time>2026-04-29T08:07:22Z</time></trkpt><trkpt lat="28.441090654465892" lon="-11.109156526321936"><ele>45.0</ele><time>2026-04-29T08:07:23Z</time></trkpt><trkpt lat="28.441033903034207" lon="-11.109086814084995"><ele>45.0</ele><time>2026-04-29T08:07:24Z</time></trkpt><trkpt lat="28.44099839798525" lon="-11.108998464166282"><ele>45.0</ele><time>2026-04-29T08:07:25Z</time></trkpt><trkpt lat="28.440946608289792" lon="-11.108930931776102"><ele>45.0</ele><time>2026-04-29T08:07:26Z</time></trkpt><trkpt lat="28.44089986805401" lon="-11.108869284969524"><ele>45.0</ele><time>2026-04-29T08:07:27Z</time></trkpt><trkpt lat="28.44080917945611" lon="-11.108843011862955"><ele>45.0</ele><time>2026-04-29T08:07:28Z</time></trkpt><trkpt lat="28.440760999355856" lon="-11.108778853670461"><ele>45.0</ele><time>2026-04-29T08:07:29Z</time></trkpt><trkpt lat="28.440712667122842" lon="-11.108714492833318"><ele>45.0</ele><time>2026-04-29T08:07:30Z</time></trkpt><trkpt lat="28.4406687325817" lon="-11.108655988118544"><ele>45.0</ele><time>2026-04-29T08:07:31Z</time></trkpt><trkpt lat="28.44062569244232" lon="-11.10859867439896"><ele>45.0</ele><time>2026-04-29T08:07:32Z</time></trkpt><trkpt lat="28.440542029409702" lon="-11.1084872658395"><ele>45.0</ele><time>2026-04-29T08:07:34Z</time></trkpt><trkpt lat="28.440498780848586" lon="-11.108429674592191"><ele>45.0</ele><time>2026-04-29T08:07:35Z</time></trkpt><trkpt lat="28.440454208597707" lon="-11.108370091698099"><ele>45.0</ele><time>2026-04-29T08:07:36Z</time></trkpt><trkpt lat="28.44040974956179" lon="-11.108310561449937"><ele>45.0</ele><time>2026-04-29T08:07:37Z</time></trkpt><trkpt lat="28.440366062244163" lon="-11.108255543939206"><ele>45.0</ele><time>2026-04-29T08:07:38Z</time></trkpt><trkpt lat="28.440323498166155" lon="-11.108200672049227"><ele>45.0</ele><time>2026-04-29T08:07:39Z</time></trkpt><trkpt lat="28.44028076467883" lon="-11.108145564913228"><ele>45.0</ele><time>2026-04-29T08:07:40Z</time></trkpt><trkpt lat="28.440239092063617" lon="-11.108091825849609"><ele>44.57142857142857</ele><time>2026-04-29T08:07:41Z</time></trkpt><trkpt lat="28.440196419902666" lon="-11.108036797820422"><ele>44.142857142857146</ele><time>2026-04-29T08:07:42Z</time></trkpt><trkpt lat="28.440148817674924" lon="-11.107975412204441"><ele>43.714285714285715</ele><time>2026-04-29T08:07:43Z</time></trkpt><trkpt lat="28.440098703474266" lon="-11.1079107872573"><ele>43.285714285714285</ele><time>2026-04-29T08:07:44Z</time></trkpt><trkpt lat="28.440047461822758" lon="-11.107844708419547"><ele>42.85714285714286</ele><time>2026-04-29T08:07:45Z</time></trkpt><trkpt lat="28.44000222753144" lon="-11.107786376393213"><ele>42.42857142857143</ele><time>2026-04-29T08:07:46Z</time></trkpt><trkpt lat="28.439959476631604" lon="-11.107731246834474"><ele>42.0</ele><time>2026-04-29T08:07:47Z</time></trkpt><trkpt lat="28.43991622393892" lon="-11.10767547017458"><ele>42.0</ele><time>2026-04-29T08:07:48Z</time></trkpt><trkpt lat="28.439873193034515" lon="-11.107619979526733"><ele>42.0</ele><time>2026-04-29T08:07:49Z</time></trkpt><trkpt lat="28.439823478077983" lon="-11.107555869301521"><ele>42.0</ele><time>2026-04-29T08:07:50Z</time></trkpt><trkpt lat="28.43977724812022" lon="-11.10749625260805"><ele>42.0</ele><time>2026-04-29T08:07:51Z</time></trkpt><trkpt lat="28.439733479603657" lon="-11.107442755237058"><ele>42.0</ele><time>2026-04-29T08:07:52Z</time></trkpt><trkpt lat="28.439687557496484" lon="-11.107384613529685"><ele>42.0</ele><time>2026-04-29T08:07:53Z</time></trkpt><trkpt lat="28.439641207049046" lon="-11.107325242295316"><ele>42.0</ele><time>2026-04-29T08:07:54Z</time></trkpt><trkpt lat="28.439595698017744" lon="-11.107268078360569"><ele>42.400000000000006</ele><time>2026-04-29T08:07:55Z</time></trkpt><trkpt lat="28.439514767822423" lon="-11.10716619192577"><ele>42.800000000000004</ele><time>2026-04-29T08:07:57Z</time></trkpt><trkpt lat="28.43944601232243" lon="-11.10707939834943"><ele>43.2</ele><time>2026-04-29T08:07:59Z</time></trkpt><trkpt lat="28.439389283367817" lon="-11.107007785984143"><ele>43.6</ele><time>2026-04-29T08:08:01Z</time></trkpt><trkpt lat="28.439338158292372" lon="-11.106935093287102"><ele>44.0</ele><time>2026-04-29T08:08:03Z</time></trkpt><trkpt lat="28.439294039324107" lon="-11.106876648259032"><ele>44.0</ele><time>2026-04-29T08:08:05Z</time></trkpt><trkpt lat="28.439244483406537" lon="-11.106811000848033"><ele>44.0</ele><time>2026-04-29T08:08:08Z</time></trkpt><trkpt lat="28.43920104506769" lon="-11.106752527007986"><ele>44.0</ele><time>2026-04-29T08:08:10Z</time></trkpt><trkpt lat="28.43915956398764" lon="-11.106696362722616"><ele>44.0</ele><time>2026-04-29T08:08:12Z</time></trkpt><trkpt lat="28.439231310862258" lon="-11.106532454701506"><ele>44.0</ele><time>2026-04-29T08:08:14Z</time></trkpt><trkpt lat="28.439319503240828" lon="-11.106424653669384"><ele>43.83333333333333</ele><time>2026-04-29T08:08:16Z</time></trkpt><trkpt lat="28.43941336151496" lon="-11.10633086529359"><ele>43.666666666666664</ele><time>2026-04-29T08:08:18Z</time></trkpt><trkpt lat="28.43945912994922" lon="-11.106275766754074"><ele>43.5</ele><time>2026-04-29T08:08:19Z</time></trkpt><trkpt lat="28.43950124234712" lon="-11.106211689322745"><ele>43.333333333333336</ele><time>2026-04-29T08:08:20Z</time></trkpt><trkpt lat="28.43953574372783" lon="-11.106139197804962"><ele>43.16666666666667</ele><time>2026-04-29T08:08:21Z</time></trkpt><trkpt lat="28.439560436620212" lon="-11.10606684414214"><ele>43.0</ele><time>2026-04-29T08:08:22Z</time></trkpt><trkpt lat="28.439571479733274" lon="-11.105989758003247"><ele>43.0</ele><time>2026-04-29T08:08:23Z</time></trkpt><trkpt lat="28.439569332060017" lon="-11.105910717184779"><ele>43.0</ele><time>2026-04-29T08:08:24Z</time></trkpt><trkpt lat="28.43950555599307" lon="-11.105827928491442"><ele>43.0</ele><time>2026-04-29T08:08:25Z</time></trkpt><trkpt lat="28.439489899121543" lon="-11.105741202191187"><ele>43.0</ele><time>2026-04-29T08:08:26Z</time></trkpt><trkpt lat="28.439475426317454" lon="-11.105655330227497"><ele>43.0</ele><time>2026-04-29T08:08:27Z</time></trkpt><trkpt lat="28.43946034361271" lon="-11.105566317198337"><ele>43.0</ele><time>2026-04-29T08:08:28Z</time></trkpt><trkpt lat="28.439445823812544" lon="-11.105482591578097"><ele>42.333333333333336</ele><time>2026-04-29T08:08:29Z</time></trkpt><trkpt lat="28.439432577553372" lon="-11.105403773137338"><ele>41.66666666666667</ele><time>2026-04-29T08:08:30Z</time></trkpt><trkpt lat="28.43942021407649" lon="-11.105330077153036"><ele>41.0</ele><time>2026-04-29T08:08:31Z</time></trkpt><trkpt lat="28.439405382845784" lon="-11.105250182045394"><ele>40.333333333333336</ele><time>2026-04-29T08:08:32Z</time></trkpt><trkpt lat="28.439386949889474" lon="-11.105159994335887"><ele>39.666666666666664</ele><time>2026-04-29T08:08:33Z</time></trkpt><trkpt lat="28.43936769304128" lon="-11.105065775543185"><ele>39.0</ele><time>2026-04-29T08:08:34Z</time></trkpt><trkpt lat="28.439348187899434" lon="-11.104970341934271"><ele>39.166666666666664</ele><time>2026-04-29T08:08:35Z</time></trkpt><trkpt lat="28.439329495017773" lon="-11.10487888247653"><ele>39.333333333333336</ele><time>2026-04-29T08:08:36Z</time></trkpt><trkpt lat="28.43931010369312" lon="-11.104784005719424"><ele>39.5</ele><time>2026-04-29T08:08:37Z</time></trkpt><trkpt lat="28.439291377680355" lon="-11.104692384153454"><ele>39.66666666666667</ele><time>2026-04-29T08:08:38Z</time></trkpt><trkpt lat="28.439273742388526" lon="-11.104606099221195"><ele>39.833333333333336</ele><time>2026-04-29T08:08:39Z</time></trkpt><trkpt lat="28.439255485933543" lon="-11.104516775091964"><ele>40.0</ele><time>2026-04-29T08:08:40Z</time></trkpt><trkpt lat="28.439238411002833" lon="-11.10443275471131"><ele>40.0</ele><time>2026-04-29T08:08:41Z</time></trkpt><trkpt lat="28.43922246978773" lon="-11.104354306339937"><ele>40.0</ele><time>2026-04-29T08:08:42Z</time></trkpt><trkpt lat="28.43919722028319" lon="-11.104232343669716"><ele>40.0</ele><time>2026-04-29T08:08:44Z</time></trkpt><trkpt lat="28.439168454797148" lon="-11.10409977229481"><ele>40.0</ele><time>2026-04-29T08:08:46Z</time></trkpt><trkpt lat="28.43915146535645" lon="-11.104021472843293"><ele>40.0</ele><time>2026-04-29T08:08:47Z</time></trkpt><trkpt lat="28.43913343382499" lon="-11.10393459113686"><ele>40.5</ele><time>2026-04-29T08:08:48Z</time></trkpt><trkpt lat="28.439116300516936" lon="-11.10385622919567"><ele>41.0</ele><time>2026-04-29T08:08:49Z</time></trkpt><trkpt lat="28.43909505226728" lon="-11.103772528873694"><ele>41.5</ele><time>2026-04-29T08:08:50Z</time></trkpt><trkpt lat="28.439067143078415" lon="-11.103671827338957"><ele>42.0</ele><time>2026-04-29T08:08:51Z</time></trkpt><trkpt lat="28.439038272262817" lon="-11.103565588981864"><ele>42.5</ele><time>2026-04-29T08:08:52Z</time></trkpt><trkpt lat="28.439012877394156" lon="-11.103483811883937"><ele>43.0</ele><time>2026-04-29T08:08:53Z</time></trkpt><trkpt lat="28.43898982416231" lon="-11.103409575483106"><ele>43.0</ele><time>2026-04-29T08:08:54Z</time></trkpt><trkpt lat="28.43896465439103" lon="-11.10333229828015"><ele>43.0</ele><time>2026-04-29T08:08:55Z</time></trkpt><trkpt lat="28.438941630111803" lon="-11.10326384771713"><ele>43.0</ele><time>2026-04-29T08:08:56Z</time></trkpt><trkpt lat="28.4388999906179" lon="-11.103143772467828"><ele>43.0</ele><time>2026-04-29T08:08:58Z</time></trkpt><trkpt lat="28.438875029256717" lon="-11.10307334151062"><ele>43.0</ele><time>2026-04-29T08:08:59Z</time></trkpt><trkpt lat="28.438850471976306" lon="-11.10300405068056"><ele>43.0</ele><time>2026-04-29T08:09:00Z</time></trkpt><trkpt lat="28.438810804346943" lon="-11.102892124482233"><ele>43.66666666666667</ele><time>2026-04-29T08:09:02Z</time></trkpt><trkpt lat="28.438776660240766" lon="-11.102795782716633"><ele>44.333333333333336</ele><time>2026-04-29T08:09:05Z</time></trkpt><trkpt lat="28.438750468498966" lon="-11.102721879250087"><ele>45.0</ele><time>2026-04-29T08:09:07Z</time></trkpt><trkpt lat="28.43871849476139" lon="-11.102629911450302"><ele>45.666666666666664</ele><time>2026-04-29T08:09:09Z</time></trkpt><trkpt lat="28.438688689695518" lon="-11.102545169526026"><ele>46.33333333333333</ele><time>2026-04-29T08:09:12Z</time></trkpt><trkpt lat="28.438657565861455" lon="-11.102456678075198"><ele>47.0</ele><time>2026-04-29T08:09:15Z</time></trkpt><trkpt lat="28.438642150130242" lon="-11.102376358093263"><ele>47.75</ele><time>2026-04-29T08:09:19Z</time></trkpt><trkpt lat="28.438564043788634" lon="-11.102207791539081"><ele>48.5</ele><time>2026-04-29T08:17:14Z</time></trkpt><trkpt lat="28.43853720159787" lon="-11.102138671588508"><ele>49.25</ele><time>2026-04-29T08:29:28Z</time></trkpt><trkpt lat="28.43850145968041" lon="-11.10204819787267"><ele>50.0</ele><time>2026-04-29T08:29:31Z</time></trkpt><trkpt lat="28.438443827115666" lon="-11.101900445073294"><ele>50.0</ele><time>2026-04-29T08:29:33Z</time></trkpt><trkpt lat="28.438405704168623" lon="-11.101802236652144"><ele>50.0</ele><time>2026-04-29T08:29:34Z</time></trkpt><trkpt lat="28.438360830420855" lon="-11.101686636524281"><ele>50.0</ele><time>2026-04-29T08:29:35Z</time></trkpt><trkpt lat="28.438317730077966" lon="-11.10155978698493"><ele>50.0</ele><time>2026-04-29T08:29:36Z</time></trkpt><trkpt lat="28.438277968290482" lon="-11.101448980005493"><ele>50.0</ele><time>2026-04-29T08:29:37Z</time></trkpt><trkpt lat="28.4382380612341" lon="-11.10133776735811"><ele>49.8</ele><time>2026-04-29T08:29:38Z</time></trkpt><trkpt lat="28.438196409786983" lon="-11.10122181442374"><ele>49.6</ele><time>2026-04-29T08:29:39Z</time></trkpt><trkpt lat="28.438154428275432" lon="-11.101104894487742"><ele>49.400000000000006</ele><time>2026-04-29T08:29:40Z</time></trkpt><trkpt lat="28.438114666023033" lon="-11.10099339236038"><ele>49.2</ele><time>2026-04-29T08:29:41Z</time></trkpt><trkpt lat="28.43807410782365" lon="-11.10087998141892"><ele>49.0</ele><time>2026-04-29T08:29:42Z</time></trkpt><trkpt lat="28.438033564226053" lon="-11.100770529512811"><ele>48.800000000000004</ele><time>2026-04-29T08:29:43Z</time></trkpt><trkpt lat="28.437995844837264" lon="-11.100668455596248"><ele>48.6</ele><time>2026-04-29T08:29:44Z</time></trkpt><trkpt lat="28.43795563422374" lon="-11.100559639509157"><ele>48.4</ele><time>2026-04-29T08:29:45Z</time></trkpt><trkpt lat="28.437915859346973" lon="-11.100440648465028"><ele>48.2</ele><time>2026-04-29T08:29:46Z</time></trkpt><trkpt lat="28.437874892416936" lon="-11.100321458322535"><ele>48.0</ele><time>2026-04-29T08:29:47Z</time></trkpt><trkpt lat="28.43783409407439" lon="-11.100202758647809"><ele>48.0</ele><time>2026-04-29T08:29:48Z</time></trkpt><trkpt lat="28.437793769149053" lon="-11.100083335433657"><ele>48.0</ele><time>2026-04-29T08:29:49Z</time></trkpt><trkpt lat="28.437757178704036" lon="-11.09997500130182"><ele>48.0</ele><time>2026-04-29T08:29:50Z</time></trkpt><trkpt lat="28.437725469195257" lon="-11.099881118206493"><ele>48.0</ele><time>2026-04-29T08:29:51Z</time></trkpt><trkpt lat="28.43769851006712" lon="-11.09980129938573"><ele>48.0</ele><time>2026-04-29T08:29:52Z</time></trkpt><trkpt lat="28.437660809764832" lon="-11.099692337561212"><ele>48.0</ele><time>2026-04-29T08:29:54Z</time></trkpt><trkpt lat="28.43762836089297" lon="-11.099598115690887"><ele>48.0</ele><time>2026-04-29T08:29:56Z</time></trkpt><trkpt lat="28.43759395181011" lon="-11.09949820192528"><ele>48.0</ele><time>2026-04-29T08:29:58Z</time></trkpt><trkpt lat="28.4375485583977" lon="-11.099366348298723"><ele>48.0</ele><time>2026-04-29T08:30:00Z</time></trkpt><trkpt lat="28.437503833929725" lon="-11.099236428348814"><ele>48.0</ele><time>2026-04-29T08:30:02Z</time></trkpt><trkpt lat="28.437478799275162" lon="-11.09916367893679"><ele>48.0</ele><time>2026-04-29T08:30:03Z</time></trkpt><trkpt lat="28.437453020637818" lon="-11.099088069126696"><ele>48.0</ele><time>2026-04-29T08:30:04Z</time></trkpt><trkpt lat="28.437424517135153" lon="-11.099004706306253"><ele>48.0</ele><time>2026-04-29T08:30:05Z</time></trkpt><trkpt lat="28.437392681234584" lon="-11.098911562143712"><ele>48.0</ele><time>2026-04-29T08:30:06Z</time></trkpt><trkpt lat="28.4373585290233" lon="-11.09881296951489"><ele>48.0</ele><time>2026-04-29T08:30:07Z</time></trkpt><trkpt lat="28.437324069048515" lon="-11.0987135432436"><ele>48.0</ele><time>2026-04-29T08:30:08Z</time></trkpt><trkpt lat="28.43728900431601" lon="-11.09861237478384"><ele>48.0</ele><time>2026-04-29T08:30:09Z</time></trkpt><trkpt lat="28.437254886510285" lon="-11.098511054541659"><ele>48.0</ele><time>2026-04-29T08:30:10Z</time></trkpt><trkpt lat="28.4372216653829" lon="-11.09841360242538"><ele>48.0</ele><time>2026-04-29T08:30:11Z</time></trkpt><trkpt lat="28.43718901066385" lon="-11.098317811875242"><ele>48.0</ele><time>2026-04-29T08:30:12Z</time></trkpt><trkpt lat="28.437154793484968" lon="-11.098215121669808"><ele>48.0</ele><time>2026-04-29T08:30:13Z</time></trkpt><trkpt lat="28.437119663966275" lon="-11.09810965031585"><ele>47.599999999999994</ele><time>2026-04-29T08:30:14Z</time></trkpt><trkpt lat="28.437083289840338" lon="-11.098000444863793"><ele>47.199999999999996</ele><time>2026-04-29T08:30:15Z</time></trkpt><trkpt lat="28.43704609140632" lon="-11.097883911635876"><ele>46.8</ele><time>2026-04-29T08:30:16Z</time></trkpt><trkpt lat="28.437016429413678" lon="-11.097771339318625"><ele>46.4</ele><time>2026-04-29T08:30:17Z</time></trkpt><trkpt lat="28.436987552213076" lon="-11.097657804362022"><ele>46.0</ele><time>2026-04-29T08:30:18Z</time></trkpt><trkpt lat="28.43696095522331" lon="-11.097543571999134"><ele>46.0</ele><time>2026-04-29T08:30:19Z</time></trkpt><trkpt lat="28.43693351604819" lon="-11.097425722475117"><ele>46.0</ele><time>2026-04-29T08:30:20Z</time></trkpt><trkpt lat="28.436904684470242" lon="-11.097302201316584"><ele>46.0</ele><time>2026-04-29T08:30:21Z</time></trkpt><trkpt lat="28.436875073771162" lon="-11.097175979414306"><ele>46.0</ele><time>2026-04-29T08:30:22Z</time></trkpt><trkpt lat="28.436844130448907" lon="-11.097044341758702"><ele>45.599999999999994</ele><time>2026-04-29T08:30:23Z</time></trkpt><trkpt lat="28.436815740672596" lon="-11.096912696060118"><ele>45.2</ele><time>2026-04-29T08:30:24Z</time></trkpt><trkpt lat="28.436788329701553" lon="-11.096785589053184"><ele>44.8</ele><time>2026-04-29T08:30:25Z</time></trkpt><trkpt lat="28.436761896690374" lon="-11.096662989887028"><ele>44.400000000000006</ele><time>2026-04-29T08:30:26Z</time></trkpt><trkpt lat="28.436737603023456" lon="-11.096550228723345"><ele>44.0</ele><time>2026-04-29T08:30:27Z</time></trkpt><trkpt lat="28.436715189162364" lon="-11.096446192900418"><ele>43.83333333333333</ele><time>2026-04-29T08:30:28Z</time></trkpt><trkpt lat="28.43669551712089" lon="-11.096355057962679"><ele>43.666666666666664</ele><time>2026-04-29T08:30:29Z</time></trkpt><trkpt lat="28.436679895617182" lon="-11.096278940192226"><ele>43.5</ele><time>2026-04-29T08:30:30Z</time></trkpt><trkpt lat="28.436658350304" lon="-11.096185792977415"><ele>43.333333333333336</ele><time>2026-04-29T08:30:32Z</time></trkpt><trkpt lat="28.436639105168464" lon="-11.09609886832653"><ele>43.16666666666667</ele><time>2026-04-29T08:30:34Z</time></trkpt><trkpt lat="28.436622383196536" lon="-11.09602334001004"><ele>43.0</ele><time>2026-04-29T08:30:35Z</time></trkpt><trkpt lat="28.43660341743872" lon="-11.09593963747141"><ele>43.0</ele><time>2026-04-29T08:30:36Z</time></trkpt><trkpt lat="28.436584425550926" lon="-11.095855890700047"><ele>43.0</ele><time>2026-04-29T08:30:37Z</time></trkpt><trkpt lat="28.43656481527716" lon="-11.09576941716888"><ele>43.0</ele><time>2026-04-29T08:30:38Z</time></trkpt><trkpt lat="28.43654256504201" lon="-11.095671302557196"><ele>43.0</ele><time>2026-04-29T08:30:39Z</time></trkpt><trkpt lat="28.436522599857014" lon="-11.095583263975247"><ele>43.0</ele><time>2026-04-29T08:30:40Z</time></trkpt><trkpt lat="28.436504120572415" lon="-11.095501777626215"><ele>43.0</ele><time>2026-04-29T08:30:41Z</time></trkpt><trkpt lat="28.43648615131141" lon="-11.0954225402725"><ele>42.66666666666667</ele><time>2026-04-29T08:30:42Z</time></trkpt><trkpt lat="28.43646710834515" lon="-11.09533856839412"><ele>42.333333333333336</ele><time>2026-04-29T08:30:43Z</time></trkpt><trkpt lat="28.4364457479873" lon="-11.095244377712843"><ele>42.0</ele><time>2026-04-29T08:30:44Z</time></trkpt><trkpt lat="28.43642426164879" lon="-11.09514963143916"><ele>41.666666666666664</ele><time>2026-04-29T08:30:45Z</time></trkpt><trkpt lat="28.43640180460332" lon="-11.095049299336857"><ele>41.33333333333333</ele><time>2026-04-29T08:30:46Z</time></trkpt><trkpt lat="28.4363799116341" lon="-11.094950953072408"><ele>41.0</ele><time>2026-04-29T08:30:47Z</time></trkpt><trkpt lat="28.43635811647524" lon="-11.094853046147218"><ele>40.4</ele><time>2026-04-29T08:30:48Z</time></trkpt><trkpt lat="28.43633577880392" lon="-11.094755627816385"><ele>39.8</ele><time>2026-04-29T08:30:49Z</time></trkpt><trkpt lat="28.43631187289197" lon="-11.09465207108697"><ele>39.199999999999996</ele><time>2026-04-29T08:30:50Z</time></trkpt><trkpt lat="28.43628625690643" lon="-11.094540751237428"><ele>38.599999999999994</ele><time>2026-04-29T08:30:51Z</time></trkpt><trkpt lat="28.436260550678732" lon="-11.094428997209313"><ele>38.0</ele><time>2026-04-29T08:30:52Z</time></trkpt><trkpt lat="28.436235081326387" lon="-11.094318272630437"><ele>39.0</ele><time>2026-04-29T08:30:53Z</time></trkpt><trkpt lat="28.436211440464675" lon="-11.09421549722081"><ele>40.0</ele><time>2026-04-29T08:30:54Z</time></trkpt><trkpt lat="28.43618854309349" lon="-11.094115954106085"><ele>41.0</ele><time>2026-04-29T08:30:55Z</time></trkpt><trkpt lat="28.436163938890015" lon="-11.094008990784967"><ele>42.0</ele><time>2026-04-29T08:30:56Z</time></trkpt><trkpt lat="28.436138352243" lon="-11.093897758121818"><ele>43.0</ele><time>2026-04-29T08:30:57Z</time></trkpt><trkpt lat="28.436112474462938" lon="-11.093779536973944"><ele>43.0</ele><time>2026-04-29T08:30:58Z</time></trkpt><trkpt lat="28.43608445448384" lon="-11.093655340318447"><ele>43.0</ele><time>2026-04-29T08:30:59Z</time></trkpt><trkpt lat="28.436054565634787" lon="-11.09352285999666"><ele>43.0</ele><time>2026-04-29T08:31:00Z</time></trkpt><trkpt lat="28.436022820487054" lon="-11.093383011597025"><ele>43.0</ele><time>2026-04-29T08:31:01Z</time></trkpt><trkpt lat="28.43598909412599" lon="-11.093234704970728"><ele>43.0</ele><time>2026-04-29T08:31:02Z</time></trkpt><trkpt lat="28.435955249816057" lon="-11.093085879666237"><ele>43.0</ele><time>2026-04-29T08:31:03Z</time></trkpt><trkpt lat="28.43592357115263" lon="-11.092946577507739"><ele>43.0</ele><time>2026-04-29T08:31:04Z</time></trkpt><trkpt lat="28.435893649157283" lon="-11.092814999714413"><ele>43.0</ele><time>2026-04-29T08:31:05Z</time></trkpt><trkpt lat="28.435863022299934" lon="-11.092684769638762"><ele>43.0</ele><time>2026-04-29T08:31:06Z</time></trkpt><trkpt lat="28.435832432903666" lon="-11.09255433878247"><ele>43.0</ele><time>2026-04-29T08:31:07Z</time></trkpt><trkpt lat="28.43580094587865" lon="-11.092420080469404"><ele>43.0</ele><time>2026-04-29T08:31:08Z</time></trkpt><trkpt lat="28.435769052850272" lon="-11.09228409020152"><ele>43.0</ele><time>2026-04-29T08:31:09Z</time></trkpt><trkpt lat="28.43573657373168" lon="-11.092147662229683"><ele>43.0</ele><time>2026-04-29T08:31:10Z</time></trkpt><trkpt lat="28.435706059568947" lon="-11.09201901052118"><ele>43.0</ele><time>2026-04-29T08:31:11Z</time></trkpt><trkpt lat="28.435677804436814" lon="-11.091899882722428"><ele>43.0</ele><time>2026-04-29T08:31:12Z</time></trkpt><trkpt lat="28.43565155223006" lon="-11.091777702501407"><ele>43.0</ele><time>2026-04-29T08:31:13Z</time></trkpt><trkpt lat="28.435624917196492" lon="-11.09165564705592"><ele>43.0</ele><time>2026-04-29T08:31:14Z</time></trkpt><trkpt lat="28.43559803197185" lon="-11.09153244508461"><ele>42.5</ele><time>2026-04-29T08:31:15Z</time></trkpt><trkpt lat="28.435572629877473" lon="-11.091416039613655"><ele>42.0</ele><time>2026-04-29T08:31:16Z</time></trkpt><trkpt lat="28.43554941451242" lon="-11.091308967291146"><ele>41.5</ele><time>2026-04-29T08:31:17Z</time></trkpt><trkpt lat="28.43552746768787" lon="-11.091207689614444"><ele>41.0</ele><time>2026-04-29T08:31:18Z</time></trkpt><trkpt lat="28.43550947401222" lon="-11.091119262092366"><ele>40.5</ele><time>2026-04-29T08:31:19Z</time></trkpt><trkpt lat="28.43549260231514" lon="-11.091036260116056"><ele>40.0</ele><time>2026-04-29T08:31:20Z</time></trkpt><trkpt lat="28.435492027211403" lon="-11.090953022464037"><ele>40.0</ele><time>2026-04-29T08:31:21Z</time></trkpt><trkpt lat="28.435475368025656" lon="-11.09086783822828"><ele>40.0</ele><time>2026-04-29T08:31:22Z</time></trkpt><trkpt lat="28.435454297848946" lon="-11.090774964317013"><ele>40.0</ele><time>2026-04-29T08:31:23Z</time></trkpt><trkpt lat="28.43543241443529" lon="-11.090676206461714"><ele>40.0</ele><time>2026-04-29T08:31:24Z</time></trkpt><trkpt lat="28.435406913753273" lon="-11.090571828331205"><ele>40.0</ele><time>2026-04-29T08:31:25Z</time></trkpt><trkpt lat="28.435382038096556" lon="-11.090461682008208"><ele>40.0</ele><time>2026-04-29T08:31:26Z</time></trkpt><trkpt lat="28.4353427371275" lon="-11.090356901525496"><ele>40.0</ele><time>2026-04-29T08:31:27Z</time></trkpt><trkpt lat="28.435316735912867" lon="-11.090243183562695"><ele>40.0</ele><time>2026-04-29T08:31:28Z</time></trkpt><trkpt lat="28.435290628053185" lon="-11.090130047473982"><ele>40.0</ele><time>2026-04-29T08:31:29Z</time></trkpt><trkpt lat="28.435264798314886" lon="-11.090019322546214"><ele>40.0</ele><time>2026-04-29T08:31:30Z</time></trkpt><trkpt lat="28.435240629949657" lon="-11.089915951406953"><ele>40.0</ele><time>2026-04-29T08:31:31Z</time></trkpt><trkpt lat="28.43523112575783" lon="-11.089817364708466"><ele>39.66666666666667</ele><time>2026-04-29T08:31:32Z</time></trkpt><trkpt lat="28.435213540823966" lon="-11.089744034753885"><ele>39.333333333333336</ele><time>2026-04-29T08:31:33Z</time></trkpt><trkpt lat="28.435184978238755" lon="-11.089624579781061"><ele>39.0</ele><time>2026-04-29T08:31:35Z</time></trkpt><trkpt lat="28.43517200188592" lon="-11.089551479807843"><ele>38.666666666666664</ele><time>2026-04-29T08:31:36Z</time></trkpt><trkpt lat="28.435153705680296" lon="-11.089476983884621"><ele>38.33333333333333</ele><time>2026-04-29T08:31:37Z</time></trkpt><trkpt lat="28.43513768131243" lon="-11.089392830123622"><ele>38.0</ele><time>2026-04-29T08:31:38Z</time></trkpt><trkpt lat="28.435121504500945" lon="-11.08931132689025"><ele>38.0</ele><time>2026-04-29T08:31:39Z</time></trkpt><trkpt lat="28.4350855871088" lon="-11.089226485540623"><ele>38.0</ele><time>2026-04-29T08:31:40Z</time></trkpt><trkpt lat="28.435064988965202" lon="-11.089133131746252"><ele>38.0</ele><time>2026-04-29T08:31:41Z</time></trkpt><trkpt lat="28.43504350269306" lon="-11.089035752746769"><ele>38.0</ele><time>2026-04-29T08:31:42Z</time></trkpt><trkpt lat="28.435021774471085" lon="-11.08893697908149"><ele>38.0</ele><time>2026-04-29T08:31:43Z</time></trkpt><trkpt lat="28.43499903150324" lon="-11.088836262948199"><ele>38.0</ele><time>2026-04-29T08:31:44Z</time></trkpt><trkpt lat="28.434974623040453" lon="-11.088727711156677"><ele>38.199999999999996</ele><time>2026-04-29T08:31:45Z</time></trkpt><trkpt lat="28.43494914595784" lon="-11.088614406929056"><ele>38.4</ele><time>2026-04-29T08:31:46Z</time></trkpt><trkpt lat="28.4349232540987" lon="-11.088498190941234"><ele>38.599999999999994</ele><time>2026-04-29T08:31:47Z</time></trkpt><trkpt lat="28.434910937328677" lon="-11.088377524030367"><ele>38.8</ele><time>2026-04-29T08:31:48Z</time></trkpt><trkpt lat="28.43487976999375" lon="-11.088259019057729"><ele>39.0</ele><time>2026-04-29T08:31:49Z</time></trkpt><trkpt lat="28.434853655207732" lon="-11.088138566869208"><ele>38.4</ele><time>2026-04-29T08:31:50Z</time></trkpt><trkpt lat="28.434826929014864" lon="-11.088016250685007"><ele>37.8</ele><time>2026-04-29T08:31:51Z</time></trkpt><trkpt lat="28.434799034100195" lon="-11.087897032722617"><ele>37.2</ele><time>2026-04-29T08:31:52Z</time></trkpt><trkpt lat="28.434769567725805" lon="-11.087774928016874"><ele>36.6</ele><time>2026-04-29T08:31:53Z</time></trkpt><trkpt lat="28.434739290116234" lon="-11.087651310705112"><ele>36.0</ele><time>2026-04-29T08:31:54Z</time></trkpt><trkpt lat="28.434713026208495" lon="-11.087533903644914"><ele>36.25</ele><time>2026-04-29T08:31:55Z</time></trkpt><trkpt lat="28.434686611904652" lon="-11.087413454828162"><ele>36.5</ele><time>2026-04-29T08:31:56Z</time></trkpt><trkpt lat="28.43465832765886" lon="-11.087280582134843"><ele>36.75</ele><time>2026-04-29T08:31:57Z</time></trkpt><trkpt lat="28.434628929575748" lon="-11.087145775901256"><ele>37.0</ele><time>2026-04-29T08:31:58Z</time></trkpt><trkpt lat="28.43460133335022" lon="-11.087015794097676"><ele>37.0</ele><time>2026-04-29T08:31:59Z</time></trkpt><trkpt lat="28.43457122415537" lon="-11.086881431090896"><ele>37.0</ele><time>2026-04-29T08:32:00Z</time></trkpt><trkpt lat="28.434539074710678" lon="-11.08674267337849"><ele>37.0</ele><time>2026-04-29T08:32:01Z</time></trkpt><trkpt lat="28.43450460948662" lon="-11.086602628649722"><ele>37.0</ele><time>2026-04-29T08:32:02Z</time></trkpt><trkpt lat="28.434472879713375" lon="-11.086466566191065"><ele>38.0</ele><time>2026-04-29T08:32:03Z</time></trkpt><trkpt lat="28.43444687752028" lon="-11.086336654170195"><ele>39.0</ele><time>2026-04-29T08:32:04Z</time></trkpt><trkpt lat="28.43441353949097" lon="-11.086207859450257"><ele>40.0</ele><time>2026-04-29T08:32:05Z</time></trkpt><trkpt lat="28.434382896913554" lon="-11.086077505925322"><ele>41.0</ele><time>2026-04-29T08:32:06Z</time></trkpt><trkpt lat="28.43434848767466" lon="-11.085947905804089"><ele>41.0</ele><time>2026-04-29T08:32:07Z</time></trkpt><trkpt lat="28.434317024743265" lon="-11.085828753854276"><ele>41.0</ele><time>2026-04-29T08:32:08Z</time></trkpt><trkpt lat="28.43429096889823" lon="-11.085716699640734"><ele>41.0</ele><time>2026-04-29T08:32:09Z</time></trkpt><trkpt lat="28.43426960013867" lon="-11.08561347303664"><ele>41.0</ele><time>2026-04-29T08:32:10Z</time></trkpt><trkpt lat="28.434248312777882" lon="-11.08551385820304"><ele>41.0</ele><time>2026-04-29T08:32:11Z</time></trkpt><trkpt lat="28.434224131033762" lon="-11.085408831554759"><ele>40.33333333333333</ele><time>2026-04-29T08:32:12Z</time></trkpt><trkpt lat="28.43420117511495" lon="-11.085301047699206"><ele>39.666666666666664</ele><time>2026-04-29T08:32:13Z</time></trkpt><trkpt lat="28.434180222050767" lon="-11.085204897862317"><ele>39.0</ele><time>2026-04-29T08:32:14Z</time></trkpt><trkpt lat="28.434158033486895" lon="-11.085118479214875"><ele>38.333333333333336</ele><time>2026-04-29T08:32:15Z</time></trkpt><trkpt lat="28.43413683898497" lon="-11.085034173182148"><ele>37.66666666666667</ele><time>2026-04-29T08:32:16Z</time></trkpt><trkpt lat="28.434110436579815" lon="-11.084928516782105"><ele>37.0</ele><time>2026-04-29T08:32:18Z</time></trkpt><trkpt lat="28.434060958827367" lon="-11.084846455364552"><ele>37.0</ele><time>2026-04-29T08:32:21Z</time></trkpt><trkpt lat="28.433995621502255" lon="-11.084792197122974"><ele>37.0</ele><time>2026-04-29T08:32:23Z</time></trkpt><trkpt lat="28.433877173338793" lon="-11.08483135040568"><ele>37.0</ele><time>2026-04-29T08:32:24Z</time></trkpt><trkpt lat="28.433795045584755" lon="-11.084785592764112"><ele>37.0</ele><time>2026-04-29T08:32:25Z</time></trkpt><trkpt lat="28.4337260667506" lon="-11.084694598583537"><ele>37.0</ele><time>2026-04-29T08:32:26Z</time></trkpt><trkpt lat="28.433741517027876" lon="-11.084559759735331"><ele>37.5</ele><time>2026-04-29T08:32:27Z</time></trkpt><trkpt lat="28.433720811875865" lon="-11.084473111631745"><ele>38.0</ele><time>2026-04-29T08:32:28Z</time></trkpt><trkpt lat="28.433543420527116" lon="-11.084417126819472"><ele>38.5</ele><time>2026-04-29T08:32:30Z</time></trkpt><trkpt lat="28.43352321566058" lon="-11.084306104088846"><ele>39.0</ele><time>2026-04-29T08:32:32Z</time></trkpt><trkpt lat="28.433586098509604" lon="-11.084216087194386"><ele>39.0</ele><time>2026-04-29T08:33:31Z</time></trkpt><trkpt lat="28.433641597333402" lon="-11.08416378748056"><ele>39.0</ele><time>2026-04-29T08:33:33Z</time></trkpt><trkpt lat="28.433719221095892" lon="-11.084131833344674"><ele>39.0</ele><time>2026-04-29T08:33:36Z</time></trkpt><trkpt lat="28.43375454928966" lon="-11.084260243248263"><ele>39.0</ele><time>2026-04-29T08:33:38Z</time></trkpt><trkpt lat="28.433781151802666" lon="-11.084159237121375"><ele>39.0</ele><time>2026-04-29T08:34:19Z</time></trkpt><trkpt lat="28.43373796294492" lon="-11.084104606635346"><ele>39.0</ele><time>2026-04-29T08:34:23Z</time></trkpt><trkpt lat="28.43353930935021" lon="-11.084296235584324"><ele>39.0</ele><time>2026-04-29T08:34:29Z</time></trkpt><trkpt lat="28.433597996026908" lon="-11.08425239608991"><ele>39.0</ele><time>2026-04-29T08:42:30Z</time></trkpt><trkpt lat="28.433636394764758" lon="-11.084188103029023"><ele>39.0</ele><time>2026-04-29T08:42:33Z</time></trkpt><trkpt lat="28.43368318931411" lon="-11.084118418532789"><ele>39.0</ele><time>2026-04-29T08:42:36Z</time></trkpt><trkpt lat="28.43370991503837" lon="-11.084044682320338"><ele>39.0</ele><time>2026-04-29T08:42:39Z</time></trkpt><trkpt lat="28.433789028675204" lon="-11.084024488269545"><ele>39.0</ele><time>2026-04-29T08:44:26Z</time></trkpt><trkpt lat="28.433899537472033" lon="-11.084060256922244"><ele>38.6</ele><time>2026-04-29T08:44:29Z</time></trkpt><trkpt lat="28.433975781817388" lon="-11.084172847453232"><ele>38.2</ele><time>2026-04-29T08:44:31Z</time></trkpt><trkpt lat="28.434001434759615" lon="-11.084240272252389"><ele>37.800000000000004</ele><time>2026-04-29T08:44:32Z</time></trkpt><trkpt lat="28.43402713651617" lon="-11.08433692268487"><ele>37.4</ele><time>2026-04-29T08:44:33Z</time></trkpt><trkpt lat="28.434054381889094" lon="-11.08444861235833"><ele>37.0</ele><time>2026-04-29T08:44:34Z</time></trkpt><trkpt lat="28.434077419137395" lon="-11.08456149897388"><ele>37.0</ele><time>2026-04-29T08:44:35Z</time></trkpt><trkpt lat="28.434100135729523" lon="-11.084659193915176"><ele>37.0</ele><time>2026-04-29T08:44:36Z</time></trkpt><trkpt lat="28.43411611553847" lon="-11.084742477424975"><ele>37.0</ele><time>2026-04-29T08:44:37Z</time></trkpt><trkpt lat="28.434131026345785" lon="-11.084818741761604"><ele>37.0</ele><time>2026-04-29T08:44:38Z</time></trkpt><trkpt lat="28.434148187501822" lon="-11.084900220059101"><ele>37.0</ele><time>2026-04-29T08:44:39Z</time></trkpt><trkpt lat="28.43416880282718" lon="-11.084995906423291"><ele>37.0</ele><time>2026-04-29T08:44:40Z</time></trkpt><trkpt lat="28.434190579607442" lon="-11.08509750101341"><ele>37.0</ele><time>2026-04-29T08:44:41Z</time></trkpt><trkpt lat="28.434212223135816" lon="-11.08519614893273"><ele>37.0</ele><time>2026-04-29T08:44:42Z</time></trkpt><trkpt lat="28.4342349424614" lon="-11.085279703486611"><ele>37.0</ele><time>2026-04-29T08:44:43Z</time></trkpt><trkpt lat="28.43425432493921" lon="-11.08535658587777"><ele>37.0</ele><time>2026-04-29T08:44:44Z</time></trkpt><trkpt lat="28.434280052239387" lon="-11.085452063439742"><ele>37.0</ele><time>2026-04-29T08:44:45Z</time></trkpt><trkpt lat="28.43431267769299" lon="-11.085550774119124"><ele>37.0</ele><time>2026-04-29T08:44:46Z</time></trkpt><trkpt lat="28.43433918371753" lon="-11.08564050263433"><ele>37.0</ele><time>2026-04-29T08:44:47Z</time></trkpt><trkpt lat="28.434361611512323" lon="-11.085728044911885"><ele>37.0</ele><time>2026-04-29T08:44:48Z</time></trkpt><trkpt lat="28.434379920277006" lon="-11.085811288958359"><ele>37.0</ele><time>2026-04-29T08:44:49Z</time></trkpt><trkpt lat="28.43439783309127" lon="-11.08590084703018"><ele>37.0</ele><time>2026-04-29T08:44:50Z</time></trkpt><trkpt lat="28.434416969813185" lon="-11.085995903984777"><ele>37.0</ele><time>2026-04-29T08:44:51Z</time></trkpt><trkpt lat="28.434436244524203" lon="-11.086088980352745"><ele>37.0</ele><time>2026-04-29T08:44:52Z</time></trkpt><trkpt lat="28.434458311981682" lon="-11.086194475629632"><ele>37.0</ele><time>2026-04-29T08:44:53Z</time></trkpt><trkpt lat="28.434479784780894" lon="-11.086303161740602"><ele>37.0</ele><time>2026-04-29T08:44:54Z</time></trkpt><trkpt lat="28.434502217869568" lon="-11.086412498644657"><ele>37.0</ele><time>2026-04-29T08:44:55Z</time></trkpt><trkpt lat="28.434530480938456" lon="-11.086527295643616"><ele>37.0</ele><time>2026-04-29T08:44:56Z</time></trkpt><trkpt lat="28.434567194278745" lon="-11.08664347317337"><ele>37.0</ele><time>2026-04-29T08:44:57Z</time></trkpt><trkpt lat="28.434603870493095" lon="-11.08676171237878"><ele>37.0</ele><time>2026-04-29T08:44:58Z</time></trkpt><trkpt lat="28.43463286941635" lon="-11.08688399184825"><ele>37.0</ele><time>2026-04-29T08:44:59Z</time></trkpt><trkpt lat="28.43465801051551" lon="-11.087009564672693"><ele>37.0</ele><time>2026-04-29T08:45:00Z</time></trkpt><trkpt lat="28.434684307116413" lon="-11.087128427588413"><ele>37.0</ele><time>2026-04-29T08:45:01Z</time></trkpt><trkpt lat="28.434708792601356" lon="-11.087245410099577"><ele>37.0</ele><time>2026-04-29T08:45:02Z</time></trkpt><trkpt lat="28.434731493972663" lon="-11.087360539110088"><ele>36.800000000000004</ele><time>2026-04-29T08:45:03Z</time></trkpt><trkpt lat="28.434753927037473" lon="-11.0874655278903"><ele>36.6</ele><time>2026-04-29T08:45:04Z</time></trkpt><trkpt lat="28.434775089312733" lon="-11.08756272209948"><ele>36.400000000000006</ele><time>2026-04-29T08:45:05Z</time></trkpt><trkpt lat="28.434794707313937" lon="-11.087656771071016"><ele>36.2</ele><time>2026-04-29T08:45:06Z</time></trkpt><trkpt lat="28.434821090524192" lon="-11.087756772335887"><ele>36.0</ele><time>2026-04-29T08:45:07Z</time></trkpt><trkpt lat="28.434846826425225" lon="-11.08785878598243"><ele>36.0</ele><time>2026-04-29T08:45:08Z</time></trkpt><trkpt lat="28.434868361820826" lon="-11.087958706994664"><ele>36.0</ele><time>2026-04-29T08:45:09Z</time></trkpt><trkpt lat="28.434888437580955" lon="-11.088060974292475"><ele>36.0</ele><time>2026-04-29T08:45:10Z</time></trkpt><trkpt lat="28.434912741705553" lon="-11.08816522920067"><ele>36.0</ele><time>2026-04-29T08:45:11Z</time></trkpt><trkpt lat="28.4349362001912" lon="-11.088269999534251"><ele>36.0</ele><time>2026-04-29T08:45:12Z</time></trkpt><trkpt lat="28.434960873690745" lon="-11.088371410876233"><ele>36.6</ele><time>2026-04-29T08:45:13Z</time></trkpt><trkpt lat="28.43498790241008" lon="-11.088475294722839"><ele>37.2</ele><time>2026-04-29T08:45:14Z</time></trkpt><trkpt lat="28.43501108776392" lon="-11.088588442841308"><ele>37.8</ele><time>2026-04-29T08:45:15Z</time></trkpt><trkpt lat="28.435032013365863" lon="-11.088704360203247"><ele>38.4</ele><time>2026-04-29T08:45:16Z</time></trkpt><trkpt lat="28.435056470832087" lon="-11.088819981348612"><ele>39.0</ele><time>2026-04-29T08:45:17Z</time></trkpt><trkpt lat="28.435080902693407" lon="-11.088937955572616"><ele>39.0</ele><time>2026-04-29T08:45:18Z</time></trkpt><trkpt lat="28.43510781151401" lon="-11.089059849003315"><ele>39.0</ele><time>2026-04-29T08:45:19Z</time></trkpt><trkpt lat="28.43513636665434" lon="-11.08917777853658"><ele>39.0</ele><time>2026-04-29T08:45:20Z</time></trkpt><trkpt lat="28.43516575376624" lon="-11.0892854347979"><ele>39.0</ele><time>2026-04-29T08:45:21Z</time></trkpt><trkpt lat="28.43519152501804" lon="-11.089383620592042"><ele>39.0</ele><time>2026-04-29T08:45:22Z</time></trkpt><trkpt lat="28.43521125385384" lon="-11.089470454730046"><ele>38.833333333333336</ele><time>2026-04-29T08:45:23Z</time></trkpt><trkpt lat="28.435223036606274" lon="-11.089545131849178"><ele>38.666666666666664</ele><time>2026-04-29T08:45:24Z</time></trkpt><trkpt lat="28.4352428241449" lon="-11.089649447927835"><ele>38.5</ele><time>2026-04-29T08:45:26Z</time></trkpt><trkpt lat="28.435269230026613" lon="-11.089730198909784"><ele>38.33333333333333</ele><time>2026-04-29T08:45:28Z</time></trkpt><trkpt lat="28.435325593484794" lon="-11.089828377289772"><ele>38.166666666666664</ele><time>2026-04-29T08:45:30Z</time></trkpt><trkpt lat="28.435359225761093" lon="-11.089943273172995"><ele>38.0</ele><time>2026-04-29T08:45:32Z</time></trkpt><trkpt lat="28.435482457972036" lon="-11.089958759797579"><ele>38.33333333333333</ele><time>2026-04-29T08:45:33Z</time></trkpt><trkpt lat="28.4355490086248" lon="-11.089983238104951"><ele>38.666666666666664</ele><time>2026-04-29T08:45:34Z</time></trkpt><trkpt lat="28.435626506682084" lon="-11.089996013675464"><ele>39.0</ele><time>2026-04-29T08:45:35Z</time></trkpt><trkpt lat="28.435712072001007" lon="-11.089982385530552"><ele>39.333333333333336</ele><time>2026-04-29T08:45:36Z</time></trkpt><trkpt lat="28.43580139374118" lon="-11.089962416457512"><ele>39.66666666666667</ele><time>2026-04-29T08:45:37Z</time></trkpt><trkpt lat="28.435888290028096" lon="-11.08993998429019"><ele>40.0</ele><time>2026-04-29T08:45:38Z</time></trkpt><trkpt lat="28.43597914478705" lon="-11.089913739318193"><ele>40.0</ele><time>2026-04-29T08:45:39Z</time></trkpt><trkpt lat="28.436076192493722" lon="-11.089884788909664"><ele>40.0</ele><time>2026-04-29T08:45:40Z</time></trkpt><trkpt lat="28.436178516401434" lon="-11.089856458066675"><ele>40.0</ele><time>2026-04-29T08:45:41Z</time></trkpt><trkpt lat="28.436279269897348" lon="-11.089828467338611"><ele>40.0</ele><time>2026-04-29T08:45:42Z</time></trkpt><trkpt lat="28.436370831982305" lon="-11.089803529898349"><ele>40.0</ele><time>2026-04-29T08:45:43Z</time></trkpt><trkpt lat="28.43645486051907" lon="-11.089781639782467"><ele>39.833333333333336</ele><time>2026-04-29T08:45:44Z</time></trkpt><trkpt lat="28.436531213604027" lon="-11.089760445592603"><ele>39.66666666666667</ele><time>2026-04-29T08:45:45Z</time></trkpt><trkpt lat="28.436604160775694" lon="-11.089735659403486"><ele>39.5</ele><time>2026-04-29T08:45:46Z</time></trkpt><trkpt lat="28.436678712092526" lon="-11.089714211448598"><ele>39.333333333333336</ele><time>2026-04-29T08:45:47Z</time></trkpt><trkpt lat="28.436750572475326" lon="-11.089698137220068"><ele>39.166666666666664</ele><time>2026-04-29T08:45:48Z</time></trkpt><trkpt lat="28.436825276363134" lon="-11.08968074811323"><ele>39.0</ele><time>2026-04-29T08:45:49Z</time></trkpt><trkpt lat="28.43689229714664" lon="-11.089658623997586"><ele>39.0</ele><time>2026-04-29T08:45:50Z</time></trkpt><trkpt lat="28.43696198678835" lon="-11.089634489200847"><ele>39.0</ele><time>2026-04-29T08:45:51Z</time></trkpt><trkpt lat="28.437030950222873" lon="-11.08961625333857"><ele>39.0</ele><time>2026-04-29T08:45:52Z</time></trkpt><trkpt lat="28.43714724010867" lon="-11.089590179696492"><ele>39.0</ele><time>2026-04-29T08:45:54Z</time></trkpt><trkpt lat="28.437272814783782" lon="-11.089562907202"><ele>39.0</ele><time>2026-04-29T08:45:56Z</time></trkpt><trkpt lat="28.43734024375155" lon="-11.089553083212802"><ele>38.666666666666664</ele><time>2026-04-29T08:45:57Z</time></trkpt><trkpt lat="28.437407288150744" lon="-11.089555261217564"><ele>38.333333333333336</ele><time>2026-04-29T08:45:58Z</time></trkpt><trkpt lat="28.43747954079181" lon="-11.08956166160663"><ele>38.0</ele><time>2026-04-29T08:45:59Z</time></trkpt><trkpt lat="28.43754614357561" lon="-11.089571658571948"><ele>37.66666666666667</ele><time>2026-04-29T08:46:00Z</time></trkpt><trkpt lat="28.43761197746545" lon="-11.089581093117667"><ele>37.333333333333336</ele><time>2026-04-29T08:46:01Z</time></trkpt><trkpt lat="28.437730856284915" lon="-11.089600072589779"><ele>37.0</ele><time>2026-04-29T08:46:03Z</time></trkpt><trkpt lat="28.437792713387655" lon="-11.089618784916786"><ele>37.0</ele><time>2026-04-29T08:46:04Z</time></trkpt><trkpt lat="28.437854762223818" lon="-11.089649442090458"><ele>37.0</ele><time>2026-04-29T08:46:05Z</time></trkpt><trkpt lat="28.437919886379486" lon="-11.089690429556857"><ele>37.0</ele><time>2026-04-29T08:46:06Z</time></trkpt><trkpt lat="28.4379856874579" lon="-11.089745102115133"><ele>37.0</ele><time>2026-04-29T08:46:07Z</time></trkpt><trkpt lat="28.438049213157548" lon="-11.089812314977019"><ele>37.0</ele><time>2026-04-29T08:46:08Z</time></trkpt><trkpt lat="28.438103384770596" lon="-11.089885019618242"><ele>37.0</ele><time>2026-04-29T08:46:09Z</time></trkpt><trkpt lat="28.438148819377354" lon="-11.089951824400998"><ele>37.333333333333336</ele><time>2026-04-29T08:46:10Z</time></trkpt><trkpt lat="28.438184400382543" lon="-11.090016910464563"><ele>37.66666666666667</ele><time>2026-04-29T08:46:11Z</time></trkpt><trkpt lat="28.438218849565295" lon="-11.090086744750396"><ele>38.0</ele><time>2026-04-29T08:46:12Z</time></trkpt><trkpt lat="28.43825399041759" lon="-11.09015331753263"><ele>38.333333333333336</ele><time>2026-04-29T08:46:13Z</time></trkpt><trkpt lat="28.438314668395662" lon="-11.090255931289416"><ele>38.666666666666664</ele><time>2026-04-29T08:46:15Z</time></trkpt><trkpt lat="28.438350929233515" lon="-11.090342143637885"><ele>39.0</ele><time>2026-04-29T08:46:17Z</time></trkpt><trkpt lat="28.43837722375441" lon="-11.090409736520044"><ele>39.0</ele><time>2026-04-29T08:46:19Z</time></trkpt><trkpt lat="28.438413769889817" lon="-11.090497941583058"><ele>39.0</ele><time>2026-04-29T08:46:22Z</time></trkpt><trkpt lat="28.438446117085142" lon="-11.090561046330649"><ele>39.0</ele><time>2026-04-29T08:46:24Z</time></trkpt><trkpt lat="28.438474623847174" lon="-11.090625538864815"><ele>39.0</ele><time>2026-04-29T08:46:26Z</time></trkpt><trkpt lat="28.438506066438535" lon="-11.090707176260793"><ele>39.0</ele><time>2026-04-29T08:46:29Z</time></trkpt><trkpt lat="28.438536255521885" lon="-11.090787677552257"><ele>39.0</ele><time>2026-04-29T08:46:33Z</time></trkpt><trkpt lat="28.43857816428144" lon="-11.090876104613196"><ele>39.333333333333336</ele><time>2026-04-29T08:46:37Z</time></trkpt><trkpt lat="28.438610852009745" lon="-11.090947431471239"><ele>39.666666666666664</ele><time>2026-04-29T08:46:39Z</time></trkpt><trkpt lat="28.438649966770733" lon="-11.091051219491565"><ele>40.0</ele><time>2026-04-29T08:46:41Z</time></trkpt><trkpt lat="28.438695185093987" lon="-11.091165341310498"><ele>40.33333333333333</ele><time>2026-04-29T08:46:43Z</time></trkpt><trkpt lat="28.43871844876866" lon="-11.091236567311435"><ele>40.666666666666664</ele><time>2026-04-29T08:46:44Z</time></trkpt><trkpt lat="28.438744081109313" lon="-11.09131951169333"><ele>41.0</ele><time>2026-04-29T08:46:45Z</time></trkpt><trkpt lat="28.43877412060079" lon="-11.091396092042798"><ele>41.0</ele><time>2026-04-29T08:46:46Z</time></trkpt><trkpt lat="28.438811129019193" lon="-11.091473011430306"><ele>41.0</ele><time>2026-04-29T08:46:47Z</time></trkpt><trkpt lat="28.43884556756789" lon="-11.09153875204819"><ele>41.0</ele><time>2026-04-29T08:46:48Z</time></trkpt><trkpt lat="28.438904786608592" lon="-11.091668370979368"><ele>41.0</ele><time>2026-04-29T08:46:50Z</time></trkpt><trkpt lat="28.438934322439366" lon="-11.091740753807004"><ele>41.0</ele><time>2026-04-29T08:46:51Z</time></trkpt><trkpt lat="28.4389595729901" lon="-11.091812708615514"><ele>41.0</ele><time>2026-04-29T08:46:52Z</time></trkpt><trkpt lat="28.439006797356605" lon="-11.091940417312578"><ele>40.99999999999999</ele><time>2026-04-29T08:46:54Z</time></trkpt><trkpt lat="28.439049785288844" lon="-11.092053336210713"><ele>41.0</ele><time>2026-04-29T08:46:56Z</time></trkpt><trkpt lat="28.439073746746534" lon="-11.092121608994006"><ele>41.0</ele><time>2026-04-29T08:46:57Z</time></trkpt><trkpt lat="28.439103293066683" lon="-11.092190522698244"><ele>41.0</ele><time>2026-04-29T08:46:58Z</time></trkpt><trkpt lat="28.43913164360767" lon="-11.09226015738293"><ele>41.0</ele><time>2026-04-29T08:46:59Z</time></trkpt><trkpt lat="28.439158172972764" lon="-11.092329667195902"><ele>40.99999999999999</ele><time>2026-04-29T08:47:00Z</time></trkpt><trkpt lat="28.439185500292837" lon="-11.092399473601471"><ele>41.0</ele><time>2026-04-29T08:47:01Z</time></trkpt><trkpt lat="28.439212664532423" lon="-11.092470029725874"><ele>40.83333333333333</ele><time>2026-04-29T08:47:02Z</time></trkpt><trkpt lat="28.43923870488894" lon="-11.09253909817214"><ele>40.666666666666664</ele><time>2026-04-29T08:47:03Z</time></trkpt><trkpt lat="28.43929272276521" lon="-11.092639625245733"><ele>40.5</ele><time>2026-04-29T08:47:05Z</time></trkpt><trkpt lat="28.439335830290908" lon="-11.092696298509093"><ele>40.333333333333336</ele><time>2026-04-29T08:47:07Z</time></trkpt><trkpt lat="28.439358567129428" lon="-11.09278116182049"><ele>40.16666666666667</ele><time>2026-04-29T08:49:33Z</time></trkpt><trkpt lat="28.43941524627477" lon="-11.092813666920264"><ele>40.0</ele><time>2026-04-29T08:55:18Z</time></trkpt><trkpt lat="28.43955022011243" lon="-11.093035005085182"><ele>40.0</ele><time>2026-04-29T08:55:23Z</time></trkpt><trkpt lat="28.439505547173344" lon="-11.092900743453535"><ele>40.0</ele><time>2026-04-29T08:55:43.59Z</time></trkpt><trkpt lat="28.439366097153343" lon="-11.092800764158005"><ele>40.0</ele><time>2026-04-29T08:55:47Z</time></trkpt><trkpt lat="28.43948406277473" lon="-11.092812411059494"><ele>40.0</ele><time>2026-04-29T08:56:06.001Z</time></trkpt><trkpt lat="28.439442900467665" lon="-11.092756567193334"><ele>40.0</ele><time>2026-04-29T08:57:42.001Z</time></trkpt><trkpt lat="28.439380151364205" lon="-11.092779796905834"><ele>40.0</ele><time>2026-04-29T09:01:59.001Z</time></trkpt><trkpt lat="28.43940244414128" lon="-11.09285097174606"><ele>40.0</ele><time>2026-04-29T09:02:02.001Z</time></trkpt><trkpt lat="28.439438347711747" lon="-11.092959492210746"><ele>40.0</ele><time>2026-04-29T09:02:04.001Z</time></trkpt><trkpt lat="28.439482936572873" lon="-11.0930641872921"><ele>40.0</ele><time>2026-04-29T09:02:06.001Z</time></trkpt><trkpt lat="28.439523864779236" lon="-11.093152594997557"><ele>40.0</ele><time>2026-04-29T09:02:09.001Z</time></trkpt><trkpt lat="28.43955644323161" lon="-11.093254450947152"><ele>40.0</ele><time>2026-04-29T09:02:11.001Z</time></trkpt><trkpt lat="28.439594168461106" lon="-11.093348882538594"><ele>40.0</ele><time>2026-04-29T09:02:13.001Z</time></trkpt><trkpt lat="28.439630633863594" lon="-11.093447340417072"><ele>40.0</ele><time>2026-04-29T09:02:15.001Z</time></trkpt><trkpt lat="28.43965987392272" lon="-11.093514561260207"><ele>40.0</ele><time>2026-04-29T09:02:17.001Z</time></trkpt><trkpt lat="28.43970963306992" lon="-11.093621887554983"><ele>40.0</ele><time>2026-04-29T09:02:19.001Z</time></trkpt><trkpt lat="28.43976187862654" lon="-11.093713835295222"><ele>40.0</ele><time>2026-04-29T09:02:21.001Z</time></trkpt><trkpt lat="28.439807432498576" lon="-11.093805457657261"><ele>40.0</ele><time>2026-04-29T09:02:24.001Z</time></trkpt><trkpt lat="28.439839267501004" lon="-11.093875415686231"><ele>40.0</ele><time>2026-04-29T09:02:26.001Z</time></trkpt><trkpt lat="28.439878187156182" lon="-11.09395661782599"><ele>40.0</ele><time>2026-04-29T09:02:28.001Z</time></trkpt><trkpt lat="28.439909511634873" lon="-11.09403042258872"><ele>40.0</ele><time>2026-04-29T09:02:31.001Z</time></trkpt><trkpt lat="28.439938736885875" lon="-11.094099698818649"><ele>40.0</ele><time>2026-04-29T09:02:40.001Z</time></trkpt><trkpt lat="28.43997540788546" lon="-11.094169810432684"><ele>40.16666666666667</ele><time>2026-04-29T09:02:45.001Z</time></trkpt><trkpt lat="28.439969383429457" lon="-11.094259199170414"><ele>40.333333333333336</ele><time>2026-04-29T09:04:40.001Z</time></trkpt><trkpt lat="28.43998918044318" lon="-11.094340768757165"><ele>40.5</ele><time>2026-04-29T09:04:42.001Z</time></trkpt><trkpt lat="28.44002359756845" lon="-11.09445949000149"><ele>40.666666666666664</ele><time>2026-04-29T09:04:44.001Z</time></trkpt><trkpt lat="28.440067120746598" lon="-11.094535198902602"><ele>40.83333333333333</ele><time>2026-04-29T09:04:46.001Z</time></trkpt><trkpt lat="28.440103505988905" lon="-11.094609538244445"><ele>41.0</ele><time>2026-04-29T09:04:48.001Z</time></trkpt><trkpt lat="28.440145487545845" lon="-11.094717304288931"><ele>41.0</ele><time>2026-04-29T09:04:51.001Z</time></trkpt><trkpt lat="28.44019732115851" lon="-11.094802747633114"><ele>41.0</ele><time>2026-04-29T09:05:10.001Z</time></trkpt><trkpt lat="28.440220111268" lon="-11.094874368590785"><ele>41.0</ele><time>2026-04-29T09:05:11.001Z</time></trkpt><trkpt lat="28.440246487665384" lon="-11.094945446202306"><ele>41.0</ele><time>2026-04-29T09:05:12.001Z</time></trkpt><trkpt lat="28.44027017792139" lon="-11.095030643945613"><ele>41.0</ele><time>2026-04-29T09:05:13.001Z</time></trkpt><trkpt lat="28.440304254863268" lon="-11.09511464852316"><ele>41.0</ele><time>2026-04-29T09:05:14.001Z</time></trkpt><trkpt lat="28.440340594429912" lon="-11.095190365123354"><ele>40.83333333333333</ele><time>2026-04-29T09:05:15.001Z</time></trkpt><trkpt lat="28.440374929786785" lon="-11.095272810625621"><ele>40.666666666666664</ele><time>2026-04-29T09:05:16.001Z</time></trkpt><trkpt lat="28.440408166938887" lon="-11.095355852980807"><ele>40.5</ele><time>2026-04-29T09:05:17.001Z</time></trkpt><trkpt lat="28.440436165804034" lon="-11.095445113908488"><ele>40.333333333333336</ele><time>2026-04-29T09:05:18.001Z</time></trkpt><trkpt lat="28.44046866076583" lon="-11.095524583098717"><ele>40.16666666666667</ele><time>2026-04-29T09:05:19.001Z</time></trkpt><trkpt lat="28.440499702670582" lon="-11.095606348282452"><ele>40.0</ele><time>2026-04-29T09:05:20.001Z</time></trkpt><trkpt lat="28.440540077774468" lon="-11.095692425610913"><ele>40.16666666666667</ele><time>2026-04-29T09:05:21.001Z</time></trkpt><trkpt lat="28.44058323881439" lon="-11.095782651593787"><ele>40.333333333333336</ele><time>2026-04-29T09:05:22.001Z</time></trkpt><trkpt lat="28.440624219551903" lon="-11.09587376018505"><ele>40.5</ele><time>2026-04-29T09:05:23.001Z</time></trkpt><trkpt lat="28.440657048129523" lon="-11.095961516907085"><ele>40.666666666666664</ele><time>2026-04-29T09:05:24.001Z</time></trkpt><trkpt lat="28.44069139224098" lon="-11.096044424455656"><ele>40.83333333333333</ele><time>2026-04-29T09:05:25.001Z</time></trkpt><trkpt lat="28.440724062819204" lon="-11.096132972689547"><ele>41.0</ele><time>2026-04-29T09:05:26.001Z</time></trkpt><trkpt lat="28.440761290841323" lon="-11.096230540528696"><ele>41.0</ele><time>2026-04-29T09:05:27.001Z</time></trkpt><trkpt lat="28.440796978244435" lon="-11.096332195737238"><ele>41.0</ele><time>2026-04-29T09:05:28.001Z</time></trkpt><trkpt lat="28.440837199841138" lon="-11.096427617043073"><ele>41.0</ele><time>2026-04-29T09:05:29.001Z</time></trkpt><trkpt lat="28.440873473054292" lon="-11.09650898035891"><ele>41.0</ele><time>2026-04-29T09:05:30.001Z</time></trkpt><trkpt lat="28.4409021577403" lon="-11.096580255377182"><ele>41.0</ele><time>2026-04-29T09:05:31.001Z</time></trkpt><trkpt lat="28.440928103200378" lon="-11.096655966185008"><ele>41.0</ele><time>2026-04-29T09:05:32.001Z</time></trkpt><trkpt lat="28.440959995089138" lon="-11.096739394932248"><ele>41.199999999999996</ele><time>2026-04-29T09:05:33.001Z</time></trkpt><trkpt lat="28.440998362256025" lon="-11.096831230342307"><ele>41.4</ele><time>2026-04-29T09:05:34.001Z</time></trkpt><trkpt lat="28.441043619058114" lon="-11.09693611805231"><ele>41.6</ele><time>2026-04-29T09:05:35.001Z</time></trkpt><trkpt lat="28.441086940370287" lon="-11.09703996811114"><ele>41.8</ele><time>2026-04-29T09:05:36Z</time></trkpt><trkpt lat="28.441128857040617" lon="-11.097137606369067"><ele>42.0</ele><time>2026-04-29T09:05:37Z</time></trkpt><trkpt lat="28.44116624189292" lon="-11.09722948335604"><ele>42.0</ele><time>2026-04-29T09:05:38Z</time></trkpt><trkpt lat="28.4411954275526" lon="-11.097302946175953"><ele>42.0</ele><time>2026-04-29T09:05:39Z</time></trkpt><trkpt lat="28.44122362776018" lon="-11.097369962546997"><ele>42.0</ele><time>2026-04-29T09:05:40Z</time></trkpt><trkpt lat="28.441276536479474" lon="-11.097488708933005"><ele>42.0</ele><time>2026-04-29T09:05:42Z</time></trkpt><trkpt lat="28.441302698179026" lon="-11.097555554282692"><ele>42.0</ele><time>2026-04-29T09:05:43Z</time></trkpt><trkpt lat="28.441327458605766" lon="-11.097634664174077"><ele>42.0</ele><time>2026-04-29T09:05:44Z</time></trkpt><trkpt lat="28.441358248716153" lon="-11.097711239035155"><ele>41.833333333333336</ele><time>2026-04-29T09:05:45Z</time></trkpt><trkpt lat="28.441395593050434" lon="-11.097795604277"><ele>41.666666666666664</ele><time>2026-04-29T09:05:46Z</time></trkpt><trkpt lat="28.44143856960535" lon="-11.097865930602907"><ele>41.5</ele><time>2026-04-29T09:05:47Z</time></trkpt><trkpt lat="28.441471454660004" lon="-11.097937346127248"><ele>41.33333333333333</ele><time>2026-04-29T09:05:48Z</time></trkpt><trkpt lat="28.441498200351795" lon="-11.098007315131243"><ele>41.166666666666664</ele><time>2026-04-29T09:05:49Z</time></trkpt><trkpt lat="28.44154464976716" lon="-11.098131481235331"><ele>41.0</ele><time>2026-04-29T09:05:51Z</time></trkpt><trkpt lat="28.441589968437537" lon="-11.0982423153336"><ele>40.83333333333333</ele><time>2026-04-29T09:05:53Z</time></trkpt><trkpt lat="28.441628914265017" lon="-11.098326228520563"><ele>40.666666666666664</ele><time>2026-04-29T09:05:54Z</time></trkpt><trkpt lat="28.441667731879164" lon="-11.098412599272406"><ele>40.5</ele><time>2026-04-29T09:05:55Z</time></trkpt><trkpt lat="28.441702761068658" lon="-11.09849039688513"><ele>40.333333333333336</ele><time>2026-04-29T09:05:56Z</time></trkpt><trkpt lat="28.441732097690153" lon="-11.098567221957694"><ele>40.16666666666667</ele><time>2026-04-29T09:05:57Z</time></trkpt><trkpt lat="28.4417680720762" lon="-11.098639620686805"><ele>40.0</ele><time>2026-04-29T09:05:58Z</time></trkpt><trkpt lat="28.441804668803037" lon="-11.098722409149437"><ele>40.0</ele><time>2026-04-29T09:05:59Z</time></trkpt><trkpt lat="28.44183895675748" lon="-11.098809368350224"><ele>40.0</ele><time>2026-04-29T09:06:00Z</time></trkpt><trkpt lat="28.44187595911183" lon="-11.098901706220003"><ele>40.0</ele><time>2026-04-29T09:06:01Z</time></trkpt><trkpt lat="28.4419140166458" lon="-11.099001815258593"><ele>40.0</ele><time>2026-04-29T09:06:02Z</time></trkpt><trkpt lat="28.44195414254909" lon="-11.099110170380703"><ele>40.0</ele><time>2026-04-29T09:06:03Z</time></trkpt><trkpt lat="28.441998221384807" lon="-11.099220585640417"><ele>40.2</ele><time>2026-04-29T09:06:04Z</time></trkpt><trkpt lat="28.44204548127486" lon="-11.099328417595634"><ele>40.4</ele><time>2026-04-29T09:06:05Z</time></trkpt><trkpt lat="28.442089371780387" lon="-11.099436626124902"><ele>40.599999999999994</ele><time>2026-04-29T09:06:06Z</time></trkpt><trkpt lat="28.44213264441757" lon="-11.099548793249536"><ele>40.8</ele><time>2026-04-29T09:06:07Z</time></trkpt><trkpt lat="28.442175467689207" lon="-11.099658608351195"><ele>41.0</ele><time>2026-04-29T09:06:08Z</time></trkpt><trkpt lat="28.442221453975655" lon="-11.099766439605608"><ele>41.199999999999996</ele><time>2026-04-29T09:06:09.001Z</time></trkpt><trkpt lat="28.442268029689636" lon="-11.09987741585305"><ele>41.4</ele><time>2026-04-29T09:06:10.001Z</time></trkpt><trkpt lat="28.442309040901385" lon="-11.099986434614316"><ele>41.6</ele><time>2026-04-29T09:06:11.001Z</time></trkpt><trkpt lat="28.442347087326716" lon="-11.100090657298153"><ele>41.8</ele><time>2026-04-29T09:06:12.001Z</time></trkpt><trkpt lat="28.442386980444425" lon="-11.100192543991799"><ele>42.0</ele><time>2026-04-29T09:06:13.001Z</time></trkpt><trkpt lat="28.44241627503148" lon="-11.100305685361482"><ele>42.0</ele><time>2026-04-29T09:06:14.001Z</time></trkpt><trkpt lat="28.442457511131202" lon="-11.100414961403125"><ele>42.0</ele><time>2026-04-29T09:06:15.001Z</time></trkpt><trkpt lat="28.442492501020865" lon="-11.100531409683743"><ele>42.0</ele><time>2026-04-29T09:06:16.001Z</time></trkpt><trkpt lat="28.442521056416332" lon="-11.100647681341217"><ele>42.0</ele><time>2026-04-29T09:06:17.001Z</time></trkpt><trkpt lat="28.442543626912723" lon="-11.1007637270545"><ele>42.0</ele><time>2026-04-29T09:06:18.001Z</time></trkpt><trkpt lat="28.442561534303213" lon="-11.100877827275632"><ele>41.833333333333336</ele><time>2026-04-29T09:06:19.001Z</time></trkpt><trkpt lat="28.442578227720386" lon="-11.100985843266717"><ele>41.666666666666664</ele><time>2026-04-29T09:06:20.001Z</time></trkpt><trkpt lat="28.44259057435468" lon="-11.101086494565596"><ele>41.5</ele><time>2026-04-29T09:06:21.001Z</time></trkpt><trkpt lat="28.44260091970395" lon="-11.101189518470914"><ele>41.33333333333333</ele><time>2026-04-29T09:06:22.001Z</time></trkpt><trkpt lat="28.442609610968383" lon="-11.10129241998559"><ele>41.166666666666664</ele><time>2026-04-29T09:06:23.001Z</time></trkpt><trkpt lat="28.442614244897523" lon="-11.101381020697852"><ele>41.0</ele><time>2026-04-29T09:06:24.001Z</time></trkpt><trkpt lat="28.442621048754987" lon="-11.101469621931592"><ele>41.0</ele><time>2026-04-29T09:06:25.001Z</time></trkpt><trkpt lat="28.442627596649213" lon="-11.101568653440554"><ele>41.0</ele><time>2026-04-29T09:06:26.001Z</time></trkpt><trkpt lat="28.44263546470285" lon="-11.10166656468729"><ele>41.0</ele><time>2026-04-29T09:06:27.001Z</time></trkpt><trkpt lat="28.442639671112612" lon="-11.101750911884334"><ele>41.0</ele><time>2026-04-29T09:06:28.001Z</time></trkpt><trkpt lat="28.44265044591031" lon="-11.101888512743269"><ele>41.0</ele><time>2026-04-29T09:06:30.001Z</time></trkpt><trkpt lat="28.442660413802063" lon="-11.101997522139166"><ele>40.599999999999994</ele><time>2026-04-29T09:06:32.001Z</time></trkpt><trkpt lat="28.442648334565643" lon="-11.102092873438638"><ele>40.199999999999996</ele><time>2026-04-29T09:06:34.001Z</time></trkpt><trkpt lat="28.442673769709735" lon="-11.102200899464705"><ele>39.8</ele><time>2026-04-29T09:06:36.001Z</time></trkpt><trkpt lat="28.442709456810768" lon="-11.102327031282034"><ele>39.4</ele><time>2026-04-29T09:06:38.001Z</time></trkpt><trkpt lat="28.44273805386922" lon="-11.10240736049586"><ele>39.0</ele><time>2026-04-29T09:06:39.001Z</time></trkpt><trkpt lat="28.44276217650863" lon="-11.102489249954827"><ele>38.714285714285715</ele><time>2026-04-29T09:06:40.001Z</time></trkpt><trkpt lat="28.44278835491437" lon="-11.10257262592694"><ele>38.42857142857142</ele><time>2026-04-29T09:06:41.001Z</time></trkpt><trkpt lat="28.442814355115637" lon="-11.102645379809536"><ele>38.14285714285714</ele><time>2026-04-29T09:06:42.001Z</time></trkpt><trkpt lat="28.442843780932698" lon="-11.102719076566618"><ele>37.85714285714286</ele><time>2026-04-29T09:06:43.001Z</time></trkpt><trkpt lat="28.442870662426365" lon="-11.102788137736118"><ele>37.57142857142857</ele><time>2026-04-29T09:06:44.001Z</time></trkpt><trkpt lat="28.442900770823126" lon="-11.102858020317358"><ele>37.285714285714285</ele><time>2026-04-29T09:06:45.001Z</time></trkpt><trkpt lat="28.442930039398515" lon="-11.102933844627577"><ele>37.0</ele><time>2026-04-29T09:06:46.001Z</time></trkpt><trkpt lat="28.442956229848658" lon="-11.103011166815559"><ele>36.833333333333336</ele><time>2026-04-29T09:06:47.001Z</time></trkpt><trkpt lat="28.44298374724543" lon="-11.103089565972876"><ele>36.66666666666667</ele><time>2026-04-29T09:06:48.001Z</time></trkpt><trkpt lat="28.443014413792035" lon="-11.103158315952289"><ele>36.5</ele><time>2026-04-29T09:06:49.001Z</time></trkpt><trkpt lat="28.44304434497594" lon="-11.103224935372173"><ele>36.333333333333336</ele><time>2026-04-29T09:06:50.001Z</time></trkpt><trkpt lat="28.443089791233948" lon="-11.103333782580583"><ele>36.166666666666664</ele><time>2026-04-29T09:06:52.001Z</time></trkpt><trkpt lat="28.443137591461042" lon="-11.103454800507823"><ele>36.0</ele><time>2026-04-29T09:06:54.001Z</time></trkpt><trkpt lat="28.4431664435089" lon="-11.10352642773609"><ele>36.00000000000001</ele><time>2026-04-29T09:06:55.001Z</time></trkpt><trkpt lat="28.44320028908739" lon="-11.103599692384806"><ele>36.0</ele><time>2026-04-29T09:06:56.001Z</time></trkpt><trkpt lat="28.44323341202585" lon="-11.103675542132935"><ele>36.0</ele><time>2026-04-29T09:06:57.001Z</time></trkpt><trkpt lat="28.443261431387054" lon="-11.103748472940552"><ele>36.0</ele><time>2026-04-29T09:06:58.001Z</time></trkpt><trkpt lat="28.443289094170993" lon="-11.103821534399133"><ele>36.0</ele><time>2026-04-29T09:06:59.001Z</time></trkpt><trkpt lat="28.443321004161426" lon="-11.103900631883239"><ele>36.00000000000001</ele><time>2026-04-29T09:07:00.001Z</time></trkpt><trkpt lat="28.443353074554413" lon="-11.10398260839209"><ele>36.0</ele><time>2026-04-29T09:07:01.001Z</time></trkpt><trkpt lat="28.44338395206539" lon="-11.104061043111564"><ele>36.714285714285715</ele><time>2026-04-29T09:07:02.001Z</time></trkpt><trkpt lat="28.443414824337857" lon="-11.104141652027247"><ele>37.42857142857143</ele><time>2026-04-29T09:07:03.001Z</time></trkpt><trkpt lat="28.443447703695345" lon="-11.104223671391914"><ele>38.14285714285714</ele><time>2026-04-29T09:07:04.001Z</time></trkpt><trkpt lat="28.443476337819256" lon="-11.10429709706179"><ele>38.85714285714286</ele><time>2026-04-29T09:07:05.001Z</time></trkpt><trkpt lat="28.443504600581633" lon="-11.104369823891073"><ele>39.57142857142857</ele><time>2026-04-29T09:07:06.001Z</time></trkpt><trkpt lat="28.44353253043239" lon="-11.10444445574508"><ele>40.285714285714285</ele><time>2026-04-29T09:07:07.001Z</time></trkpt><trkpt lat="28.443564015264368" lon="-11.104523242021164"><ele>41.0</ele><time>2026-04-29T09:07:08.001Z</time></trkpt><trkpt lat="28.443597408351653" lon="-11.104607086267587"><ele>41.0</ele><time>2026-04-29T09:07:09.001Z</time></trkpt><trkpt lat="28.443631843973858" lon="-11.104689523203273"><ele>41.0</ele><time>2026-04-29T09:07:10.001Z</time></trkpt><trkpt lat="28.443659642123336" lon="-11.104767103690422"><ele>41.0</ele><time>2026-04-29T09:07:11.001Z</time></trkpt><trkpt lat="28.443688916849336" lon="-11.104843926471055"><ele>41.0</ele><time>2026-04-29T09:07:12.001Z</time></trkpt><trkpt lat="28.44374221176081" lon="-11.104966720645193"><ele>41.0</ele><time>2026-04-29T09:07:14.001Z</time></trkpt><trkpt lat="28.44379462247615" lon="-11.105095046015434"><ele>41.33333333333333</ele><time>2026-04-29T09:07:16.001Z</time></trkpt><trkpt lat="28.443825129515638" lon="-11.1051712701202"><ele>41.666666666666664</ele><time>2026-04-29T09:07:17.001Z</time></trkpt><trkpt lat="28.443859684991846" lon="-11.105257345639476"><ele>42.0</ele><time>2026-04-29T09:07:18.001Z</time></trkpt><trkpt lat="28.4438952711585" lon="-11.105351892809699"><ele>42.333333333333336</ele><time>2026-04-29T09:07:19Z</time></trkpt><trkpt lat="28.44393100494242" lon="-11.10545108611505"><ele>42.66666666666667</ele><time>2026-04-29T09:07:20Z</time></trkpt><trkpt lat="28.443963288702786" lon="-11.105541735092494"><ele>43.0</ele><time>2026-04-29T09:07:21Z</time></trkpt><trkpt lat="28.443992915046174" lon="-11.105616988054148"><ele>43.0</ele><time>2026-04-29T09:07:22Z</time></trkpt><trkpt lat="28.444038893349045" lon="-11.105723484253856"><ele>43.0</ele><time>2026-04-29T09:07:24Z</time></trkpt><trkpt lat="28.444065942969804" lon="-11.10579659914038"><ele>43.0</ele><time>2026-04-29T09:07:26Z</time></trkpt><trkpt lat="28.444102198440564" lon="-11.105894026036278"><ele>43.0</ele><time>2026-04-29T09:07:28Z</time></trkpt><trkpt lat="28.444132991953616" lon="-11.105966203605766"><ele>43.0</ele><time>2026-04-29T09:07:29Z</time></trkpt><trkpt lat="28.444169834837748" lon="-11.106052667646098"><ele>43.0</ele><time>2026-04-29T09:07:30Z</time></trkpt><trkpt lat="28.444206691449796" lon="-11.106139656527375"><ele>43.0</ele><time>2026-04-29T09:07:31Z</time></trkpt><trkpt lat="28.444241604392737" lon="-11.10622898131654"><ele>43.0</ele><time>2026-04-29T09:07:32Z</time></trkpt><trkpt lat="28.444276277094552" lon="-11.106323938775633"><ele>43.0</ele><time>2026-04-29T09:07:33Z</time></trkpt><trkpt lat="28.444307768909947" lon="-11.106412493031357"><ele>43.0</ele><time>2026-04-29T09:07:34Z</time></trkpt><trkpt lat="28.44434523142921" lon="-11.10650368718632"><ele>43.0</ele><time>2026-04-29T09:07:35Z</time></trkpt><trkpt lat="28.44438515954572" lon="-11.106599405783056"><ele>43.0</ele><time>2026-04-29T09:07:36Z</time></trkpt><trkpt lat="28.444425592458362" lon="-11.106700341235133"><ele>42.833333333333336</ele><time>2026-04-29T09:07:37Z</time></trkpt><trkpt lat="28.444463295494756" lon="-11.106800332605367"><ele>42.66666666666667</ele><time>2026-04-29T09:07:38Z</time></trkpt><trkpt lat="28.444498716702565" lon="-11.106896777954338"><ele>42.5</ele><time>2026-04-29T09:07:39Z</time></trkpt><trkpt lat="28.444532954540094" lon="-11.106987183994683"><ele>42.333333333333336</ele><time>2026-04-29T09:07:40Z</time></trkpt><trkpt lat="28.444566089040528" lon="-11.107068595300385"><ele>42.166666666666664</ele><time>2026-04-29T09:07:41Z</time></trkpt><trkpt lat="28.444600883063174" lon="-11.107146096768565"><ele>42.0</ele><time>2026-04-29T09:07:42Z</time></trkpt><trkpt lat="28.444629788079887" lon="-11.10722328599643"><ele>42.0</ele><time>2026-04-29T09:07:43Z</time></trkpt><trkpt lat="28.444659656124987" lon="-11.107299213777992"><ele>42.0</ele><time>2026-04-29T09:07:44Z</time></trkpt><trkpt lat="28.444687120376493" lon="-11.10737591153245"><ele>42.0</ele><time>2026-04-29T09:07:45Z</time></trkpt><trkpt lat="28.44471706726404" lon="-11.107449287568459"><ele>42.0</ele><time>2026-04-29T09:07:46Z</time></trkpt><trkpt lat="28.444747159200816" lon="-11.10752344698398"><ele>42.0</ele><time>2026-04-29T09:07:47Z</time></trkpt><trkpt lat="28.444777931010574" lon="-11.107600792753411"><ele>42.0</ele><time>2026-04-29T09:07:48Z</time></trkpt><trkpt lat="28.44480764285566" lon="-11.107679064990696"><ele>42.0</ele><time>2026-04-29T09:07:49Z</time></trkpt><trkpt lat="28.444839053494746" lon="-11.107756405132129"><ele>42.0</ele><time>2026-04-29T09:07:50Z</time></trkpt><trkpt lat="28.44487131718952" lon="-11.107834668824266"><ele>42.0</ele><time>2026-04-29T09:07:51Z</time></trkpt><trkpt lat="28.444901567849964" lon="-11.107909725070664"><ele>42.0</ele><time>2026-04-29T09:07:52Z</time></trkpt><trkpt lat="28.444951410991347" lon="-11.108032484891375"><ele>42.0</ele><time>2026-04-29T09:07:54Z</time></trkpt><trkpt lat="28.44501156882406" lon="-11.108143945348052"><ele>42.0</ele><time>2026-04-29T09:07:56Z</time></trkpt><trkpt lat="28.44510293410466" lon="-11.108238516325157"><ele>42.0</ele><time>2026-04-29T09:07:58Z</time></trkpt><trkpt lat="28.44521049360936" lon="-11.108299454142111"><ele>42.0</ele><time>2026-04-29T09:08:00Z</time></trkpt><trkpt lat="28.44532913900473" lon="-11.108326912842491"><ele>42.0</ele><time>2026-04-29T09:08:02Z</time></trkpt><trkpt lat="28.445457559044396" lon="-11.108321966954604"><ele>42.0</ele><time>2026-04-29T09:08:04Z</time></trkpt><trkpt lat="28.445529985965447" lon="-11.108318169749388"><ele>42.0</ele><time>2026-04-29T09:08:05Z</time></trkpt><trkpt lat="28.445605102200098" lon="-11.108310377388904"><ele>42.2</ele><time>2026-04-29T09:08:06Z</time></trkpt><trkpt lat="28.445685760962146" lon="-11.108307467674832"><ele>42.400000000000006</ele><time>2026-04-29T09:08:07Z</time></trkpt><trkpt lat="28.445770808154787" lon="-11.108309767749907"><ele>42.599999999999994</ele><time>2026-04-29T09:08:08Z</time></trkpt><trkpt lat="28.445864041852037" lon="-11.108335050745163"><ele>42.8</ele><time>2026-04-29T09:08:09Z</time></trkpt><trkpt lat="28.445961828315586" lon="-11.108366009687469"><ele>43.0</ele><time>2026-04-29T09:08:10Z</time></trkpt><trkpt lat="28.446068310101218" lon="-11.10840777246787"><ele>43.0</ele><time>2026-04-29T09:08:11Z</time></trkpt><trkpt lat="28.44617764327483" lon="-11.108454712466571"><ele>43.0</ele><time>2026-04-29T09:08:12Z</time></trkpt><trkpt lat="28.446290033568797" lon="-11.10850178844177"><ele>43.0</ele><time>2026-04-29T09:08:13Z</time></trkpt><trkpt lat="28.446408014054565" lon="-11.108548774228408"><ele>43.0</ele><time>2026-04-29T09:08:14Z</time></trkpt><trkpt lat="28.44652588527282" lon="-11.108593720507635"><ele>42.25</ele><time>2026-04-29T09:08:15Z</time></trkpt><trkpt lat="28.446634757335172" lon="-11.108639214078956"><ele>41.5</ele><time>2026-04-29T09:08:16Z</time></trkpt><trkpt lat="28.446742218522903" lon="-11.108685122145978"><ele>40.75</ele><time>2026-04-29T09:08:17Z</time></trkpt><trkpt lat="28.446850829743116" lon="-11.108729140882758"><ele>40.0</ele><time>2026-04-29T09:08:18Z</time></trkpt><trkpt lat="28.446959410044254" lon="-11.108771940893876"><ele>40.0</ele><time>2026-04-29T09:08:19Z</time></trkpt><trkpt lat="28.447061087240165" lon="-11.108814546559286"><ele>40.0</ele><time>2026-04-29T09:08:20Z</time></trkpt><trkpt lat="28.447155743225856" lon="-11.108851984828215"><ele>40.0</ele><time>2026-04-29T09:08:21Z</time></trkpt><trkpt lat="28.44723870453362" lon="-11.108890540677265"><ele>40.0</ele><time>2026-04-29T09:08:22Z</time></trkpt><trkpt lat="28.447320178575332" lon="-11.108938814830578"><ele>40.0</ele><time>2026-04-29T09:08:23Z</time></trkpt><trkpt lat="28.44739695992316" lon="-11.10899338823843"><ele>39.8</ele><time>2026-04-29T09:08:24Z</time></trkpt><trkpt lat="28.447475402605683" lon="-11.109056302923996"><ele>39.6</ele><time>2026-04-29T09:08:25Z</time></trkpt><trkpt lat="28.447553840500202" lon="-11.10913435007909"><ele>39.4</ele><time>2026-04-29T09:08:26Z</time></trkpt><trkpt lat="28.447631692491303" lon="-11.109224145287005"><ele>39.2</ele><time>2026-04-29T09:08:27Z</time></trkpt><trkpt lat="28.447705319520228" lon="-11.109321415475844"><ele>39.0</ele><time>2026-04-29T09:08:28Z</time></trkpt><trkpt lat="28.447768563911055" lon="-11.109435020510453"><ele>39.0</ele><time>2026-04-29T09:08:29Z</time></trkpt><trkpt lat="28.447826094870987" lon="-11.109553229045105"><ele>39.0</ele><time>2026-04-29T09:08:30Z</time></trkpt><trkpt lat="28.447882688646168" lon="-11.109672052657078"><ele>39.0</ele><time>2026-04-29T09:08:31Z</time></trkpt><trkpt lat="28.44794141258171" lon="-11.109793340425908"><ele>39.0</ele><time>2026-04-29T09:08:32Z</time></trkpt><trkpt lat="28.44799831787314" lon="-11.1099226298108"><ele>39.0</ele><time>2026-04-29T09:08:33Z</time></trkpt><trkpt lat="28.448054271610758" lon="-11.110050631635316"><ele>39.0</ele><time>2026-04-29T09:08:34Z</time></trkpt><trkpt lat="28.448110551875907" lon="-11.11018218485797"><ele>39.0</ele><time>2026-04-29T09:08:35Z</time></trkpt><trkpt lat="28.448164440027195" lon="-11.110315295856882"><ele>39.0</ele><time>2026-04-29T09:08:36Z</time></trkpt><trkpt lat="28.448219363448583" lon="-11.110441515175848"><ele>39.0</ele><time>2026-04-29T09:08:37Z</time></trkpt><trkpt lat="28.44827417302889" lon="-11.110562344315102"><ele>39.0</ele><time>2026-04-29T09:08:38Z</time></trkpt><trkpt lat="28.448328833062018" lon="-11.110678998878834"><ele>39.0</ele><time>2026-04-29T09:08:39Z</time></trkpt><trkpt lat="28.448376477934968" lon="-11.1107929417642"><ele>39.0</ele><time>2026-04-29T09:08:40Z</time></trkpt><trkpt lat="28.448420327858518" lon="-11.110905926114102"><ele>39.0</ele><time>2026-04-29T09:08:41Z</time></trkpt><trkpt lat="28.44846104135585" lon="-11.111007283085607"><ele>39.0</ele><time>2026-04-29T09:08:42Z</time></trkpt><trkpt lat="28.448500336922624" lon="-11.11109967368455"><ele>39.0</ele><time>2026-04-29T09:08:43Z</time></trkpt><trkpt lat="28.448537442984893" lon="-11.111185963934467"><ele>39.0</ele><time>2026-04-29T09:08:44Z</time></trkpt><trkpt lat="28.448572503746256" lon="-11.111268888602574"><ele>39.0</ele><time>2026-04-29T09:08:45Z</time></trkpt><trkpt lat="28.448610815012607" lon="-11.111354201944952"><ele>39.0</ele><time>2026-04-29T09:08:46Z</time></trkpt><trkpt lat="28.448650297235893" lon="-11.111442947078126"><ele>39.0</ele><time>2026-04-29T09:08:47Z</time></trkpt><trkpt lat="28.4486915985291" lon="-11.111534569769255"><ele>39.0</ele><time>2026-04-29T09:08:48Z</time></trkpt><trkpt lat="28.448736596825704" lon="-11.111626950900485"><ele>39.0</ele><time>2026-04-29T09:08:49Z</time></trkpt><trkpt lat="28.44877892380115" lon="-11.111717971982456"><ele>39.0</ele><time>2026-04-29T09:08:50Z</time></trkpt><trkpt lat="28.44882175932781" lon="-11.111807611056092"><ele>39.0</ele><time>2026-04-29T09:08:51Z</time></trkpt><trkpt lat="28.448868327237513" lon="-11.111899944607572"><ele>39.0</ele><time>2026-04-29T09:08:52Z</time></trkpt><trkpt lat="28.4489210911313" lon="-11.112002389141304"><ele>39.0</ele><time>2026-04-29T09:08:53Z</time></trkpt><trkpt lat="28.44897649471813" lon="-11.112110648121448"><ele>39.0</ele><time>2026-04-29T09:08:54Z</time></trkpt><trkpt lat="28.449026670764855" lon="-11.11221383818956"><ele>39.0</ele><time>2026-04-29T09:08:55Z</time></trkpt><trkpt lat="28.449075190227862" lon="-11.112303290910056"><ele>39.0</ele><time>2026-04-29T09:08:56Z</time></trkpt><trkpt lat="28.449126177798004" lon="-11.112382272779367"><ele>39.5</ele><time>2026-04-29T09:08:57Z</time></trkpt><trkpt lat="28.449173680898813" lon="-11.112455571559906"><ele>40.0</ele><time>2026-04-29T09:08:58Z</time></trkpt><trkpt lat="28.449213185606354" lon="-11.112520666931895"><ele>40.5</ele><time>2026-04-29T09:08:59Z</time></trkpt><trkpt lat="28.449275134309023" lon="-11.112619297999958"><ele>41.0</ele><time>2026-04-29T09:09:01Z</time></trkpt><trkpt lat="28.449323129362806" lon="-11.112691310434029"><ele>41.5</ele><time>2026-04-29T09:09:03Z</time></trkpt><trkpt lat="28.449377623716412" lon="-11.11276394130358"><ele>42.0</ele><time>2026-04-29T09:09:05Z</time></trkpt><trkpt lat="28.44945003701598" lon="-11.112859758561592"><ele>42.0</ele><time>2026-04-29T09:09:07Z</time></trkpt><trkpt lat="28.449522784327087" lon="-11.112940539785118"><ele>42.0</ele><time>2026-04-29T09:09:09Z</time></trkpt><trkpt lat="28.44957314048502" lon="-11.11298979966733"><ele>42.0</ele><time>2026-04-29T09:09:10Z</time></trkpt><trkpt lat="28.449633263702072" lon="-11.11304700848069"><ele>42.0</ele><time>2026-04-29T09:09:11Z</time></trkpt><trkpt lat="28.449687895417863" lon="-11.113099590542799"><ele>42.0</ele><time>2026-04-29T09:09:12Z</time></trkpt><trkpt lat="28.44974860137885" lon="-11.113161743275683"><ele>42.0</ele><time>2026-04-29T09:09:13Z</time></trkpt><trkpt lat="28.44981520942415" lon="-11.113237210119168"><ele>42.5</ele><time>2026-04-29T09:09:14Z</time></trkpt><trkpt lat="28.449895506018155" lon="-11.113321944806282"><ele>43.0</ele><time>2026-04-29T09:09:15Z</time></trkpt><trkpt lat="28.449978121010762" lon="-11.113400670602841"><ele>43.5</ele><time>2026-04-29T09:09:16Z</time></trkpt><trkpt lat="28.45007042471655" lon="-11.113493372010485"><ele>44.0</ele><time>2026-04-29T09:09:17Z</time></trkpt><trkpt lat="28.450174316955813" lon="-11.113594039693474"><ele>44.0</ele><time>2026-04-29T09:09:18.001Z</time></trkpt><trkpt lat="28.45028114768874" lon="-11.113701651833601"><ele>44.0</ele><time>2026-04-29T09:09:19.001Z</time></trkpt><trkpt lat="28.45038707095664" lon="-11.11380480358379"><ele>44.0</ele><time>2026-04-29T09:09:20.001Z</time></trkpt><trkpt lat="28.450498077605747" lon="-11.113910145519515"><ele>44.0</ele><time>2026-04-29T09:09:21.001Z</time></trkpt><trkpt lat="28.450607586418013" lon="-11.114015169957568"><ele>43.5</ele><time>2026-04-29T09:09:22.001Z</time></trkpt><trkpt lat="28.450714341386924" lon="-11.114119956500124"><ele>43.0</ele><time>2026-04-29T09:09:23.001Z</time></trkpt><trkpt lat="28.450820713204234" lon="-11.114224449587748"><ele>42.5</ele><time>2026-04-29T09:09:24.001Z</time></trkpt><trkpt lat="28.45092540965624" lon="-11.114325671359355"><ele>42.0</ele><time>2026-04-29T09:09:25Z</time></trkpt><trkpt lat="28.45103021684063" lon="-11.11442851031455"><ele>42.0</ele><time>2026-04-29T09:09:26Z</time></trkpt><trkpt lat="28.45113397732236" lon="-11.114533676176276"><ele>42.0</ele><time>2026-04-29T09:09:27Z</time></trkpt><trkpt lat="28.451238263455615" lon="-11.114635885674495"><ele>42.0</ele><time>2026-04-29T09:09:28Z</time></trkpt><trkpt lat="28.45133827849429" lon="-11.114734076718353"><ele>42.0</ele><time>2026-04-29T09:09:29Z</time></trkpt><trkpt lat="28.4514364142832" lon="-11.114829525851803"><ele>42.75</ele><time>2026-04-29T09:09:30Z</time></trkpt><trkpt lat="28.451535566701857" lon="-11.114923705278715"><ele>43.5</ele><time>2026-04-29T09:09:31Z</time></trkpt><trkpt lat="28.45163826895907" lon="-11.115024196554995"><ele>44.25</ele><time>2026-04-29T09:09:32Z</time></trkpt><trkpt lat="28.451746604170292" lon="-11.115133928570055"><ele>45.0</ele><time>2026-04-29T09:09:33Z</time></trkpt><trkpt lat="28.451857475333547" lon="-11.115241671581"><ele>45.0</ele><time>2026-04-29T09:09:34Z</time></trkpt><trkpt lat="28.451972840500353" lon="-11.115351324801827"><ele>45.0</ele><time>2026-04-29T09:09:35Z</time></trkpt><trkpt lat="28.45209525793262" lon="-11.115469756130786"><ele>45.0</ele><time>2026-04-29T09:09:36Z</time></trkpt><trkpt lat="28.452223265846737" lon="-11.115597514483184"><ele>45.0</ele><time>2026-04-29T09:09:37Z</time></trkpt><trkpt lat="28.452354656775046" lon="-11.11573299579588"><ele>45.0</ele><time>2026-04-29T09:09:38Z</time></trkpt><trkpt lat="28.452484713326808" lon="-11.115876762507495"><ele>45.0</ele><time>2026-04-29T09:09:39Z</time></trkpt><trkpt lat="28.45261842864777" lon="-11.116021981876562"><ele>45.666666666666664</ele><time>2026-04-29T09:09:40Z</time></trkpt><trkpt lat="28.452771669584404" lon="-11.116153817455732"><ele>46.33333333333333</ele><time>2026-04-29T09:09:41Z</time></trkpt><trkpt lat="28.45291213361271" lon="-11.11629599755054"><ele>47.0</ele><time>2026-04-29T09:09:42Z</time></trkpt><trkpt lat="28.453045782551417" lon="-11.116453389838332"><ele>48.33333333333333</ele><time>2026-04-29T09:09:43Z</time></trkpt><trkpt lat="28.453189031737885" lon="-11.11659266727767"><ele>49.666666666666664</ele><time>2026-04-29T09:09:44Z</time></trkpt><trkpt lat="28.45333076492778" lon="-11.1167304719946"><ele>51.0</ele><time>2026-04-29T09:09:45Z</time></trkpt><trkpt lat="28.453466513340903" lon="-11.11686331556808"><ele>51.0</ele><time>2026-04-29T09:09:46Z</time></trkpt><trkpt lat="28.453600695482834" lon="-11.11699353231615"><ele>51.0</ele><time>2026-04-29T09:09:47Z</time></trkpt><trkpt lat="28.453726670508264" lon="-11.117120492542425"><ele>51.0</ele><time>2026-04-29T09:09:48Z</time></trkpt><trkpt lat="28.453849853371928" lon="-11.117243808294381"><ele>50.33333333333333</ele><time>2026-04-29T09:09:49Z</time></trkpt><trkpt lat="28.453971212778036" lon="-11.117363399695902"><ele>49.666666666666664</ele><time>2026-04-29T09:09:50Z</time></trkpt><trkpt lat="28.454092137683812" lon="-11.117484742780016"><ele>49.0</ele><time>2026-04-29T09:09:51Z</time></trkpt><trkpt lat="28.454215596111062" lon="-11.117609156541928"><ele>50.666666666666664</ele><time>2026-04-29T09:09:52Z</time></trkpt><trkpt lat="28.4543358315077" lon="-11.117740828121413"><ele>52.33333333333333</ele><time>2026-04-29T09:09:53Z</time></trkpt><trkpt lat="28.454451324819768" lon="-11.117876961812053"><ele>54.0</ele><time>2026-04-29T09:09:54Z</time></trkpt><trkpt lat="28.454564117478462" lon="-11.118016682971419"><ele>54.66666666666667</ele><time>2026-04-29T09:09:55Z</time></trkpt><trkpt lat="28.454675291754086" lon="-11.118155419044404"><ele>55.333333333333336</ele><time>2026-04-29T09:09:56Z</time></trkpt><trkpt lat="28.45478643528922" lon="-11.118298135541197"><ele>56.0</ele><time>2026-04-29T09:09:57Z</time></trkpt><trkpt lat="28.454894921886694" lon="-11.118444050084204"><ele>56.0</ele><time>2026-04-29T09:09:58Z</time></trkpt><trkpt lat="28.455000088375385" lon="-11.118595361468364"><ele>56.0</ele><time>2026-04-29T09:09:59Z</time></trkpt><trkpt lat="28.455103254077102" lon="-11.118753527466573"><ele>56.0</ele><time>2026-04-29T09:10:00Z</time></trkpt><trkpt lat="28.45520372855959" lon="-11.118916839339526"><ele>57.66666666666667</ele><time>2026-04-29T09:10:01Z</time></trkpt><trkpt lat="28.455301630529792" lon="-11.119081989144856"><ele>59.33333333333333</ele><time>2026-04-29T09:10:02Z</time></trkpt><trkpt lat="28.455395200044073" lon="-11.119249191500309"><ele>61.0</ele><time>2026-04-29T09:10:03Z</time></trkpt><trkpt lat="28.455484951749472" lon="-11.119419129283418"><ele>61.0</ele><time>2026-04-29T09:10:04Z</time></trkpt><trkpt lat="28.45556869346598" lon="-11.119594185735846"><ele>61.0</ele><time>2026-04-29T09:10:05Z</time></trkpt><trkpt lat="28.45564878564794" lon="-11.119771086407022"><ele>61.0</ele><time>2026-04-29T09:10:06Z</time></trkpt><trkpt lat="28.455727248559718" lon="-11.11994956961055"><ele>60.0</ele><time>2026-04-29T09:10:07Z</time></trkpt><trkpt lat="28.455802729826445" lon="-11.120128670511475"><ele>59.0</ele><time>2026-04-29T09:10:08Z</time></trkpt><trkpt lat="28.45587594474832" lon="-11.120305721478775"><ele>58.0</ele><time>2026-04-29T09:10:09Z</time></trkpt><trkpt lat="28.455947766517475" lon="-11.120482883961714"><ele>58.0</ele><time>2026-04-29T09:10:10Z</time></trkpt><trkpt lat="28.456018037904393" lon="-11.12066065522679"><ele>58.0</ele><time>2026-04-29T09:10:11Z</time></trkpt><trkpt lat="28.45608926280833" lon="-11.120839245101887"><ele>58.0</ele><time>2026-04-29T09:10:12Z</time></trkpt><trkpt lat="28.45616196320934" lon="-11.121016172124868"><ele>58.666666666666664</ele><time>2026-04-29T09:10:13Z</time></trkpt><trkpt lat="28.45623453077011" lon="-11.12119725877883"><ele>59.33333333333333</ele><time>2026-04-29T09:10:14Z</time></trkpt><trkpt lat="28.45630776300876" lon="-11.121381595492482"><ele>60.0</ele><time>2026-04-29T09:10:15Z</time></trkpt><trkpt lat="28.456380695273403" lon="-11.121565934795536"><ele>61.66666666666667</ele><time>2026-04-29T09:10:16Z</time></trkpt><trkpt lat="28.456453184462596" lon="-11.121747548848823"><ele>63.333333333333336</ele><time>2026-04-29T09:10:17Z</time></trkpt><trkpt lat="28.456524531060225" lon="-11.121924093503772"><ele>65.0</ele><time>2026-04-29T09:10:18Z</time></trkpt><trkpt lat="28.45659348693774" lon="-11.122097803322513"><ele>65.0</ele><time>2026-04-29T09:10:19Z</time></trkpt><trkpt lat="28.45666204050626" lon="-11.12227025385665"><ele>65.0</ele><time>2026-04-29T09:10:20Z</time></trkpt><trkpt lat="28.45673265763806" lon="-11.12243996268256"><ele>65.0</ele><time>2026-04-29T09:10:21Z</time></trkpt><trkpt lat="28.45680236599654" lon="-11.122610483944134"><ele>66.0</ele><time>2026-04-29T09:10:22Z</time></trkpt><trkpt lat="28.456869688092098" lon="-11.122781374320196"><ele>67.0</ele><time>2026-04-29T09:10:23Z</time></trkpt><trkpt lat="28.45693619276543" lon="-11.122951110157029"><ele>68.0</ele><time>2026-04-29T09:10:24Z</time></trkpt><trkpt lat="28.457001645697172" lon="-11.123120988314936"><ele>69.0</ele><time>2026-04-29T09:10:25Z</time></trkpt><trkpt lat="28.457069713220104" lon="-11.123291291347583"><ele>70.0</ele><time>2026-04-29T09:10:26Z</time></trkpt><trkpt lat="28.45713659898838" lon="-11.123458909568853"><ele>71.0</ele><time>2026-04-29T09:10:27Z</time></trkpt><trkpt lat="28.45720509292226" lon="-11.123628030631476"><ele>72.0</ele><time>2026-04-29T09:10:28Z</time></trkpt><trkpt lat="28.45727280875064" lon="-11.123799181246198"><ele>73.0</ele><time>2026-04-29T09:10:29Z</time></trkpt><trkpt lat="28.457342277496092" lon="-11.123974368143262"><ele>74.0</ele><time>2026-04-29T09:10:30Z</time></trkpt><trkpt lat="28.45741248527336" lon="-11.12414692500043"><ele>74.66666666666667</ele><time>2026-04-29T09:10:31Z</time></trkpt><trkpt lat="28.45748163228481" lon="-11.124322568634614"><ele>75.33333333333333</ele><time>2026-04-29T09:10:32Z</time></trkpt><trkpt lat="28.457550144091112" lon="-11.12449814386563"><ele>76.0</ele><time>2026-04-29T09:10:33Z</time></trkpt><trkpt lat="28.45762038779996" lon="-11.124674282147605"><ele>76.0</ele><time>2026-04-29T09:10:34Z</time></trkpt><trkpt lat="28.457689056309384" lon="-11.124853268334107"><ele>76.0</ele><time>2026-04-29T09:10:35Z</time></trkpt><trkpt lat="28.4577598553545" lon="-11.12503097321949"><ele>76.0</ele><time>2026-04-29T09:10:36Z</time></trkpt><trkpt lat="28.457831920962963" lon="-11.12520842617572"><ele>75.66666666666666</ele><time>2026-04-29T09:10:37Z</time></trkpt><trkpt lat="28.457903327345775" lon="-11.125385085346343"><ele>75.33333333333333</ele><time>2026-04-29T09:10:38Z</time></trkpt><trkpt lat="28.45797369693132" lon="-11.125559903970014"><ele>75.0</ele><time>2026-04-29T09:10:39Z</time></trkpt><trkpt lat="28.458043385958522" lon="-11.125734659720393"><ele>77.33333333333333</ele><time>2026-04-29T09:10:40Z</time></trkpt><trkpt lat="28.458113641737782" lon="-11.125912544020816"><ele>79.66666666666666</ele><time>2026-04-29T09:10:41Z</time></trkpt><trkpt lat="28.458184536628103" lon="-11.126095211887826"><ele>82.0</ele><time>2026-04-29T09:10:42Z</time></trkpt><trkpt lat="28.4582580329151" lon="-11.126280037035151"><ele>82.0</ele><time>2026-04-29T09:10:43Z</time></trkpt><trkpt lat="28.45833393005666" lon="-11.126462629317661"><ele>82.0</ele><time>2026-04-29T09:10:44Z</time></trkpt><trkpt lat="28.458408352528686" lon="-11.126646588244709"><ele>82.0</ele><time>2026-04-29T09:10:45Z</time></trkpt><trkpt lat="28.458480732959206" lon="-11.126828244197979"><ele>83.33333333333333</ele><time>2026-04-29T09:10:46Z</time></trkpt><trkpt lat="28.45855319321298" lon="-11.12700815934222"><ele>84.66666666666667</ele><time>2026-04-29T09:10:47Z</time></trkpt><trkpt lat="28.45862222291901" lon="-11.12718428912256"><ele>86.0</ele><time>2026-04-29T09:10:48Z</time></trkpt><trkpt lat="28.458693257489696" lon="-11.127361424568356"><ele>86.66666666666667</ele><time>2026-04-29T09:10:49Z</time></trkpt><trkpt lat="28.458760677089327" lon="-11.127533500427637"><ele>87.33333333333333</ele><time>2026-04-29T09:10:50Z</time></trkpt><trkpt lat="28.45882596465812" lon="-11.127696628233856"><ele>88.0</ele><time>2026-04-29T09:10:51Z</time></trkpt><trkpt lat="28.458887366727648" lon="-11.127849579940367"><ele>88.5</ele><time>2026-04-29T09:10:52Z</time></trkpt><trkpt lat="28.458945735601883" lon="-11.127995700198008"><ele>89.0</ele><time>2026-04-29T09:10:53Z</time></trkpt><trkpt lat="28.458999612196937" lon="-11.128128462692835"><ele>89.5</ele><time>2026-04-29T09:10:54Z</time></trkpt><trkpt lat="28.459050241656158" lon="-11.128243625734932"><ele>90.0</ele><time>2026-04-29T09:10:55Z</time></trkpt><trkpt lat="28.459097846523836" lon="-11.128346705975863"><ele>90.5</ele><time>2026-04-29T09:10:56Z</time></trkpt><trkpt lat="28.4591398095112" lon="-11.1284336880871"><ele>91.0</ele><time>2026-04-29T09:10:57Z</time></trkpt><trkpt lat="28.45918154128711" lon="-11.128506513999822"><ele>91.5</ele><time>2026-04-29T09:10:58Z</time></trkpt><trkpt lat="28.459225839196304" lon="-11.128560956183716"><ele>92.0</ele><time>2026-04-29T09:10:59Z</time></trkpt><trkpt lat="28.459306945591354" lon="-11.128650093837878"><ele>92.5</ele><time>2026-04-29T09:11:01Z</time></trkpt><trkpt lat="28.459379515360293" lon="-11.128715889804493"><ele>93.0</ele><time>2026-04-29T09:11:03Z</time></trkpt><trkpt lat="28.459409652770788" lon="-11.128860937267056"><ele>93.0</ele><time>2026-04-29T09:11:05Z</time></trkpt><trkpt lat="28.45941296442325" lon="-11.128951381769749"><ele>93.0</ele><time>2026-04-29T09:11:06Z</time></trkpt><trkpt lat="28.459424527030315" lon="-11.129050594578292"><ele>93.0</ele><time>2026-04-29T09:11:07Z</time></trkpt><trkpt lat="28.45944969319184" lon="-11.129163586310598"><ele>93.0</ele><time>2026-04-29T09:11:08Z</time></trkpt><trkpt lat="28.459501961300358" lon="-11.129308578093037"><ele>93.0</ele><time>2026-04-29T09:11:09Z</time></trkpt><trkpt lat="28.45956513255856" lon="-11.129467411711975"><ele>95.33333333333334</ele><time>2026-04-29T09:11:10Z</time></trkpt><trkpt lat="28.459657544794197" lon="-11.129670784649035"><ele>97.66666666666667</ele><time>2026-04-29T09:11:11Z</time></trkpt><trkpt lat="28.459760142911495" lon="-11.129911056050613"><ele>100.0</ele><time>2026-04-29T09:11:12Z</time></trkpt><trkpt lat="28.45987811252239" lon="-11.130180661461662"><ele>100.0</ele><time>2026-04-29T09:11:13Z</time></trkpt><trkpt lat="28.46000590717842" lon="-11.130470471484609"><ele>100.0</ele><time>2026-04-29T09:11:14Z</time></trkpt><trkpt lat="28.460136967505697" lon="-11.130764936944153"><ele>102.0</ele><time>2026-04-29T09:11:15Z</time></trkpt><trkpt lat="28.46025651562917" lon="-11.131030218866602"><ele>104.0</ele><time>2026-04-29T09:11:16Z</time></trkpt><trkpt lat="28.460367545276576" lon="-11.13127943688401"><ele>103.0</ele><time>2026-04-29T09:11:17Z</time></trkpt><trkpt lat="28.460469840204865" lon="-11.131508014800595"><ele>102.0</ele><time>2026-04-29T09:11:18Z</time></trkpt><trkpt lat="28.46055927823488" lon="-11.131712910870474"><ele>101.0</ele><time>2026-04-29T09:11:19Z</time></trkpt><trkpt lat="28.460642183873443" lon="-11.131903915027456"><ele>103.0</ele><time>2026-04-29T09:11:20Z</time></trkpt><trkpt lat="28.460721473232795" lon="-11.132079844031999"><ele>105.0</ele><time>2026-04-29T09:11:21Z</time></trkpt><trkpt lat="28.460795548741988" lon="-11.132250798158779"><ele>107.0</ele><time>2026-04-29T09:11:22Z</time></trkpt><trkpt lat="28.46086957322762" lon="-11.132426905847604"><ele>109.0</ele><time>2026-04-29T09:11:23Z</time></trkpt><trkpt lat="28.46094659879495" lon="-11.132602392473805"><ele>111.0</ele><time>2026-04-29T09:11:24Z</time></trkpt><trkpt lat="28.46102473844345" lon="-11.132781792887247"><ele>113.0</ele><time>2026-04-29T09:11:25Z</time></trkpt><trkpt lat="28.46111016748694" lon="-11.13297422345892"><ele>113.0</ele><time>2026-04-29T09:11:26Z</time></trkpt><trkpt lat="28.461199357215992" lon="-11.133168501068043"><ele>113.0</ele><time>2026-04-29T09:11:27Z</time></trkpt><trkpt lat="28.461286295696752" lon="-11.133359750239826"><ele>113.0</ele><time>2026-04-29T09:11:28Z</time></trkpt><trkpt lat="28.461369516804975" lon="-11.13354984786336"><ele>114.0</ele><time>2026-04-29T09:11:29Z</time></trkpt><trkpt lat="28.461454794461964" lon="-11.133739704156499"><ele>115.0</ele><time>2026-04-29T09:11:30Z</time></trkpt><trkpt lat="28.46153581172752" lon="-11.133929582382665"><ele>116.0</ele><time>2026-04-29T09:11:31Z</time></trkpt><trkpt lat="28.461619143666354" lon="-11.134118589827581"><ele>118.0</ele><time>2026-04-29T09:11:32Z</time></trkpt><trkpt lat="28.46170338167125" lon="-11.134305521404437"><ele>120.0</ele><time>2026-04-29T09:11:33Z</time></trkpt><trkpt lat="28.461787253620326" lon="-11.134493532916563"><ele>122.0</ele><time>2026-04-29T09:11:34Z</time></trkpt><trkpt lat="28.461867935271837" lon="-11.13468090727162"><ele>122.0</ele><time>2026-04-29T09:11:35Z</time></trkpt><trkpt lat="28.46194080544516" lon="-11.13486822678746"><ele>122.0</ele><time>2026-04-29T09:11:36Z</time></trkpt><trkpt lat="28.462012073307964" lon="-11.135054546778038"><ele>122.0</ele><time>2026-04-29T09:11:37Z</time></trkpt><trkpt lat="28.462081637603895" lon="-11.135241700565706"><ele>123.66666666666666</ele><time>2026-04-29T09:11:38Z</time></trkpt><trkpt lat="28.462147169546032" lon="-11.135430502790511"><ele>125.33333333333334</ele><time>2026-04-29T09:11:39Z</time></trkpt><trkpt lat="28.462209683780266" lon="-11.135618123716352"><ele>127.0</ele><time>2026-04-29T09:11:40Z</time></trkpt><trkpt lat="28.462270072641907" lon="-11.135810592693698"><ele>128.33333333333334</ele><time>2026-04-29T09:11:41Z</time></trkpt><trkpt lat="28.46233130387495" lon="-11.13601097041102"><ele>129.66666666666666</ele><time>2026-04-29T09:11:42Z</time></trkpt><trkpt lat="28.462385337270067" lon="-11.136217019639025"><ele>131.0</ele><time>2026-04-29T09:11:43Z</time></trkpt><trkpt lat="28.462436122294406" lon="-11.13642250866262"><ele>132.0</ele><time>2026-04-29T09:11:44Z</time></trkpt><trkpt lat="28.462484163886593" lon="-11.136633225540605"><ele>133.0</ele><time>2026-04-29T09:11:45Z</time></trkpt><trkpt lat="28.462529970042077" lon="-11.136846577796305"><ele>134.0</ele><time>2026-04-29T09:11:46Z</time></trkpt><trkpt lat="28.462568961316506" lon="-11.137064257417142"><ele>134.0</ele><time>2026-04-29T09:11:47Z</time></trkpt><trkpt lat="28.46260349660044" lon="-11.137285614355024"><ele>134.0</ele><time>2026-04-29T09:11:48Z</time></trkpt><trkpt lat="28.462635565343774" lon="-11.13750711951509"><ele>134.0</ele><time>2026-04-29T09:11:49Z</time></trkpt><trkpt lat="28.462665238475317" lon="-11.13772733151662"><ele>135.33333333333331</ele><time>2026-04-29T09:11:50Z</time></trkpt><trkpt lat="28.462692111136082" lon="-11.137949336871555"><ele>136.66666666666666</ele><time>2026-04-29T09:11:51Z</time></trkpt><trkpt lat="28.46271262839284" lon="-11.13817624113839"><ele>138.0</ele><time>2026-04-29T09:11:52Z</time></trkpt><trkpt lat="28.462731228201566" lon="-11.138403554824183"><ele>140.0</ele><time>2026-04-29T09:11:53Z</time></trkpt><trkpt lat="28.462750255698587" lon="-11.138632170855805"><ele>142.0</ele><time>2026-04-29T09:11:54Z</time></trkpt><trkpt lat="28.462769230701173" lon="-11.13886311141025"><ele>144.0</ele><time>2026-04-29T09:11:55Z</time></trkpt><trkpt lat="28.462787030229048" lon="-11.139091771773609"><ele>145.33333333333334</ele><time>2026-04-29T09:11:56Z</time></trkpt><trkpt lat="28.46280588375387" lon="-11.139317275708656"><ele>146.66666666666669</ele><time>2026-04-29T09:11:57Z</time></trkpt><trkpt lat="28.462825208291065" lon="-11.139543019758088"><ele>148.0</ele><time>2026-04-29T09:11:58Z</time></trkpt><trkpt lat="28.462842296594125" lon="-11.139764710870242"><ele>149.66666666666669</ele><time>2026-04-29T09:11:59Z</time></trkpt><trkpt lat="28.46286175234706" lon="-11.139993911007634"><ele>151.33333333333334</ele><time>2026-04-29T09:12:00Z</time></trkpt><trkpt lat="28.462880644543144" lon="-11.14022180163838"><ele>153.0</ele><time>2026-04-29T09:12:01Z</time></trkpt><trkpt lat="28.462899000225086" lon="-11.14044826889097"><ele>153.0</ele><time>2026-04-29T09:12:02Z</time></trkpt><trkpt lat="28.462920711477032" lon="-11.140675373724578"><ele>153.0</ele><time>2026-04-29T09:12:03Z</time></trkpt><trkpt lat="28.46294140839005" lon="-11.140905458245179"><ele>153.0</ele><time>2026-04-29T09:12:04Z</time></trkpt><trkpt lat="28.46296207912826" lon="-11.141134572256147"><ele>160.0</ele><time>2026-04-29T09:12:05Z</time></trkpt><trkpt lat="28.462983000536408" lon="-11.141362678593746"><ele>167.0</ele><time>2026-04-29T09:12:06Z</time></trkpt><trkpt lat="28.463008773568998" lon="-11.141589912031645"><ele>174.0</ele><time>2026-04-29T09:12:07Z</time></trkpt><trkpt lat="28.463039988667425" lon="-11.141818803027753"><ele>174.0</ele><time>2026-04-29T09:12:08Z</time></trkpt><trkpt lat="28.463076799369404" lon="-11.14204865904529"><ele>174.0</ele><time>2026-04-29T09:12:09Z</time></trkpt><trkpt lat="28.4631166255105" lon="-11.142277741598972"><ele>174.0</ele><time>2026-04-29T09:12:10Z</time></trkpt><trkpt lat="28.463160040578273" lon="-11.142508630620487"><ele>175.33333333333334</ele><time>2026-04-29T09:12:11Z</time></trkpt><trkpt lat="28.46320889141235" lon="-11.142738243176208"><ele>176.66666666666669</ele><time>2026-04-29T09:12:12Z</time></trkpt><trkpt lat="28.463262298494683" lon="-11.142961318455404"><ele>178.0</ele><time>2026-04-29T09:12:13Z</time></trkpt><trkpt lat="28.46331840645194" lon="-11.143184458343068"><ele>179.0</ele><time>2026-04-29T09:12:14Z</time></trkpt><trkpt lat="28.463380535504815" lon="-11.143408471144143"><ele>180.0</ele><time>2026-04-29T09:12:15Z</time></trkpt><trkpt lat="28.463445978358553" lon="-11.143628036841765"><ele>181.0</ele><time>2026-04-29T09:12:16Z</time></trkpt><trkpt lat="28.4635153765013" lon="-11.14384597962515"><ele>182.0</ele><time>2026-04-29T09:12:17Z</time></trkpt><trkpt lat="28.46358938713587" lon="-11.14406131916347"><ele>183.0</ele><time>2026-04-29T09:12:18Z</time></trkpt><trkpt lat="28.46366553726061" lon="-11.144273965126041"><ele>184.0</ele><time>2026-04-29T09:12:19Z</time></trkpt><trkpt lat="28.46374271934418" lon="-11.14448290566914"><ele>183.66666666666669</ele><time>2026-04-29T09:12:20Z</time></trkpt><trkpt lat="28.463823924728047" lon="-11.144692955796527"><ele>183.33333333333334</ele><time>2026-04-29T09:12:21Z</time></trkpt><trkpt lat="28.463905523407107" lon="-11.144903980917235"><ele>183.0</ele><time>2026-04-29T09:12:22Z</time></trkpt><trkpt lat="28.46398551987899" lon="-11.145115669749986"><ele>183.0</ele><time>2026-04-29T09:12:23Z</time></trkpt><trkpt lat="28.464063720986537" lon="-11.145327649710602"><ele>183.0</ele><time>2026-04-29T09:12:24Z</time></trkpt><trkpt lat="28.46414241400283" lon="-11.145531466956172"><ele>183.0</ele><time>2026-04-29T09:12:25Z</time></trkpt><trkpt lat="28.464221319447354" lon="-11.145732406237563"><ele>183.0</ele><time>2026-04-29T09:12:26Z</time></trkpt><trkpt lat="28.464296111130402" lon="-11.145930920279094"><ele>183.0</ele><time>2026-04-29T09:12:27Z</time></trkpt><trkpt lat="28.464371361872857" lon="-11.146129297098895"><ele>183.0</ele><time>2026-04-29T09:12:28Z</time></trkpt><trkpt lat="28.46444740011307" lon="-11.146329686792601"><ele>183.0</ele><time>2026-04-29T09:12:29Z</time></trkpt><trkpt lat="28.464525558382892" lon="-11.146531892183726"><ele>183.0</ele><time>2026-04-29T09:12:30Z</time></trkpt><trkpt lat="28.464605414599706" lon="-11.1467366372442"><ele>183.0</ele><time>2026-04-29T09:12:31Z</time></trkpt><trkpt lat="28.464686157724916" lon="-11.146945411040837"><ele>183.0</ele><time>2026-04-29T09:12:32Z</time></trkpt><trkpt lat="28.464766319258008" lon="-11.147156589778815"><ele>183.0</ele><time>2026-04-29T09:12:33Z</time></trkpt><trkpt lat="28.464842152084824" lon="-11.147365940061276"><ele>183.0</ele><time>2026-04-29T09:12:34Z</time></trkpt><trkpt lat="28.464916503198605" lon="-11.147573877032508"><ele>183.33333333333334</ele><time>2026-04-29T09:12:35Z</time></trkpt><trkpt lat="28.464995962200963" lon="-11.14778135315254"><ele>183.66666666666669</ele><time>2026-04-29T09:12:36Z</time></trkpt><trkpt lat="28.46507597944098" lon="-11.147988437089342"><ele>184.0</ele><time>2026-04-29T09:12:37Z</time></trkpt><trkpt lat="28.465155267066685" lon="-11.148193802288873"><ele>184.33333333333334</ele><time>2026-04-29T09:12:38Z</time></trkpt><trkpt lat="28.465233775007377" lon="-11.148401278988873"><ele>184.66666666666666</ele><time>2026-04-29T09:12:39Z</time></trkpt><trkpt lat="28.465313475071515" lon="-11.148610819772797"><ele>185.0</ele><time>2026-04-29T09:12:40Z</time></trkpt><trkpt lat="28.465392780845587" lon="-11.148820665241873"><ele>185.0</ele><time>2026-04-29T09:12:41Z</time></trkpt><trkpt lat="28.46546955925202" lon="-11.149032088404867"><ele>185.0</ele><time>2026-04-29T09:12:42Z</time></trkpt><trkpt lat="28.46554818430766" lon="-11.149240618728912"><ele>185.0</ele><time>2026-04-29T09:12:43Z</time></trkpt><trkpt lat="28.465625708228053" lon="-11.149444768146282"><ele>185.0</ele><time>2026-04-29T09:12:44Z</time></trkpt><trkpt lat="28.465700877680224" lon="-11.149651116173041"><ele>185.0</ele><time>2026-04-29T09:12:45Z</time></trkpt><trkpt lat="28.465769748843858" lon="-11.14985831143688"><ele>185.0</ele><time>2026-04-29T09:12:46Z</time></trkpt><trkpt lat="28.465833244592794" lon="-11.150068681279183"><ele>185.33333333333331</ele><time>2026-04-29T09:12:47Z</time></trkpt><trkpt lat="28.4658914791969" lon="-11.150282584038807"><ele>185.66666666666666</ele><time>2026-04-29T09:12:48Z</time></trkpt><trkpt lat="28.465945543371777" lon="-11.150501731726854"><ele>186.0</ele><time>2026-04-29T09:12:49Z</time></trkpt><trkpt lat="28.465996927114528" lon="-11.150723646213674"><ele>186.0</ele><time>2026-04-29T09:12:50Z</time></trkpt><trkpt lat="28.466040969064515" lon="-11.150950040506174"><ele>186.0</ele><time>2026-04-29T09:12:51Z</time></trkpt><trkpt lat="28.466078661942184" lon="-11.15118218787301"><ele>186.0</ele><time>2026-04-29T09:12:52Z</time></trkpt><trkpt lat="28.466111766636942" lon="-11.151418697643445"><ele>186.0</ele><time>2026-04-29T09:12:53Z</time></trkpt><trkpt lat="28.466166873073316" lon="-11.151656045323177"><ele>186.0</ele><time>2026-04-29T09:12:54Z</time></trkpt><trkpt lat="28.46616365206321" lon="-11.151906598423526"><ele>186.0</ele><time>2026-04-29T09:12:55Z</time></trkpt><trkpt lat="28.466177784487822" lon="-11.15215715880829"><ele>186.5</ele><time>2026-04-29T09:12:56Z</time></trkpt><trkpt lat="28.46618716835993" lon="-11.152413004744973"><ele>187.0</ele><time>2026-04-29T09:12:57Z</time></trkpt><trkpt lat="28.46619658008897" lon="-11.152674332443206"><ele>187.0</ele><time>2026-04-29T09:12:58Z</time></trkpt><trkpt lat="28.466202410254418" lon="-11.152937725035315"><ele>187.0</ele><time>2026-04-29T09:12:59Z</time></trkpt><trkpt lat="28.466209094302886" lon="-11.153201804950218"><ele>187.5</ele><time>2026-04-29T09:13:00Z</time></trkpt><trkpt lat="28.466216206815254" lon="-11.153462703129255"><ele>188.0</ele><time>2026-04-29T09:13:01Z</time></trkpt><trkpt lat="28.46622415515809" lon="-11.153718650301636"><ele>188.0</ele><time>2026-04-29T09:13:02Z</time></trkpt><trkpt lat="28.46623052297627" lon="-11.1539678264255"><ele>188.0</ele><time>2026-04-29T09:13:03Z</time></trkpt><trkpt lat="28.46623445140299" lon="-11.154214708608043"><ele>188.0</ele><time>2026-04-29T09:13:04Z</time></trkpt><trkpt lat="28.466240119776494" lon="-11.154459037432025"><ele>188.33333333333331</ele><time>2026-04-29T09:13:05Z</time></trkpt><trkpt lat="28.466245331863362" lon="-11.154699966986936"><ele>188.66666666666666</ele><time>2026-04-29T09:13:06Z</time></trkpt><trkpt lat="28.466250443832724" lon="-11.154939001096173"><ele>189.0</ele><time>2026-04-29T09:13:07Z</time></trkpt><trkpt lat="28.466255224856" lon="-11.155171782246828"><ele>189.0</ele><time>2026-04-29T09:13:08Z</time></trkpt><trkpt lat="28.466259881035626" lon="-11.15540446406309"><ele>189.0</ele><time>2026-04-29T09:13:09Z</time></trkpt><trkpt lat="28.466264825765162" lon="-11.155634536336997"><ele>189.0</ele><time>2026-04-29T09:13:10Z</time></trkpt><trkpt lat="28.46626937838929" lon="-11.155866961635978"><ele>189.33333333333334</ele><time>2026-04-29T09:13:11Z</time></trkpt><trkpt lat="28.466274199677795" lon="-11.156099795256404"><ele>189.66666666666669</ele><time>2026-04-29T09:13:12Z</time></trkpt><trkpt lat="28.46628099417427" lon="-11.156333012833208"><ele>190.0</ele><time>2026-04-29T09:13:13Z</time></trkpt><trkpt lat="28.466286697000157" lon="-11.15656198348535"><ele>189.33333333333334</ele><time>2026-04-29T09:13:14Z</time></trkpt><trkpt lat="28.46629168733791" lon="-11.15678482548657"><ele>188.66666666666666</ele><time>2026-04-29T09:13:15Z</time></trkpt><trkpt lat="28.46629695886671" lon="-11.157004530080696"><ele>188.0</ele><time>2026-04-29T09:13:16Z</time></trkpt><trkpt lat="28.466301744367318" lon="-11.157221777423873"><ele>187.66666666666666</ele><time>2026-04-29T09:13:17Z</time></trkpt><trkpt lat="28.46630829747223" lon="-11.157434426701293"><ele>187.33333333333334</ele><time>2026-04-29T09:13:18Z</time></trkpt><trkpt lat="28.466312965678867" lon="-11.157643823651823"><ele>187.0</ele><time>2026-04-29T09:13:19Z</time></trkpt><trkpt lat="28.466318263626036" lon="-11.157847673547122"><ele>187.0</ele><time>2026-04-29T09:13:20Z</time></trkpt><trkpt lat="28.466323800062735" lon="-11.15803880699712"><ele>187.0</ele><time>2026-04-29T09:13:21Z</time></trkpt><trkpt lat="28.466330242712043" lon="-11.158217487770202"><ele>187.0</ele><time>2026-04-29T09:13:22Z</time></trkpt><trkpt lat="28.466335764984237" lon="-11.158390444212378"><ele>187.25</ele><time>2026-04-29T09:13:23Z</time></trkpt><trkpt lat="28.466340593903418" lon="-11.158559303093764"><ele>187.5</ele><time>2026-04-29T09:13:24Z</time></trkpt><trkpt lat="28.466344834159536" lon="-11.158714727995388"><ele>187.75</ele><time>2026-04-29T09:13:25Z</time></trkpt><trkpt lat="28.46634853863917" lon="-11.158851920701998"><ele>188.0</ele><time>2026-04-29T09:13:26Z</time></trkpt><trkpt lat="28.466348960441913" lon="-11.158977911431812"><ele>188.16666666666666</ele><time>2026-04-29T09:13:27Z</time></trkpt><trkpt lat="28.466349102425415" lon="-11.159094642355292"><ele>188.33333333333331</ele><time>2026-04-29T09:13:28Z</time></trkpt><trkpt lat="28.466348524817153" lon="-11.159201090661732"><ele>188.5</ele><time>2026-04-29T09:13:29Z</time></trkpt><trkpt lat="28.46634855708496" lon="-11.159300363506446"><ele>188.66666666666666</ele><time>2026-04-29T09:13:30Z</time></trkpt><trkpt lat="28.466346868612195" lon="-11.159394597532584"><ele>188.83333333333334</ele><time>2026-04-29T09:13:31Z</time></trkpt><trkpt lat="28.466345579230577" lon="-11.159483567600574"><ele>189.0</ele><time>2026-04-29T09:13:32Z</time></trkpt><trkpt lat="28.466344330821954" lon="-11.159566136017265"><ele>189.0</ele><time>2026-04-29T09:13:33Z</time></trkpt><trkpt lat="28.46634332796625" lon="-11.159639864985333"><ele>189.0</ele><time>2026-04-29T09:13:34Z</time></trkpt><trkpt lat="28.466337281041746" lon="-11.159765776152271"><ele>189.0</ele><time>2026-04-29T09:13:36Z</time></trkpt><trkpt lat="28.466326108310817" lon="-11.159874117322472"><ele>189.0</ele><time>2026-04-29T09:13:38Z</time></trkpt><trkpt lat="28.46630300861018" lon="-11.159993584179631"><ele>189.0</ele><time>2026-04-29T09:13:40Z</time></trkpt><trkpt lat="28.46620719714731" lon="-11.160079451520613"><ele>189.33333333333334</ele><time>2026-04-29T09:13:42Z</time></trkpt><trkpt lat="28.4661366265232" lon="-11.160097323034085"><ele>189.66666666666666</ele><time>2026-04-29T09:13:43Z</time></trkpt><trkpt lat="28.466056559997252" lon="-11.160097780688638"><ele>190.0</ele><time>2026-04-29T09:13:44Z</time></trkpt><trkpt lat="28.46597127955497" lon="-11.160100080937449"><ele>190.33333333333331</ele><time>2026-04-29T09:13:45Z</time></trkpt><trkpt lat="28.465877479044334" lon="-11.160103890307822"><ele>190.66666666666666</ele><time>2026-04-29T09:13:46Z</time></trkpt><trkpt lat="28.46579339418449" lon="-11.160104620204551"><ele>191.0</ele><time>2026-04-29T09:13:47Z</time></trkpt><trkpt lat="28.46570332944671" lon="-11.160102586463378"><ele>191.0</ele><time>2026-04-29T09:13:48Z</time></trkpt><trkpt lat="28.4656143895929" lon="-11.160104594141877"><ele>191.0</ele><time>2026-04-29T09:13:49Z</time></trkpt><trkpt lat="28.465522473755676" lon="-11.16011190657571"><ele>191.0</ele><time>2026-04-29T09:13:50Z</time></trkpt><trkpt lat="28.465432481073453" lon="-11.160115310384219"><ele>191.0</ele><time>2026-04-29T09:13:51Z</time></trkpt><trkpt lat="28.46533579353306" lon="-11.16011545260382"><ele>191.0</ele><time>2026-04-29T09:13:52Z</time></trkpt><trkpt lat="28.465222498884582" lon="-11.160116019245198"><ele>191.0</ele><time>2026-04-29T09:13:53Z</time></trkpt><trkpt lat="28.465092100804583" lon="-11.160117122790838"><ele>191.0</ele><time>2026-04-29T09:13:54Z</time></trkpt><trkpt lat="28.46495292116304" lon="-11.160121809041211"><ele>191.0</ele><time>2026-04-29T09:13:55Z</time></trkpt><trkpt lat="28.46481379692805" lon="-11.160125092521888"><ele>191.0</ele><time>2026-04-29T09:13:56Z</time></trkpt><trkpt lat="28.464674957838106" lon="-11.160129848621299"><ele>191.4</ele><time>2026-04-29T09:13:57Z</time></trkpt><trkpt lat="28.46454452042053" lon="-11.160133664482043"><ele>191.8</ele><time>2026-04-29T09:13:58Z</time></trkpt><trkpt lat="28.46443449232634" lon="-11.160139171810622"><ele>192.20000000000002</ele><time>2026-04-29T09:13:59Z</time></trkpt><trkpt lat="28.464345823292287" lon="-11.160142875526816"><ele>192.60000000000002</ele><time>2026-04-29T09:14:00Z</time></trkpt><trkpt lat="28.464241845034227" lon="-11.160147577843674"><ele>193.0</ele><time>2026-04-29T09:14:02Z</time></trkpt><trkpt lat="28.464165236622154" lon="-11.16015135502372"><ele>193.0</ele><time>2026-04-29T09:14:05Z</time></trkpt><trkpt lat="28.464095097733026" lon="-11.160158978858599"><ele>193.0</ele><time>2026-04-29T09:14:07Z</time></trkpt><trkpt lat="28.464027127431443" lon="-11.16017539859749"><ele>193.0</ele><time>2026-04-29T09:14:08Z</time></trkpt><trkpt lat="28.463934154362352" lon="-11.160191377303788"><ele>193.0</ele><time>2026-04-29T09:14:09Z</time></trkpt><trkpt lat="28.463804932686582" lon="-11.160195309821187"><ele>193.0</ele><time>2026-04-29T09:14:10Z</time></trkpt><trkpt lat="28.46365842459501" lon="-11.160198050580764"><ele>192.33333333333331</ele><time>2026-04-29T09:14:11Z</time></trkpt><trkpt lat="28.463503056623914" lon="-11.160198660416931"><ele>191.66666666666666</ele><time>2026-04-29T09:14:12Z</time></trkpt><trkpt lat="28.46331930063167" lon="-11.160196003633827"><ele>191.0</ele><time>2026-04-29T09:14:13Z</time></trkpt><trkpt lat="28.463120584984498" lon="-11.160202946320839"><ele>191.66666666666666</ele><time>2026-04-29T09:14:14Z</time></trkpt><trkpt lat="28.462933690595804" lon="-11.160199162366863"><ele>192.33333333333331</ele><time>2026-04-29T09:14:15Z</time></trkpt><trkpt lat="28.46273882530669" lon="-11.160183860758801"><ele>193.0</ele><time>2026-04-29T09:14:16Z</time></trkpt><trkpt lat="28.46252944662619" lon="-11.160188441372146"><ele>193.0</ele><time>2026-04-29T09:14:17Z</time></trkpt><trkpt lat="28.46231736733095" lon="-11.160195955600177"><ele>193.0</ele><time>2026-04-29T09:14:18Z</time></trkpt><trkpt lat="28.462086955657412" lon="-11.160205837687846"><ele>193.0</ele><time>2026-04-29T09:14:19Z</time></trkpt><trkpt lat="28.461850221711586" lon="-11.160235793350752"><ele>193.0</ele><time>2026-04-29T09:14:20Z</time></trkpt><trkpt lat="28.46160566035301" lon="-11.160274026148608"><ele>193.0</ele><time>2026-04-29T09:14:21Z</time></trkpt><trkpt lat="28.46136306301858" lon="-11.160332894605366"><ele>191.5</ele><time>2026-04-29T09:14:22Z</time></trkpt><trkpt lat="28.461111890955657" lon="-11.16040635989669"><ele>190.0</ele><time>2026-04-29T09:14:23Z</time></trkpt><trkpt lat="28.46085479444149" lon="-11.160498278795718"><ele>190.0</ele><time>2026-04-29T09:14:24Z</time></trkpt><trkpt lat="28.460599103767223" lon="-11.160614855629596"><ele>190.0</ele><time>2026-04-29T09:14:25Z</time></trkpt><trkpt lat="28.460344895094433" lon="-11.160758621241836"><ele>191.5</ele><time>2026-04-29T09:14:26Z</time></trkpt><trkpt lat="28.460089468219955" lon="-11.160908884857545"><ele>193.0</ele><time>2026-04-29T09:14:27Z</time></trkpt><trkpt lat="28.45982422717854" lon="-11.161064921991724"><ele>192.5</ele><time>2026-04-29T09:14:28Z</time></trkpt><trkpt lat="28.459556052470035" lon="-11.161222122570328"><ele>192.0</ele><time>2026-04-29T09:14:29Z</time></trkpt><trkpt lat="28.459284869036924" lon="-11.161380899148755"><ele>192.0</ele><time>2026-04-29T09:14:30Z</time></trkpt><trkpt lat="28.45901411600033" lon="-11.161539453471832"><ele>192.0</ele><time>2026-04-29T09:14:31Z</time></trkpt><trkpt lat="28.45874737422152" lon="-11.161695928238037"><ele>192.0</ele><time>2026-04-29T09:14:32Z</time></trkpt><trkpt lat="28.458482465113768" lon="-11.161851327923857"><ele>192.0</ele><time>2026-04-29T09:14:33Z</time></trkpt><trkpt lat="28.45821894404598" lon="-11.162005913373463"><ele>192.0</ele><time>2026-04-29T09:14:34Z</time></trkpt><trkpt lat="28.45796134543859" lon="-11.162158580068828"><ele>192.0</ele><time>2026-04-29T09:14:35Z</time></trkpt><trkpt lat="28.457717006974942" lon="-11.162303521575216"><ele>193.0</ele><time>2026-04-29T09:14:36Z</time></trkpt><trkpt lat="28.457492949276137" lon="-11.162436432540481"><ele>194.0</ele><time>2026-04-29T09:14:37Z</time></trkpt><trkpt lat="28.457277907173786" lon="-11.16256399544569"><ele>194.5</ele><time>2026-04-29T09:14:38Z</time></trkpt><trkpt lat="28.457068642082785" lon="-11.162688130700953"><ele>195.0</ele><time>2026-04-29T09:14:39Z</time></trkpt><trkpt lat="28.45685455419186" lon="-11.162815127556563"><ele>195.0</ele><time>2026-04-29T09:14:40Z</time></trkpt><trkpt lat="28.45663685789636" lon="-11.162943958206355"><ele>195.0</ele><time>2026-04-29T09:14:41Z</time></trkpt><trkpt lat="28.45641542574558" lon="-11.16307484929549"><ele>195.0</ele><time>2026-04-29T09:14:42Z</time></trkpt><trkpt lat="28.456191273505482" lon="-11.163207348236538"><ele>195.0</ele><time>2026-04-29T09:14:43Z</time></trkpt><trkpt lat="28.45597058142119" lon="-11.163337801844861"><ele>195.0</ele><time>2026-04-29T09:14:44Z</time></trkpt><trkpt lat="28.45575009078203" lon="-11.163468136395934"><ele>195.0</ele><time>2026-04-29T09:14:45Z</time></trkpt><trkpt lat="28.455532315148503" lon="-11.163596866060805"><ele>195.5</ele><time>2026-04-29T09:14:46Z</time></trkpt><trkpt lat="28.455310531195572" lon="-11.163723437655106"><ele>196.0</ele><time>2026-04-29T09:14:47Z</time></trkpt><trkpt lat="28.45509037404737" lon="-11.163846301838545"><ele>196.0</ele><time>2026-04-29T09:14:48Z</time></trkpt><trkpt lat="28.454873308926206" lon="-11.163971997449856"><ele>196.0</ele><time>2026-04-29T09:14:49Z</time></trkpt><trkpt lat="28.45465760052922" lon="-11.164101947123156"><ele>197.0</ele><time>2026-04-29T09:14:50Z</time></trkpt><trkpt lat="28.454441675218916" lon="-11.164231712364568"><ele>198.0</ele><time>2026-04-29T09:14:51Z</time></trkpt><trkpt lat="28.454230523491795" lon="-11.164358543903445"><ele>198.0</ele><time>2026-04-29T09:14:52Z</time></trkpt><trkpt lat="28.454026220428815" lon="-11.164481261686673"><ele>198.0</ele><time>2026-04-29T09:14:53Z</time></trkpt><trkpt lat="28.453831546919258" lon="-11.164598195337804"><ele>197.0</ele><time>2026-04-29T09:14:54Z</time></trkpt><trkpt lat="28.453629848538814" lon="-11.164719348576318"><ele>196.0</ele><time>2026-04-29T09:14:55Z</time></trkpt><trkpt lat="28.453428207495055" lon="-11.16484045242412"><ele>196.0</ele><time>2026-04-29T09:14:56Z</time></trkpt><trkpt lat="28.453225208275008" lon="-11.164962232303878"><ele>196.0</ele><time>2026-04-29T09:14:57Z</time></trkpt><trkpt lat="28.4530211867209" lon="-11.165084625492671"><ele>195.5</ele><time>2026-04-29T09:14:58Z</time></trkpt><trkpt lat="28.452816063535113" lon="-11.165207679542393"><ele>195.0</ele><time>2026-04-29T09:14:59Z</time></trkpt><trkpt lat="28.45261071404365" lon="-11.165330869356119"><ele>195.0</ele><time>2026-04-29T09:15:00Z</time></trkpt><trkpt lat="28.452407457476543" lon="-11.165452856416874"><ele>195.0</ele><time>2026-04-29T09:15:01Z</time></trkpt><trkpt lat="28.45220471213239" lon="-11.165574347921357"><ele>195.0</ele><time>2026-04-29T09:15:02Z</time></trkpt><trkpt lat="28.45199862667769" lon="-11.16569484781505"><ele>195.0</ele><time>2026-04-29T09:15:03Z</time></trkpt><trkpt lat="28.451793728784647" lon="-11.165814653702913"><ele>195.0</ele><time>2026-04-29T09:15:04Z</time></trkpt><trkpt lat="28.451588766462073" lon="-11.16593491868848"><ele>195.0</ele><time>2026-04-29T09:15:05Z</time></trkpt><trkpt lat="28.451385134721672" lon="-11.166054847549098"><ele>196.5</ele><time>2026-04-29T09:15:06Z</time></trkpt><trkpt lat="28.451181333010226" lon="-11.166174818607168"><ele>198.0</ele><time>2026-04-29T09:15:07Z</time></trkpt><trkpt lat="28.450974737429814" lon="-11.16629555500698"><ele>198.0</ele><time>2026-04-29T09:15:08Z</time></trkpt><trkpt lat="28.45076492429925" lon="-11.166418171797277"><ele>198.0</ele><time>2026-04-29T09:15:09Z</time></trkpt><trkpt lat="28.45055127478234" lon="-11.166543030615554"><ele>197.0</ele><time>2026-04-29T09:15:10Z</time></trkpt><trkpt lat="28.450326441193365" lon="-11.166656783152407"><ele>196.0</ele><time>2026-04-29T09:15:11Z</time></trkpt><trkpt lat="28.450109713231104" lon="-11.16680747914506"><ele>196.0</ele><time>2026-04-29T09:15:12Z</time></trkpt><trkpt lat="28.44988373646682" lon="-11.166942064068833"><ele>196.0</ele><time>2026-04-29T09:15:13Z</time></trkpt><trkpt lat="28.44966014244635" lon="-11.167073745874644"><ele>196.5</ele><time>2026-04-29T09:15:14Z</time></trkpt><trkpt lat="28.4494390938948" lon="-11.167202792830288"><ele>197.0</ele><time>2026-04-29T09:15:15Z</time></trkpt><trkpt lat="28.449218738345767" lon="-11.167331436255031"><ele>197.0</ele><time>2026-04-29T09:15:16Z</time></trkpt><trkpt lat="28.448997972068074" lon="-11.167460319833003"><ele>197.0</ele><time>2026-04-29T09:15:17Z</time></trkpt><trkpt lat="28.448773634196233" lon="-11.167573107030236"><ele>196.5</ele><time>2026-04-29T09:15:18Z</time></trkpt><trkpt lat="28.44855549397347" lon="-11.16769964819747"><ele>196.0</ele><time>2026-04-29T09:15:19Z</time></trkpt><trkpt lat="28.448340382651168" lon="-11.167823945872493"><ele>196.0</ele><time>2026-04-29T09:15:20Z</time></trkpt><trkpt lat="28.448125882565236" lon="-11.167949870539363"><ele>196.0</ele><time>2026-04-29T09:15:21Z</time></trkpt><trkpt lat="28.447913925904576" lon="-11.16807387182247"><ele>197.0</ele><time>2026-04-29T09:15:22Z</time></trkpt><trkpt lat="28.44770168751204" lon="-11.168199455709324"><ele>198.0</ele><time>2026-04-29T09:15:23Z</time></trkpt><trkpt lat="28.447482237763182" lon="-11.168330015709392"><ele>198.0</ele><time>2026-04-29T09:15:24Z</time></trkpt><trkpt lat="28.447260434797037" lon="-11.168462710112562"><ele>198.0</ele><time>2026-04-29T09:15:25Z</time></trkpt><trkpt lat="28.44704190203919" lon="-11.168594434043033"><ele>198.0</ele><time>2026-04-29T09:15:26Z</time></trkpt><trkpt lat="28.446819233059987" lon="-11.168726284269884"><ele>198.0</ele><time>2026-04-29T09:15:27Z</time></trkpt><trkpt lat="28.446596527402118" lon="-11.168856535913598"><ele>198.0</ele><time>2026-04-29T09:15:28Z</time></trkpt><trkpt lat="28.446387758117215" lon="-11.16897832285152"><ele>198.0</ele><time>2026-04-29T09:15:29Z</time></trkpt><trkpt lat="28.446190013529645" lon="-11.169094032511868"><ele>198.0</ele><time>2026-04-29T09:15:30Z</time></trkpt><trkpt lat="28.446003162027907" lon="-11.169208507606935"><ele>198.0</ele><time>2026-04-29T09:15:31Z</time></trkpt><trkpt lat="28.44581242420628" lon="-11.169325283904838"><ele>198.0</ele><time>2026-04-29T09:15:32Z</time></trkpt><trkpt lat="28.445615985518597" lon="-11.169445134836751"><ele>197.5</ele><time>2026-04-29T09:15:33Z</time></trkpt><trkpt lat="28.445411717177656" lon="-11.169567454102733"><ele>197.0</ele><time>2026-04-29T09:15:34Z</time></trkpt><trkpt lat="28.445204957107634" lon="-11.169691290033214"><ele>197.0</ele><time>2026-04-29T09:15:35Z</time></trkpt><trkpt lat="28.445003787629226" lon="-11.169810011124946"><ele>197.0</ele><time>2026-04-29T09:15:36Z</time></trkpt><trkpt lat="28.44480092700802" lon="-11.169931763047048"><ele>197.33333333333334</ele><time>2026-04-29T09:15:37Z</time></trkpt><trkpt lat="28.444605740509306" lon="-11.17004779283337"><ele>197.66666666666669</ele><time>2026-04-29T09:15:38Z</time></trkpt><trkpt lat="28.44440826185088" lon="-11.170167030932653"><ele>198.0</ele><time>2026-04-29T09:15:39Z</time></trkpt><trkpt lat="28.44421325021515" lon="-11.170285808435985"><ele>198.0</ele><time>2026-04-29T09:15:40Z</time></trkpt><trkpt lat="28.44401700296185" lon="-11.170405334142155"><ele>198.0</ele><time>2026-04-29T09:15:41Z</time></trkpt><trkpt lat="28.443820671643138" lon="-11.170525163726143"><ele>198.0</ele><time>2026-04-29T09:15:42Z</time></trkpt><trkpt lat="28.443624615377534" lon="-11.170641615872412"><ele>198.0</ele><time>2026-04-29T09:15:43Z</time></trkpt><trkpt lat="28.44342535085404" lon="-11.170761579684523"><ele>198.0</ele><time>2026-04-29T09:15:44Z</time></trkpt><trkpt lat="28.443224011077017" lon="-11.170883587329756"><ele>198.0</ele><time>2026-04-29T09:15:45Z</time></trkpt><trkpt lat="28.443021408609773" lon="-11.171006214941162"><ele>198.0</ele><time>2026-04-29T09:15:46Z</time></trkpt><trkpt lat="28.44281938433634" lon="-11.171126571433826"><ele>197.5</ele><time>2026-04-29T09:15:47Z</time></trkpt><trkpt lat="28.442618858573248" lon="-11.171245417097095"><ele>197.0</ele><time>2026-04-29T09:15:48Z</time></trkpt><trkpt lat="28.442420996707433" lon="-11.171364081804576"><ele>197.0</ele><time>2026-04-29T09:15:49Z</time></trkpt><trkpt lat="28.442222846579497" lon="-11.171485700276943"><ele>197.0</ele><time>2026-04-29T09:15:50Z</time></trkpt><trkpt lat="28.442023086587604" lon="-11.171606429667506"><ele>196.66666666666669</ele><time>2026-04-29T09:15:51Z</time></trkpt><trkpt lat="28.441823731739703" lon="-11.171726757340073"><ele>196.33333333333331</ele><time>2026-04-29T09:15:52Z</time></trkpt><trkpt lat="28.441626900532572" lon="-11.17184628242232"><ele>196.0</ele><time>2026-04-29T09:15:53Z</time></trkpt><trkpt lat="28.441426409695513" lon="-11.171966858468574"><ele>195.5</ele><time>2026-04-29T09:15:54Z</time></trkpt><trkpt lat="28.441224666043787" lon="-11.172086994567971"><ele>195.0</ele><time>2026-04-29T09:15:55Z</time></trkpt><trkpt lat="28.441023521352484" lon="-11.172207676114395"><ele>195.0</ele><time>2026-04-29T09:15:56Z</time></trkpt><trkpt lat="28.440823492112173" lon="-11.172328733202068"><ele>195.0</ele><time>2026-04-29T09:15:57Z</time></trkpt><trkpt lat="28.44061993176338" lon="-11.172447869438908"><ele>195.5</ele><time>2026-04-29T09:15:58Z</time></trkpt><trkpt lat="28.440417551150514" lon="-11.172568937802628"><ele>196.0</ele><time>2026-04-29T09:15:59Z</time></trkpt><trkpt lat="28.44021582132641" lon="-11.172689840488955"><ele>196.0</ele><time>2026-04-29T09:16:00Z</time></trkpt><trkpt lat="28.440010147474403" lon="-11.172812104899167"><ele>196.0</ele><time>2026-04-29T09:16:01Z</time></trkpt><trkpt lat="28.439803286812623" lon="-11.172937440074854"><ele>195.5</ele><time>2026-04-29T09:16:02Z</time></trkpt><trkpt lat="28.43959728291169" lon="-11.17306221162326"><ele>195.0</ele><time>2026-04-29T09:16:03Z</time></trkpt><trkpt lat="28.439391411988343" lon="-11.173185336532859"><ele>194.5</ele><time>2026-04-29T09:16:04Z</time></trkpt><trkpt lat="28.439184834415503" lon="-11.17330783085921"><ele>194.0</ele><time>2026-04-29T09:16:05Z</time></trkpt><trkpt lat="28.438979323522936" lon="-11.173429270423643"><ele>193.5</ele><time>2026-04-29T09:16:06Z</time></trkpt><trkpt lat="28.43877692814694" lon="-11.17355008056335"><ele>193.0</ele><time>2026-04-29T09:16:07Z</time></trkpt><trkpt lat="28.438578016543005" lon="-11.173668652746422"><ele>193.0</ele><time>2026-04-29T09:16:08Z</time></trkpt><trkpt lat="28.438379174503563" lon="-11.173787392328247"><ele>193.0</ele><time>2026-04-29T09:16:09Z</time></trkpt><trkpt lat="28.438179233040685" lon="-11.173904419699653"><ele>193.0</ele><time>2026-04-29T09:16:10Z</time></trkpt><trkpt lat="28.43798177110254" lon="-11.174020472685205"><ele>194.0</ele><time>2026-04-29T09:16:11Z</time></trkpt><trkpt lat="28.43778216166686" lon="-11.174140917343221"><ele>195.0</ele><time>2026-04-29T09:16:12Z</time></trkpt><trkpt lat="28.43758878928514" lon="-11.174259077149028"><ele>196.0</ele><time>2026-04-29T09:16:13Z</time></trkpt><trkpt lat="28.437390546351647" lon="-11.174379699368323"><ele>196.0</ele><time>2026-04-29T09:16:14Z</time></trkpt><trkpt lat="28.437191010297514" lon="-11.174501678026372"><ele>196.0</ele><time>2026-04-29T09:16:15Z</time></trkpt><trkpt lat="28.436992999188707" lon="-11.174622706953322"><ele>196.0</ele><time>2026-04-29T09:16:16Z</time></trkpt><trkpt lat="28.43679560118201" lon="-11.174741835585243"><ele>196.0</ele><time>2026-04-29T09:16:17Z</time></trkpt><trkpt lat="28.43659724105737" lon="-11.174861692561864"><ele>196.0</ele><time>2026-04-29T09:16:18Z</time></trkpt><trkpt lat="28.436396817634343" lon="-11.174982590648508"><ele>196.0</ele><time>2026-04-29T09:16:19Z</time></trkpt><trkpt lat="28.43619569375702" lon="-11.175102526305956"><ele>196.0</ele><time>2026-04-29T09:16:20Z</time></trkpt><trkpt lat="28.43599136571474" lon="-11.175225369853575"><ele>196.0</ele><time>2026-04-29T09:16:21Z</time></trkpt><trkpt lat="28.43578868501428" lon="-11.175346218357149"><ele>196.0</ele><time>2026-04-29T09:16:22Z</time></trkpt><trkpt lat="28.435583643604325" lon="-11.175467170305183"><ele>196.0</ele><time>2026-04-29T09:16:23Z</time></trkpt><trkpt lat="28.435392823871442" lon="-11.175622116544048"><ele>196.0</ele><time>2026-04-29T09:16:24Z</time></trkpt><trkpt lat="28.435184652886633" lon="-11.175746753505354"><ele>196.0</ele><time>2026-04-29T09:16:25Z</time></trkpt><trkpt lat="28.434977974018114" lon="-11.175870685809759"><ele>196.0</ele><time>2026-04-29T09:16:26Z</time></trkpt><trkpt lat="28.434770921995433" lon="-11.17599484199092"><ele>195.0</ele><time>2026-04-29T09:16:27Z</time></trkpt><trkpt lat="28.434558801344473" lon="-11.176122037444971"><ele>194.0</ele><time>2026-04-29T09:16:28Z</time></trkpt><trkpt lat="28.434348565586948" lon="-11.176248102769732"><ele>194.0</ele><time>2026-04-29T09:16:29Z</time></trkpt><trkpt lat="28.434139450718675" lon="-11.176374100828813"><ele>194.0</ele><time>2026-04-29T09:16:30Z</time></trkpt><trkpt lat="28.43393123763763" lon="-11.176499445123966"><ele>195.0</ele><time>2026-04-29T09:16:31Z</time></trkpt><trkpt lat="28.433721955482074" lon="-11.176625191401932"><ele>196.0</ele><time>2026-04-29T09:16:32Z</time></trkpt><trkpt lat="28.43351339979699" lon="-11.17675031468004"><ele>196.0</ele><time>2026-04-29T09:16:33Z</time></trkpt><trkpt lat="28.433310375671404" lon="-11.176872045676491"><ele>196.0</ele><time>2026-04-29T09:16:34Z</time></trkpt><trkpt lat="28.433100066631884" lon="-11.176998144700926"><ele>195.5</ele><time>2026-04-29T09:16:35Z</time></trkpt><trkpt lat="28.432884665731862" lon="-11.177127336069002"><ele>195.0</ele><time>2026-04-29T09:16:36Z</time></trkpt><trkpt lat="28.432666662572085" lon="-11.17725819071533"><ele>195.5</ele><time>2026-04-29T09:16:37Z</time></trkpt><trkpt lat="28.432450035221798" lon="-11.177387822512236"><ele>196.0</ele><time>2026-04-29T09:16:38Z</time></trkpt><trkpt lat="28.432237738643934" lon="-11.17751551101523"><ele>196.5</ele><time>2026-04-29T09:16:39Z</time></trkpt><trkpt lat="28.432029964657765" lon="-11.17764047950915"><ele>197.0</ele><time>2026-04-29T09:16:40Z</time></trkpt><trkpt lat="28.43182183144601" lon="-11.177765664014567"><ele>197.0</ele><time>2026-04-29T09:16:41Z</time></trkpt><trkpt lat="28.431617361286246" lon="-11.177888645247181"><ele>197.0</ele><time>2026-04-29T09:16:42Z</time></trkpt><trkpt lat="28.431416703874596" lon="-11.178009333539535"><ele>198.0</ele><time>2026-04-29T09:16:43Z</time></trkpt><trkpt lat="28.43121967596328" lon="-11.178127838430374"><ele>199.0</ele><time>2026-04-29T09:16:44Z</time></trkpt><trkpt lat="28.431019212356077" lon="-11.178248409236529"><ele>199.0</ele><time>2026-04-29T09:16:45Z</time></trkpt><trkpt lat="28.430816604090563" lon="-11.178369594927785"><ele>199.0</ele><time>2026-04-29T09:16:46Z</time></trkpt><trkpt lat="28.43061557870069" lon="-11.178487280824292"><ele>200.5</ele><time>2026-04-29T09:16:47Z</time></trkpt><trkpt lat="28.430411174380108" lon="-11.178606331858166"><ele>202.0</ele><time>2026-04-29T09:16:48Z</time></trkpt><trkpt lat="28.430203461704707" lon="-11.178718392680643"><ele>202.0</ele><time>2026-04-29T09:16:49Z</time></trkpt><trkpt lat="28.42999567238046" lon="-11.178828953771834"><ele>202.0</ele><time>2026-04-29T09:16:50Z</time></trkpt><trkpt lat="28.429778761381684" lon="-11.178933682817274"><ele>201.0</ele><time>2026-04-29T09:16:51Z</time></trkpt><trkpt lat="28.429565397152086" lon="-11.179024181676345"><ele>200.0</ele><time>2026-04-29T09:16:52Z</time></trkpt><trkpt lat="28.429347180391414" lon="-11.17910912216222"><ele>200.0</ele><time>2026-04-29T09:16:53Z</time></trkpt><trkpt lat="28.429134016968437" lon="-11.17917686508625"><ele>200.0</ele><time>2026-04-29T09:16:54Z</time></trkpt><trkpt lat="28.42892313086289" lon="-11.179243884344165"><ele>200.0</ele><time>2026-04-29T09:16:55Z</time></trkpt><trkpt lat="28.42870613321162" lon="-11.17930254180999"><ele>200.0</ele><time>2026-04-29T09:16:56Z</time></trkpt><trkpt lat="28.42847893976354" lon="-11.179357703076157"><ele>200.0</ele><time>2026-04-29T09:16:57Z</time></trkpt><trkpt lat="28.428246217363633" lon="-11.179406009478159"><ele>200.0</ele><time>2026-04-29T09:16:58Z</time></trkpt><trkpt lat="28.428010900375924" lon="-11.179441382611373"><ele>200.0</ele><time>2026-04-29T09:16:59Z</time></trkpt><trkpt lat="28.42777844608031" lon="-11.179465260090772"><ele>200.0</ele><time>2026-04-29T09:17:00Z</time></trkpt><trkpt lat="28.42754264730053" lon="-11.179478081293205"><ele>200.0</ele><time>2026-04-29T09:17:01Z</time></trkpt><trkpt lat="28.427310200145097" lon="-11.179480211074926"><ele>200.0</ele><time>2026-04-29T09:17:02Z</time></trkpt><trkpt lat="28.427079648415567" lon="-11.17947679510572"><ele>200.0</ele><time>2026-04-29T09:17:03Z</time></trkpt><trkpt lat="28.426850572590997" lon="-11.17947009940202"><ele>200.0</ele><time>2026-04-29T09:17:04Z</time></trkpt><trkpt lat="28.42661934845108" lon="-11.179439795043926"><ele>200.0</ele><time>2026-04-29T09:17:05Z</time></trkpt><trkpt lat="28.426392950818688" lon="-11.179407684766835"><ele>199.5</ele><time>2026-04-29T09:17:06Z</time></trkpt><trkpt lat="28.426165630295824" lon="-11.179369919530165"><ele>199.0</ele><time>2026-04-29T09:17:07Z</time></trkpt><trkpt lat="28.42594406942699" lon="-11.179305864832457"><ele>199.0</ele><time>2026-04-29T09:17:08Z</time></trkpt><trkpt lat="28.425725907593495" lon="-11.179252931520535"><ele>199.0</ele><time>2026-04-29T09:17:09Z</time></trkpt><trkpt lat="28.42550523392694" lon="-11.179201682658809"><ele>199.0</ele><time>2026-04-29T09:17:10Z</time></trkpt><trkpt lat="28.425284118051078" lon="-11.17915706399988"><ele>200.0</ele><time>2026-04-29T09:17:11Z</time></trkpt><trkpt lat="28.42506194986331" lon="-11.179111272826427"><ele>201.0</ele><time>2026-04-29T09:17:12Z</time></trkpt><trkpt lat="28.424841760362053" lon="-11.179059753150852"><ele>201.5</ele><time>2026-04-29T09:17:13Z</time></trkpt><trkpt lat="28.424616554136133" lon="-11.179010447460524"><ele>202.0</ele><time>2026-04-29T09:17:14Z</time></trkpt><trkpt lat="28.4243837983066" lon="-11.178965368004375"><ele>202.0</ele><time>2026-04-29T09:17:15Z</time></trkpt><trkpt lat="28.424143454006717" lon="-11.17891844530862"><ele>202.0</ele><time>2026-04-29T09:17:16Z</time></trkpt><trkpt lat="28.423898746880962" lon="-11.17886602508188"><ele>202.5</ele><time>2026-04-29T09:17:17Z</time></trkpt><trkpt lat="28.423659318927122" lon="-11.178814423851033"><ele>203.0</ele><time>2026-04-29T09:17:18Z</time></trkpt><trkpt lat="28.423424159201996" lon="-11.178763879705198"><ele>203.0</ele><time>2026-04-29T09:17:19Z</time></trkpt><trkpt lat="28.423189313075227" lon="-11.178712794322836"><ele>203.0</ele><time>2026-04-29T09:17:20Z</time></trkpt><trkpt lat="28.422953987644803" lon="-11.178661746863453"><ele>203.5</ele><time>2026-04-29T09:17:21Z</time></trkpt><trkpt lat="28.422713005948193" lon="-11.178611303943963"><ele>204.0</ele><time>2026-04-29T09:17:22Z</time></trkpt><trkpt lat="28.42247315697749" lon="-11.178562004865158"><ele>204.0</ele><time>2026-04-29T09:17:23Z</time></trkpt><trkpt lat="28.422237611743814" lon="-11.17851279652013"><ele>204.0</ele><time>2026-04-29T09:17:24Z</time></trkpt><trkpt lat="28.42200491557608" lon="-11.178463982452127"><ele>203.0</ele><time>2026-04-29T09:17:25Z</time></trkpt><trkpt lat="28.421775958608393" lon="-11.178415614315078"><ele>202.0</ele><time>2026-04-29T09:17:26Z</time></trkpt><trkpt lat="28.421547295639666" lon="-11.17836435701174"><ele>202.0</ele><time>2026-04-29T09:17:27Z</time></trkpt><trkpt lat="28.421322721298463" lon="-11.178317330391039"><ele>202.0</ele><time>2026-04-29T09:17:28Z</time></trkpt><trkpt lat="28.42109715042588" lon="-11.178269436941862"><ele>202.5</ele><time>2026-04-29T09:17:29Z</time></trkpt><trkpt lat="28.42087325576261" lon="-11.178221313260813"><ele>203.0</ele><time>2026-04-29T09:17:30Z</time></trkpt><trkpt lat="28.420647807346" lon="-11.178173121118716"><ele>203.5</ele><time>2026-04-29T09:17:31Z</time></trkpt><trkpt lat="28.420418913876347" lon="-11.178125234908478"><ele>204.0</ele><time>2026-04-29T09:17:32Z</time></trkpt><trkpt lat="28.42018178545681" lon="-11.178075456437568"><ele>204.0</ele><time>2026-04-29T09:17:33Z</time></trkpt><trkpt lat="28.419942998322643" lon="-11.178026702943713"><ele>204.0</ele><time>2026-04-29T09:17:34Z</time></trkpt><trkpt lat="28.419706290256325" lon="-11.177977142406219"><ele>204.5</ele><time>2026-04-29T09:17:35Z</time></trkpt><trkpt lat="28.41947320223476" lon="-11.17792571181238"><ele>205.0</ele><time>2026-04-29T09:17:36Z</time></trkpt><trkpt lat="28.41924063977002" lon="-11.177876293577937"><ele>205.0</ele><time>2026-04-29T09:17:37Z</time></trkpt><trkpt lat="28.419008936805252" lon="-11.17782746392623"><ele>205.0</ele><time>2026-04-29T09:17:38Z</time></trkpt><trkpt lat="28.418778032350342" lon="-11.177779107276468"><ele>204.5</ele><time>2026-04-29T09:17:39Z</time></trkpt><trkpt lat="28.418543734674376" lon="-11.177732107577743"><ele>204.0</ele><time>2026-04-29T09:17:40Z</time></trkpt><trkpt lat="28.418306396290845" lon="-11.177681772811596"><ele>204.0</ele><time>2026-04-29T09:17:41Z</time></trkpt><trkpt lat="28.418069508766298" lon="-11.177630661363894"><ele>204.0</ele><time>2026-04-29T09:17:42Z</time></trkpt><trkpt lat="28.417829496670738" lon="-11.177579190906398"><ele>204.5</ele><time>2026-04-29T09:17:43Z</time></trkpt><trkpt lat="28.417590767397815" lon="-11.177529071684985"><ele>205.0</ele><time>2026-04-29T09:17:44Z</time></trkpt><trkpt lat="28.41735742552504" lon="-11.177478642513009"><ele>205.5</ele><time>2026-04-29T09:17:45Z</time></trkpt><trkpt lat="28.417118037117486" lon="-11.17742534510138"><ele>206.0</ele><time>2026-04-29T09:17:46Z</time></trkpt><trkpt lat="28.416883829733923" lon="-11.17737836946995"><ele>206.0</ele><time>2026-04-29T09:17:47Z</time></trkpt><trkpt lat="28.41664957890326" lon="-11.177330282739865"><ele>206.0</ele><time>2026-04-29T09:17:48Z</time></trkpt><trkpt lat="28.416416917777465" lon="-11.177280817806999"><ele>206.5</ele><time>2026-04-29T09:17:49Z</time></trkpt><trkpt lat="28.41618815092006" lon="-11.177232556769168"><ele>207.0</ele><time>2026-04-29T09:17:50Z</time></trkpt><trkpt lat="28.41595676596397" lon="-11.177183187859129"><ele>207.0</ele><time>2026-04-29T09:17:51Z</time></trkpt><trkpt lat="28.415726172050903" lon="-11.177132886929794"><ele>207.0</ele><time>2026-04-29T09:17:52Z</time></trkpt><trkpt lat="28.415498142992927" lon="-11.17708123955436"><ele>206.5</ele><time>2026-04-29T09:17:53Z</time></trkpt><trkpt lat="28.415268570514804" lon="-11.177029727819077"><ele>206.0</ele><time>2026-04-29T09:17:54Z</time></trkpt><trkpt lat="28.415038395655163" lon="-11.176979668047483"><ele>206.0</ele><time>2026-04-29T09:17:55Z</time></trkpt><trkpt lat="28.414808794080532" lon="-11.17692896711567"><ele>206.0</ele><time>2026-04-29T09:17:56Z</time></trkpt><trkpt lat="28.414576768913616" lon="-11.176880942898391"><ele>206.0</ele><time>2026-04-29T09:17:57Z</time></trkpt><trkpt lat="28.41434302017712" lon="-11.17683146551101"><ele>206.0</ele><time>2026-04-29T09:17:58Z</time></trkpt><trkpt lat="28.414108061041997" lon="-11.176783930810238"><ele>206.0</ele><time>2026-04-29T09:17:59Z</time></trkpt><trkpt lat="28.413873333194427" lon="-11.176734014836333"><ele>206.0</ele><time>2026-04-29T09:18:00Z</time></trkpt><trkpt lat="28.413637789889243" lon="-11.176685172246826"><ele>205.5</ele><time>2026-04-29T09:18:01Z</time></trkpt><trkpt lat="28.413399317727773" lon="-11.176633839960585"><ele>205.0</ele><time>2026-04-29T09:18:02Z</time></trkpt><trkpt lat="28.4131612308949" lon="-11.17658299185414"><ele>205.5</ele><time>2026-04-29T09:18:03Z</time></trkpt><trkpt lat="28.412921841497585" lon="-11.17653106268248"><ele>206.0</ele><time>2026-04-29T09:18:04Z</time></trkpt><trkpt lat="28.41268514205724" lon="-11.176478672962636"><ele>206.5</ele><time>2026-04-29T09:18:05Z</time></trkpt><trkpt lat="28.41244960856848" lon="-11.176428162599612"><ele>207.0</ele><time>2026-04-29T09:18:06Z</time></trkpt><trkpt lat="28.412216177158708" lon="-11.176376580558069"><ele>207.5</ele><time>2026-04-29T09:18:07Z</time></trkpt><trkpt lat="28.411984677375237" lon="-11.176323475108186"><ele>208.0</ele><time>2026-04-29T09:18:08Z</time></trkpt><trkpt lat="28.411752822014314" lon="-11.176273418059285"><ele>208.0</ele><time>2026-04-29T09:18:09Z</time></trkpt><trkpt lat="28.411520158966148" lon="-11.176224767566707"><ele>208.0</ele><time>2026-04-29T09:18:10Z</time></trkpt><trkpt lat="28.411290337653654" lon="-11.176175181518692"><ele>208.5</ele><time>2026-04-29T09:18:11Z</time></trkpt><trkpt lat="28.41106189919951" lon="-11.176125677638318"><ele>209.0</ele><time>2026-04-29T09:18:12Z</time></trkpt><trkpt lat="28.410829549902978" lon="-11.176077756440609"><ele>209.0</ele><time>2026-04-29T09:18:13Z</time></trkpt><trkpt lat="28.41060258164283" lon="-11.17603120410737"><ele>209.0</ele><time>2026-04-29T09:18:14Z</time></trkpt><trkpt lat="28.410372171982836" lon="-11.175982076833392"><ele>209.5</ele><time>2026-04-29T09:18:15Z</time></trkpt><trkpt lat="28.41014430034659" lon="-11.175933305708451"><ele>210.0</ele><time>2026-04-29T09:18:16Z</time></trkpt><trkpt lat="28.409915835807045" lon="-11.175884790678461"><ele>210.0</ele><time>2026-04-29T09:18:17Z</time></trkpt><trkpt lat="28.40968709364747" lon="-11.17583527596235"><ele>210.0</ele><time>2026-04-29T09:18:18Z</time></trkpt><trkpt lat="28.409454546933365" lon="-11.175785829730724"><ele>209.5</ele><time>2026-04-29T09:18:19Z</time></trkpt><trkpt lat="28.409218982260686" lon="-11.175734179792832"><ele>209.0</ele><time>2026-04-29T09:18:20Z</time></trkpt><trkpt lat="28.408979223626666" lon="-11.175681751448323"><ele>209.5</ele><time>2026-04-29T09:18:21Z</time></trkpt><trkpt lat="28.40873813002452" lon="-11.175631250404862"><ele>210.0</ele><time>2026-04-29T09:18:22Z</time></trkpt><trkpt lat="28.408495646558606" lon="-11.175580566534503"><ele>210.0</ele><time>2026-04-29T09:18:23Z</time></trkpt><trkpt lat="28.40825195922775" lon="-11.175529536114091"><ele>210.0</ele><time>2026-04-29T09:18:24Z</time></trkpt><trkpt lat="28.40800965974632" lon="-11.175478018091177"><ele>209.5</ele><time>2026-04-29T09:18:25Z</time></trkpt><trkpt lat="28.407771070533524" lon="-11.175427478408915"><ele>209.0</ele><time>2026-04-29T09:18:26Z</time></trkpt><trkpt lat="28.407533053189272" lon="-11.175375205841718"><ele>209.0</ele><time>2026-04-29T09:18:27Z</time></trkpt><trkpt lat="28.40729681486156" lon="-11.17532538181699"><ele>209.0</ele><time>2026-04-29T09:18:28Z</time></trkpt><trkpt lat="28.407065640764277" lon="-11.175274753317689"><ele>209.5</ele><time>2026-04-29T09:18:29Z</time></trkpt><trkpt lat="28.406831854741867" lon="-11.17522519349167"><ele>210.0</ele><time>2026-04-29T09:18:30Z</time></trkpt><trkpt lat="28.406600500817344" lon="-11.175178804392514"><ele>210.0</ele><time>2026-04-29T09:18:31Z</time></trkpt><trkpt lat="28.406369098186058" lon="-11.17513143186807"><ele>210.0</ele><time>2026-04-29T09:18:32Z</time></trkpt><trkpt lat="28.406136750417346" lon="-11.175082382244328"><ele>210.5</ele><time>2026-04-29T09:18:33Z</time></trkpt><trkpt lat="28.4059018863997" lon="-11.17503404764721"><ele>211.0</ele><time>2026-04-29T09:18:34Z</time></trkpt><trkpt lat="28.405668482844202" lon="-11.174982259696648"><ele>212.0</ele><time>2026-04-29T09:18:35Z</time></trkpt><trkpt lat="28.405433890950064" lon="-11.174928854652606"><ele>213.0</ele><time>2026-04-29T09:18:36Z</time></trkpt><trkpt lat="28.40520105261586" lon="-11.174878500029626"><ele>211.5</ele><time>2026-04-29T09:18:37Z</time></trkpt><trkpt lat="28.404969125035308" lon="-11.174829711686467"><ele>210.0</ele><time>2026-04-29T09:18:38Z</time></trkpt><trkpt lat="28.404732653463004" lon="-11.174777812625655"><ele>210.5</ele><time>2026-04-29T09:18:39Z</time></trkpt><trkpt lat="28.404496633021296" lon="-11.17472763042975"><ele>211.0</ele><time>2026-04-29T09:18:40Z</time></trkpt><trkpt lat="28.404266748578113" lon="-11.174678680752914"><ele>211.0</ele><time>2026-04-29T09:18:41Z</time></trkpt><trkpt lat="28.404037059563716" lon="-11.174628002180253"><ele>211.0</ele><time>2026-04-29T09:18:42Z</time></trkpt><trkpt lat="28.4038083461036" lon="-11.174577429434951"><ele>210.5</ele><time>2026-04-29T09:18:43Z</time></trkpt><trkpt lat="28.403579825088702" lon="-11.174530457203703"><ele>210.0</ele><time>2026-04-29T09:18:44Z</time></trkpt><trkpt lat="28.40335256395782" lon="-11.174485102205084"><ele>210.0</ele><time>2026-04-29T09:18:45Z</time></trkpt><trkpt lat="28.403126979478284" lon="-11.174436613856566"><ele>210.0</ele><time>2026-04-29T09:18:46Z</time></trkpt><trkpt lat="28.402899951883132" lon="-11.174387009438005"><ele>210.5</ele><time>2026-04-29T09:18:47Z</time></trkpt><trkpt lat="28.402669765739113" lon="-11.174334447187269"><ele>211.0</ele><time>2026-04-29T09:18:48Z</time></trkpt><trkpt lat="28.402438006152476" lon="-11.17428261207033"><ele>211.0</ele><time>2026-04-29T09:18:49Z</time></trkpt><trkpt lat="28.40220922982599" lon="-11.174235426506925"><ele>211.0</ele><time>2026-04-29T09:18:50Z</time></trkpt><trkpt lat="28.40197635626488" lon="-11.174187204835333"><ele>211.0</ele><time>2026-04-29T09:18:51Z</time></trkpt><trkpt lat="28.401743239401977" lon="-11.17413867133143"><ele>211.0</ele><time>2026-04-29T09:18:52Z</time></trkpt><trkpt lat="28.401509661272158" lon="-11.174086622462685"><ele>210.5</ele><time>2026-04-29T09:18:53Z</time></trkpt><trkpt lat="28.401283258678415" lon="-11.174036152846277"><ele>210.0</ele><time>2026-04-29T09:18:54Z</time></trkpt><trkpt lat="28.401054821202468" lon="-11.173985343136138"><ele>209.0</ele><time>2026-04-29T09:18:55Z</time></trkpt><trkpt lat="28.40082642489299" lon="-11.173936612072362"><ele>208.0</ele><time>2026-04-29T09:18:56Z</time></trkpt><trkpt lat="28.400593345280047" lon="-11.173906110539367"><ele>208.5</ele><time>2026-04-29T09:18:57Z</time></trkpt><trkpt lat="28.400359070532883" lon="-11.173856431396217"><ele>209.0</ele><time>2026-04-29T09:18:58Z</time></trkpt><trkpt lat="28.400125783783857" lon="-11.173806961784049"><ele>209.0</ele><time>2026-04-29T09:18:59Z</time></trkpt><trkpt lat="28.399894527835446" lon="-11.173738829250963"><ele>209.0</ele><time>2026-04-29T09:19:00Z</time></trkpt><trkpt lat="28.399658771147894" lon="-11.173707929400413"><ele>208.5</ele><time>2026-04-29T09:19:01Z</time></trkpt><trkpt lat="28.3994261374722" lon="-11.173658598252496"><ele>208.0</ele><time>2026-04-29T09:19:02Z</time></trkpt><trkpt lat="28.399190692839674" lon="-11.173609070054983"><ele>208.0</ele><time>2026-04-29T09:19:03Z</time></trkpt><trkpt lat="28.39895795627191" lon="-11.173559890030823"><ele>208.0</ele><time>2026-04-29T09:19:04Z</time></trkpt><trkpt lat="28.39872678962597" lon="-11.173492178965079"><ele>208.0</ele><time>2026-04-29T09:19:05Z</time></trkpt><trkpt lat="28.398491755231195" lon="-11.173464652448397"><ele>208.0</ele><time>2026-04-29T09:19:06Z</time></trkpt><trkpt lat="28.39825452182514" lon="-11.173420281731465"><ele>208.0</ele><time>2026-04-29T09:19:07Z</time></trkpt><trkpt lat="28.398025003415537" lon="-11.173377353951976"><ele>208.0</ele><time>2026-04-29T09:19:08Z</time></trkpt><trkpt lat="28.397792711323063" lon="-11.173333971605247"><ele>207.5</ele><time>2026-04-29T09:19:09Z</time></trkpt><trkpt lat="28.397559704349746" lon="-11.173290460228635"><ele>207.0</ele><time>2026-04-29T09:19:10Z</time></trkpt><trkpt lat="28.397325039942142" lon="-11.173255459375461"><ele>207.5</ele><time>2026-04-29T09:19:11Z</time></trkpt><trkpt lat="28.39709489276675" lon="-11.173230800737448"><ele>208.0</ele><time>2026-04-29T09:19:12Z</time></trkpt><trkpt lat="28.39686697745078" lon="-11.173213176318908"><ele>208.0</ele><time>2026-04-29T09:19:13Z</time></trkpt><trkpt lat="28.396629594934698" lon="-11.173201289922607"><ele>208.0</ele><time>2026-04-29T09:19:14Z</time></trkpt><trkpt lat="28.396390761209354" lon="-11.173197212422144"><ele>208.0</ele><time>2026-04-29T09:19:15Z</time></trkpt><trkpt lat="28.396147119315515" lon="-11.173202773053514"><ele>208.0</ele><time>2026-04-29T09:19:16Z</time></trkpt><trkpt lat="28.39590139357214" lon="-11.173189787103846"><ele>208.0</ele><time>2026-04-29T09:19:17Z</time></trkpt><trkpt lat="28.39565664943465" lon="-11.173236414233376"><ele>208.0</ele><time>2026-04-29T09:19:18Z</time></trkpt><trkpt lat="28.3954086033925" lon="-11.173266029219516"><ele>208.0</ele><time>2026-04-29T09:19:19Z</time></trkpt><trkpt lat="28.395162624554764" lon="-11.173310662466397"><ele>208.0</ele><time>2026-04-29T09:19:20Z</time></trkpt><trkpt lat="28.394920438839527" lon="-11.173355296503473"><ele>208.0</ele><time>2026-04-29T09:19:21Z</time></trkpt><trkpt lat="28.394684040814226" lon="-11.1733988638881"><ele>208.0</ele><time>2026-04-29T09:19:22Z</time></trkpt><trkpt lat="28.394449118639667" lon="-11.173442114387115"><ele>208.0</ele><time>2026-04-29T09:19:23Z</time></trkpt><trkpt lat="28.394212665423854" lon="-11.173481215051515"><ele>208.0</ele><time>2026-04-29T09:19:24Z</time></trkpt><trkpt lat="28.393975291450587" lon="-11.173519774947577"><ele>207.0</ele><time>2026-04-29T09:19:25Z</time></trkpt><trkpt lat="28.393740823506892" lon="-11.173559269137442"><ele>206.0</ele><time>2026-04-29T09:19:26Z</time></trkpt><trkpt lat="28.393511140832807" lon="-11.173597982113739"><ele>206.0</ele><time>2026-04-29T09:19:27Z</time></trkpt><trkpt lat="28.39328261163218" lon="-11.173641060771656"><ele>206.0</ele><time>2026-04-29T09:19:28Z</time></trkpt><trkpt lat="28.393052297994597" lon="-11.173686723833914"><ele>206.5</ele><time>2026-04-29T09:19:29Z</time></trkpt><trkpt lat="28.392823007473876" lon="-11.17373218405188"><ele>207.0</ele><time>2026-04-29T09:19:30Z</time></trkpt><trkpt lat="28.39259406788513" lon="-11.173777574779216"><ele>207.0</ele><time>2026-04-29T09:19:31Z</time></trkpt><trkpt lat="28.39236425318422" lon="-11.173823138877468"><ele>207.0</ele><time>2026-04-29T09:19:32Z</time></trkpt><trkpt lat="28.39213161275163" lon="-11.173868189093211"><ele>208.0</ele><time>2026-04-29T09:19:33Z</time></trkpt><trkpt lat="28.391899986638553" lon="-11.173909947641055"><ele>209.0</ele><time>2026-04-29T09:19:34Z</time></trkpt><trkpt lat="28.3916725289691" lon="-11.17395095464242"><ele>209.0</ele><time>2026-04-29T09:19:35Z</time></trkpt><trkpt lat="28.39144819560513" lon="-11.17399139837537"><ele>209.0</ele><time>2026-04-29T09:19:36Z</time></trkpt><trkpt lat="28.391219775094875" lon="-11.17403257984625"><ele>208.0</ele><time>2026-04-29T09:19:37Z</time></trkpt><trkpt lat="28.390988015098262" lon="-11.17407436356807"><ele>207.0</ele><time>2026-04-29T09:19:38Z</time></trkpt><trkpt lat="28.390748365742542" lon="-11.17411579891518"><ele>207.5</ele><time>2026-04-29T09:19:39Z</time></trkpt><trkpt lat="28.39050465730925" lon="-11.174129698156937"><ele>208.0</ele><time>2026-04-29T09:19:40Z</time></trkpt><trkpt lat="28.390267000028253" lon="-11.174176388524332"><ele>208.0</ele><time>2026-04-29T09:19:41Z</time></trkpt><trkpt lat="28.39002946665927" lon="-11.174218817331951"><ele>208.0</ele><time>2026-04-29T09:19:42Z</time></trkpt><trkpt lat="28.389789574889527" lon="-11.174259055479991"><ele>208.5</ele><time>2026-04-29T09:19:43Z</time></trkpt><trkpt lat="28.389552196842196" lon="-11.174297975777817"><ele>209.0</ele><time>2026-04-29T09:19:44Z</time></trkpt><trkpt lat="28.38931551887526" lon="-11.174338763648425"><ele>209.0</ele><time>2026-04-29T09:19:45Z</time></trkpt><trkpt lat="28.389080889297205" lon="-11.174381300790722"><ele>209.0</ele><time>2026-04-29T09:19:46Z</time></trkpt><trkpt lat="28.388846251360732" lon="-11.1744221491273"><ele>208.5</ele><time>2026-04-29T09:19:47Z</time></trkpt><trkpt lat="28.388611432851878" lon="-11.174464261158194"><ele>208.0</ele><time>2026-04-29T09:19:48Z</time></trkpt><trkpt lat="28.38838325741521" lon="-11.174507340084784"><ele>208.0</ele><time>2026-04-29T09:19:49Z</time></trkpt><trkpt lat="28.388152306861926" lon="-11.174550239832596"><ele>208.0</ele><time>2026-04-29T09:19:50Z</time></trkpt><trkpt lat="28.387926453065187" lon="-11.174590329011323"><ele>208.0</ele><time>2026-04-29T09:19:51Z</time></trkpt><trkpt lat="28.387695868996623" lon="-11.17462941834846"><ele>208.0</ele><time>2026-04-29T09:19:52Z</time></trkpt><trkpt lat="28.387462950397136" lon="-11.174669285564049"><ele>208.0</ele><time>2026-04-29T09:19:53Z</time></trkpt><trkpt lat="28.387226120941616" lon="-11.174711659109605"><ele>208.0</ele><time>2026-04-29T09:19:54Z</time></trkpt><trkpt lat="28.386992017016627" lon="-11.174754257939636"><ele>208.5</ele><time>2026-04-29T09:19:55Z</time></trkpt><trkpt lat="28.386755916471813" lon="-11.17479856908231"><ele>209.0</ele><time>2026-04-29T09:19:56Z</time></trkpt><trkpt lat="28.38651937176005" lon="-11.174842622799641"><ele>209.0</ele><time>2026-04-29T09:19:57Z</time></trkpt><trkpt lat="28.386279085170997" lon="-11.174886835485086"><ele>209.0</ele><time>2026-04-29T09:19:58Z</time></trkpt><trkpt lat="28.38604387995413" lon="-11.17493081388025"><ele>209.0</ele><time>2026-04-29T09:19:59Z</time></trkpt><trkpt lat="28.385817406618845" lon="-11.174971613809728"><ele>209.0</ele><time>2026-04-29T09:20:00Z</time></trkpt><trkpt lat="28.385587057220146" lon="-11.175014293727175"><ele>209.0</ele><time>2026-04-29T09:20:01Z</time></trkpt><trkpt lat="28.385354859924366" lon="-11.175054698038512"><ele>209.0</ele><time>2026-04-29T09:20:02Z</time></trkpt><trkpt lat="28.38512508461438" lon="-11.175095159177822"><ele>209.0</ele><time>2026-04-29T09:20:03Z</time></trkpt><trkpt lat="28.384894887465165" lon="-11.175137739558687"><ele>209.0</ele><time>2026-04-29T09:20:04Z</time></trkpt><trkpt lat="28.384659642319185" lon="-11.175182927625517"><ele>209.5</ele><time>2026-04-29T09:20:05Z</time></trkpt><trkpt lat="28.384421345300904" lon="-11.1752265038985"><ele>210.0</ele><time>2026-04-29T09:20:06Z</time></trkpt><trkpt lat="28.38418685552318" lon="-11.175270697455325"><ele>210.0</ele><time>2026-04-29T09:20:07Z</time></trkpt><trkpt lat="28.38395781335273" lon="-11.175314133972432"><ele>210.0</ele><time>2026-04-29T09:20:08Z</time></trkpt><trkpt lat="28.383726336358727" lon="-11.175354327021214"><ele>209.5</ele><time>2026-04-29T09:20:09Z</time></trkpt><trkpt lat="28.383493566010184" lon="-11.17539364500176"><ele>209.0</ele><time>2026-04-29T09:20:10Z</time></trkpt><trkpt lat="28.38325958324792" lon="-11.17543431264769"><ele>209.0</ele><time>2026-04-29T09:20:11Z</time></trkpt><trkpt lat="28.38302677845444" lon="-11.175477233503498"><ele>209.0</ele><time>2026-04-29T09:20:12Z</time></trkpt><trkpt lat="28.382794954476463" lon="-11.175520851684801"><ele>210.0</ele><time>2026-04-29T09:20:13Z</time></trkpt><trkpt lat="28.382566997716467" lon="-11.175561952118091"><ele>211.0</ele><time>2026-04-29T09:20:14Z</time></trkpt><trkpt lat="28.382335401182562" lon="-11.175606162244986"><ele>210.5</ele><time>2026-04-29T09:20:15Z</time></trkpt><trkpt lat="28.382100654769083" lon="-11.175652058509293"><ele>210.0</ele><time>2026-04-29T09:20:16Z</time></trkpt><trkpt lat="28.381862791792617" lon="-11.175694093404587"><ele>210.0</ele><time>2026-04-29T09:20:17Z</time></trkpt><trkpt lat="28.381628288671592" lon="-11.175736496673727"><ele>210.0</ele><time>2026-04-29T09:20:18Z</time></trkpt><trkpt lat="28.38138904283806" lon="-11.175776734105282"><ele>210.5</ele><time>2026-04-29T09:20:19Z</time></trkpt><trkpt lat="28.38115228892001" lon="-11.175818198912749"><ele>211.0</ele><time>2026-04-29T09:20:20Z</time></trkpt><trkpt lat="28.380919517585156" lon="-11.175859120943544"><ele>211.0</ele><time>2026-04-29T09:20:21Z</time></trkpt><trkpt lat="28.38068540923547" lon="-11.175898627407149"><ele>211.0</ele><time>2026-04-29T09:20:22Z</time></trkpt><trkpt lat="28.380456124997753" lon="-11.175938632104089"><ele>211.5</ele><time>2026-04-29T09:20:23Z</time></trkpt><trkpt lat="28.380226645790906" lon="-11.175975768180729"><ele>212.0</ele><time>2026-04-29T09:20:24Z</time></trkpt><trkpt lat="28.379999074815547" lon="-11.176014670085118"><ele>212.0</ele><time>2026-04-29T09:20:25Z</time></trkpt><trkpt lat="28.379769977730987" lon="-11.176057159508082"><ele>212.0</ele><time>2026-04-29T09:20:26Z</time></trkpt><trkpt lat="28.379543505225875" lon="-11.176101360559715"><ele>212.0</ele><time>2026-04-29T09:20:27Z</time></trkpt><trkpt lat="28.379320632635782" lon="-11.176142976101556"><ele>212.0</ele><time>2026-04-29T09:20:28Z</time></trkpt><trkpt lat="28.379097977967003" lon="-11.176183253408796"><ele>212.0</ele><time>2026-04-29T09:20:29Z</time></trkpt><trkpt lat="28.37887742322772" lon="-11.176221356977283"><ele>212.0</ele><time>2026-04-29T09:20:30Z</time></trkpt><trkpt lat="28.378657359458764" lon="-11.17626230609316"><ele>212.0</ele><time>2026-04-29T09:20:31Z</time></trkpt><trkpt lat="28.378433900317916" lon="-11.17630455807769"><ele>211.66666666666669</ele><time>2026-04-29T09:20:32Z</time></trkpt><trkpt lat="28.378212098038404" lon="-11.176344806086753"><ele>211.33333333333331</ele><time>2026-04-29T09:20:33Z</time></trkpt><trkpt lat="28.377992527821096" lon="-11.176384286779687"><ele>211.0</ele><time>2026-04-29T09:20:34Z</time></trkpt><trkpt lat="28.377777444743735" lon="-11.176417869015932"><ele>211.0</ele><time>2026-04-29T09:20:35Z</time></trkpt><trkpt lat="28.37755472266976" lon="-11.17645620419719"><ele>211.0</ele><time>2026-04-29T09:20:36Z</time></trkpt><trkpt lat="28.37732228356428" lon="-11.176497362206959"><ele>212.0</ele><time>2026-04-29T09:20:37Z</time></trkpt><trkpt lat="28.37706971870174" lon="-11.176543305890247"><ele>213.0</ele><time>2026-04-29T09:20:38Z</time></trkpt><trkpt lat="28.37681792050248" lon="-11.176590318680587"><ele>213.0</ele><time>2026-04-29T09:20:39Z</time></trkpt><trkpt lat="28.376564043366745" lon="-11.176638159094164"><ele>213.0</ele><time>2026-04-29T09:20:40Z</time></trkpt><trkpt lat="28.376304727027392" lon="-11.176685322115128"><ele>211.5</ele><time>2026-04-29T09:20:41Z</time></trkpt><trkpt lat="28.376032725646365" lon="-11.176733480486416"><ele>210.0</ele><time>2026-04-29T09:20:42Z</time></trkpt><trkpt lat="28.375768620979983" lon="-11.176779962379761"><ele>211.0</ele><time>2026-04-29T09:20:43Z</time></trkpt><trkpt lat="28.37550535226683" lon="-11.176827715478364"><ele>212.0</ele><time>2026-04-29T09:20:44Z</time></trkpt><trkpt lat="28.37525604733819" lon="-11.17687372687431"><ele>212.0</ele><time>2026-04-29T09:20:45Z</time></trkpt><trkpt lat="28.37502127929395" lon="-11.176919379061797"><ele>212.0</ele><time>2026-04-29T09:20:46Z</time></trkpt><trkpt lat="28.37477732392358" lon="-11.176963088904795"><ele>212.0</ele><time>2026-04-29T09:20:47Z</time></trkpt><trkpt lat="28.374510944178994" lon="-11.177011244525637"><ele>212.0</ele><time>2026-04-29T09:20:48Z</time></trkpt><trkpt lat="28.374237610228157" lon="-11.17706487384633"><ele>212.0</ele><time>2026-04-29T09:20:49Z</time></trkpt><trkpt lat="28.37398481744671" lon="-11.17711070956245"><ele>212.0</ele><time>2026-04-29T09:20:50Z</time></trkpt><trkpt lat="28.373751050541422" lon="-11.17715437199208"><ele>212.0</ele><time>2026-04-29T09:20:51Z</time></trkpt><trkpt lat="28.373522362633224" lon="-11.17719514653962"><ele>212.0</ele><time>2026-04-29T09:20:52Z</time></trkpt><trkpt lat="28.373283543651574" lon="-11.177236265425535"><ele>212.0</ele><time>2026-04-29T09:20:53Z</time></trkpt><trkpt lat="28.373039197636835" lon="-11.177280815225489"><ele>212.0</ele><time>2026-04-29T09:20:54Z</time></trkpt><trkpt lat="28.372792710519573" lon="-11.177327134893883"><ele>214.0</ele><time>2026-04-29T09:20:55Z</time></trkpt><trkpt lat="28.372544871198205" lon="-11.177371803777934"><ele>216.0</ele><time>2026-04-29T09:20:56Z</time></trkpt><trkpt lat="28.37229536214553" lon="-11.177415650463766"><ele>215.5</ele><time>2026-04-29T09:20:57Z</time></trkpt><trkpt lat="28.372041090172246" lon="-11.177461613355135"><ele>215.0</ele><time>2026-04-29T09:20:58Z</time></trkpt><trkpt lat="28.371790671948514" lon="-11.177509261188161"><ele>215.0</ele><time>2026-04-29T09:20:59Z</time></trkpt><trkpt lat="28.371541448740835" lon="-11.177558285781254"><ele>215.0</ele><time>2026-04-29T09:21:00Z</time></trkpt><trkpt lat="28.371294975043305" lon="-11.177600304276668"><ele>214.5</ele><time>2026-04-29T09:21:01Z</time></trkpt><trkpt lat="28.37104532586098" lon="-11.177645259035563"><ele>214.0</ele><time>2026-04-29T09:21:02Z</time></trkpt><trkpt lat="28.370798322712723" lon="-11.177689564597463"><ele>214.0</ele><time>2026-04-29T09:21:03Z</time></trkpt><trkpt lat="28.370550418989527" lon="-11.177734771535492"><ele>214.0</ele><time>2026-04-29T09:21:04Z</time></trkpt><trkpt lat="28.37030127540065" lon="-11.177779327099113"><ele>214.5</ele><time>2026-04-29T09:21:05Z</time></trkpt><trkpt lat="28.370055062070865" lon="-11.177824928724272"><ele>215.0</ele><time>2026-04-29T09:21:06Z</time></trkpt><trkpt lat="28.36980566016769" lon="-11.177870570279898"><ele>215.0</ele><time>2026-04-29T09:21:07Z</time></trkpt><trkpt lat="28.369557231395707" lon="-11.177916451415442"><ele>215.0</ele><time>2026-04-29T09:21:08Z</time></trkpt><trkpt lat="28.3693082963405" lon="-11.177961694407484"><ele>215.0</ele><time>2026-04-29T09:21:09Z</time></trkpt><trkpt lat="28.369060734542288" lon="-11.17800589923928"><ele>215.0</ele><time>2026-04-29T09:21:10Z</time></trkpt><trkpt lat="28.36881516925255" lon="-11.178051981471034"><ele>215.0</ele><time>2026-04-29T09:21:11Z</time></trkpt><trkpt lat="28.368569315245573" lon="-11.178096794907729"><ele>215.0</ele><time>2026-04-29T09:21:12Z</time></trkpt><trkpt lat="28.368325282086552" lon="-11.1781417849847"><ele>215.5</ele><time>2026-04-29T09:21:13Z</time></trkpt><trkpt lat="28.36808211548267" lon="-11.178186540690252"><ele>216.0</ele><time>2026-04-29T09:21:14Z</time></trkpt><trkpt lat="28.367839496657737" lon="-11.178230517447094"><ele>216.0</ele><time>2026-04-29T09:21:15Z</time></trkpt><trkpt lat="28.367596356012662" lon="-11.178273472558297"><ele>216.0</ele><time>2026-04-29T09:21:16Z</time></trkpt><trkpt lat="28.367353128437312" lon="-11.178316974166947"><ele>216.5</ele><time>2026-04-29T09:21:17Z</time></trkpt><trkpt lat="28.367109842494273" lon="-11.178360441286815"><ele>217.0</ele><time>2026-04-29T09:21:18Z</time></trkpt><trkpt lat="28.366866446081747" lon="-11.178403443284655"><ele>217.0</ele><time>2026-04-29T09:21:19Z</time></trkpt><trkpt lat="28.366621644273902" lon="-11.178449445715158"><ele>217.0</ele><time>2026-04-29T09:21:20Z</time></trkpt><trkpt lat="28.366376269780726" lon="-11.178494881975285"><ele>216.0</ele><time>2026-04-29T09:21:21Z</time></trkpt><trkpt lat="28.36612879986954" lon="-11.178540155725653"><ele>215.0</ele><time>2026-04-29T09:21:22Z</time></trkpt><trkpt lat="28.36588162721231" lon="-11.178584888584236"><ele>215.0</ele><time>2026-04-29T09:21:23Z</time></trkpt><trkpt lat="28.365635889805645" lon="-11.17862882502913"><ele>215.0</ele><time>2026-04-29T09:21:24Z</time></trkpt><trkpt lat="28.365391775269188" lon="-11.17867393838268"><ele>215.5</ele><time>2026-04-29T09:21:25Z</time></trkpt><trkpt lat="28.365149873103334" lon="-11.178718675408621"><ele>216.0</ele><time>2026-04-29T09:21:26Z</time></trkpt><trkpt lat="28.36491128846407" lon="-11.178763409729905"><ele>216.0</ele><time>2026-04-29T09:21:27Z</time></trkpt><trkpt lat="28.36467530047901" lon="-11.178807265288894"><ele>216.0</ele><time>2026-04-29T09:21:28Z</time></trkpt><trkpt lat="28.36443496451548" lon="-11.178850435747052"><ele>216.0</ele><time>2026-04-29T09:21:29Z</time></trkpt><trkpt lat="28.364194472801834" lon="-11.178892930171562"><ele>216.0</ele><time>2026-04-29T09:21:30Z</time></trkpt><trkpt lat="28.36395496527314" lon="-11.178933932836392"><ele>217.0</ele><time>2026-04-29T09:21:31Z</time></trkpt><trkpt lat="28.363720814582443" lon="-11.178974163287632"><ele>218.0</ele><time>2026-04-29T09:21:32Z</time></trkpt><trkpt lat="28.363486874390315" lon="-11.179015193002057"><ele>218.0</ele><time>2026-04-29T09:21:33Z</time></trkpt><trkpt lat="28.36325399528117" lon="-11.179058016965037"><ele>218.0</ele><time>2026-04-29T09:21:34Z</time></trkpt><trkpt lat="28.363016540882835" lon="-11.17910102912936"><ele>218.0</ele><time>2026-04-29T09:21:35Z</time></trkpt><trkpt lat="28.362778089832958" lon="-11.179141613024921"><ele>218.0</ele><time>2026-04-29T09:21:36Z</time></trkpt><trkpt lat="28.36254084489638" lon="-11.179181514302035"><ele>218.0</ele><time>2026-04-29T09:21:37Z</time></trkpt><trkpt lat="28.362306780609167" lon="-11.179222991331427"><ele>218.0</ele><time>2026-04-29T09:21:38Z</time></trkpt><trkpt lat="28.36207098077096" lon="-11.179266812760956"><ele>218.0</ele><time>2026-04-29T09:21:39Z</time></trkpt><trkpt lat="28.361837159337647" lon="-11.17930988540891"><ele>218.0</ele><time>2026-04-29T09:21:40Z</time></trkpt><trkpt lat="28.36160451485449" lon="-11.179351731242981"><ele>218.0</ele><time>2026-04-29T09:21:41Z</time></trkpt><trkpt lat="28.361367816242215" lon="-11.179390252364422"><ele>218.0</ele><time>2026-04-29T09:21:42Z</time></trkpt><trkpt lat="28.361129369244797" lon="-11.179423469346707"><ele>218.5</ele><time>2026-04-29T09:21:43Z</time></trkpt><trkpt lat="28.360890263207605" lon="-11.17944954515759"><ele>219.0</ele><time>2026-04-29T09:21:44Z</time></trkpt><trkpt lat="28.360648452676223" lon="-11.17946918907336"><ele>219.0</ele><time>2026-04-29T09:21:45Z</time></trkpt><trkpt lat="28.360401827626955" lon="-11.179478759582794"><ele>219.0</ele><time>2026-04-29T09:21:46Z</time></trkpt><trkpt lat="28.36015414246918" lon="-11.179480758224663"><ele>219.0</ele><time>2026-04-29T09:21:47Z</time></trkpt><trkpt lat="28.359908190057094" lon="-11.179473455644082"><ele>219.0</ele><time>2026-04-29T09:21:48Z</time></trkpt><trkpt lat="28.359663431656667" lon="-11.179462114038408"><ele>217.5</ele><time>2026-04-29T09:21:49Z</time></trkpt><trkpt lat="28.359419557724884" lon="-11.179443981414579"><ele>216.0</ele><time>2026-04-29T09:21:50Z</time></trkpt><trkpt lat="28.35917481113236" lon="-11.179419207724896"><ele>216.0</ele><time>2026-04-29T09:21:51Z</time></trkpt><trkpt lat="28.35893273691982" lon="-11.17938382404528"><ele>216.0</ele><time>2026-04-29T09:21:52Z</time></trkpt><trkpt lat="28.358692519438193" lon="-11.179339534356867"><ele>217.0</ele><time>2026-04-29T09:21:53Z</time></trkpt><trkpt lat="28.358452498310502" lon="-11.179287678031987"><ele>218.0</ele><time>2026-04-29T09:21:54Z</time></trkpt><trkpt lat="28.35821415359122" lon="-11.179232824442549"><ele>218.0</ele><time>2026-04-29T09:21:55Z</time></trkpt><trkpt lat="28.35797618009811" lon="-11.179175655882839"><ele>218.0</ele><time>2026-04-29T09:21:56Z</time></trkpt><trkpt lat="28.357740185884516" lon="-11.179116706719752"><ele>218.0</ele><time>2026-04-29T09:21:57Z</time></trkpt><trkpt lat="28.357500342926464" lon="-11.179055844157757"><ele>218.0</ele><time>2026-04-29T09:21:58Z</time></trkpt><trkpt lat="28.357260238237842" lon="-11.178996490460493"><ele>218.0</ele><time>2026-04-29T09:21:59Z</time></trkpt><trkpt lat="28.357021177550504" lon="-11.178937263755856"><ele>218.0</ele><time>2026-04-29T09:22:00Z</time></trkpt><trkpt lat="28.35678196630443" lon="-11.17887643325451"><ele>218.0</ele><time>2026-04-29T09:22:01Z</time></trkpt><trkpt lat="28.356544842847807" lon="-11.178814820952356"><ele>218.0</ele><time>2026-04-29T09:22:02Z</time></trkpt><trkpt lat="28.356309000760422" lon="-11.178754466988648"><ele>217.5</ele><time>2026-04-29T09:22:03Z</time></trkpt><trkpt lat="28.356077100785708" lon="-11.178688287985725"><ele>217.0</ele><time>2026-04-29T09:22:04Z</time></trkpt><trkpt lat="28.35584001288091" lon="-11.178625558684224"><ele>217.0</ele><time>2026-04-29T09:22:05Z</time></trkpt><trkpt lat="28.355606829294267" lon="-11.178566278265821"><ele>217.0</ele><time>2026-04-29T09:22:06Z</time></trkpt><trkpt lat="28.35537619611028" lon="-11.178508139625745"><ele>217.5</ele><time>2026-04-29T09:22:07Z</time></trkpt><trkpt lat="28.35514936256185" lon="-11.178446511472414"><ele>218.0</ele><time>2026-04-29T09:22:08Z</time></trkpt><trkpt lat="28.354922688164038" lon="-11.178386207145984"><ele>219.0</ele><time>2026-04-29T09:22:09Z</time></trkpt><trkpt lat="28.354697314179038" lon="-11.178328803877314"><ele>220.0</ele><time>2026-04-29T09:22:10Z</time></trkpt><trkpt lat="28.35447149490807" lon="-11.178269339771978"><ele>220.0</ele><time>2026-04-29T09:22:11Z</time></trkpt><trkpt lat="28.35424756880554" lon="-11.17820912722379"><ele>220.0</ele><time>2026-04-29T09:22:12Z</time></trkpt><trkpt lat="28.35402522757152" lon="-11.178150712557308"><ele>219.0</ele><time>2026-04-29T09:22:13Z</time></trkpt><trkpt lat="28.35380253693996" lon="-11.178093152116693"><ele>218.0</ele><time>2026-04-29T09:22:14Z</time></trkpt><trkpt lat="28.353578663443688" lon="-11.17803689176664"><ele>218.0</ele><time>2026-04-29T09:22:15Z</time></trkpt><trkpt lat="28.353355154657997" lon="-11.177980417161804"><ele>218.0</ele><time>2026-04-29T09:22:16Z</time></trkpt><trkpt lat="28.353127370442472" lon="-11.177921644468768"><ele>217.0</ele><time>2026-04-29T09:22:17Z</time></trkpt><trkpt lat="28.352898790156125" lon="-11.177860700065034"><ele>216.0</ele><time>2026-04-29T09:22:18Z</time></trkpt><trkpt lat="28.352668811416947" lon="-11.177799293658222"><ele>216.0</ele><time>2026-04-29T09:22:19Z</time></trkpt><trkpt lat="28.35243691067091" lon="-11.177738433662993"><ele>216.0</ele><time>2026-04-29T09:22:20Z</time></trkpt><trkpt lat="28.35220343186487" lon="-11.17767960611582"><ele>215.0</ele><time>2026-04-29T09:22:21Z</time></trkpt><trkpt lat="28.351968846768482" lon="-11.177619817985677"><ele>214.0</ele><time>2026-04-29T09:22:22Z</time></trkpt><trkpt lat="28.351733733925055" lon="-11.177559962288708"><ele>214.0</ele><time>2026-04-29T09:22:23Z</time></trkpt><trkpt lat="28.351496644899743" lon="-11.177498700639825"><ele>214.0</ele><time>2026-04-29T09:22:24Z</time></trkpt><trkpt lat="28.35126108528168" lon="-11.177436064968346"><ele>215.0</ele><time>2026-04-29T09:22:25Z</time></trkpt><trkpt lat="28.351021223189107" lon="-11.177372172192324"><ele>216.0</ele><time>2026-04-29T09:22:26Z</time></trkpt><trkpt lat="28.350782704460407" lon="-11.177309338998064"><ele>216.5</ele><time>2026-04-29T09:22:27Z</time></trkpt><trkpt lat="28.350545210279822" lon="-11.177246331701896"><ele>217.0</ele><time>2026-04-29T09:22:28Z</time></trkpt><trkpt lat="28.350304075379633" lon="-11.17718521460077"><ele>217.0</ele><time>2026-04-29T09:22:29Z</time></trkpt><trkpt lat="28.35006182432177" lon="-11.177122461734983"><ele>217.0</ele><time>2026-04-29T09:22:30Z</time></trkpt><trkpt lat="28.349819415565776" lon="-11.17706085577511"><ele>217.5</ele><time>2026-04-29T09:22:31Z</time></trkpt><trkpt lat="28.349576811884884" lon="-11.17700065562865"><ele>218.0</ele><time>2026-04-29T09:22:32Z</time></trkpt><trkpt lat="28.349333954726635" lon="-11.176937749506557"><ele>218.0</ele><time>2026-04-29T09:22:33Z</time></trkpt><trkpt lat="28.34909328743057" lon="-11.176874681139303"><ele>218.0</ele><time>2026-04-29T09:22:34Z</time></trkpt><trkpt lat="28.3488510254608" lon="-11.17681066402093"><ele>217.5</ele><time>2026-04-29T09:22:35Z</time></trkpt><trkpt lat="28.348607960328753" lon="-11.17674717118495"><ele>217.0</ele><time>2026-04-29T09:22:36Z</time></trkpt><trkpt lat="28.348363058197922" lon="-11.176683727971193"><ele>217.0</ele><time>2026-04-29T09:22:37Z</time></trkpt><trkpt lat="28.348119319303777" lon="-11.176622006498663"><ele>217.0</ele><time>2026-04-29T09:22:38Z</time></trkpt><trkpt lat="28.347873223096634" lon="-11.176560528122556"><ele>216.5</ele><time>2026-04-29T09:22:39Z</time></trkpt><trkpt lat="28.3476278017033" lon="-11.176498493803951"><ele>216.0</ele><time>2026-04-29T09:22:40Z</time></trkpt><trkpt lat="28.34738421418582" lon="-11.176436455147128"><ele>216.0</ele><time>2026-04-29T09:22:41Z</time></trkpt><trkpt lat="28.347138604008908" lon="-11.176372609081024"><ele>216.0</ele><time>2026-04-29T09:22:42Z</time></trkpt><trkpt lat="28.346895674577812" lon="-11.176309955658848"><ele>216.0</ele><time>2026-04-29T09:22:43Z</time></trkpt><trkpt lat="28.346649996480128" lon="-11.176246397761608"><ele>216.0</ele><time>2026-04-29T09:22:44Z</time></trkpt><trkpt lat="28.346404815237623" lon="-11.176181868581901"><ele>215.0</ele><time>2026-04-29T09:22:45Z</time></trkpt><trkpt lat="28.346157662682145" lon="-11.176117972400613"><ele>214.0</ele><time>2026-04-29T09:22:46Z</time></trkpt><trkpt lat="28.345909940250426" lon="-11.176054559590574"><ele>214.0</ele><time>2026-04-29T09:22:47Z</time></trkpt><trkpt lat="28.34566349691234" lon="-11.17599028730768"><ele>214.0</ele><time>2026-04-29T09:22:48Z</time></trkpt><trkpt lat="28.34541723720802" lon="-11.175925747632258"><ele>214.5</ele><time>2026-04-29T09:22:49Z</time></trkpt><trkpt lat="28.345174573905425" lon="-11.175859468315341"><ele>215.0</ele><time>2026-04-29T09:22:50Z</time></trkpt><trkpt lat="28.34492908153322" lon="-11.175793310193209"><ele>216.0</ele><time>2026-04-29T09:22:51Z</time></trkpt><trkpt lat="28.34468631825476" lon="-11.175730813107455"><ele>217.0</ele><time>2026-04-29T09:22:52Z</time></trkpt><trkpt lat="28.34444674230048" lon="-11.175670548752976"><ele>217.0</ele><time>2026-04-29T09:22:53Z</time></trkpt><trkpt lat="28.344208416851604" lon="-11.17560902112271"><ele>217.0</ele><time>2026-04-29T09:22:54Z</time></trkpt><trkpt lat="28.343968357239046" lon="-11.175547314829169"><ele>216.5</ele><time>2026-04-29T09:22:55Z</time></trkpt><trkpt lat="28.343728554589035" lon="-11.175486571892677"><ele>216.0</ele><time>2026-04-29T09:22:56Z</time></trkpt><trkpt lat="28.34348624765732" lon="-11.175426303164047"><ele>216.0</ele><time>2026-04-29T09:22:57Z</time></trkpt><trkpt lat="28.343244740182005" lon="-11.175364391197377"><ele>216.0</ele><time>2026-04-29T09:22:58Z</time></trkpt><trkpt lat="28.343002163554992" lon="-11.175301998651506"><ele>216.0</ele><time>2026-04-29T09:22:59Z</time></trkpt><trkpt lat="28.342758396503804" lon="-11.17523911092633"><ele>216.0</ele><time>2026-04-29T09:23:00Z</time></trkpt><trkpt lat="28.342514719006846" lon="-11.175177590930227"><ele>216.0</ele><time>2026-04-29T09:23:01Z</time></trkpt><trkpt lat="28.342273630167558" lon="-11.175116126518231"><ele>216.0</ele><time>2026-04-29T09:23:02Z</time></trkpt><trkpt lat="28.342035747264507" lon="-11.175054951727903"><ele>217.0</ele><time>2026-04-29T09:23:03Z</time></trkpt><trkpt lat="28.341801144666015" lon="-11.174993343205948"><ele>218.0</ele><time>2026-04-29T09:23:04Z</time></trkpt><trkpt lat="28.34156672952606" lon="-11.174926274459764"><ele>218.0</ele><time>2026-04-29T09:23:05Z</time></trkpt><trkpt lat="28.341328656548704" lon="-11.17485870229807"><ele>218.0</ele><time>2026-04-29T09:23:06Z</time></trkpt><trkpt lat="28.341089122869217" lon="-11.174793613603219"><ele>218.0</ele><time>2026-04-29T09:23:07Z</time></trkpt><trkpt lat="28.34085325165681" lon="-11.174733564190927"><ele>218.0</ele><time>2026-04-29T09:23:08Z</time></trkpt><trkpt lat="28.340622637630677" lon="-11.174674191524097"><ele>218.0</ele><time>2026-04-29T09:23:09Z</time></trkpt><trkpt lat="28.340391360874797" lon="-11.174615892380723"><ele>218.0</ele><time>2026-04-29T09:23:10Z</time></trkpt><trkpt lat="28.34015894231729" lon="-11.174557060772383"><ele>218.0</ele><time>2026-04-29T09:23:11Z</time></trkpt><trkpt lat="28.339925812180212" lon="-11.17449768160226"><ele>218.0</ele><time>2026-04-29T09:23:12Z</time></trkpt><trkpt lat="28.33969114655828" lon="-11.174435598925117"><ele>217.5</ele><time>2026-04-29T09:23:13Z</time></trkpt><trkpt lat="28.33945906745563" lon="-11.174374380797426"><ele>217.0</ele><time>2026-04-29T09:23:14Z</time></trkpt><trkpt lat="28.3392272741275" lon="-11.174315616724563"><ele>217.0</ele><time>2026-04-29T09:23:15Z</time></trkpt><trkpt lat="28.33899910850113" lon="-11.174258372415034"><ele>217.0</ele><time>2026-04-29T09:23:16Z</time></trkpt><trkpt lat="28.338772039149045" lon="-11.174200592709887"><ele>216.5</ele><time>2026-04-29T09:23:17Z</time></trkpt><trkpt lat="28.338546292567596" lon="-11.174141520075157"><ele>216.0</ele><time>2026-04-29T09:23:18Z</time></trkpt><trkpt lat="28.33831959977378" lon="-11.174081856963062"><ele>216.0</ele><time>2026-04-29T09:23:19Z</time></trkpt><trkpt lat="28.338091897673014" lon="-11.174025195095503"><ele>216.0</ele><time>2026-04-29T09:23:20Z</time></trkpt><trkpt lat="28.337856538712725" lon="-11.173967307687548"><ele>216.0</ele><time>2026-04-29T09:23:21Z</time></trkpt><trkpt lat="28.33762261739307" lon="-11.173909223096128"><ele>216.0</ele><time>2026-04-29T09:23:22Z</time></trkpt><trkpt lat="28.337384263094616" lon="-11.173847712525347"><ele>215.5</ele><time>2026-04-29T09:23:23Z</time></trkpt><trkpt lat="28.337146479269162" lon="-11.173784724628863"><ele>215.0</ele><time>2026-04-29T09:23:24Z</time></trkpt><trkpt lat="28.336906979459567" lon="-11.17372151007632"><ele>215.0</ele><time>2026-04-29T09:23:25Z</time></trkpt><trkpt lat="28.33667092509957" lon="-11.173659307997637"><ele>215.0</ele><time>2026-04-29T09:23:26Z</time></trkpt><trkpt lat="28.33643050573361" lon="-11.1735967053392"><ele>215.5</ele><time>2026-04-29T09:23:27Z</time></trkpt><trkpt lat="28.336190918674614" lon="-11.173533352177467"><ele>216.0</ele><time>2026-04-29T09:23:28Z</time></trkpt><trkpt lat="28.33594859717987" lon="-11.17347031570048"><ele>216.0</ele><time>2026-04-29T09:23:29Z</time></trkpt><trkpt lat="28.33570536941927" lon="-11.173407975583327"><ele>216.0</ele><time>2026-04-29T09:23:30Z</time></trkpt><trkpt lat="28.33546065827223" lon="-11.17334445333862"><ele>216.0</ele><time>2026-04-29T09:23:31Z</time></trkpt><trkpt lat="28.335217046997453" lon="-11.173282117685828"><ele>216.0</ele><time>2026-04-29T09:23:32Z</time></trkpt><trkpt lat="28.334974508463635" lon="-11.173221988687317"><ele>216.5</ele><time>2026-04-29T09:23:33Z</time></trkpt><trkpt lat="28.33473301374837" lon="-11.173159375948103"><ele>217.0</ele><time>2026-04-29T09:23:34Z</time></trkpt><trkpt lat="28.334493288684506" lon="-11.173096257353334"><ele>215.5</ele><time>2026-04-29T09:23:35Z</time></trkpt><trkpt lat="28.33425376751552" lon="-11.173034835457004"><ele>214.0</ele><time>2026-04-29T09:23:36Z</time></trkpt><trkpt lat="28.334019692303382" lon="-11.17297438813612"><ele>214.0</ele><time>2026-04-29T09:23:37Z</time></trkpt><trkpt lat="28.333786059512384" lon="-11.172913893754174"><ele>214.0</ele><time>2026-04-29T09:23:38Z</time></trkpt><trkpt lat="28.33355877063763" lon="-11.172852753371245"><ele>214.0</ele><time>2026-04-29T09:23:39Z</time></trkpt><trkpt lat="28.33333064226347" lon="-11.172792995287592"><ele>214.0</ele><time>2026-04-29T09:23:40Z</time></trkpt><trkpt lat="28.33310613326747" lon="-11.172735757926318"><ele>214.0</ele><time>2026-04-29T09:23:41Z</time></trkpt><trkpt lat="28.332877995336226" lon="-11.172677734076617"><ele>214.0</ele><time>2026-04-29T09:23:42Z</time></trkpt><trkpt lat="28.332647749351445" lon="-11.172621246424486"><ele>214.0</ele><time>2026-04-29T09:23:43Z</time></trkpt><trkpt lat="28.332414676292363" lon="-11.172562805734914"><ele>214.0</ele><time>2026-04-29T09:23:44Z</time></trkpt><trkpt lat="28.332178516755246" lon="-11.172499167059367"><ele>214.0</ele><time>2026-04-29T09:23:45Z</time></trkpt><trkpt lat="28.33194566180861" lon="-11.172436889849623"><ele>214.0</ele><time>2026-04-29T09:23:46Z</time></trkpt><trkpt lat="28.33171249357392" lon="-11.172374955314591"><ele>214.0</ele><time>2026-04-29T09:23:47Z</time></trkpt><trkpt lat="28.33148220475695" lon="-11.17231569423364"><ele>214.0</ele><time>2026-04-29T09:23:48Z</time></trkpt><trkpt lat="28.331252566281517" lon="-11.172257411130511"><ele>213.5</ele><time>2026-04-29T09:23:49Z</time></trkpt><trkpt lat="28.331022414206995" lon="-11.172200731461396"><ele>213.0</ele><time>2026-04-29T09:23:50Z</time></trkpt><trkpt lat="28.33079467258913" lon="-11.172144658005406"><ele>213.0</ele><time>2026-04-29T09:23:51Z</time></trkpt><trkpt lat="28.33056752245827" lon="-11.172085381607847"><ele>213.0</ele><time>2026-04-29T09:23:52Z</time></trkpt><trkpt lat="28.33035006414821" lon="-11.172026366260658"><ele>213.66666666666669</ele><time>2026-04-29T09:23:53Z</time></trkpt><trkpt lat="28.330139105417707" lon="-11.17197086630265"><ele>214.33333333333334</ele><time>2026-04-29T09:23:54Z</time></trkpt><trkpt lat="28.329929976138814" lon="-11.17191691130924"><ele>215.0</ele><time>2026-04-29T09:23:55Z</time></trkpt><trkpt lat="28.329722733896595" lon="-11.171863777187363"><ele>215.33333333333334</ele><time>2026-04-29T09:23:56Z</time></trkpt><trkpt lat="28.32951434571817" lon="-11.17180838383597"><ele>215.66666666666669</ele><time>2026-04-29T09:23:57Z</time></trkpt><trkpt lat="28.329301280652576" lon="-11.171753224924693"><ele>216.0</ele><time>2026-04-29T09:23:58Z</time></trkpt><trkpt lat="28.329088791237897" lon="-11.171695409066098"><ele>216.0</ele><time>2026-04-29T09:23:59Z</time></trkpt><trkpt lat="28.328874239008975" lon="-11.1716394123065"><ele>216.0</ele><time>2026-04-29T09:24:00Z</time></trkpt><trkpt lat="28.328663895186583" lon="-11.171585451796387"><ele>216.0</ele><time>2026-04-29T09:24:01Z</time></trkpt><trkpt lat="28.328446990931162" lon="-11.171529458181896"><ele>216.0</ele><time>2026-04-29T09:24:02Z</time></trkpt><trkpt lat="28.328225816398025" lon="-11.171469523788227"><ele>216.0</ele><time>2026-04-29T09:24:03Z</time></trkpt><trkpt lat="28.328000227863296" lon="-11.171411978386443"><ele>216.0</ele><time>2026-04-29T09:24:04Z</time></trkpt><trkpt lat="28.3277745036382" lon="-11.171354056430864"><ele>216.0</ele><time>2026-04-29T09:24:05Z</time></trkpt><trkpt lat="28.327547329188672" lon="-11.171296740897185"><ele>216.0</ele><time>2026-04-29T09:24:06Z</time></trkpt><trkpt lat="28.327319566633722" lon="-11.171244783541269"><ele>216.0</ele><time>2026-04-29T09:24:07Z</time></trkpt><trkpt lat="28.327086186609087" lon="-11.171201547442791"><ele>216.0</ele><time>2026-04-29T09:24:08Z</time></trkpt><trkpt lat="28.326855087595103" lon="-11.171167223271883"><ele>216.0</ele><time>2026-04-29T09:24:09Z</time></trkpt><trkpt lat="28.32662000496" lon="-11.171138533252785"><ele>216.5</ele><time>2026-04-29T09:24:10Z</time></trkpt><trkpt lat="28.32638590632224" lon="-11.171114699019387"><ele>217.0</ele><time>2026-04-29T09:24:11Z</time></trkpt><trkpt lat="28.32615054384601" lon="-11.171101829612038"><ele>217.0</ele><time>2026-04-29T09:24:12Z</time></trkpt><trkpt lat="28.32591620123412" lon="-11.171104466306288"><ele>217.0</ele><time>2026-04-29T09:24:13Z</time></trkpt><trkpt lat="28.32568028379796" lon="-11.171118039766192"><ele>215.5</ele><time>2026-04-29T09:24:14Z</time></trkpt><trkpt lat="28.325450089313787" lon="-11.171140792921712"><ele>214.0</ele><time>2026-04-29T09:24:15Z</time></trkpt><trkpt lat="28.325218517631495" lon="-11.171170675859077"><ele>214.0</ele><time>2026-04-29T09:24:16Z</time></trkpt><trkpt lat="28.324986846491353" lon="-11.171210264262943"><ele>214.0</ele><time>2026-04-29T09:24:17Z</time></trkpt><trkpt lat="28.32475185468338" lon="-11.171259059701747"><ele>215.5</ele><time>2026-04-29T09:24:18Z</time></trkpt><trkpt lat="28.324518878085144" lon="-11.171313736753572"><ele>217.0</ele><time>2026-04-29T09:24:19Z</time></trkpt><trkpt lat="28.324289634273025" lon="-11.171379966623379"><ele>217.0</ele><time>2026-04-29T09:24:20Z</time></trkpt><trkpt lat="28.32406207478564" lon="-11.171457582470184"><ele>217.0</ele><time>2026-04-29T09:24:21Z</time></trkpt><trkpt lat="28.323833790742192" lon="-11.171543928268905"><ele>216.0</ele><time>2026-04-29T09:24:22Z</time></trkpt><trkpt lat="28.323610313705966" lon="-11.171641506637695"><ele>215.0</ele><time>2026-04-29T09:24:23Z</time></trkpt><trkpt lat="28.32338855572174" lon="-11.171745973211747"><ele>215.0</ele><time>2026-04-29T09:24:24Z</time></trkpt><trkpt lat="28.32316802163937" lon="-11.171856589797573"><ele>215.0</ele><time>2026-04-29T09:24:25Z</time></trkpt><trkpt lat="28.3229523357687" lon="-11.171976143504597"><ele>216.0</ele><time>2026-04-29T09:24:26Z</time></trkpt><trkpt lat="28.322738505896115" lon="-11.172108371055733"><ele>217.0</ele><time>2026-04-29T09:24:27Z</time></trkpt><trkpt lat="28.32252843299019" lon="-11.172245504989638"><ele>216.5</ele><time>2026-04-29T09:24:28Z</time></trkpt><trkpt lat="28.322319397436043" lon="-11.172380648810925"><ele>216.0</ele><time>2026-04-29T09:24:29Z</time></trkpt><trkpt lat="28.32210935501192" lon="-11.172516311562106"><ele>217.0</ele><time>2026-04-29T09:24:30Z</time></trkpt><trkpt lat="28.321900972433447" lon="-11.17265069355273"><ele>218.0</ele><time>2026-04-29T09:24:31Z</time></trkpt><trkpt lat="28.32169341335936" lon="-11.17278230139875"><ele>218.0</ele><time>2026-04-29T09:24:32Z</time></trkpt><trkpt lat="28.321486511214097" lon="-11.17291480239852"><ele>218.0</ele><time>2026-04-29T09:24:33Z</time></trkpt><trkpt lat="28.321278200504857" lon="-11.173047147617384"><ele>218.5</ele><time>2026-04-29T09:24:34Z</time></trkpt><trkpt lat="28.32106943409545" lon="-11.173178315666155"><ele>219.0</ele><time>2026-04-29T09:24:35Z</time></trkpt><trkpt lat="28.320855211673795" lon="-11.173310011128297"><ele>219.0</ele><time>2026-04-29T09:24:36Z</time></trkpt><trkpt lat="28.3206415627094" lon="-11.173445986620084"><ele>219.0</ele><time>2026-04-29T09:24:37Z</time></trkpt><trkpt lat="28.32042869477972" lon="-11.173583330308826"><ele>217.0</ele><time>2026-04-29T09:24:38Z</time></trkpt><trkpt lat="28.320215356558656" lon="-11.173720084962037"><ele>215.0</ele><time>2026-04-29T09:24:39Z</time></trkpt><trkpt lat="28.320003381930835" lon="-11.173852917670217"><ele>215.0</ele><time>2026-04-29T09:24:40Z</time></trkpt><trkpt lat="28.3197904048086" lon="-11.17398385684805"><ele>215.0</ele><time>2026-04-29T09:24:41Z</time></trkpt><trkpt lat="28.31957797678734" lon="-11.174115913901788"><ele>216.0</ele><time>2026-04-29T09:24:42Z</time></trkpt><trkpt lat="28.31936478681375" lon="-11.174250195994146"><ele>217.0</ele><time>2026-04-29T09:24:43Z</time></trkpt><trkpt lat="28.319153874286513" lon="-11.17438656145445"><ele>217.0</ele><time>2026-04-29T09:24:44Z</time></trkpt><trkpt lat="28.318945068332333" lon="-11.174519274333875"><ele>217.0</ele><time>2026-04-29T09:24:45Z</time></trkpt><trkpt lat="28.318736668761918" lon="-11.174650296436267"><ele>217.0</ele><time>2026-04-29T09:24:46Z</time></trkpt><trkpt lat="28.31852882064139" lon="-11.174781272376016"><ele>217.0</ele><time>2026-04-29T09:24:47Z</time></trkpt><trkpt lat="28.31832122732946" lon="-11.174912978395469"><ele>217.0</ele><time>2026-04-29T09:24:48Z</time></trkpt><trkpt lat="28.31811117212349" lon="-11.175043140451384"><ele>217.0</ele><time>2026-04-29T09:24:49Z</time></trkpt><trkpt lat="28.31790573171485" lon="-11.175173554296826"><ele>216.5</ele><time>2026-04-29T09:24:50Z</time></trkpt><trkpt lat="28.317698467664314" lon="-11.175303206221612"><ele>216.0</ele><time>2026-04-29T09:24:51Z</time></trkpt><trkpt lat="28.31749634588747" lon="-11.175429109363106"><ele>216.0</ele><time>2026-04-29T09:24:52Z</time></trkpt><trkpt lat="28.31729806784066" lon="-11.175553694625947"><ele>216.0</ele><time>2026-04-29T09:24:53Z</time></trkpt><trkpt lat="28.31711119275039" lon="-11.175672611897264"><ele>216.0</ele><time>2026-04-29T09:24:54Z</time></trkpt><trkpt lat="28.3169350700149" lon="-11.175783421173143"><ele>216.33333333333331</ele><time>2026-04-29T09:24:55Z</time></trkpt><trkpt lat="28.316765304847653" lon="-11.175893259515204"><ele>216.66666666666666</ele><time>2026-04-29T09:24:56Z</time></trkpt><trkpt lat="28.316603450892686" lon="-11.175995561821875"><ele>217.0</ele><time>2026-04-29T09:24:57Z</time></trkpt><trkpt lat="28.316440063167793" lon="-11.176093544879134"><ele>217.33333333333331</ele><time>2026-04-29T09:24:58Z</time></trkpt><trkpt lat="28.316265938234935" lon="-11.176201273618258"><ele>217.66666666666669</ele><time>2026-04-29T09:24:59Z</time></trkpt><trkpt lat="28.316095023454242" lon="-11.176331776228597"><ele>218.0</ele><time>2026-04-29T09:25:00Z</time></trkpt><trkpt lat="28.315900054222414" lon="-11.176435037531824"><ele>218.0</ele><time>2026-04-29T09:25:01Z</time></trkpt><trkpt lat="28.31570791040052" lon="-11.176558914852363"><ele>218.0</ele><time>2026-04-29T09:25:02Z</time></trkpt><trkpt lat="28.31550825327941" lon="-11.176686929636604"><ele>218.0</ele><time>2026-04-29T09:25:03Z</time></trkpt><trkpt lat="28.315302918901754" lon="-11.176817401714269"><ele>218.0</ele><time>2026-04-29T09:25:04Z</time></trkpt><trkpt lat="28.315103315370052" lon="-11.17696327683189"><ele>218.0</ele><time>2026-04-29T09:25:05Z</time></trkpt><trkpt lat="28.314891667584675" lon="-11.177098121602109"><ele>218.0</ele><time>2026-04-29T09:25:06Z</time></trkpt><trkpt lat="28.314684264998935" lon="-11.177230527806199"><ele>218.5</ele><time>2026-04-29T09:25:07Z</time></trkpt><trkpt lat="28.314475163724616" lon="-11.17736401847394"><ele>219.0</ele><time>2026-04-29T09:25:08Z</time></trkpt><trkpt lat="28.314268540752682" lon="-11.177495926983939"><ele>219.0</ele><time>2026-04-29T09:25:09Z</time></trkpt><trkpt lat="28.31406054045076" lon="-11.177628714776835"><ele>219.0</ele><time>2026-04-29T09:25:10Z</time></trkpt><trkpt lat="28.313850768777645" lon="-11.177762632893478"><ele>218.5</ele><time>2026-04-29T09:25:11Z</time></trkpt><trkpt lat="28.313643111040047" lon="-11.177895201474064"><ele>218.0</ele><time>2026-04-29T09:25:12Z</time></trkpt><trkpt lat="28.313432893016312" lon="-11.178028171921826"><ele>218.0</ele><time>2026-04-29T09:25:13Z</time></trkpt><trkpt lat="28.313214568617486" lon="-11.178139156235046"><ele>218.0</ele><time>2026-04-29T09:25:14Z</time></trkpt><trkpt lat="28.313005659186782" lon="-11.178268142511797"><ele>219.0</ele><time>2026-04-29T09:25:15Z</time></trkpt><trkpt lat="28.312796820572604" lon="-11.178401078176707"><ele>220.0</ele><time>2026-04-29T09:25:16Z</time></trkpt><trkpt lat="28.312590394950305" lon="-11.178533244904498"><ele>220.0</ele><time>2026-04-29T09:25:17Z</time></trkpt><trkpt lat="28.312383035673694" lon="-11.178666586289088"><ele>220.0</ele><time>2026-04-29T09:25:18Z</time></trkpt><trkpt lat="28.312173407828183" lon="-11.17880138100805"><ele>219.5</ele><time>2026-04-29T09:25:19Z</time></trkpt><trkpt lat="28.311965263758037" lon="-11.178931857915217"><ele>219.0</ele><time>2026-04-29T09:25:20Z</time></trkpt><trkpt lat="28.311754781888286" lon="-11.179061648744899"><ele>219.0</ele><time>2026-04-29T09:25:21Z</time></trkpt><trkpt lat="28.311542571577032" lon="-11.179195732076355"><ele>219.0</ele><time>2026-04-29T09:25:22Z</time></trkpt><trkpt lat="28.311333705671444" lon="-11.179327535180212"><ele>218.5</ele><time>2026-04-29T09:25:23Z</time></trkpt><trkpt lat="28.311124885118165" lon="-11.17946093843861"><ele>218.0</ele><time>2026-04-29T09:25:24Z</time></trkpt><trkpt lat="28.31091445178637" lon="-11.179593876416304"><ele>218.0</ele><time>2026-04-29T09:25:25Z</time></trkpt><trkpt lat="28.310703930802244" lon="-11.179725669442915"><ele>218.0</ele><time>2026-04-29T09:25:26Z</time></trkpt><trkpt lat="28.310494638009835" lon="-11.179857578847876"><ele>218.0</ele><time>2026-04-29T09:25:27Z</time></trkpt><trkpt lat="28.310285775094147" lon="-11.179991138286066"><ele>218.0</ele><time>2026-04-29T09:25:28Z</time></trkpt><trkpt lat="28.310080301884263" lon="-11.180125296058684"><ele>218.0</ele><time>2026-04-29T09:25:29Z</time></trkpt><trkpt lat="28.309875316097145" lon="-11.180257904650821"><ele>218.0</ele><time>2026-04-29T09:25:30Z</time></trkpt><trkpt lat="28.309670738352796" lon="-11.180389228663863"><ele>218.5</ele><time>2026-04-29T09:25:31Z</time></trkpt><trkpt lat="28.309469656609863" lon="-11.180517216260576"><ele>219.0</ele><time>2026-04-29T09:25:32Z</time></trkpt><trkpt lat="28.30926688939055" lon="-11.180644825759138"><ele>219.0</ele><time>2026-04-29T09:25:33Z</time></trkpt><trkpt lat="28.309062528564557" lon="-11.180773940283276"><ele>219.0</ele><time>2026-04-29T09:25:34Z</time></trkpt><trkpt lat="28.308860604473075" lon="-11.18090255438408"><ele>219.0</ele><time>2026-04-29T09:25:35Z</time></trkpt><trkpt lat="28.30865881426937" lon="-11.181029408383123"><ele>219.0</ele><time>2026-04-29T09:25:36Z</time></trkpt><trkpt lat="28.308456587231472" lon="-11.181157693288164"><ele>219.0</ele><time>2026-04-29T09:25:37Z</time></trkpt><trkpt lat="28.30825776931882" lon="-11.18128286202799"><ele>219.0</ele><time>2026-04-29T09:25:38Z</time></trkpt><trkpt lat="28.30805693029786" lon="-11.181408445935073"><ele>218.5</ele><time>2026-04-29T09:25:39Z</time></trkpt><trkpt lat="28.307855793120005" lon="-11.181535977709638"><ele>218.0</ele><time>2026-04-29T09:25:40Z</time></trkpt><trkpt lat="28.3076537002084" lon="-11.181664233716694"><ele>218.0</ele><time>2026-04-29T09:25:41Z</time></trkpt><trkpt lat="28.307453657139856" lon="-11.181789612027881"><ele>218.0</ele><time>2026-04-29T09:25:42Z</time></trkpt><trkpt lat="28.30725048387768" lon="-11.181917708327061"><ele>218.5</ele><time>2026-04-29T09:25:43Z</time></trkpt><trkpt lat="28.307047684175743" lon="-11.182044127885886"><ele>219.0</ele><time>2026-04-29T09:25:44Z</time></trkpt><trkpt lat="28.306847517656514" lon="-11.182169728726938"><ele>219.0</ele><time>2026-04-29T09:25:45Z</time></trkpt><trkpt lat="28.30665022991604" lon="-11.182295816774337"><ele>219.0</ele><time>2026-04-29T09:25:46Z</time></trkpt><trkpt lat="28.30645597593335" lon="-11.182419752512404"><ele>219.0</ele><time>2026-04-29T09:25:47Z</time></trkpt><trkpt lat="28.30626414646182" lon="-11.182543811892398"><ele>219.33333333333331</ele><time>2026-04-29T09:25:48Z</time></trkpt><trkpt lat="28.306072819285916" lon="-11.182667459719186"><ele>219.66666666666666</ele><time>2026-04-29T09:25:49Z</time></trkpt><trkpt lat="28.305881758831198" lon="-11.182789109253573"><ele>220.0</ele><time>2026-04-29T09:25:50Z</time></trkpt><trkpt lat="28.3056907428033" lon="-11.182907299114536"><ele>220.0</ele><time>2026-04-29T09:25:51Z</time></trkpt><trkpt lat="28.305496767041745" lon="-11.183026393542626"><ele>220.0</ele><time>2026-04-29T09:25:52Z</time></trkpt><trkpt lat="28.305302240372594" lon="-11.18314645174828"><ele>220.0</ele><time>2026-04-29T09:25:53Z</time></trkpt><trkpt lat="28.305108852347246" lon="-11.18326876110781"><ele>219.33333333333331</ele><time>2026-04-29T09:25:54Z</time></trkpt><trkpt lat="28.304915910124066" lon="-11.183392082130256"><ele>218.66666666666669</ele><time>2026-04-29T09:25:55Z</time></trkpt><trkpt lat="28.30472214377292" lon="-11.183513685651171"><ele>218.0</ele><time>2026-04-29T09:25:56Z</time></trkpt><trkpt lat="28.30452713505819" lon="-11.183638426398835"><ele>219.33333333333334</ele><time>2026-04-29T09:25:57Z</time></trkpt><trkpt lat="28.304333238589766" lon="-11.183762257615946"><ele>220.66666666666669</ele><time>2026-04-29T09:25:58Z</time></trkpt><trkpt lat="28.304136796703446" lon="-11.183886961620448"><ele>222.0</ele><time>2026-04-29T09:25:59Z</time></trkpt><trkpt lat="28.30393879582977" lon="-11.184011485149968"><ele>221.0</ele><time>2026-04-29T09:26:00Z</time></trkpt><trkpt lat="28.30374505881721" lon="-11.184134297546091"><ele>220.0</ele><time>2026-04-29T09:26:01Z</time></trkpt><trkpt lat="28.3035530972531" lon="-11.18425277077769"><ele>219.0</ele><time>2026-04-29T09:26:02Z</time></trkpt><trkpt lat="28.30336309698143" lon="-11.184370843535069"><ele>219.0</ele><time>2026-04-29T09:26:03Z</time></trkpt><trkpt lat="28.30317794673668" lon="-11.184491373034838"><ele>219.0</ele><time>2026-04-29T09:26:04Z</time></trkpt><trkpt lat="28.30299266572743" lon="-11.184610014360652"><ele>219.0</ele><time>2026-04-29T09:26:05Z</time></trkpt><trkpt lat="28.302807443712318" lon="-11.184727652402035"><ele>219.0</ele><time>2026-04-29T09:26:06Z</time></trkpt><trkpt lat="28.302622001695863" lon="-11.184842227535876"><ele>219.0</ele><time>2026-04-29T09:26:07Z</time></trkpt><trkpt lat="28.302435684326117" lon="-11.184959206361588"><ele>219.0</ele><time>2026-04-29T09:26:08Z</time></trkpt><trkpt lat="28.302247423794473" lon="-11.185078995717657"><ele>219.0</ele><time>2026-04-29T09:26:09Z</time></trkpt><trkpt lat="28.302062601430446" lon="-11.18519862788566"><ele>219.0</ele><time>2026-04-29T09:26:10Z</time></trkpt><trkpt lat="28.30187460114533" lon="-11.185318213173032"><ele>219.0</ele><time>2026-04-29T09:26:11Z</time></trkpt><trkpt lat="28.301683058693868" lon="-11.18543547070874"><ele>219.0</ele><time>2026-04-29T09:26:12Z</time></trkpt><trkpt lat="28.30149103904197" lon="-11.185555081598595"><ele>219.0</ele><time>2026-04-29T09:26:13Z</time></trkpt><trkpt lat="28.30129471763503" lon="-11.185677140301369"><ele>219.0</ele><time>2026-04-29T09:26:14Z</time></trkpt><trkpt lat="28.301101641895098" lon="-11.185798745200998"><ele>219.33333333333331</ele><time>2026-04-29T09:26:15Z</time></trkpt><trkpt lat="28.30090498176195" lon="-11.1859209912317"><ele>219.66666666666666</ele><time>2026-04-29T09:26:16Z</time></trkpt><trkpt lat="28.300710195162054" lon="-11.186044726904695"><ele>220.0</ele><time>2026-04-29T09:26:17Z</time></trkpt><trkpt lat="28.30051101601207" lon="-11.186170578044623"><ele>220.0</ele><time>2026-04-29T09:26:18Z</time></trkpt><trkpt lat="28.30031362721158" lon="-11.186295764503475"><ele>220.0</ele><time>2026-04-29T09:26:19Z</time></trkpt><trkpt lat="28.30011404810102" lon="-11.18642149993118"><ele>221.0</ele><time>2026-04-29T09:26:20Z</time></trkpt><trkpt lat="28.299912820950052" lon="-11.186546844442287"><ele>222.0</ele><time>2026-04-29T09:26:21Z</time></trkpt><trkpt lat="28.299711523969908" lon="-11.186673273943029"><ele>222.0</ele><time>2026-04-29T09:26:22Z</time></trkpt><trkpt lat="28.299506941217892" lon="-11.18680380512088"><ele>222.0</ele><time>2026-04-29T09:26:23Z</time></trkpt><trkpt lat="28.29930379599223" lon="-11.186933030211664"><ele>222.0</ele><time>2026-04-29T09:26:24Z</time></trkpt><trkpt lat="28.299098816100813" lon="-11.187060152479331"><ele>222.0</ele><time>2026-04-29T09:26:25Z</time></trkpt><trkpt lat="28.29889215794634" lon="-11.187188865665831"><ele>221.5</ele><time>2026-04-29T09:26:26Z</time></trkpt><trkpt lat="28.298689751101094" lon="-11.187321758721314"><ele>221.0</ele><time>2026-04-29T09:26:27Z</time></trkpt><trkpt lat="28.2984900655506" lon="-11.187464559191024"><ele>222.0</ele><time>2026-04-29T09:26:28Z</time></trkpt><trkpt lat="28.298298595614487" lon="-11.18761961441412"><ele>223.0</ele><time>2026-04-29T09:26:29Z</time></trkpt><trkpt lat="28.2981076355329" lon="-11.187782452512076"><ele>222.5</ele><time>2026-04-29T09:26:30Z</time></trkpt><trkpt lat="28.297921206612166" lon="-11.187947040412414"><ele>222.0</ele><time>2026-04-29T09:26:31Z</time></trkpt><trkpt lat="28.297736562364395" lon="-11.188114897017076"><ele>221.0</ele><time>2026-04-29T09:26:32Z</time></trkpt><trkpt lat="28.29755342589346" lon="-11.188288380547247"><ele>220.0</ele><time>2026-04-29T09:26:33Z</time></trkpt><trkpt lat="28.297378915224986" lon="-11.188468181606455"><ele>219.5</ele><time>2026-04-29T09:26:34Z</time></trkpt><trkpt lat="28.29720517943912" lon="-11.18864857676578"><ele>219.0</ele><time>2026-04-29T09:26:35Z</time></trkpt><trkpt lat="28.297025636699544" lon="-11.1888258980571"><ele>219.0</ele><time>2026-04-29T09:26:36Z</time></trkpt><trkpt lat="28.29684757693216" lon="-11.189001925554583"><ele>219.0</ele><time>2026-04-29T09:26:37Z</time></trkpt><trkpt lat="28.296674327662277" lon="-11.18918062321293"><ele>219.5</ele><time>2026-04-29T09:26:38Z</time></trkpt><trkpt lat="28.29650170235928" lon="-11.18935962905692"><ele>220.0</ele><time>2026-04-29T09:26:39Z</time></trkpt><trkpt lat="28.296324834575213" lon="-11.18953811928776"><ele>220.0</ele><time>2026-04-29T09:26:40Z</time></trkpt><trkpt lat="28.29615127310113" lon="-11.189711988788096"><ele>220.0</ele><time>2026-04-29T09:26:41Z</time></trkpt><trkpt lat="28.295978275086213" lon="-11.189887319613232"><ele>219.5</ele><time>2026-04-29T09:26:42Z</time></trkpt><trkpt lat="28.295804459604444" lon="-11.190062341654842"><ele>219.0</ele><time>2026-04-29T09:26:43Z</time></trkpt><trkpt lat="28.295632857720133" lon="-11.190239298379932"><ele>220.0</ele><time>2026-04-29T09:26:44Z</time></trkpt><trkpt lat="28.295459465254783" lon="-11.190417773151344"><ele>221.0</ele><time>2026-04-29T09:26:45Z</time></trkpt><trkpt lat="28.29528481024846" lon="-11.190592796172414"><ele>221.0</ele><time>2026-04-29T09:26:46Z</time></trkpt><trkpt lat="28.295108480952592" lon="-11.190767147150229"><ele>221.0</ele><time>2026-04-29T09:26:47Z</time></trkpt><trkpt lat="28.294932010118558" lon="-11.190941249106347"><ele>221.0</ele><time>2026-04-29T09:26:48Z</time></trkpt><trkpt lat="28.294756972164787" lon="-11.191118492151157"><ele>221.0</ele><time>2026-04-29T09:26:49Z</time></trkpt><trkpt lat="28.29458248891843" lon="-11.191296626218143"><ele>221.5</ele><time>2026-04-29T09:26:50Z</time></trkpt><trkpt lat="28.294408297190927" lon="-11.191474846523048"><ele>222.0</ele><time>2026-04-29T09:26:51Z</time></trkpt><trkpt lat="28.294231516998284" lon="-11.191653478877532"><ele>222.0</ele><time>2026-04-29T09:26:52Z</time></trkpt><trkpt lat="28.29405177104776" lon="-11.191828104173025"><ele>222.0</ele><time>2026-04-29T09:26:53Z</time></trkpt><trkpt lat="28.29387445629142" lon="-11.19200092002585"><ele>220.5</ele><time>2026-04-29T09:26:54Z</time></trkpt><trkpt lat="28.29369673253159" lon="-11.192179387138092"><ele>219.0</ele><time>2026-04-29T09:26:55Z</time></trkpt><trkpt lat="28.29352322264492" lon="-11.192355694956449"><ele>219.0</ele><time>2026-04-29T09:26:56Z</time></trkpt><trkpt lat="28.293347064568493" lon="-11.192535293056958"><ele>219.0</ele><time>2026-04-29T09:26:57Z</time></trkpt><trkpt lat="28.29317216923606" lon="-11.192712767942325"><ele>219.0</ele><time>2026-04-29T09:26:58Z</time></trkpt><trkpt lat="28.292997464624044" lon="-11.19288876566929"><ele>219.0</ele><time>2026-04-29T09:26:59Z</time></trkpt><trkpt lat="28.292822004718907" lon="-11.193065595222953"><ele>218.5</ele><time>2026-04-29T09:27:00Z</time></trkpt><trkpt lat="28.292646800565958" lon="-11.19324451520388"><ele>218.0</ele><time>2026-04-29T09:27:01Z</time></trkpt><trkpt lat="28.292472180248218" lon="-11.193419694400202"><ele>218.0</ele><time>2026-04-29T09:27:02Z</time></trkpt><trkpt lat="28.29229848867484" lon="-11.193592561171032"><ele>218.0</ele><time>2026-04-29T09:27:03Z</time></trkpt><trkpt lat="28.29212347214029" lon="-11.193769977941766"><ele>218.0</ele><time>2026-04-29T09:27:04Z</time></trkpt><trkpt lat="28.291950213144396" lon="-11.193946982234824"><ele>218.0</ele><time>2026-04-29T09:27:05Z</time></trkpt><trkpt lat="28.291776583818077" lon="-11.194121720064938"><ele>218.0</ele><time>2026-04-29T09:27:06Z</time></trkpt><trkpt lat="28.29160612425046" lon="-11.194294622396832"><ele>218.0</ele><time>2026-04-29T09:27:07Z</time></trkpt><trkpt lat="28.291433598747187" lon="-11.194467131895674"><ele>218.5</ele><time>2026-04-29T09:27:08Z</time></trkpt><trkpt lat="28.291259558324704" lon="-11.194639530108326"><ele>219.0</ele><time>2026-04-29T09:27:09Z</time></trkpt><trkpt lat="28.29108652848005" lon="-11.194809648617799"><ele>219.5</ele><time>2026-04-29T09:27:10Z</time></trkpt><trkpt lat="28.2909152818598" lon="-11.194983186621107"><ele>220.0</ele><time>2026-04-29T09:27:11Z</time></trkpt><trkpt lat="28.290746819459375" lon="-11.195156944818107"><ele>220.0</ele><time>2026-04-29T09:27:12Z</time></trkpt><trkpt lat="28.290575226758747" lon="-11.195329956971651"><ele>220.0</ele><time>2026-04-29T09:27:13Z</time></trkpt><trkpt lat="28.29040073640794" lon="-11.19550028188321"><ele>220.0</ele><time>2026-04-29T09:27:14Z</time></trkpt><trkpt lat="28.290229729036515" lon="-11.195671899626133"><ele>220.0</ele><time>2026-04-29T09:27:15Z</time></trkpt><trkpt lat="28.29005657060654" lon="-11.195845031315868"><ele>220.0</ele><time>2026-04-29T09:27:16Z</time></trkpt><trkpt lat="28.289884907655633" lon="-11.19601569213531"><ele>220.0</ele><time>2026-04-29T09:27:17Z</time></trkpt><trkpt lat="28.289714948592234" lon="-11.196190204644118"><ele>220.0</ele><time>2026-04-29T09:27:18Z</time></trkpt><trkpt lat="28.289542100311053" lon="-11.196363368282093"><ele>220.0</ele><time>2026-04-29T09:27:19Z</time></trkpt><trkpt lat="28.289370574826766" lon="-11.196534143183266"><ele>221.0</ele><time>2026-04-29T09:27:20Z</time></trkpt><trkpt lat="28.289198441290253" lon="-11.196706635219304"><ele>222.0</ele><time>2026-04-29T09:27:21Z</time></trkpt><trkpt lat="28.28902563463811" lon="-11.196882384921583"><ele>222.5</ele><time>2026-04-29T09:27:22Z</time></trkpt><trkpt lat="28.28885578471617" lon="-11.197055416316545"><ele>223.0</ele><time>2026-04-29T09:27:23Z</time></trkpt><trkpt lat="28.28868529808333" lon="-11.197227483862418"><ele>222.5</ele><time>2026-04-29T09:27:24Z</time></trkpt><trkpt lat="28.288511425165282" lon="-11.197402120867112"><ele>222.0</ele><time>2026-04-29T09:27:25Z</time></trkpt><trkpt lat="28.288341131506495" lon="-11.197572620198216"><ele>222.0</ele><time>2026-04-29T09:27:26Z</time></trkpt><trkpt lat="28.288167028299537" lon="-11.19774471052792"><ele>222.0</ele><time>2026-04-29T09:27:27Z</time></trkpt><trkpt lat="28.287995050684756" lon="-11.197916081025834"><ele>221.5</ele><time>2026-04-29T09:27:28Z</time></trkpt><trkpt lat="28.287823996172605" lon="-11.198088256222217"><ele>221.0</ele><time>2026-04-29T09:27:29Z</time></trkpt><trkpt lat="28.287651492277945" lon="-11.198264194259258"><ele>221.0</ele><time>2026-04-29T09:27:30Z</time></trkpt><trkpt lat="28.287480274889223" lon="-11.198438355179468"><ele>221.0</ele><time>2026-04-29T09:27:31Z</time></trkpt><trkpt lat="28.28730860118141" lon="-11.19861135249573"><ele>221.0</ele><time>2026-04-29T09:27:32Z</time></trkpt><trkpt lat="28.28713264112648" lon="-11.198783996744165"><ele>221.0</ele><time>2026-04-29T09:27:33Z</time></trkpt><trkpt lat="28.28695800832011" lon="-11.198954001581559"><ele>221.5</ele><time>2026-04-29T09:27:34Z</time></trkpt><trkpt lat="28.286784938365997" lon="-11.199128147136761"><ele>222.0</ele><time>2026-04-29T09:27:35Z</time></trkpt><trkpt lat="28.286613811676876" lon="-11.199303112523822"><ele>222.0</ele><time>2026-04-29T09:27:36Z</time></trkpt><trkpt lat="28.286440959781558" lon="-11.199478607564728"><ele>222.0</ele><time>2026-04-29T09:27:37Z</time></trkpt><trkpt lat="28.286267917843137" lon="-11.199651037173979"><ele>222.0</ele><time>2026-04-29T09:27:38Z</time></trkpt><trkpt lat="28.28609850475144" lon="-11.199825919408642"><ele>222.0</ele><time>2026-04-29T09:27:39Z</time></trkpt><trkpt lat="28.285929828571327" lon="-11.200003101889545"><ele>222.0</ele><time>2026-04-29T09:27:40Z</time></trkpt><trkpt lat="28.285755301693293" lon="-11.200174744059746"><ele>222.0</ele><time>2026-04-29T09:27:41Z</time></trkpt><trkpt lat="28.285579300570753" lon="-11.200341588714005"><ele>221.5</ele><time>2026-04-29T09:27:42Z</time></trkpt><trkpt lat="28.28540565714384" lon="-11.200512352195682"><ele>221.0</ele><time>2026-04-29T09:27:43Z</time></trkpt><trkpt lat="28.28523610660423" lon="-11.200689992804612"><ele>221.0</ele><time>2026-04-29T09:27:44Z</time></trkpt><trkpt lat="28.285068098048402" lon="-11.20086650394121"><ele>221.0</ele><time>2026-04-29T09:27:45Z</time></trkpt><trkpt lat="28.284896373068268" lon="-11.201044655256217"><ele>221.0</ele><time>2026-04-29T09:27:46Z</time></trkpt><trkpt lat="28.284724005693345" lon="-11.201217150786345"><ele>221.0</ele><time>2026-04-29T09:27:47Z</time></trkpt><trkpt lat="28.28454832500144" lon="-11.201391224152283"><ele>222.0</ele><time>2026-04-29T09:27:48Z</time></trkpt><trkpt lat="28.28437400472123" lon="-11.201562582415612"><ele>223.0</ele><time>2026-04-29T09:27:49Z</time></trkpt><trkpt lat="28.284198213191893" lon="-11.201736686037856"><ele>223.0</ele><time>2026-04-29T09:27:50Z</time></trkpt><trkpt lat="28.28402336005767" lon="-11.201908625448246"><ele>223.0</ele><time>2026-04-29T09:27:51Z</time></trkpt><trkpt lat="28.28384738227162" lon="-11.202082360778181"><ele>223.0</ele><time>2026-04-29T09:27:52Z</time></trkpt><trkpt lat="28.283674144181138" lon="-11.202259230482927"><ele>223.0</ele><time>2026-04-29T09:27:53Z</time></trkpt><trkpt lat="28.28350276288336" lon="-11.202438323835997"><ele>223.0</ele><time>2026-04-29T09:27:54Z</time></trkpt><trkpt lat="28.28333403649056" lon="-11.202617423326858"><ele>223.0</ele><time>2026-04-29T09:27:55Z</time></trkpt><trkpt lat="28.2831605531208" lon="-11.202792410910016"><ele>221.5</ele><time>2026-04-29T09:27:56Z</time></trkpt><trkpt lat="28.2829844100022" lon="-11.202964616274631"><ele>220.0</ele><time>2026-04-29T09:27:57Z</time></trkpt><trkpt lat="28.282808723671057" lon="-11.20313913843514"><ele>220.0</ele><time>2026-04-29T09:27:58Z</time></trkpt><trkpt lat="28.282636490320176" lon="-11.20331479978309"><ele>220.0</ele><time>2026-04-29T09:27:59Z</time></trkpt><trkpt lat="28.282462707942496" lon="-11.20348944484097"><ele>220.0</ele><time>2026-04-29T09:28:00Z</time></trkpt><trkpt lat="28.28228830299819" lon="-11.203663964349923"><ele>220.0</ele><time>2026-04-29T09:28:01Z</time></trkpt><trkpt lat="28.282113066294468" lon="-11.203837601913605"><ele>220.5</ele><time>2026-04-29T09:28:02Z</time></trkpt><trkpt lat="28.281940879611394" lon="-11.204008929801251"><ele>221.0</ele><time>2026-04-29T09:28:03Z</time></trkpt><trkpt lat="28.281767583433776" lon="-11.204185607175932"><ele>221.0</ele><time>2026-04-29T09:28:04Z</time></trkpt><trkpt lat="28.281595387271977" lon="-11.20435985503288"><ele>221.0</ele><time>2026-04-29T09:28:05Z</time></trkpt><trkpt lat="28.28142146533221" lon="-11.20453299435134"><ele>220.5</ele><time>2026-04-29T09:28:06Z</time></trkpt><trkpt lat="28.281248812575793" lon="-11.204708514163455"><ele>220.0</ele><time>2026-04-29T09:28:07Z</time></trkpt><trkpt lat="28.281077067902203" lon="-11.204884197338576"><ele>220.0</ele><time>2026-04-29T09:28:08Z</time></trkpt><trkpt lat="28.280904218861185" lon="-11.205057789239115"><ele>220.0</ele><time>2026-04-29T09:28:09Z</time></trkpt><trkpt lat="28.28073141597486" lon="-11.20523203288633"><ele>220.5</ele><time>2026-04-29T09:28:10Z</time></trkpt><trkpt lat="28.280556803948784" lon="-11.20540387444323"><ele>221.0</ele><time>2026-04-29T09:28:11Z</time></trkpt><trkpt lat="28.280383456684046" lon="-11.205577727950136"><ele>220.5</ele><time>2026-04-29T09:28:12Z</time></trkpt><trkpt lat="28.28020970978587" lon="-11.20575315897908"><ele>220.0</ele><time>2026-04-29T09:28:13Z</time></trkpt><trkpt lat="28.28003901730509" lon="-11.205928263087054"><ele>220.0</ele><time>2026-04-29T09:28:14Z</time></trkpt><trkpt lat="28.27986691634673" lon="-11.206100324315612"><ele>220.0</ele><time>2026-04-29T09:28:15Z</time></trkpt><trkpt lat="28.279693419526055" lon="-11.206273757402048"><ele>220.0</ele><time>2026-04-29T09:28:16Z</time></trkpt><trkpt lat="28.27952216452881" lon="-11.206445721237879"><ele>220.0</ele><time>2026-04-29T09:28:17Z</time></trkpt><trkpt lat="28.27935054339206" lon="-11.206619804245737"><ele>219.0</ele><time>2026-04-29T09:28:18Z</time></trkpt><trkpt lat="28.27918098784628" lon="-11.206792883926239"><ele>218.0</ele><time>2026-04-29T09:28:19Z</time></trkpt><trkpt lat="28.279012615046046" lon="-11.206963181340795"><ele>219.0</ele><time>2026-04-29T09:28:20Z</time></trkpt><trkpt lat="28.2788406307304" lon="-11.207134135477602"><ele>220.0</ele><time>2026-04-29T09:28:21Z</time></trkpt><trkpt lat="28.27866826320785" lon="-11.207305374135442"><ele>220.0</ele><time>2026-04-29T09:28:22Z</time></trkpt><trkpt lat="28.278497880672194" lon="-11.20747552728299"><ele>220.0</ele><time>2026-04-29T09:28:23Z</time></trkpt><trkpt lat="28.278326077491837" lon="-11.207648951003582"><ele>220.0</ele><time>2026-04-29T09:28:24Z</time></trkpt><trkpt lat="28.27815503812264" lon="-11.207821028645725"><ele>220.0</ele><time>2026-04-29T09:28:25Z</time></trkpt><trkpt lat="28.277982484192083" lon="-11.207994367077443"><ele>219.5</ele><time>2026-04-29T09:28:26Z</time></trkpt><trkpt lat="28.2778117546785" lon="-11.208167096557897"><ele>219.0</ele><time>2026-04-29T09:28:27Z</time></trkpt><trkpt lat="28.277639833129733" lon="-11.20833796245135"><ele>219.0</ele><time>2026-04-29T09:28:28Z</time></trkpt><trkpt lat="28.277467921423483" lon="-11.208509397489136"><ele>219.0</ele><time>2026-04-29T09:28:29Z</time></trkpt><trkpt lat="28.27729309631738" lon="-11.208683101575817"><ele>219.0</ele><time>2026-04-29T09:28:30Z</time></trkpt><trkpt lat="28.27711733543622" lon="-11.208857689893698"><ele>219.0</ele><time>2026-04-29T09:28:31Z</time></trkpt><trkpt lat="28.276946982120908" lon="-11.20902833475399"><ele>219.0</ele><time>2026-04-29T09:28:32Z</time></trkpt><trkpt lat="28.276775998421872" lon="-11.209202322005062"><ele>219.0</ele><time>2026-04-29T09:28:33Z</time></trkpt><trkpt lat="28.276603972135945" lon="-11.209373269565944"><ele>219.0</ele><time>2026-04-29T09:28:34Z</time></trkpt><trkpt lat="28.27642938498338" lon="-11.209539435815662"><ele>219.0</ele><time>2026-04-29T09:28:35Z</time></trkpt><trkpt lat="28.276249600737742" lon="-11.209700017261301"><ele>218.5</ele><time>2026-04-29T09:28:36Z</time></trkpt><trkpt lat="28.276067483779652" lon="-11.209854311720376"><ele>218.0</ele><time>2026-04-29T09:28:37Z</time></trkpt><trkpt lat="28.27588221365301" lon="-11.21000337227709"><ele>218.0</ele><time>2026-04-29T09:28:38Z</time></trkpt><trkpt lat="28.275694850356146" lon="-11.210146025744743"><ele>218.0</ele><time>2026-04-29T09:28:39Z</time></trkpt><trkpt lat="28.275504740464594" lon="-11.210285447961185"><ele>218.5</ele><time>2026-04-29T09:28:40Z</time></trkpt><trkpt lat="28.275310415211234" lon="-11.210423167757538"><ele>219.0</ele><time>2026-04-29T09:28:41Z</time></trkpt><trkpt lat="28.275115408511205" lon="-11.210550819538069"><ele>218.5</ele><time>2026-04-29T09:28:42Z</time></trkpt><trkpt lat="28.274915651137427" lon="-11.210674734678966"><ele>218.0</ele><time>2026-04-29T09:28:43Z</time></trkpt><trkpt lat="28.274713380838968" lon="-11.210791895757682"><ele>218.0</ele><time>2026-04-29T09:28:44Z</time></trkpt><trkpt lat="28.27450601469631" lon="-11.210904808833526"><ele>218.0</ele><time>2026-04-29T09:28:45Z</time></trkpt><trkpt lat="28.27429686882537" lon="-11.211008646421469"><ele>218.0</ele><time>2026-04-29T09:28:46Z</time></trkpt><trkpt lat="28.274085575952345" lon="-11.211108763819814"><ele>218.0</ele><time>2026-04-29T09:28:47Z</time></trkpt><trkpt lat="28.273869305858863" lon="-11.211204217835949"><ele>218.5</ele><time>2026-04-29T09:28:48Z</time></trkpt><trkpt lat="28.273649169335926" lon="-11.211292191664553"><ele>219.0</ele><time>2026-04-29T09:28:49Z</time></trkpt><trkpt lat="28.273423635000764" lon="-11.21137623447105"><ele>219.0</ele><time>2026-04-29T09:28:50Z</time></trkpt><trkpt lat="28.273196775146182" lon="-11.21145515517657"><ele>219.0</ele><time>2026-04-29T09:28:51Z</time></trkpt><trkpt lat="28.27296729762394" lon="-11.211525544183214"><ele>218.5</ele><time>2026-04-29T09:28:52Z</time></trkpt><trkpt lat="28.27273756271258" lon="-11.211593122999158"><ele>218.0</ele><time>2026-04-29T09:28:53Z</time></trkpt><trkpt lat="28.272504498636035" lon="-11.211656644313573"><ele>218.5</ele><time>2026-04-29T09:28:54Z</time></trkpt><trkpt lat="28.27226750776164" lon="-11.211715841333229"><ele>219.0</ele><time>2026-04-29T09:28:55Z</time></trkpt><trkpt lat="28.27202968412752" lon="-11.21177359335557"><ele>219.0</ele><time>2026-04-29T09:28:56Z</time></trkpt><trkpt lat="28.27179336074954" lon="-11.211830528078176"><ele>219.0</ele><time>2026-04-29T09:28:57Z</time></trkpt><trkpt lat="28.27155670089236" lon="-11.211892740431812"><ele>219.0</ele><time>2026-04-29T09:28:58Z</time></trkpt><trkpt lat="28.271317426310308" lon="-11.211957936975937"><ele>219.0</ele><time>2026-04-29T09:28:59Z</time></trkpt><trkpt lat="28.27107991608558" lon="-11.21202245482351"><ele>219.0</ele><time>2026-04-29T09:29:00Z</time></trkpt><trkpt lat="28.2708411480207" lon="-11.212087603176956"><ele>219.0</ele><time>2026-04-29T09:29:01Z</time></trkpt><trkpt lat="28.270610747569624" lon="-11.21214695688023"><ele>218.0</ele><time>2026-04-29T09:29:02Z</time></trkpt><trkpt lat="28.27039913918078" lon="-11.21220019265815"><ele>217.0</ele><time>2026-04-29T09:29:03Z</time></trkpt><trkpt lat="28.270200392764597" lon="-11.21224871749389"><ele>216.0</ele><time>2026-04-29T09:29:04Z</time></trkpt><trkpt lat="28.270017739778133" lon="-11.212294520348502"><ele>216.0</ele><time>2026-04-29T09:29:05Z</time></trkpt><trkpt lat="28.269849399391717" lon="-11.212337896193642"><ele>216.0</ele><time>2026-04-29T09:29:06Z</time></trkpt><trkpt lat="28.269720795009587" lon="-11.212374212026619"><ele>216.0</ele><time>2026-04-29T09:29:07Z</time></trkpt><trkpt lat="28.269603824236082" lon="-11.212405398703488"><ele>216.0</ele><time>2026-04-29T09:29:08Z</time></trkpt><trkpt lat="28.269503440500756" lon="-11.212433377834792"><ele>216.0</ele><time>2026-04-29T09:29:09Z</time></trkpt><trkpt lat="28.26941849665849" lon="-11.212455476451778"><ele>216.0</ele><time>2026-04-29T09:29:10Z</time></trkpt><trkpt lat="28.269354020799806" lon="-11.21247217880345"><ele>216.0</ele><time>2026-04-29T09:29:11Z</time></trkpt><trkpt lat="28.26928986508596" lon="-11.212497520513024"><ele>216.0</ele><time>2026-04-29T09:29:14Z</time></trkpt><trkpt lat="28.2692235943023" lon="-11.212480126878129"><ele>216.0</ele><time>2026-04-29T09:31:15Z</time></trkpt><trkpt lat="28.269281449191045" lon="-11.21250962235554"><ele>216.0</ele><time>2026-04-29T09:31:32Z</time></trkpt><trkpt lat="28.269221658243097" lon="-11.21253893560362"><ele>216.0</ele><time>2026-04-29T09:31:53Z</time></trkpt><trkpt lat="28.269147115770437" lon="-11.21256697882161"><ele>216.0</ele><time>2026-04-29T09:31:54Z</time></trkpt><trkpt lat="28.269055655515533" lon="-11.212591791664888"><ele>216.0</ele><time>2026-04-29T09:31:55Z</time></trkpt><trkpt lat="28.268927659677605" lon="-11.21262324686212"><ele>216.0</ele><time>2026-04-29T09:31:56Z</time></trkpt><trkpt lat="28.268795965210924" lon="-11.212651428304216"><ele>216.0</ele><time>2026-04-29T09:31:57Z</time></trkpt><trkpt lat="28.26867738488984" lon="-11.212651750342213"><ele>215.66666666666669</ele><time>2026-04-29T09:31:58Z</time></trkpt><trkpt lat="28.268536139502945" lon="-11.21266487703435"><ele>215.33333333333334</ele><time>2026-04-29T09:31:59Z</time></trkpt><trkpt lat="28.26837809506899" lon="-11.212699786349232"><ele>215.0</ele><time>2026-04-29T09:32:00Z</time></trkpt><trkpt lat="28.268208617334647" lon="-11.21274491883524"><ele>215.66666666666669</ele><time>2026-04-29T09:32:01Z</time></trkpt><trkpt lat="28.2680380699052" lon="-11.212791708306234"><ele>216.33333333333331</ele><time>2026-04-29T09:32:02Z</time></trkpt><trkpt lat="28.267859694712623" lon="-11.212840785393691"><ele>217.0</ele><time>2026-04-29T09:32:03Z</time></trkpt><trkpt lat="28.267665089050492" lon="-11.212888304881181"><ele>217.0</ele><time>2026-04-29T09:32:04Z</time></trkpt><trkpt lat="28.267451138209534" lon="-11.212944247436116"><ele>217.0</ele><time>2026-04-29T09:32:05Z</time></trkpt><trkpt lat="28.267221358505296" lon="-11.21300559883533"><ele>218.0</ele><time>2026-04-29T09:32:06Z</time></trkpt><trkpt lat="28.266970741494582" lon="-11.21307053698423"><ele>219.0</ele><time>2026-04-29T09:32:07Z</time></trkpt><trkpt lat="28.266713363454766" lon="-11.213136498046817"><ele>218.5</ele><time>2026-04-29T09:32:08Z</time></trkpt><trkpt lat="28.266444865935267" lon="-11.213205193399203"><ele>218.0</ele><time>2026-04-29T09:32:09Z</time></trkpt><trkpt lat="28.26616099807776" lon="-11.213275029716028"><ele>218.0</ele><time>2026-04-29T09:32:10Z</time></trkpt><trkpt lat="28.265871953845714" lon="-11.213348205107106"><ele>218.0</ele><time>2026-04-29T09:32:11Z</time></trkpt><trkpt lat="28.265576229364555" lon="-11.213424463336738"><ele>217.5</ele><time>2026-04-29T09:32:12Z</time></trkpt><trkpt lat="28.265285609680905" lon="-11.213500690056648"><ele>217.0</ele><time>2026-04-29T09:32:13Z</time></trkpt><trkpt lat="28.26500041008327" lon="-11.213577120230338"><ele>217.0</ele><time>2026-04-29T09:32:14Z</time></trkpt><trkpt lat="28.264720090605" lon="-11.21365246882258"><ele>217.0</ele><time>2026-04-29T09:32:15Z</time></trkpt><trkpt lat="28.264455602914357" lon="-11.213720404028255"><ele>217.0</ele><time>2026-04-29T09:32:16Z</time></trkpt><trkpt lat="28.264204284639078" lon="-11.213784780673384"><ele>217.0</ele><time>2026-04-29T09:32:17Z</time></trkpt><trkpt lat="28.263969485118405" lon="-11.213846095500958"><ele>217.66666666666666</ele><time>2026-04-29T09:32:18Z</time></trkpt><trkpt lat="28.263746294318636" lon="-11.213907777532235"><ele>218.33333333333331</ele><time>2026-04-29T09:32:19Z</time></trkpt><trkpt lat="28.26353309623858" lon="-11.213965044255051"><ele>219.0</ele><time>2026-04-29T09:32:20Z</time></trkpt><trkpt lat="28.26331696191628" lon="-11.214021017215135"><ele>219.66666666666669</ele><time>2026-04-29T09:32:21Z</time></trkpt><trkpt lat="28.26309972320971" lon="-11.214077916881488"><ele>220.33333333333334</ele><time>2026-04-29T09:32:22Z</time></trkpt><trkpt lat="28.26288850282848" lon="-11.214131802511247"><ele>221.0</ele><time>2026-04-29T09:32:23Z</time></trkpt><trkpt lat="28.26267897235287" lon="-11.214183362442634"><ele>221.0</ele><time>2026-04-29T09:32:24Z</time></trkpt><trkpt lat="28.26248173265737" lon="-11.214235401688887"><ele>221.0</ele><time>2026-04-29T09:32:25Z</time></trkpt><trkpt lat="28.26229221437943" lon="-11.214284394797025"><ele>221.0</ele><time>2026-04-29T09:32:26Z</time></trkpt><trkpt lat="28.26211514663436" lon="-11.214332217176207"><ele>220.66666666666669</ele><time>2026-04-29T09:32:27Z</time></trkpt><trkpt lat="28.261933553095623" lon="-11.214380284636386"><ele>220.33333333333331</ele><time>2026-04-29T09:32:28Z</time></trkpt><trkpt lat="28.26175053575865" lon="-11.21442640476463"><ele>220.0</ele><time>2026-04-29T09:32:29Z</time></trkpt><trkpt lat="28.26157064552033" lon="-11.214473784806358"><ele>220.0</ele><time>2026-04-29T09:32:30Z</time></trkpt><trkpt lat="28.261392106590684" lon="-11.21452142388225"><ele>220.0</ele><time>2026-04-29T09:32:31Z</time></trkpt><trkpt lat="28.26121503065622" lon="-11.214566303000705"><ele>220.0</ele><time>2026-04-29T09:32:32Z</time></trkpt><trkpt lat="28.261038429630183" lon="-11.214610298322903"><ele>220.0</ele><time>2026-04-29T09:32:33Z</time></trkpt><trkpt lat="28.26086268348543" lon="-11.21465547339639"><ele>220.0</ele><time>2026-04-29T09:32:34Z</time></trkpt><trkpt lat="28.260686785034096" lon="-11.21470078763064"><ele>220.0</ele><time>2026-04-29T09:32:35Z</time></trkpt><trkpt lat="28.260510041433694" lon="-11.21474551330053"><ele>220.66666666666666</ele><time>2026-04-29T09:32:36Z</time></trkpt><trkpt lat="28.260332188274567" lon="-11.21478743617681"><ele>221.33333333333331</ele><time>2026-04-29T09:32:37Z</time></trkpt><trkpt lat="28.260154458419997" lon="-11.214832473003472"><ele>222.0</ele><time>2026-04-29T09:32:38Z</time></trkpt><trkpt lat="28.25996833395791" lon="-11.214879701457784"><ele>222.0</ele><time>2026-04-29T09:32:39Z</time></trkpt><trkpt lat="28.25978863356114" lon="-11.214925003676765"><ele>222.0</ele><time>2026-04-29T09:32:40Z</time></trkpt><trkpt lat="28.259602816405174" lon="-11.214976238394321"><ele>222.0</ele><time>2026-04-29T09:32:41Z</time></trkpt><trkpt lat="28.259406789637104" lon="-11.21502730976267"><ele>222.33333333333331</ele><time>2026-04-29T09:32:42Z</time></trkpt><trkpt lat="28.259207519758178" lon="-11.21507976572117"><ele>222.66666666666666</ele><time>2026-04-29T09:32:43Z</time></trkpt><trkpt lat="28.259001460072582" lon="-11.215131374605631"><ele>223.0</ele><time>2026-04-29T09:32:44Z</time></trkpt><trkpt lat="28.258800283567943" lon="-11.215180666296126"><ele>223.0</ele><time>2026-04-29T09:32:45Z</time></trkpt><trkpt lat="28.258598098131944" lon="-11.215233707908943"><ele>223.0</ele><time>2026-04-29T09:32:46Z</time></trkpt><trkpt lat="28.258400663733816" lon="-11.21528170550071"><ele>223.0</ele><time>2026-04-29T09:32:47Z</time></trkpt><trkpt lat="28.258199921981312" lon="-11.21533122595727"><ele>222.66666666666666</ele><time>2026-04-29T09:32:48Z</time></trkpt><trkpt lat="28.258001331064776" lon="-11.215383557306343"><ele>222.33333333333331</ele><time>2026-04-29T09:32:49Z</time></trkpt><trkpt lat="28.257800973113994" lon="-11.215438165901634"><ele>222.0</ele><time>2026-04-29T09:32:50Z</time></trkpt><trkpt lat="28.257600956768833" lon="-11.215489932022258"><ele>222.0</ele><time>2026-04-29T09:32:51Z</time></trkpt><trkpt lat="28.257400544786336" lon="-11.21553999476914"><ele>222.0</ele><time>2026-04-29T09:32:52Z</time></trkpt><trkpt lat="28.25720161672102" lon="-11.215593249197932"><ele>222.0</ele><time>2026-04-29T09:32:53Z</time></trkpt><trkpt lat="28.257002141977225" lon="-11.215647355603007"><ele>222.33333333333331</ele><time>2026-04-29T09:32:54Z</time></trkpt><trkpt lat="28.25679994982505" lon="-11.215702449772575"><ele>222.66666666666666</ele><time>2026-04-29T09:32:55Z</time></trkpt><trkpt lat="28.256599665606117" lon="-11.215754071949291"><ele>223.0</ele><time>2026-04-29T09:32:56Z</time></trkpt><trkpt lat="28.256394121600806" lon="-11.21580078887642"><ele>223.0</ele><time>2026-04-29T09:32:57Z</time></trkpt><trkpt lat="28.256185772488323" lon="-11.215853901052288"><ele>223.0</ele><time>2026-04-29T09:32:58Z</time></trkpt><trkpt lat="28.255976624849332" lon="-11.21591023299917"><ele>223.0</ele><time>2026-04-29T09:32:59Z</time></trkpt><trkpt lat="28.2557663820378" lon="-11.215969382349726"><ele>223.0</ele><time>2026-04-29T09:33:00Z</time></trkpt><trkpt lat="28.25555043817199" lon="-11.21602543375723"><ele>223.0</ele><time>2026-04-29T09:33:01Z</time></trkpt><trkpt lat="28.255333840884944" lon="-11.216078703216935"><ele>223.0</ele><time>2026-04-29T09:33:02Z</time></trkpt><trkpt lat="28.255118780605795" lon="-11.216132860278933"><ele>223.0</ele><time>2026-04-29T09:33:03Z</time></trkpt><trkpt lat="28.25490334493599" lon="-11.216188684590744"><ele>223.0</ele><time>2026-04-29T09:33:04Z</time></trkpt><trkpt lat="28.254689360286545" lon="-11.216243170506818"><ele>223.0</ele><time>2026-04-29T09:33:05Z</time></trkpt><trkpt lat="28.254479799953728" lon="-11.216299894167083"><ele>223.33333333333331</ele><time>2026-04-29T09:33:06Z</time></trkpt><trkpt lat="28.254264960369934" lon="-11.216356891275277"><ele>223.66666666666669</ele><time>2026-04-29T09:33:07Z</time></trkpt><trkpt lat="28.254043468167286" lon="-11.216413445625772"><ele>224.0</ele><time>2026-04-29T09:33:08Z</time></trkpt><trkpt lat="28.25382195986097" lon="-11.21646759683722"><ele>224.0</ele><time>2026-04-29T09:33:09Z</time></trkpt><trkpt lat="28.253598558404388" lon="-11.216526164873667"><ele>224.0</ele><time>2026-04-29T09:33:10Z</time></trkpt><trkpt lat="28.25337458433896" lon="-11.216584883210514"><ele>224.0</ele><time>2026-04-29T09:33:11Z</time></trkpt><trkpt lat="28.253150140509174" lon="-11.216644036532577"><ele>224.0</ele><time>2026-04-29T09:33:12Z</time></trkpt><trkpt lat="28.25292620590642" lon="-11.216698024702401"><ele>224.0</ele><time>2026-04-29T09:33:13Z</time></trkpt><trkpt lat="28.252700351955184" lon="-11.216754373341999"><ele>224.0</ele><time>2026-04-29T09:33:14Z</time></trkpt><trkpt lat="28.25247671645759" lon="-11.216809858322742"><ele>224.0</ele><time>2026-04-29T09:33:15Z</time></trkpt><trkpt lat="28.252251859028068" lon="-11.216866747460333"><ele>224.0</ele><time>2026-04-29T09:33:16Z</time></trkpt><trkpt lat="28.252025875536425" lon="-11.216927784404206"><ele>224.0</ele><time>2026-04-29T09:33:17Z</time></trkpt><trkpt lat="28.25179908515451" lon="-11.216986752280027"><ele>224.0</ele><time>2026-04-29T09:33:18Z</time></trkpt><trkpt lat="28.251568438258225" lon="-11.217047930102844"><ele>223.0</ele><time>2026-04-29T09:33:19Z</time></trkpt><trkpt lat="28.25134119450643" lon="-11.21710671585068"><ele>222.0</ele><time>2026-04-29T09:33:20Z</time></trkpt><trkpt lat="28.251113041566803" lon="-11.217164386019595"><ele>222.0</ele><time>2026-04-29T09:33:21Z</time></trkpt><trkpt lat="28.250883302544455" lon="-11.217223941083185"><ele>222.0</ele><time>2026-04-29T09:33:22Z</time></trkpt><trkpt lat="28.250652846203877" lon="-11.217285031015793"><ele>221.5</ele><time>2026-04-29T09:33:23Z</time></trkpt><trkpt lat="28.250422449616725" lon="-11.217346035552067"><ele>221.0</ele><time>2026-04-29T09:33:24Z</time></trkpt><trkpt lat="28.250193368582607" lon="-11.21740146383915"><ele>221.0</ele><time>2026-04-29T09:33:25Z</time></trkpt><trkpt lat="28.249961245356456" lon="-11.217458186199528"><ele>221.0</ele><time>2026-04-29T09:33:26Z</time></trkpt><trkpt lat="28.249729556970152" lon="-11.21751766989681"><ele>221.0</ele><time>2026-04-29T09:33:27Z</time></trkpt><trkpt lat="28.24950189447042" lon="-11.217580089222809"><ele>221.0</ele><time>2026-04-29T09:33:28Z</time></trkpt><trkpt lat="28.24927234991332" lon="-11.217641337806757"><ele>221.0</ele><time>2026-04-29T09:33:29Z</time></trkpt><trkpt lat="28.24904612885094" lon="-11.21770377308238"><ele>221.0</ele><time>2026-04-29T09:33:30Z</time></trkpt><trkpt lat="28.24881647395009" lon="-11.21776272702431"><ele>221.5</ele><time>2026-04-29T09:33:31Z</time></trkpt><trkpt lat="28.248588043964098" lon="-11.21781787433682"><ele>222.0</ele><time>2026-04-29T09:33:32Z</time></trkpt><trkpt lat="28.248356935413685" lon="-11.217874404909953"><ele>222.0</ele><time>2026-04-29T09:33:33Z</time></trkpt><trkpt lat="28.24812704937074" lon="-11.217932732035846"><ele>222.0</ele><time>2026-04-29T09:33:34Z</time></trkpt><trkpt lat="28.247896221514324" lon="-11.217991752726721"><ele>221.5</ele><time>2026-04-29T09:33:35Z</time></trkpt><trkpt lat="28.247668358380103" lon="-11.218051554610419"><ele>221.0</ele><time>2026-04-29T09:33:36Z</time></trkpt><trkpt lat="28.247438190893956" lon="-11.218111147535238"><ele>220.5</ele><time>2026-04-29T09:33:37Z</time></trkpt><trkpt lat="28.247215424699547" lon="-11.218167252750238"><ele>220.0</ele><time>2026-04-29T09:33:38Z</time></trkpt><trkpt lat="28.24699080884124" lon="-11.218222352273088"><ele>220.0</ele><time>2026-04-29T09:33:39Z</time></trkpt><trkpt lat="28.246763908727978" lon="-11.218281844745066"><ele>220.0</ele><time>2026-04-29T09:33:40Z</time></trkpt><trkpt lat="28.24652791956327" lon="-11.218344457422276"><ele>219.5</ele><time>2026-04-29T09:33:41Z</time></trkpt><trkpt lat="28.246294312428684" lon="-11.218402570061395"><ele>219.0</ele><time>2026-04-29T09:33:42Z</time></trkpt><trkpt lat="28.246063137538222" lon="-11.218460860563603"><ele>219.0</ele><time>2026-04-29T09:33:43Z</time></trkpt><trkpt lat="28.245827885822084" lon="-11.218519137151457"><ele>219.0</ele><time>2026-04-29T09:33:44Z</time></trkpt><trkpt lat="28.24559508035697" lon="-11.218580389200955"><ele>218.5</ele><time>2026-04-29T09:33:45Z</time></trkpt><trkpt lat="28.245360209346067" lon="-11.21864256116987"><ele>218.0</ele><time>2026-04-29T09:33:46Z</time></trkpt><trkpt lat="28.2451210784903" lon="-11.218704062216352"><ele>218.0</ele><time>2026-04-29T09:33:47Z</time></trkpt><trkpt lat="28.244881859316358" lon="-11.218767342169814"><ele>218.0</ele><time>2026-04-29T09:33:48Z</time></trkpt><trkpt lat="28.244641571419137" lon="-11.21883287429717"><ele>218.0</ele><time>2026-04-29T09:33:49Z</time></trkpt><trkpt lat="28.244401017510516" lon="-11.218903015635073"><ele>218.0</ele><time>2026-04-29T09:33:50Z</time></trkpt><trkpt lat="28.24416139035509" lon="-11.218980803655192"><ele>218.0</ele><time>2026-04-29T09:33:51Z</time></trkpt><trkpt lat="28.24392570257195" lon="-11.21907105989417"><ele>218.0</ele><time>2026-04-29T09:33:52Z</time></trkpt><trkpt lat="28.243693184033592" lon="-11.219167974254"><ele>218.0</ele><time>2026-04-29T09:33:53Z</time></trkpt><trkpt lat="28.243459975952486" lon="-11.219273953656232"><ele>218.0</ele><time>2026-04-29T09:33:54Z</time></trkpt><trkpt lat="28.243232088078397" lon="-11.219387828311975"><ele>218.0</ele><time>2026-04-29T09:33:55Z</time></trkpt><trkpt lat="28.24300428351417" lon="-11.21950561976734"><ele>218.0</ele><time>2026-04-29T09:33:56Z</time></trkpt><trkpt lat="28.242778771819047" lon="-11.21962824093659"><ele>218.0</ele><time>2026-04-29T09:33:57Z</time></trkpt><trkpt lat="28.24255750237453" lon="-11.219754609057667"><ele>218.0</ele><time>2026-04-29T09:33:58Z</time></trkpt><trkpt lat="28.242336691752772" lon="-11.219888762564052"><ele>218.5</ele><time>2026-04-29T09:33:59Z</time></trkpt><trkpt lat="28.24211783533849" lon="-11.22002221856656"><ele>219.0</ele><time>2026-04-29T09:34:00Z</time></trkpt><trkpt lat="28.241899167711864" lon="-11.22015326753106"><ele>219.0</ele><time>2026-04-29T09:34:01Z</time></trkpt><trkpt lat="28.241677560114233" lon="-11.220283690949225"><ele>219.0</ele><time>2026-04-29T09:34:02Z</time></trkpt><trkpt lat="28.241457540033693" lon="-11.220412085608721"><ele>219.0</ele><time>2026-04-29T09:34:03Z</time></trkpt><trkpt lat="28.241232052186138" lon="-11.220545341327231"><ele>219.0</ele><time>2026-04-29T09:34:04Z</time></trkpt><trkpt lat="28.24100478547593" lon="-11.220680833278307"><ele>219.0</ele><time>2026-04-29T09:34:05Z</time></trkpt><trkpt lat="28.240775043862204" lon="-11.22081745084044"><ele>219.0</ele><time>2026-04-29T09:34:06Z</time></trkpt><trkpt lat="28.24054491379291" lon="-11.220952698065629"><ele>218.0</ele><time>2026-04-29T09:34:07Z</time></trkpt><trkpt lat="28.240313030863792" lon="-11.22109066217194"><ele>217.0</ele><time>2026-04-29T09:34:08Z</time></trkpt><trkpt lat="28.240086498481563" lon="-11.221225610842604"><ele>217.0</ele><time>2026-04-29T09:34:09Z</time></trkpt><trkpt lat="28.23985778893571" lon="-11.221360876215048"><ele>217.0</ele><time>2026-04-29T09:34:10Z</time></trkpt><trkpt lat="28.23962874848975" lon="-11.221493802859026"><ele>216.0</ele><time>2026-04-29T09:34:11Z</time></trkpt><trkpt lat="28.239399052907608" lon="-11.221625183868165"><ele>215.0</ele><time>2026-04-29T09:34:12Z</time></trkpt><trkpt lat="28.239166665331478" lon="-11.221758022255456"><ele>215.0</ele><time>2026-04-29T09:34:13Z</time></trkpt><trkpt lat="28.23893853313812" lon="-11.221891964023802"><ele>215.0</ele><time>2026-04-29T09:34:14Z</time></trkpt><trkpt lat="28.238708176313107" lon="-11.222029682046623"><ele>215.0</ele><time>2026-04-29T09:34:15Z</time></trkpt><trkpt lat="28.238474035212718" lon="-11.222167813172836"><ele>215.0</ele><time>2026-04-29T09:34:16Z</time></trkpt><trkpt lat="28.23823678690358" lon="-11.222305046504964"><ele>215.0</ele><time>2026-04-29T09:34:17Z</time></trkpt><trkpt lat="28.238002945687448" lon="-11.22244131896805"><ele>215.0</ele><time>2026-04-29T09:34:18Z</time></trkpt><trkpt lat="28.23776856661435" lon="-11.222576113891577"><ele>215.0</ele><time>2026-04-29T09:34:19Z</time></trkpt><trkpt lat="28.237536112010563" lon="-11.22271161652724"><ele>215.0</ele><time>2026-04-29T09:34:20Z</time></trkpt><trkpt lat="28.237306720643243" lon="-11.222848390217113"><ele>214.0</ele><time>2026-04-29T09:34:21Z</time></trkpt><trkpt lat="28.237075460483553" lon="-11.222984531718497"><ele>213.0</ele><time>2026-04-29T09:34:22Z</time></trkpt><trkpt lat="28.23684468934423" lon="-11.223119957168239"><ele>213.5</ele><time>2026-04-29T09:34:23Z</time></trkpt><trkpt lat="28.23661408995319" lon="-11.223254234698214"><ele>214.0</ele><time>2026-04-29T09:34:24Z</time></trkpt><trkpt lat="28.236384030124558" lon="-11.223388128533593"><ele>214.0</ele><time>2026-04-29T09:34:25Z</time></trkpt><trkpt lat="28.23615503217504" lon="-11.223523338626531"><ele>214.0</ele><time>2026-04-29T09:34:26Z</time></trkpt><trkpt lat="28.23592482614571" lon="-11.223660261782722"><ele>214.0</ele><time>2026-04-29T09:34:27Z</time></trkpt><trkpt lat="28.235695181550152" lon="-11.223798543124856"><ele>214.0</ele><time>2026-04-29T09:34:28Z</time></trkpt><trkpt lat="28.235467213459884" lon="-11.223933279786474"><ele>213.0</ele><time>2026-04-29T09:34:29Z</time></trkpt><trkpt lat="28.235237687356797" lon="-11.22406822057712"><ele>212.0</ele><time>2026-04-29T09:34:30Z</time></trkpt><trkpt lat="28.235005190541337" lon="-11.224204797458182"><ele>212.0</ele><time>2026-04-29T09:34:31Z</time></trkpt><trkpt lat="28.234775966507904" lon="-11.22433812357276"><ele>212.0</ele><time>2026-04-29T09:34:32Z</time></trkpt><trkpt lat="28.234545626075718" lon="-11.224474467859046"><ele>212.0</ele><time>2026-04-29T09:34:33Z</time></trkpt><trkpt lat="28.234315495035816" lon="-11.224611413300064"><ele>212.0</ele><time>2026-04-29T09:34:34Z</time></trkpt><trkpt lat="28.234083849757454" lon="-11.22474758123505"><ele>212.5</ele><time>2026-04-29T09:34:35Z</time></trkpt><trkpt lat="28.23385101483292" lon="-11.22488505205073"><ele>213.0</ele><time>2026-04-29T09:34:36Z</time></trkpt><trkpt lat="28.233622743391162" lon="-11.225022855572913"><ele>213.0</ele><time>2026-04-29T09:34:37Z</time></trkpt><trkpt lat="28.233392065493696" lon="-11.225155818256896"><ele>213.0</ele><time>2026-04-29T09:34:38Z</time></trkpt><trkpt lat="28.233163282801446" lon="-11.225291191894474"><ele>212.5</ele><time>2026-04-29T09:34:39Z</time></trkpt><trkpt lat="28.2329354937276" lon="-11.225422419004705"><ele>212.0</ele><time>2026-04-29T09:34:40Z</time></trkpt><trkpt lat="28.232705638623024" lon="-11.22555565311487"><ele>212.0</ele><time>2026-04-29T09:34:41Z</time></trkpt><trkpt lat="28.23247651304359" lon="-11.225688854986696"><ele>212.0</ele><time>2026-04-29T09:34:42Z</time></trkpt><trkpt lat="28.23224975826362" lon="-11.22582139384966"><ele>211.5</ele><time>2026-04-29T09:34:43Z</time></trkpt><trkpt lat="28.232022644484584" lon="-11.225953941154714"><ele>211.0</ele><time>2026-04-29T09:34:44Z</time></trkpt><trkpt lat="28.231797009605774" lon="-11.226085946877065"><ele>211.0</ele><time>2026-04-29T09:34:45Z</time></trkpt><trkpt lat="28.23157121461715" lon="-11.2262183710861"><ele>211.0</ele><time>2026-04-29T09:34:46Z</time></trkpt><trkpt lat="28.231342750634926" lon="-11.22635040384307"><ele>211.5</ele><time>2026-04-29T09:34:47Z</time></trkpt><trkpt lat="28.231113925074336" lon="-11.226486036557947"><ele>212.0</ele><time>2026-04-29T09:34:48Z</time></trkpt><trkpt lat="28.230889223692422" lon="-11.226620059453115"><ele>212.0</ele><time>2026-04-29T09:34:49Z</time></trkpt><trkpt lat="28.230666558263827" lon="-11.22675119787145"><ele>212.0</ele><time>2026-04-29T09:34:50Z</time></trkpt><trkpt lat="28.230443521410045" lon="-11.226881444492168"><ele>210.5</ele><time>2026-04-29T09:34:51Z</time></trkpt><trkpt lat="28.23021976916897" lon="-11.227010246092714"><ele>209.0</ele><time>2026-04-29T09:34:52Z</time></trkpt><trkpt lat="28.22999857859769" lon="-11.227139230324408"><ele>208.5</ele><time>2026-04-29T09:34:53Z</time></trkpt><trkpt lat="28.229775588132675" lon="-11.22727207534172"><ele>208.0</ele><time>2026-04-29T09:34:54Z</time></trkpt><trkpt lat="28.22955387560268" lon="-11.227405849056334"><ele>209.0</ele><time>2026-04-29T09:34:55Z</time></trkpt><trkpt lat="28.22932862554761" lon="-11.227539507965973"><ele>210.0</ele><time>2026-04-29T09:34:56Z</time></trkpt><trkpt lat="28.229103697929784" lon="-11.227671539988917"><ele>208.5</ele><time>2026-04-29T09:34:57Z</time></trkpt><trkpt lat="28.22887912436139" lon="-11.227801031600832"><ele>207.0</ele><time>2026-04-29T09:34:58Z</time></trkpt><trkpt lat="28.228652867254425" lon="-11.227933614056704"><ele>207.0</ele><time>2026-04-29T09:34:59Z</time></trkpt><trkpt lat="28.22842817812433" lon="-11.228065798132274"><ele>207.0</ele><time>2026-04-29T09:35:00Z</time></trkpt><trkpt lat="28.22820125317132" lon="-11.228198049239303"><ele>206.0</ele><time>2026-04-29T09:35:01Z</time></trkpt><trkpt lat="28.227974745627566" lon="-11.228333951510333"><ele>205.0</ele><time>2026-04-29T09:35:02Z</time></trkpt><trkpt lat="28.227747838813098" lon="-11.228469537551096"><ele>205.0</ele><time>2026-04-29T09:35:03Z</time></trkpt><trkpt lat="28.227517036846322" lon="-11.228604295919716"><ele>205.0</ele><time>2026-04-29T09:35:04Z</time></trkpt><trkpt lat="28.22729057903828" lon="-11.228736945035422"><ele>205.0</ele><time>2026-04-29T09:35:05Z</time></trkpt><trkpt lat="28.227061282822064" lon="-11.228871560786223"><ele>205.0</ele><time>2026-04-29T09:35:06Z</time></trkpt><trkpt lat="28.22683055389863" lon="-11.229005862100198"><ele>205.0</ele><time>2026-04-29T09:35:07Z</time></trkpt><trkpt lat="28.226602568987836" lon="-11.22914038342672"><ele>205.0</ele><time>2026-04-29T09:35:08Z</time></trkpt><trkpt lat="28.226372898714846" lon="-11.229276352309354"><ele>205.0</ele><time>2026-04-29T09:35:09Z</time></trkpt><trkpt lat="28.226143555950433" lon="-11.22940867039858"><ele>205.0</ele><time>2026-04-29T09:35:10Z</time></trkpt><trkpt lat="28.225915409848774" lon="-11.229543718681574"><ele>205.0</ele><time>2026-04-29T09:35:11Z</time></trkpt><trkpt lat="28.22568572391785" lon="-11.229679396004487"><ele>205.0</ele><time>2026-04-29T09:35:12Z</time></trkpt><trkpt lat="28.225456715253216" lon="-11.229814206057421"><ele>203.5</ele><time>2026-04-29T09:35:13Z</time></trkpt><trkpt lat="28.22522660271388" lon="-11.2299486312704"><ele>202.0</ele><time>2026-04-29T09:35:14Z</time></trkpt><trkpt lat="28.224996431934905" lon="-11.230081921120673"><ele>201.5</ele><time>2026-04-29T09:35:15Z</time></trkpt><trkpt lat="28.224766818513576" lon="-11.230213727296006"><ele>201.0</ele><time>2026-04-29T09:35:16Z</time></trkpt><trkpt lat="28.224535842706658" lon="-11.23034595573116"><ele>201.0</ele><time>2026-04-29T09:35:17Z</time></trkpt><trkpt lat="28.224306787690864" lon="-11.230479419851337"><ele>201.0</ele><time>2026-04-29T09:35:18Z</time></trkpt><trkpt lat="28.224080195755704" lon="-11.230614077513408"><ele>201.0</ele><time>2026-04-29T09:35:19Z</time></trkpt><trkpt lat="28.223855837756695" lon="-11.230747911320913"><ele>201.0</ele><time>2026-04-29T09:35:20Z</time></trkpt><trkpt lat="28.22362889153659" lon="-11.23088153256972"><ele>201.0</ele><time>2026-04-29T09:35:21Z</time></trkpt><trkpt lat="28.22340218249117" lon="-11.231015383749927"><ele>201.0</ele><time>2026-04-29T09:35:22Z</time></trkpt><trkpt lat="28.223177848058665" lon="-11.231150684665476"><ele>200.5</ele><time>2026-04-29T09:35:23Z</time></trkpt><trkpt lat="28.222950374999233" lon="-11.231284194693641"><ele>200.0</ele><time>2026-04-29T09:35:24Z</time></trkpt><trkpt lat="28.22272443932679" lon="-11.231417210380638"><ele>200.0</ele><time>2026-04-29T09:35:25Z</time></trkpt><trkpt lat="28.222501359159295" lon="-11.231550113787566"><ele>200.0</ele><time>2026-04-29T09:35:26Z</time></trkpt><trkpt lat="28.222275894239072" lon="-11.231683779817919"><ele>199.0</ele><time>2026-04-29T09:35:27Z</time></trkpt><trkpt lat="28.222050130267945" lon="-11.231812759275106"><ele>198.0</ele><time>2026-04-29T09:35:28Z</time></trkpt><trkpt lat="28.221823313999014" lon="-11.23194042393333"><ele>198.0</ele><time>2026-04-29T09:35:29Z</time></trkpt><trkpt lat="28.221598699112963" lon="-11.232065927682829"><ele>198.0</ele><time>2026-04-29T09:35:30Z</time></trkpt><trkpt lat="28.221376487630884" lon="-11.232193237041043"><ele>198.0</ele><time>2026-04-29T09:35:31Z</time></trkpt><trkpt lat="28.22115710942319" lon="-11.23232672577488"><ele>198.0</ele><time>2026-04-29T09:35:32Z</time></trkpt><trkpt lat="28.220938820854432" lon="-11.232458200496275"><ele>198.0</ele><time>2026-04-29T09:35:33Z</time></trkpt><trkpt lat="28.22071657945689" lon="-11.232583206493393"><ele>198.0</ele><time>2026-04-29T09:35:34Z</time></trkpt><trkpt lat="28.22049266012548" lon="-11.23270688637761"><ele>197.0</ele><time>2026-04-29T09:35:35Z</time></trkpt><trkpt lat="28.22026935790181" lon="-11.232825818085768"><ele>196.0</ele><time>2026-04-29T09:35:36Z</time></trkpt><trkpt lat="28.220042158102434" lon="-11.232930056333364"><ele>194.5</ele><time>2026-04-29T09:35:37Z</time></trkpt><trkpt lat="28.219805486716496" lon="-11.233014007552823"><ele>193.0</ele><time>2026-04-29T09:35:38Z</time></trkpt><trkpt lat="28.21956060506127" lon="-11.233076539121706"><ele>193.0</ele><time>2026-04-29T09:35:39Z</time></trkpt><trkpt lat="28.21931652113338" lon="-11.233121804562044"><ele>193.0</ele><time>2026-04-29T09:35:40Z</time></trkpt><trkpt lat="28.219066040445558" lon="-11.233159328809041"><ele>194.0</ele><time>2026-04-29T09:35:41Z</time></trkpt><trkpt lat="28.21881496634788" lon="-11.233177203735004"><ele>195.0</ele><time>2026-04-29T09:35:42Z</time></trkpt><trkpt lat="28.21856105977531" lon="-11.233185881517356"><ele>195.0</ele><time>2026-04-29T09:35:43Z</time></trkpt><trkpt lat="28.21830755189838" lon="-11.23317647141674"><ele>195.0</ele><time>2026-04-29T09:35:44Z</time></trkpt><trkpt lat="28.218054102000412" lon="-11.233150867935853"><ele>193.0</ele><time>2026-04-29T09:35:45Z</time></trkpt><trkpt lat="28.21780385583792" lon="-11.233107664169417"><ele>191.0</ele><time>2026-04-29T09:35:46Z</time></trkpt><trkpt lat="28.21755649677926" lon="-11.23305380585898"><ele>191.0</ele><time>2026-04-29T09:35:47Z</time></trkpt><trkpt lat="28.21731458453771" lon="-11.232982232167187"><ele>191.0</ele><time>2026-04-29T09:35:48Z</time></trkpt><trkpt lat="28.21707820098212" lon="-11.232895347245314"><ele>191.0</ele><time>2026-04-29T09:35:49Z</time></trkpt><trkpt lat="28.2168470816648" lon="-11.232789162553509"><ele>191.0</ele><time>2026-04-29T09:35:50Z</time></trkpt><trkpt lat="28.216618389042814" lon="-11.232674709991109"><ele>193.5</ele><time>2026-04-29T09:35:51Z</time></trkpt><trkpt lat="28.216394332549" lon="-11.232548603359206"><ele>196.0</ele><time>2026-04-29T09:35:52Z</time></trkpt><trkpt lat="28.216181717713972" lon="-11.232406105405081"><ele>195.5</ele><time>2026-04-29T09:35:53Z</time></trkpt><trkpt lat="28.215981680541898" lon="-11.23224869684099"><ele>195.0</ele><time>2026-04-29T09:35:54Z</time></trkpt><trkpt lat="28.215788419763797" lon="-11.232083972913358"><ele>195.5</ele><time>2026-04-29T09:35:55Z</time></trkpt><trkpt lat="28.21560072009094" lon="-11.231911401908917"><ele>196.0</ele><time>2026-04-29T09:35:56Z</time></trkpt><trkpt lat="28.215424061268344" lon="-11.23173110185606"><ele>196.0</ele><time>2026-04-29T09:35:57Z</time></trkpt><trkpt lat="28.215254469047906" lon="-11.231537877273901"><ele>196.0</ele><time>2026-04-29T09:35:58Z</time></trkpt><trkpt lat="28.215097930620676" lon="-11.231337620670956"><ele>195.5</ele><time>2026-04-29T09:35:59Z</time></trkpt><trkpt lat="28.214948883839188" lon="-11.231122988405872"><ele>195.0</ele><time>2026-04-29T09:36:00Z</time></trkpt><trkpt lat="28.214805011531176" lon="-11.230906965131831"><ele>196.5</ele><time>2026-04-29T09:36:01Z</time></trkpt><trkpt lat="28.214656185814118" lon="-11.230690939951284"><ele>198.0</ele><time>2026-04-29T09:36:02Z</time></trkpt><trkpt lat="28.214504661940925" lon="-11.230475881605168"><ele>198.5</ele><time>2026-04-29T09:36:03Z</time></trkpt><trkpt lat="28.214353745069186" lon="-11.230259931877521"><ele>199.0</ele><time>2026-04-29T09:36:04Z</time></trkpt><trkpt lat="28.21420209345743" lon="-11.23004340913796"><ele>199.0</ele><time>2026-04-29T09:36:05Z</time></trkpt><trkpt lat="28.21404909854789" lon="-11.229827156103875"><ele>199.0</ele><time>2026-04-29T09:36:06Z</time></trkpt><trkpt lat="28.21389685828529" lon="-11.229611653318232"><ele>200.0</ele><time>2026-04-29T09:36:07Z</time></trkpt><trkpt lat="28.2137462868545" lon="-11.229398249887112"><ele>201.0</ele><time>2026-04-29T09:36:08Z</time></trkpt><trkpt lat="28.213595157573263" lon="-11.22918509488628"><ele>200.5</ele><time>2026-04-29T09:36:09Z</time></trkpt><trkpt lat="28.21344007433584" lon="-11.228967150255638"><ele>200.0</ele><time>2026-04-29T09:36:10Z</time></trkpt><trkpt lat="28.213287952660746" lon="-11.228751273918698"><ele>200.5</ele><time>2026-04-29T09:36:11Z</time></trkpt><trkpt lat="28.213136068956693" lon="-11.228533814226813"><ele>201.0</ele><time>2026-04-29T09:36:12Z</time></trkpt><trkpt lat="28.21298654100764" lon="-11.228319033869786"><ele>201.0</ele><time>2026-04-29T09:36:13Z</time></trkpt><trkpt lat="28.212837681820062" lon="-11.228104278638497"><ele>201.0</ele><time>2026-04-29T09:36:14Z</time></trkpt><trkpt lat="28.21268965567078" lon="-11.227890431631012"><ele>201.0</ele><time>2026-04-29T09:36:15Z</time></trkpt><trkpt lat="28.212542379818185" lon="-11.22767677573584"><ele>201.0</ele><time>2026-04-29T09:36:16Z</time></trkpt><trkpt lat="28.21239490666053" lon="-11.227464491308531"><ele>201.0</ele><time>2026-04-29T09:36:17Z</time></trkpt><trkpt lat="28.21224653050107" lon="-11.227253055605738"><ele>201.0</ele><time>2026-04-29T09:36:18Z</time></trkpt><trkpt lat="28.21210109897718" lon="-11.227044620837681"><ele>201.0</ele><time>2026-04-29T09:36:19Z</time></trkpt><trkpt lat="28.211954253219563" lon="-11.226836254844498"><ele>201.0</ele><time>2026-04-29T09:36:20Z</time></trkpt><trkpt lat="28.2118098088702" lon="-11.226632285271585"><ele>200.5</ele><time>2026-04-29T09:36:21Z</time></trkpt><trkpt lat="28.21166350129182" lon="-11.226427142366171"><ele>200.0</ele><time>2026-04-29T09:36:22Z</time></trkpt><trkpt lat="28.21152145373827" lon="-11.226224905781732"><ele>201.0</ele><time>2026-04-29T09:36:23Z</time></trkpt><trkpt lat="28.21137894985124" lon="-11.226023210808297"><ele>202.0</ele><time>2026-04-29T09:36:24Z</time></trkpt><trkpt lat="28.21123748080193" lon="-11.225820702531436"><ele>202.33333333333331</ele><time>2026-04-29T09:36:25Z</time></trkpt><trkpt lat="28.2110993816326" lon="-11.225622949697994"><ele>202.66666666666669</ele><time>2026-04-29T09:36:26Z</time></trkpt><trkpt lat="28.210958847051312" lon="-11.225421380124253"><ele>203.0</ele><time>2026-04-29T09:36:27Z</time></trkpt><trkpt lat="28.210819892851" lon="-11.225224770090685"><ele>203.0</ele><time>2026-04-29T09:36:28Z</time></trkpt><trkpt lat="28.21068006325167" lon="-11.225022363726511"><ele>203.0</ele><time>2026-04-29T09:36:29Z</time></trkpt><trkpt lat="28.210537263449652" lon="-11.224817862616225"><ele>203.0</ele><time>2026-04-29T09:36:30Z</time></trkpt><trkpt lat="28.210394237505792" lon="-11.224610637511574"><ele>203.0</ele><time>2026-04-29T09:36:31Z</time></trkpt><trkpt lat="28.21025478810288" lon="-11.224402391023643"><ele>203.0</ele><time>2026-04-29T09:36:32Z</time></trkpt><trkpt lat="28.210096520304685" lon="-11.224208227276216"><ele>203.0</ele><time>2026-04-29T09:36:33Z</time></trkpt><trkpt lat="28.209950706630043" lon="-11.22400146692784"><ele>203.0</ele><time>2026-04-29T09:36:34Z</time></trkpt><trkpt lat="28.209804807930478" lon="-11.223794503053009"><ele>203.0</ele><time>2026-04-29T09:36:35Z</time></trkpt><trkpt lat="28.209661410137386" lon="-11.223591086437983"><ele>203.0</ele><time>2026-04-29T09:36:36Z</time></trkpt><trkpt lat="28.209514811421414" lon="-11.223383129388099"><ele>203.0</ele><time>2026-04-29T09:36:37Z</time></trkpt><trkpt lat="28.20936780420571" lon="-11.223174592470832"><ele>203.0</ele><time>2026-04-29T09:36:38Z</time></trkpt><trkpt lat="28.209221215783117" lon="-11.222961967013887"><ele>203.0</ele><time>2026-04-29T09:36:39Z</time></trkpt><trkpt lat="28.209074586467207" lon="-11.222749303704035"><ele>203.5</ele><time>2026-04-29T09:36:40Z</time></trkpt><trkpt lat="28.20894006734374" lon="-11.222524751080197"><ele>204.0</ele><time>2026-04-29T09:36:41Z</time></trkpt><trkpt lat="28.208792828964185" lon="-11.222313159528419"><ele>204.0</ele><time>2026-04-29T09:36:42Z</time></trkpt><trkpt lat="28.208642234936896" lon="-11.222096246441023"><ele>204.0</ele><time>2026-04-29T09:36:43Z</time></trkpt><trkpt lat="28.20849314056947" lon="-11.22188667586565"><ele>204.0</ele><time>2026-04-29T09:36:44Z</time></trkpt><trkpt lat="28.20834550243132" lon="-11.221671649737138"><ele>204.0</ele><time>2026-04-29T09:36:45Z</time></trkpt><trkpt lat="28.208199797851663" lon="-11.22145938727328"><ele>204.5</ele><time>2026-04-29T09:36:46Z</time></trkpt><trkpt lat="28.208051887210363" lon="-11.221247703908682"><ele>205.0</ele><time>2026-04-29T09:36:47Z</time></trkpt><trkpt lat="28.20790399976007" lon="-11.221039463616593"><ele>205.0</ele><time>2026-04-29T09:36:48Z</time></trkpt><trkpt lat="28.207759997224215" lon="-11.220834957643136"><ele>205.0</ele><time>2026-04-29T09:36:49Z</time></trkpt><trkpt lat="28.207614246011936" lon="-11.220630901150166"><ele>205.0</ele><time>2026-04-29T09:36:50Z</time></trkpt><trkpt lat="28.207455628035138" lon="-11.220437368953643"><ele>205.0</ele><time>2026-04-29T09:36:51Z</time></trkpt><trkpt lat="28.20730731397311" lon="-11.220230917705763"><ele>204.5</ele><time>2026-04-29T09:36:52Z</time></trkpt><trkpt lat="28.20715892754181" lon="-11.220024801133018"><ele>204.0</ele><time>2026-04-29T09:36:53Z</time></trkpt><trkpt lat="28.207009477919197" lon="-11.219817289635754"><ele>202.0</ele><time>2026-04-29T09:36:54Z</time></trkpt><trkpt lat="28.206857939454373" lon="-11.219611882222514"><ele>200.0</ele><time>2026-04-29T09:36:55Z</time></trkpt><trkpt lat="28.206704440934953" lon="-11.21941254200037"><ele>200.0</ele><time>2026-04-29T09:36:56Z</time></trkpt><trkpt lat="28.206546968583986" lon="-11.219221503312053"><ele>200.0</ele><time>2026-04-29T09:36:57Z</time></trkpt><trkpt lat="28.20637895038397" lon="-11.219038695780954"><ele>197.0</ele><time>2026-04-29T09:36:58Z</time></trkpt><trkpt lat="28.206203370350284" lon="-11.218859542171941"><ele>194.0</ele><time>2026-04-29T09:36:59Z</time></trkpt><trkpt lat="28.206022192399164" lon="-11.218687569900643"><ele>194.0</ele><time>2026-04-29T09:37:00Z</time></trkpt><trkpt lat="28.205833192553037" lon="-11.21852093311767"><ele>194.0</ele><time>2026-04-29T09:37:01Z</time></trkpt><trkpt lat="28.20564532329898" lon="-11.218348630797287"><ele>192.5</ele><time>2026-04-29T09:37:02Z</time></trkpt><trkpt lat="28.205440129858584" lon="-11.218198065418607"><ele>191.0</ele><time>2026-04-29T09:37:03Z</time></trkpt><trkpt lat="28.20522934390083" lon="-11.21805706803465"><ele>191.0</ele><time>2026-04-29T09:37:04Z</time></trkpt><trkpt lat="28.205015404440378" lon="-11.217920729230874"><ele>191.0</ele><time>2026-04-29T09:37:05Z</time></trkpt><trkpt lat="28.20479491645339" lon="-11.217789708703462"><ele>189.0</ele><time>2026-04-29T09:37:06Z</time></trkpt><trkpt lat="28.204561392103436" lon="-11.217691156034292"><ele>187.0</ele><time>2026-04-29T09:37:07Z</time></trkpt><trkpt lat="28.204333493181906" lon="-11.217582336454809"><ele>187.0</ele><time>2026-04-29T09:37:08Z</time></trkpt><trkpt lat="28.204098384761018" lon="-11.217485501857226"><ele>187.0</ele><time>2026-04-29T09:37:09Z</time></trkpt><trkpt lat="28.203863800333178" lon="-11.217388329264796"><ele>184.5</ele><time>2026-04-29T09:37:10Z</time></trkpt><trkpt lat="28.203626135680658" lon="-11.217307729176303"><ele>182.0</ele><time>2026-04-29T09:37:11Z</time></trkpt><trkpt lat="28.203392577850906" lon="-11.217213694165928"><ele>180.0</ele><time>2026-04-29T09:37:12Z</time></trkpt><trkpt lat="28.203150575481573" lon="-11.217159145643258"><ele>178.0</ele><time>2026-04-29T09:37:13Z</time></trkpt><trkpt lat="28.20291554049149" lon="-11.217115774853808"><ele>178.0</ele><time>2026-04-29T09:37:14Z</time></trkpt><trkpt lat="28.202682917973387" lon="-11.217073486006893"><ele>178.0</ele><time>2026-04-29T09:37:15Z</time></trkpt><trkpt lat="28.202454238980838" lon="-11.217034939195731"><ele>177.0</ele><time>2026-04-29T09:37:16Z</time></trkpt><trkpt lat="28.202219739350326" lon="-11.216997960406138"><ele>176.0</ele><time>2026-04-29T09:37:17Z</time></trkpt><trkpt lat="28.20198474675292" lon="-11.216957963672872"><ele>176.0</ele><time>2026-04-29T09:37:18Z</time></trkpt><trkpt lat="28.201745269365112" lon="-11.216916499881222"><ele>176.0</ele><time>2026-04-29T09:37:19Z</time></trkpt><trkpt lat="28.201502963878454" lon="-11.2168745425292"><ele>175.5</ele><time>2026-04-29T09:37:20Z</time></trkpt><trkpt lat="28.20125948107842" lon="-11.216833388429738"><ele>175.0</ele><time>2026-04-29T09:37:21Z</time></trkpt><trkpt lat="28.20101342752896" lon="-11.216791249490315"><ele>175.0</ele><time>2026-04-29T09:37:22Z</time></trkpt><trkpt lat="28.200767194816937" lon="-11.216751285951007"><ele>175.0</ele><time>2026-04-29T09:37:23Z</time></trkpt><trkpt lat="28.200519314416752" lon="-11.21671025803292"><ele>173.0</ele><time>2026-04-29T09:37:24Z</time></trkpt><trkpt lat="28.200269319849383" lon="-11.216666628610716"><ele>171.0</ele><time>2026-04-29T09:37:25Z</time></trkpt><trkpt lat="28.20002350507495" lon="-11.216619952180114"><ele>172.0</ele><time>2026-04-29T09:37:26Z</time></trkpt><trkpt lat="28.199777729985563" lon="-11.216577640049408"><ele>173.0</ele><time>2026-04-29T09:37:27Z</time></trkpt><trkpt lat="28.19953403817165" lon="-11.216540945721475"><ele>173.0</ele><time>2026-04-29T09:37:28Z</time></trkpt><trkpt lat="28.199292982171954" lon="-11.216508219463208"><ele>173.0</ele><time>2026-04-29T09:37:29Z</time></trkpt><trkpt lat="28.199050368063336" lon="-11.21647006454581"><ele>171.5</ele><time>2026-04-29T09:37:30Z</time></trkpt><trkpt lat="28.198809899418716" lon="-11.216427392863121"><ele>170.0</ele><time>2026-04-29T09:37:31Z</time></trkpt><trkpt lat="28.198569371878136" lon="-11.216384985237323"><ele>170.0</ele><time>2026-04-29T09:37:32Z</time></trkpt><trkpt lat="28.198327281951883" lon="-11.216345057335937"><ele>170.0</ele><time>2026-04-29T09:37:33Z</time></trkpt><trkpt lat="28.198083650088392" lon="-11.216306681846481"><ele>169.0</ele><time>2026-04-29T09:37:34Z</time></trkpt><trkpt lat="28.197837510540243" lon="-11.21626951117751"><ele>168.0</ele><time>2026-04-29T09:37:35Z</time></trkpt><trkpt lat="28.19759324094418" lon="-11.216229566472197"><ele>168.0</ele><time>2026-04-29T09:37:36Z</time></trkpt><trkpt lat="28.197347444561945" lon="-11.216184441063074"><ele>168.0</ele><time>2026-04-29T09:37:37Z</time></trkpt><trkpt lat="28.197101494613552" lon="-11.216137428509331"><ele>166.5</ele><time>2026-04-29T09:37:38Z</time></trkpt><trkpt lat="28.19685561363539" lon="-11.216095390521229"><ele>165.0</ele><time>2026-04-29T09:37:39Z</time></trkpt><trkpt lat="28.196608308661002" lon="-11.216058902605784"><ele>164.0</ele><time>2026-04-29T09:37:40Z</time></trkpt><trkpt lat="28.19635913501772" lon="-11.216019906029054"><ele>163.0</ele><time>2026-04-29T09:37:41Z</time></trkpt><trkpt lat="28.196108741393314" lon="-11.215977793094492"><ele>163.0</ele><time>2026-04-29T09:37:42Z</time></trkpt><trkpt lat="28.195862325105892" lon="-11.215935951415414"><ele>163.0</ele><time>2026-04-29T09:37:43Z</time></trkpt><trkpt lat="28.195612024288096" lon="-11.215891907282424"><ele>163.0</ele><time>2026-04-29T09:37:44Z</time></trkpt><trkpt lat="28.195363289147345" lon="-11.21584775882026"><ele>163.0</ele><time>2026-04-29T09:37:45Z</time></trkpt><trkpt lat="28.195113387519367" lon="-11.21580723006123"><ele>163.0</ele><time>2026-04-29T09:37:46Z</time></trkpt><trkpt lat="28.194863621779916" lon="-11.215767972736806"><ele>163.0</ele><time>2026-04-29T09:37:47Z</time></trkpt><trkpt lat="28.19461667459348" lon="-11.215729797230232"><ele>162.0</ele><time>2026-04-29T09:37:48Z</time></trkpt><trkpt lat="28.194370463132074" lon="-11.215690909863131"><ele>161.0</ele><time>2026-04-29T09:37:49Z</time></trkpt><trkpt lat="28.1941248731895" lon="-11.2156505524"><ele>159.5</ele><time>2026-04-29T09:37:50Z</time></trkpt><trkpt lat="28.193883837684755" lon="-11.21561131190244"><ele>158.0</ele><time>2026-04-29T09:37:51Z</time></trkpt><trkpt lat="28.193641850353334" lon="-11.215571174388597"><ele>158.0</ele><time>2026-04-29T09:37:52Z</time></trkpt><trkpt lat="28.193401129723764" lon="-11.215532227556123"><ele>158.0</ele><time>2026-04-29T09:37:53Z</time></trkpt><trkpt lat="28.19316331657083" lon="-11.215492630185942"><ele>156.0</ele><time>2026-04-29T09:37:54Z</time></trkpt><trkpt lat="28.192926387195314" lon="-11.215454810213327"><ele>154.0</ele><time>2026-04-29T09:37:55Z</time></trkpt><trkpt lat="28.192689319577916" lon="-11.215416976011412"><ele>154.0</ele><time>2026-04-29T09:37:56Z</time></trkpt><trkpt lat="28.19245143688225" lon="-11.21537909382315"><ele>154.0</ele><time>2026-04-29T09:37:57Z</time></trkpt><trkpt lat="28.192214293154507" lon="-11.215339819785264"><ele>154.0</ele><time>2026-04-29T09:37:58Z</time></trkpt><trkpt lat="28.191976924402443" lon="-11.215297523798544"><ele>154.0</ele><time>2026-04-29T09:37:59Z</time></trkpt><trkpt lat="28.191743709975572" lon="-11.21525677443994"><ele>154.0</ele><time>2026-04-29T09:38:00Z</time></trkpt><trkpt lat="28.19151081085448" lon="-11.21521740955454"><ele>154.0</ele><time>2026-04-29T09:38:01Z</time></trkpt><trkpt lat="28.191279759026227" lon="-11.215178776080277"><ele>155.0</ele><time>2026-04-29T09:38:02Z</time></trkpt><trkpt lat="28.191049499751347" lon="-11.215141622905072"><ele>156.0</ele><time>2026-04-29T09:38:03Z</time></trkpt><trkpt lat="28.19081968566396" lon="-11.215103427029923"><ele>154.5</ele><time>2026-04-29T09:38:04Z</time></trkpt><trkpt lat="28.190590066776668" lon="-11.215063808765985"><ele>153.0</ele><time>2026-04-29T09:38:05Z</time></trkpt><trkpt lat="28.190361881890066" lon="-11.215025610430272"><ele>153.0</ele><time>2026-04-29T09:38:06Z</time></trkpt><trkpt lat="28.190136887634363" lon="-11.214990163689631"><ele>153.0</ele><time>2026-04-29T09:38:07Z</time></trkpt><trkpt lat="28.189909884326365" lon="-11.214951561691992"><ele>154.5</ele><time>2026-04-29T09:38:08Z</time></trkpt><trkpt lat="28.189686714224607" lon="-11.214911662391495"><ele>156.0</ele><time>2026-04-29T09:38:09Z</time></trkpt><trkpt lat="28.189464678517535" lon="-11.214871348380745"><ele>156.0</ele><time>2026-04-29T09:38:10Z</time></trkpt><trkpt lat="28.189242232782554" lon="-11.214834147665584"><ele>156.0</ele><time>2026-04-29T09:38:11Z</time></trkpt><trkpt lat="28.18902111548632" lon="-11.214798677538166"><ele>156.0</ele><time>2026-04-29T09:38:12Z</time></trkpt><trkpt lat="28.188797323756" lon="-11.214760592678186"><ele>155.0</ele><time>2026-04-29T09:38:13Z</time></trkpt><trkpt lat="28.1885717999217" lon="-11.214722752419275"><ele>154.0</ele><time>2026-04-29T09:38:14Z</time></trkpt><trkpt lat="28.188349576746152" lon="-11.214685263921764"><ele>154.0</ele><time>2026-04-29T09:38:15Z</time></trkpt><trkpt lat="28.18812468772939" lon="-11.214646633070137"><ele>154.0</ele><time>2026-04-29T09:38:16Z</time></trkpt><trkpt lat="28.18790030624865" lon="-11.214609692985805"><ele>154.0</ele><time>2026-04-29T09:38:17Z</time></trkpt><trkpt lat="28.187675181507434" lon="-11.214572177246106"><ele>154.0</ele><time>2026-04-29T09:38:18Z</time></trkpt><trkpt lat="28.187451133592095" lon="-11.214534081100542"><ele>154.0</ele><time>2026-04-29T09:38:19Z</time></trkpt><trkpt lat="28.187224815026667" lon="-11.21449775144403"><ele>154.0</ele><time>2026-04-29T09:38:20Z</time></trkpt><trkpt lat="28.18700064390478" lon="-11.214461708008841"><ele>154.0</ele><time>2026-04-29T09:38:21Z</time></trkpt><trkpt lat="28.186777200626256" lon="-11.21442562821816"><ele>154.0</ele><time>2026-04-29T09:38:22Z</time></trkpt><trkpt lat="28.186552272060695" lon="-11.214388734835032"><ele>154.0</ele><time>2026-04-29T09:38:23Z</time></trkpt><trkpt lat="28.18632871986134" lon="-11.214351701495778"><ele>154.0</ele><time>2026-04-29T09:38:24Z</time></trkpt><trkpt lat="28.18610275522304" lon="-11.214315950359993"><ele>154.0</ele><time>2026-04-29T09:38:25Z</time></trkpt><trkpt lat="28.18587801842077" lon="-11.214278674852183"><ele>154.0</ele><time>2026-04-29T09:38:26Z</time></trkpt><trkpt lat="28.185654200094582" lon="-11.214238067605034"><ele>154.0</ele><time>2026-04-29T09:38:27Z</time></trkpt><trkpt lat="28.18543306481146" lon="-11.214194888209258"><ele>154.0</ele><time>2026-04-29T09:38:28Z</time></trkpt><trkpt lat="28.185205261301363" lon="-11.214156083097176"><ele>154.0</ele><time>2026-04-29T09:38:29Z</time></trkpt><trkpt lat="28.18497905332883" lon="-11.214122481437892"><ele>154.0</ele><time>2026-04-29T09:38:30Z</time></trkpt><trkpt lat="28.18475306656586" lon="-11.214086642836119"><ele>153.0</ele><time>2026-04-29T09:38:31Z</time></trkpt><trkpt lat="28.184525034023142" lon="-11.2140480509224"><ele>152.0</ele><time>2026-04-29T09:38:32Z</time></trkpt><trkpt lat="28.184298612069426" lon="-11.214011137973408"><ele>153.0</ele><time>2026-04-29T09:38:33Z</time></trkpt><trkpt lat="28.184072784085988" lon="-11.213975724519946"><ele>154.0</ele><time>2026-04-29T09:38:34Z</time></trkpt><trkpt lat="28.183843936959175" lon="-11.213935723867312"><ele>154.0</ele><time>2026-04-29T09:38:35Z</time></trkpt><trkpt lat="28.18361944491711" lon="-11.21389456947964"><ele>154.0</ele><time>2026-04-29T09:38:36Z</time></trkpt><trkpt lat="28.183392567372177" lon="-11.213853296360728"><ele>154.5</ele><time>2026-04-29T09:38:37Z</time></trkpt><trkpt lat="28.18316594340253" lon="-11.213816442401367"><ele>155.0</ele><time>2026-04-29T09:38:38Z</time></trkpt><trkpt lat="28.18293807828371" lon="-11.213782835250356"><ele>155.0</ele><time>2026-04-29T09:38:39Z</time></trkpt><trkpt lat="28.18270925045252" lon="-11.21374768171689"><ele>155.0</ele><time>2026-04-29T09:38:40Z</time></trkpt><trkpt lat="28.18248519167591" lon="-11.213710813256434"><ele>156.0</ele><time>2026-04-29T09:38:41Z</time></trkpt><trkpt lat="28.182260189631556" lon="-11.213671108327498"><ele>157.0</ele><time>2026-04-29T09:38:42Z</time></trkpt><trkpt lat="28.182036247962966" lon="-11.213632238752062"><ele>157.0</ele><time>2026-04-29T09:38:43Z</time></trkpt><trkpt lat="28.181814849746996" lon="-11.213594689392725"><ele>157.0</ele><time>2026-04-29T09:38:44Z</time></trkpt><trkpt lat="28.18159374960562" lon="-11.213559946013051"><ele>157.0</ele><time>2026-04-29T09:38:45Z</time></trkpt><trkpt lat="28.181373837522518" lon="-11.213526380036207"><ele>158.0</ele><time>2026-04-29T09:38:46Z</time></trkpt><trkpt lat="28.181154178693106" lon="-11.213492760874662"><ele>159.0</ele><time>2026-04-29T09:38:47Z</time></trkpt><trkpt lat="28.180934655013097" lon="-11.213456712848187"><ele>160.0</ele><time>2026-04-29T09:38:48Z</time></trkpt><trkpt lat="28.180717473309734" lon="-11.213419959318253"><ele>161.33333333333334</ele><time>2026-04-29T09:38:49Z</time></trkpt><trkpt lat="28.180503657853357" lon="-11.213385034570111"><ele>162.66666666666666</ele><time>2026-04-29T09:38:50Z</time></trkpt><trkpt lat="28.180285419342457" lon="-11.213351421730446"><ele>164.0</ele><time>2026-04-29T09:38:51Z</time></trkpt><trkpt lat="28.180065571102173" lon="-11.213315264119196"><ele>163.66666666666666</ele><time>2026-04-29T09:38:52Z</time></trkpt><trkpt lat="28.17984231513647" lon="-11.213277809216075"><ele>163.33333333333334</ele><time>2026-04-29T09:38:53Z</time></trkpt><trkpt lat="28.179621011008077" lon="-11.213239789448874"><ele>163.0</ele><time>2026-04-29T09:38:54Z</time></trkpt><trkpt lat="28.17939579455189" lon="-11.21320233683279"><ele>163.0</ele><time>2026-04-29T09:38:55Z</time></trkpt><trkpt lat="28.179170212664705" lon="-11.213161183115151"><ele>163.0</ele><time>2026-04-29T09:38:56Z</time></trkpt><trkpt lat="28.17894313367116" lon="-11.213122525915606"><ele>165.0</ele><time>2026-04-29T09:38:57Z</time></trkpt><trkpt lat="28.17871363056334" lon="-11.213088731375068"><ele>167.0</ele><time>2026-04-29T09:38:58Z</time></trkpt><trkpt lat="28.178483366470616" lon="-11.213063343006882"><ele>167.0</ele><time>2026-04-29T09:38:59Z</time></trkpt><trkpt lat="28.178246357742093" lon="-11.21304786547889"><ele>167.0</ele><time>2026-04-29T09:39:00Z</time></trkpt><trkpt lat="28.178009088696786" lon="-11.213045043103874"><ele>168.0</ele><time>2026-04-29T09:39:01Z</time></trkpt><trkpt lat="28.177771075421326" lon="-11.213059566400595"><ele>169.0</ele><time>2026-04-29T09:39:02Z</time></trkpt><trkpt lat="28.177527443898153" lon="-11.213092632077135"><ele>166.5</ele><time>2026-04-29T09:39:03Z</time></trkpt><trkpt lat="28.177292347151997" lon="-11.213161411597373"><ele>164.0</ele><time>2026-04-29T09:39:04Z</time></trkpt><trkpt lat="28.177052321175168" lon="-11.213219580870886"><ele>164.0</ele><time>2026-04-29T09:39:05Z</time></trkpt><trkpt lat="28.176817379847822" lon="-11.213289918776066"><ele>164.0</ele><time>2026-04-29T09:39:06Z</time></trkpt><trkpt lat="28.17657558780608" lon="-11.213357518924381"><ele>162.0</ele><time>2026-04-29T09:39:07Z</time></trkpt><trkpt lat="28.17634159693873" lon="-11.21346254736277"><ele>160.0</ele><time>2026-04-29T09:39:08Z</time></trkpt><trkpt lat="28.176115977174593" lon="-11.213582751263145"><ele>160.0</ele><time>2026-04-29T09:39:09Z</time></trkpt><trkpt lat="28.17589483426652" lon="-11.2137226594411"><ele>160.0</ele><time>2026-04-29T09:39:10Z</time></trkpt><trkpt lat="28.17568187305207" lon="-11.213873485060606"><ele>158.0</ele><time>2026-04-29T09:39:11Z</time></trkpt><trkpt lat="28.175472969504614" lon="-11.214038480723508"><ele>156.0</ele><time>2026-04-29T09:39:12Z</time></trkpt><trkpt lat="28.175273671196365" lon="-11.214210935012938"><ele>156.0</ele><time>2026-04-29T09:39:13Z</time></trkpt><trkpt lat="28.175085273111016" lon="-11.214400329627686"><ele>156.0</ele><time>2026-04-29T09:39:14Z</time></trkpt><trkpt lat="28.174908154944593" lon="-11.214596248642414"><ele>159.5</ele><time>2026-04-29T09:39:15Z</time></trkpt><trkpt lat="28.174738158088495" lon="-11.214800022920835"><ele>163.0</ele><time>2026-04-29T09:39:16Z</time></trkpt><trkpt lat="28.174583623028045" lon="-11.215011553335637"><ele>163.0</ele><time>2026-04-29T09:39:17Z</time></trkpt><trkpt lat="28.174441470862394" lon="-11.215229330199156"><ele>163.0</ele><time>2026-04-29T09:39:18Z</time></trkpt><trkpt lat="28.174312456472865" lon="-11.215457268646066"><ele>163.5</ele><time>2026-04-29T09:39:19Z</time></trkpt><trkpt lat="28.174195428768346" lon="-11.21569117197691"><ele>164.0</ele><time>2026-04-29T09:39:20Z</time></trkpt><trkpt lat="28.17408981702409" lon="-11.21592878179894"><ele>165.5</ele><time>2026-04-29T09:39:21Z</time></trkpt><trkpt lat="28.17399272310403" lon="-11.216170580061558"><ele>167.0</ele><time>2026-04-29T09:39:22Z</time></trkpt><trkpt lat="28.17391095138879" lon="-11.216418823257849"><ele>166.0</ele><time>2026-04-29T09:39:23Z</time></trkpt><trkpt lat="28.17383934330714" lon="-11.216670842600093"><ele>165.0</ele><time>2026-04-29T09:39:24Z</time></trkpt><trkpt lat="28.173770178814824" lon="-11.216925652773446"><ele>165.0</ele><time>2026-04-29T09:39:25Z</time></trkpt><trkpt lat="28.173704986445586" lon="-11.21718085773229"><ele>165.0</ele><time>2026-04-29T09:39:26Z</time></trkpt><trkpt lat="28.173643308413403" lon="-11.217437255206848"><ele>164.5</ele><time>2026-04-29T09:39:27Z</time></trkpt><trkpt lat="28.173579941031626" lon="-11.2176926932382"><ele>164.0</ele><time>2026-04-29T09:39:28Z</time></trkpt><trkpt lat="28.173514614290617" lon="-11.21794891096753"><ele>162.5</ele><time>2026-04-29T09:39:29Z</time></trkpt><trkpt lat="28.173451275148096" lon="-11.218201215604507"><ele>161.0</ele><time>2026-04-29T09:39:30Z</time></trkpt><trkpt lat="28.173387834073214" lon="-11.218459996011147"><ele>161.0</ele><time>2026-04-29T09:39:31Z</time></trkpt><trkpt lat="28.173323882167043" lon="-11.21871745393169"><ele>161.0</ele><time>2026-04-29T09:39:32Z</time></trkpt><trkpt lat="28.17325681903709" lon="-11.21897224746773"><ele>162.5</ele><time>2026-04-29T09:39:33Z</time></trkpt><trkpt lat="28.173187634136596" lon="-11.219227453777242"><ele>164.0</ele><time>2026-04-29T09:39:34Z</time></trkpt><trkpt lat="28.173120888756774" lon="-11.21948264839114"><ele>164.0</ele><time>2026-04-29T09:39:35Z</time></trkpt><trkpt lat="28.173058172552548" lon="-11.21973284248622"><ele>164.0</ele><time>2026-04-29T09:39:36Z</time></trkpt><trkpt lat="28.172996596013387" lon="-11.219986742087793"><ele>162.5</ele><time>2026-04-29T09:39:37Z</time></trkpt><trkpt lat="28.172933340758394" lon="-11.220235225266316"><ele>161.0</ele><time>2026-04-29T09:39:38Z</time></trkpt><trkpt lat="28.172871125115492" lon="-11.22048259490561"><ele>159.0</ele><time>2026-04-29T09:39:39Z</time></trkpt><trkpt lat="28.172809283758774" lon="-11.220729864788598"><ele>157.0</ele><time>2026-04-29T09:39:40Z</time></trkpt><trkpt lat="28.1727452481066" lon="-11.220976184767514"><ele>157.0</ele><time>2026-04-29T09:39:41Z</time></trkpt><trkpt lat="28.172681641017583" lon="-11.221223297670008"><ele>157.0</ele><time>2026-04-29T09:39:42Z</time></trkpt><trkpt lat="28.172619557093054" lon="-11.221466853974537"><ele>156.33333333333334</ele><time>2026-04-29T09:39:43Z</time></trkpt><trkpt lat="28.172557411949327" lon="-11.22171175198974"><ele>155.66666666666666</ele><time>2026-04-29T09:39:44Z</time></trkpt><trkpt lat="28.172494559186685" lon="-11.221953663574658"><ele>155.0</ele><time>2026-04-29T09:39:45Z</time></trkpt><trkpt lat="28.172432843899454" lon="-11.222193409192089"><ele>155.33333333333331</ele><time>2026-04-29T09:39:46Z</time></trkpt><trkpt lat="28.172372815828247" lon="-11.222434171837712"><ele>155.66666666666666</ele><time>2026-04-29T09:39:47Z</time></trkpt><trkpt lat="28.17231286410001" lon="-11.222676367242189"><ele>156.0</ele><time>2026-04-29T09:39:48Z</time></trkpt><trkpt lat="28.172253454078973" lon="-11.222917225867025"><ele>155.66666666666666</ele><time>2026-04-29T09:39:49Z</time></trkpt><trkpt lat="28.172192866403893" lon="-11.223155969482788"><ele>155.33333333333331</ele><time>2026-04-29T09:39:50Z</time></trkpt><trkpt lat="28.172131545916447" lon="-11.223394744012094"><ele>155.0</ele><time>2026-04-29T09:39:51Z</time></trkpt><trkpt lat="28.172069762103487" lon="-11.223632663266066"><ele>155.0</ele><time>2026-04-29T09:39:52Z</time></trkpt><trkpt lat="28.1720101717115" lon="-11.223867908274395"><ele>155.0</ele><time>2026-04-29T09:39:53Z</time></trkpt><trkpt lat="28.171951797689896" lon="-11.224101568624821"><ele>155.0</ele><time>2026-04-29T09:39:54Z</time></trkpt><trkpt lat="28.17189447259653" lon="-11.224337816910511"><ele>155.0</ele><time>2026-04-29T09:39:55Z</time></trkpt><trkpt lat="28.17183951436725" lon="-11.224574544301905"><ele>155.0</ele><time>2026-04-29T09:39:56Z</time></trkpt><trkpt lat="28.171782463834518" lon="-11.22480833892818"><ele>155.0</ele><time>2026-04-29T09:39:57Z</time></trkpt><trkpt lat="28.171720840801203" lon="-11.225043707244698"><ele>154.0</ele><time>2026-04-29T09:39:58Z</time></trkpt><trkpt lat="28.17166076194369" lon="-11.225276976884048"><ele>153.0</ele><time>2026-04-29T09:39:59Z</time></trkpt><trkpt lat="28.17159937964284" lon="-11.225510518281821"><ele>152.0</ele><time>2026-04-29T09:40:00Z</time></trkpt><trkpt lat="28.171540168725382" lon="-11.225744231196252"><ele>152.66666666666666</ele><time>2026-04-29T09:40:01Z</time></trkpt><trkpt lat="28.17148221463878" lon="-11.225977909896345"><ele>153.33333333333334</ele><time>2026-04-29T09:40:02Z</time></trkpt><trkpt lat="28.17142426972926" lon="-11.22620960608775"><ele>154.0</ele><time>2026-04-29T09:40:03Z</time></trkpt><trkpt lat="28.17136287574072" lon="-11.226441771489569"><ele>153.0</ele><time>2026-04-29T09:40:04Z</time></trkpt><trkpt lat="28.17130244882993" lon="-11.226672858574535"><ele>152.0</ele><time>2026-04-29T09:40:05Z</time></trkpt><trkpt lat="28.17124090230557" lon="-11.22690553108998"><ele>151.0</ele><time>2026-04-29T09:40:06Z</time></trkpt><trkpt lat="28.171184396541868" lon="-11.227135042735952"><ele>151.0</ele><time>2026-04-29T09:40:07Z</time></trkpt><trkpt lat="28.171128058903502" lon="-11.227367934717284"><ele>151.0</ele><time>2026-04-29T09:40:08Z</time></trkpt><trkpt lat="28.171068440466758" lon="-11.22760066220551"><ele>151.0</ele><time>2026-04-29T09:40:09Z</time></trkpt><trkpt lat="28.171008535493847" lon="-11.227835312373678"><ele>151.0</ele><time>2026-04-29T09:40:10Z</time></trkpt><trkpt lat="28.170950338116253" lon="-11.228067537248272"><ele>151.0</ele><time>2026-04-29T09:40:11Z</time></trkpt><trkpt lat="28.17089328289637" lon="-11.228296041524588"><ele>151.0</ele><time>2026-04-29T09:40:12Z</time></trkpt><trkpt lat="28.17083535923732" lon="-11.228526844217571"><ele>151.0</ele><time>2026-04-29T09:40:13Z</time></trkpt><trkpt lat="28.17077399225784" lon="-11.228756288138225"><ele>151.0</ele><time>2026-04-29T09:40:14Z</time></trkpt><trkpt lat="28.17071429429653" lon="-11.228985799684317"><ele>151.0</ele><time>2026-04-29T09:40:15Z</time></trkpt><trkpt lat="28.170656753584886" lon="-11.229214562849485"><ele>151.66666666666669</ele><time>2026-04-29T09:40:16Z</time></trkpt><trkpt lat="28.170599127970515" lon="-11.229447575656996"><ele>152.33333333333334</ele><time>2026-04-29T09:40:17Z</time></trkpt><trkpt lat="28.1705403667121" lon="-11.229681415066079"><ele>153.0</ele><time>2026-04-29T09:40:18Z</time></trkpt><trkpt lat="28.17048073147197" lon="-11.229916365210402"><ele>153.0</ele><time>2026-04-29T09:40:19Z</time></trkpt><trkpt lat="28.170420202415595" lon="-11.230152347342916"><ele>153.0</ele><time>2026-04-29T09:40:20Z</time></trkpt><trkpt lat="28.17035922218483" lon="-11.230388299626595"><ele>153.0</ele><time>2026-04-29T09:40:21Z</time></trkpt><trkpt lat="28.170298792515137" lon="-11.230626034961258"><ele>152.66666666666666</ele><time>2026-04-29T09:40:22Z</time></trkpt><trkpt lat="28.170239240176592" lon="-11.230869076469245"><ele>152.33333333333331</ele><time>2026-04-29T09:40:23Z</time></trkpt><trkpt lat="28.170180026687316" lon="-11.231113293318916"><ele>152.0</ele><time>2026-04-29T09:40:24Z</time></trkpt><trkpt lat="28.170119693766328" lon="-11.231357505952278"><ele>150.5</ele><time>2026-04-29T09:40:25Z</time></trkpt><trkpt lat="28.17005721672717" lon="-11.231606528371936"><ele>149.0</ele><time>2026-04-29T09:40:26Z</time></trkpt><trkpt lat="28.169992822635574" lon="-11.231853943427732"><ele>149.0</ele><time>2026-04-29T09:40:27Z</time></trkpt><trkpt lat="28.169926962414074" lon="-11.23210517928831"><ele>149.0</ele><time>2026-04-29T09:40:28Z</time></trkpt><trkpt lat="28.16986077805207" lon="-11.232355581030903"><ele>150.0</ele><time>2026-04-29T09:40:29Z</time></trkpt><trkpt lat="28.169796312740644" lon="-11.232610138252905"><ele>151.0</ele><time>2026-04-29T09:40:30Z</time></trkpt><trkpt lat="28.1697345992563" lon="-11.23286384565397"><ele>151.0</ele><time>2026-04-29T09:40:31Z</time></trkpt><trkpt lat="28.16967097270652" lon="-11.233118344713779"><ele>151.0</ele><time>2026-04-29T09:40:32Z</time></trkpt><trkpt lat="28.169605265515383" lon="-11.233376562160183"><ele>150.0</ele><time>2026-04-29T09:40:33Z</time></trkpt><trkpt lat="28.169536794843353" lon="-11.233633271086632"><ele>149.0</ele><time>2026-04-29T09:40:34Z</time></trkpt><trkpt lat="28.16946726133066" lon="-11.233890056813008"><ele>148.0</ele><time>2026-04-29T09:40:35Z</time></trkpt><trkpt lat="28.16939381534675" lon="-11.234144190109017"><ele>147.0</ele><time>2026-04-29T09:40:36Z</time></trkpt><trkpt lat="28.16931039788319" lon="-11.234395765197103"><ele>147.0</ele><time>2026-04-29T09:40:37Z</time></trkpt><trkpt lat="28.169217477453206" lon="-11.234647238619464"><ele>147.0</ele><time>2026-04-29T09:40:38Z</time></trkpt><trkpt lat="28.169119809686272" lon="-11.234891097493055"><ele>148.5</ele><time>2026-04-29T09:40:39Z</time></trkpt><trkpt lat="28.16901692011707" lon="-11.235135668453868"><ele>150.0</ele><time>2026-04-29T09:40:40Z</time></trkpt><trkpt lat="28.168911554629144" lon="-11.2353762377826"><ele>150.0</ele><time>2026-04-29T09:40:41Z</time></trkpt><trkpt lat="28.168799726237992" lon="-11.235614361992798"><ele>150.0</ele><time>2026-04-29T09:40:42Z</time></trkpt><trkpt lat="28.168681224176666" lon="-11.235846862238827"><ele>148.0</ele><time>2026-04-29T09:40:43Z</time></trkpt><trkpt lat="28.16855656616502" lon="-11.236077383774417"><ele>146.0</ele><time>2026-04-29T09:40:44Z</time></trkpt><trkpt lat="28.168425119349113" lon="-11.236300241079329"><ele>146.5</ele><time>2026-04-29T09:40:45Z</time></trkpt><trkpt lat="28.168288327962543" lon="-11.236522292140178"><ele>147.0</ele><time>2026-04-29T09:40:46Z</time></trkpt><trkpt lat="28.168149953059878" lon="-11.236743799694509"><ele>147.0</ele><time>2026-04-29T09:40:47Z</time></trkpt><trkpt lat="28.168009983163447" lon="-11.236964856210788"><ele>147.0</ele><time>2026-04-29T09:40:48Z</time></trkpt><trkpt lat="28.16786813279783" lon="-11.237182040496752"><ele>145.5</ele><time>2026-04-29T09:40:49Z</time></trkpt><trkpt lat="28.16772741335285" lon="-11.237401422676731"><ele>144.0</ele><time>2026-04-29T09:40:50Z</time></trkpt><trkpt lat="28.16758729263399" lon="-11.23762188389531"><ele>144.0</ele><time>2026-04-29T09:40:51Z</time></trkpt><trkpt lat="28.16744426104854" lon="-11.237843294704875"><ele>144.0</ele><time>2026-04-29T09:40:52Z</time></trkpt><trkpt lat="28.16729987435775" lon="-11.238063297345489"><ele>144.5</ele><time>2026-04-29T09:40:53Z</time></trkpt><trkpt lat="28.167153411786348" lon="-11.238287358597585"><ele>145.0</ele><time>2026-04-29T09:40:54Z</time></trkpt><trkpt lat="28.167008079256526" lon="-11.238508370717447"><ele>145.0</ele><time>2026-04-29T09:40:55Z</time></trkpt><trkpt lat="28.166863446276952" lon="-11.23873186874282"><ele>145.0</ele><time>2026-04-29T09:40:56Z</time></trkpt><trkpt lat="28.16671810400473" lon="-11.238958167060433"><ele>145.5</ele><time>2026-04-29T09:40:57Z</time></trkpt><trkpt lat="28.166570395305765" lon="-11.239185387522344"><ele>146.0</ele><time>2026-04-29T09:40:58Z</time></trkpt><trkpt lat="28.166422447265777" lon="-11.23941401103888"><ele>146.0</ele><time>2026-04-29T09:40:59Z</time></trkpt><trkpt lat="28.16627363598685" lon="-11.239644326200656"><ele>146.0</ele><time>2026-04-29T09:41:00Z</time></trkpt><trkpt lat="28.166125638529937" lon="-11.239873608133857"><ele>145.0</ele><time>2026-04-29T09:41:01Z</time></trkpt><trkpt lat="28.16597497903943" lon="-11.2401021730313"><ele>144.0</ele><time>2026-04-29T09:41:02Z</time></trkpt><trkpt lat="28.165828362217162" lon="-11.240325405779132"><ele>144.5</ele><time>2026-04-29T09:41:03Z</time></trkpt><trkpt lat="28.165680389659627" lon="-11.240551356326902"><ele>145.0</ele><time>2026-04-29T09:41:04Z</time></trkpt><trkpt lat="28.16553475345379" lon="-11.240777323789077"><ele>143.5</ele><time>2026-04-29T09:41:05Z</time></trkpt><trkpt lat="28.165387995724444" lon="-11.241001168880866"><ele>142.0</ele><time>2026-04-29T09:41:06Z</time></trkpt><trkpt lat="28.165243399272157" lon="-11.24122319328374"><ele>142.0</ele><time>2026-04-29T09:41:07Z</time></trkpt><trkpt lat="28.16510183383141" lon="-11.241444397811502"><ele>142.0</ele><time>2026-04-29T09:41:08Z</time></trkpt><trkpt lat="28.16496234018096" lon="-11.241664924185988"><ele>142.0</ele><time>2026-04-29T09:41:09Z</time></trkpt><trkpt lat="28.164820908533738" lon="-11.241887251642101"><ele>142.0</ele><time>2026-04-29T09:41:10Z</time></trkpt><trkpt lat="28.164679339286607" lon="-11.242106222970753"><ele>142.0</ele><time>2026-04-29T09:41:11Z</time></trkpt><trkpt lat="28.164539432078985" lon="-11.242321563329337"><ele>142.0</ele><time>2026-04-29T09:41:12Z</time></trkpt><trkpt lat="28.164400103460753" lon="-11.242535081748036"><ele>142.0</ele><time>2026-04-29T09:41:13Z</time></trkpt><trkpt lat="28.164261276856497" lon="-11.242747448325325"><ele>142.0</ele><time>2026-04-29T09:41:14Z</time></trkpt><trkpt lat="28.16412279403418" lon="-11.242960515944414"><ele>142.0</ele><time>2026-04-29T09:41:15Z</time></trkpt><trkpt lat="28.16398578537278" lon="-11.243174998095103"><ele>142.0</ele><time>2026-04-29T09:41:16Z</time></trkpt><trkpt lat="28.16385090650985" lon="-11.243386884426352"><ele>142.0</ele><time>2026-04-29T09:41:17Z</time></trkpt><trkpt lat="28.16371463480133" lon="-11.243597602138657"><ele>142.0</ele><time>2026-04-29T09:41:18Z</time></trkpt><trkpt lat="28.163581652695164" lon="-11.243807189492921"><ele>142.5</ele><time>2026-04-29T09:41:19Z</time></trkpt><trkpt lat="28.16344650719309" lon="-11.24401817717371"><ele>143.0</ele><time>2026-04-29T09:41:20Z</time></trkpt><trkpt lat="28.163314561747864" lon="-11.244226810425907"><ele>143.0</ele><time>2026-04-29T09:41:21Z</time></trkpt><trkpt lat="28.16319944530408" lon="-11.244449392575596"><ele>143.0</ele><time>2026-04-29T09:41:22Z</time></trkpt><trkpt lat="28.163067465664884" lon="-11.244662440576544"><ele>143.5</ele><time>2026-04-29T09:41:23Z</time></trkpt><trkpt lat="28.16292821112708" lon="-11.244873546842767"><ele>144.0</ele><time>2026-04-29T09:41:24Z</time></trkpt><trkpt lat="28.16278821806492" lon="-11.245085772436408"><ele>144.0</ele><time>2026-04-29T09:41:25Z</time></trkpt><trkpt lat="28.162647324395245" lon="-11.245299199460458"><ele>144.0</ele><time>2026-04-29T09:41:26Z</time></trkpt><trkpt lat="28.162507002610077" lon="-11.245512750258385"><ele>145.0</ele><time>2026-04-29T09:41:27Z</time></trkpt><trkpt lat="28.162364867011046" lon="-11.245728724639406"><ele>146.0</ele><time>2026-04-29T09:41:28Z</time></trkpt><trkpt lat="28.162221412672384" lon="-11.245946352086433"><ele>146.0</ele><time>2026-04-29T09:41:29Z</time></trkpt><trkpt lat="28.16207894767762" lon="-11.246162478478933"><ele>146.0</ele><time>2026-04-29T09:41:30Z</time></trkpt><trkpt lat="28.161933847345374" lon="-11.246382602976952"><ele>145.5</ele><time>2026-04-29T09:41:31Z</time></trkpt><trkpt lat="28.16178865880524" lon="-11.24660286117396"><ele>145.0</ele><time>2026-04-29T09:41:32Z</time></trkpt><trkpt lat="28.161647757388725" lon="-11.246826820519674"><ele>146.5</ele><time>2026-04-29T09:41:33Z</time></trkpt><trkpt lat="28.16150755768883" lon="-11.247051289506533"><ele>148.0</ele><time>2026-04-29T09:41:34Z</time></trkpt><trkpt lat="28.161356871630296" lon="-11.24727299147418"><ele>147.0</ele><time>2026-04-29T09:41:35Z</time></trkpt><trkpt lat="28.16120263835644" lon="-11.247489727148102"><ele>146.0</ele><time>2026-04-29T09:41:36Z</time></trkpt><trkpt lat="28.161039717841287" lon="-11.247699328534546"><ele>146.0</ele><time>2026-04-29T09:41:37Z</time></trkpt><trkpt lat="28.160871608385314" lon="-11.24790504214068"><ele>146.0</ele><time>2026-04-29T09:41:38Z</time></trkpt><trkpt lat="28.160694272330797" lon="-11.248100098787031"><ele>146.5</ele><time>2026-04-29T09:41:39Z</time></trkpt><trkpt lat="28.160511944189736" lon="-11.24829594641099"><ele>147.0</ele><time>2026-04-29T09:41:40Z</time></trkpt><trkpt lat="28.160321676050167" lon="-11.248478346669161"><ele>147.0</ele><time>2026-04-29T09:41:41Z</time></trkpt><trkpt lat="28.160124223133124" lon="-11.248660745103292"><ele>147.0</ele><time>2026-04-29T09:41:42Z</time></trkpt><trkpt lat="28.15990859812446" lon="-11.248807520131118"><ele>146.5</ele><time>2026-04-29T09:41:43Z</time></trkpt><trkpt lat="28.159700320772625" lon="-11.24896409416106"><ele>146.0</ele><time>2026-04-29T09:41:44Z</time></trkpt><trkpt lat="28.159495500195696" lon="-11.249126536434408"><ele>146.0</ele><time>2026-04-29T09:41:45Z</time></trkpt><trkpt lat="28.159281946886797" lon="-11.24927034736895"><ele>146.0</ele><time>2026-04-29T09:41:46Z</time></trkpt><trkpt lat="28.159060839267177" lon="-11.249404112046888"><ele>148.5</ele><time>2026-04-29T09:41:47Z</time></trkpt><trkpt lat="28.15883028500033" lon="-11.249514279609501"><ele>151.0</ele><time>2026-04-29T09:41:48Z</time></trkpt><trkpt lat="28.158604781843447" lon="-11.249633977716151"><ele>151.0</ele><time>2026-04-29T09:41:49Z</time></trkpt><trkpt lat="28.158371221507974" lon="-11.249732971799231"><ele>151.0</ele><time>2026-04-29T09:41:50Z</time></trkpt><trkpt lat="28.158140040423948" lon="-11.249839092777593"><ele>150.5</ele><time>2026-04-29T09:41:51Z</time></trkpt><trkpt lat="28.157902153345134" lon="-11.249932002859605"><ele>150.0</ele><time>2026-04-29T09:41:52Z</time></trkpt><trkpt lat="28.157662013659753" lon="-11.250014253430757"><ele>150.0</ele><time>2026-04-29T09:41:53Z</time></trkpt><trkpt lat="28.15742272349269" lon="-11.250096402618125"><ele>150.0</ele><time>2026-04-29T09:41:54Z</time></trkpt><trkpt lat="28.157180739640854" lon="-11.25017873791453"><ele>150.5</ele><time>2026-04-29T09:41:55Z</time></trkpt><trkpt lat="28.156935412921726" lon="-11.250256185432775"><ele>151.0</ele><time>2026-04-29T09:41:56Z</time></trkpt><trkpt lat="28.15669337321366" lon="-11.250332255051234"><ele>151.5</ele><time>2026-04-29T09:41:57Z</time></trkpt><trkpt lat="28.156451005956452" lon="-11.25040847155166"><ele>152.0</ele><time>2026-04-29T09:41:58Z</time></trkpt><trkpt lat="28.15620807734133" lon="-11.250484981361435"><ele>152.0</ele><time>2026-04-29T09:41:59Z</time></trkpt><trkpt lat="28.15596372696093" lon="-11.250561896964447"><ele>152.0</ele><time>2026-04-29T09:42:00Z</time></trkpt><trkpt lat="28.155720608689997" lon="-11.250638424725096"><ele>150.5</ele><time>2026-04-29T09:42:01Z</time></trkpt><trkpt lat="28.155477386550796" lon="-11.250715151817554"><ele>149.0</ele><time>2026-04-29T09:42:02Z</time></trkpt><trkpt lat="28.155233418419726" lon="-11.250793395822177"><ele>149.0</ele><time>2026-04-29T09:42:03Z</time></trkpt><trkpt lat="28.15498794719408" lon="-11.25087467560625"><ele>149.0</ele><time>2026-04-29T09:42:04Z</time></trkpt><trkpt lat="28.154746060381196" lon="-11.250954814103762"><ele>149.5</ele><time>2026-04-29T09:42:05Z</time></trkpt><trkpt lat="28.15450240576141" lon="-11.251035538250285"><ele>150.0</ele><time>2026-04-29T09:42:06Z</time></trkpt><trkpt lat="28.15425886238827" lon="-11.251116234267293"><ele>149.0</ele><time>2026-04-29T09:42:07Z</time></trkpt><trkpt lat="28.154013604122692" lon="-11.25119750808235"><ele>148.0</ele><time>2026-04-29T09:42:08Z</time></trkpt><trkpt lat="28.153766508864866" lon="-11.251282399312396"><ele>148.0</ele><time>2026-04-29T09:42:09Z</time></trkpt><trkpt lat="28.15352275363042" lon="-11.251366564247201"><ele>148.0</ele><time>2026-04-29T09:42:10Z</time></trkpt><trkpt lat="28.153285548886632" lon="-11.251464735625197"><ele>147.0</ele><time>2026-04-29T09:42:11Z</time></trkpt><trkpt lat="28.153053436588493" lon="-11.251572378005319"><ele>146.0</ele><time>2026-04-29T09:42:12Z</time></trkpt><trkpt lat="28.15282151868895" lon="-11.251679930224826"><ele>146.0</ele><time>2026-04-29T09:42:13Z</time></trkpt><trkpt lat="28.152593901064282" lon="-11.251788465131758"><ele>146.0</ele><time>2026-04-29T09:42:14Z</time></trkpt><trkpt lat="28.152377909434723" lon="-11.251922575191037"><ele>143.5</ele><time>2026-04-29T09:42:15Z</time></trkpt><trkpt lat="28.152165345553026" lon="-11.252064355136584"><ele>141.0</ele><time>2026-04-29T09:42:16Z</time></trkpt><trkpt lat="28.151958821470632" lon="-11.252213820727151"><ele>142.5</ele><time>2026-04-29T09:42:17Z</time></trkpt><trkpt lat="28.151754576179407" lon="-11.25237177291036"><ele>144.0</ele><time>2026-04-29T09:42:18Z</time></trkpt><trkpt lat="28.151568466135146" lon="-11.252553775641067"><ele>140.5</ele><time>2026-04-29T09:42:19Z</time></trkpt><trkpt lat="28.15136647256285" lon="-11.252712039507266"><ele>137.0</ele><time>2026-04-29T09:42:20Z</time></trkpt><trkpt lat="28.15119429170217" lon="-11.252909675086396"><ele>137.0</ele><time>2026-04-29T09:42:21Z</time></trkpt><trkpt lat="28.15101687705304" lon="-11.253097984966399"><ele>137.0</ele><time>2026-04-29T09:42:22Z</time></trkpt><trkpt lat="28.150832663328238" lon="-11.25327552707718"><ele>136.0</ele><time>2026-04-29T09:42:23Z</time></trkpt><trkpt lat="28.15066731909027" lon="-11.253476856211483"><ele>135.0</ele><time>2026-04-29T09:42:24Z</time></trkpt><trkpt lat="28.15050788693985" lon="-11.25368438865754"><ele>135.0</ele><time>2026-04-29T09:42:25Z</time></trkpt><trkpt lat="28.15035565382101" lon="-11.253896911701036"><ele>135.0</ele><time>2026-04-29T09:42:26Z</time></trkpt><trkpt lat="28.15021100292843" lon="-11.254115418023792"><ele>135.5</ele><time>2026-04-29T09:42:27Z</time></trkpt><trkpt lat="28.150091394515698" lon="-11.254349882541113"><ele>136.0</ele><time>2026-04-29T09:42:28Z</time></trkpt><trkpt lat="28.14996720803912" lon="-11.254576086430255"><ele>133.5</ele><time>2026-04-29T09:42:29Z</time></trkpt><trkpt lat="28.149830403469593" lon="-11.254793432635408"><ele>131.0</ele><time>2026-04-29T09:42:30Z</time></trkpt><trkpt lat="28.149715550453827" lon="-11.255024066155617"><ele>131.0</ele><time>2026-04-29T09:42:31Z</time></trkpt><trkpt lat="28.14959979057512" lon="-11.255251366295383"><ele>131.0</ele><time>2026-04-29T09:42:32Z</time></trkpt><trkpt lat="28.14948938607546" lon="-11.255478803382415"><ele>131.5</ele><time>2026-04-29T09:42:33Z</time></trkpt><trkpt lat="28.14937327336087" lon="-11.255697576962373"><ele>132.0</ele><time>2026-04-29T09:42:34Z</time></trkpt><trkpt lat="28.149259566724492" lon="-11.255917302741947"><ele>132.0</ele><time>2026-04-29T09:42:35Z</time></trkpt><trkpt lat="28.14914643554891" lon="-11.256136914445976"><ele>132.0</ele><time>2026-04-29T09:42:36Z</time></trkpt><trkpt lat="28.149035288519997" lon="-11.25635186119504"><ele>132.0</ele><time>2026-04-29T09:42:37Z</time></trkpt><trkpt lat="28.148924603633496" lon="-11.256568185060246"><ele>131.33333333333334</ele><time>2026-04-29T09:42:38Z</time></trkpt><trkpt lat="28.14881433537794" lon="-11.256780332198183"><ele>130.66666666666669</ele><time>2026-04-29T09:42:39Z</time></trkpt><trkpt lat="28.148703381459747" lon="-11.256994148440837"><ele>130.0</ele><time>2026-04-29T09:42:40Z</time></trkpt><trkpt lat="28.14859448512665" lon="-11.257204467036857"><ele>130.0</ele><time>2026-04-29T09:42:41Z</time></trkpt><trkpt lat="28.14848617554589" lon="-11.257414877389209"><ele>130.0</ele><time>2026-04-29T09:42:42Z</time></trkpt><trkpt lat="28.148376598783063" lon="-11.257625802691527"><ele>130.0</ele><time>2026-04-29T09:42:43Z</time></trkpt><trkpt lat="28.14826473465751" lon="-11.257838844006061"><ele>130.0</ele><time>2026-04-29T09:42:44Z</time></trkpt><trkpt lat="28.148153417702844" lon="-11.25805441810646"><ele>130.0</ele><time>2026-04-29T09:42:45Z</time></trkpt><trkpt lat="28.148041258381564" lon="-11.258268921094734"><ele>130.0</ele><time>2026-04-29T09:42:46Z</time></trkpt><trkpt lat="28.147931548563072" lon="-11.258483908639244"><ele>129.0</ele><time>2026-04-29T09:42:47Z</time></trkpt><trkpt lat="28.147823327153226" lon="-11.258700318877535"><ele>128.0</ele><time>2026-04-29T09:42:48Z</time></trkpt><trkpt lat="28.147713809471245" lon="-11.258915691134588"><ele>127.0</ele><time>2026-04-29T09:42:49Z</time></trkpt><trkpt lat="28.147599993057515" lon="-11.259130897168948"><ele>126.66666666666667</ele><time>2026-04-29T09:42:50Z</time></trkpt><trkpt lat="28.14748588920859" lon="-11.259347189013484"><ele>126.33333333333334</ele><time>2026-04-29T09:42:51Z</time></trkpt><trkpt lat="28.147374276014" lon="-11.25956253281815"><ele>126.0</ele><time>2026-04-29T09:42:52Z</time></trkpt><trkpt lat="28.14726447814209" lon="-11.25977906341039"><ele>125.33333333333334</ele><time>2026-04-29T09:42:53Z</time></trkpt><trkpt lat="28.147153378479082" lon="-11.25999577385129"><ele>124.66666666666667</ele><time>2026-04-29T09:42:54Z</time></trkpt><trkpt lat="28.14704128166723" lon="-11.260211953247104"><ele>124.0</ele><time>2026-04-29T09:42:55Z</time></trkpt><trkpt lat="28.146926393969242" lon="-11.26042875069762"><ele>124.33333333333334</ele><time>2026-04-29T09:42:56Z</time></trkpt><trkpt lat="28.146813091719206" lon="-11.260644607507023"><ele>124.66666666666666</ele><time>2026-04-29T09:42:57Z</time></trkpt><trkpt lat="28.146702403946495" lon="-11.260861335359804"><ele>125.0</ele><time>2026-04-29T09:42:58Z</time></trkpt><trkpt lat="28.146590195264363" lon="-11.261081270529075"><ele>124.33333333333333</ele><time>2026-04-29T09:42:59Z</time></trkpt><trkpt lat="28.14648048691143" lon="-11.261297893774733"><ele>123.66666666666666</ele><time>2026-04-29T09:43:00Z</time></trkpt><trkpt lat="28.146371027846268" lon="-11.261517953836387"><ele>123.0</ele><time>2026-04-29T09:43:01Z</time></trkpt><trkpt lat="28.146258497322705" lon="-11.261738831710689"><ele>123.0</ele><time>2026-04-29T09:43:02Z</time></trkpt><trkpt lat="28.146147523459586" lon="-11.261955844922577"><ele>123.0</ele><time>2026-04-29T09:43:03Z</time></trkpt><trkpt lat="28.14603384795033" lon="-11.262174707662089"><ele>123.0</ele><time>2026-04-29T09:43:04Z</time></trkpt><trkpt lat="28.145921713653618" lon="-11.262392236801926"><ele>122.66666666666666</ele><time>2026-04-29T09:43:05Z</time></trkpt><trkpt lat="28.145808287572134" lon="-11.262610688549973"><ele>122.33333333333333</ele><time>2026-04-29T09:43:06Z</time></trkpt><trkpt lat="28.14569514805713" lon="-11.262828379132234"><ele>122.0</ele><time>2026-04-29T09:43:07Z</time></trkpt><trkpt lat="28.145581556118245" lon="-11.263046755912166"><ele>121.0</ele><time>2026-04-29T09:43:08Z</time></trkpt><trkpt lat="28.145467456079572" lon="-11.263263944688902"><ele>120.0</ele><time>2026-04-29T09:43:09Z</time></trkpt><trkpt lat="28.145353166893848" lon="-11.263481191978634"><ele>119.0</ele><time>2026-04-29T09:43:10Z</time></trkpt><trkpt lat="28.145240950896834" lon="-11.263697666063383"><ele>119.0</ele><time>2026-04-29T09:43:11Z</time></trkpt><trkpt lat="28.145130345075295" lon="-11.26391398973815"><ele>119.0</ele><time>2026-04-29T09:43:12Z</time></trkpt><trkpt lat="28.145017702788362" lon="-11.264130925035392"><ele>119.0</ele><time>2026-04-29T09:43:13Z</time></trkpt><trkpt lat="28.144907335053713" lon="-11.26434558649729"><ele>118.66666666666666</ele><time>2026-04-29T09:43:14Z</time></trkpt><trkpt lat="28.14479533706093" lon="-11.26455769134428"><ele>118.33333333333334</ele><time>2026-04-29T09:43:15Z</time></trkpt><trkpt lat="28.14468285820289" lon="-11.264768913310885"><ele>118.0</ele><time>2026-04-29T09:43:16Z</time></trkpt><trkpt lat="28.144573443543308" lon="-11.264981749197693"><ele>118.66666666666667</ele><time>2026-04-29T09:43:17Z</time></trkpt><trkpt lat="28.144467890761167" lon="-11.265192929101964"><ele>119.33333333333334</ele><time>2026-04-29T09:43:18Z</time></trkpt><trkpt lat="28.1443607403026" lon="-11.26540564232258"><ele>120.0</ele><time>2026-04-29T09:43:19Z</time></trkpt><trkpt lat="28.144254019356787" lon="-11.265614761156812"><ele>121.0</ele><time>2026-04-29T09:43:20Z</time></trkpt><trkpt lat="28.144145226007392" lon="-11.265822607030211"><ele>122.0</ele><time>2026-04-29T09:43:21Z</time></trkpt><trkpt lat="28.144036255854964" lon="-11.266029685072782"><ele>123.0</ele><time>2026-04-29T09:43:22Z</time></trkpt><trkpt lat="28.14393060442299" lon="-11.266237728987996"><ele>123.0</ele><time>2026-04-29T09:43:23Z</time></trkpt><trkpt lat="28.143825565426802" lon="-11.266442687397104"><ele>123.0</ele><time>2026-04-29T09:43:24Z</time></trkpt><trkpt lat="28.143721554481754" lon="-11.266649285944979"><ele>123.0</ele><time>2026-04-29T09:43:25Z</time></trkpt><trkpt lat="28.14361825342456" lon="-11.26685614372886"><ele>122.66666666666666</ele><time>2026-04-29T09:43:26Z</time></trkpt><trkpt lat="28.143515889778968" lon="-11.267065512411461"><ele>122.33333333333333</ele><time>2026-04-29T09:43:27Z</time></trkpt><trkpt lat="28.143415650060412" lon="-11.267276869262822"><ele>122.0</ele><time>2026-04-29T09:43:28Z</time></trkpt><trkpt lat="28.143320719271326" lon="-11.267489743431147"><ele>122.0</ele><time>2026-04-29T09:43:29Z</time></trkpt><trkpt lat="28.14323506607164" lon="-11.267708068400234"><ele>122.0</ele><time>2026-04-29T09:43:30Z</time></trkpt><trkpt lat="28.143152712041157" lon="-11.267929139865656"><ele>122.0</ele><time>2026-04-29T09:43:31Z</time></trkpt><trkpt lat="28.143069355419048" lon="-11.268148201164449"><ele>120.33333333333333</ele><time>2026-04-29T09:43:32Z</time></trkpt><trkpt lat="28.142983028278255" lon="-11.268368084232609"><ele>118.66666666666666</ele><time>2026-04-29T09:43:33Z</time></trkpt><trkpt lat="28.14289652981464" lon="-11.26858880131461"><ele>117.0</ele><time>2026-04-29T09:43:34Z</time></trkpt><trkpt lat="28.14280771548091" lon="-11.26880713382622"><ele>118.0</ele><time>2026-04-29T09:43:35Z</time></trkpt><trkpt lat="28.142720403149323" lon="-11.269026820678418"><ele>119.0</ele><time>2026-04-29T09:43:36Z</time></trkpt><trkpt lat="28.14263297587613" lon="-11.26925003549499"><ele>120.0</ele><time>2026-04-29T09:43:37Z</time></trkpt><trkpt lat="28.14254568830216" lon="-11.269474130484497"><ele>120.0</ele><time>2026-04-29T09:43:38Z</time></trkpt><trkpt lat="28.142457902359595" lon="-11.26969725619695"><ele>120.0</ele><time>2026-04-29T09:43:39Z</time></trkpt><trkpt lat="28.142369719002765" lon="-11.269920507331733"><ele>120.0</ele><time>2026-04-29T09:43:40Z</time></trkpt><trkpt lat="28.14227991824462" lon="-11.270145235771166"><ele>119.0</ele><time>2026-04-29T09:43:41Z</time></trkpt><trkpt lat="28.14218888127661" lon="-11.270370009360402"><ele>118.0</ele><time>2026-04-29T09:43:42Z</time></trkpt><trkpt lat="28.14209835992779" lon="-11.270596685401875"><ele>117.0</ele><time>2026-04-29T09:43:43Z</time></trkpt><trkpt lat="28.14200865254682" lon="-11.270823316180243"><ele>117.0</ele><time>2026-04-29T09:43:44Z</time></trkpt><trkpt lat="28.14191805234749" lon="-11.271050220465145"><ele>117.0</ele><time>2026-04-29T09:43:45Z</time></trkpt><trkpt lat="28.141825840388783" lon="-11.271277117073936"><ele>117.0</ele><time>2026-04-29T09:43:46Z</time></trkpt><trkpt lat="28.141733516489808" lon="-11.271505825078098"><ele>116.66666666666666</ele><time>2026-04-29T09:43:47Z</time></trkpt><trkpt lat="28.1416430966673" lon="-11.271734090511838"><ele>116.33333333333333</ele><time>2026-04-29T09:43:48Z</time></trkpt><trkpt lat="28.14155229397872" lon="-11.27196316493229"><ele>116.0</ele><time>2026-04-29T09:43:49Z</time></trkpt><trkpt lat="28.141457048735685" lon="-11.272188834411093"><ele>115.0</ele><time>2026-04-29T09:43:50Z</time></trkpt><trkpt lat="28.14135831242644" lon="-11.272414813543934"><ele>114.0</ele><time>2026-04-29T09:43:51Z</time></trkpt><trkpt lat="28.141254082987178" lon="-11.272637881105455"><ele>113.0</ele><time>2026-04-29T09:43:52Z</time></trkpt><trkpt lat="28.141144632766487" lon="-11.272854929958042"><ele>113.0</ele><time>2026-04-29T09:43:53Z</time></trkpt><trkpt lat="28.14103050079511" lon="-11.273071965373079"><ele>113.0</ele><time>2026-04-29T09:43:54Z</time></trkpt><trkpt lat="28.140914140399314" lon="-11.27328886748393"><ele>113.0</ele><time>2026-04-29T09:43:55Z</time></trkpt><trkpt lat="28.14079101724194" lon="-11.27350133822029"><ele>112.0</ele><time>2026-04-29T09:43:56Z</time></trkpt><trkpt lat="28.140663864523198" lon="-11.273711472392547"><ele>111.0</ele><time>2026-04-29T09:43:57Z</time></trkpt><trkpt lat="28.140529354332628" lon="-11.273915594185548"><ele>110.0</ele><time>2026-04-29T09:43:58Z</time></trkpt><trkpt lat="28.140393759549347" lon="-11.274117528002657"><ele>110.0</ele><time>2026-04-29T09:43:59Z</time></trkpt><trkpt lat="28.14025722979166" lon="-11.27432303859233"><ele>110.0</ele><time>2026-04-29T09:44:00Z</time></trkpt><trkpt lat="28.140124643847987" lon="-11.274531913687373"><ele>110.0</ele><time>2026-04-29T09:44:01Z</time></trkpt><trkpt lat="28.13999286228145" lon="-11.274737623652328"><ele>110.0</ele><time>2026-04-29T09:44:02Z</time></trkpt><trkpt lat="28.139861373843445" lon="-11.27494623219642"><ele>109.5</ele><time>2026-04-29T09:44:03Z</time></trkpt><trkpt lat="28.139731525195334" lon="-11.275155136698006"><ele>109.0</ele><time>2026-04-29T09:44:04Z</time></trkpt><trkpt lat="28.139599935803684" lon="-11.275365398966311"><ele>109.0</ele><time>2026-04-29T09:44:05Z</time></trkpt><trkpt lat="28.139468367532725" lon="-11.27557417791752"><ele>109.0</ele><time>2026-04-29T09:44:06Z</time></trkpt><trkpt lat="28.139334813706835" lon="-11.275782607082226"><ele>109.5</ele><time>2026-04-29T09:44:07Z</time></trkpt><trkpt lat="28.139198596669058" lon="-11.27598889461119"><ele>110.0</ele><time>2026-04-29T09:44:08Z</time></trkpt><trkpt lat="28.139060593264368" lon="-11.276198877582567"><ele>109.0</ele><time>2026-04-29T09:44:09Z</time></trkpt><trkpt lat="28.13892706585195" lon="-11.276407517810211"><ele>108.0</ele><time>2026-04-29T09:44:10Z</time></trkpt><trkpt lat="28.13879283395821" lon="-11.276618569046196"><ele>108.0</ele><time>2026-04-29T09:44:11Z</time></trkpt><trkpt lat="28.13865824225964" lon="-11.27682742200129"><ele>108.0</ele><time>2026-04-29T09:44:12Z</time></trkpt><trkpt lat="28.138522984390058" lon="-11.277039720047954"><ele>108.0</ele><time>2026-04-29T09:44:13Z</time></trkpt><trkpt lat="28.138388741663153" lon="-11.277249331170482"><ele>108.0</ele><time>2026-04-29T09:44:14Z</time></trkpt><trkpt lat="28.13825375535491" lon="-11.277457777875014"><ele>108.0</ele><time>2026-04-29T09:44:15Z</time></trkpt><trkpt lat="28.13811913661137" lon="-11.277668519206724"><ele>108.0</ele><time>2026-04-29T09:44:16Z</time></trkpt><trkpt lat="28.137987335078073" lon="-11.277878186344042"><ele>108.0</ele><time>2026-04-29T09:44:17Z</time></trkpt><trkpt lat="28.137851149732136" lon="-11.278090456370624"><ele>108.0</ele><time>2026-04-29T09:44:18Z</time></trkpt><trkpt lat="28.137716044820863" lon="-11.278296903169895"><ele>108.0</ele><time>2026-04-29T09:44:19Z</time></trkpt><trkpt lat="28.13758039930323" lon="-11.278503636573499"><ele>108.0</ele><time>2026-04-29T09:44:20Z</time></trkpt><trkpt lat="28.13744640649583" lon="-11.27871527588053"><ele>107.0</ele><time>2026-04-29T09:44:21Z</time></trkpt><trkpt lat="28.13731326198462" lon="-11.278926288350602"><ele>106.0</ele><time>2026-04-29T09:44:22Z</time></trkpt><trkpt lat="28.13718135983786" lon="-11.279137053666162"><ele>106.0</ele><time>2026-04-29T09:44:23Z</time></trkpt><trkpt lat="28.137046137678986" lon="-11.279349551636736"><ele>106.0</ele><time>2026-04-29T09:44:24Z</time></trkpt><trkpt lat="28.136909884451036" lon="-11.279561113606096"><ele>105.5</ele><time>2026-04-29T09:44:25Z</time></trkpt><trkpt lat="28.136772310679284" lon="-11.279771439401639"><ele>105.0</ele><time>2026-04-29T09:44:26Z</time></trkpt><trkpt lat="28.136631791309778" lon="-11.279981912094843"><ele>103.5</ele><time>2026-04-29T09:44:27Z</time></trkpt><trkpt lat="28.13649332668376" lon="-11.280193251570552"><ele>102.0</ele><time>2026-04-29T09:44:28Z</time></trkpt><trkpt lat="28.136356230001972" lon="-11.280406258544632"><ele>102.0</ele><time>2026-04-29T09:44:29Z</time></trkpt><trkpt lat="28.136220996854753" lon="-11.280620442369717"><ele>102.0</ele><time>2026-04-29T09:44:30Z</time></trkpt><trkpt lat="28.136084836658117" lon="-11.280837422426963"><ele>102.0</ele><time>2026-04-29T09:44:31Z</time></trkpt><trkpt lat="28.135950183328678" lon="-11.281052998287532"><ele>102.0</ele><time>2026-04-29T09:44:32Z</time></trkpt><trkpt lat="28.135815196611244" lon="-11.281266249456271"><ele>102.0</ele><time>2026-04-29T09:44:33Z</time></trkpt><trkpt lat="28.1356772981856" lon="-11.28147991214884"><ele>102.0</ele><time>2026-04-29T09:44:34Z</time></trkpt><trkpt lat="28.135540851510864" lon="-11.281690495914678"><ele>102.0</ele><time>2026-04-29T09:44:35Z</time></trkpt><trkpt lat="28.135400836145177" lon="-11.281903397962447"><ele>102.0</ele><time>2026-04-29T09:44:36Z</time></trkpt><trkpt lat="28.13526359916615" lon="-11.282114179755066"><ele>100.5</ele><time>2026-04-29T09:44:37Z</time></trkpt><trkpt lat="28.135126198836964" lon="-11.282325583889213"><ele>99.0</ele><time>2026-04-29T09:44:38Z</time></trkpt><trkpt lat="28.134991114151447" lon="-11.282537788504428"><ele>98.0</ele><time>2026-04-29T09:44:39Z</time></trkpt><trkpt lat="28.134853255268215" lon="-11.282755829487451"><ele>97.0</ele><time>2026-04-29T09:44:40Z</time></trkpt><trkpt lat="28.13472060963684" lon="-11.282969373525589"><ele>98.0</ele><time>2026-04-29T09:44:41Z</time></trkpt><trkpt lat="28.13458773994297" lon="-11.283181466526383"><ele>99.0</ele><time>2026-04-29T09:44:42Z</time></trkpt><trkpt lat="28.134456869135093" lon="-11.283397998008924"><ele>99.0</ele><time>2026-04-29T09:44:43Z</time></trkpt><trkpt lat="28.134331264505683" lon="-11.283619895745938"><ele>99.0</ele><time>2026-04-29T09:44:44Z</time></trkpt><trkpt lat="28.134214919807025" lon="-11.28384793725599"><ele>98.5</ele><time>2026-04-29T09:44:45Z</time></trkpt><trkpt lat="28.13410344015621" lon="-11.284075639308023"><ele>98.0</ele><time>2026-04-29T09:44:46Z</time></trkpt><trkpt lat="28.133987077110028" lon="-11.284305241208667"><ele>96.5</ele><time>2026-04-29T09:44:47Z</time></trkpt><trkpt lat="28.133869867491022" lon="-11.284536854443017"><ele>95.0</ele><time>2026-04-29T09:44:48Z</time></trkpt><trkpt lat="28.133756205787165" lon="-11.284764190442054"><ele>94.5</ele><time>2026-04-29T09:44:49Z</time></trkpt><trkpt lat="28.133643209368604" lon="-11.284994318377715"><ele>94.0</ele><time>2026-04-29T09:44:50Z</time></trkpt><trkpt lat="28.133532766654675" lon="-11.285219577623533"><ele>94.0</ele><time>2026-04-29T09:44:51Z</time></trkpt><trkpt lat="28.133420102024644" lon="-11.285443365870801"><ele>94.0</ele><time>2026-04-29T09:44:52Z</time></trkpt><trkpt lat="28.13330469731514" lon="-11.28566868238824"><ele>93.66666666666666</ele><time>2026-04-29T09:44:53Z</time></trkpt><trkpt lat="28.13319234983615" lon="-11.285889112615491"><ele>93.33333333333333</ele><time>2026-04-29T09:44:54Z</time></trkpt><trkpt lat="28.133079597521707" lon="-11.286108936752365"><ele>93.0</ele><time>2026-04-29T09:44:55Z</time></trkpt><trkpt lat="28.13296794334844" lon="-11.286333665870602"><ele>92.33333333333333</ele><time>2026-04-29T09:44:56Z</time></trkpt><trkpt lat="28.132858202787908" lon="-11.286553154159947"><ele>91.66666666666666</ele><time>2026-04-29T09:44:57Z</time></trkpt><trkpt lat="28.132749628281676" lon="-11.286772458384903"><ele>91.0</ele><time>2026-04-29T09:44:58Z</time></trkpt><trkpt lat="28.132641791826696" lon="-11.286991411004058"><ele>91.0</ele><time>2026-04-29T09:44:59Z</time></trkpt><trkpt lat="28.132534281819186" lon="-11.287212246615267"><ele>91.0</ele><time>2026-04-29T09:45:00Z</time></trkpt><trkpt lat="28.132424773991293" lon="-11.287432521351857"><ele>91.0</ele><time>2026-04-29T09:45:01Z</time></trkpt><trkpt lat="28.132315560265788" lon="-11.287651987657357"><ele>91.0</ele><time>2026-04-29T09:45:02Z</time></trkpt><trkpt lat="28.132208015083396" lon="-11.287869061522994"><ele>91.0</ele><time>2026-04-29T09:45:03Z</time></trkpt><trkpt lat="28.132102042656182" lon="-11.288090645406898"><ele>91.0</ele><time>2026-04-29T09:45:04Z</time></trkpt><trkpt lat="28.132002211280945" lon="-11.288312440709063"><ele>90.66666666666666</ele><time>2026-04-29T09:45:05Z</time></trkpt><trkpt lat="28.131910815341715" lon="-11.288539745319381"><ele>90.33333333333333</ele><time>2026-04-29T09:45:06Z</time></trkpt><trkpt lat="28.13182406896644" lon="-11.288772983059646"><ele>90.0</ele><time>2026-04-29T09:45:07Z</time></trkpt><trkpt lat="28.131732210547437" lon="-11.288999162239401"><ele>91.0</ele><time>2026-04-29T09:45:08Z</time></trkpt><trkpt lat="28.131631551325352" lon="-11.289225254298001"><ele>92.0</ele><time>2026-04-29T09:45:09Z</time></trkpt><trkpt lat="28.131535514217727" lon="-11.289448732351191"><ele>93.0</ele><time>2026-04-29T09:45:10Z</time></trkpt><trkpt lat="28.131441033460117" lon="-11.289678168485931"><ele>92.33333333333333</ele><time>2026-04-29T09:45:11Z</time></trkpt><trkpt lat="28.131350815584874" lon="-11.28990241773055"><ele>91.66666666666666</ele><time>2026-04-29T09:45:12Z</time></trkpt><trkpt lat="28.131255354705917" lon="-11.290128969418395"><ele>91.0</ele><time>2026-04-29T09:45:13Z</time></trkpt><trkpt lat="28.131157869266953" lon="-11.290353982851238"><ele>91.0</ele><time>2026-04-29T09:45:14Z</time></trkpt><trkpt lat="28.13105876467514" lon="-11.29058156663469"><ele>91.0</ele><time>2026-04-29T09:45:15Z</time></trkpt><trkpt lat="28.13095765764761" lon="-11.290801239296117"><ele>91.0</ele><time>2026-04-29T09:45:16Z</time></trkpt><trkpt lat="28.130845859983705" lon="-11.291019678221572"><ele>91.33333333333333</ele><time>2026-04-29T09:45:17Z</time></trkpt><trkpt lat="28.13072575143872" lon="-11.291231785840761"><ele>91.66666666666667</ele><time>2026-04-29T09:45:18Z</time></trkpt><trkpt lat="28.130597285122136" lon="-11.291441424141752"><ele>92.0</ele><time>2026-04-29T09:45:19Z</time></trkpt><trkpt lat="28.130460409035717" lon="-11.291640200981668"><ele>91.33333333333334</ele><time>2026-04-29T09:45:20Z</time></trkpt><trkpt lat="28.13031244644075" lon="-11.291829777468376"><ele>90.66666666666667</ele><time>2026-04-29T09:45:21Z</time></trkpt><trkpt lat="28.13015525976495" lon="-11.2920114561453"><ele>90.0</ele><time>2026-04-29T09:45:22Z</time></trkpt><trkpt lat="28.129993471552083" lon="-11.292191955462572"><ele>89.0</ele><time>2026-04-29T09:45:23Z</time></trkpt><trkpt lat="28.129821918258045" lon="-11.292365241001713"><ele>88.0</ele><time>2026-04-29T09:45:24Z</time></trkpt><trkpt lat="28.129644085247506" lon="-11.29252008375186"><ele>88.0</ele><time>2026-04-29T09:45:25Z</time></trkpt><trkpt lat="28.129454789226333" lon="-11.292663692150802"><ele>88.0</ele><time>2026-04-29T09:45:26Z</time></trkpt><trkpt lat="28.12925684814322" lon="-11.292798842924753"><ele>87.0</ele><time>2026-04-29T09:45:27Z</time></trkpt><trkpt lat="28.12905752324762" lon="-11.292922958602446"><ele>86.0</ele><time>2026-04-29T09:45:28Z</time></trkpt><trkpt lat="28.12884589733449" lon="-11.293036016894646"><ele>86.5</ele><time>2026-04-29T09:45:29Z</time></trkpt><trkpt lat="28.128631327042264" lon="-11.293133458733674"><ele>87.0</ele><time>2026-04-29T09:45:30Z</time></trkpt><trkpt lat="28.12841466513301" lon="-11.293223098611666"><ele>87.5</ele><time>2026-04-29T09:45:31Z</time></trkpt><trkpt lat="28.128192212383148" lon="-11.293299660963841"><ele>88.0</ele><time>2026-04-29T09:45:32Z</time></trkpt><trkpt lat="28.127967345739563" lon="-11.293364363098688"><ele>88.0</ele><time>2026-04-29T09:45:33Z</time></trkpt><trkpt lat="28.127738844694623" lon="-11.2934186305528"><ele>88.0</ele><time>2026-04-29T09:45:34Z</time></trkpt><trkpt lat="28.12750870620255" lon="-11.293458372635637"><ele>87.0</ele><time>2026-04-29T09:45:35Z</time></trkpt><trkpt lat="28.1272732966288" lon="-11.293486073834258"><ele>86.0</ele><time>2026-04-29T09:45:36Z</time></trkpt><trkpt lat="28.127038557586747" lon="-11.293501446238507"><ele>86.0</ele><time>2026-04-29T09:45:37Z</time></trkpt><trkpt lat="28.126805644116715" lon="-11.29350745329705"><ele>86.0</ele><time>2026-04-29T09:45:38Z</time></trkpt><trkpt lat="28.1265696690195" lon="-11.293505424653443"><ele>87.0</ele><time>2026-04-29T09:45:39Z</time></trkpt><trkpt lat="28.12633345867803" lon="-11.293501650769478"><ele>88.0</ele><time>2026-04-29T09:45:40Z</time></trkpt><trkpt lat="28.126099867596466" lon="-11.293500214856385"><ele>88.0</ele><time>2026-04-29T09:45:41Z</time></trkpt><trkpt lat="28.125864480996498" lon="-11.293500034721966"><ele>88.0</ele><time>2026-04-29T09:45:42Z</time></trkpt><trkpt lat="28.12563168645957" lon="-11.293502081072937"><ele>86.5</ele><time>2026-04-29T09:45:43Z</time></trkpt><trkpt lat="28.125397280744153" lon="-11.293502271754509"><ele>85.0</ele><time>2026-04-29T09:45:44Z</time></trkpt><trkpt lat="28.125162715829518" lon="-11.293501066741161"><ele>85.0</ele><time>2026-04-29T09:45:45Z</time></trkpt><trkpt lat="28.12492914239722" lon="-11.293503804097549"><ele>85.0</ele><time>2026-04-29T09:45:46Z</time></trkpt><trkpt lat="28.124692440151907" lon="-11.293505460796146"><ele>84.5</ele><time>2026-04-29T09:45:47Z</time></trkpt><trkpt lat="28.12445903269725" lon="-11.293506443964969"><ele>84.0</ele><time>2026-04-29T09:45:48Z</time></trkpt><trkpt lat="28.12422365206831" lon="-11.293502765996783"><ele>83.5</ele><time>2026-04-29T09:45:49Z</time></trkpt><trkpt lat="28.123987475641076" lon="-11.293502224834729"><ele>83.0</ele><time>2026-04-29T09:45:50Z</time></trkpt><trkpt lat="28.123752701269158" lon="-11.293503404128215"><ele>83.0</ele><time>2026-04-29T09:45:51Z</time></trkpt><trkpt lat="28.12351742696011" lon="-11.293503087594013"><ele>83.0</ele><time>2026-04-29T09:45:52Z</time></trkpt><trkpt lat="28.12328273267128" lon="-11.293499089139583"><ele>83.5</ele><time>2026-04-29T09:45:53Z</time></trkpt><trkpt lat="28.123050292091115" lon="-11.293498843769552"><ele>84.0</ele><time>2026-04-29T09:45:54Z</time></trkpt><trkpt lat="28.122814749572218" lon="-11.293502171069013"><ele>84.0</ele><time>2026-04-29T09:45:55Z</time></trkpt><trkpt lat="28.122580648161076" lon="-11.293506326225815"><ele>84.0</ele><time>2026-04-29T09:45:56Z</time></trkpt><trkpt lat="28.122345407381385" lon="-11.293506634717627"><ele>85.0</ele><time>2026-04-29T09:45:57Z</time></trkpt><trkpt lat="28.122111533747148" lon="-11.29350345851421"><ele>86.0</ele><time>2026-04-29T09:45:58Z</time></trkpt><trkpt lat="28.12187577714127" lon="-11.293501967975201"><ele>86.0</ele><time>2026-04-29T09:45:59Z</time></trkpt><trkpt lat="28.121639552504206" lon="-11.293501051548207"><ele>86.0</ele><time>2026-04-29T09:46:00Z</time></trkpt><trkpt lat="28.121402025586935" lon="-11.293501058819933"><ele>86.0</ele><time>2026-04-29T09:46:01Z</time></trkpt><trkpt lat="28.121166719706345" lon="-11.293501234916244"><ele>86.0</ele><time>2026-04-29T09:46:02Z</time></trkpt><trkpt lat="28.12093174685976" lon="-11.293507769432454"><ele>88.5</ele><time>2026-04-29T09:46:03Z</time></trkpt><trkpt lat="28.120697116185926" lon="-11.293514687170724"><ele>91.0</ele><time>2026-04-29T09:46:04Z</time></trkpt><trkpt lat="28.12046125157609" lon="-11.2935265811141"><ele>91.0</ele><time>2026-04-29T09:46:05Z</time></trkpt><trkpt lat="28.120225949964073" lon="-11.293546073322775"><ele>91.0</ele><time>2026-04-29T09:46:06Z</time></trkpt><trkpt lat="28.11999138297883" lon="-11.293574148618642"><ele>91.5</ele><time>2026-04-29T09:46:07Z</time></trkpt><trkpt lat="28.11975804692362" lon="-11.293614570215006"><ele>92.0</ele><time>2026-04-29T09:46:08Z</time></trkpt><trkpt lat="28.119524647441057" lon="-11.293664071290799"><ele>92.0</ele><time>2026-04-29T09:46:09Z</time></trkpt><trkpt lat="28.119294717214245" lon="-11.293720841252426"><ele>92.0</ele><time>2026-04-29T09:46:10Z</time></trkpt><trkpt lat="28.119066886502445" lon="-11.293789205930574"><ele>90.0</ele><time>2026-04-29T09:46:11Z</time></trkpt><trkpt lat="28.118845500068407" lon="-11.293862400701718"><ele>88.0</ele><time>2026-04-29T09:46:12Z</time></trkpt><trkpt lat="28.11862063658369" lon="-11.293950613639282"><ele>88.0</ele><time>2026-04-29T09:46:13Z</time></trkpt><trkpt lat="28.11840017563686" lon="-11.294044036673354"><ele>88.0</ele><time>2026-04-29T09:46:14Z</time></trkpt><trkpt lat="28.118183063235474" lon="-11.294139555799632"><ele>88.0</ele><time>2026-04-29T09:46:15Z</time></trkpt><trkpt lat="28.117965232739795" lon="-11.294237341027479"><ele>88.0</ele><time>2026-04-29T09:46:16Z</time></trkpt><trkpt lat="28.117745438474252" lon="-11.294336008066201"><ele>88.0</ele><time>2026-04-29T09:46:17Z</time></trkpt><trkpt lat="28.117526076732876" lon="-11.294431927301257"><ele>88.0</ele><time>2026-04-29T09:46:18Z</time></trkpt><trkpt lat="28.117306056194177" lon="-11.294525419865165"><ele>87.5</ele><time>2026-04-29T09:46:19Z</time></trkpt><trkpt lat="28.117088159243647" lon="-11.294618209644355"><ele>87.0</ele><time>2026-04-29T09:46:20Z</time></trkpt><trkpt lat="28.116867068767" lon="-11.294710772100721"><ele>86.5</ele><time>2026-04-29T09:46:21Z</time></trkpt><trkpt lat="28.116647246904915" lon="-11.294805679074482"><ele>86.0</ele><time>2026-04-29T09:46:22Z</time></trkpt><trkpt lat="28.11642892946852" lon="-11.29489959432346"><ele>86.0</ele><time>2026-04-29T09:46:23Z</time></trkpt><trkpt lat="28.116209441389795" lon="-11.294992645426452"><ele>86.0</ele><time>2026-04-29T09:46:24Z</time></trkpt><trkpt lat="28.11598959749326" lon="-11.295086888382068"><ele>86.0</ele><time>2026-04-29T09:46:25Z</time></trkpt><trkpt lat="28.115770909876424" lon="-11.295179130020617"><ele>86.0</ele><time>2026-04-29T09:46:26Z</time></trkpt><trkpt lat="28.115550854901574" lon="-11.295271777805553"><ele>87.0</ele><time>2026-04-29T09:46:27Z</time></trkpt><trkpt lat="28.115330210687056" lon="-11.295366453002961"><ele>88.0</ele><time>2026-04-29T09:46:28Z</time></trkpt><trkpt lat="28.11511342151643" lon="-11.295456895439383"><ele>88.0</ele><time>2026-04-29T09:46:29Z</time></trkpt><trkpt lat="28.114894163911" lon="-11.295549824797856"><ele>88.0</ele><time>2026-04-29T09:46:30Z</time></trkpt><trkpt lat="28.114675465678268" lon="-11.295645029350657"><ele>88.5</ele><time>2026-04-29T09:46:31Z</time></trkpt><trkpt lat="28.114457759620556" lon="-11.29574792059119"><ele>89.0</ele><time>2026-04-29T09:46:32Z</time></trkpt><trkpt lat="28.11424406504941" lon="-11.29585882567843"><ele>90.0</ele><time>2026-04-29T09:46:33Z</time></trkpt><trkpt lat="28.114036285895487" lon="-11.295981712684647"><ele>91.0</ele><time>2026-04-29T09:46:34Z</time></trkpt><trkpt lat="28.113830222367344" lon="-11.296115456275922"><ele>91.0</ele><time>2026-04-29T09:46:35Z</time></trkpt><trkpt lat="28.113628855977232" lon="-11.296256069324302"><ele>91.0</ele><time>2026-04-29T09:46:36Z</time></trkpt><trkpt lat="28.11342844648831" lon="-11.296402031504273"><ele>89.0</ele><time>2026-04-29T09:46:37Z</time></trkpt><trkpt lat="28.113234878821782" lon="-11.296551631880975"><ele>87.0</ele><time>2026-04-29T09:46:38Z</time></trkpt><trkpt lat="28.11304745025889" lon="-11.296707531165769"><ele>87.0</ele><time>2026-04-29T09:46:39Z</time></trkpt><trkpt lat="28.112866926571964" lon="-11.296872311673942"><ele>87.0</ele><time>2026-04-29T09:46:40Z</time></trkpt><trkpt lat="28.112692008835648" lon="-11.29704100145479"><ele>87.0</ele><time>2026-04-29T09:46:41Z</time></trkpt><trkpt lat="28.112525458154362" lon="-11.297213457518083"><ele>87.0</ele><time>2026-04-29T09:46:42Z</time></trkpt><trkpt lat="28.112364189026735" lon="-11.29739413492838"><ele>86.5</ele><time>2026-04-29T09:46:43Z</time></trkpt><trkpt lat="28.112206654050347" lon="-11.297581254881804"><ele>86.0</ele><time>2026-04-29T09:46:44Z</time></trkpt><trkpt lat="28.112056402977363" lon="-11.297772010259965"><ele>86.0</ele><time>2026-04-29T09:46:45Z</time></trkpt><trkpt lat="28.111912664643565" lon="-11.297968725504704"><ele>86.0</ele><time>2026-04-29T09:46:46Z</time></trkpt><trkpt lat="28.11176926252987" lon="-11.298175562530332"><ele>85.0</ele><time>2026-04-29T09:46:47Z</time></trkpt><trkpt lat="28.111626839455905" lon="-11.298391583507549"><ele>84.0</ele><time>2026-04-29T09:46:48Z</time></trkpt><trkpt lat="28.11148625890247" lon="-11.298606969865983"><ele>84.0</ele><time>2026-04-29T09:46:49Z</time></trkpt><trkpt lat="28.111341343280845" lon="-11.298822491167435"><ele>84.0</ele><time>2026-04-29T09:46:50Z</time></trkpt><trkpt lat="28.11119194178897" lon="-11.299041281821028"><ele>84.0</ele><time>2026-04-29T09:46:51Z</time></trkpt><trkpt lat="28.1110395523373" lon="-11.299263093751046"><ele>84.0</ele><time>2026-04-29T09:46:52Z</time></trkpt><trkpt lat="28.110887691668314" lon="-11.299485203404558"><ele>84.5</ele><time>2026-04-29T09:46:53Z</time></trkpt><trkpt lat="28.11073523024681" lon="-11.299707485472155"><ele>85.0</ele><time>2026-04-29T09:46:54Z</time></trkpt><trkpt lat="28.110581931934263" lon="-11.299935530616208"><ele>85.0</ele><time>2026-04-29T09:46:55Z</time></trkpt><trkpt lat="28.110428573063896" lon="-11.300163135895183"><ele>85.0</ele><time>2026-04-29T09:46:56Z</time></trkpt><trkpt lat="28.11027259721888" lon="-11.300391119588376"><ele>85.5</ele><time>2026-04-29T09:46:57Z</time></trkpt><trkpt lat="28.110116494656154" lon="-11.300618849114832"><ele>86.0</ele><time>2026-04-29T09:46:58Z</time></trkpt><trkpt lat="28.109962867628234" lon="-11.300846740808975"><ele>85.5</ele><time>2026-04-29T09:46:59Z</time></trkpt><trkpt lat="28.109808173430864" lon="-11.301072906894191"><ele>85.0</ele><time>2026-04-29T09:47:00Z</time></trkpt><trkpt lat="28.109656551895853" lon="-11.301297578550486"><ele>85.5</ele><time>2026-04-29T09:47:01Z</time></trkpt><trkpt lat="28.109502382956936" lon="-11.30152089275049"><ele>86.0</ele><time>2026-04-29T09:47:02Z</time></trkpt><trkpt lat="28.109348898550316" lon="-11.301746254152155"><ele>86.0</ele><time>2026-04-29T09:47:03Z</time></trkpt><trkpt lat="28.10919882634183" lon="-11.301970152873961"><ele>86.0</ele><time>2026-04-29T09:47:04Z</time></trkpt><trkpt lat="28.109046152622014" lon="-11.302193549196813"><ele>84.5</ele><time>2026-04-29T09:47:05Z</time></trkpt><trkpt lat="28.108895728699764" lon="-11.30241390735233"><ele>83.0</ele><time>2026-04-29T09:47:06Z</time></trkpt><trkpt lat="28.108744708876042" lon="-11.302635090133519"><ele>83.0</ele><time>2026-04-29T09:47:07Z</time></trkpt><trkpt lat="28.108597250671217" lon="-11.302854304197263"><ele>83.0</ele><time>2026-04-29T09:47:08Z</time></trkpt><trkpt lat="28.108450254425083" lon="-11.30307313082435"><ele>82.0</ele><time>2026-04-29T09:47:09Z</time></trkpt><trkpt lat="28.10830301375205" lon="-11.303288074951611"><ele>81.0</ele><time>2026-04-29T09:47:10Z</time></trkpt><trkpt lat="28.108154746633257" lon="-11.303504500210524"><ele>81.0</ele><time>2026-04-29T09:47:11Z</time></trkpt><trkpt lat="28.10800787568643" lon="-11.303719056638435"><ele>81.0</ele><time>2026-04-29T09:47:12Z</time></trkpt><trkpt lat="28.10786178771608" lon="-11.303932819170143"><ele>82.0</ele><time>2026-04-29T09:47:13Z</time></trkpt><trkpt lat="28.107713362595685" lon="-11.304145833312965"><ele>83.0</ele><time>2026-04-29T09:47:14Z</time></trkpt><trkpt lat="28.10756770294102" lon="-11.304355646168936"><ele>83.0</ele><time>2026-04-29T09:47:15Z</time></trkpt><trkpt lat="28.107422318716118" lon="-11.304568361838465"><ele>83.0</ele><time>2026-04-29T09:47:16Z</time></trkpt><trkpt lat="28.107282357318827" lon="-11.304778019307017"><ele>81.5</ele><time>2026-04-29T09:47:17Z</time></trkpt><trkpt lat="28.107141424661027" lon="-11.304989887848045"><ele>80.0</ele><time>2026-04-29T09:47:18Z</time></trkpt><trkpt lat="28.107001018283867" lon="-11.305196055667189"><ele>80.0</ele><time>2026-04-29T09:47:19Z</time></trkpt><trkpt lat="28.1068624952875" lon="-11.305401486374944"><ele>80.0</ele><time>2026-04-29T09:47:20Z</time></trkpt><trkpt lat="28.1067243960197" lon="-11.305609714159248"><ele>81.5</ele><time>2026-04-29T09:47:21Z</time></trkpt><trkpt lat="28.106586789533342" lon="-11.305813567286389"><ele>83.0</ele><time>2026-04-29T09:47:22Z</time></trkpt><trkpt lat="28.10644852628008" lon="-11.30602130497467"><ele>83.0</ele><time>2026-04-29T09:47:23Z</time></trkpt><trkpt lat="28.106307923522984" lon="-11.306226160047997"><ele>83.0</ele><time>2026-04-29T09:47:24Z</time></trkpt><trkpt lat="28.106168355227066" lon="-11.306427110881652"><ele>83.5</ele><time>2026-04-29T09:47:25Z</time></trkpt><trkpt lat="28.106031204325816" lon="-11.306628875985812"><ele>84.0</ele><time>2026-04-29T09:47:26Z</time></trkpt><trkpt lat="28.105893546637255" lon="-11.30683125547027"><ele>84.0</ele><time>2026-04-29T09:47:27Z</time></trkpt><trkpt lat="28.105754464072696" lon="-11.307035301731855"><ele>84.0</ele><time>2026-04-29T09:47:28Z</time></trkpt><trkpt lat="28.105614781947274" lon="-11.307236192002982"><ele>82.5</ele><time>2026-04-29T09:47:29Z</time></trkpt><trkpt lat="28.105476221562494" lon="-11.307437356335974"><ele>81.0</ele><time>2026-04-29T09:47:30Z</time></trkpt><trkpt lat="28.10533643460912" lon="-11.307638234483765"><ele>81.0</ele><time>2026-04-29T09:47:31Z</time></trkpt><trkpt lat="28.105195221364752" lon="-11.307836204339122"><ele>81.0</ele><time>2026-04-29T09:47:32Z</time></trkpt><trkpt lat="28.10505350945125" lon="-11.308032887689574"><ele>81.0</ele><time>2026-04-29T09:47:33Z</time></trkpt><trkpt lat="28.104910701222156" lon="-11.308232419113907"><ele>80.66666666666667</ele><time>2026-04-29T09:47:34Z</time></trkpt><trkpt lat="28.104768005207795" lon="-11.308429201876338"><ele>80.33333333333334</ele><time>2026-04-29T09:47:35Z</time></trkpt><trkpt lat="28.10462838018684" lon="-11.308625010997607"><ele>80.0</ele><time>2026-04-29T09:47:36Z</time></trkpt><trkpt lat="28.104490102932726" lon="-11.308821004100535"><ele>79.66666666666667</ele><time>2026-04-29T09:47:37Z</time></trkpt><trkpt lat="28.104348544891717" lon="-11.309016590436524"><ele>79.33333333333333</ele><time>2026-04-29T09:47:38Z</time></trkpt><trkpt lat="28.104206865991504" lon="-11.309207433256207"><ele>79.0</ele><time>2026-04-29T09:47:39Z</time></trkpt><trkpt lat="28.10406698585424" lon="-11.309398213566496"><ele>79.0</ele><time>2026-04-29T09:47:40Z</time></trkpt><trkpt lat="28.103927666274778" lon="-11.309594190376107"><ele>79.0</ele><time>2026-04-29T09:47:41Z</time></trkpt><trkpt lat="28.10379041563232" lon="-11.309789377664051"><ele>79.0</ele><time>2026-04-29T09:47:42Z</time></trkpt><trkpt lat="28.103651420061635" lon="-11.309984562805514"><ele>79.0</ele><time>2026-04-29T09:47:43Z</time></trkpt><trkpt lat="28.1035078434994" lon="-11.310180375250571"><ele>79.0</ele><time>2026-04-29T09:47:44Z</time></trkpt><trkpt lat="28.10336167077096" lon="-11.310378861626436"><ele>79.5</ele><time>2026-04-29T09:47:45Z</time></trkpt><trkpt lat="28.10321462115953" lon="-11.310580800998636"><ele>80.0</ele><time>2026-04-29T09:47:46Z</time></trkpt><trkpt lat="28.10306596351823" lon="-11.310785981297528"><ele>80.0</ele><time>2026-04-29T09:47:47Z</time></trkpt><trkpt lat="28.102919729471246" lon="-11.310993433076375"><ele>80.0</ele><time>2026-04-29T09:47:48Z</time></trkpt><trkpt lat="28.102770899018072" lon="-11.311201948989355"><ele>79.0</ele><time>2026-04-29T09:47:49Z</time></trkpt><trkpt lat="28.102619423986066" lon="-11.311412759093672"><ele>78.0</ele><time>2026-04-29T09:47:50Z</time></trkpt><trkpt lat="28.102467145252" lon="-11.311626376221524"><ele>77.5</ele><time>2026-04-29T09:47:51Z</time></trkpt><trkpt lat="28.102316471192463" lon="-11.311841106049313"><ele>77.0</ele><time>2026-04-29T09:47:52Z</time></trkpt><trkpt lat="28.102162808097688" lon="-11.312061428242805"><ele>77.0</ele><time>2026-04-29T09:47:53Z</time></trkpt><trkpt lat="28.102006715335897" lon="-11.312275416841187"><ele>77.0</ele><time>2026-04-29T09:47:54Z</time></trkpt><trkpt lat="28.101848015815534" lon="-11.312492837510229"><ele>77.0</ele><time>2026-04-29T09:47:55Z</time></trkpt><trkpt lat="28.101689869646634" lon="-11.312710169791988"><ele>77.0</ele><time>2026-04-29T09:47:56Z</time></trkpt><trkpt lat="28.10153057201889" lon="-11.312929163460868"><ele>78.0</ele><time>2026-04-29T09:47:57Z</time></trkpt><trkpt lat="28.101371180922644" lon="-11.31315131214844"><ele>79.0</ele><time>2026-04-29T09:47:58Z</time></trkpt><trkpt lat="28.101212986612715" lon="-11.313373160796672"><ele>79.0</ele><time>2026-04-29T09:47:59Z</time></trkpt><trkpt lat="28.101054160594988" lon="-11.313595981957647"><ele>79.0</ele><time>2026-04-29T09:48:00Z</time></trkpt><trkpt lat="28.100892163244637" lon="-11.313820475525086"><ele>78.5</ele><time>2026-04-29T09:48:01Z</time></trkpt><trkpt lat="28.100733473591987" lon="-11.314041656702654"><ele>78.0</ele><time>2026-04-29T09:48:02Z</time></trkpt><trkpt lat="28.100574809168013" lon="-11.314265540158495"><ele>78.0</ele><time>2026-04-29T09:48:03Z</time></trkpt><trkpt lat="28.1004210781877" lon="-11.314484800150753"><ele>78.0</ele><time>2026-04-29T09:48:04Z</time></trkpt><trkpt lat="28.100262794436123" lon="-11.31470390177364"><ele>78.0</ele><time>2026-04-29T09:48:05Z</time></trkpt><trkpt lat="28.100106377162028" lon="-11.31492106614962"><ele>78.0</ele><time>2026-04-29T09:48:06Z</time></trkpt><trkpt lat="28.099953470161395" lon="-11.315137810003598"><ele>77.0</ele><time>2026-04-29T09:48:07Z</time></trkpt><trkpt lat="28.099804161125693" lon="-11.315352817493716"><ele>76.0</ele><time>2026-04-29T09:48:08Z</time></trkpt><trkpt lat="28.09966010925224" lon="-11.3155670185777"><ele>76.0</ele><time>2026-04-29T09:48:09Z</time></trkpt><trkpt lat="28.099522230360147" lon="-11.315783397536764"><ele>76.0</ele><time>2026-04-29T09:48:10Z</time></trkpt><trkpt lat="28.09939385079146" lon="-11.316005328755953"><ele>76.0</ele><time>2026-04-29T09:48:11Z</time></trkpt><trkpt lat="28.099275959484256" lon="-11.316230079203326"><ele>76.0</ele><time>2026-04-29T09:48:12Z</time></trkpt><trkpt lat="28.099166595979632" lon="-11.316458199452699"><ele>75.0</ele><time>2026-04-29T09:48:13Z</time></trkpt><trkpt lat="28.099065213671203" lon="-11.316686327254486"><ele>74.0</ele><time>2026-04-29T09:48:14Z</time></trkpt><trkpt lat="28.098973543546627" lon="-11.31691983778689"><ele>74.0</ele><time>2026-04-29T09:48:15Z</time></trkpt><trkpt lat="28.0988884285907" lon="-11.317149432448577"><ele>74.0</ele><time>2026-04-29T09:48:16Z</time></trkpt><trkpt lat="28.098810036335475" lon="-11.31738067664639"><ele>74.0</ele><time>2026-04-29T09:48:17Z</time></trkpt><trkpt lat="28.098735356976935" lon="-11.3176149615958"><ele>74.33333333333334</ele><time>2026-04-29T09:48:18Z</time></trkpt><trkpt lat="28.09866722476614" lon="-11.317847774327845"><ele>74.66666666666667</ele><time>2026-04-29T09:48:19Z</time></trkpt><trkpt lat="28.098606836250568" lon="-11.318088373049502"><ele>75.0</ele><time>2026-04-29T09:48:20Z</time></trkpt><trkpt lat="28.098548842633722" lon="-11.318335768152966"><ele>75.0</ele><time>2026-04-29T09:48:21Z</time></trkpt><trkpt lat="28.098495612238583" lon="-11.31858836038517"><ele>75.0</ele><time>2026-04-29T09:48:22Z</time></trkpt><trkpt lat="28.098445626978027" lon="-11.318849690507093"><ele>74.5</ele><time>2026-04-29T09:48:23Z</time></trkpt><trkpt lat="28.098401060756295" lon="-11.319117490292152"><ele>74.0</ele><time>2026-04-29T09:48:24Z</time></trkpt><trkpt lat="28.098354911552626" lon="-11.319397577973266"><ele>74.0</ele><time>2026-04-29T09:48:25Z</time></trkpt><trkpt lat="28.098308364785623" lon="-11.319676019793885"><ele>74.0</ele><time>2026-04-29T09:48:26Z</time></trkpt><trkpt lat="28.09826175133609" lon="-11.31996169041121"><ele>74.0</ele><time>2026-04-29T09:48:27Z</time></trkpt><trkpt lat="28.098220178718037" lon="-11.320245100303081"><ele>74.0</ele><time>2026-04-29T09:48:28Z</time></trkpt><trkpt lat="28.09818373796295" lon="-11.320527472903933"><ele>74.0</ele><time>2026-04-29T09:48:29Z</time></trkpt><trkpt lat="28.098146250454292" lon="-11.320810917696296"><ele>74.0</ele><time>2026-04-29T09:48:30Z</time></trkpt><trkpt lat="28.09810509448473" lon="-11.321093774546634"><ele>74.0</ele><time>2026-04-29T09:48:31Z</time></trkpt><trkpt lat="28.098060241792513" lon="-11.321371451605899"><ele>74.0</ele><time>2026-04-29T09:48:32Z</time></trkpt><trkpt lat="28.098013627944777" lon="-11.321645401988429"><ele>73.5</ele><time>2026-04-29T09:48:33Z</time></trkpt><trkpt lat="28.097968376792945" lon="-11.321914274820777"><ele>73.0</ele><time>2026-04-29T09:48:34Z</time></trkpt><trkpt lat="28.097924047401225" lon="-11.322179823102916"><ele>71.5</ele><time>2026-04-29T09:48:35Z</time></trkpt><trkpt lat="28.097880934570362" lon="-11.322448262695515"><ele>70.0</ele><time>2026-04-29T09:48:36Z</time></trkpt><trkpt lat="28.097840398410813" lon="-11.322710933892566"><ele>70.0</ele><time>2026-04-29T09:48:37Z</time></trkpt><trkpt lat="28.09779531149906" lon="-11.322972033247689"><ele>70.0</ele><time>2026-04-29T09:48:38Z</time></trkpt><trkpt lat="28.0977501127729" lon="-11.3232309614452"><ele>71.5</ele><time>2026-04-29T09:48:39Z</time></trkpt><trkpt lat="28.097707370691758" lon="-11.323486213209996"><ele>73.0</ele><time>2026-04-29T09:48:40Z</time></trkpt><trkpt lat="28.097666198896615" lon="-11.323742691336454"><ele>72.0</ele><time>2026-04-29T09:48:41Z</time></trkpt><trkpt lat="28.097625111242312" lon="-11.323995671170012"><ele>71.0</ele><time>2026-04-29T09:48:42Z</time></trkpt><trkpt lat="28.097585830670564" lon="-11.324248454540088"><ele>71.0</ele><time>2026-04-29T09:48:43Z</time></trkpt><trkpt lat="28.097544623045138" lon="-11.32450073175682"><ele>71.0</ele><time>2026-04-29T09:48:44Z</time></trkpt><trkpt lat="28.097505154893824" lon="-11.324748477406306"><ele>71.0</ele><time>2026-04-29T09:48:45Z</time></trkpt><trkpt lat="28.0974612740537" lon="-11.324999322387818"><ele>71.66666666666667</ele><time>2026-04-29T09:48:46Z</time></trkpt><trkpt lat="28.097418495552756" lon="-11.325246360595827"><ele>72.33333333333333</ele><time>2026-04-29T09:48:47Z</time></trkpt><trkpt lat="28.09737848670444" lon="-11.325494862119585"><ele>73.0</ele><time>2026-04-29T09:48:48Z</time></trkpt><trkpt lat="28.097338549575642" lon="-11.325741900838034"><ele>73.0</ele><time>2026-04-29T09:48:49Z</time></trkpt><trkpt lat="28.097298519700928" lon="-11.325990117929695"><ele>73.0</ele><time>2026-04-29T09:48:50Z</time></trkpt><trkpt lat="28.09725879284236" lon="-11.326236428735811"><ele>73.0</ele><time>2026-04-29T09:48:51Z</time></trkpt><trkpt lat="28.097217872268295" lon="-11.326483379263934"><ele>73.0</ele><time>2026-04-29T09:48:52Z</time></trkpt><trkpt lat="28.097177205384057" lon="-11.326728690563659"><ele>73.0</ele><time>2026-04-29T09:48:53Z</time></trkpt><trkpt lat="28.09713549944158" lon="-11.326975555025504"><ele>73.0</ele><time>2026-04-29T09:48:54Z</time></trkpt><trkpt lat="28.097094530574925" lon="-11.32722082908216"><ele>71.66666666666666</ele><time>2026-04-29T09:48:55Z</time></trkpt><trkpt lat="28.09705449305045" lon="-11.327465636792482"><ele>70.33333333333333</ele><time>2026-04-29T09:48:56Z</time></trkpt><trkpt lat="28.097017113863618" lon="-11.327703037867511"><ele>69.0</ele><time>2026-04-29T09:48:57Z</time></trkpt><trkpt lat="28.096979565640822" lon="-11.327940270058226"><ele>69.33333333333333</ele><time>2026-04-29T09:48:58Z</time></trkpt><trkpt lat="28.096941530231586" lon="-11.328172731936462"><ele>69.66666666666666</ele><time>2026-04-29T09:48:59Z</time></trkpt><trkpt lat="28.096903417130083" lon="-11.328406981893965"><ele>70.0</ele><time>2026-04-29T09:49:00Z</time></trkpt><trkpt lat="28.09686402104968" lon="-11.32863917312796"><ele>70.0</ele><time>2026-04-29T09:49:01Z</time></trkpt><trkpt lat="28.096825243275884" lon="-11.328870172923988"><ele>70.0</ele><time>2026-04-29T09:49:02Z</time></trkpt><trkpt lat="28.096787274024354" lon="-11.329097445277025"><ele>70.0</ele><time>2026-04-29T09:49:03Z</time></trkpt><trkpt lat="28.096749914100243" lon="-11.329326469844043"><ele>70.0</ele><time>2026-04-29T09:49:04Z</time></trkpt><trkpt lat="28.09671362460397" lon="-11.329551431612694"><ele>70.0</ele><time>2026-04-29T09:49:05Z</time></trkpt><trkpt lat="28.096677767296484" lon="-11.329773960597192"><ele>70.0</ele><time>2026-04-29T09:49:06Z</time></trkpt><trkpt lat="28.096641441252146" lon="-11.329995305239551"><ele>70.0</ele><time>2026-04-29T09:49:07Z</time></trkpt><trkpt lat="28.096605263281916" lon="-11.330217331316048"><ele>70.0</ele><time>2026-04-29T09:49:08Z</time></trkpt><trkpt lat="28.096567850022982" lon="-11.330440578524184"><ele>70.0</ele><time>2026-04-29T09:49:09Z</time></trkpt><trkpt lat="28.09653000880715" lon="-11.330660723144934"><ele>70.33333333333333</ele><time>2026-04-29T09:49:10Z</time></trkpt><trkpt lat="28.096492525852874" lon="-11.330880563701133"><ele>70.66666666666667</ele><time>2026-04-29T09:49:11Z</time></trkpt><trkpt lat="28.09645605077228" lon="-11.331100953244501"><ele>71.0</ele><time>2026-04-29T09:49:12Z</time></trkpt><trkpt lat="28.096420013050295" lon="-11.331322488334749"><ele>71.33333333333334</ele><time>2026-04-29T09:49:13Z</time></trkpt><trkpt lat="28.096383997387324" lon="-11.33154244997846"><ele>71.66666666666667</ele><time>2026-04-29T09:49:14Z</time></trkpt><trkpt lat="28.09634733280213" lon="-11.331762040854358"><ele>72.0</ele><time>2026-04-29T09:49:15Z</time></trkpt><trkpt lat="28.096311194323377" lon="-11.331979639174472"><ele>72.0</ele><time>2026-04-29T09:49:16Z</time></trkpt><trkpt lat="28.096273602762043" lon="-11.332197980900403"><ele>72.0</ele><time>2026-04-29T09:49:17Z</time></trkpt><trkpt lat="28.09623697938452" lon="-11.332414147480971"><ele>72.0</ele><time>2026-04-29T09:49:18Z</time></trkpt><trkpt lat="28.096198346462597" lon="-11.332631585537454"><ele>71.66666666666667</ele><time>2026-04-29T09:49:19Z</time></trkpt><trkpt lat="28.096180892869345" lon="-11.33284943220231"><ele>71.33333333333334</ele><time>2026-04-29T09:49:20Z</time></trkpt><trkpt lat="28.096147125105777" lon="-11.333066666592373"><ele>71.0</ele><time>2026-04-29T09:49:21Z</time></trkpt><trkpt lat="28.096113497001287" lon="-11.33328218428038"><ele>71.0</ele><time>2026-04-29T09:49:22Z</time></trkpt><trkpt lat="28.096079788372347" lon="-11.333498218121521"><ele>71.0</ele><time>2026-04-29T09:49:23Z</time></trkpt><trkpt lat="28.09605287808571" lon="-11.33371565974401"><ele>71.0</ele><time>2026-04-29T09:49:24Z</time></trkpt><trkpt lat="28.096027681572586" lon="-11.333933042593099"><ele>70.0</ele><time>2026-04-29T09:49:25Z</time></trkpt><trkpt lat="28.096002157844854" lon="-11.334150894632769"><ele>69.0</ele><time>2026-04-29T09:49:26Z</time></trkpt><trkpt lat="28.095976939992784" lon="-11.33436598570006"><ele>68.0</ele><time>2026-04-29T09:49:27Z</time></trkpt><trkpt lat="28.095951320406105" lon="-11.334584502812111"><ele>67.33333333333334</ele><time>2026-04-29T09:49:28Z</time></trkpt><trkpt lat="28.095926396855223" lon="-11.334797083213262"><ele>66.66666666666667</ele><time>2026-04-29T09:49:29Z</time></trkpt><trkpt lat="28.095901275899372" lon="-11.335011347363816"><ele>66.0</ele><time>2026-04-29T09:49:30Z</time></trkpt><trkpt lat="28.09587651009226" lon="-11.335224098376168"><ele>66.0</ele><time>2026-04-29T09:49:31Z</time></trkpt><trkpt lat="28.095851872726172" lon="-11.33543597188225"><ele>66.0</ele><time>2026-04-29T09:49:32Z</time></trkpt><trkpt lat="28.095827544158922" lon="-11.335644691785713"><ele>66.0</ele><time>2026-04-29T09:49:33Z</time></trkpt><trkpt lat="28.095802866934772" lon="-11.335855333741591"><ele>66.0</ele><time>2026-04-29T09:49:34Z</time></trkpt><trkpt lat="28.095778148942866" lon="-11.336066323675004"><ele>66.0</ele><time>2026-04-29T09:49:35Z</time></trkpt><trkpt lat="28.09575329160605" lon="-11.336278177576705"><ele>66.0</ele><time>2026-04-29T09:49:36Z</time></trkpt><trkpt lat="28.09572897198342" lon="-11.336485358159635"><ele>65.66666666666667</ele><time>2026-04-29T09:49:37Z</time></trkpt><trkpt lat="28.095704091350715" lon="-11.33669460949381"><ele>65.33333333333334</ele><time>2026-04-29T09:49:38Z</time></trkpt><trkpt lat="28.09567917263397" lon="-11.336903069948356"><ele>65.0</ele><time>2026-04-29T09:49:39Z</time></trkpt><trkpt lat="28.095654287577634" lon="-11.337117811641168"><ele>66.0</ele><time>2026-04-29T09:49:40Z</time></trkpt><trkpt lat="28.095628732255516" lon="-11.337338340460436"><ele>67.0</ele><time>2026-04-29T09:49:41Z</time></trkpt><trkpt lat="28.09560208163989" lon="-11.33756832110798"><ele>68.0</ele><time>2026-04-29T09:49:42Z</time></trkpt><trkpt lat="28.095575803228947" lon="-11.33779508980783"><ele>68.0</ele><time>2026-04-29T09:49:43Z</time></trkpt><trkpt lat="28.095547552524053" lon="-11.338029820117717"><ele>68.0</ele><time>2026-04-29T09:49:44Z</time></trkpt><trkpt lat="28.095519298627767" lon="-11.33827264526033"><ele>68.0</ele><time>2026-04-29T09:49:45Z</time></trkpt><trkpt lat="28.09549104787836" lon="-11.338514794529365"><ele>68.0</ele><time>2026-04-29T09:49:46Z</time></trkpt><trkpt lat="28.0954618332339" lon="-11.338765205763947"><ele>68.0</ele><time>2026-04-29T09:49:47Z</time></trkpt><trkpt lat="28.095431866402997" lon="-11.339022064303874"><ele>68.0</ele><time>2026-04-29T09:49:48Z</time></trkpt><trkpt lat="28.09540150284227" lon="-11.339281895498576"><ele>68.0</ele><time>2026-04-29T09:49:49Z</time></trkpt><trkpt lat="28.09537063564543" lon="-11.339543902330876"><ele>67.5</ele><time>2026-04-29T09:49:50Z</time></trkpt><trkpt lat="28.095339683307447" lon="-11.339808751671265"><ele>67.0</ele><time>2026-04-29T09:49:51Z</time></trkpt><trkpt lat="28.095308211213037" lon="-11.340077809512628"><ele>67.0</ele><time>2026-04-29T09:49:52Z</time></trkpt><trkpt lat="28.0952764674649" lon="-11.340348582223035"><ele>67.0</ele><time>2026-04-29T09:49:53Z</time></trkpt><trkpt lat="28.095244738370347" lon="-11.340619865702903"><ele>66.5</ele><time>2026-04-29T09:49:54Z</time></trkpt><trkpt lat="28.095212757747024" lon="-11.340895439410367"><ele>66.0</ele><time>2026-04-29T09:49:55Z</time></trkpt><trkpt lat="28.095180079026584" lon="-11.341174808477914"><ele>65.5</ele><time>2026-04-29T09:49:56Z</time></trkpt><trkpt lat="28.095147022813133" lon="-11.341455329490834"><ele>65.0</ele><time>2026-04-29T09:49:57Z</time></trkpt><trkpt lat="28.095113709093816" lon="-11.341737658612379"><ele>65.0</ele><time>2026-04-29T09:49:58Z</time></trkpt><trkpt lat="28.095080562980186" lon="-11.342020809248003"><ele>65.0</ele><time>2026-04-29T09:49:59Z</time></trkpt><trkpt lat="28.095047516591602" lon="-11.342305400301967"><ele>63.5</ele><time>2026-04-29T09:50:00Z</time></trkpt><trkpt lat="28.095014573084327" lon="-11.342589538059565"><ele>62.0</ele><time>2026-04-29T09:50:01Z</time></trkpt><trkpt lat="28.094981895729124" lon="-11.342871380265965"><ele>62.0</ele><time>2026-04-29T09:50:02Z</time></trkpt><trkpt lat="28.09494911325566" lon="-11.343149984146"><ele>62.0</ele><time>2026-04-29T09:50:03Z</time></trkpt><trkpt lat="28.094916626805016" lon="-11.343424243202778"><ele>62.0</ele><time>2026-04-29T09:50:04Z</time></trkpt><trkpt lat="28.09487731549006" lon="-11.343695217984187"><ele>62.0</ele><time>2026-04-29T09:50:05Z</time></trkpt><trkpt lat="28.09482937438621" lon="-11.343954994861436"><ele>62.0</ele><time>2026-04-29T09:50:06Z</time></trkpt><trkpt lat="28.09478162262026" lon="-11.344213354013995"><ele>62.0</ele><time>2026-04-29T09:50:07Z</time></trkpt><trkpt lat="28.09473461735151" lon="-11.344466564390206"><ele>62.0</ele><time>2026-04-29T09:50:08Z</time></trkpt><trkpt lat="28.094663058768973" lon="-11.344710112788096"><ele>62.0</ele><time>2026-04-29T09:50:09Z</time></trkpt><trkpt lat="28.094607042392173" lon="-11.344954861422314"><ele>62.0</ele><time>2026-04-29T09:50:10Z</time></trkpt><trkpt lat="28.09454216220303" lon="-11.345191422752588"><ele>62.66666666666667</ele><time>2026-04-29T09:50:11Z</time></trkpt><trkpt lat="28.09446817999223" lon="-11.3454275420742"><ele>63.33333333333333</ele><time>2026-04-29T09:50:12Z</time></trkpt><trkpt lat="28.09440923917893" lon="-11.345666769362966"><ele>64.0</ele><time>2026-04-29T09:50:13Z</time></trkpt><trkpt lat="28.094319888796615" lon="-11.345898480855737"><ele>64.0</ele><time>2026-04-29T09:50:14Z</time></trkpt><trkpt lat="28.094222011186705" lon="-11.346118813530456"><ele>64.0</ele><time>2026-04-29T09:50:15Z</time></trkpt><trkpt lat="28.09412410528286" lon="-11.346337694598473"><ele>64.0</ele><time>2026-04-29T09:50:16Z</time></trkpt><trkpt lat="28.094005787797776" lon="-11.346545223068361"><ele>63.666666666666664</ele><time>2026-04-29T09:50:17Z</time></trkpt><trkpt lat="28.0938928036097" lon="-11.346763587316357"><ele>63.33333333333333</ele><time>2026-04-29T09:50:18Z</time></trkpt><trkpt lat="28.09377264800654" lon="-11.346978543872998"><ele>63.0</ele><time>2026-04-29T09:50:19Z</time></trkpt><trkpt lat="28.0936466806849" lon="-11.347190923236507"><ele>64.0</ele><time>2026-04-29T09:50:20Z</time></trkpt><trkpt lat="28.093515773797634" lon="-11.347396955687207"><ele>65.0</ele><time>2026-04-29T09:50:21Z</time></trkpt><trkpt lat="28.093379799177402" lon="-11.347605600638838"><ele>63.5</ele><time>2026-04-29T09:50:22Z</time></trkpt><trkpt lat="28.0932405751567" lon="-11.347815206392271"><ele>62.0</ele><time>2026-04-29T09:50:23Z</time></trkpt><trkpt lat="28.093102941669482" lon="-11.348024059597327"><ele>62.0</ele><time>2026-04-29T09:50:24Z</time></trkpt><trkpt lat="28.092966353348103" lon="-11.348232845767473"><ele>62.0</ele><time>2026-04-29T09:50:25Z</time></trkpt><trkpt lat="28.09282778802009" lon="-11.348441340448412"><ele>62.0</ele><time>2026-04-29T09:50:26Z</time></trkpt><trkpt lat="28.09268852477477" lon="-11.348650748256093"><ele>62.0</ele><time>2026-04-29T09:50:27Z</time></trkpt><trkpt lat="28.092560929734923" lon="-11.348873363661847"><ele>61.0</ele><time>2026-04-29T09:50:28Z</time></trkpt><trkpt lat="28.092420654828548" lon="-11.349085462305212"><ele>60.0</ele><time>2026-04-29T09:50:29Z</time></trkpt><trkpt lat="28.09227949820477" lon="-11.34929889411035"><ele>60.0</ele><time>2026-04-29T09:50:30Z</time></trkpt><trkpt lat="28.092124369929795" lon="-11.349498422183148"><ele>60.0</ele><time>2026-04-29T09:50:31Z</time></trkpt><trkpt lat="28.091984446654322" lon="-11.349711374510465"><ele>60.0</ele><time>2026-04-29T09:50:32Z</time></trkpt><trkpt lat="28.091843477644286" lon="-11.349925986406886"><ele>60.0</ele><time>2026-04-29T09:50:33Z</time></trkpt><trkpt lat="28.09170041693231" lon="-11.3501392618634"><ele>60.0</ele><time>2026-04-29T09:50:34Z</time></trkpt><trkpt lat="28.091559761304843" lon="-11.35035208117849"><ele>60.0</ele><time>2026-04-29T09:50:35Z</time></trkpt><trkpt lat="28.091417488005145" lon="-11.350568830442583"><ele>60.0</ele><time>2026-04-29T09:50:36Z</time></trkpt><trkpt lat="28.09127377757223" lon="-11.3507850521669"><ele>60.0</ele><time>2026-04-29T09:50:37Z</time></trkpt><trkpt lat="28.091132868518997" lon="-11.350999655690169"><ele>60.0</ele><time>2026-04-29T09:50:38Z</time></trkpt><trkpt lat="28.090990436863727" lon="-11.351215396956885"><ele>60.0</ele><time>2026-04-29T09:50:39Z</time></trkpt><trkpt lat="28.090846789510284" lon="-11.351430162505782"><ele>60.0</ele><time>2026-04-29T09:50:40Z</time></trkpt><trkpt lat="28.090702573490464" lon="-11.351644644806013"><ele>60.0</ele><time>2026-04-29T09:50:41Z</time></trkpt><trkpt lat="28.090557443881984" lon="-11.351860017752937"><ele>60.0</ele><time>2026-04-29T09:50:42Z</time></trkpt><trkpt lat="28.090415130344113" lon="-11.3520776654294"><ele>60.0</ele><time>2026-04-29T09:50:43Z</time></trkpt><trkpt lat="28.09027188614583" lon="-11.352290060338737"><ele>59.0</ele><time>2026-04-29T09:50:44Z</time></trkpt><trkpt lat="28.090123673644754" lon="-11.352502933907758"><ele>58.0</ele><time>2026-04-29T09:50:45Z</time></trkpt><trkpt lat="28.08997375900056" lon="-11.352711506387049"><ele>60.5</ele><time>2026-04-29T09:50:46Z</time></trkpt><trkpt lat="28.08981562207075" lon="-11.35291958165535"><ele>63.0</ele><time>2026-04-29T09:50:47Z</time></trkpt><trkpt lat="28.089653231873218" lon="-11.35312221520501"><ele>63.0</ele><time>2026-04-29T09:50:48Z</time></trkpt><trkpt lat="28.08948467616222" lon="-11.353315963362737"><ele>63.0</ele><time>2026-04-29T09:50:49Z</time></trkpt><trkpt lat="28.089310382908096" lon="-11.353510614285744"><ele>63.0</ele><time>2026-04-29T09:50:50Z</time></trkpt><trkpt lat="28.089127049575882" lon="-11.35369347813086"><ele>63.0</ele><time>2026-04-29T09:50:51Z</time></trkpt><trkpt lat="28.088941512934728" lon="-11.353874315333153"><ele>61.5</ele><time>2026-04-29T09:50:52Z</time></trkpt><trkpt lat="28.088758384043548" lon="-11.354060982335673"><ele>60.0</ele><time>2026-04-29T09:50:53Z</time></trkpt><trkpt lat="28.088575515297187" lon="-11.354249223981238"><ele>60.0</ele><time>2026-04-29T09:50:54Z</time></trkpt><trkpt lat="28.08839015319745" lon="-11.354441809702273"><ele>60.0</ele><time>2026-04-29T09:50:55Z</time></trkpt><trkpt lat="28.088203752902174" lon="-11.35463397842124"><ele>60.0</ele><time>2026-04-29T09:50:56Z</time></trkpt><trkpt lat="28.08801647216656" lon="-11.35482320927928"><ele>60.0</ele><time>2026-04-29T09:50:57Z</time></trkpt><trkpt lat="28.08782919925022" lon="-11.355015780021105"><ele>60.0</ele><time>2026-04-29T09:50:58Z</time></trkpt><trkpt lat="28.08764459354479" lon="-11.355205531385385"><ele>60.0</ele><time>2026-04-29T09:50:59Z</time></trkpt><trkpt lat="28.087453031279164" lon="-11.355398400835695"><ele>59.5</ele><time>2026-04-29T09:51:00Z</time></trkpt><trkpt lat="28.087266426696058" lon="-11.355588446015757"><ele>59.0</ele><time>2026-04-29T09:51:01Z</time></trkpt><trkpt lat="28.087079395437254" lon="-11.355781430278947"><ele>59.0</ele><time>2026-04-29T09:51:02Z</time></trkpt><trkpt lat="28.086889312252687" lon="-11.355977114039481"><ele>59.0</ele><time>2026-04-29T09:51:03Z</time></trkpt><trkpt lat="28.086698911092103" lon="-11.356172827838314"><ele>59.5</ele><time>2026-04-29T09:51:04Z</time></trkpt><trkpt lat="28.086510062636656" lon="-11.356364988185721"><ele>60.0</ele><time>2026-04-29T09:51:05Z</time></trkpt><trkpt lat="28.08632039746458" lon="-11.35655914881015"><ele>60.0</ele><time>2026-04-29T09:51:06Z</time></trkpt><trkpt lat="28.086128030982714" lon="-11.356752545691432"><ele>60.0</ele><time>2026-04-29T09:51:07Z</time></trkpt><trkpt lat="28.085936235223194" lon="-11.35694340024308"><ele>60.5</ele><time>2026-04-29T09:51:08Z</time></trkpt><trkpt lat="28.085737179877267" lon="-11.357128980277938"><ele>61.0</ele><time>2026-04-29T09:51:09Z</time></trkpt><trkpt lat="28.08553451917509" lon="-11.357309597399233"><ele>59.5</ele><time>2026-04-29T09:51:10Z</time></trkpt><trkpt lat="28.085323469349603" lon="-11.3574789874867"><ele>58.0</ele><time>2026-04-29T09:51:11Z</time></trkpt><trkpt lat="28.085108053089503" lon="-11.357638380002903"><ele>58.5</ele><time>2026-04-29T09:51:12Z</time></trkpt><trkpt lat="28.084884274700553" lon="-11.357792040158603"><ele>59.0</ele><time>2026-04-29T09:51:13Z</time></trkpt><trkpt lat="28.08465894357216" lon="-11.357933372366103"><ele>59.5</ele><time>2026-04-29T09:51:14Z</time></trkpt><trkpt lat="28.084426174658873" lon="-11.358067868784612"><ele>60.0</ele><time>2026-04-29T09:51:15Z</time></trkpt><trkpt lat="28.084186660039034" lon="-11.358187072102613"><ele>60.5</ele><time>2026-04-29T09:51:16Z</time></trkpt><trkpt lat="28.08394243258353" lon="-11.358293347835206"><ele>61.0</ele><time>2026-04-29T09:51:17Z</time></trkpt><trkpt lat="28.083694964112773" lon="-11.358390754188454"><ele>61.0</ele><time>2026-04-29T09:51:18Z</time></trkpt><trkpt lat="28.08344285576998" lon="-11.358481149081328"><ele>61.0</ele><time>2026-04-29T09:51:19Z</time></trkpt><trkpt lat="28.083192732475798" lon="-11.358565847877552"><ele>59.0</ele><time>2026-04-29T09:51:20Z</time></trkpt><trkpt lat="28.08293644575235" lon="-11.358643126727598"><ele>57.0</ele><time>2026-04-29T09:51:21Z</time></trkpt><trkpt lat="28.082678356227273" lon="-11.3586978515839"><ele>56.5</ele><time>2026-04-29T09:51:22Z</time></trkpt><trkpt lat="28.08241664624502" lon="-11.358737663925321"><ele>56.0</ele><time>2026-04-29T09:51:23Z</time></trkpt><trkpt lat="28.0821531437097" lon="-11.358762278252295"><ele>56.0</ele><time>2026-04-29T09:51:24Z</time></trkpt><trkpt lat="28.08188986785463" lon="-11.358788651435065"><ele>56.0</ele><time>2026-04-29T09:51:25Z</time></trkpt><trkpt lat="28.08162612147814" lon="-11.358811889205224"><ele>54.5</ele><time>2026-04-29T09:51:26Z</time></trkpt><trkpt lat="28.081363215266368" lon="-11.358836426111262"><ele>53.0</ele><time>2026-04-29T09:51:27Z</time></trkpt><trkpt lat="28.08109857985535" lon="-11.35886446786904"><ele>53.0</ele><time>2026-04-29T09:51:28Z</time></trkpt><trkpt lat="28.080833892757422" lon="-11.358894388805757"><ele>53.0</ele><time>2026-04-29T09:51:29Z</time></trkpt><trkpt lat="28.08056986064593" lon="-11.358925022484973"><ele>53.0</ele><time>2026-04-29T09:51:30Z</time></trkpt><trkpt lat="28.080301935091846" lon="-11.35895512640768"><ele>53.0</ele><time>2026-04-29T09:51:31Z</time></trkpt><trkpt lat="28.080036931877444" lon="-11.358981562359283"><ele>53.5</ele><time>2026-04-29T09:51:32Z</time></trkpt><trkpt lat="28.079772706085084" lon="-11.359009052275002"><ele>54.0</ele><time>2026-04-29T09:51:33Z</time></trkpt><trkpt lat="28.07950737104569" lon="-11.359036953769314"><ele>54.0</ele><time>2026-04-29T09:51:34Z</time></trkpt><trkpt lat="28.079240829563133" lon="-11.359065754632832"><ele>54.0</ele><time>2026-04-29T09:51:35Z</time></trkpt><trkpt lat="28.078974049938328" lon="-11.359092980426105"><ele>53.0</ele><time>2026-04-29T09:51:36Z</time></trkpt><trkpt lat="28.07870596417145" lon="-11.3591198552311"><ele>52.0</ele><time>2026-04-29T09:51:37Z</time></trkpt><trkpt lat="28.07843950475925" lon="-11.359146067320438"><ele>52.0</ele><time>2026-04-29T09:51:38Z</time></trkpt><trkpt lat="28.07817311063397" lon="-11.359172127957992"><ele>52.0</ele><time>2026-04-29T09:51:39Z</time></trkpt><trkpt lat="28.077908917373342" lon="-11.35920088894249"><ele>52.0</ele><time>2026-04-29T09:51:40Z</time></trkpt><trkpt lat="28.077642053989724" lon="-11.359233289919606"><ele>52.0</ele><time>2026-04-29T09:51:41Z</time></trkpt><trkpt lat="28.077376936686935" lon="-11.3592610180459"><ele>52.5</ele><time>2026-04-29T09:51:42Z</time></trkpt><trkpt lat="28.077111013971813" lon="-11.35929064238038"><ele>53.0</ele><time>2026-04-29T09:51:43Z</time></trkpt><trkpt lat="28.076846031221276" lon="-11.359318016885279"><ele>55.0</ele><time>2026-04-29T09:51:44Z</time></trkpt><trkpt lat="28.07658081893242" lon="-11.359345368890661"><ele>57.0</ele><time>2026-04-29T09:51:45Z</time></trkpt><trkpt lat="28.07631852551624" lon="-11.359373088832106"><ele>57.0</ele><time>2026-04-29T09:51:46Z</time></trkpt><trkpt lat="28.076055872374944" lon="-11.359403485280774"><ele>57.0</ele><time>2026-04-29T09:51:47Z</time></trkpt><trkpt lat="28.075793415830244" lon="-11.359429489032877"><ele>57.0</ele><time>2026-04-29T09:51:48Z</time></trkpt><trkpt lat="28.07553160323944" lon="-11.35947888981007"><ele>57.0</ele><time>2026-04-29T09:51:49Z</time></trkpt><trkpt lat="28.07526810919291" lon="-11.359483737303494"><ele>57.0</ele><time>2026-04-29T09:51:50Z</time></trkpt><trkpt lat="28.075004639956028" lon="-11.35950919934739"><ele>57.0</ele><time>2026-04-29T09:51:51Z</time></trkpt><trkpt lat="28.074741139687845" lon="-11.35953327109746"><ele>57.5</ele><time>2026-04-29T09:51:52Z</time></trkpt><trkpt lat="28.074478369953486" lon="-11.359560978497147"><ele>58.0</ele><time>2026-04-29T09:51:53Z</time></trkpt><trkpt lat="28.07421618091483" lon="-11.35959032108956"><ele>58.5</ele><time>2026-04-29T09:51:54Z</time></trkpt><trkpt lat="28.073957043963468" lon="-11.359645674453917"><ele>59.0</ele><time>2026-04-29T09:51:55Z</time></trkpt><trkpt lat="28.07369466751435" lon="-11.359689649659405"><ele>58.5</ele><time>2026-04-29T09:51:56Z</time></trkpt><trkpt lat="28.073433054050945" lon="-11.35971887703405"><ele>58.0</ele><time>2026-04-29T09:51:57Z</time></trkpt><trkpt lat="28.073175604026382" lon="-11.359778424651179"><ele>57.0</ele><time>2026-04-29T09:51:58Z</time></trkpt><trkpt lat="28.072916503104658" lon="-11.359847552298618"><ele>56.0</ele><time>2026-04-29T09:51:59Z</time></trkpt><trkpt lat="28.072656352868982" lon="-11.359915771128573"><ele>56.0</ele><time>2026-04-29T09:52:00Z</time></trkpt><trkpt lat="28.072395362335847" lon="-11.359983297832894"><ele>56.0</ele><time>2026-04-29T09:52:01Z</time></trkpt><trkpt lat="28.07213520962475" lon="-11.360049092191243"><ele>56.0</ele><time>2026-04-29T09:52:02Z</time></trkpt><trkpt lat="28.071877492269483" lon="-11.360114210695679"><ele>56.0</ele><time>2026-04-29T09:52:03Z</time></trkpt><trkpt lat="28.071618543602423" lon="-11.360178959331531"><ele>56.5</ele><time>2026-04-29T09:52:04Z</time></trkpt><trkpt lat="28.071357490450225" lon="-11.360246606663722"><ele>57.0</ele><time>2026-04-29T09:52:05Z</time></trkpt><trkpt lat="28.07109718093753" lon="-11.360311895253897"><ele>57.0</ele><time>2026-04-29T09:52:06Z</time></trkpt><trkpt lat="28.070837909050095" lon="-11.360377730402753"><ele>57.0</ele><time>2026-04-29T09:52:07Z</time></trkpt><trkpt lat="28.070575260446923" lon="-11.360444306823169"><ele>57.0</ele><time>2026-04-29T09:52:08Z</time></trkpt><trkpt lat="28.070313597611978" lon="-11.360509746131845"><ele>57.0</ele><time>2026-04-29T09:52:09Z</time></trkpt><trkpt lat="28.07005252305545" lon="-11.360573505236657"><ele>58.5</ele><time>2026-04-29T09:52:10Z</time></trkpt><trkpt lat="28.069788165666743" lon="-11.360636273610096"><ele>60.0</ele><time>2026-04-29T09:52:11Z</time></trkpt><trkpt lat="28.069525670847458" lon="-11.360700690122759"><ele>60.0</ele><time>2026-04-29T09:52:12Z</time></trkpt><trkpt lat="28.069262702064812" lon="-11.360767242977841"><ele>60.0</ele><time>2026-04-29T09:52:13Z</time></trkpt><trkpt lat="28.068998732531355" lon="-11.360832493800732"><ele>60.5</ele><time>2026-04-29T09:52:14Z</time></trkpt><trkpt lat="28.06873900891502" lon="-11.360899148185082"><ele>61.0</ele><time>2026-04-29T09:52:15Z</time></trkpt><trkpt lat="28.06847896649287" lon="-11.360965084479904"><ele>60.0</ele><time>2026-04-29T09:52:16Z</time></trkpt><trkpt lat="28.06821647832875" lon="-11.361032524387253"><ele>59.0</ele><time>2026-04-29T09:52:17Z</time></trkpt><trkpt lat="28.06795358887616" lon="-11.361097425488117"><ele>59.0</ele><time>2026-04-29T09:52:18Z</time></trkpt><trkpt lat="28.067693395290505" lon="-11.361161890781888"><ele>59.0</ele><time>2026-04-29T09:52:19Z</time></trkpt><trkpt lat="28.06743221384041" lon="-11.361228045241178"><ele>60.5</ele><time>2026-04-29T09:52:20Z</time></trkpt><trkpt lat="28.06716904510751" lon="-11.361293685672367"><ele>62.0</ele><time>2026-04-29T09:52:21Z</time></trkpt><trkpt lat="28.066911276254316" lon="-11.361355452158888"><ele>61.5</ele><time>2026-04-29T09:52:22Z</time></trkpt><trkpt lat="28.066650924208385" lon="-11.361418723475735"><ele>61.0</ele><time>2026-04-29T09:52:23Z</time></trkpt><trkpt lat="28.066394755990764" lon="-11.361479720543725"><ele>61.0</ele><time>2026-04-29T09:52:24Z</time></trkpt><trkpt lat="28.0661657951688" lon="-11.361537681836868"><ele>61.0</ele><time>2026-04-29T09:52:25Z</time></trkpt><trkpt lat="28.065957090653335" lon="-11.361589073155415"><ele>61.0</ele><time>2026-04-29T09:52:26Z</time></trkpt><trkpt lat="28.06576471490912" lon="-11.361637650638842"><ele>61.5</ele><time>2026-04-29T09:52:27Z</time></trkpt><trkpt lat="28.065596898156198" lon="-11.361680050049857"><ele>62.0</ele><time>2026-04-29T09:52:28Z</time></trkpt><trkpt lat="28.065454802639145" lon="-11.36171491566718"><ele>62.5</ele><time>2026-04-29T09:52:29Z</time></trkpt><trkpt lat="28.065329431476552" lon="-11.361748467988061"><ele>63.0</ele><time>2026-04-29T09:52:30Z</time></trkpt><trkpt lat="28.065223476953207" lon="-11.361773752772558"><ele>63.0</ele><time>2026-04-29T09:52:31Z</time></trkpt><trkpt lat="28.065141152004692" lon="-11.361789674642962"><ele>63.0</ele><time>2026-04-29T09:52:32Z</time></trkpt><trkpt lat="28.065072957995117" lon="-11.361803720167496"><ele>63.0</ele><time>2026-04-29T09:52:33Z</time></trkpt><trkpt lat="28.06499997826531" lon="-11.361816180928788"><ele>63.0</ele><time>2026-04-29T09:52:35Z</time></trkpt><trkpt lat="28.064930095525384" lon="-11.361829282471762"><ele>63.0</ele><time>2026-04-29T09:52:38Z</time></trkpt><trkpt lat="28.064867449365785" lon="-11.36184794261093"><ele>63.0</ele><time>2026-04-29T09:52:54Z</time></trkpt><trkpt lat="28.06477963644766" lon="-11.36188442131165"><ele>63.2</ele><time>2026-04-29T09:55:18Z</time></trkpt><trkpt lat="28.06468270335029" lon="-11.361920779702558"><ele>63.4</ele><time>2026-04-29T09:55:20Z</time></trkpt><trkpt lat="28.064610581832387" lon="-11.361953669695549"><ele>63.60000000000001</ele><time>2026-04-29T09:55:21Z</time></trkpt><trkpt lat="28.064526649321692" lon="-11.361956208722026"><ele>63.800000000000004</ele><time>2026-04-29T09:55:22Z</time></trkpt><trkpt lat="28.06443013632335" lon="-11.361960277686943"><ele>64.0</ele><time>2026-04-29T09:55:23Z</time></trkpt><trkpt lat="28.064330724682442" lon="-11.361964468856137"><ele>64.0</ele><time>2026-04-29T09:55:24Z</time></trkpt><trkpt lat="28.06422883752536" lon="-11.361968764395913"><ele>64.0</ele><time>2026-04-29T09:55:25Z</time></trkpt><trkpt lat="28.06413540950377" lon="-11.361972703296985"><ele>64.0</ele><time>2026-04-29T09:55:26Z</time></trkpt><trkpt lat="28.064057468848112" lon="-11.361975989256173"><ele>64.0</ele><time>2026-04-29T09:55:27Z</time></trkpt><trkpt lat="28.063975214159548" lon="-11.361982334173316"><ele>64.0</ele><time>2026-04-29T09:55:29Z</time></trkpt><trkpt lat="28.063891115609213" lon="-11.362572475614778"><ele>63.800000000000004</ele><time>2026-04-29T09:55:30Z</time></trkpt><trkpt lat="28.063867449354774" lon="-11.362713805517991"><ele>63.60000000000001</ele><time>2026-04-29T09:55:31Z</time></trkpt><trkpt lat="28.063856115838814" lon="-11.362824528095667"><ele>63.4</ele><time>2026-04-29T09:55:32Z</time></trkpt><trkpt lat="28.063851275885337" lon="-11.36293254892463"><ele>63.2</ele><time>2026-04-29T09:55:33Z</time></trkpt><trkpt lat="28.06385877036438" lon="-11.36307274453485"><ele>63.0</ele><time>2026-04-29T09:55:34Z</time></trkpt><trkpt lat="28.063872150703432" lon="-11.363220299560579"><ele>62.25</ele><time>2026-04-29T09:55:35Z</time></trkpt><trkpt lat="28.06386384934446" lon="-11.36335442248877"><ele>61.5</ele><time>2026-04-29T09:55:36Z</time></trkpt><trkpt lat="28.063834138702237" lon="-11.363480526577755"><ele>60.75</ele><time>2026-04-29T09:55:37Z</time></trkpt><trkpt lat="28.063809312510003" lon="-11.363616040606773"><ele>60.0</ele><time>2026-04-29T09:55:38Z</time></trkpt><trkpt lat="28.063800559062784" lon="-11.363750701097269"><ele>59.25</ele><time>2026-04-29T09:55:39Z</time></trkpt><trkpt lat="28.06379923192406" lon="-11.363892467408965"><ele>58.5</ele><time>2026-04-29T09:55:40Z</time></trkpt><trkpt lat="28.063809956520373" lon="-11.364017115055317"><ele>57.75</ele><time>2026-04-29T09:55:41Z</time></trkpt><trkpt lat="28.063830218085364" lon="-11.364141198262363"><ele>57.0</ele><time>2026-04-29T09:55:42Z</time></trkpt><trkpt lat="28.063848579857453" lon="-11.364270558569112"><ele>57.0</ele><time>2026-04-29T09:55:43Z</time></trkpt><trkpt lat="28.06386488217251" lon="-11.364401049138031"><ele>57.0</ele><time>2026-04-29T09:55:44Z</time></trkpt><trkpt lat="28.063871650952002" lon="-11.364542460102264"><ele>57.0</ele><time>2026-04-29T09:55:45Z</time></trkpt><trkpt lat="28.06386915058179" lon="-11.364692980643941"><ele>57.0</ele><time>2026-04-29T09:55:46Z</time></trkpt><trkpt lat="28.063846827779944" lon="-11.364831232096671"><ele>58.66666666666667</ele><time>2026-04-29T09:55:47Z</time></trkpt><trkpt lat="28.06380434399122" lon="-11.364989318031132"><ele>60.333333333333336</ele><time>2026-04-29T09:55:48Z</time></trkpt><trkpt lat="28.063736431969907" lon="-11.365151513475988"><ele>62.0</ele><time>2026-04-29T09:55:49Z</time></trkpt><trkpt lat="28.0636458497345" lon="-11.365317787414458"><ele>62.0</ele><time>2026-04-29T09:55:50Z</time></trkpt><trkpt lat="28.063567011575643" lon="-11.365472798927229"><ele>62.0</ele><time>2026-04-29T09:55:51Z</time></trkpt><trkpt lat="28.06351089823164" lon="-11.365607121774818"><ele>62.0</ele><time>2026-04-29T09:55:52Z</time></trkpt><trkpt lat="28.06346428257782" lon="-11.365748965053676"><ele>62.0</ele><time>2026-04-29T09:55:53Z</time></trkpt><trkpt lat="28.063425974275667" lon="-11.365892761073914"><ele>62.0</ele><time>2026-04-29T09:55:54Z</time></trkpt><trkpt lat="28.063389589305164" lon="-11.36603423724797"><ele>62.0</ele><time>2026-04-29T09:55:55Z</time></trkpt><trkpt lat="28.063346200323092" lon="-11.366175283604074"><ele>62.0</ele><time>2026-04-29T09:55:56Z</time></trkpt><trkpt lat="28.06329438602816" lon="-11.366316548356894"><ele>62.0</ele><time>2026-04-29T09:55:57Z</time></trkpt><trkpt lat="28.06323520388414" lon="-11.36644459182353"><ele>60.5</ele><time>2026-04-29T09:55:58Z</time></trkpt><trkpt lat="28.063168889878803" lon="-11.36656271078903"><ele>59.0</ele><time>2026-04-29T09:55:59Z</time></trkpt><trkpt lat="28.063104680351426" lon="-11.366672228666527"><ele>57.5</ele><time>2026-04-29T09:56:00Z</time></trkpt><trkpt lat="28.06302872472319" lon="-11.366770009923778"><ele>56.0</ele><time>2026-04-29T09:56:01Z</time></trkpt><trkpt lat="28.06295444685501" lon="-11.366866749844949"><ele>56.0</ele><time>2026-04-29T09:56:02Z</time></trkpt><trkpt lat="28.062879785497312" lon="-11.366956916278198"><ele>55.99999999999999</ele><time>2026-04-29T09:56:03Z</time></trkpt><trkpt lat="28.06280255988567" lon="-11.36701437331752"><ele>55.99999999999999</ele><time>2026-04-29T09:56:04Z</time></trkpt><trkpt lat="28.062701744913326" lon="-11.367052920386168"><ele>56.0</ele><time>2026-04-29T09:56:05Z</time></trkpt><trkpt lat="28.062582261063394" lon="-11.367081652388814"><ele>56.0</ele><time>2026-04-29T09:56:06Z</time></trkpt><trkpt lat="28.062447752061548" lon="-11.367108771676069"><ele>57.0</ele><time>2026-04-29T09:56:07Z</time></trkpt><trkpt lat="28.06232025982651" lon="-11.367141989328005"><ele>58.0</ele><time>2026-04-29T09:56:08Z</time></trkpt><trkpt lat="28.062186964776163" lon="-11.367173327645288"><ele>59.0</ele><time>2026-04-29T09:56:09Z</time></trkpt><trkpt lat="28.062037797096757" lon="-11.367204706438345"><ele>60.0</ele><time>2026-04-29T09:56:10Z</time></trkpt><trkpt lat="28.061889392446695" lon="-11.367239682733723"><ele>60.0</ele><time>2026-04-29T09:56:11Z</time></trkpt><trkpt lat="28.061744855064582" lon="-11.367282341793345"><ele>60.0</ele><time>2026-04-29T09:56:12Z</time></trkpt><trkpt lat="28.061612210105707" lon="-11.367333472650266"><ele>60.0</ele><time>2026-04-29T09:56:13Z</time></trkpt><trkpt lat="28.061475756403276" lon="-11.367392947407614"><ele>60.0</ele><time>2026-04-29T09:56:14Z</time></trkpt><trkpt lat="28.061335818542567" lon="-11.367456471528365"><ele>60.0</ele><time>2026-04-29T09:56:15Z</time></trkpt><trkpt lat="28.06118856861574" lon="-11.367523259275284"><ele>60.0</ele><time>2026-04-29T09:56:16Z</time></trkpt><trkpt lat="28.061027060386397" lon="-11.36759502805196"><ele>60.0</ele><time>2026-04-29T09:56:17Z</time></trkpt><trkpt lat="28.060872430892157" lon="-11.36766729753522"><ele>60.66666666666667</ele><time>2026-04-29T09:56:18Z</time></trkpt><trkpt lat="28.06071364083802" lon="-11.367737554752225"><ele>61.333333333333336</ele><time>2026-04-29T09:56:19Z</time></trkpt><trkpt lat="28.0605517957772" lon="-11.367811004082528"><ele>62.0</ele><time>2026-04-29T09:56:20Z</time></trkpt><trkpt lat="28.060399495293147" lon="-11.36788051265228"><ele>62.0</ele><time>2026-04-29T09:56:21Z</time></trkpt><trkpt lat="28.060263101388447" lon="-11.36793130816913"><ele>62.0</ele><time>2026-04-29T09:56:22Z</time></trkpt><trkpt lat="28.06014342277307" lon="-11.367969218690762"><ele>62.0</ele><time>2026-04-29T09:56:23Z</time></trkpt><trkpt lat="28.060041579711605" lon="-11.368002983002135"><ele>62.0</ele><time>2026-04-29T09:56:24Z</time></trkpt><trkpt lat="28.059952534939594" lon="-11.368033206913445"><ele>61.8</ele><time>2026-04-29T09:56:25Z</time></trkpt><trkpt lat="28.059875329481205" lon="-11.368066949890894"><ele>61.6</ele><time>2026-04-29T09:56:26Z</time></trkpt><trkpt lat="28.05979700669427" lon="-11.368106193182866"><ele>61.39999999999999</ele><time>2026-04-29T09:56:27Z</time></trkpt><trkpt lat="28.059717777803115" lon="-11.368156361976283"><ele>61.199999999999996</ele><time>2026-04-29T09:56:28Z</time></trkpt><trkpt lat="28.059640889707662" lon="-11.368220627559463"><ele>61.0</ele><time>2026-04-29T09:56:29Z</time></trkpt><trkpt lat="28.059552835230242" lon="-11.368284110118353"><ele>61.0</ele><time>2026-04-29T09:56:30Z</time></trkpt><trkpt lat="28.059438946846775" lon="-11.368342467198758"><ele>61.0</ele><time>2026-04-29T09:56:31Z</time></trkpt><trkpt lat="28.059313454740337" lon="-11.368385278282874"><ele>61.0</ele><time>2026-04-29T09:56:32Z</time></trkpt><trkpt lat="28.059195801286013" lon="-11.368428822612083"><ele>61.0</ele><time>2026-04-29T09:56:33Z</time></trkpt><trkpt lat="28.05908078385775" lon="-11.368477599917512"><ele>61.4</ele><time>2026-04-29T09:56:34Z</time></trkpt><trkpt lat="28.058983876280596" lon="-11.368524400674675"><ele>61.8</ele><time>2026-04-29T09:56:35Z</time></trkpt><trkpt lat="28.058894188895568" lon="-11.368566460678764"><ele>62.199999999999996</ele><time>2026-04-29T09:56:36Z</time></trkpt><trkpt lat="28.058807152742272" lon="-11.36858989322668"><ele>62.599999999999994</ele><time>2026-04-29T09:56:37Z</time></trkpt><trkpt lat="28.05872786407814" lon="-11.368604264521693"><ele>63.0</ele><time>2026-04-29T09:56:38Z</time></trkpt><trkpt lat="28.058645296596474" lon="-11.368620552475885"><ele>63.0</ele><time>2026-04-29T09:56:39Z</time></trkpt><trkpt lat="28.058572818284727" lon="-11.368640908767649"><ele>63.0</ele><time>2026-04-29T09:56:40Z</time></trkpt><trkpt lat="28.05850809788106" lon="-11.368656103719688"><ele>63.0</ele><time>2026-04-29T09:56:41Z</time></trkpt><trkpt lat="28.058428601394606" lon="-11.368673687398935"><ele>63.0</ele><time>2026-04-29T09:56:42Z</time></trkpt><trkpt lat="28.05835170345808" lon="-11.368696709850711"><ele>63.0</ele><time>2026-04-29T09:56:43Z</time></trkpt><trkpt lat="28.05827718612002" lon="-11.368729014337802"><ele>63.0</ele><time>2026-04-29T09:56:44Z</time></trkpt><trkpt lat="28.058221116045413" lon="-11.368767768283295"><ele>63.0</ele><time>2026-04-29T09:56:45Z</time></trkpt><trkpt lat="28.058115724958018" lon="-11.368867073715524"><ele>63.0</ele><time>2026-04-29T09:56:47Z</time></trkpt><trkpt lat="28.058060796285144" lon="-11.368913495366819"><ele>63.0</ele><time>2026-04-29T09:56:48Z</time></trkpt><trkpt lat="28.05798651230387" lon="-11.369025285579212"><ele>63.0</ele><time>2026-04-29T09:56:50Z</time></trkpt><trkpt lat="28.057937984536572" lon="-11.369106010261453"><ele>63.0</ele><time>2026-04-29T09:56:51Z</time></trkpt><trkpt lat="28.057873718476902" lon="-11.369190509864936"><ele>63.0</ele><time>2026-04-29T09:56:52Z</time></trkpt><trkpt lat="28.057822478750207" lon="-11.36926128142835"><ele>63.0</ele><time>2026-04-29T09:56:53Z</time></trkpt><trkpt lat="28.057770394891726" lon="-11.369336238556937"><ele>63.0</ele><time>2026-04-29T09:56:54Z</time></trkpt><trkpt lat="28.057726586123692" lon="-11.369403174570712"><ele>63.0</ele><time>2026-04-29T09:56:55Z</time></trkpt><trkpt lat="28.05768521050356" lon="-11.369460594300937"><ele>63.0</ele><time>2026-04-29T09:56:56Z</time></trkpt><trkpt lat="28.05763288862429" lon="-11.369513074927365"><ele>63.0</ele><time>2026-04-29T09:56:57Z</time></trkpt><trkpt lat="28.05755010442946" lon="-11.369566781948683"><ele>63.0</ele><time>2026-04-29T09:56:58Z</time></trkpt><trkpt lat="28.05744877782485" lon="-11.36962816566715"><ele>62.75</ele><time>2026-04-29T09:56:59Z</time></trkpt><trkpt lat="28.057345662930718" lon="-11.369687209702803"><ele>62.5</ele><time>2026-04-29T09:57:00Z</time></trkpt><trkpt lat="28.057251720841837" lon="-11.369748512022593"><ele>62.25</ele><time>2026-04-29T09:57:01Z</time></trkpt><trkpt lat="28.057155701552777" lon="-11.369816018358494"><ele>62.0</ele><time>2026-04-29T09:57:02Z</time></trkpt><trkpt lat="28.057060776667647" lon="-11.369903166327735"><ele>61.75</ele><time>2026-04-29T09:57:03Z</time></trkpt><trkpt lat="28.056957580476517" lon="-11.370013606887923"><ele>61.5</ele><time>2026-04-29T09:57:04Z</time></trkpt><trkpt lat="28.056869554031984" lon="-11.370132296445952"><ele>61.25</ele><time>2026-04-29T09:57:05Z</time></trkpt><trkpt lat="28.056794792312402" lon="-11.370222727650255"><ele>61.0</ele><time>2026-04-29T09:57:06Z</time></trkpt><trkpt lat="28.056729189386807" lon="-11.370304016567538"><ele>60.99999999999999</ele><time>2026-04-29T09:57:07Z</time></trkpt><trkpt lat="28.056672934451164" lon="-11.37037017922107"><ele>61.0</ele><time>2026-04-29T09:57:08Z</time></trkpt><trkpt lat="28.056611385442356" lon="-11.370438989149614"><ele>61.0</ele><time>2026-04-29T09:57:09Z</time></trkpt><trkpt lat="28.056560402898004" lon="-11.370490084638993"><ele>61.0</ele><time>2026-04-29T09:57:10Z</time></trkpt><trkpt lat="28.056490065657187" lon="-11.370549409819871"><ele>60.99999999999999</ele><time>2026-04-29T09:57:12Z</time></trkpt><trkpt lat="28.056424842259123" lon="-11.370607420490769"><ele>61.0</ele><time>2026-04-29T09:57:15Z</time></trkpt><trkpt lat="28.0563721527705" lon="-11.37065219954111"><ele>61.199999999999996</ele><time>2026-04-29T09:57:18Z</time></trkpt><trkpt lat="28.056351847124628" lon="-11.370735605382462"><ele>61.39999999999999</ele><time>2026-04-29T09:57:21Z</time></trkpt><trkpt lat="28.056406411689274" lon="-11.370783689918161"><ele>61.6</ele><time>2026-04-29T09:57:24Z</time></trkpt><trkpt lat="28.056502989507948" lon="-11.370748665946714"><ele>61.8</ele><time>2026-04-29T09:57:26Z</time></trkpt><trkpt lat="28.056559865890815" lon="-11.370702918489776"><ele>62.0</ele><time>2026-04-29T09:57:27Z</time></trkpt><trkpt lat="28.056672686004653" lon="-11.370608161923077"><ele>62.0</ele><time>2026-04-29T09:57:29Z</time></trkpt><trkpt lat="28.0567369624378" lon="-11.37054725214362"><ele>62.0</ele><time>2026-04-29T09:57:30Z</time></trkpt><trkpt lat="28.056813589344156" lon="-11.370478591327373"><ele>62.0</ele><time>2026-04-29T09:57:31Z</time></trkpt><trkpt lat="28.05690368265856" lon="-11.37040158923976"><ele>62.0</ele><time>2026-04-29T09:57:32Z</time></trkpt><trkpt lat="28.056998157762116" lon="-11.370312592560483"><ele>62.0</ele><time>2026-04-29T09:57:33Z</time></trkpt><trkpt lat="28.057089297756843" lon="-11.370227426931416"><ele>61.75</ele><time>2026-04-29T09:57:34Z</time></trkpt><trkpt lat="28.05719128836567" lon="-11.3701395547554"><ele>61.5</ele><time>2026-04-29T09:57:35Z</time></trkpt><trkpt lat="28.057307088096376" lon="-11.370042188748693"><ele>61.25</ele><time>2026-04-29T09:57:36Z</time></trkpt><trkpt lat="28.057409581499286" lon="-11.369964728032537"><ele>61.0</ele><time>2026-04-29T09:57:37Z</time></trkpt><trkpt lat="28.057507160479975" lon="-11.369892327691893"><ele>61.4</ele><time>2026-04-29T09:57:38Z</time></trkpt><trkpt lat="28.057597248616194" lon="-11.369825398388267"><ele>61.8</ele><time>2026-04-29T09:57:39Z</time></trkpt><trkpt lat="28.057686960879096" lon="-11.369755132379746"><ele>62.199999999999996</ele><time>2026-04-29T09:57:40Z</time></trkpt><trkpt lat="28.057772728557016" lon="-11.369690419495956"><ele>62.599999999999994</ele><time>2026-04-29T09:57:41Z</time></trkpt><trkpt lat="28.057857578860528" lon="-11.36963434878068"><ele>63.0</ele><time>2026-04-29T09:57:42Z</time></trkpt><trkpt lat="28.05793742342638" lon="-11.3695785163022"><ele>63.0</ele><time>2026-04-29T09:57:43Z</time></trkpt><trkpt lat="28.057992130196265" lon="-11.369537503354307"><ele>63.0</ele><time>2026-04-29T09:57:44Z</time></trkpt><trkpt lat="28.058050197511086" lon="-11.36948369835226"><ele>63.0</ele><time>2026-04-29T09:57:45Z</time></trkpt><trkpt lat="28.05812431929236" lon="-11.369409012305539"><ele>63.0</ele><time>2026-04-29T09:57:46Z</time></trkpt><trkpt lat="28.058186125553643" lon="-11.369345525846265"><ele>63.0</ele><time>2026-04-29T09:57:47Z</time></trkpt><trkpt lat="28.058240687777012" lon="-11.369289687927822"><ele>63.0</ele><time>2026-04-29T09:57:48Z</time></trkpt><trkpt lat="28.05828999294565" lon="-11.369238882056395"><ele>63.0</ele><time>2026-04-29T09:57:49Z</time></trkpt><trkpt lat="28.058361670978357" lon="-11.369147634545085"><ele>63.0</ele><time>2026-04-29T09:57:51Z</time></trkpt><trkpt lat="28.05842780943801" lon="-11.369041324214122"><ele>63.0</ele><time>2026-04-29T09:57:53Z</time></trkpt><trkpt lat="28.05852597931557" lon="-11.368944216533347"><ele>63.0</ele><time>2026-04-29T09:57:55Z</time></trkpt><trkpt lat="28.058592226260785" lon="-11.368903071689854"><ele>63.0</ele><time>2026-04-29T09:57:56Z</time></trkpt><trkpt lat="28.05870316582115" lon="-11.368821293699353"><ele>63.0</ele><time>2026-04-29T09:57:58Z</time></trkpt><trkpt lat="28.05875686304748" lon="-11.368768350336815"><ele>63.0</ele><time>2026-04-29T09:57:59Z</time></trkpt><trkpt lat="28.058811829857316" lon="-11.368729605106493"><ele>63.0</ele><time>2026-04-29T09:58:00Z</time></trkpt><trkpt lat="28.05886936829292" lon="-11.368695776893295"><ele>63.0</ele><time>2026-04-29T09:58:01Z</time></trkpt><trkpt lat="28.058982264428984" lon="-11.368614342444088"><ele>63.0</ele><time>2026-04-29T09:58:03Z</time></trkpt><trkpt lat="28.05908118810704" lon="-11.368547638822424"><ele>62.599999999999994</ele><time>2026-04-29T09:58:04Z</time></trkpt><trkpt lat="28.059190487296636" lon="-11.368489760974207"><ele>62.199999999999996</ele><time>2026-04-29T09:58:05Z</time></trkpt><trkpt lat="28.059278077234723" lon="-11.368441749608172"><ele>61.8</ele><time>2026-04-29T09:58:06Z</time></trkpt><trkpt lat="28.059353848846836" lon="-11.368403330575974"><ele>61.4</ele><time>2026-04-29T09:58:07Z</time></trkpt><trkpt lat="28.05942016562418" lon="-11.36837079729277"><ele>61.0</ele><time>2026-04-29T09:58:08Z</time></trkpt><trkpt lat="28.059503509553302" lon="-11.368328499321137"><ele>61.0</ele><time>2026-04-29T09:58:10Z</time></trkpt><trkpt lat="28.05957391204236" lon="-11.36830311588476"><ele>60.99999999999999</ele><time>2026-04-29T10:03:35Z</time></trkpt><trkpt lat="28.059650048566546" lon="-11.368380592079047"><ele>60.99999999999999</ele><time>2026-04-29T10:03:37Z</time></trkpt><trkpt lat="28.059679318095768" lon="-11.368466676003095"><ele>61.0</ele><time>2026-04-29T10:03:38Z</time></trkpt><trkpt lat="28.059690693029168" lon="-11.368602975908823"><ele>61.0</ele><time>2026-04-29T10:03:39Z</time></trkpt><trkpt lat="28.05968040908085" lon="-11.368766279249432"><ele>61.8</ele><time>2026-04-29T10:03:40Z</time></trkpt><trkpt lat="28.059662202850788" lon="-11.368880086154759"><ele>62.599999999999994</ele><time>2026-04-29T10:03:41Z</time></trkpt><trkpt lat="28.059649989951843" lon="-11.368956783273603"><ele>63.4</ele><time>2026-04-29T10:03:42Z</time></trkpt><trkpt lat="28.059628890915253" lon="-11.369059999860056"><ele>64.2</ele><time>2026-04-29T10:03:44Z</time></trkpt><trkpt lat="28.05956769253292" lon="-11.369120210516726"><ele>65.0</ele><time>2026-04-29T10:03:46Z</time></trkpt><trkpt lat="28.059448020696472" lon="-11.36915579881414"><ele>65.0</ele><time>2026-04-29T10:03:48Z</time></trkpt><trkpt lat="28.059371780366263" lon="-11.36916127709252"><ele>65.0</ele><time>2026-04-29T10:03:49Z</time></trkpt><trkpt lat="28.059305592695605" lon="-11.369168899010203"><ele>65.0</ele><time>2026-04-29T10:03:50Z</time></trkpt><trkpt lat="28.05918792646618" lon="-11.369161525852235"><ele>65.0</ele><time>2026-04-29T10:03:52Z</time></trkpt><trkpt lat="28.059099594017642" lon="-11.369160948008608"><ele>65.0</ele><time>2026-04-29T10:03:54Z</time></trkpt><trkpt lat="28.0590359601964" lon="-11.369139653987384"><ele>65.0</ele><time>2026-04-29T10:03:55Z</time></trkpt><trkpt lat="28.058965161314713" lon="-11.369110766630458"><ele>64.4</ele><time>2026-04-29T10:03:56Z</time></trkpt><trkpt lat="28.05887006234076" lon="-11.369071953522647"><ele>63.8</ele><time>2026-04-29T10:03:58Z</time></trkpt><trkpt lat="28.058778220137683" lon="-11.36904907872973"><ele>63.2</ele><time>2026-04-29T10:04:00Z</time></trkpt><trkpt lat="28.0587007382698" lon="-11.369032173328183"><ele>62.6</ele><time>2026-04-29T10:04:01Z</time></trkpt><trkpt lat="28.05859374394478" lon="-11.369025786812848"><ele>62.0</ele><time>2026-04-29T10:04:03Z</time></trkpt><trkpt lat="28.05848704194501" lon="-11.369033556734925"><ele>62.00000000000001</ele><time>2026-04-29T10:04:05Z</time></trkpt><trkpt lat="28.058395359520407" lon="-11.369011669206817"><ele>62.0</ele><time>2026-04-29T10:04:07Z</time></trkpt><trkpt lat="28.05833038569592" lon="-11.368997981816262"><ele>62.0</ele><time>2026-04-29T10:04:09Z</time></trkpt><trkpt lat="28.058258696022463" lon="-11.369026189125467"><ele>62.0</ele><time>2026-04-29T10:04:12Z</time></trkpt><trkpt lat="28.05818349963536" lon="-11.369051888543538"><ele>62.00000000000001</ele><time>2026-04-29T10:06:29Z</time></trkpt><trkpt lat="28.05809542405621" lon="-11.36911080643234"><ele>62.0</ele><time>2026-04-29T10:06:31Z</time></trkpt><trkpt lat="28.058036760614787" lon="-11.369144961785711"><ele>62.2</ele><time>2026-04-29T10:06:32Z</time></trkpt><trkpt lat="28.05795807726415" lon="-11.369191757370574"><ele>62.400000000000006</ele><time>2026-04-29T10:06:33Z</time></trkpt><trkpt lat="28.057872218871488" lon="-11.369250045889034"><ele>62.599999999999994</ele><time>2026-04-29T10:06:34Z</time></trkpt><trkpt lat="28.057779601027402" lon="-11.369314536194652"><ele>62.8</ele><time>2026-04-29T10:06:35Z</time></trkpt><trkpt lat="28.05768143566398" lon="-11.369382426582053"><ele>63.0</ele><time>2026-04-29T10:06:36Z</time></trkpt><trkpt lat="28.05757526381772" lon="-11.36945740124945"><ele>63.0</ele><time>2026-04-29T10:06:37Z</time></trkpt><trkpt lat="28.05746014229963" lon="-11.36954324602499"><ele>63.0</ele><time>2026-04-29T10:06:38Z</time></trkpt><trkpt lat="28.05733205132947" lon="-11.369636012307522"><ele>63.0</ele><time>2026-04-29T10:06:39Z</time></trkpt><trkpt lat="28.05719215106993" lon="-11.369750775201547"><ele>62.5</ele><time>2026-04-29T10:06:40Z</time></trkpt><trkpt lat="28.05707315021954" lon="-11.369867284858229"><ele>62.0</ele><time>2026-04-29T10:06:41Z</time></trkpt><trkpt lat="28.056980757302036" lon="-11.369966560703178"><ele>61.5</ele><time>2026-04-29T10:06:42Z</time></trkpt><trkpt lat="28.05689565701127" lon="-11.370058584639597"><ele>61.0</ele><time>2026-04-29T10:06:43Z</time></trkpt><trkpt lat="28.0568166981409" lon="-11.370132641900698"><ele>60.99999999999999</ele><time>2026-04-29T10:06:44Z</time></trkpt><trkpt lat="28.056743495769123" lon="-11.370193178215077"><ele>61.0</ele><time>2026-04-29T10:06:45Z</time></trkpt><trkpt lat="28.056678633920868" lon="-11.370241010114382"><ele>61.0</ele><time>2026-04-29T10:06:46Z</time></trkpt><trkpt lat="28.056598437717398" lon="-11.37030269470944"><ele>61.0</ele><time>2026-04-29T10:06:48Z</time></trkpt><trkpt lat="28.056522367205485" lon="-11.370325302138522"><ele>60.99999999999999</ele><time>2026-04-29T10:06:51Z</time></trkpt><trkpt lat="28.056469824357933" lon="-11.37036508631352"><ele>61.0</ele><time>2026-04-29T10:06:52Z</time></trkpt><trkpt lat="28.05640353343228" lon="-11.370437552428388"><ele>61.4</ele><time>2026-04-29T10:06:53Z</time></trkpt><trkpt lat="28.056337255361345" lon="-11.370535218846907"><ele>61.8</ele><time>2026-04-29T10:06:54Z</time></trkpt><trkpt lat="28.056276303244484" lon="-11.370638774060744"><ele>62.199999999999996</ele><time>2026-04-29T10:06:55Z</time></trkpt><trkpt lat="28.056210345475726" lon="-11.370734499004548"><ele>62.599999999999994</ele><time>2026-04-29T10:06:56Z</time></trkpt><trkpt lat="28.056150239346774" lon="-11.370827259418103"><ele>63.0</ele><time>2026-04-29T10:06:57Z</time></trkpt><trkpt lat="28.056104759336417" lon="-11.370934762537924"><ele>63.0</ele><time>2026-04-29T10:06:58Z</time></trkpt><trkpt lat="28.056079686463328" lon="-11.371035903187325"><ele>63.0</ele><time>2026-04-29T10:06:59Z</time></trkpt><trkpt lat="28.05608030976233" lon="-11.371149857328684"><ele>63.0</ele><time>2026-04-29T10:07:00Z</time></trkpt><trkpt lat="28.0561109917706" lon="-11.371289502943547"><ele>63.0</ele><time>2026-04-29T10:07:01Z</time></trkpt><trkpt lat="28.056161188865058" lon="-11.371441257934078"><ele>63.5</ele><time>2026-04-29T10:07:02Z</time></trkpt><trkpt lat="28.05621582221581" lon="-11.371572990519597"><ele>64.0</ele><time>2026-04-29T10:07:03Z</time></trkpt><trkpt lat="28.056283476415135" lon="-11.371708898654878"><ele>64.5</ele><time>2026-04-29T10:07:04Z</time></trkpt><trkpt lat="28.056366237028932" lon="-11.371870576421239"><ele>65.0</ele><time>2026-04-29T10:07:05Z</time></trkpt><trkpt lat="28.05644549662371" lon="-11.372030423882578"><ele>65.0</ele><time>2026-04-29T10:07:06Z</time></trkpt><trkpt lat="28.05651969164892" lon="-11.372189543510451"><ele>65.0</ele><time>2026-04-29T10:07:07Z</time></trkpt><trkpt lat="28.05659099129428" lon="-11.37235148148007"><ele>65.0</ele><time>2026-04-29T10:07:08Z</time></trkpt><trkpt lat="28.056656920763235" lon="-11.372526049981767"><ele>65.0</ele><time>2026-04-29T10:07:09Z</time></trkpt><trkpt lat="28.056714946203183" lon="-11.37269087661332"><ele>65.0</ele><time>2026-04-29T10:07:10Z</time></trkpt><trkpt lat="28.056754214569914" lon="-11.372835510453875"><ele>65.0</ele><time>2026-04-29T10:07:11Z</time></trkpt><trkpt lat="28.056788273726244" lon="-11.372976105600044"><ele>65.0</ele><time>2026-04-29T10:07:12Z</time></trkpt><trkpt lat="28.056819233079413" lon="-11.373139171084684"><ele>65.0</ele><time>2026-04-29T10:07:13Z</time></trkpt><trkpt lat="28.056853499768728" lon="-11.373329331903252"><ele>65.0</ele><time>2026-04-29T10:07:14Z</time></trkpt><trkpt lat="28.05688590294431" lon="-11.373501627337522"><ele>65.0</ele><time>2026-04-29T10:07:15Z</time></trkpt><trkpt lat="28.0569072528219" lon="-11.373661793190482"><ele>65.0</ele><time>2026-04-29T10:07:16Z</time></trkpt><trkpt lat="28.056926932669068" lon="-11.373811796352555"><ele>65.0</ele><time>2026-04-29T10:07:17Z</time></trkpt><trkpt lat="28.05694238465165" lon="-11.373947305844009"><ele>65.0</ele><time>2026-04-29T10:07:18Z</time></trkpt><trkpt lat="28.05695482725362" lon="-11.374072703550272"><ele>65.0</ele><time>2026-04-29T10:07:19Z</time></trkpt><trkpt lat="28.05696710068246" lon="-11.374202725031989"><ele>64.25</ele><time>2026-04-29T10:07:20Z</time></trkpt><trkpt lat="28.056975232402984" lon="-11.374324969517271"><ele>63.5</ele><time>2026-04-29T10:07:21Z</time></trkpt><trkpt lat="28.05696693421731" lon="-11.374442612815287"><ele>62.75</ele><time>2026-04-29T10:07:22Z</time></trkpt><trkpt lat="28.05694931781972" lon="-11.374569214467725"><ele>62.0</ele><time>2026-04-29T10:07:23Z</time></trkpt><trkpt lat="28.056907737469682" lon="-11.374715092614714"><ele>62.0</ele><time>2026-04-29T10:07:24Z</time></trkpt><trkpt lat="28.056864348340245" lon="-11.374866898409817"><ele>62.0</ele><time>2026-04-29T10:07:25Z</time></trkpt><trkpt lat="28.056819934781302" lon="-11.37498951679937"><ele>62.0</ele><time>2026-04-29T10:07:26Z</time></trkpt><trkpt lat="28.056765892293317" lon="-11.375097527812567"><ele>62.0</ele><time>2026-04-29T10:07:27Z</time></trkpt><trkpt lat="28.05670310753784" lon="-11.375221365900742"><ele>62.0</ele><time>2026-04-29T10:07:28Z</time></trkpt><trkpt lat="28.05664953402749" lon="-11.375329555126207"><ele>62.0</ele><time>2026-04-29T10:07:29Z</time></trkpt><trkpt lat="28.056608766688264" lon="-11.375426316462212"><ele>62.0</ele><time>2026-04-29T10:07:30Z</time></trkpt><trkpt lat="28.056568490999418" lon="-11.375516909673356"><ele>62.0</ele><time>2026-04-29T10:07:31Z</time></trkpt><trkpt lat="28.05651169978779" lon="-11.375616408469813"><ele>62.0</ele><time>2026-04-29T10:07:32Z</time></trkpt><trkpt lat="28.056448097885063" lon="-11.375713572245484"><ele>61.400000000000006</ele><time>2026-04-29T10:07:33Z</time></trkpt><trkpt lat="28.056376012756942" lon="-11.375817170583275"><ele>60.800000000000004</ele><time>2026-04-29T10:07:34Z</time></trkpt><trkpt lat="28.056311346263474" lon="-11.37591988860564"><ele>60.2</ele><time>2026-04-29T10:07:35Z</time></trkpt><trkpt lat="28.05625243093297" lon="-11.376020715265934"><ele>59.6</ele><time>2026-04-29T10:07:36Z</time></trkpt><trkpt lat="28.05620049359108" lon="-11.37611318343098"><ele>59.0</ele><time>2026-04-29T10:07:37Z</time></trkpt><trkpt lat="28.056153884088793" lon="-11.37620704134653"><ele>59.0</ele><time>2026-04-29T10:07:38Z</time></trkpt><trkpt lat="28.056116157499414" lon="-11.37630374940509"><ele>59.00000000000001</ele><time>2026-04-29T10:07:39Z</time></trkpt><trkpt lat="28.056081813475362" lon="-11.37640395827124"><ele>59.00000000000001</ele><time>2026-04-29T10:07:40Z</time></trkpt><trkpt lat="28.056045542909796" lon="-11.376514009174635"><ele>59.0</ele><time>2026-04-29T10:07:41Z</time></trkpt><trkpt lat="28.056011939810706" lon="-11.376627092073692"><ele>59.0</ele><time>2026-04-29T10:07:42Z</time></trkpt><trkpt lat="28.05598428668163" lon="-11.37673703250522"><ele>59.2</ele><time>2026-04-29T10:07:43Z</time></trkpt><trkpt lat="28.05596897084924" lon="-11.376852776257262"><ele>59.400000000000006</ele><time>2026-04-29T10:07:44Z</time></trkpt><trkpt lat="28.055953109725547" lon="-11.37696393199794"><ele>59.6</ele><time>2026-04-29T10:07:45Z</time></trkpt><trkpt lat="28.055931087104515" lon="-11.377075765323546"><ele>59.8</ele><time>2026-04-29T10:07:46Z</time></trkpt><trkpt lat="28.055898067010588" lon="-11.37718479516975"><ele>60.0</ele><time>2026-04-29T10:07:47Z</time></trkpt><trkpt lat="28.055873900985407" lon="-11.377299513672007"><ele>60.2</ele><time>2026-04-29T10:07:48Z</time></trkpt><trkpt lat="28.055848428366296" lon="-11.377412030943045"><ele>60.4</ele><time>2026-04-29T10:07:49Z</time></trkpt><trkpt lat="28.0558053998805" lon="-11.377545541113129"><ele>60.599999999999994</ele><time>2026-04-29T10:07:50Z</time></trkpt><trkpt lat="28.05577282585092" lon="-11.377659086247192"><ele>60.8</ele><time>2026-04-29T10:07:51Z</time></trkpt><trkpt lat="28.05575294972809" lon="-11.37776809508334"><ele>61.0</ele><time>2026-04-29T10:07:52Z</time></trkpt><trkpt lat="28.055743820014225" lon="-11.37787516303371"><ele>61.4</ele><time>2026-04-29T10:07:53Z</time></trkpt><trkpt lat="28.055733561414062" lon="-11.377977199315197"><ele>61.8</ele><time>2026-04-29T10:07:54Z</time></trkpt><trkpt lat="28.055711604096487" lon="-11.378085195461075"><ele>62.199999999999996</ele><time>2026-04-29T10:07:55Z</time></trkpt><trkpt lat="28.055678158762323" lon="-11.378184139153191"><ele>62.599999999999994</ele><time>2026-04-29T10:07:56Z</time></trkpt><trkpt lat="28.05563707270298" lon="-11.378278542924948"><ele>63.0</ele><time>2026-04-29T10:07:57Z</time></trkpt><trkpt lat="28.055609778685326" lon="-11.378374716034536"><ele>63.0</ele><time>2026-04-29T10:07:58Z</time></trkpt><trkpt lat="28.05558896532165" lon="-11.378472520257686"><ele>63.0</ele><time>2026-04-29T10:07:59Z</time></trkpt><trkpt lat="28.055557304411632" lon="-11.378575317231116"><ele>63.0</ele><time>2026-04-29T10:08:00Z</time></trkpt><trkpt lat="28.055534223889406" lon="-11.378662884703392"><ele>63.0</ele><time>2026-04-29T10:08:01Z</time></trkpt><trkpt lat="28.05550913551903" lon="-11.378734755995097"><ele>63.0</ele><time>2026-04-29T10:08:02Z</time></trkpt><trkpt lat="28.055458262106345" lon="-11.37882910763642"><ele>63.0</ele><time>2026-04-29T10:08:04Z</time></trkpt><trkpt lat="28.055407309035306" lon="-11.378913130509659"><ele>62.599999999999994</ele><time>2026-04-29T10:08:06Z</time></trkpt><trkpt lat="28.055355550536483" lon="-11.379022346150869"><ele>62.199999999999996</ele><time>2026-04-29T10:08:08Z</time></trkpt><trkpt lat="28.055309997012614" lon="-11.379105454776717"><ele>61.8</ele><time>2026-04-29T10:08:10Z</time></trkpt><trkpt lat="28.055252823033296" lon="-11.379214797172548"><ele>61.4</ele><time>2026-04-29T10:08:12Z</time></trkpt><trkpt lat="28.055216897889544" lon="-11.379307292233628"><ele>61.0</ele><time>2026-04-29T10:08:14Z</time></trkpt><trkpt lat="28.055180822293256" lon="-11.379444607677199"><ele>61.0</ele><time>2026-04-29T10:08:16Z</time></trkpt><trkpt lat="28.055169375876456" lon="-11.37951639708963"><ele>60.99999999999999</ele><time>2026-04-29T10:08:17Z</time></trkpt><trkpt lat="28.055122534170337" lon="-11.379628871911839"><ele>60.99999999999999</ele><time>2026-04-29T10:08:19Z</time></trkpt><trkpt lat="28.05505713442046" lon="-11.37975136535679"><ele>61.0</ele><time>2026-04-29T10:08:21Z</time></trkpt><trkpt lat="28.055013573059615" lon="-11.379828798458597"><ele>61.0</ele><time>2026-04-29T10:08:22Z</time></trkpt><trkpt lat="28.05496426835106" lon="-11.379907400994002"><ele>61.49999999999999</ele><time>2026-04-29T10:08:23Z</time></trkpt><trkpt lat="28.054920429687122" lon="-11.379986441224736"><ele>62.0</ele><time>2026-04-29T10:08:24Z</time></trkpt><trkpt lat="28.054870240945217" lon="-11.380083097806589"><ele>62.5</ele><time>2026-04-29T10:08:25Z</time></trkpt><trkpt lat="28.05482325282904" lon="-11.380167743438106"><ele>63.0</ele><time>2026-04-29T10:08:26Z</time></trkpt><trkpt lat="28.054776057913482" lon="-11.38025105696217"><ele>63.49999999999999</ele><time>2026-04-29T10:08:27Z</time></trkpt><trkpt lat="28.054730853880567" lon="-11.380336487112555"><ele>64.0</ele><time>2026-04-29T10:08:28Z</time></trkpt><trkpt lat="28.054683371737788" lon="-11.380416897001917"><ele>64.0</ele><time>2026-04-29T10:08:29Z</time></trkpt><trkpt lat="28.0546530262462" lon="-11.380484410236878"><ele>64.0</ele><time>2026-04-29T10:08:30Z</time></trkpt><trkpt lat="28.054604219854735" lon="-11.380597887980464"><ele>64.0</ele><time>2026-04-29T10:08:32Z</time></trkpt><trkpt lat="28.054558128496428" lon="-11.380712782168386"><ele>64.0</ele><time>2026-04-29T10:08:34Z</time></trkpt><trkpt lat="28.05451229916939" lon="-11.380848173793796"><ele>64.0</ele><time>2026-04-29T10:08:36Z</time></trkpt><trkpt lat="28.054446916515587" lon="-11.38094334516448"><ele>63.800000000000004</ele><time>2026-04-29T10:08:38Z</time></trkpt><trkpt lat="28.054382673116706" lon="-11.381046023106624"><ele>63.60000000000001</ele><time>2026-04-29T10:08:40Z</time></trkpt><trkpt lat="28.054337020716925" lon="-11.381133791973358"><ele>63.4</ele><time>2026-04-29T10:08:42Z</time></trkpt><trkpt lat="28.0542807110686" lon="-11.381255962881184"><ele>63.2</ele><time>2026-04-29T10:08:44Z</time></trkpt><trkpt lat="28.054256925826365" lon="-11.38134432185396"><ele>63.0</ele><time>2026-04-29T10:08:45Z</time></trkpt><trkpt lat="28.054231592609444" lon="-11.381443601842918"><ele>63.0</ele><time>2026-04-29T10:08:46Z</time></trkpt><trkpt lat="28.054202961183908" lon="-11.381561772465284"><ele>63.0</ele><time>2026-04-29T10:08:47Z</time></trkpt><trkpt lat="28.054165978656798" lon="-11.381668412535344"><ele>63.0</ele><time>2026-04-29T10:08:48Z</time></trkpt><trkpt lat="28.054111458264746" lon="-11.381779730402455"><ele>63.0</ele><time>2026-04-29T10:08:49Z</time></trkpt><trkpt lat="28.054044292872977" lon="-11.381879515925545"><ele>63.0</ele><time>2026-04-29T10:08:50Z</time></trkpt><trkpt lat="28.053926080998053" lon="-11.381986233248616"><ele>63.0</ele><time>2026-04-29T10:08:51Z</time></trkpt><trkpt lat="28.053810084576636" lon="-11.382094065254241"><ele>63.0</ele><time>2026-04-29T10:08:52Z</time></trkpt><trkpt lat="28.053708631522426" lon="-11.382181304099358"><ele>63.0</ele><time>2026-04-29T10:08:53Z</time></trkpt><trkpt lat="28.053611095463676" lon="-11.38227421065171"><ele>63.0</ele><time>2026-04-29T10:08:54Z</time></trkpt><trkpt lat="28.05352551018922" lon="-11.382366315677885"><ele>63.2</ele><time>2026-04-29T10:08:55Z</time></trkpt><trkpt lat="28.053454664266898" lon="-11.382449275418852"><ele>63.4</ele><time>2026-04-29T10:08:56Z</time></trkpt><trkpt lat="28.05340395704502" lon="-11.382519138243449"><ele>63.60000000000001</ele><time>2026-04-29T10:08:57Z</time></trkpt><trkpt lat="28.053365053992284" lon="-11.38260326146256"><ele>63.800000000000004</ele><time>2026-04-29T10:08:58Z</time></trkpt><trkpt lat="28.053320672080726" lon="-11.382717171669952"><ele>64.0</ele><time>2026-04-29T10:08:59Z</time></trkpt><trkpt lat="28.05327230590106" lon="-11.382855499765597"><ele>64.0</ele><time>2026-04-29T10:09:00Z</time></trkpt><trkpt lat="28.053227825457512" lon="-11.382973447278285"><ele>64.0</ele><time>2026-04-29T10:09:01Z</time></trkpt><trkpt lat="28.05318584682214" lon="-11.383084904430937"><ele>64.0</ele><time>2026-04-29T10:09:02Z</time></trkpt><trkpt lat="28.053153118091192" lon="-11.383176248753394"><ele>64.0</ele><time>2026-04-29T10:09:03Z</time></trkpt><trkpt lat="28.053121531647598" lon="-11.383269976917175"><ele>64.0</ele><time>2026-04-29T10:09:04Z</time></trkpt><trkpt lat="28.05309301855916" lon="-11.383348592479066"><ele>63.800000000000004</ele><time>2026-04-29T10:09:05Z</time></trkpt><trkpt lat="28.05305166401069" lon="-11.383448916608355"><ele>63.60000000000001</ele><time>2026-04-29T10:09:06Z</time></trkpt><trkpt lat="28.053017557006957" lon="-11.383562109374527"><ele>63.4</ele><time>2026-04-29T10:09:07Z</time></trkpt><trkpt lat="28.053004969329535" lon="-11.38366522689755"><ele>63.2</ele><time>2026-04-29T10:09:08Z</time></trkpt><trkpt lat="28.05300736920022" lon="-11.383767463830845"><ele>63.0</ele><time>2026-04-29T10:09:09Z</time></trkpt><trkpt lat="28.053022535117975" lon="-11.383889793562716"><ele>63.5</ele><time>2026-04-29T10:09:10Z</time></trkpt><trkpt lat="28.053039711069296" lon="-11.384029153705951"><ele>64.0</ele><time>2026-04-29T10:09:11Z</time></trkpt><trkpt lat="28.05305064295407" lon="-11.384165980777562"><ele>64.5</ele><time>2026-04-29T10:09:12Z</time></trkpt><trkpt lat="28.053063050040993" lon="-11.384303787153424"><ele>65.0</ele><time>2026-04-29T10:09:13Z</time></trkpt><trkpt lat="28.05307133698813" lon="-11.384412884723135"><ele>65.0</ele><time>2026-04-29T10:09:14Z</time></trkpt><trkpt lat="28.053071394082835" lon="-11.384498881588183"><ele>65.0</ele><time>2026-04-29T10:09:15Z</time></trkpt><trkpt lat="28.05307699760064" lon="-11.384577301373291"><ele>65.0</ele><time>2026-04-29T10:09:16Z</time></trkpt><trkpt lat="28.053105009363634" lon="-11.384722782459521"><ele>65.0</ele><time>2026-04-29T10:09:18Z</time></trkpt><trkpt lat="28.05313306520273" lon="-11.384807302378936"><ele>65.0</ele><time>2026-04-29T10:09:19Z</time></trkpt><trkpt lat="28.05314904431985" lon="-11.384892724090681"><ele>65.0</ele><time>2026-04-29T10:09:20Z</time></trkpt><trkpt lat="28.053169807470976" lon="-11.385078441671599"><ele>65.6</ele><time>2026-04-29T10:09:22Z</time></trkpt><trkpt lat="28.053173356106296" lon="-11.38522140486417"><ele>66.2</ele><time>2026-04-29T10:09:23Z</time></trkpt><trkpt lat="28.053184048141325" lon="-11.385350931705682"><ele>66.8</ele><time>2026-04-29T10:09:24Z</time></trkpt><trkpt lat="28.053177940470427" lon="-11.385457909415688"><ele>67.4</ele><time>2026-04-29T10:09:25Z</time></trkpt><trkpt lat="28.053149544280885" lon="-11.385571490963901"><ele>68.0</ele><time>2026-04-29T10:09:26Z</time></trkpt><trkpt lat="28.053118211533658" lon="-11.385701946797322"><ele>68.75</ele><time>2026-04-29T10:09:27Z</time></trkpt><trkpt lat="28.05309944601718" lon="-11.385838164383644"><ele>69.5</ele><time>2026-04-29T10:09:28Z</time></trkpt><trkpt lat="28.05307857993062" lon="-11.385972357266049"><ele>70.25</ele><time>2026-04-29T10:09:29Z</time></trkpt><trkpt lat="28.053057501871248" lon="-11.386100116852834"><ele>71.0</ele><time>2026-04-29T10:09:30Z</time></trkpt><trkpt lat="28.053052032949623" lon="-11.3862091348618"><ele>71.0</ele><time>2026-04-29T10:09:31Z</time></trkpt><trkpt lat="28.053059253335736" lon="-11.38631158349957"><ele>71.0</ele><time>2026-04-29T10:09:32Z</time></trkpt><trkpt lat="28.053069767871182" lon="-11.386400809185432"><ele>71.0</ele><time>2026-04-29T10:09:33Z</time></trkpt><trkpt lat="28.053034226244094" lon="-11.386546555013192"><ele>71.0</ele><time>2026-04-29T10:09:35Z</time></trkpt><trkpt lat="28.052993638224137" lon="-11.386603827603945"><ele>71.0</ele><time>2026-04-29T10:09:36Z</time></trkpt><trkpt lat="28.052940390621586" lon="-11.386656825445172"><ele>71.0</ele><time>2026-04-29T10:09:37Z</time></trkpt><trkpt lat="28.052880026604605" lon="-11.386710551875879"><ele>71.2</ele><time>2026-04-29T10:09:38Z</time></trkpt><trkpt lat="28.052801067079635" lon="-11.38679606346871"><ele>71.39999999999999</ele><time>2026-04-29T10:09:40Z</time></trkpt><trkpt lat="28.052753383818832" lon="-11.386851251072493"><ele>71.6</ele><time>2026-04-29T10:09:52Z</time></trkpt><trkpt lat="28.05265696581394" lon="-11.38695851128796"><ele>71.8</ele><time>2026-04-29T10:09:54Z</time></trkpt><trkpt lat="28.05259154380265" lon="-11.387038077320636"><ele>72.0</ele><time>2026-04-29T10:09:55Z</time></trkpt><trkpt lat="28.052510303217048" lon="-11.387141107015479"><ele>72.75</ele><time>2026-04-29T10:09:56Z</time></trkpt><trkpt lat="28.052424605190524" lon="-11.387245814843117"><ele>73.5</ele><time>2026-04-29T10:09:57Z</time></trkpt><trkpt lat="28.052341818742875" lon="-11.387346949666554"><ele>74.25</ele><time>2026-04-29T10:09:58Z</time></trkpt><trkpt lat="28.052238935471138" lon="-11.387455998401647"><ele>75.0</ele><time>2026-04-29T10:09:59Z</time></trkpt><trkpt lat="28.052139657088876" lon="-11.387569105213581"><ele>75.0</ele><time>2026-04-29T10:10:00Z</time></trkpt><trkpt lat="28.052039870922552" lon="-11.387690098290342"><ele>75.0</ele><time>2026-04-29T10:10:01Z</time></trkpt><trkpt lat="28.051940442583234" lon="-11.387806443691588"><ele>75.0</ele><time>2026-04-29T10:10:02Z</time></trkpt><trkpt lat="28.051844271528264" lon="-11.387921472003152"><ele>75.0</ele><time>2026-04-29T10:10:03Z</time></trkpt><trkpt lat="28.051750345662825" lon="-11.388014601595652"><ele>75.0</ele><time>2026-04-29T10:10:04Z</time></trkpt><trkpt lat="28.05164810358142" lon="-11.38808928149894"><ele>75.0</ele><time>2026-04-29T10:10:05Z</time></trkpt><trkpt lat="28.051536009405332" lon="-11.388154606146008"><ele>75.0</ele><time>2026-04-29T10:10:06Z</time></trkpt><trkpt lat="28.051399471626336" lon="-11.388215060944692"><ele>75.0</ele><time>2026-04-29T10:10:07Z</time></trkpt><trkpt lat="28.051251702044183" lon="-11.388272948756317"><ele>75.0</ele><time>2026-04-29T10:10:08Z</time></trkpt><trkpt lat="28.05109198785175" lon="-11.388333246761446"><ele>75.0</ele><time>2026-04-29T10:10:09Z</time></trkpt><trkpt lat="28.050920836721055" lon="-11.388417458555846"><ele>75.0</ele><time>2026-04-29T10:10:10Z</time></trkpt><trkpt lat="28.05073989381091" lon="-11.388522424217475"><ele>76.0</ele><time>2026-04-29T10:10:11Z</time></trkpt><trkpt lat="28.050538375107926" lon="-11.388641105164924"><ele>77.0</ele><time>2026-04-29T10:10:12Z</time></trkpt><trkpt lat="28.05032465894271" lon="-11.38876366698706"><ele>76.33333333333334</ele><time>2026-04-29T10:10:13Z</time></trkpt><trkpt lat="28.05011153324108" lon="-11.388884868957016"><ele>75.66666666666667</ele><time>2026-04-29T10:10:14Z</time></trkpt><trkpt lat="28.049935140644116" lon="-11.388996833369667"><ele>75.0</ele><time>2026-04-29T10:10:15Z</time></trkpt><trkpt lat="28.049781304080682" lon="-11.38908714600069"><ele>74.75</ele><time>2026-04-29T10:10:16Z</time></trkpt><trkpt lat="28.049642472012938" lon="-11.389169206721895"><ele>74.5</ele><time>2026-04-29T10:10:17Z</time></trkpt><trkpt lat="28.049521240282207" lon="-11.389247140767862"><ele>74.25</ele><time>2026-04-29T10:10:18Z</time></trkpt><trkpt lat="28.04941439785358" lon="-11.389321047276908"><ele>74.0</ele><time>2026-04-29T10:10:19Z</time></trkpt><trkpt lat="28.049298713979013" lon="-11.389408732237467"><ele>74.0</ele><time>2026-04-29T10:10:20Z</time></trkpt><trkpt lat="28.049185208248243" lon="-11.389506944852714"><ele>74.0</ele><time>2026-04-29T10:10:21Z</time></trkpt><trkpt lat="28.049056570687018" lon="-11.389613676935088"><ele>74.0</ele><time>2026-04-29T10:10:22Z</time></trkpt><trkpt lat="28.0488957594075" lon="-11.38973588337656"><ele>74.66666666666667</ele><time>2026-04-29T10:10:23Z</time></trkpt><trkpt lat="28.048726967380585" lon="-11.389869361008307"><ele>75.33333333333333</ele><time>2026-04-29T10:10:24Z</time></trkpt><trkpt lat="28.048584817369573" lon="-11.38997673273924"><ele>76.0</ele><time>2026-04-29T10:10:25Z</time></trkpt><trkpt lat="28.048455275322826" lon="-11.390068213921072"><ele>76.0</ele><time>2026-04-29T10:10:26Z</time></trkpt><trkpt lat="28.04835052263321" lon="-11.390149328295536"><ele>76.0</ele><time>2026-04-29T10:10:27Z</time></trkpt><trkpt lat="28.048246952253937" lon="-11.39025080953929"><ele>76.0</ele><time>2026-04-29T10:10:28Z</time></trkpt><trkpt lat="28.048157382073043" lon="-11.39036642321548"><ele>76.0</ele><time>2026-04-29T10:10:29Z</time></trkpt><trkpt lat="28.048076475179077" lon="-11.390497068694376"><ele>75.66666666666666</ele><time>2026-04-29T10:10:30Z</time></trkpt><trkpt lat="28.047990877627235" lon="-11.390658274402657"><ele>75.33333333333333</ele><time>2026-04-29T10:10:31Z</time></trkpt><trkpt lat="28.047901947234028" lon="-11.390832111698858"><ele>75.0</ele><time>2026-04-29T10:10:32Z</time></trkpt><trkpt lat="28.047805798791064" lon="-11.39099166098718"><ele>75.0</ele><time>2026-04-29T10:10:33Z</time></trkpt><trkpt lat="28.047686580614915" lon="-11.391146488135137"><ele>75.0</ele><time>2026-04-29T10:10:34Z</time></trkpt><trkpt lat="28.04754135564917" lon="-11.391319389670949"><ele>75.0</ele><time>2026-04-29T10:10:35Z</time></trkpt><trkpt lat="28.047391903984604" lon="-11.391509244432507"><ele>75.0</ele><time>2026-04-29T10:10:36Z</time></trkpt><trkpt lat="28.047263309037586" lon="-11.391675597365106"><ele>75.0</ele><time>2026-04-29T10:10:37Z</time></trkpt><trkpt lat="28.04715396877306" lon="-11.391823100131514"><ele>75.0</ele><time>2026-04-29T10:10:38Z</time></trkpt><trkpt lat="28.047064852296046" lon="-11.39196172447747"><ele>75.0</ele><time>2026-04-29T10:10:39Z</time></trkpt><trkpt lat="28.0469928669343" lon="-11.392100778386508"><ele>75.0</ele><time>2026-04-29T10:10:40Z</time></trkpt><trkpt lat="28.04693361703339" lon="-11.392231281809726"><ele>75.0</ele><time>2026-04-29T10:10:41Z</time></trkpt><trkpt lat="28.046882356922485" lon="-11.392349738552275"><ele>75.0</ele><time>2026-04-29T10:10:42Z</time></trkpt><trkpt lat="28.04683705944869" lon="-11.392448765545542"><ele>74.83333333333333</ele><time>2026-04-29T10:10:43Z</time></trkpt><trkpt lat="28.046803581701745" lon="-11.392527582091734"><ele>74.66666666666667</ele><time>2026-04-29T10:10:44Z</time></trkpt><trkpt lat="28.04677478559074" lon="-11.392604276067235"><ele>74.5</ele><time>2026-04-29T10:10:45Z</time></trkpt><trkpt lat="28.04672230641264" lon="-11.392735473080156"><ele>74.33333333333334</ele><time>2026-04-29T10:10:47Z</time></trkpt><trkpt lat="28.046688210997875" lon="-11.39283013267408"><ele>74.16666666666667</ele><time>2026-04-29T10:10:48Z</time></trkpt><trkpt lat="28.046674565145253" lon="-11.392911515739755"><ele>74.0</ele><time>2026-04-29T10:10:49Z</time></trkpt><trkpt lat="28.04671125871005" lon="-11.393070391790458"><ele>73.60000000000001</ele><time>2026-04-29T10:10:51Z</time></trkpt><trkpt lat="28.04677562791011" lon="-11.393179737909712"><ele>73.2</ele><time>2026-04-29T10:10:52Z</time></trkpt><trkpt lat="28.046837100460678" lon="-11.393297331724941"><ele>72.80000000000001</ele><time>2026-04-29T10:10:53Z</time></trkpt><trkpt lat="28.046880371086125" lon="-11.393412270566753"><ele>72.4</ele><time>2026-04-29T10:10:54Z</time></trkpt><trkpt lat="28.046893627008277" lon="-11.393526986406362"><ele>72.0</ele><time>2026-04-29T10:10:55Z</time></trkpt><trkpt lat="28.04689484475776" lon="-11.393628383782872"><ele>72.0</ele><time>2026-04-29T10:10:56Z</time></trkpt><trkpt lat="28.046883240431836" lon="-11.39371176839009"><ele>72.0</ele><time>2026-04-29T10:10:57Z</time></trkpt><trkpt lat="28.04686729551222" lon="-11.393784977168957"><ele>72.0</ele><time>2026-04-29T10:10:58Z</time></trkpt><trkpt lat="28.046836014674415" lon="-11.39385318069248"><ele>72.0</ele><time>2026-04-29T10:10:59Z</time></trkpt><trkpt lat="28.04678768778398" lon="-11.393910964973909"><ele>72.0</ele><time>2026-04-29T10:11:00Z</time></trkpt><trkpt lat="28.046713505266794" lon="-11.393968437143199"><ele>72.0</ele><time>2026-04-29T10:11:01Z</time></trkpt><trkpt lat="28.046625118448112" lon="-11.394027523784416"><ele>70.0</ele><time>2026-04-29T10:11:02Z</time></trkpt><trkpt lat="28.046530179494535" lon="-11.39408970550505"><ele>68.0</ele><time>2026-04-29T10:11:03Z</time></trkpt><trkpt lat="28.04643657289381" lon="-11.394149713342259"><ele>66.0</ele><time>2026-04-29T10:11:04Z</time></trkpt><trkpt lat="28.04636453570654" lon="-11.394213265523415"><ele>64.0</ele><time>2026-04-29T10:11:05Z</time></trkpt><trkpt lat="28.04628421590103" lon="-11.394254818148438"><ele>62.0</ele><time>2026-04-29T10:11:06Z</time></trkpt><trkpt lat="28.046206851925444" lon="-11.394320217890778"><ele>62.0</ele><time>2026-04-29T10:11:07Z</time></trkpt><trkpt lat="28.04609004993156" lon="-11.394414132230336"><ele>62.0</ele><time>2026-04-29T10:11:08Z</time></trkpt><trkpt lat="28.045977207644892" lon="-11.394517224631457"><ele>62.0</ele><time>2026-04-29T10:11:09Z</time></trkpt><trkpt lat="28.045874120323866" lon="-11.394619810701384"><ele>62.0</ele><time>2026-04-29T10:11:10Z</time></trkpt><trkpt lat="28.045781796475346" lon="-11.394711981742326"><ele>60.75</ele><time>2026-04-29T10:11:11Z</time></trkpt><trkpt lat="28.04569686270463" lon="-11.394804983731696"><ele>59.5</ele><time>2026-04-29T10:11:12Z</time></trkpt><trkpt lat="28.04562640383619" lon="-11.3949083808358"><ele>58.25</ele><time>2026-04-29T10:11:13Z</time></trkpt><trkpt lat="28.045563640977026" lon="-11.39501818191378"><ele>57.0</ele><time>2026-04-29T10:11:14Z</time></trkpt><trkpt lat="28.04549810709951" lon="-11.39513153597887"><ele>57.0</ele><time>2026-04-29T10:11:15Z</time></trkpt><trkpt lat="28.04542743723213" lon="-11.3952364881436"><ele>57.0</ele><time>2026-04-29T10:11:16Z</time></trkpt><trkpt lat="28.04535938924374" lon="-11.395329599262793"><ele>57.0</ele><time>2026-04-29T10:11:17Z</time></trkpt><trkpt lat="28.04529783688186" lon="-11.395452776209885"><ele>57.0</ele><time>2026-04-29T10:11:18Z</time></trkpt><trkpt lat="28.045224010996243" lon="-11.395546970083807"><ele>56.6</ele><time>2026-04-29T10:11:19Z</time></trkpt><trkpt lat="28.045170509194282" lon="-11.39564615928862"><ele>56.2</ele><time>2026-04-29T10:11:20Z</time></trkpt><trkpt lat="28.045124691237056" lon="-11.395758668957287"><ele>55.8</ele><time>2026-04-29T10:11:21Z</time></trkpt><trkpt lat="28.04507937655329" lon="-11.395851784613104"><ele>55.4</ele><time>2026-04-29T10:11:22Z</time></trkpt><trkpt lat="28.045022031947976" lon="-11.395909551065262"><ele>55.0</ele><time>2026-04-29T10:11:23Z</time></trkpt><trkpt lat="28.044952777916556" lon="-11.39594234802214"><ele>55.666666666666664</ele><time>2026-04-29T10:11:24Z</time></trkpt><trkpt lat="28.044873786660435" lon="-11.395970075651356"><ele>56.33333333333333</ele><time>2026-04-29T10:11:25Z</time></trkpt><trkpt lat="28.044790927161195" lon="-11.396012610518865"><ele>57.0</ele><time>2026-04-29T10:11:26Z</time></trkpt><trkpt lat="28.04472859213386" lon="-11.396052724666616"><ele>57.66666666666667</ele><time>2026-04-29T10:11:27Z</time></trkpt><trkpt lat="28.044680891545262" lon="-11.396106270727318"><ele>58.333333333333336</ele><time>2026-04-29T10:11:28Z</time></trkpt><trkpt lat="28.044641649562486" lon="-11.39617203179916"><ele>59.0</ele><time>2026-04-29T10:11:29Z</time></trkpt><trkpt lat="28.044595472863847" lon="-11.396233026113972"><ele>59.0</ele><time>2026-04-29T10:11:30Z</time></trkpt><trkpt lat="28.04454950311172" lon="-11.396311860251256"><ele>59.00000000000001</ele><time>2026-04-29T10:11:32Z</time></trkpt><trkpt lat="28.044527436131805" lon="-11.396449957940723"><ele>59.00000000000001</ele><time>2026-04-29T10:11:34Z</time></trkpt><trkpt lat="28.044516386384487" lon="-11.396529092277083"><ele>59.0</ele><time>2026-04-29T10:11:35Z</time></trkpt><trkpt lat="28.044468544169217" lon="-11.396634018726973"><ele>59.0</ele><time>2026-04-29T10:11:37Z</time></trkpt><trkpt lat="28.044448246917778" lon="-11.396739232676383"><ele>60.25</ele><time>2026-04-29T10:11:39Z</time></trkpt><trkpt lat="28.044464786806355" lon="-11.396829255500352"><ele>61.5</ele><time>2026-04-29T10:11:40Z</time></trkpt><trkpt lat="28.044509573931975" lon="-11.396965064657424"><ele>62.75</ele><time>2026-04-29T10:11:41Z</time></trkpt><trkpt lat="28.044532018692976" lon="-11.397116359101199"><ele>64.0</ele><time>2026-04-29T10:11:42Z</time></trkpt><trkpt lat="28.044549096528083" lon="-11.397300337424237"><ele>64.66666666666666</ele><time>2026-04-29T10:11:43Z</time></trkpt><trkpt lat="28.044570767579145" lon="-11.397486766486313"><ele>65.33333333333333</ele><time>2026-04-29T10:11:44Z</time></trkpt><trkpt lat="28.04460011426822" lon="-11.397675880239452"><ele>66.0</ele><time>2026-04-29T10:11:45Z</time></trkpt><trkpt lat="28.04462835492044" lon="-11.397832929980947"><ele>66.0</ele><time>2026-04-29T10:11:46Z</time></trkpt><trkpt lat="28.044643559722783" lon="-11.397957986424787"><ele>66.0</ele><time>2026-04-29T10:11:47Z</time></trkpt><trkpt lat="28.04463262353559" lon="-11.398076320843018"><ele>66.0</ele><time>2026-04-29T10:11:48Z</time></trkpt><trkpt lat="28.044611234247295" lon="-11.398222321409412"><ele>66.0</ele><time>2026-04-29T10:11:49Z</time></trkpt><trkpt lat="28.044585045433045" lon="-11.398393499580447"><ele>65.33333333333333</ele><time>2026-04-29T10:11:50Z</time></trkpt><trkpt lat="28.044572929931494" lon="-11.398521307576205"><ele>64.66666666666667</ele><time>2026-04-29T10:11:51Z</time></trkpt><trkpt lat="28.04454923948003" lon="-11.398612985794754"><ele>64.0</ele><time>2026-04-29T10:11:52Z</time></trkpt><trkpt lat="28.044483565430273" lon="-11.398658324095596"><ele>63.333333333333336</ele><time>2026-04-29T10:13:06Z</time></trkpt><trkpt lat="28.044433177175776" lon="-11.398722844920382"><ele>62.66666666666667</ele><time>2026-04-29T10:17:21Z</time></trkpt><trkpt lat="28.04437568551061" lon="-11.398768313226785"><ele>62.0</ele><time>2026-04-29T10:18:02Z</time></trkpt><trkpt lat="28.044318649982113" lon="-11.39883817555489"><ele>60.8</ele><time>2026-04-29T10:18:04Z</time></trkpt><trkpt lat="28.044303144759887" lon="-11.398949436859102"><ele>59.6</ele><time>2026-04-29T10:18:06Z</time></trkpt><trkpt lat="28.044293187606268" lon="-11.399043933845528"><ele>58.39999999999999</ele><time>2026-04-29T10:18:07Z</time></trkpt><trkpt lat="28.044275029019833" lon="-11.399147027432246"><ele>57.199999999999996</ele><time>2026-04-29T10:18:08Z</time></trkpt><trkpt lat="28.04424874929891" lon="-11.39923395775868"><ele>56.0</ele><time>2026-04-29T10:18:09Z</time></trkpt><trkpt lat="28.044200391402427" lon="-11.399374290600209"><ele>56.00000000000001</ele><time>2026-04-29T10:18:11Z</time></trkpt><trkpt lat="28.044171961101206" lon="-11.399450335461827"><ele>56.0</ele><time>2026-04-29T10:18:12Z</time></trkpt><trkpt lat="28.04414735033587" lon="-11.399523591714964"><ele>56.0</ele><time>2026-04-29T10:18:13Z</time></trkpt><trkpt lat="28.04412502795468" lon="-11.399596829488113"><ele>56.0</ele><time>2026-04-29T10:18:14Z</time></trkpt><trkpt lat="28.04409326052718" lon="-11.399680778406598"><ele>56.00000000000001</ele><time>2026-04-29T10:18:15Z</time></trkpt><trkpt lat="28.044058548322415" lon="-11.399773285079972"><ele>56.0</ele><time>2026-04-29T10:18:16Z</time></trkpt><trkpt lat="28.044029130632794" lon="-11.39984519383907"><ele>56.66666666666667</ele><time>2026-04-29T10:18:17Z</time></trkpt><trkpt lat="28.04399421649997" lon="-11.399931273538662"><ele>57.333333333333336</ele><time>2026-04-29T10:18:18Z</time></trkpt><trkpt lat="28.043956578030578" lon="-11.400032722216215"><ele>58.0</ele><time>2026-04-29T10:18:19Z</time></trkpt><trkpt lat="28.04393000869229" lon="-11.400138138636873"><ele>58.66666666666667</ele><time>2026-04-29T10:18:20Z</time></trkpt><trkpt lat="28.043897659224516" lon="-11.40022508298501"><ele>59.333333333333336</ele><time>2026-04-29T10:18:21Z</time></trkpt><trkpt lat="28.043862745686713" lon="-11.400316679395766"><ele>60.0</ele><time>2026-04-29T10:18:22Z</time></trkpt><trkpt lat="28.043824207553662" lon="-11.400404989625464"><ele>60.2</ele><time>2026-04-29T10:18:23Z</time></trkpt><trkpt lat="28.043796806551835" lon="-11.400505749239358"><ele>60.4</ele><time>2026-04-29T10:18:24Z</time></trkpt><trkpt lat="28.04377443595099" lon="-11.40060183282932"><ele>60.599999999999994</ele><time>2026-04-29T10:18:25Z</time></trkpt><trkpt lat="28.04374177702402" lon="-11.400702433161124"><ele>60.8</ele><time>2026-04-29T10:18:26Z</time></trkpt><trkpt lat="28.043701547977733" lon="-11.400801702418242"><ele>61.0</ele><time>2026-04-29T10:18:27Z</time></trkpt><trkpt lat="28.043662128669315" lon="-11.400899291873856"><ele>60.99999999999999</ele><time>2026-04-29T10:18:28Z</time></trkpt><trkpt lat="28.043636110067297" lon="-11.400992962840762"><ele>61.0</ele><time>2026-04-29T10:18:29Z</time></trkpt><trkpt lat="28.0436022400064" lon="-11.40108766083279"><ele>61.0</ele><time>2026-04-29T10:18:30Z</time></trkpt><trkpt lat="28.04357412364438" lon="-11.40115716304903"><ele>61.0</ele><time>2026-04-29T10:18:31Z</time></trkpt><trkpt lat="28.043539819908126" lon="-11.401224779901936"><ele>60.99999999999999</ele><time>2026-04-29T10:18:32Z</time></trkpt><trkpt lat="28.04348222765565" lon="-11.401342914894034"><ele>61.0</ele><time>2026-04-29T10:18:34Z</time></trkpt><trkpt lat="28.043434106845496" lon="-11.401395589208395"><ele>60.4</ele><time>2026-04-29T10:18:35Z</time></trkpt><trkpt lat="28.043369556299396" lon="-11.401438214970014"><ele>59.8</ele><time>2026-04-29T10:18:36Z</time></trkpt><trkpt lat="28.043279263209612" lon="-11.40149110888746"><ele>59.199999999999996</ele><time>2026-04-29T10:18:37Z</time></trkpt><trkpt lat="28.043190604436287" lon="-11.401559245013518"><ele>58.599999999999994</ele><time>2026-04-29T10:18:38Z</time></trkpt><trkpt lat="28.043092635518494" lon="-11.401615153498714"><ele>58.0</ele><time>2026-04-29T10:18:39Z</time></trkpt><trkpt lat="28.042986560170384" lon="-11.401675867762792"><ele>57.8</ele><time>2026-04-29T10:18:40Z</time></trkpt><trkpt lat="28.042888323459376" lon="-11.401742311130741"><ele>57.599999999999994</ele><time>2026-04-29T10:18:41Z</time></trkpt><trkpt lat="28.042798226691332" lon="-11.401801854220773"><ele>57.400000000000006</ele><time>2026-04-29T10:18:42Z</time></trkpt><trkpt lat="28.04270698608258" lon="-11.401857081120669"><ele>57.2</ele><time>2026-04-29T10:18:43Z</time></trkpt><trkpt lat="28.042618305847604" lon="-11.40191904775438"><ele>57.0</ele><time>2026-04-29T10:18:44Z</time></trkpt><trkpt lat="28.04252832889982" lon="-11.401978332430033"><ele>57.2</ele><time>2026-04-29T10:18:45Z</time></trkpt><trkpt lat="28.042436119534276" lon="-11.402029697341835"><ele>57.400000000000006</ele><time>2026-04-29T10:18:46Z</time></trkpt><trkpt lat="28.042339329517834" lon="-11.402080657240516"><ele>57.599999999999994</ele><time>2026-04-29T10:18:47Z</time></trkpt><trkpt lat="28.04224721975144" lon="-11.4021341114971"><ele>57.8</ele><time>2026-04-29T10:18:48Z</time></trkpt><trkpt lat="28.042162644417136" lon="-11.40219082228294"><ele>58.0</ele><time>2026-04-29T10:18:49Z</time></trkpt><trkpt lat="28.042076099910446" lon="-11.402249559941835"><ele>57.5</ele><time>2026-04-29T10:18:50Z</time></trkpt><trkpt lat="28.04198216854155" lon="-11.40231328371211"><ele>57.0</ele><time>2026-04-29T10:18:51Z</time></trkpt><trkpt lat="28.041884403577527" lon="-11.402384458595224"><ele>56.5</ele><time>2026-04-29T10:18:52Z</time></trkpt><trkpt lat="28.041783870790013" lon="-11.402462908764656"><ele>56.0</ele><time>2026-04-29T10:18:53Z</time></trkpt><trkpt lat="28.041686189081272" lon="-11.402538623393037"><ele>56.0</ele><time>2026-04-29T10:18:54Z</time></trkpt><trkpt lat="28.041597646701174" lon="-11.402607282242146"><ele>55.99999999999999</ele><time>2026-04-29T10:18:55Z</time></trkpt><trkpt lat="28.041507855139233" lon="-11.40267915207159"><ele>55.99999999999999</ele><time>2026-04-29T10:18:56Z</time></trkpt><trkpt lat="28.041416775782995" lon="-11.402752522393506"><ele>56.0</ele><time>2026-04-29T10:18:57Z</time></trkpt><trkpt lat="28.04132359998422" lon="-11.402820582512154"><ele>56.0</ele><time>2026-04-29T10:18:58Z</time></trkpt><trkpt lat="28.04123356756042" lon="-11.40288683798079"><ele>56.0</ele><time>2026-04-29T10:18:59Z</time></trkpt><trkpt lat="28.041140081015225" lon="-11.40295759304922"><ele>55.99999999999999</ele><time>2026-04-29T10:19:00Z</time></trkpt><trkpt lat="28.041044011523642" lon="-11.403028700755895"><ele>55.99999999999999</ele><time>2026-04-29T10:19:01Z</time></trkpt><trkpt lat="28.040949542852434" lon="-11.403104057618746"><ele>56.0</ele><time>2026-04-29T10:19:02Z</time></trkpt><trkpt lat="28.04087644793844" lon="-11.40317170343955"><ele>56.0</ele><time>2026-04-29T10:19:03Z</time></trkpt><trkpt lat="28.04079352436935" lon="-11.403236598875885"><ele>55.25</ele><time>2026-04-29T10:19:04Z</time></trkpt><trkpt lat="28.04069676781519" lon="-11.403271677172306"><ele>54.5</ele><time>2026-04-29T10:19:05Z</time></trkpt><trkpt lat="28.040585449417474" lon="-11.40331470599454"><ele>53.75</ele><time>2026-04-29T10:19:06Z</time></trkpt><trkpt lat="28.04047751214111" lon="-11.403369676995588"><ele>53.0</ele><time>2026-04-29T10:19:07Z</time></trkpt><trkpt lat="28.04036317875006" lon="-11.40342499817899"><ele>53.0</ele><time>2026-04-29T10:19:08Z</time></trkpt><trkpt lat="28.04023250601673" lon="-11.403468749835545"><ele>53.0</ele><time>2026-04-29T10:19:09Z</time></trkpt><trkpt lat="28.0401164331947" lon="-11.403502275240468"><ele>53.0</ele><time>2026-04-29T10:19:10Z</time></trkpt><trkpt lat="28.040019954309113" lon="-11.403531919471211"><ele>53.0</ele><time>2026-04-29T10:19:11Z</time></trkpt><trkpt lat="28.039933074958608" lon="-11.40355777879823"><ele>53.0</ele><time>2026-04-29T10:19:12Z</time></trkpt><trkpt lat="28.03985139779863" lon="-11.40358483651059"><ele>53.2</ele><time>2026-04-29T10:19:13Z</time></trkpt><trkpt lat="28.039748521427164" lon="-11.403619893982789"><ele>53.4</ele><time>2026-04-29T10:19:14Z</time></trkpt><trkpt lat="28.0396411323084" lon="-11.403658095202541"><ele>53.60000000000001</ele><time>2026-04-29T10:19:15Z</time></trkpt><trkpt lat="28.039533110648488" lon="-11.403702725800077"><ele>53.800000000000004</ele><time>2026-04-29T10:19:16Z</time></trkpt><trkpt lat="28.03943859473525" lon="-11.403749667769175"><ele>54.0</ele><time>2026-04-29T10:19:17Z</time></trkpt><trkpt lat="28.039346616346762" lon="-11.40379568227594"><ele>53.5</ele><time>2026-04-29T10:19:18Z</time></trkpt><trkpt lat="28.039240287534653" lon="-11.403836396886623"><ele>53.0</ele><time>2026-04-29T10:19:19Z</time></trkpt><trkpt lat="28.039121190879627" lon="-11.403873603434457"><ele>52.5</ele><time>2026-04-29T10:19:20Z</time></trkpt><trkpt lat="28.038994482618516" lon="-11.403906562073347"><ele>52.0</ele><time>2026-04-29T10:19:21Z</time></trkpt><trkpt lat="28.038870607938893" lon="-11.40394191303789"><ele>52.0</ele><time>2026-04-29T10:19:22Z</time></trkpt><trkpt lat="28.038739933830367" lon="-11.40398902797942"><ele>52.0</ele><time>2026-04-29T10:19:23Z</time></trkpt><trkpt lat="28.03861538663716" lon="-11.404035104622384"><ele>52.0</ele><time>2026-04-29T10:19:24Z</time></trkpt><trkpt lat="28.038494251000795" lon="-11.404077458070299"><ele>52.0</ele><time>2026-04-29T10:19:25Z</time></trkpt><trkpt lat="28.03836351525506" lon="-11.404117401513245"><ele>52.75</ele><time>2026-04-29T10:19:26Z</time></trkpt><trkpt lat="28.03822769596011" lon="-11.404151006395862"><ele>53.5</ele><time>2026-04-29T10:19:27Z</time></trkpt><trkpt lat="28.038087985700106" lon="-11.404189043788021"><ele>54.25</ele><time>2026-04-29T10:19:28Z</time></trkpt><trkpt lat="28.037951352524868" lon="-11.404222813941317"><ele>55.0</ele><time>2026-04-29T10:19:29Z</time></trkpt><trkpt lat="28.037820410879622" lon="-11.404252481652424"><ele>55.0</ele><time>2026-04-29T10:19:30Z</time></trkpt><trkpt lat="28.037695295499255" lon="-11.404284953818305"><ele>55.0</ele><time>2026-04-29T10:19:31Z</time></trkpt><trkpt lat="28.037562464727998" lon="-11.404313936541847"><ele>55.0</ele><time>2026-04-29T10:19:32Z</time></trkpt><trkpt lat="28.037432180365762" lon="-11.40434504469357"><ele>55.0</ele><time>2026-04-29T10:19:33Z</time></trkpt><trkpt lat="28.037302902638015" lon="-11.404381693479806"><ele>55.5</ele><time>2026-04-29T10:19:34Z</time></trkpt><trkpt lat="28.037174053093715" lon="-11.404417075766116"><ele>56.0</ele><time>2026-04-29T10:19:35Z</time></trkpt><trkpt lat="28.03704095202792" lon="-11.404453367959595"><ele>56.5</ele><time>2026-04-29T10:19:36Z</time></trkpt><trkpt lat="28.036903487828518" lon="-11.404491139353842"><ele>57.0</ele><time>2026-04-29T10:19:37Z</time></trkpt><trkpt lat="28.03676971736909" lon="-11.404525172705519"><ele>57.0</ele><time>2026-04-29T10:19:38Z</time></trkpt><trkpt lat="28.03664660016759" lon="-11.404557105596341"><ele>57.0</ele><time>2026-04-29T10:19:39Z</time></trkpt><trkpt lat="28.03653224339428" lon="-11.404584285255854"><ele>57.0</ele><time>2026-04-29T10:19:40Z</time></trkpt><trkpt lat="28.03643152837275" lon="-11.40461645204632"><ele>57.0</ele><time>2026-04-29T10:19:41Z</time></trkpt><trkpt lat="28.0363213181806" lon="-11.40465664821642"><ele>57.0</ele><time>2026-04-29T10:19:42Z</time></trkpt><trkpt lat="28.036208923382816" lon="-11.40468743485291"><ele>57.0</ele><time>2026-04-29T10:19:43Z</time></trkpt><trkpt lat="28.03609661582791" lon="-11.404712428054994"><ele>57.0</ele><time>2026-04-29T10:19:44Z</time></trkpt><trkpt lat="28.035984734279538" lon="-11.404736018420623"><ele>57.0</ele><time>2026-04-29T10:19:45Z</time></trkpt><trkpt lat="28.035875455633178" lon="-11.404772000129197"><ele>57.0</ele><time>2026-04-29T10:19:46Z</time></trkpt><trkpt lat="28.0357736467232" lon="-11.40481392358204"><ele>57.0</ele><time>2026-04-29T10:19:47Z</time></trkpt><trkpt lat="28.035669478740775" lon="-11.404860426027666"><ele>57.0</ele><time>2026-04-29T10:19:48Z</time></trkpt><trkpt lat="28.03557057386378" lon="-11.404897314278612"><ele>57.0</ele><time>2026-04-29T10:19:49Z</time></trkpt><trkpt lat="28.035466415350832" lon="-11.404921261528752"><ele>57.0</ele><time>2026-04-29T10:19:50Z</time></trkpt><trkpt lat="28.03534829057396" lon="-11.404946197527995"><ele>57.0</ele><time>2026-04-29T10:19:51Z</time></trkpt><trkpt lat="28.035223924783875" lon="-11.404984168627475"><ele>57.0</ele><time>2026-04-29T10:19:52Z</time></trkpt><trkpt lat="28.03511274449161" lon="-11.405035975473385"><ele>57.0</ele><time>2026-04-29T10:19:53Z</time></trkpt><trkpt lat="28.03500791358525" lon="-11.405076227842999"><ele>57.0</ele><time>2026-04-29T10:19:54Z</time></trkpt><trkpt lat="28.034896372877736" lon="-11.405097957003438"><ele>57.25</ele><time>2026-04-29T10:19:55Z</time></trkpt><trkpt lat="28.034780785874386" lon="-11.405110813759949"><ele>57.5</ele><time>2026-04-29T10:19:56Z</time></trkpt><trkpt lat="28.03465880125306" lon="-11.405130775078122"><ele>57.75</ele><time>2026-04-29T10:19:57Z</time></trkpt><trkpt lat="28.0345259778603" lon="-11.405154693075048"><ele>58.0</ele><time>2026-04-29T10:19:58Z</time></trkpt><trkpt lat="28.034392935486846" lon="-11.405184207994381"><ele>58.0</ele><time>2026-04-29T10:19:59Z</time></trkpt><trkpt lat="28.03425912396241" lon="-11.405218449919374"><ele>58.0</ele><time>2026-04-29T10:20:00Z</time></trkpt><trkpt lat="28.03412936371672" lon="-11.405251171046979"><ele>58.0</ele><time>2026-04-29T10:20:01Z</time></trkpt><trkpt lat="28.034007030306284" lon="-11.405287780701762"><ele>58.0</ele><time>2026-04-29T10:20:02Z</time></trkpt><trkpt lat="28.033902151817546" lon="-11.40531898266606"><ele>58.2</ele><time>2026-04-29T10:20:03Z</time></trkpt><trkpt lat="28.033793361418613" lon="-11.405346412885452"><ele>58.4</ele><time>2026-04-29T10:20:04Z</time></trkpt><trkpt lat="28.033692757053814" lon="-11.405372477465804"><ele>58.60000000000001</ele><time>2026-04-29T10:20:05Z</time></trkpt><trkpt lat="28.033599335826636" lon="-11.405400143573655"><ele>58.800000000000004</ele><time>2026-04-29T10:20:06Z</time></trkpt><trkpt lat="28.03350697886067" lon="-11.405425644567536"><ele>59.0</ele><time>2026-04-29T10:20:07Z</time></trkpt><trkpt lat="28.03342166510446" lon="-11.405440826796697"><ele>59.0</ele><time>2026-04-29T10:20:08Z</time></trkpt><trkpt lat="28.033312755350853" lon="-11.405459698389842"><ele>59.00000000000001</ele><time>2026-04-29T10:20:09Z</time></trkpt><trkpt lat="28.03320566489146" lon="-11.405484273344145"><ele>59.00000000000001</ele><time>2026-04-29T10:20:10Z</time></trkpt><trkpt lat="28.033107648327135" lon="-11.405511356668399"><ele>59.0</ele><time>2026-04-29T10:20:11Z</time></trkpt><trkpt lat="28.033011153776272" lon="-11.405540489010344"><ele>59.0</ele><time>2026-04-29T10:20:12Z</time></trkpt><trkpt lat="28.032916833541066" lon="-11.405568629664415"><ele>58.800000000000004</ele><time>2026-04-29T10:20:13Z</time></trkpt><trkpt lat="28.03281946838889" lon="-11.405594891687713"><ele>58.60000000000001</ele><time>2026-04-29T10:20:14Z</time></trkpt><trkpt lat="28.03272035687389" lon="-11.40562787825055"><ele>58.4</ele><time>2026-04-29T10:20:15Z</time></trkpt><trkpt lat="28.032609886574086" lon="-11.405652969920599"><ele>58.2</ele><time>2026-04-29T10:20:16Z</time></trkpt><trkpt lat="28.032501071901926" lon="-11.405680411149143"><ele>58.0</ele><time>2026-04-29T10:20:17Z</time></trkpt><trkpt lat="28.032393975847967" lon="-11.405702890262818"><ele>58.0</ele><time>2026-04-29T10:20:18Z</time></trkpt><trkpt lat="28.032302360159846" lon="-11.405714169959836"><ele>58.0</ele><time>2026-04-29T10:20:19Z</time></trkpt><trkpt lat="28.03220910759687" lon="-11.405730580325908"><ele>58.0</ele><time>2026-04-29T10:20:20Z</time></trkpt><trkpt lat="28.032107191144476" lon="-11.405749806911782"><ele>58.0</ele><time>2026-04-29T10:20:21Z</time></trkpt><trkpt lat="28.032018883497603" lon="-11.405756529880573"><ele>58.0</ele><time>2026-04-29T10:20:22Z</time></trkpt><trkpt lat="28.031946488025866" lon="-11.405761361789564"><ele>58.0</ele><time>2026-04-29T10:20:23Z</time></trkpt><trkpt lat="28.031845597974915" lon="-11.405771406540017"><ele>58.0</ele><time>2026-04-29T10:20:24Z</time></trkpt><trkpt lat="28.031746590454592" lon="-11.405786008018604"><ele>58.0</ele><time>2026-04-29T10:20:25Z</time></trkpt><trkpt lat="28.03163409019074" lon="-11.40580474211644"><ele>58.0</ele><time>2026-04-29T10:20:26Z</time></trkpt><trkpt lat="28.03153520127872" lon="-11.405821764477057"><ele>58.0</ele><time>2026-04-29T10:20:27Z</time></trkpt><trkpt lat="28.031449632041774" lon="-11.405834607522138"><ele>57.99999999999999</ele><time>2026-04-29T10:20:28Z</time></trkpt><trkpt lat="28.031370745046285" lon="-11.405843421317083"><ele>58.0</ele><time>2026-04-29T10:20:29Z</time></trkpt><trkpt lat="28.03129021385968" lon="-11.405850724605365"><ele>58.0</ele><time>2026-04-29T10:20:30Z</time></trkpt><trkpt lat="28.03121120346148" lon="-11.405853155680557"><ele>58.0</ele><time>2026-04-29T10:20:31Z</time></trkpt><trkpt lat="28.031123988930528" lon="-11.405851725329216"><ele>57.99999999999999</ele><time>2026-04-29T10:20:32Z</time></trkpt><trkpt lat="28.031044925068475" lon="-11.40583963688638"><ele>58.0</ele><time>2026-04-29T10:20:33Z</time></trkpt><trkpt lat="28.030962444477122" lon="-11.405821783611481"><ele>58.0</ele><time>2026-04-29T10:20:34Z</time></trkpt><trkpt lat="28.03086307163484" lon="-11.405812026625252"><ele>58.0</ele><time>2026-04-29T10:20:35Z</time></trkpt><trkpt lat="28.030764730394402" lon="-11.405834197338157"><ele>58.0</ele><time>2026-04-29T10:20:36Z</time></trkpt><trkpt lat="28.030667910646663" lon="-11.405881162481858"><ele>58.0</ele><time>2026-04-29T10:20:37Z</time></trkpt><trkpt lat="28.030573130383168" lon="-11.405939277315037"><ele>58.0</ele><time>2026-04-29T10:20:38Z</time></trkpt><trkpt lat="28.030479006149346" lon="-11.40599066686664"><ele>58.2</ele><time>2026-04-29T10:20:39Z</time></trkpt><trkpt lat="28.03038572770554" lon="-11.406026493410277"><ele>58.4</ele><time>2026-04-29T10:20:40Z</time></trkpt><trkpt lat="28.030292353489767" lon="-11.406035444848325"><ele>58.60000000000001</ele><time>2026-04-29T10:20:41Z</time></trkpt><trkpt lat="28.030191081755785" lon="-11.406026978587008"><ele>58.800000000000004</ele><time>2026-04-29T10:20:42Z</time></trkpt><trkpt lat="28.0300855402164" lon="-11.406026513497526"><ele>59.0</ele><time>2026-04-29T10:20:43Z</time></trkpt><trkpt lat="28.029984455626984" lon="-11.406045459134685"><ele>59.0</ele><time>2026-04-29T10:20:44Z</time></trkpt><trkpt lat="28.029882421382652" lon="-11.40608777459426"><ele>59.0</ele><time>2026-04-29T10:20:45Z</time></trkpt><trkpt lat="28.02976924699207" lon="-11.406131431560818"><ele>59.0</ele><time>2026-04-29T10:20:46Z</time></trkpt><trkpt lat="28.02964889137174" lon="-11.406163871032524"><ele>59.0</ele><time>2026-04-29T10:20:47Z</time></trkpt><trkpt lat="28.029528223007965" lon="-11.406188065383422"><ele>59.0</ele><time>2026-04-29T10:20:48Z</time></trkpt><trkpt lat="28.029412584326213" lon="-11.406208569878439"><ele>59.0</ele><time>2026-04-29T10:20:49Z</time></trkpt><trkpt lat="28.029307316295952" lon="-11.406240871041103"><ele>59.0</ele><time>2026-04-29T10:20:50Z</time></trkpt><trkpt lat="28.029194575263734" lon="-11.406292299911156"><ele>59.0</ele><time>2026-04-29T10:20:51Z</time></trkpt><trkpt lat="28.029081574009464" lon="-11.406352411597299"><ele>58.6</ele><time>2026-04-29T10:20:52Z</time></trkpt><trkpt lat="28.02898047464982" lon="-11.406426538207224"><ele>58.2</ele><time>2026-04-29T10:20:53Z</time></trkpt><trkpt lat="28.02890168299502" lon="-11.40649225075445"><ele>57.800000000000004</ele><time>2026-04-29T10:20:54Z</time></trkpt><trkpt lat="28.028828365105394" lon="-11.40653627220606"><ele>57.400000000000006</ele><time>2026-04-29T10:20:55Z</time></trkpt><trkpt lat="28.028745204821305" lon="-11.406556383287244"><ele>57.0</ele><time>2026-04-29T10:20:56Z</time></trkpt><trkpt lat="28.02865450550489" lon="-11.406585224886102"><ele>57.0</ele><time>2026-04-29T10:20:57Z</time></trkpt><trkpt lat="28.028569983256336" lon="-11.406632433582457"><ele>57.0</ele><time>2026-04-29T10:20:58Z</time></trkpt><trkpt lat="28.028494389866434" lon="-11.40668377547968"><ele>57.0</ele><time>2026-04-29T10:20:59Z</time></trkpt><trkpt lat="28.028398685335258" lon="-11.406737797526102"><ele>57.0</ele><time>2026-04-29T10:21:00Z</time></trkpt><trkpt lat="28.02829413641632" lon="-11.40679632863996"><ele>57.0</ele><time>2026-04-29T10:21:01Z</time></trkpt><trkpt lat="28.028188307561713" lon="-11.40685773835207"><ele>57.0</ele><time>2026-04-29T10:21:02Z</time></trkpt><trkpt lat="28.02809868986776" lon="-11.406911595646168"><ele>57.0</ele><time>2026-04-29T10:21:03Z</time></trkpt><trkpt lat="28.02802064436322" lon="-11.406956349938689"><ele>57.0</ele><time>2026-04-29T10:21:04Z</time></trkpt><trkpt lat="28.02794523825416" lon="-11.406993428266821"><ele>57.0</ele><time>2026-04-29T10:21:05Z</time></trkpt><trkpt lat="28.027878507283013" lon="-11.40702462737075"><ele>57.0</ele><time>2026-04-29T10:21:06Z</time></trkpt><trkpt lat="28.027807623284595" lon="-11.407053932174712"><ele>57.0</ele><time>2026-04-29T10:21:07Z</time></trkpt><trkpt lat="28.027729020033977" lon="-11.407092180519442"><ele>57.0</ele><time>2026-04-29T10:21:08Z</time></trkpt><trkpt lat="28.02764941307636" lon="-11.40713657506187"><ele>57.0</ele><time>2026-04-29T10:21:09Z</time></trkpt><trkpt lat="28.027560830247353" lon="-11.4071795700059"><ele>57.0</ele><time>2026-04-29T10:21:10Z</time></trkpt><trkpt lat="28.0274690488118" lon="-11.40722062956049"><ele>57.0</ele><time>2026-04-29T10:21:11Z</time></trkpt><trkpt lat="28.02739076458806" lon="-11.407251311625346"><ele>57.0</ele><time>2026-04-29T10:21:12Z</time></trkpt><trkpt lat="28.02731511338371" lon="-11.40728698301733"><ele>57.0</ele><time>2026-04-29T10:21:13Z</time></trkpt><trkpt lat="28.02723459790724" lon="-11.407328388851685"><ele>56.6</ele><time>2026-04-29T10:21:14Z</time></trkpt><trkpt lat="28.02715214630371" lon="-11.407372000691103"><ele>56.2</ele><time>2026-04-29T10:21:15Z</time></trkpt><trkpt lat="28.027065522093213" lon="-11.407408933962435"><ele>55.8</ele><time>2026-04-29T10:21:16Z</time></trkpt><trkpt lat="28.026982195023443" lon="-11.407450311091068"><ele>55.4</ele><time>2026-04-29T10:21:17Z</time></trkpt><trkpt lat="28.026884622746692" lon="-11.40750567935515"><ele>55.0</ele><time>2026-04-29T10:21:18Z</time></trkpt><trkpt lat="28.02678753030103" lon="-11.407577021146604"><ele>55.0</ele><time>2026-04-29T10:21:19Z</time></trkpt><trkpt lat="28.0266813031122" lon="-11.407649888690672"><ele>55.0</ele><time>2026-04-29T10:21:20Z</time></trkpt><trkpt lat="28.026568787167122" lon="-11.407718133391215"><ele>55.0</ele><time>2026-04-29T10:21:21Z</time></trkpt><trkpt lat="28.02645026080552" lon="-11.4077822722525"><ele>55.0</ele><time>2026-04-29T10:21:22Z</time></trkpt><trkpt lat="28.026339569320697" lon="-11.407845685797534"><ele>55.75</ele><time>2026-04-29T10:21:23Z</time></trkpt><trkpt lat="28.026244228588244" lon="-11.407902832188975"><ele>56.5</ele><time>2026-04-29T10:21:24Z</time></trkpt><trkpt lat="28.026141361279464" lon="-11.407962308576352"><ele>57.25</ele><time>2026-04-29T10:21:25Z</time></trkpt><trkpt lat="28.026031839505386" lon="-11.408028651545399"><ele>58.0</ele><time>2026-04-29T10:21:26Z</time></trkpt><trkpt lat="28.025922856448748" lon="-11.408097524694377"><ele>58.25</ele><time>2026-04-29T10:21:27Z</time></trkpt><trkpt lat="28.025808092631216" lon="-11.408168799650408"><ele>58.5</ele><time>2026-04-29T10:21:28Z</time></trkpt><trkpt lat="28.02569159866322" lon="-11.408239595741334"><ele>58.75</ele><time>2026-04-29T10:21:29Z</time></trkpt><trkpt lat="28.02557401712024" lon="-11.408311482175218"><ele>59.0</ele><time>2026-04-29T10:21:30Z</time></trkpt><trkpt lat="28.02546016831819" lon="-11.408384264823347"><ele>59.0</ele><time>2026-04-29T10:21:31Z</time></trkpt><trkpt lat="28.02534951238555" lon="-11.408457750981723"><ele>59.0</ele><time>2026-04-29T10:21:32Z</time></trkpt><trkpt lat="28.02524164268412" lon="-11.408524799477854"><ele>59.0</ele><time>2026-04-29T10:21:33Z</time></trkpt><trkpt lat="28.025125882913116" lon="-11.408593905654465"><ele>59.0</ele><time>2026-04-29T10:21:34Z</time></trkpt><trkpt lat="28.025009498043755" lon="-11.408662715782066"><ele>58.5</ele><time>2026-04-29T10:21:35Z</time></trkpt><trkpt lat="28.024897989336765" lon="-11.40873267046512"><ele>58.0</ele><time>2026-04-29T10:21:36Z</time></trkpt><trkpt lat="28.024795498201982" lon="-11.408805431427472"><ele>57.5</ele><time>2026-04-29T10:21:37Z</time></trkpt><trkpt lat="28.024693403462827" lon="-11.40887348468722"><ele>57.0</ele><time>2026-04-29T10:21:38Z</time></trkpt><trkpt lat="28.02459296531913" lon="-11.408934954769462"><ele>57.0</ele><time>2026-04-29T10:21:39Z</time></trkpt><trkpt lat="28.024491272414473" lon="-11.408998522704048"><ele>57.0</ele><time>2026-04-29T10:21:40Z</time></trkpt><trkpt lat="28.024396964309688" lon="-11.40906884411074"><ele>57.0</ele><time>2026-04-29T10:21:41Z</time></trkpt><trkpt lat="28.024293792820686" lon="-11.409141826971265"><ele>57.0</ele><time>2026-04-29T10:21:42Z</time></trkpt><trkpt lat="28.02419081447382" lon="-11.409210195221627"><ele>57.75</ele><time>2026-04-29T10:21:43Z</time></trkpt><trkpt lat="28.02408543403254" lon="-11.409275724288243"><ele>58.5</ele><time>2026-04-29T10:21:44Z</time></trkpt><trkpt lat="28.023982285126788" lon="-11.40934352049786"><ele>59.25</ele><time>2026-04-29T10:21:45Z</time></trkpt><trkpt lat="28.023874854867348" lon="-11.409416417539203"><ele>60.0</ele><time>2026-04-29T10:21:46Z</time></trkpt><trkpt lat="28.023766343085512" lon="-11.409487174585317"><ele>60.0</ele><time>2026-04-29T10:21:47Z</time></trkpt><trkpt lat="28.023659466992626" lon="-11.40955527537731"><ele>60.0</ele><time>2026-04-29T10:21:48Z</time></trkpt><trkpt lat="28.023564066825497" lon="-11.40962363781406"><ele>60.0</ele><time>2026-04-29T10:21:49Z</time></trkpt><trkpt lat="28.02346059839492" lon="-11.40969039060039"><ele>60.0</ele><time>2026-04-29T10:21:50Z</time></trkpt><trkpt lat="28.02334903530085" lon="-11.409752591878037"><ele>60.0</ele><time>2026-04-29T10:21:51Z</time></trkpt><trkpt lat="28.023233180166397" lon="-11.409816956060764"><ele>60.0</ele><time>2026-04-29T10:21:52Z</time></trkpt><trkpt lat="28.023111797491037" lon="-11.409891821880352"><ele>60.0</ele><time>2026-04-29T10:21:53Z</time></trkpt><trkpt lat="28.022987813493412" lon="-11.409970299931306"><ele>60.0</ele><time>2026-04-29T10:21:54Z</time></trkpt><trkpt lat="28.022873565924268" lon="-11.410043944228658"><ele>60.0</ele><time>2026-04-29T10:21:55Z</time></trkpt><trkpt lat="28.02276906194301" lon="-11.410110679379446"><ele>60.0</ele><time>2026-04-29T10:21:56Z</time></trkpt><trkpt lat="28.0226691778285" lon="-11.410170770494476"><ele>60.0</ele><time>2026-04-29T10:21:57Z</time></trkpt><trkpt lat="28.022571169886252" lon="-11.410223380448599"><ele>60.0</ele><time>2026-04-29T10:21:58Z</time></trkpt><trkpt lat="28.02246560280562" lon="-11.410272700841515"><ele>61.0</ele><time>2026-04-29T10:21:59Z</time></trkpt><trkpt lat="28.022361749522595" lon="-11.410320073896575"><ele>62.0</ele><time>2026-04-29T10:22:00Z</time></trkpt><trkpt lat="28.022261288185483" lon="-11.410355904063003"><ele>63.0</ele><time>2026-04-29T10:22:01Z</time></trkpt><trkpt lat="28.022151197621938" lon="-11.410393883793489"><ele>64.0</ele><time>2026-04-29T10:22:02Z</time></trkpt><trkpt lat="28.02204565554059" lon="-11.410427879587212"><ele>65.0</ele><time>2026-04-29T10:22:03Z</time></trkpt><trkpt lat="28.02194944252905" lon="-11.410456313677658"><ele>65.0</ele><time>2026-04-29T10:22:04Z</time></trkpt><trkpt lat="28.02183322062729" lon="-11.410479776114549"><ele>65.0</ele><time>2026-04-29T10:22:05Z</time></trkpt><trkpt lat="28.02171649742637" lon="-11.410498349812011"><ele>65.0</ele><time>2026-04-29T10:22:06Z</time></trkpt><trkpt lat="28.021609694662747" lon="-11.410514488975535"><ele>65.0</ele><time>2026-04-29T10:22:07Z</time></trkpt><trkpt lat="28.02151546713741" lon="-11.410537016446808"><ele>65.0</ele><time>2026-04-29T10:22:08Z</time></trkpt><trkpt lat="28.02143146534372" lon="-11.410569659270744"><ele>64.33333333333334</ele><time>2026-04-29T10:22:09Z</time></trkpt><trkpt lat="28.021358983752155" lon="-11.410625099328662"><ele>63.66666666666667</ele><time>2026-04-29T10:22:10Z</time></trkpt><trkpt lat="28.021300445074846" lon="-11.410675850549966"><ele>63.0</ele><time>2026-04-29T10:22:11Z</time></trkpt><trkpt lat="28.02123731036574" lon="-11.410724779990275"><ele>62.33333333333333</ele><time>2026-04-29T10:22:12Z</time></trkpt><trkpt lat="28.021158170522614" lon="-11.410776659126217"><ele>61.666666666666664</ele><time>2026-04-29T10:22:13Z</time></trkpt><trkpt lat="28.02107058675869" lon="-11.410814987641073"><ele>61.0</ele><time>2026-04-29T10:22:14Z</time></trkpt><trkpt lat="28.020982242394954" lon="-11.41082758711182"><ele>61.0</ele><time>2026-04-29T10:22:15Z</time></trkpt><trkpt lat="28.02088066445622" lon="-11.410838925466068"><ele>60.99999999999999</ele><time>2026-04-29T10:22:16Z</time></trkpt><trkpt lat="28.020788621264717" lon="-11.41086621198214"><ele>60.99999999999999</ele><time>2026-04-29T10:22:17Z</time></trkpt><trkpt lat="28.020709752245843" lon="-11.410911500185662"><ele>61.0</ele><time>2026-04-29T10:22:18Z</time></trkpt><trkpt lat="28.020627174307652" lon="-11.410963668668648"><ele>61.0</ele><time>2026-04-29T10:22:19Z</time></trkpt><trkpt lat="28.02053540467721" lon="-11.411012302530198"><ele>61.599999999999994</ele><time>2026-04-29T10:22:20Z</time></trkpt><trkpt lat="28.02044008807649" lon="-11.411055549591376"><ele>62.199999999999996</ele><time>2026-04-29T10:22:21Z</time></trkpt><trkpt lat="28.020326988676143" lon="-11.411097418787032"><ele>62.800000000000004</ele><time>2026-04-29T10:22:22Z</time></trkpt><trkpt lat="28.020213112483436" lon="-11.411130756025964"><ele>63.400000000000006</ele><time>2026-04-29T10:22:23Z</time></trkpt><trkpt lat="28.020104513860154" lon="-11.411148031729905"><ele>64.0</ele><time>2026-04-29T10:22:24Z</time></trkpt><trkpt lat="28.02000484812887" lon="-11.411154274525456"><ele>64.0</ele><time>2026-04-29T10:22:25Z</time></trkpt><trkpt lat="28.019905428967274" lon="-11.411169526706733"><ele>64.0</ele><time>2026-04-29T10:22:26Z</time></trkpt><trkpt lat="28.019805718501484" lon="-11.41119828519706"><ele>64.0</ele><time>2026-04-29T10:22:27Z</time></trkpt><trkpt lat="28.019710889411726" lon="-11.411241880274668"><ele>64.0</ele><time>2026-04-29T10:22:28Z</time></trkpt><trkpt lat="28.019616815486014" lon="-11.411290067343907"><ele>64.0</ele><time>2026-04-29T10:22:29Z</time></trkpt><trkpt lat="28.01953536890167" lon="-11.411307241621824"><ele>64.0</ele><time>2026-04-29T10:22:30Z</time></trkpt><trkpt lat="28.019455405629724" lon="-11.411304319524383"><ele>64.0</ele><time>2026-04-29T10:22:31Z</time></trkpt><trkpt lat="28.019355238656676" lon="-11.411300272106919"><ele>64.0</ele><time>2026-04-29T10:22:32Z</time></trkpt><trkpt lat="28.019259477352847" lon="-11.411288504511939"><ele>64.0</ele><time>2026-04-29T10:22:33Z</time></trkpt><trkpt lat="28.01915894583387" lon="-11.411272341976614"><ele>64.0</ele><time>2026-04-29T10:22:34Z</time></trkpt><trkpt lat="28.01906403166226" lon="-11.411264665002012"><ele>64.2</ele><time>2026-04-29T10:22:35Z</time></trkpt><trkpt lat="28.018968421786028" lon="-11.411279609607446"><ele>64.4</ele><time>2026-04-29T10:22:36Z</time></trkpt><trkpt lat="28.01886264071042" lon="-11.411317914073978"><ele>64.6</ele><time>2026-04-29T10:22:37Z</time></trkpt><trkpt lat="28.01875691365593" lon="-11.411360479377484"><ele>64.8</ele><time>2026-04-29T10:22:38Z</time></trkpt><trkpt lat="28.018661921151416" lon="-11.411409271534794"><ele>65.0</ele><time>2026-04-29T10:22:39Z</time></trkpt><trkpt lat="28.0185760657884" lon="-11.411468119666981"><ele>65.25</ele><time>2026-04-29T10:22:40Z</time></trkpt><trkpt lat="28.018487289545327" lon="-11.411533618555568"><ele>65.5</ele><time>2026-04-29T10:22:41Z</time></trkpt><trkpt lat="28.018397545662083" lon="-11.411594851314682"><ele>65.75</ele><time>2026-04-29T10:22:42Z</time></trkpt><trkpt lat="28.01829388801625" lon="-11.411645253171642"><ele>66.0</ele><time>2026-04-29T10:22:43Z</time></trkpt><trkpt lat="28.01817188834993" lon="-11.411682510444361"><ele>66.0</ele><time>2026-04-29T10:22:44Z</time></trkpt><trkpt lat="28.018041782208" lon="-11.411728513233111"><ele>66.0</ele><time>2026-04-29T10:22:45Z</time></trkpt><trkpt lat="28.01792143615516" lon="-11.411787502310643"><ele>66.0</ele><time>2026-04-29T10:22:46Z</time></trkpt><trkpt lat="28.017804736341052" lon="-11.411845731705288"><ele>66.0</ele><time>2026-04-29T10:22:47Z</time></trkpt><trkpt lat="28.0176951028357" lon="-11.411883406084167"><ele>66.0</ele><time>2026-04-29T10:22:48Z</time></trkpt><trkpt lat="28.01758092887226" lon="-11.41188952253592"><ele>66.0</ele><time>2026-04-29T10:22:49Z</time></trkpt><trkpt lat="28.017452716171327" lon="-11.411882266000235"><ele>66.0</ele><time>2026-04-29T10:22:50Z</time></trkpt><trkpt lat="28.017324531311946" lon="-11.411870238019402"><ele>66.0</ele><time>2026-04-29T10:22:51Z</time></trkpt><trkpt lat="28.017210514456398" lon="-11.411850080921376"><ele>65.8</ele><time>2026-04-29T10:22:52Z</time></trkpt><trkpt lat="28.01711019041465" lon="-11.411833614991378"><ele>65.6</ele><time>2026-04-29T10:22:53Z</time></trkpt><trkpt lat="28.01702995081085" lon="-11.411827724983551"><ele>65.4</ele><time>2026-04-29T10:22:54Z</time></trkpt><trkpt lat="28.016891378212755" lon="-11.411818568043092"><ele>65.2</ele><time>2026-04-29T10:22:56Z</time></trkpt><trkpt lat="28.016796738536303" lon="-11.4118249668945"><ele>65.0</ele><time>2026-04-29T10:22:57Z</time></trkpt><trkpt lat="28.01670154801182" lon="-11.411848540972551"><ele>65.0</ele><time>2026-04-29T10:22:58Z</time></trkpt><trkpt lat="28.016594244256456" lon="-11.411876145139026"><ele>65.0</ele><time>2026-04-29T10:22:59Z</time></trkpt><trkpt lat="28.016478858335017" lon="-11.411890001045645"><ele>65.0</ele><time>2026-04-29T10:23:00Z</time></trkpt><trkpt lat="28.016384092269842" lon="-11.411908622147704"><ele>65.0</ele><time>2026-04-29T10:23:01Z</time></trkpt><trkpt lat="28.016284335157007" lon="-11.411938747058908"><ele>65.0</ele><time>2026-04-29T10:23:02Z</time></trkpt><trkpt lat="28.01619137872306" lon="-11.41196550752879"><ele>65.0</ele><time>2026-04-29T10:23:03Z</time></trkpt><trkpt lat="28.016113411463678" lon="-11.411980483349605"><ele>65.0</ele><time>2026-04-29T10:23:04Z</time></trkpt><trkpt lat="28.016041780206038" lon="-11.411995340110389"><ele>65.0</ele><time>2026-04-29T10:23:05Z</time></trkpt><trkpt lat="28.01592450379892" lon="-11.41202404969819"><ele>65.0</ele><time>2026-04-29T10:23:07Z</time></trkpt><trkpt lat="28.015815149916335" lon="-11.411994788736012"><ele>65.0</ele><time>2026-04-29T10:23:09Z</time></trkpt><trkpt lat="28.015690621559084" lon="-11.411929669567519"><ele>64.6</ele><time>2026-04-29T10:23:11Z</time></trkpt><trkpt lat="28.01562601668454" lon="-11.411900003116639"><ele>64.2</ele><time>2026-04-29T10:23:12Z</time></trkpt><trkpt lat="28.015500989409613" lon="-11.411862277582273"><ele>63.8</ele><time>2026-04-29T10:23:14Z</time></trkpt><trkpt lat="28.015373005395386" lon="-11.41187847663061"><ele>63.4</ele><time>2026-04-29T10:23:16Z</time></trkpt><trkpt lat="28.01530708830795" lon="-11.411874899779034"><ele>63.0</ele><time>2026-04-29T10:23:17Z</time></trkpt><trkpt lat="28.015231476059153" lon="-11.411846748036359"><ele>63.0</ele><time>2026-04-29T10:23:18Z</time></trkpt><trkpt lat="28.015153597164662" lon="-11.411790810437262"><ele>63.0</ele><time>2026-04-29T10:23:19Z</time></trkpt><trkpt lat="28.015081617209376" lon="-11.411711624596027"><ele>63.0</ele><time>2026-04-29T10:23:20Z</time></trkpt><trkpt lat="28.014997990044083" lon="-11.411627772433677"><ele>63.0</ele><time>2026-04-29T10:23:21Z</time></trkpt><trkpt lat="28.014937606248903" lon="-11.411560698531234"><ele>63.0</ele><time>2026-04-29T10:23:22Z</time></trkpt><trkpt lat="28.014890746880443" lon="-11.41149761844069"><ele>62.833333333333336</ele><time>2026-04-29T10:23:23Z</time></trkpt><trkpt lat="28.01484454823252" lon="-11.411427745488334"><ele>62.66666666666667</ele><time>2026-04-29T10:23:24Z</time></trkpt><trkpt lat="28.014786207016176" lon="-11.411361256277765"><ele>62.5</ele><time>2026-04-29T10:23:25Z</time></trkpt><trkpt lat="28.014720623651574" lon="-11.411302915465141"><ele>62.333333333333336</ele><time>2026-04-29T10:23:26Z</time></trkpt><trkpt lat="28.01466383345554" lon="-11.41125862440922"><ele>62.16666666666667</ele><time>2026-04-29T10:23:27Z</time></trkpt><trkpt lat="28.014601742773028" lon="-11.411221911546216"><ele>62.0</ele><time>2026-04-29T10:23:28Z</time></trkpt><trkpt lat="28.014509950557468" lon="-11.41113032091741"><ele>62.0</ele><time>2026-04-29T10:23:30Z</time></trkpt><trkpt lat="28.014443518565894" lon="-11.41104931291395"><ele>62.0</ele><time>2026-04-29T10:23:32Z</time></trkpt><trkpt lat="28.014375835534032" lon="-11.411037849817612"><ele>62.0</ele><time>2026-04-29T10:23:34Z</time></trkpt><trkpt lat="28.01430124233305" lon="-11.411032777133208"><ele>62.0</ele><time>2026-04-29T10:37:14Z</time></trkpt><trkpt lat="28.01418813101357" lon="-11.411111826453583"><ele>62.0</ele><time>2026-04-29T10:37:16Z</time></trkpt><trkpt lat="28.01411004077146" lon="-11.411159285996483"><ele>61.50000000000001</ele><time>2026-04-29T10:37:17Z</time></trkpt><trkpt lat="28.01404600293209" lon="-11.411177456512588"><ele>61.0</ele><time>2026-04-29T10:37:18Z</time></trkpt><trkpt lat="28.013970346508348" lon="-11.411189755290527"><ele>60.5</ele><time>2026-04-29T10:37:19Z</time></trkpt><trkpt lat="28.01390237811038" lon="-11.411190042338546"><ele>60.0</ele><time>2026-04-29T10:37:20Z</time></trkpt><trkpt lat="28.013832365436762" lon="-11.411195876776073"><ele>59.50000000000001</ele><time>2026-04-29T10:37:21Z</time></trkpt><trkpt lat="28.013733679333388" lon="-11.411201608857073"><ele>59.0</ele><time>2026-04-29T10:37:22Z</time></trkpt><trkpt lat="28.013629184158948" lon="-11.411211813235267"><ele>59.0</ele><time>2026-04-29T10:37:23Z</time></trkpt><trkpt lat="28.013511045483725" lon="-11.411182242272945"><ele>59.0</ele><time>2026-04-29T10:37:24Z</time></trkpt><trkpt lat="28.013371889950992" lon="-11.411115245502879"><ele>59.0</ele><time>2026-04-29T10:37:25Z</time></trkpt><trkpt lat="28.01324805215849" lon="-11.411040692306617"><ele>59.0</ele><time>2026-04-29T10:37:26Z</time></trkpt><trkpt lat="28.013152893278452" lon="-11.410970768876622"><ele>59.00000000000001</ele><time>2026-04-29T10:37:27Z</time></trkpt><trkpt lat="28.013070018701356" lon="-11.410922881878232"><ele>59.0</ele><time>2026-04-29T10:37:28Z</time></trkpt><trkpt lat="28.012992615707066" lon="-11.41089694467111"><ele>59.0</ele><time>2026-04-29T10:37:29Z</time></trkpt><trkpt lat="28.012928967537327" lon="-11.410897545816301"><ele>59.0</ele><time>2026-04-29T10:37:30Z</time></trkpt><trkpt lat="28.01284163076443" lon="-11.410985467359687"><ele>59.00000000000001</ele><time>2026-04-29T10:37:32Z</time></trkpt><trkpt lat="28.012811106081774" lon="-11.411062767093878"><ele>59.0</ele><time>2026-04-29T10:37:33Z</time></trkpt><trkpt lat="28.01277662398574" lon="-11.411176516914914"><ele>59.0</ele><time>2026-04-29T10:37:34Z</time></trkpt><trkpt lat="28.012740821888592" lon="-11.411281871901288"><ele>59.0</ele><time>2026-04-29T10:37:35Z</time></trkpt><trkpt lat="28.01275511236808" lon="-11.411432592875801"><ele>59.0</ele><time>2026-04-29T10:37:37Z</time></trkpt><trkpt lat="28.01279992756869" lon="-11.411559135924188"><ele>59.0</ele><time>2026-04-29T10:37:38Z</time></trkpt><trkpt lat="28.01283675015807" lon="-11.411679022455747"><ele>59.00000000000001</ele><time>2026-04-29T10:37:39Z</time></trkpt><trkpt lat="28.01286953528808" lon="-11.411764410875072"><ele>59.0</ele><time>2026-04-29T10:37:40Z</time></trkpt><trkpt lat="28.012894346435232" lon="-11.411833074164958"><ele>59.0</ele><time>2026-04-29T10:37:41Z</time></trkpt><trkpt lat="28.012903953922685" lon="-11.411980717666625"><ele>59.0</ele><time>2026-04-29T10:37:43Z</time></trkpt><trkpt lat="28.012898809535137" lon="-11.412065836082329"><ele>59.00000000000001</ele><time>2026-04-29T10:37:44Z</time></trkpt><trkpt lat="28.012894454434417" lon="-11.412139620909931"><ele>59.0</ele><time>2026-04-29T10:37:45Z</time></trkpt><trkpt lat="28.012940985929397" lon="-11.412223309741748"><ele>58.800000000000004</ele><time>2026-04-29T10:37:47Z</time></trkpt><trkpt lat="28.013000706630628" lon="-11.41227428745747"><ele>58.60000000000001</ele><time>2026-04-29T10:37:48Z</time></trkpt><trkpt lat="28.013082102233646" lon="-11.412330097138998"><ele>58.4</ele><time>2026-04-29T10:37:49Z</time></trkpt><trkpt lat="28.013149269541348" lon="-11.412376895777527"><ele>58.2</ele><time>2026-04-29T10:37:50Z</time></trkpt><trkpt lat="28.013240059342436" lon="-11.412430247912118"><ele>58.0</ele><time>2026-04-29T10:37:51Z</time></trkpt><trkpt lat="28.013332384628" lon="-11.412507549947637"><ele>58.0</ele><time>2026-04-29T10:37:52Z</time></trkpt><trkpt lat="28.013405522442607" lon="-11.412579123045932"><ele>58.0</ele><time>2026-04-29T10:37:53Z</time></trkpt><trkpt lat="28.013456784504825" lon="-11.412640139163313"><ele>58.0</ele><time>2026-04-29T10:37:54Z</time></trkpt><trkpt lat="28.013497677069886" lon="-11.412779372091205"><ele>58.0</ele><time>2026-04-29T10:37:56Z</time></trkpt><trkpt lat="28.013483382546756" lon="-11.412869698242728"><ele>58.0</ele><time>2026-04-29T10:37:57Z</time></trkpt><trkpt lat="28.013455923311103" lon="-11.412957134063912"><ele>58.42857142857144</ele><time>2026-04-29T10:37:58Z</time></trkpt><trkpt lat="28.013430835999838" lon="-11.413046654818043"><ele>58.85714285714286</ele><time>2026-04-29T10:37:59Z</time></trkpt><trkpt lat="28.013407586864272" lon="-11.413136792710198"><ele>59.285714285714285</ele><time>2026-04-29T10:38:00Z</time></trkpt><trkpt lat="28.013391664127383" lon="-11.41321201100164"><ele>59.714285714285715</ele><time>2026-04-29T10:38:01Z</time></trkpt><trkpt lat="28.013355720910976" lon="-11.41327170160656"><ele>60.14285714285714</ele><time>2026-04-29T10:38:02Z</time></trkpt><trkpt lat="28.01330468309931" lon="-11.413313566587691"><ele>60.57142857142856</ele><time>2026-04-29T10:38:03Z</time></trkpt><trkpt lat="28.01324268286531" lon="-11.413362846906821"><ele>60.99999999999999</ele><time>2026-04-29T10:38:04Z</time></trkpt><trkpt lat="28.013181769939894" lon="-11.413426485650263"><ele>61.5</ele><time>2026-04-29T10:38:05Z</time></trkpt><trkpt lat="28.01309344750289" lon="-11.413497043947991"><ele>62.0</ele><time>2026-04-29T10:38:06Z</time></trkpt><trkpt lat="28.012985457116528" lon="-11.413579866171164"><ele>62.5</ele><time>2026-04-29T10:38:07Z</time></trkpt><trkpt lat="28.012887256493606" lon="-11.413659160917188"><ele>63.0</ele><time>2026-04-29T10:38:08Z</time></trkpt><trkpt lat="28.012788144578607" lon="-11.41371309050426"><ele>63.0</ele><time>2026-04-29T10:38:09Z</time></trkpt><trkpt lat="28.0127008781039" lon="-11.413751900532276"><ele>63.0</ele><time>2026-04-29T10:38:10Z</time></trkpt><trkpt lat="28.012645845954374" lon="-11.41379719010097"><ele>63.0</ele><time>2026-04-29T10:38:11Z</time></trkpt><trkpt lat="28.012608342798295" lon="-11.413867739086093"><ele>63.0</ele><time>2026-04-29T10:38:12Z</time></trkpt><trkpt lat="28.01258642711397" lon="-11.413951970377624"><ele>63.0</ele><time>2026-04-29T10:38:13Z</time></trkpt><trkpt lat="28.012554336086783" lon="-11.414035503961744"><ele>63.0</ele><time>2026-04-29T10:38:14Z</time></trkpt><trkpt lat="28.01248870013444" lon="-11.414101992839251"><ele>64.0</ele><time>2026-04-29T10:38:15Z</time></trkpt><trkpt lat="28.012414318394203" lon="-11.414169844733577"><ele>65.0</ele><time>2026-04-29T10:38:16Z</time></trkpt><trkpt lat="28.012322633254904" lon="-11.414255928271425"><ele>66.0</ele><time>2026-04-29T10:38:17Z</time></trkpt><trkpt lat="28.012221906680058" lon="-11.414329667419043"><ele>67.0</ele><time>2026-04-29T10:38:18Z</time></trkpt><trkpt lat="28.012115685872956" lon="-11.41437965959811"><ele>67.0</ele><time>2026-04-29T10:38:19Z</time></trkpt><trkpt lat="28.01199303791516" lon="-11.414430160995995"><ele>67.0</ele><time>2026-04-29T10:38:20Z</time></trkpt><trkpt lat="28.01187259492303" lon="-11.414506082785307"><ele>67.0</ele><time>2026-04-29T10:38:21Z</time></trkpt><trkpt lat="28.011785843343013" lon="-11.414598886658128"><ele>67.0</ele><time>2026-04-29T10:38:22Z</time></trkpt><trkpt lat="28.011678804735524" lon="-11.414720335520517"><ele>67.0</ele><time>2026-04-29T10:38:23Z</time></trkpt><trkpt lat="28.01154637662883" lon="-11.414838325227443"><ele>67.0</ele><time>2026-04-29T10:38:24Z</time></trkpt><trkpt lat="28.01140449403899" lon="-11.41493773102296"><ele>67.0</ele><time>2026-04-29T10:38:25Z</time></trkpt><trkpt lat="28.011270158960766" lon="-11.415026541403497"><ele>67.0</ele><time>2026-04-29T10:38:26Z</time></trkpt><trkpt lat="28.01112613820916" lon="-11.415105269939646"><ele>67.0</ele><time>2026-04-29T10:38:27Z</time></trkpt><trkpt lat="28.011002170668856" lon="-11.415173264370967"><ele>67.0</ele><time>2026-04-29T10:38:28Z</time></trkpt><trkpt lat="28.010863531074207" lon="-11.415250072425227"><ele>67.66666666666666</ele><time>2026-04-29T10:38:29Z</time></trkpt><trkpt lat="28.010721124180897" lon="-11.41531399109036"><ele>68.33333333333333</ele><time>2026-04-29T10:38:30Z</time></trkpt><trkpt lat="28.01055368946695" lon="-11.415375115858"><ele>69.0</ele><time>2026-04-29T10:38:31Z</time></trkpt><trkpt lat="28.01037131477524" lon="-11.415433923960743"><ele>68.33333333333333</ele><time>2026-04-29T10:38:32Z</time></trkpt><trkpt lat="28.010214801988187" lon="-11.41549054190847"><ele>67.66666666666666</ele><time>2026-04-29T10:38:33Z</time></trkpt><trkpt lat="28.010056547802588" lon="-11.41555321415159"><ele>67.0</ele><time>2026-04-29T10:38:34Z</time></trkpt><trkpt lat="28.009919704794537" lon="-11.415612724154007"><ele>67.0</ele><time>2026-04-29T10:38:35Z</time></trkpt><trkpt lat="28.009771662780803" lon="-11.41566981620931"><ele>67.0</ele><time>2026-04-29T10:38:36Z</time></trkpt><trkpt lat="28.009621114242396" lon="-11.41571627230596"><ele>67.0</ele><time>2026-04-29T10:38:37Z</time></trkpt><trkpt lat="28.009487684196298" lon="-11.415768402481472"><ele>67.0</ele><time>2026-04-29T10:38:38Z</time></trkpt><trkpt lat="28.009379175899895" lon="-11.415816596328566"><ele>67.0</ele><time>2026-04-29T10:38:39Z</time></trkpt><trkpt lat="28.009275569126803" lon="-11.4158480904551"><ele>67.0</ele><time>2026-04-29T10:38:40Z</time></trkpt><trkpt lat="28.00918233398311" lon="-11.415847170076082"><ele>67.0</ele><time>2026-04-29T10:38:41Z</time></trkpt><trkpt lat="28.009090461452104" lon="-11.415824132917233"><ele>67.0</ele><time>2026-04-29T10:38:42Z</time></trkpt><trkpt lat="28.009021246172498" lon="-11.415805084962978"><ele>66.0</ele><time>2026-04-29T10:38:43Z</time></trkpt><trkpt lat="28.008951437211785" lon="-11.41580253819913"><ele>65.0</ele><time>2026-04-29T10:38:44Z</time></trkpt><trkpt lat="28.008854019292457" lon="-11.415804505504035"><ele>64.0</ele><time>2026-04-29T10:38:45Z</time></trkpt><trkpt lat="28.00876929913894" lon="-11.415801779665102"><ele>63.0</ele><time>2026-04-29T10:38:46Z</time></trkpt><trkpt lat="28.008695281652003" lon="-11.415779576591405"><ele>61.99999999999999</ele><time>2026-04-29T10:38:47Z</time></trkpt><trkpt lat="28.008620163423373" lon="-11.415735374758146"><ele>61.0</ele><time>2026-04-29T10:38:48Z</time></trkpt><trkpt lat="28.00853691344853" lon="-11.415682697079166"><ele>61.0</ele><time>2026-04-29T10:38:49Z</time></trkpt><trkpt lat="28.008442507739222" lon="-11.415615089033672"><ele>60.99999999999999</ele><time>2026-04-29T10:38:50Z</time></trkpt><trkpt lat="28.008356253839665" lon="-11.415562130212093"><ele>60.99999999999999</ele><time>2026-04-29T10:38:51Z</time></trkpt><trkpt lat="28.008269727359252" lon="-11.415513014809841"><ele>61.0</ele><time>2026-04-29T10:38:52Z</time></trkpt><trkpt lat="28.008167316044457" lon="-11.415462519723233"><ele>61.0</ele><time>2026-04-29T10:38:53Z</time></trkpt><trkpt lat="28.008096667469612" lon="-11.415393789973349"><ele>61.0</ele><time>2026-04-29T10:38:54Z</time></trkpt><trkpt lat="28.008000640758016" lon="-11.415311674987139"><ele>61.0</ele><time>2026-04-29T10:38:55Z</time></trkpt><trkpt lat="28.00789723843273" lon="-11.415208386525418"><ele>61.0</ele><time>2026-04-29T10:38:56Z</time></trkpt><trkpt lat="28.0077848021863" lon="-11.415088925229698"><ele>61.0</ele><time>2026-04-29T10:38:57Z</time></trkpt><trkpt lat="28.00766367961865" lon="-11.414959748419134"><ele>61.0</ele><time>2026-04-29T10:38:58Z</time></trkpt><trkpt lat="28.007542897266717" lon="-11.414845570544205"><ele>61.0</ele><time>2026-04-29T10:38:59Z</time></trkpt><trkpt lat="28.00744625093671" lon="-11.414751084148584"><ele>61.0</ele><time>2026-04-29T10:39:00Z</time></trkpt><trkpt lat="28.00735270591083" lon="-11.414663666795738"><ele>61.0</ele><time>2026-04-29T10:39:01Z</time></trkpt><trkpt lat="28.007276180208535" lon="-11.414600290609277"><ele>61.33333333333333</ele><time>2026-04-29T10:39:02Z</time></trkpt><trkpt lat="28.007205882431155" lon="-11.414558572252577"><ele>61.666666666666664</ele><time>2026-04-29T10:39:03Z</time></trkpt><trkpt lat="28.007131465774115" lon="-11.414521765320197"><ele>62.0</ele><time>2026-04-29T10:39:04Z</time></trkpt><trkpt lat="28.007050195891672" lon="-11.414478310400183"><ele>62.33333333333333</ele><time>2026-04-29T10:39:06Z</time></trkpt><trkpt lat="28.006979358957842" lon="-11.414458653626697"><ele>62.666666666666664</ele><time>2026-04-29T10:39:12Z</time></trkpt><trkpt lat="28.006884857469064" lon="-11.414482467392117"><ele>63.0</ele><time>2026-04-29T10:39:16Z</time></trkpt><trkpt lat="28.00681104829399" lon="-11.414513567043462"><ele>63.0</ele><time>2026-04-29T10:39:19Z</time></trkpt><trkpt lat="28.00672541935877" lon="-11.41452736534661"><ele>63.0</ele><time>2026-04-29T10:40:17Z</time></trkpt><trkpt lat="28.006662486848978" lon="-11.414544535178733"><ele>63.0</ele><time>2026-04-29T10:40:18Z</time></trkpt><trkpt lat="28.006586427854327" lon="-11.414555014188757"><ele>63.0</ele><time>2026-04-29T10:40:19Z</time></trkpt><trkpt lat="28.006516091164883" lon="-11.414565184716103"><ele>63.0</ele><time>2026-04-29T10:40:20Z</time></trkpt><trkpt lat="28.006432986029818" lon="-11.414582879833146"><ele>63.0</ele><time>2026-04-29T10:40:21Z</time></trkpt><trkpt lat="28.00632602688585" lon="-11.4146187707973"><ele>61.0</ele><time>2026-04-29T10:40:22Z</time></trkpt><trkpt lat="28.006214896200735" lon="-11.414664163406831"><ele>59.0</ele><time>2026-04-29T10:40:23Z</time></trkpt><trkpt lat="28.006110418295727" lon="-11.414718071048425"><ele>57.0</ele><time>2026-04-29T10:40:24Z</time></trkpt><trkpt lat="28.006006662105236" lon="-11.414790633486312"><ele>55.0</ele><time>2026-04-29T10:40:25Z</time></trkpt><trkpt lat="28.005924317992793" lon="-11.414852083308292"><ele>55.0</ele><time>2026-04-29T10:40:26Z</time></trkpt><trkpt lat="28.005856851264518" lon="-11.414935818252507"><ele>55.0</ele><time>2026-04-29T10:40:27Z</time></trkpt><trkpt lat="28.005773357713235" lon="-11.415039669276181"><ele>55.0</ele><time>2026-04-29T10:40:28Z</time></trkpt><trkpt lat="28.00569418021414" lon="-11.41513264183027"><ele>55.0</ele><time>2026-04-29T10:40:29Z</time></trkpt><trkpt lat="28.00564234539705" lon="-11.41520610342654"><ele>55.0</ele><time>2026-04-29T10:40:30Z</time></trkpt><trkpt lat="28.005607194189874" lon="-11.415271534747594"><ele>55.14285714285714</ele><time>2026-04-29T10:40:31Z</time></trkpt><trkpt lat="28.005585729111463" lon="-11.415339503851198"><ele>55.285714285714285</ele><time>2026-04-29T10:40:32Z</time></trkpt><trkpt lat="28.005560501942618" lon="-11.415416444568375"><ele>55.42857142857143</ele><time>2026-04-29T10:40:33Z</time></trkpt><trkpt lat="28.005538586336197" lon="-11.41550653535174"><ele>55.57142857142857</ele><time>2026-04-29T10:40:34Z</time></trkpt><trkpt lat="28.005513468327763" lon="-11.41560584793222"><ele>55.714285714285715</ele><time>2026-04-29T10:40:35Z</time></trkpt><trkpt lat="28.00549087731671" lon="-11.41567783097486"><ele>55.857142857142854</ele><time>2026-04-29T10:40:36Z</time></trkpt><trkpt lat="28.0054743335006" lon="-11.415751026943585"><ele>56.0</ele><time>2026-04-29T10:40:37Z</time></trkpt><trkpt lat="28.005473561544413" lon="-11.415829630757807"><ele>56.0</ele><time>2026-04-29T10:40:38Z</time></trkpt><trkpt lat="28.005496317114517" lon="-11.415915007765468"><ele>55.99999999999999</ele><time>2026-04-29T10:40:39Z</time></trkpt><trkpt lat="28.0055439906709" lon="-11.416000020669895"><ele>55.99999999999999</ele><time>2026-04-29T10:40:40Z</time></trkpt><trkpt lat="28.005585673056768" lon="-11.416054570524818"><ele>56.0</ele><time>2026-04-29T10:40:41Z</time></trkpt><trkpt lat="28.00562112615673" lon="-11.416213563523266"><ele>56.0</ele><time>2026-04-29T10:40:43Z</time></trkpt><trkpt lat="28.00562373895934" lon="-11.416309015343986"><ele>56.199999999999996</ele><time>2026-04-29T10:40:44Z</time></trkpt><trkpt lat="28.005656089773215" lon="-11.41640833123506"><ele>56.39999999999999</ele><time>2026-04-29T10:40:46Z</time></trkpt><trkpt lat="28.005658175856187" lon="-11.416494194392326"><ele>56.6</ele><time>2026-04-29T10:40:48Z</time></trkpt><trkpt lat="28.005606953696827" lon="-11.416596359811821"><ele>56.8</ele><time>2026-04-29T10:40:50Z</time></trkpt><trkpt lat="28.005513416299344" lon="-11.416656295642918"><ele>57.0</ele><time>2026-04-29T10:40:52Z</time></trkpt><trkpt lat="28.005384368831884" lon="-11.41668191873045"><ele>57.0</ele><time>2026-04-29T10:40:54Z</time></trkpt><trkpt lat="28.005309459501156" lon="-11.416689901970663"><ele>57.0</ele><time>2026-04-29T10:40:55Z</time></trkpt><trkpt lat="28.00523350844387" lon="-11.416701833064138"><ele>57.0</ele><time>2026-04-29T10:40:56Z</time></trkpt><trkpt lat="28.005155935882822" lon="-11.416725356073902"><ele>57.0</ele><time>2026-04-29T10:40:57Z</time></trkpt><trkpt lat="28.005055224070937" lon="-11.416754244613932"><ele>57.0</ele><time>2026-04-29T10:40:58Z</time></trkpt><trkpt lat="28.004938887528443" lon="-11.416781331133086"><ele>56.8</ele><time>2026-04-29T10:40:59Z</time></trkpt><trkpt lat="28.00483552939251" lon="-11.416793335686098"><ele>56.6</ele><time>2026-04-29T10:41:00Z</time></trkpt><trkpt lat="28.004725184881107" lon="-11.416789178806045"><ele>56.39999999999999</ele><time>2026-04-29T10:41:01Z</time></trkpt><trkpt lat="28.004608704047328" lon="-11.41677231301035"><ele>56.199999999999996</ele><time>2026-04-29T10:41:02Z</time></trkpt><trkpt lat="28.004493974191163" lon="-11.416745094986972"><ele>56.0</ele><time>2026-04-29T10:41:03Z</time></trkpt><trkpt lat="28.00438674139524" lon="-11.416710216709555"><ele>56.0</ele><time>2026-04-29T10:41:04Z</time></trkpt><trkpt lat="28.004296382276156" lon="-11.416675111112626"><ele>55.99999999999999</ele><time>2026-04-29T10:41:05Z</time></trkpt><trkpt lat="28.004217967530753" lon="-11.41663277543504"><ele>55.99999999999999</ele><time>2026-04-29T10:41:06Z</time></trkpt><trkpt lat="28.00414248748078" lon="-11.416578347825304"><ele>56.0</ele><time>2026-04-29T10:41:07Z</time></trkpt><trkpt lat="28.00407778865461" lon="-11.416524727607744"><ele>56.0</ele><time>2026-04-29T10:41:08Z</time></trkpt><trkpt lat="28.003986075811692" lon="-11.416416952157332"><ele>56.50000000000001</ele><time>2026-04-29T10:41:10Z</time></trkpt><trkpt lat="28.0039259670513" lon="-11.41634506987281"><ele>57.0</ele><time>2026-04-29T10:41:11Z</time></trkpt><trkpt lat="28.00388267714672" lon="-11.416287139462275"><ele>57.5</ele><time>2026-04-29T10:41:12Z</time></trkpt><trkpt lat="28.003841166179598" lon="-11.416228999378893"><ele>58.0</ele><time>2026-04-29T10:41:13Z</time></trkpt><trkpt lat="28.003815912616457" lon="-11.416160695678805"><ele>58.50000000000001</ele><time>2026-04-29T10:41:14Z</time></trkpt><trkpt lat="28.003795098003724" lon="-11.416060592334397"><ele>59.0</ele><time>2026-04-29T10:41:15Z</time></trkpt><trkpt lat="28.003770790868693" lon="-11.415961083094935"><ele>59.0</ele><time>2026-04-29T10:41:16Z</time></trkpt><trkpt lat="28.003731605525587" lon="-11.415848800584598"><ele>59.00000000000001</ele><time>2026-04-29T10:41:17Z</time></trkpt><trkpt lat="28.00368361715498" lon="-11.415744483353148"><ele>59.00000000000001</ele><time>2026-04-29T10:41:18Z</time></trkpt><trkpt lat="28.00364045039066" lon="-11.41564581796096"><ele>59.0</ele><time>2026-04-29T10:41:19Z</time></trkpt><trkpt lat="28.0036093476324" lon="-11.415557551265923"><ele>59.0</ele><time>2026-04-29T10:41:20Z</time></trkpt><trkpt lat="28.003586998927766" lon="-11.41549049984614"><ele>59.00000000000001</ele><time>2026-04-29T10:41:21Z</time></trkpt><trkpt lat="28.00354143400351" lon="-11.41541883757125"><ele>59.0</ele><time>2026-04-29T10:41:23Z</time></trkpt><trkpt lat="28.003453409098007" lon="-11.415394496028416"><ele>59.0</ele><time>2026-04-29T10:41:25Z</time></trkpt><trkpt lat="28.003389314591857" lon="-11.415376966544166"><ele>59.0</ele><time>2026-04-29T10:41:26Z</time></trkpt><trkpt lat="28.00332307698857" lon="-11.415348166495745"><ele>59.00000000000001</ele><time>2026-04-29T10:41:27Z</time></trkpt><trkpt lat="28.003223993114364" lon="-11.415279054184237"><ele>59.0</ele><time>2026-04-29T10:41:29Z</time></trkpt><trkpt lat="28.00313311111271" lon="-11.415233314892332"><ele>59.00000000000001</ele><time>2026-04-29T10:41:30Z</time></trkpt><trkpt lat="28.003031631304605" lon="-11.415199185240779"><ele>59.0</ele><time>2026-04-29T10:41:31Z</time></trkpt><trkpt lat="28.002939506670067" lon="-11.415191458433124"><ele>59.0</ele><time>2026-04-29T10:41:32Z</time></trkpt><trkpt lat="28.002859957632452" lon="-11.41519031308391"><ele>59.0</ele><time>2026-04-29T10:41:33Z</time></trkpt><trkpt lat="28.002787447261287" lon="-11.415189477754419"><ele>59.00000000000001</ele><time>2026-04-29T10:41:34Z</time></trkpt><trkpt lat="28.002719984881367" lon="-11.415195385069227"><ele>59.0</ele><time>2026-04-29T10:41:35Z</time></trkpt><trkpt lat="28.002654691169493" lon="-11.415208299888766"><ele>59.00000000000001</ele><time>2026-04-29T10:41:36Z</time></trkpt><trkpt lat="28.002591648226705" lon="-11.415203422600163"><ele>59.0</ele><time>2026-04-29T10:41:37Z</time></trkpt><trkpt lat="28.00252070608219" lon="-11.41521782101791"><ele>59.0</ele><time>2026-04-29T10:41:38Z</time></trkpt><trkpt lat="28.00244777971592" lon="-11.41524558181377"><ele>59.0</ele><time>2026-04-29T10:41:39Z</time></trkpt><trkpt lat="28.00236161573483" lon="-11.415269547765972"><ele>59.00000000000001</ele><time>2026-04-29T10:41:40Z</time></trkpt><trkpt lat="28.00226739914189" lon="-11.415293369174769"><ele>59.0</ele><time>2026-04-29T10:41:41Z</time></trkpt><trkpt lat="28.002183553283352" lon="-11.415300794534605"><ele>60.0</ele><time>2026-04-29T10:41:42Z</time></trkpt><trkpt lat="28.00209002631128" lon="-11.415306075529243"><ele>61.0</ele><time>2026-04-29T10:41:43Z</time></trkpt><trkpt lat="28.001982286611" lon="-11.415315819105828"><ele>62.0</ele><time>2026-04-29T10:41:44Z</time></trkpt><trkpt lat="28.001854727359863" lon="-11.415337064871988"><ele>63.0</ele><time>2026-04-29T10:41:45Z</time></trkpt><trkpt lat="28.00171585225993" lon="-11.415358041170864"><ele>63.0</ele><time>2026-04-29T10:41:46Z</time></trkpt><trkpt lat="28.00160069050408" lon="-11.415376909716255"><ele>63.0</ele><time>2026-04-29T10:41:47Z</time></trkpt><trkpt lat="28.0015040012132" lon="-11.4153879280933"><ele>63.0</ele><time>2026-04-29T10:41:48Z</time></trkpt><trkpt lat="28.001417267102347" lon="-11.415378069037235"><ele>63.0</ele><time>2026-04-29T10:41:49Z</time></trkpt><trkpt lat="28.001320699856993" lon="-11.415340593014943"><ele>63.0</ele><time>2026-04-29T10:41:50Z</time></trkpt><trkpt lat="28.001196587382545" lon="-11.415260105069867"><ele>63.0</ele><time>2026-04-29T10:41:51Z</time></trkpt><trkpt lat="28.001066982888737" lon="-11.415167830044565"><ele>63.0</ele><time>2026-04-29T10:41:52Z</time></trkpt><trkpt lat="28.000926968877575" lon="-11.41508323495928"><ele>63.0</ele><time>2026-04-29T10:41:53Z</time></trkpt><trkpt lat="28.000775879941134" lon="-11.41499614106624"><ele>64.0</ele><time>2026-04-29T10:41:54Z</time></trkpt><trkpt lat="28.000657306443866" lon="-11.41492152656378"><ele>65.0</ele><time>2026-04-29T10:41:55Z</time></trkpt><trkpt lat="28.000573484976844" lon="-11.414859311267557"><ele>66.0</ele><time>2026-04-29T10:41:56Z</time></trkpt><trkpt lat="28.000512316323828" lon="-11.414793105322923"><ele>67.0</ele><time>2026-04-29T10:41:57Z</time></trkpt><trkpt lat="28.00044964040165" lon="-11.414718530489742"><ele>68.0</ele><time>2026-04-29T10:41:58Z</time></trkpt><trkpt lat="28.000372628833446" lon="-11.41464832708948"><ele>68.0</ele><time>2026-04-29T10:41:59Z</time></trkpt><trkpt lat="28.000277099479842" lon="-11.414593405751784"><ele>68.0</ele><time>2026-04-29T10:42:00Z</time></trkpt><trkpt lat="28.000185531948485" lon="-11.41455017767459"><ele>68.0</ele><time>2026-04-29T10:42:01Z</time></trkpt><trkpt lat="28.000086962730624" lon="-11.414519953289371"><ele>68.0</ele><time>2026-04-29T10:42:02Z</time></trkpt><trkpt lat="27.99999418633758" lon="-11.414509999237715"><ele>68.0</ele><time>2026-04-29T10:42:03Z</time></trkpt><trkpt lat="27.999911633469022" lon="-11.414528141736211"><ele>68.0</ele><time>2026-04-29T10:42:04Z</time></trkpt><trkpt lat="27.999812416902795" lon="-11.41456815749538"><ele>68.0</ele><time>2026-04-29T10:42:05Z</time></trkpt><trkpt lat="27.999715442862655" lon="-11.414609583958775"><ele>68.0</ele><time>2026-04-29T10:42:06Z</time></trkpt><trkpt lat="27.999619330046862" lon="-11.414651565555934"><ele>68.0</ele><time>2026-04-29T10:42:07Z</time></trkpt><trkpt lat="27.999555746935552" lon="-11.414698257330432"><ele>68.0</ele><time>2026-04-29T10:42:08Z</time></trkpt><trkpt lat="27.999483334173373" lon="-11.414764999677793"><ele>68.4</ele><time>2026-04-29T10:42:09Z</time></trkpt><trkpt lat="27.999415844042627" lon="-11.414854097825684"><ele>68.8</ele><time>2026-04-29T10:42:10Z</time></trkpt><trkpt lat="27.999356142781927" lon="-11.414944882729237"><ele>69.2</ele><time>2026-04-29T10:42:11Z</time></trkpt><trkpt lat="27.99928469185343" lon="-11.41500249855602"><ele>69.6</ele><time>2026-04-29T10:42:12Z</time></trkpt><trkpt lat="27.99918875388535" lon="-11.415048057882524"><ele>70.0</ele><time>2026-04-29T10:42:13Z</time></trkpt><trkpt lat="27.999080519933774" lon="-11.415092193257667"><ele>70.75</ele><time>2026-04-29T10:42:14Z</time></trkpt><trkpt lat="27.99896610002027" lon="-11.415139485261676"><ele>71.5</ele><time>2026-04-29T10:42:15Z</time></trkpt><trkpt lat="27.998844470565565" lon="-11.415181347449854"><ele>72.25</ele><time>2026-04-29T10:42:16Z</time></trkpt><trkpt lat="27.99871236668735" lon="-11.415199228874028"><ele>73.0</ele><time>2026-04-29T10:42:17Z</time></trkpt><trkpt lat="27.998561921065857" lon="-11.415185112967132"><ele>73.0</ele><time>2026-04-29T10:42:18Z</time></trkpt><trkpt lat="27.998387455166625" lon="-11.415160478106085"><ele>73.0</ele><time>2026-04-29T10:42:19Z</time></trkpt><trkpt lat="27.998223695678597" lon="-11.415152110128478"><ele>73.0</ele><time>2026-04-29T10:42:20Z</time></trkpt><trkpt lat="27.998080636260795" lon="-11.41517459700827"><ele>72.66666666666666</ele><time>2026-04-29T10:42:21Z</time></trkpt><trkpt lat="27.997928194429313" lon="-11.4152117647282"><ele>72.33333333333333</ele><time>2026-04-29T10:42:22Z</time></trkpt><trkpt lat="27.997771078524462" lon="-11.415251493140511"><ele>72.0</ele><time>2026-04-29T10:42:23Z</time></trkpt><trkpt lat="27.99762501736022" lon="-11.415298005772794"><ele>72.25</ele><time>2026-04-29T10:42:24Z</time></trkpt><trkpt lat="27.997484188298714" lon="-11.415357264111963"><ele>72.5</ele><time>2026-04-29T10:42:25Z</time></trkpt><trkpt lat="27.99736057343924" lon="-11.415422968335724"><ele>72.75</ele><time>2026-04-29T10:42:26Z</time></trkpt><trkpt lat="27.997218303923567" lon="-11.415455193826162"><ele>73.0</ele><time>2026-04-29T10:42:27Z</time></trkpt><trkpt lat="27.997040226523417" lon="-11.415472285491802"><ele>73.66666666666666</ele><time>2026-04-29T10:42:28Z</time></trkpt><trkpt lat="27.996858927381076" lon="-11.415493396154243"><ele>74.33333333333333</ele><time>2026-04-29T10:42:29Z</time></trkpt><trkpt lat="27.996697175651818" lon="-11.415526302600231"><ele>75.0</ele><time>2026-04-29T10:42:30Z</time></trkpt><trkpt lat="27.996545029503142" lon="-11.415559842750097"><ele>75.0</ele><time>2026-04-29T10:42:31Z</time></trkpt><trkpt lat="27.99639085217179" lon="-11.415585579858208"><ele>75.0</ele><time>2026-04-29T10:42:32Z</time></trkpt><trkpt lat="27.996241706464016" lon="-11.415572227930696"><ele>75.0</ele><time>2026-04-29T10:42:33Z</time></trkpt><trkpt lat="27.996068154483396" lon="-11.415590132302704"><ele>75.0</ele><time>2026-04-29T10:42:34Z</time></trkpt><trkpt lat="27.995917543840253" lon="-11.415634834995627"><ele>75.0</ele><time>2026-04-29T10:42:35Z</time></trkpt><trkpt lat="27.995780777127734" lon="-11.415668904801613"><ele>75.0</ele><time>2026-04-29T10:42:36Z</time></trkpt><trkpt lat="27.995655189641788" lon="-11.41567924956232"><ele>75.0</ele><time>2026-04-29T10:42:37Z</time></trkpt><trkpt lat="27.9955372835583" lon="-11.415665039100315"><ele>74.75</ele><time>2026-04-29T10:42:38Z</time></trkpt><trkpt lat="27.995410614301264" lon="-11.415624886114081"><ele>74.5</ele><time>2026-04-29T10:42:39Z</time></trkpt><trkpt lat="27.995279986547573" lon="-11.415570415765133"><ele>74.25</ele><time>2026-04-29T10:42:40Z</time></trkpt><trkpt lat="27.995168703854485" lon="-11.415507857610121"><ele>74.0</ele><time>2026-04-29T10:42:41Z</time></trkpt><trkpt lat="27.99507481655505" lon="-11.41545809367045"><ele>74.33333333333334</ele><time>2026-04-29T10:42:42Z</time></trkpt><trkpt lat="27.99500051421193" lon="-11.415403478069793"><ele>74.66666666666667</ele><time>2026-04-29T10:42:43Z</time></trkpt><trkpt lat="27.994945223256153" lon="-11.415334941626762"><ele>75.0</ele><time>2026-04-29T10:42:44Z</time></trkpt><trkpt lat="27.994914329021164" lon="-11.415256383379951"><ele>75.33333333333333</ele><time>2026-04-29T10:42:45Z</time></trkpt><trkpt lat="27.994897612978658" lon="-11.415177242115472"><ele>75.66666666666666</ele><time>2026-04-29T10:42:46Z</time></trkpt><trkpt lat="27.994889552581157" lon="-11.415096232357893"><ele>76.0</ele><time>2026-04-29T10:42:47Z</time></trkpt><trkpt lat="27.9948899197141" lon="-11.415004974560658"><ele>76.0</ele><time>2026-04-29T10:42:48Z</time></trkpt><trkpt lat="27.994890366968594" lon="-11.4149077894165"><ele>76.0</ele><time>2026-04-29T10:42:49Z</time></trkpt><trkpt lat="27.99486308772941" lon="-11.41483635325208"><ele>76.0</ele><time>2026-04-29T10:42:51Z</time></trkpt><trkpt lat="27.99480995445354" lon="-11.414792936400756"><ele>76.0</ele><time>2026-04-29T10:42:55Z</time></trkpt><trkpt lat="27.99475476802328" lon="-11.414752096764753"><ele>76.0</ele><time>2026-04-29T10:43:22Z</time></trkpt><trkpt lat="27.99467901528675" lon="-11.414724394721205"><ele>76.0</ele><time>2026-04-29T10:43:24Z</time></trkpt><trkpt lat="27.994570124639992" lon="-11.414686757359357"><ele>75.66666666666666</ele><time>2026-04-29T10:43:26Z</time></trkpt><trkpt lat="27.994450058334525" lon="-11.414648210596853"><ele>75.33333333333333</ele><time>2026-04-29T10:43:28Z</time></trkpt><trkpt lat="27.994389050924312" lon="-11.414628296702249"><ele>75.0</ele><time>2026-04-29T10:43:29Z</time></trkpt><trkpt lat="27.994318020509528" lon="-11.414610807661209"><ele>74.66666666666667</ele><time>2026-04-29T10:43:30Z</time></trkpt><trkpt lat="27.994240107770434" lon="-11.414588631594986"><ele>74.33333333333334</ele><time>2026-04-29T10:43:31Z</time></trkpt><trkpt lat="27.994146105160755" lon="-11.414558677215991"><ele>74.0</ele><time>2026-04-29T10:43:32Z</time></trkpt><trkpt lat="27.994066292817035" lon="-11.414539015210769"><ele>75.16666666666667</ele><time>2026-04-29T10:43:33Z</time></trkpt><trkpt lat="27.99398217076212" lon="-11.414520477623443"><ele>76.33333333333334</ele><time>2026-04-29T10:43:34Z</time></trkpt><trkpt lat="27.993905286084434" lon="-11.414509990149165"><ele>77.5</ele><time>2026-04-29T10:43:35Z</time></trkpt><trkpt lat="27.993827067128073" lon="-11.414512171539343"><ele>78.66666666666667</ele><time>2026-04-29T10:43:36Z</time></trkpt><trkpt lat="27.99375675333019" lon="-11.414524815178387"><ele>79.83333333333333</ele><time>2026-04-29T10:43:37Z</time></trkpt><trkpt lat="27.99365474777562" lon="-11.414543539220626"><ele>81.0</ele><time>2026-04-29T10:43:38Z</time></trkpt><trkpt lat="27.993539719692574" lon="-11.414552324282074"><ele>81.0</ele><time>2026-04-29T10:43:39Z</time></trkpt><trkpt lat="27.993433324795852" lon="-11.41455424167838"><ele>81.0</ele><time>2026-04-29T10:43:40Z</time></trkpt><trkpt lat="27.993337129082445" lon="-11.414550210372607"><ele>81.0</ele><time>2026-04-29T10:43:41Z</time></trkpt><trkpt lat="27.993248042837703" lon="-11.414553199832621"><ele>81.0</ele><time>2026-04-29T10:43:42Z</time></trkpt><trkpt lat="27.993174483951403" lon="-11.414565414967536"><ele>81.0</ele><time>2026-04-29T10:43:43Z</time></trkpt><trkpt lat="27.99309022518811" lon="-11.414587386577018"><ele>81.19999999999999</ele><time>2026-04-29T10:43:44Z</time></trkpt><trkpt lat="27.99302040944971" lon="-11.414608046563773"><ele>81.39999999999999</ele><time>2026-04-29T10:43:45Z</time></trkpt><trkpt lat="27.992930307740405" lon="-11.414633178302491"><ele>81.6</ele><time>2026-04-29T10:43:46Z</time></trkpt><trkpt lat="27.992822598718938" lon="-11.414674247666591"><ele>81.8</ele><time>2026-04-29T10:43:47Z</time></trkpt><trkpt lat="27.992714705037717" lon="-11.414704022325674"><ele>82.0</ele><time>2026-04-29T10:43:48Z</time></trkpt><trkpt lat="27.992611783403223" lon="-11.4147259891111"><ele>81.8</ele><time>2026-04-29T10:43:49Z</time></trkpt><trkpt lat="27.992516775428754" lon="-11.414750877837987"><ele>81.6</ele><time>2026-04-29T10:43:50Z</time></trkpt><trkpt lat="27.992440232269523" lon="-11.4147947089993"><ele>81.39999999999999</ele><time>2026-04-29T10:43:51Z</time></trkpt><trkpt lat="27.992370978611916" lon="-11.414873406241727"><ele>81.19999999999999</ele><time>2026-04-29T10:43:52Z</time></trkpt><trkpt lat="27.992289313551932" lon="-11.414960087745994"><ele>81.0</ele><time>2026-04-29T10:43:53Z</time></trkpt><trkpt lat="27.992210345143203" lon="-11.415030712995538"><ele>81.0</ele><time>2026-04-29T10:43:54Z</time></trkpt><trkpt lat="27.992134512813706" lon="-11.41507072691744"><ele>81.0</ele><time>2026-04-29T10:43:55Z</time></trkpt><trkpt lat="27.992051496820128" lon="-11.415083305265409"><ele>81.0</ele><time>2026-04-29T10:43:56Z</time></trkpt><trkpt lat="27.99193820279934" lon="-11.415079960215547"><ele>81.0</ele><time>2026-04-29T10:43:57Z</time></trkpt><trkpt lat="27.99182841906552" lon="-11.415072901165255"><ele>81.0</ele><time>2026-04-29T10:43:58Z</time></trkpt><trkpt lat="27.991738448185142" lon="-11.415075010779022"><ele>81.4</ele><time>2026-04-29T10:43:59Z</time></trkpt><trkpt lat="27.991667642572512" lon="-11.41512154293558"><ele>81.8</ele><time>2026-04-29T10:44:00Z</time></trkpt><trkpt lat="27.991587294987774" lon="-11.415180714244615"><ele>82.2</ele><time>2026-04-29T10:44:01Z</time></trkpt><trkpt lat="27.991495175291078" lon="-11.415255250744977"><ele>82.60000000000001</ele><time>2026-04-29T10:44:02Z</time></trkpt><trkpt lat="27.991376074229986" lon="-11.41533661001487"><ele>83.0</ele><time>2026-04-29T10:44:03Z</time></trkpt><trkpt lat="27.991263133528854" lon="-11.415398948747047"><ele>83.0</ele><time>2026-04-29T10:44:04Z</time></trkpt><trkpt lat="27.991156942737675" lon="-11.415434294400319"><ele>83.0</ele><time>2026-04-29T10:44:05Z</time></trkpt><trkpt lat="27.99105091130138" lon="-11.415460599098832"><ele>83.0</ele><time>2026-04-29T10:44:06Z</time></trkpt><trkpt lat="27.990952293133375" lon="-11.415466717858727"><ele>83.0</ele><time>2026-04-29T10:44:07Z</time></trkpt><trkpt lat="27.990856052495214" lon="-11.415465004923892"><ele>83.0</ele><time>2026-04-29T10:44:08Z</time></trkpt><trkpt lat="27.990775369128162" lon="-11.415432818888421"><ele>83.0</ele><time>2026-04-29T10:44:09Z</time></trkpt><trkpt lat="27.990688149022894" lon="-11.415371437469908"><ele>83.0</ele><time>2026-04-29T10:44:10Z</time></trkpt><trkpt lat="27.99060961802141" lon="-11.41529103870328"><ele>83.0</ele><time>2026-04-29T10:44:11Z</time></trkpt><trkpt lat="27.990547069662846" lon="-11.415204353374524"><ele>83.0</ele><time>2026-04-29T10:44:12Z</time></trkpt><trkpt lat="27.99048382463641" lon="-11.415115687629909"><ele>83.0</ele><time>2026-04-29T10:44:13Z</time></trkpt><trkpt lat="27.99041695503731" lon="-11.41503538198402"><ele>83.0</ele><time>2026-04-29T10:44:14Z</time></trkpt><trkpt lat="27.990335861817428" lon="-11.414985903898833"><ele>83.0</ele><time>2026-04-29T10:44:15Z</time></trkpt><trkpt lat="27.99024470853498" lon="-11.414961107209098"><ele>83.0</ele><time>2026-04-29T10:44:16Z</time></trkpt><trkpt lat="27.990137877159004" lon="-11.414947488631727"><ele>83.0</ele><time>2026-04-29T10:44:17Z</time></trkpt><trkpt lat="27.99003503120178" lon="-11.414909697668394"><ele>83.0</ele><time>2026-04-29T10:44:18Z</time></trkpt><trkpt lat="27.989916662045328" lon="-11.414843871886795"><ele>83.0</ele><time>2026-04-29T10:44:19Z</time></trkpt><trkpt lat="27.989808063160297" lon="-11.414789678333552"><ele>83.0</ele><time>2026-04-29T10:44:20Z</time></trkpt><trkpt lat="27.989703025004978" lon="-11.414743267166463"><ele>83.0</ele><time>2026-04-29T10:44:21Z</time></trkpt><trkpt lat="27.989615365822758" lon="-11.414690648139148"><ele>83.0</ele><time>2026-04-29T10:44:22Z</time></trkpt><trkpt lat="27.989518082171728" lon="-11.414658365428867"><ele>83.0</ele><time>2026-04-29T10:44:23Z</time></trkpt><trkpt lat="27.989408899235848" lon="-11.414651821734022"><ele>82.75</ele><time>2026-04-29T10:44:24Z</time></trkpt><trkpt lat="27.989288471520545" lon="-11.414667918214194"><ele>82.5</ele><time>2026-04-29T10:44:25Z</time></trkpt><trkpt lat="27.98916497795146" lon="-11.414672228110105"><ele>82.25</ele><time>2026-04-29T10:44:26Z</time></trkpt><trkpt lat="27.989053307127858" lon="-11.41465294266206"><ele>82.0</ele><time>2026-04-29T10:44:27Z</time></trkpt><trkpt lat="27.98895583587118" lon="-11.414615196730157"><ele>82.0</ele><time>2026-04-29T10:44:28Z</time></trkpt><trkpt lat="27.988849183267302" lon="-11.414542414157046"><ele>82.0</ele><time>2026-04-29T10:44:29Z</time></trkpt><trkpt lat="27.98872180629958" lon="-11.414481586012805"><ele>82.0</ele><time>2026-04-29T10:44:30Z</time></trkpt><trkpt lat="27.988625374900582" lon="-11.414445873807166"><ele>82.0</ele><time>2026-04-29T10:44:31Z</time></trkpt><trkpt lat="27.988536655410897" lon="-11.4144101976303"><ele>82.0</ele><time>2026-04-29T10:44:32Z</time></trkpt><trkpt lat="27.988472082418475" lon="-11.414354766703507"><ele>82.0</ele><time>2026-04-29T10:44:33Z</time></trkpt><trkpt lat="27.98840404400098" lon="-11.414307514891819"><ele>82.0</ele><time>2026-04-29T10:44:34Z</time></trkpt><trkpt lat="27.98830473608154" lon="-11.414277433192137"><ele>82.0</ele><time>2026-04-29T10:44:35Z</time></trkpt><trkpt lat="27.988165991781766" lon="-11.414252309153092"><ele>82.0</ele><time>2026-04-29T10:44:36Z</time></trkpt><trkpt lat="27.987996878190373" lon="-11.414236598129769"><ele>81.75</ele><time>2026-04-29T10:44:37Z</time></trkpt><trkpt lat="27.98785100297968" lon="-11.414213631324769"><ele>81.5</ele><time>2026-04-29T10:44:38Z</time></trkpt><trkpt lat="27.987739538019994" lon="-11.41417598109993"><ele>81.25</ele><time>2026-04-29T10:44:39Z</time></trkpt><trkpt lat="27.987644452316655" lon="-11.414132460774388"><ele>81.0</ele><time>2026-04-29T10:44:40Z</time></trkpt><trkpt lat="27.987547841803533" lon="-11.414077684725553"><ele>81.25</ele><time>2026-04-29T10:44:41Z</time></trkpt><trkpt lat="27.987426023843334" lon="-11.414006011982583"><ele>81.5</ele><time>2026-04-29T10:44:42Z</time></trkpt><trkpt lat="27.987298465910275" lon="-11.413929234833697"><ele>81.75</ele><time>2026-04-29T10:44:43Z</time></trkpt><trkpt lat="27.987167740996703" lon="-11.41386058197494"><ele>82.0</ele><time>2026-04-29T10:44:44Z</time></trkpt><trkpt lat="27.987018439390983" lon="-11.413802776491574"><ele>83.0</ele><time>2026-04-29T10:44:45Z</time></trkpt><trkpt lat="27.986845710804666" lon="-11.413766896967601"><ele>84.0</ele><time>2026-04-29T10:44:46Z</time></trkpt><trkpt lat="27.986679165400222" lon="-11.413734873881895"><ele>85.0</ele><time>2026-04-29T10:44:47Z</time></trkpt><trkpt lat="27.98652864183797" lon="-11.413713073753254"><ele>85.0</ele><time>2026-04-29T10:44:48Z</time></trkpt><trkpt lat="27.986372236341065" lon="-11.413708256565688"><ele>85.0</ele><time>2026-04-29T10:44:49Z</time></trkpt><trkpt lat="27.986200398689533" lon="-11.413693095113253"><ele>85.0</ele><time>2026-04-29T10:44:50Z</time></trkpt><trkpt lat="27.986032649026164" lon="-11.413656539078408"><ele>85.0</ele><time>2026-04-29T10:44:51Z</time></trkpt><trkpt lat="27.9858578122627" lon="-11.413599091885509"><ele>85.0</ele><time>2026-04-29T10:44:52Z</time></trkpt><trkpt lat="27.985685656501065" lon="-11.41353801931205"><ele>85.0</ele><time>2026-04-29T10:44:53Z</time></trkpt><trkpt lat="27.985521756587335" lon="-11.413473906888557"><ele>84.75</ele><time>2026-04-29T10:44:54Z</time></trkpt><trkpt lat="27.985384439032295" lon="-11.413403446394453"><ele>84.5</ele><time>2026-04-29T10:44:55Z</time></trkpt><trkpt lat="27.985258301890095" lon="-11.413322006214516"><ele>84.25</ele><time>2026-04-29T10:44:56Z</time></trkpt><trkpt lat="27.98514584599915" lon="-11.413235974637887"><ele>84.0</ele><time>2026-04-29T10:44:57Z</time></trkpt><trkpt lat="27.98504439009829" lon="-11.413139245930262"><ele>84.0</ele><time>2026-04-29T10:44:58Z</time></trkpt><trkpt lat="27.984943413542204" lon="-11.41305738229245"><ele>84.0</ele><time>2026-04-29T10:44:59Z</time></trkpt><trkpt lat="27.98482715439883" lon="-11.412986542166898"><ele>84.0</ele><time>2026-04-29T10:45:00Z</time></trkpt><trkpt lat="27.984708786231963" lon="-11.412899224044889"><ele>84.0</ele><time>2026-04-29T10:45:01Z</time></trkpt><trkpt lat="27.98460212241182" lon="-11.412805650659694"><ele>84.5</ele><time>2026-04-29T10:45:02Z</time></trkpt><trkpt lat="27.98450061008914" lon="-11.41271475661814"><ele>85.0</ele><time>2026-04-29T10:45:03Z</time></trkpt><trkpt lat="27.984410730732908" lon="-11.412614481858848"><ele>85.5</ele><time>2026-04-29T10:45:04Z</time></trkpt><trkpt lat="27.98432194090172" lon="-11.412493941711128"><ele>86.0</ele><time>2026-04-29T10:45:05Z</time></trkpt><trkpt lat="27.98422663766559" lon="-11.412372630447612"><ele>86.0</ele><time>2026-04-29T10:45:06Z</time></trkpt><trkpt lat="27.984121524303372" lon="-11.412255235173768"><ele>86.0</ele><time>2026-04-29T10:45:07Z</time></trkpt><trkpt lat="27.984018397832486" lon="-11.412136126480021"><ele>86.0</ele><time>2026-04-29T10:45:08Z</time></trkpt><trkpt lat="27.983918040804685" lon="-11.41200871876119"><ele>86.0</ele><time>2026-04-29T10:45:09Z</time></trkpt><trkpt lat="27.983806427451288" lon="-11.411883049176073"><ele>86.0</ele><time>2026-04-29T10:45:10Z</time></trkpt><trkpt lat="27.98367576065991" lon="-11.411751661978391"><ele>86.0</ele><time>2026-04-29T10:45:11Z</time></trkpt><trkpt lat="27.983557964973997" lon="-11.41162017611248"><ele>86.0</ele><time>2026-04-29T10:45:12Z</time></trkpt><trkpt lat="27.9834313473438" lon="-11.411481310166998"><ele>85.66666666666667</ele><time>2026-04-29T10:45:13Z</time></trkpt><trkpt lat="27.983300275894415" lon="-11.411349028759043"><ele>85.33333333333333</ele><time>2026-04-29T10:45:14Z</time></trkpt><trkpt lat="27.983174141560337" lon="-11.411219361239521"><ele>85.0</ele><time>2026-04-29T10:45:15Z</time></trkpt><trkpt lat="27.983060746627554" lon="-11.411087431675519"><ele>85.0</ele><time>2026-04-29T10:45:16Z</time></trkpt><trkpt lat="27.98294285856523" lon="-11.41096510521027"><ele>85.0</ele><time>2026-04-29T10:45:17Z</time></trkpt><trkpt lat="27.982818391641356" lon="-11.41084393147121"><ele>85.0</ele><time>2026-04-29T10:45:18Z</time></trkpt><trkpt lat="27.982709403300003" lon="-11.410719399797573"><ele>85.0</ele><time>2026-04-29T10:45:19Z</time></trkpt><trkpt lat="27.982599511502976" lon="-11.410588893059929"><ele>85.0</ele><time>2026-04-29T10:45:20Z</time></trkpt><trkpt lat="27.982505651487127" lon="-11.410482629460454"><ele>85.0</ele><time>2026-04-29T10:45:21Z</time></trkpt><trkpt lat="27.98241243266186" lon="-11.410380991808621"><ele>85.0</ele><time>2026-04-29T10:45:22Z</time></trkpt><trkpt lat="27.982339523050694" lon="-11.410291276727673"><ele>85.2</ele><time>2026-04-29T10:45:23Z</time></trkpt><trkpt lat="27.982270538957213" lon="-11.410234926381314"><ele>85.4</ele><time>2026-04-29T10:45:24Z</time></trkpt><trkpt lat="27.9821961343524" lon="-11.410174240969518"><ele>85.6</ele><time>2026-04-29T10:45:25Z</time></trkpt><trkpt lat="27.982099393671998" lon="-11.410102994920369"><ele>85.8</ele><time>2026-04-29T10:45:27Z</time></trkpt><trkpt lat="27.982000229907513" lon="-11.410107139192743"><ele>86.0</ele><time>2026-04-29T10:46:02Z</time></trkpt><trkpt lat="27.981907782396934" lon="-11.410219805631632"><ele>86.0</ele><time>2026-04-29T10:46:04Z</time></trkpt><trkpt lat="27.981860218132823" lon="-11.410278168933582"><ele>86.0</ele><time>2026-04-29T10:46:05Z</time></trkpt><trkpt lat="27.981812810347215" lon="-11.410335004961254"><ele>86.0</ele><time>2026-04-29T10:46:06Z</time></trkpt><trkpt lat="27.98175530579276" lon="-11.410402812813798"><ele>86.0</ele><time>2026-04-29T10:46:07Z</time></trkpt><trkpt lat="27.981695927872245" lon="-11.410466118389262"><ele>86.0</ele><time>2026-04-29T10:46:08Z</time></trkpt><trkpt lat="27.981623045218594" lon="-11.410534222506248"><ele>86.0</ele><time>2026-04-29T10:46:09Z</time></trkpt><trkpt lat="27.981556029054925" lon="-11.410606880361392"><ele>86.0</ele><time>2026-04-29T10:46:10Z</time></trkpt><trkpt lat="27.981482651704965" lon="-11.410682492607055"><ele>86.0</ele><time>2026-04-29T10:46:11Z</time></trkpt><trkpt lat="27.981422902705866" lon="-11.41075004949749"><ele>86.0</ele><time>2026-04-29T10:46:12Z</time></trkpt><trkpt lat="27.981387784285506" lon="-11.410814980006885"><ele>86.0</ele><time>2026-04-29T10:46:13Z</time></trkpt><trkpt lat="27.981345498160525" lon="-11.410956618510248"><ele>86.0</ele><time>2026-04-29T10:46:15Z</time></trkpt><trkpt lat="27.98132222613154" lon="-11.411052807868208"><ele>86.0</ele><time>2026-04-29T10:46:16Z</time></trkpt><trkpt lat="27.981309012022482" lon="-11.41115395222545"><ele>86.0</ele><time>2026-04-29T10:46:17Z</time></trkpt><trkpt lat="27.981301413570915" lon="-11.411268722727936"><ele>86.0</ele><time>2026-04-29T10:46:18Z</time></trkpt><trkpt lat="27.981303367752272" lon="-11.41140095039378"><ele>86.0</ele><time>2026-04-29T10:46:19Z</time></trkpt><trkpt lat="27.981306813135937" lon="-11.411518810722118"><ele>86.0</ele><time>2026-04-29T10:46:20Z</time></trkpt><trkpt lat="27.981322245203962" lon="-11.411626350528554"><ele>86.0</ele><time>2026-04-29T10:46:21Z</time></trkpt><trkpt lat="27.981329291523803" lon="-11.411738371997505"><ele>86.0</ele><time>2026-04-29T10:46:22Z</time></trkpt><trkpt lat="27.981329993806607" lon="-11.411850672591026"><ele>86.0</ele><time>2026-04-29T10:46:23Z</time></trkpt><trkpt lat="27.981331240661042" lon="-11.41195289716386"><ele>86.0</ele><time>2026-04-29T10:46:24Z</time></trkpt><trkpt lat="27.98133244654842" lon="-11.412065497835323"><ele>86.0</ele><time>2026-04-29T10:46:25Z</time></trkpt><trkpt lat="27.981339047717857" lon="-11.412165017397456"><ele>85.6</ele><time>2026-04-29T10:46:26Z</time></trkpt><trkpt lat="27.981340294074588" lon="-11.412268016281443"><ele>85.19999999999999</ele><time>2026-04-29T10:46:27Z</time></trkpt><trkpt lat="27.98134364056178" lon="-11.41236966595753"><ele>84.80000000000001</ele><time>2026-04-29T10:46:28Z</time></trkpt><trkpt lat="27.98134914291457" lon="-11.412487255957043"><ele>84.4</ele><time>2026-04-29T10:46:29Z</time></trkpt><trkpt lat="27.98134598854137" lon="-11.412608963919821"><ele>84.0</ele><time>2026-04-29T10:46:30Z</time></trkpt><trkpt lat="27.98134051839046" lon="-11.412720704092274"><ele>84.0</ele><time>2026-04-29T10:46:31Z</time></trkpt><trkpt lat="27.9813340968356" lon="-11.412834820468566"><ele>84.0</ele><time>2026-04-29T10:46:32Z</time></trkpt><trkpt lat="27.98131991351905" lon="-11.412928891373994"><ele>84.0</ele><time>2026-04-29T10:46:33Z</time></trkpt><trkpt lat="27.981297713341334" lon="-11.413007314974056"><ele>84.0</ele><time>2026-04-29T10:46:34Z</time></trkpt><trkpt lat="27.981206783723213" lon="-11.413122410846729"><ele>84.0</ele><time>2026-04-29T10:46:36Z</time></trkpt><trkpt lat="27.981115941608873" lon="-11.413176705362263"><ele>83.75</ele><time>2026-04-29T10:46:37Z</time></trkpt><trkpt lat="27.980988752659176" lon="-11.413234965870078"><ele>83.5</ele><time>2026-04-29T10:46:38Z</time></trkpt><trkpt lat="27.980862489805407" lon="-11.41328744121909"><ele>83.25</ele><time>2026-04-29T10:46:39Z</time></trkpt><trkpt lat="27.98076640311883" lon="-11.413342914318976"><ele>83.0</ele><time>2026-04-29T10:46:40Z</time></trkpt><trkpt lat="27.98066593245322" lon="-11.41342126793006"><ele>83.25</ele><time>2026-04-29T10:46:41Z</time></trkpt><trkpt lat="27.980554655824243" lon="-11.413520468225283"><ele>83.5</ele><time>2026-04-29T10:46:42Z</time></trkpt><trkpt lat="27.980437238391662" lon="-11.41363481816164"><ele>83.75</ele><time>2026-04-29T10:46:43Z</time></trkpt><trkpt lat="27.980341689929766" lon="-11.413746292567774"><ele>84.0</ele><time>2026-04-29T10:46:44Z</time></trkpt><trkpt lat="27.98026875153172" lon="-11.413847748788495"><ele>84.0</ele><time>2026-04-29T10:46:45Z</time></trkpt><trkpt lat="27.98021300641248" lon="-11.41395102174368"><ele>84.0</ele><time>2026-04-29T10:46:46Z</time></trkpt><trkpt lat="27.98016204754824" lon="-11.414063810816085"><ele>84.0</ele><time>2026-04-29T10:46:47Z</time></trkpt><trkpt lat="27.980106045416722" lon="-11.414184635553012"><ele>84.0</ele><time>2026-04-29T10:46:48Z</time></trkpt><trkpt lat="27.980060334583033" lon="-11.41430495585596"><ele>84.2</ele><time>2026-04-29T10:46:49Z</time></trkpt><trkpt lat="27.98001079389978" lon="-11.414428316839334"><ele>84.4</ele><time>2026-04-29T10:46:50Z</time></trkpt><trkpt lat="27.979971085649005" lon="-11.414523066035366"><ele>84.6</ele><time>2026-04-29T10:46:51Z</time></trkpt><trkpt lat="27.97993874107857" lon="-11.414611269590592"><ele>84.8</ele><time>2026-04-29T10:46:52Z</time></trkpt><trkpt lat="27.97990463076216" lon="-11.414700463233862"><ele>85.0</ele><time>2026-04-29T10:46:53Z</time></trkpt><trkpt lat="27.97986627368871" lon="-11.414788518695907"><ele>85.2</ele><time>2026-04-29T10:46:54Z</time></trkpt><trkpt lat="27.979827299303537" lon="-11.414880742748707"><ele>85.4</ele><time>2026-04-29T10:46:55Z</time></trkpt><trkpt lat="27.97978628201414" lon="-11.414986884122717"><ele>85.6</ele><time>2026-04-29T10:46:56Z</time></trkpt><trkpt lat="27.979741622931627" lon="-11.415078805085797"><ele>85.8</ele><time>2026-04-29T10:46:57Z</time></trkpt><trkpt lat="27.979693787856824" lon="-11.41518512731564"><ele>86.0</ele><time>2026-04-29T10:46:58Z</time></trkpt><trkpt lat="27.979648799420833" lon="-11.41528641426254"><ele>86.0</ele><time>2026-04-29T10:46:59Z</time></trkpt><trkpt lat="27.979608791839347" lon="-11.415394036437991"><ele>86.0</ele><time>2026-04-29T10:47:00Z</time></trkpt><trkpt lat="27.979555760195574" lon="-11.415532017114765"><ele>86.0</ele><time>2026-04-29T10:47:01Z</time></trkpt><trkpt lat="27.979487220355452" lon="-11.415668145945325"><ele>86.0</ele><time>2026-04-29T10:47:02Z</time></trkpt><trkpt lat="27.97940728082058" lon="-11.415789997891833"><ele>86.0</ele><time>2026-04-29T10:47:03Z</time></trkpt><trkpt lat="27.979318476697447" lon="-11.415914323133457"><ele>86.0</ele><time>2026-04-29T10:47:04Z</time></trkpt><trkpt lat="27.97922142357209" lon="-11.416044370874324"><ele>86.0</ele><time>2026-04-29T10:47:05Z</time></trkpt><trkpt lat="27.979132574802858" lon="-11.416150096108742"><ele>86.0</ele><time>2026-04-29T10:47:06Z</time></trkpt><trkpt lat="27.97905665294777" lon="-11.41624656475116"><ele>86.0</ele><time>2026-04-29T10:47:07Z</time></trkpt><trkpt lat="27.97898025183773" lon="-11.4163461777851"><ele>86.0</ele><time>2026-04-29T10:47:08Z</time></trkpt><trkpt lat="27.978917738487908" lon="-11.416435133447848"><ele>86.0</ele><time>2026-04-29T10:47:09Z</time></trkpt><trkpt lat="27.978845697607806" lon="-11.416531577032112"><ele>86.0</ele><time>2026-04-29T10:47:10Z</time></trkpt><trkpt lat="27.978774061230734" lon="-11.416631005161639"><ele>86.0</ele><time>2026-04-29T10:47:11Z</time></trkpt><trkpt lat="27.978704010757422" lon="-11.416715188555386"><ele>86.0</ele><time>2026-04-29T10:47:12Z</time></trkpt><trkpt lat="27.97864474318025" lon="-11.416791972940654"><ele>86.0</ele><time>2026-04-29T10:47:13Z</time></trkpt><trkpt lat="27.978587877423664" lon="-11.416866437496187"><ele>86.0</ele><time>2026-04-29T10:47:14Z</time></trkpt><trkpt lat="27.978531288541497" lon="-11.416948619053267"><ele>86.0</ele><time>2026-04-29T10:47:15Z</time></trkpt><trkpt lat="27.978476157098694" lon="-11.417020423976203"><ele>86.0</ele><time>2026-04-29T10:47:16Z</time></trkpt><trkpt lat="27.978420679104158" lon="-11.417094757912134"><ele>86.0</ele><time>2026-04-29T10:47:17Z</time></trkpt><trkpt lat="27.97837498734404" lon="-11.417157483252575"><ele>84.8</ele><time>2026-04-29T10:47:18Z</time></trkpt><trkpt lat="27.978312754214542" lon="-11.417261835501156"><ele>83.6</ele><time>2026-04-29T10:47:20Z</time></trkpt><trkpt lat="27.978281494571178" lon="-11.417328830616201"><ele>82.4</ele><time>2026-04-29T10:47:22Z</time></trkpt><trkpt lat="27.978242083178657" lon="-11.417403478345484"><ele>81.2</ele><time>2026-04-29T10:47:24Z</time></trkpt><trkpt lat="27.978184518824758" lon="-11.417507906122472"><ele>80.0</ele><time>2026-04-29T10:47:26Z</time></trkpt><trkpt lat="27.978120349729824" lon="-11.417595100886926"><ele>80.0</ele><time>2026-04-29T10:47:28Z</time></trkpt><trkpt lat="27.978052984666636" lon="-11.417699223748246"><ele>80.0</ele><time>2026-04-29T10:47:30Z</time></trkpt><trkpt lat="27.977987879597706" lon="-11.417797261918084"><ele>80.0</ele><time>2026-04-29T10:47:32Z</time></trkpt><trkpt lat="27.9779465053741" lon="-11.417903340132776"><ele>80.0</ele><time>2026-04-29T10:47:34Z</time></trkpt><trkpt lat="27.977921948667447" lon="-11.418030464666307"><ele>80.0</ele><time>2026-04-29T10:47:36Z</time></trkpt><trkpt lat="27.977925702702006" lon="-11.418171102271007"><ele>79.6</ele><time>2026-04-29T10:47:38Z</time></trkpt><trkpt lat="27.977926564363127" lon="-11.41826131898928"><ele>79.2</ele><time>2026-04-29T10:47:39Z</time></trkpt><trkpt lat="27.977922553541685" lon="-11.418350396794235"><ele>78.8</ele><time>2026-04-29T10:47:40Z</time></trkpt><trkpt lat="27.97791065005572" lon="-11.418479252900188"><ele>78.4</ele><time>2026-04-29T10:47:41Z</time></trkpt><trkpt lat="27.977903932676963" lon="-11.418586178165201"><ele>78.0</ele><time>2026-04-29T10:47:42Z</time></trkpt><trkpt lat="27.97789151489497" lon="-11.418706510423544"><ele>77.83333333333333</ele><time>2026-04-29T10:47:43Z</time></trkpt><trkpt lat="27.97787974912748" lon="-11.418830408873673"><ele>77.66666666666667</ele><time>2026-04-29T10:47:44Z</time></trkpt><trkpt lat="27.977877606238728" lon="-11.418931421363494"><ele>77.5</ele><time>2026-04-29T10:47:45Z</time></trkpt><trkpt lat="27.977898050684466" lon="-11.419018537088125"><ele>77.33333333333334</ele><time>2026-04-29T10:47:46Z</time></trkpt><trkpt lat="27.9779323678112" lon="-11.41910158343357"><ele>77.16666666666667</ele><time>2026-04-29T10:47:47Z</time></trkpt><trkpt lat="27.977958252658784" lon="-11.419180738121856"><ele>77.0</ele><time>2026-04-29T10:47:48Z</time></trkpt><trkpt lat="27.977971207380616" lon="-11.419273751123189"><ele>77.0</ele><time>2026-04-29T10:47:49Z</time></trkpt><trkpt lat="27.977968826603433" lon="-11.419366445807007"><ele>77.0</ele><time>2026-04-29T10:47:50Z</time></trkpt><trkpt lat="27.97796108247612" lon="-11.419488437090886"><ele>77.0</ele><time>2026-04-29T10:47:51Z</time></trkpt><trkpt lat="27.977966533567777" lon="-11.419597321564632"><ele>77.0</ele><time>2026-04-29T10:47:52Z</time></trkpt><trkpt lat="27.97798434487456" lon="-11.419706247497686"><ele>77.0</ele><time>2026-04-29T10:47:53Z</time></trkpt><trkpt lat="27.977996824485924" lon="-11.419793559320293"><ele>76.6</ele><time>2026-04-29T10:47:54Z</time></trkpt><trkpt lat="27.977999474236572" lon="-11.419891745688965"><ele>76.2</ele><time>2026-04-29T10:47:55Z</time></trkpt><trkpt lat="27.977998889759778" lon="-11.420010788256084"><ele>75.8</ele><time>2026-04-29T10:47:56Z</time></trkpt><trkpt lat="27.97799110890112" lon="-11.420130445017136"><ele>75.4</ele><time>2026-04-29T10:47:57Z</time></trkpt><trkpt lat="27.97797905689746" lon="-11.42026334623601"><ele>75.0</ele><time>2026-04-29T10:47:58Z</time></trkpt><trkpt lat="27.977963567396987" lon="-11.42039849099953"><ele>75.2</ele><time>2026-04-29T10:47:59Z</time></trkpt><trkpt lat="27.977960502217506" lon="-11.420507301590323"><ele>75.4</ele><time>2026-04-29T10:48:00Z</time></trkpt><trkpt lat="27.977952626029147" lon="-11.420623789545756"><ele>75.6</ele><time>2026-04-29T10:48:01Z</time></trkpt><trkpt lat="27.977946934632108" lon="-11.42076480392893"><ele>75.8</ele><time>2026-04-29T10:48:02Z</time></trkpt><trkpt lat="27.977951272419546" lon="-11.420904186562579"><ele>76.0</ele><time>2026-04-29T10:48:03Z</time></trkpt><trkpt lat="27.977967074321757" lon="-11.421045041560095"><ele>76.0</ele><time>2026-04-29T10:48:04Z</time></trkpt><trkpt lat="27.977963810026196" lon="-11.421176593233948"><ele>76.0</ele><time>2026-04-29T10:48:05Z</time></trkpt><trkpt lat="27.97794848966642" lon="-11.421308477722244"><ele>76.0</ele><time>2026-04-29T10:48:06Z</time></trkpt><trkpt lat="27.97793092908787" lon="-11.421430921988375"><ele>76.0</ele><time>2026-04-29T10:48:07Z</time></trkpt><trkpt lat="27.977918128852913" lon="-11.421541456767212"><ele>76.0</ele><time>2026-04-29T10:48:08Z</time></trkpt><trkpt lat="27.977895665207964" lon="-11.421611754663342"><ele>76.0</ele><time>2026-04-29T10:48:09Z</time></trkpt><trkpt lat="27.97783101142699" lon="-11.42169797792253"><ele>76.0</ele><time>2026-04-29T10:48:11Z</time></trkpt><trkpt lat="27.977745664406548" lon="-11.421690085108496"><ele>76.0</ele><time>2026-04-29T10:48:13Z</time></trkpt><trkpt lat="27.977680053071" lon="-11.421664613248339"><ele>76.0</ele><time>2026-04-29T10:48:14Z</time></trkpt><trkpt lat="27.977598274576078" lon="-11.421632746594351"><ele>76.0</ele><time>2026-04-29T10:48:15Z</time></trkpt><trkpt lat="27.9775091753672" lon="-11.421606244337926"><ele>76.0</ele><time>2026-04-29T10:48:16Z</time></trkpt><trkpt lat="27.977438395063537" lon="-11.421573115697608"><ele>76.0</ele><time>2026-04-29T10:48:17Z</time></trkpt><trkpt lat="27.97736851043812" lon="-11.421532228154188"><ele>76.0</ele><time>2026-04-29T10:48:18Z</time></trkpt><trkpt lat="27.977284267151397" lon="-11.421494974816868"><ele>76.0</ele><time>2026-04-29T10:48:19Z</time></trkpt><trkpt lat="27.977191531918695" lon="-11.421461347649487"><ele>76.0</ele><time>2026-04-29T10:48:20Z</time></trkpt><trkpt lat="27.977110864396593" lon="-11.421427082615448"><ele>76.0</ele><time>2026-04-29T10:48:21Z</time></trkpt><trkpt lat="27.977025484817723" lon="-11.421392634095843"><ele>76.0</ele><time>2026-04-29T10:48:22Z</time></trkpt><trkpt lat="27.976946694647932" lon="-11.421365829630828"><ele>76.0</ele><time>2026-04-29T10:48:23Z</time></trkpt><trkpt lat="27.976868477396785" lon="-11.421335261832164"><ele>76.0</ele><time>2026-04-29T10:48:24Z</time></trkpt><trkpt lat="27.97680383564009" lon="-11.421315472532289"><ele>76.0</ele><time>2026-04-29T10:48:25Z</time></trkpt><trkpt lat="27.976686737865982" lon="-11.421281530055822"><ele>76.0</ele><time>2026-04-29T10:48:27Z</time></trkpt><trkpt lat="27.97662055419927" lon="-11.421253172462698"><ele>76.0</ele><time>2026-04-29T10:48:28Z</time></trkpt><trkpt lat="27.97656143618607" lon="-11.421209475457516"><ele>76.0</ele><time>2026-04-29T10:48:29Z</time></trkpt><trkpt lat="27.976496406667618" lon="-11.421167310729714"><ele>76.2</ele><time>2026-04-29T10:48:30Z</time></trkpt><trkpt lat="27.97641029664586" lon="-11.42112525778322"><ele>76.39999999999999</ele><time>2026-04-29T10:48:31Z</time></trkpt><trkpt lat="27.976320630408196" lon="-11.4210864715011"><ele>76.6</ele><time>2026-04-29T10:48:32Z</time></trkpt><trkpt lat="27.976227037872096" lon="-11.421051680362249"><ele>76.8</ele><time>2026-04-29T10:48:33Z</time></trkpt><trkpt lat="27.976138468579247" lon="-11.42101621192554"><ele>77.0</ele><time>2026-04-29T10:48:34Z</time></trkpt><trkpt lat="27.97606081777649" lon="-11.42097714630407"><ele>77.0</ele><time>2026-04-29T10:48:35Z</time></trkpt><trkpt lat="27.975988472032075" lon="-11.420949470810205"><ele>77.0</ele><time>2026-04-29T10:48:36Z</time></trkpt><trkpt lat="27.97591461061736" lon="-11.420914338563428"><ele>77.0</ele><time>2026-04-29T10:48:37Z</time></trkpt><trkpt lat="27.975829548382478" lon="-11.420874846056996"><ele>77.0</ele><time>2026-04-29T10:48:38Z</time></trkpt><trkpt lat="27.9756871574872" lon="-11.420839890324029"><ele>77.0</ele><time>2026-04-29T10:48:40Z</time></trkpt><trkpt lat="27.975575004557644" lon="-11.420863396034749"><ele>77.0</ele><time>2026-04-29T10:48:42Z</time></trkpt><trkpt lat="27.975504431036107" lon="-11.420887733733766"><ele>77.0</ele><time>2026-04-29T10:48:44Z</time></trkpt><trkpt lat="27.97544119183148" lon="-11.420910628175244"><ele>77.0</ele><time>2026-04-29T10:48:47Z</time></trkpt><trkpt lat="27.975375058651984" lon="-11.420926126261566"><ele>77.0</ele><time>2026-04-29T10:48:50Z</time></trkpt><trkpt lat="27.975330501770067" lon="-11.4209909419165"><ele>77.0</ele><time>2026-04-29T10:48:53Z</time></trkpt><trkpt lat="27.975325435477487" lon="-11.421095602949038"><ele>77.0</ele><time>2026-04-29T10:48:55Z</time></trkpt><trkpt lat="27.97522629605216" lon="-11.421138127614174"><ele>77.0</ele><time>2026-04-29T10:48:58Z</time></trkpt><trkpt lat="27.975158275580117" lon="-11.421139977349496"><ele>77.0</ele><time>2026-04-29T10:48:59Z</time></trkpt><trkpt lat="27.975094429590932" lon="-11.42107713806665"><ele>77.0</ele><time>2026-04-29T10:49:02Z</time></trkpt><trkpt lat="27.975129063153677" lon="-11.420929413557651"><ele>77.0</ele><time>2026-04-29T10:49:04Z</time></trkpt><trkpt lat="27.975184321314114" lon="-11.420885088282391"><ele>77.0</ele><time>2026-04-29T10:49:05Z</time></trkpt><trkpt lat="27.975287981345677" lon="-11.42088674860222"><ele>77.0</ele><time>2026-04-29T10:49:07Z</time></trkpt><trkpt lat="27.97535243187746" lon="-11.420886776269928"><ele>77.0</ele><time>2026-04-29T10:49:09Z</time></trkpt><trkpt lat="27.975348361957796" lon="-11.420977366010526"><ele>77.0</ele><time>2026-04-29T10:49:13Z</time></trkpt><trkpt lat="27.975275599883837" lon="-11.421014039871771"><ele>77.0</ele><time>2026-04-29T10:52:38Z</time></trkpt><trkpt lat="27.975212371674274" lon="-11.421054739481617"><ele>77.0</ele><time>2026-04-29T10:52:39Z</time></trkpt><trkpt lat="27.97512415649594" lon="-11.421104703791425"><ele>77.0</ele><time>2026-04-29T10:52:40Z</time></trkpt><trkpt lat="27.975035022247923" lon="-11.421146442679538"><ele>77.0</ele><time>2026-04-29T10:52:41Z</time></trkpt><trkpt lat="27.97493744500696" lon="-11.42119738962309"><ele>77.0</ele><time>2026-04-29T10:52:42Z</time></trkpt><trkpt lat="27.97484051016306" lon="-11.421242944944604"><ele>77.0</ele><time>2026-04-29T10:52:43Z</time></trkpt><trkpt lat="27.974744882299294" lon="-11.421280164911106"><ele>77.0</ele><time>2026-04-29T10:52:44Z</time></trkpt><trkpt lat="27.97464478688868" lon="-11.421319191979526"><ele>77.0</ele><time>2026-04-29T10:52:45Z</time></trkpt><trkpt lat="27.974545721870747" lon="-11.421360449506313"><ele>77.16666666666667</ele><time>2026-04-29T10:52:46Z</time></trkpt><trkpt lat="27.974461497528736" lon="-11.42140021037409"><ele>77.33333333333334</ele><time>2026-04-29T10:52:47Z</time></trkpt><trkpt lat="27.974403393896942" lon="-11.421447353479072"><ele>77.5</ele><time>2026-04-29T10:52:48Z</time></trkpt><trkpt lat="27.974348816999132" lon="-11.421486286608301"><ele>77.66666666666667</ele><time>2026-04-29T10:52:49Z</time></trkpt><trkpt lat="27.974283639528437" lon="-11.421524529552542"><ele>77.83333333333333</ele><time>2026-04-29T10:52:50Z</time></trkpt><trkpt lat="27.974219914704733" lon="-11.42156962197543"><ele>78.0</ele><time>2026-04-29T10:52:51Z</time></trkpt><trkpt lat="27.974143093443182" lon="-11.421645205198542"><ele>78.2</ele><time>2026-04-29T10:52:52Z</time></trkpt><trkpt lat="27.974056508341494" lon="-11.421734266895387"><ele>78.4</ele><time>2026-04-29T10:52:53Z</time></trkpt><trkpt lat="27.973973293460613" lon="-11.421815387949902"><ele>78.60000000000001</ele><time>2026-04-29T10:52:54Z</time></trkpt><trkpt lat="27.97390125857489" lon="-11.42187181485557"><ele>78.8</ele><time>2026-04-29T10:52:55Z</time></trkpt><trkpt lat="27.973829625097473" lon="-11.42190253215182"><ele>79.0</ele><time>2026-04-29T10:52:56Z</time></trkpt><trkpt lat="27.973740079984964" lon="-11.421927710473438"><ele>79.0</ele><time>2026-04-29T10:52:57Z</time></trkpt><trkpt lat="27.973649770539573" lon="-11.421944833847503"><ele>79.0</ele><time>2026-04-29T10:52:58Z</time></trkpt><trkpt lat="27.973520697971594" lon="-11.421976144199235"><ele>79.0</ele><time>2026-04-29T10:53:00Z</time></trkpt><trkpt lat="27.973395512244252" lon="-11.422026442651143"><ele>79.0</ele><time>2026-04-29T10:53:02Z</time></trkpt><trkpt lat="27.973305208753914" lon="-11.422056180813842"><ele>79.25</ele><time>2026-04-29T10:53:03Z</time></trkpt><trkpt lat="27.97319421326761" lon="-11.422100583973219"><ele>79.5</ele><time>2026-04-29T10:53:04Z</time></trkpt><trkpt lat="27.973085391697392" lon="-11.422164789318622"><ele>79.75</ele><time>2026-04-29T10:53:05Z</time></trkpt><trkpt lat="27.97297982131284" lon="-11.422247445024276"><ele>80.0</ele><time>2026-04-29T10:53:06Z</time></trkpt><trkpt lat="27.97286188939" lon="-11.422352688181588"><ele>80.0</ele><time>2026-04-29T10:53:07Z</time></trkpt><trkpt lat="27.972758489966488" lon="-11.42243789612071"><ele>80.0</ele><time>2026-04-29T10:53:08Z</time></trkpt><trkpt lat="27.972658748923582" lon="-11.422523889505229"><ele>80.0</ele><time>2026-04-29T10:53:09Z</time></trkpt><trkpt lat="27.972547324645166" lon="-11.422614754439135"><ele>80.0</ele><time>2026-04-29T10:53:10Z</time></trkpt><trkpt lat="27.972431048755414" lon="-11.422710895460131"><ele>80.0</ele><time>2026-04-29T10:53:11Z</time></trkpt><trkpt lat="27.97230342619767" lon="-11.422811295364871"><ele>80.0</ele><time>2026-04-29T10:53:12Z</time></trkpt><trkpt lat="27.972154554968114" lon="-11.422909284794317"><ele>80.0</ele><time>2026-04-29T10:53:13Z</time></trkpt><trkpt lat="27.972001827126306" lon="-11.423003952811989"><ele>80.0</ele><time>2026-04-29T10:53:14Z</time></trkpt><trkpt lat="27.971835152488325" lon="-11.42309892601216"><ele>80.0</ele><time>2026-04-29T10:53:15Z</time></trkpt><trkpt lat="27.971668578753505" lon="-11.423192701290633"><ele>80.0</ele><time>2026-04-29T10:53:16Z</time></trkpt><trkpt lat="27.971519169209984" lon="-11.423272433421007"><ele>80.0</ele><time>2026-04-29T10:53:17Z</time></trkpt><trkpt lat="27.971381545881574" lon="-11.42332622666878"><ele>80.0</ele><time>2026-04-29T10:53:18Z</time></trkpt><trkpt lat="27.97124799217973" lon="-11.423361302066631"><ele>80.0</ele><time>2026-04-29T10:53:19Z</time></trkpt><trkpt lat="27.971079297075555" lon="-11.42339465538465"><ele>80.0</ele><time>2026-04-29T10:53:20Z</time></trkpt><trkpt lat="27.970894749824172" lon="-11.423410817253158"><ele>80.0</ele><time>2026-04-29T10:53:21Z</time></trkpt><trkpt lat="27.97074886922305" lon="-11.42340925687615"><ele>80.0</ele><time>2026-04-29T10:53:22Z</time></trkpt><trkpt lat="27.970618304145653" lon="-11.423400069325979"><ele>80.25</ele><time>2026-04-29T10:53:23Z</time></trkpt><trkpt lat="27.970487274137405" lon="-11.423393977330276"><ele>80.5</ele><time>2026-04-29T10:53:24Z</time></trkpt><trkpt lat="27.97037619325693" lon="-11.423392664980511"><ele>80.75</ele><time>2026-04-29T10:53:25Z</time></trkpt><trkpt lat="27.970265582812928" lon="-11.42338354062776"><ele>81.0</ele><time>2026-04-29T10:53:26Z</time></trkpt><trkpt lat="27.970146617350295" lon="-11.423380960225854"><ele>81.5</ele><time>2026-04-29T10:53:27Z</time></trkpt><trkpt lat="27.970024371177733" lon="-11.423372594909535"><ele>82.0</ele><time>2026-04-29T10:53:28Z</time></trkpt><trkpt lat="27.969896308708567" lon="-11.423334995294114"><ele>82.5</ele><time>2026-04-29T10:53:29Z</time></trkpt><trkpt lat="27.969745985617664" lon="-11.423262801277735"><ele>83.0</ele><time>2026-04-29T10:53:30Z</time></trkpt><trkpt lat="27.969569832479745" lon="-11.423150619586078"><ele>83.0</ele><time>2026-04-29T10:53:31Z</time></trkpt><trkpt lat="27.969396432472983" lon="-11.423024604239101"><ele>83.0</ele><time>2026-04-29T10:53:32Z</time></trkpt><trkpt lat="27.969245130287185" lon="-11.42290012653587"><ele>83.0</ele><time>2026-04-29T10:53:33Z</time></trkpt><trkpt lat="27.969093697497073" lon="-11.422818264714262"><ele>83.75</ele><time>2026-04-29T10:53:34Z</time></trkpt><trkpt lat="27.968961632215244" lon="-11.422735562794983"><ele>84.5</ele><time>2026-04-29T10:53:35Z</time></trkpt><trkpt lat="27.968845572119168" lon="-11.422629767926418"><ele>85.25</ele><time>2026-04-29T10:53:36Z</time></trkpt><trkpt lat="27.968740557229058" lon="-11.422530224473697"><ele>86.0</ele><time>2026-04-29T10:53:37Z</time></trkpt><trkpt lat="27.968608761728813" lon="-11.422431353530913"><ele>86.0</ele><time>2026-04-29T10:53:38Z</time></trkpt><trkpt lat="27.968455272598593" lon="-11.42234508277918"><ele>86.0</ele><time>2026-04-29T10:53:39Z</time></trkpt><trkpt lat="27.968314504771016" lon="-11.422260763487099"><ele>86.0</ele><time>2026-04-29T10:53:40Z</time></trkpt><trkpt lat="27.968195418595666" lon="-11.422173301623793"><ele>86.25</ele><time>2026-04-29T10:53:41Z</time></trkpt><trkpt lat="27.968091876592517" lon="-11.422084151452175"><ele>86.5</ele><time>2026-04-29T10:53:42Z</time></trkpt><trkpt lat="27.967996439844416" lon="-11.422012667088126"><ele>86.75</ele><time>2026-04-29T10:53:43Z</time></trkpt><trkpt lat="27.96789952580372" lon="-11.421934876453577"><ele>87.0</ele><time>2026-04-29T10:53:44Z</time></trkpt><trkpt lat="27.967816132002465" lon="-11.421852973576827"><ele>87.0</ele><time>2026-04-29T10:53:45Z</time></trkpt><trkpt lat="27.96772831383632" lon="-11.421770047740445"><ele>87.0</ele><time>2026-04-29T10:53:46Z</time></trkpt><trkpt lat="27.967648960848432" lon="-11.421708234419189"><ele>87.0</ele><time>2026-04-29T10:53:47Z</time></trkpt><trkpt lat="27.967561239509784" lon="-11.42165080975499"><ele>87.0</ele><time>2026-04-29T10:53:48Z</time></trkpt><trkpt lat="27.967470133005193" lon="-11.421613345367465"><ele>87.0</ele><time>2026-04-29T10:53:49Z</time></trkpt><trkpt lat="27.967366925472177" lon="-11.421593258621673"><ele>87.0</ele><time>2026-04-29T10:53:50Z</time></trkpt><trkpt lat="27.967243096471528" lon="-11.421598539625336"><ele>87.0</ele><time>2026-04-29T10:53:51Z</time></trkpt><trkpt lat="27.967118221832116" lon="-11.421618076076145"><ele>87.0</ele><time>2026-04-29T10:53:52Z</time></trkpt><trkpt lat="27.96698960988857" lon="-11.421650849693178"><ele>87.0</ele><time>2026-04-29T10:53:53Z</time></trkpt><trkpt lat="27.966847229578725" lon="-11.421695037960168"><ele>87.0</ele><time>2026-04-29T10:53:54Z</time></trkpt><trkpt lat="27.966713946274755" lon="-11.421741272855504"><ele>87.0</ele><time>2026-04-29T10:53:55Z</time></trkpt><trkpt lat="27.966587866259943" lon="-11.42178247887271"><ele>87.0</ele><time>2026-04-29T10:53:56Z</time></trkpt><trkpt lat="27.966464852807434" lon="-11.421834000206573"><ele>87.0</ele><time>2026-04-29T10:53:57Z</time></trkpt><trkpt lat="27.966346539473818" lon="-11.421886886164364"><ele>87.0</ele><time>2026-04-29T10:53:58Z</time></trkpt><trkpt lat="27.9662011363894" lon="-11.42195408211275"><ele>87.0</ele><time>2026-04-29T10:53:59Z</time></trkpt><trkpt lat="27.966081631547464" lon="-11.422019346160287"><ele>87.0</ele><time>2026-04-29T10:54:00Z</time></trkpt><trkpt lat="27.965961317714022" lon="-11.422081433216237"><ele>87.0</ele><time>2026-04-29T10:54:01Z</time></trkpt><trkpt lat="27.9658158978334" lon="-11.422169410114037"><ele>86.5</ele><time>2026-04-29T10:54:02Z</time></trkpt><trkpt lat="27.965694258057503" lon="-11.422257110578153"><ele>86.0</ele><time>2026-04-29T10:54:03Z</time></trkpt><trkpt lat="27.96559272431028" lon="-11.422333810981371"><ele>85.5</ele><time>2026-04-29T10:54:04Z</time></trkpt><trkpt lat="27.965489424025414" lon="-11.422425177370402"><ele>85.0</ele><time>2026-04-29T10:54:05Z</time></trkpt><trkpt lat="27.96540409274545" lon="-11.422511985635138"><ele>85.0</ele><time>2026-04-29T10:54:06Z</time></trkpt><trkpt lat="27.96532733109019" lon="-11.42259814431389"><ele>85.0</ele><time>2026-04-29T10:54:07Z</time></trkpt><trkpt lat="27.96525344706475" lon="-11.422683216721671"><ele>85.0</ele><time>2026-04-29T10:54:08Z</time></trkpt><trkpt lat="27.96517413824225" lon="-11.422785632354053"><ele>85.0</ele><time>2026-04-29T10:54:09Z</time></trkpt><trkpt lat="27.965092539121155" lon="-11.422895136411567"><ele>85.25</ele><time>2026-04-29T10:54:10Z</time></trkpt><trkpt lat="27.965010513643087" lon="-11.42301489115859"><ele>85.5</ele><time>2026-04-29T10:54:11Z</time></trkpt><trkpt lat="27.964924787894404" lon="-11.423148983321784"><ele>85.75</ele><time>2026-04-29T10:54:12Z</time></trkpt><trkpt lat="27.964840597446255" lon="-11.423281259675763"><ele>86.0</ele><time>2026-04-29T10:54:13Z</time></trkpt><trkpt lat="27.964763400935087" lon="-11.423409554596368"><ele>86.0</ele><time>2026-04-29T10:54:14Z</time></trkpt><trkpt lat="27.964682923407818" lon="-11.423524586723532"><ele>86.0</ele><time>2026-04-29T10:54:15Z</time></trkpt><trkpt lat="27.964607468499835" lon="-11.423637759026013"><ele>86.0</ele><time>2026-04-29T10:54:16Z</time></trkpt><trkpt lat="27.96454783532958" lon="-11.423731519981839"><ele>86.0</ele><time>2026-04-29T10:54:17Z</time></trkpt><trkpt lat="27.964481363607103" lon="-11.423828804327076"><ele>86.0</ele><time>2026-04-29T10:54:18Z</time></trkpt><trkpt lat="27.964399935482817" lon="-11.42392924556063"><ele>86.0</ele><time>2026-04-29T10:54:19Z</time></trkpt><trkpt lat="27.964321918086746" lon="-11.42401161489783"><ele>86.0</ele><time>2026-04-29T10:54:20Z</time></trkpt><trkpt lat="27.964249369258564" lon="-11.424071205133338"><ele>86.0</ele><time>2026-04-29T10:54:21Z</time></trkpt><trkpt lat="27.96417488037829" lon="-11.424145891415536"><ele>86.0</ele><time>2026-04-29T10:54:22Z</time></trkpt><trkpt lat="27.96409638522605" lon="-11.42421438371301"><ele>86.0</ele><time>2026-04-29T10:54:23Z</time></trkpt><trkpt lat="27.964022015450034" lon="-11.424295578521294"><ele>86.0</ele><time>2026-04-29T10:54:24Z</time></trkpt><trkpt lat="27.963960859479936" lon="-11.424380325223495"><ele>86.0</ele><time>2026-04-29T10:54:25Z</time></trkpt><trkpt lat="27.963895951763302" lon="-11.424465996545111"><ele>86.0</ele><time>2026-04-29T10:54:26Z</time></trkpt><trkpt lat="27.963843274284034" lon="-11.424518837676857"><ele>86.0</ele><time>2026-04-29T10:54:27Z</time></trkpt><trkpt lat="27.963782084743926" lon="-11.424602811239923"><ele>85.6</ele><time>2026-04-29T10:54:28Z</time></trkpt><trkpt lat="27.963729393030643" lon="-11.424680048734482"><ele>85.19999999999999</ele><time>2026-04-29T10:54:29Z</time></trkpt><trkpt lat="27.9636637721524" lon="-11.424780116994551"><ele>84.80000000000001</ele><time>2026-04-29T10:54:30Z</time></trkpt><trkpt lat="27.96359613135631" lon="-11.424861721246113"><ele>84.4</ele><time>2026-04-29T10:54:31Z</time></trkpt><trkpt lat="27.96352587087927" lon="-11.424948511078245"><ele>84.0</ele><time>2026-04-29T10:54:32Z</time></trkpt><trkpt lat="27.96345395725995" lon="-11.42503311084458"><ele>84.0</ele><time>2026-04-29T10:54:33Z</time></trkpt><trkpt lat="27.963373763847304" lon="-11.425115717949115"><ele>84.0</ele><time>2026-04-29T10:54:34Z</time></trkpt><trkpt lat="27.963287024465018" lon="-11.42520031845536"><ele>84.0</ele><time>2026-04-29T10:54:35Z</time></trkpt><trkpt lat="27.963202088258726" lon="-11.425274632741418"><ele>84.0</ele><time>2026-04-29T10:54:36Z</time></trkpt><trkpt lat="27.96312335042383" lon="-11.425323347137981"><ele>84.0</ele><time>2026-04-29T10:54:37Z</time></trkpt><trkpt lat="27.96304527832969" lon="-11.425345155703154"><ele>83.75</ele><time>2026-04-29T10:54:38Z</time></trkpt><trkpt lat="27.962936416201707" lon="-11.42533694395285"><ele>83.5</ele><time>2026-04-29T10:54:39Z</time></trkpt><trkpt lat="27.962791690747675" lon="-11.425310546636743"><ele>83.25</ele><time>2026-04-29T10:54:40Z</time></trkpt><trkpt lat="27.962627229144235" lon="-11.425282080206916"><ele>83.0</ele><time>2026-04-29T10:54:41Z</time></trkpt><trkpt lat="27.96246011336882" lon="-11.425260971215055"><ele>83.0</ele><time>2026-04-29T10:54:42Z</time></trkpt><trkpt lat="27.962261002658632" lon="-11.425242119651568"><ele>83.0</ele><time>2026-04-29T10:54:43Z</time></trkpt><trkpt lat="27.96207724875761" lon="-11.425222289558123"><ele>83.0</ele><time>2026-04-29T10:54:44Z</time></trkpt><trkpt lat="27.96193891615734" lon="-11.425208214845439"><ele>83.0</ele><time>2026-04-29T10:54:45Z</time></trkpt><trkpt lat="27.96182105946514" lon="-11.425212464885751"><ele>83.0</ele><time>2026-04-29T10:54:46Z</time></trkpt><trkpt lat="27.961690718928928" lon="-11.425245423099376"><ele>83.0</ele><time>2026-04-29T10:54:47Z</time></trkpt><trkpt lat="27.961523637503337" lon="-11.42530001300658"><ele>83.0</ele><time>2026-04-29T10:54:48Z</time></trkpt><trkpt lat="27.96133450333217" lon="-11.425333995647525"><ele>83.66666666666667</ele><time>2026-04-29T10:54:49Z</time></trkpt><trkpt lat="27.961123180608308" lon="-11.425349122320323"><ele>84.33333333333333</ele><time>2026-04-29T10:54:50Z</time></trkpt><trkpt lat="27.960907677466555" lon="-11.425383340938186"><ele>85.0</ele><time>2026-04-29T10:54:51Z</time></trkpt><trkpt lat="27.96069065583638" lon="-11.425449086027244"><ele>85.0</ele><time>2026-04-29T10:54:52Z</time></trkpt><trkpt lat="27.960556648094" lon="-11.425495261890811"><ele>85.0</ele><time>2026-04-29T10:54:53Z</time></trkpt><trkpt lat="27.96038986264086" lon="-11.42552621766182"><ele>85.0</ele><time>2026-04-29T10:54:54Z</time></trkpt><trkpt lat="27.960196697758597" lon="-11.425559446696706"><ele>84.66666666666666</ele><time>2026-04-29T10:54:55Z</time></trkpt><trkpt lat="27.959992407787613" lon="-11.425587196149012"><ele>84.33333333333333</ele><time>2026-04-29T10:54:56Z</time></trkpt><trkpt lat="27.959811471677686" lon="-11.425613170697247"><ele>84.0</ele><time>2026-04-29T10:54:57Z</time></trkpt><trkpt lat="27.959656486499195" lon="-11.425622010314907"><ele>84.0</ele><time>2026-04-29T10:54:58Z</time></trkpt><trkpt lat="27.95951569454678" lon="-11.425632228085345"><ele>84.0</ele><time>2026-04-29T10:54:59Z</time></trkpt><trkpt lat="27.959378355726482" lon="-11.42563937545375"><ele>84.0</ele><time>2026-04-29T10:55:00Z</time></trkpt><trkpt lat="27.959245056749737" lon="-11.425661046122347"><ele>84.0</ele><time>2026-04-29T10:55:01Z</time></trkpt><trkpt lat="27.959115957818202" lon="-11.425686562619784"><ele>83.80000000000001</ele><time>2026-04-29T10:55:02Z</time></trkpt><trkpt lat="27.95900823037429" lon="-11.425710981762286"><ele>83.60000000000001</ele><time>2026-04-29T10:55:03Z</time></trkpt><trkpt lat="27.958918545547956" lon="-11.425736627260074"><ele>83.4</ele><time>2026-04-29T10:55:04Z</time></trkpt><trkpt lat="27.95883350605829" lon="-11.425773661147494"><ele>83.2</ele><time>2026-04-29T10:55:05Z</time></trkpt><trkpt lat="27.958732775891857" lon="-11.425830787303939"><ele>83.0</ele><time>2026-04-29T10:55:06Z</time></trkpt><trkpt lat="27.95863082397621" lon="-11.425909205418002"><ele>83.0</ele><time>2026-04-29T10:55:07Z</time></trkpt><trkpt lat="27.95852971505449" lon="-11.426000924567505"><ele>83.0</ele><time>2026-04-29T10:55:08Z</time></trkpt><trkpt lat="27.958397647020988" lon="-11.426104080335076"><ele>83.0</ele><time>2026-04-29T10:55:09Z</time></trkpt><trkpt lat="27.958259779946466" lon="-11.426206853962137"><ele>82.5</ele><time>2026-04-29T10:55:10Z</time></trkpt><trkpt lat="27.95812519383748" lon="-11.42630348972057"><ele>82.0</ele><time>2026-04-29T10:55:11Z</time></trkpt><trkpt lat="27.95800050913939" lon="-11.426394177749199"><ele>81.5</ele><time>2026-04-29T10:55:12Z</time></trkpt><trkpt lat="27.95788601584296" lon="-11.426473038002678"><ele>81.0</ele><time>2026-04-29T10:55:13Z</time></trkpt><trkpt lat="27.95776770535557" lon="-11.4265592283938"><ele>80.0</ele><time>2026-04-29T10:55:14Z</time></trkpt><trkpt lat="27.957646234777663" lon="-11.426648456675325"><ele>79.0</ele><time>2026-04-29T10:55:15Z</time></trkpt><trkpt lat="27.95752821472527" lon="-11.426754588493049"><ele>78.0</ele><time>2026-04-29T10:55:16Z</time></trkpt><trkpt lat="27.957410993722945" lon="-11.426874095903157"><ele>78.0</ele><time>2026-04-29T10:55:17Z</time></trkpt><trkpt lat="27.95731559852194" lon="-11.42698268245845"><ele>78.0</ele><time>2026-04-29T10:55:18Z</time></trkpt><trkpt lat="27.957246471231695" lon="-11.427070494617233"><ele>78.0</ele><time>2026-04-29T10:55:19Z</time></trkpt><trkpt lat="27.957164324158352" lon="-11.42715461850348"><ele>78.0</ele><time>2026-04-29T10:55:20Z</time></trkpt><trkpt lat="27.957074802763714" lon="-11.427238940447316"><ele>77.5</ele><time>2026-04-29T10:55:21Z</time></trkpt><trkpt lat="27.95696930259784" lon="-11.427332340765792"><ele>77.0</ele><time>2026-04-29T10:55:22Z</time></trkpt><trkpt lat="27.956853010926604" lon="-11.427425570921542"><ele>76.5</ele><time>2026-04-29T10:55:23Z</time></trkpt><trkpt lat="27.956765188313305" lon="-11.427480257896118"><ele>76.0</ele><time>2026-04-29T10:55:24Z</time></trkpt><trkpt lat="27.956657829995216" lon="-11.42751413058441"><ele>76.0</ele><time>2026-04-29T10:55:25Z</time></trkpt><trkpt lat="27.956531922681478" lon="-11.42754815745833"><ele>76.0</ele><time>2026-04-29T10:55:26Z</time></trkpt><trkpt lat="27.956386831899724" lon="-11.427558078102695"><ele>76.0</ele><time>2026-04-29T10:55:27Z</time></trkpt><trkpt lat="27.956197298408814" lon="-11.427540562411343"><ele>76.0</ele><time>2026-04-29T10:55:28Z</time></trkpt><trkpt lat="27.95598986203407" lon="-11.427504250630237"><ele>76.0</ele><time>2026-04-29T10:55:29Z</time></trkpt><trkpt lat="27.955786623292767" lon="-11.42746301885451"><ele>76.0</ele><time>2026-04-29T10:55:30Z</time></trkpt><trkpt lat="27.955605289783353" lon="-11.427426238235338"><ele>75.66666666666666</ele><time>2026-04-29T10:55:31Z</time></trkpt><trkpt lat="27.955445538253795" lon="-11.427404031414065"><ele>75.33333333333333</ele><time>2026-04-29T10:55:32Z</time></trkpt><trkpt lat="27.95528543883352" lon="-11.42739745637391"><ele>75.0</ele><time>2026-04-29T10:55:33Z</time></trkpt><trkpt lat="27.95510390967782" lon="-11.427404654771559"><ele>75.33333333333333</ele><time>2026-04-29T10:55:34Z</time></trkpt><trkpt lat="27.954904251928255" lon="-11.427416207103688"><ele>75.66666666666666</ele><time>2026-04-29T10:55:35Z</time></trkpt><trkpt lat="27.954706735712215" lon="-11.427420005350331"><ele>76.0</ele><time>2026-04-29T10:55:36Z</time></trkpt><trkpt lat="27.95451626168889" lon="-11.427412506585018"><ele>76.0</ele><time>2026-04-29T10:55:37Z</time></trkpt><trkpt lat="27.954339426222994" lon="-11.427406043848363"><ele>76.0</ele><time>2026-04-29T10:55:38Z</time></trkpt><trkpt lat="27.95415010155227" lon="-11.427415797366848"><ele>76.0</ele><time>2026-04-29T10:55:39Z</time></trkpt><trkpt lat="27.953937357231727" lon="-11.427438186894486"><ele>76.33333333333333</ele><time>2026-04-29T10:55:40Z</time></trkpt><trkpt lat="27.95373550629656" lon="-11.427456327617952"><ele>76.66666666666667</ele><time>2026-04-29T10:55:41Z</time></trkpt><trkpt lat="27.95352133168018" lon="-11.42746326307186"><ele>77.0</ele><time>2026-04-29T10:55:42Z</time></trkpt><trkpt lat="27.953304501543442" lon="-11.4274718861186"><ele>77.0</ele><time>2026-04-29T10:55:43Z</time></trkpt><trkpt lat="27.95308385443545" lon="-11.42748037147327"><ele>77.0</ele><time>2026-04-29T10:55:44Z</time></trkpt><trkpt lat="27.95286014556041" lon="-11.427487546985063"><ele>77.0</ele><time>2026-04-29T10:55:45Z</time></trkpt><trkpt lat="27.952638288816235" lon="-11.427488186583707"><ele>78.0</ele><time>2026-04-29T10:55:46Z</time></trkpt><trkpt lat="27.952423658581083" lon="-11.427492909491768"><ele>79.0</ele><time>2026-04-29T10:55:47Z</time></trkpt><trkpt lat="27.952213780587844" lon="-11.427511748155794"><ele>80.0</ele><time>2026-04-29T10:55:48Z</time></trkpt><trkpt lat="27.95200654875731" lon="-11.4275311698945"><ele>80.0</ele><time>2026-04-29T10:55:49Z</time></trkpt><trkpt lat="27.951804400174314" lon="-11.427546454343908"><ele>80.0</ele><time>2026-04-29T10:55:50Z</time></trkpt><trkpt lat="27.951597947118945" lon="-11.427558696151731"><ele>80.0</ele><time>2026-04-29T10:55:51Z</time></trkpt><trkpt lat="27.95141331831462" lon="-11.427569050885864"><ele>79.33333333333334</ele><time>2026-04-29T10:55:52Z</time></trkpt><trkpt lat="27.951235430268095" lon="-11.427583978231347"><ele>78.66666666666667</ele><time>2026-04-29T10:55:53Z</time></trkpt><trkpt lat="27.95105531047408" lon="-11.427601964341084"><ele>78.0</ele><time>2026-04-29T10:55:54Z</time></trkpt><trkpt lat="27.95087101208304" lon="-11.427618749166124"><ele>78.0</ele><time>2026-04-29T10:55:55Z</time></trkpt><trkpt lat="27.950681449412603" lon="-11.42763956172433"><ele>78.0</ele><time>2026-04-29T10:55:56Z</time></trkpt><trkpt lat="27.950507966455127" lon="-11.427656111640333"><ele>78.0</ele><time>2026-04-29T10:55:57Z</time></trkpt><trkpt lat="27.950340272918684" lon="-11.427659438951281"><ele>78.0</ele><time>2026-04-29T10:55:58Z</time></trkpt><trkpt lat="27.950168180470833" lon="-11.42763610409956"><ele>78.0</ele><time>2026-04-29T10:55:59Z</time></trkpt><trkpt lat="27.949989289731096" lon="-11.427584849612533"><ele>78.0</ele><time>2026-04-29T10:56:00Z</time></trkpt><trkpt lat="27.949832112474002" lon="-11.42754092187777"><ele>78.5</ele><time>2026-04-29T10:56:01Z</time></trkpt><trkpt lat="27.949693908239322" lon="-11.427529808533102"><ele>79.0</ele><time>2026-04-29T10:56:02Z</time></trkpt><trkpt lat="27.9495472941272" lon="-11.427526706856707"><ele>79.5</ele><time>2026-04-29T10:56:03Z</time></trkpt><trkpt lat="27.949410866472192" lon="-11.427533253378902"><ele>80.0</ele><time>2026-04-29T10:56:04Z</time></trkpt><trkpt lat="27.949287411481865" lon="-11.427539747245664"><ele>79.6</ele><time>2026-04-29T10:56:05Z</time></trkpt><trkpt lat="27.94917478123732" lon="-11.42755301380602"><ele>79.2</ele><time>2026-04-29T10:56:06Z</time></trkpt><trkpt lat="27.949080147157034" lon="-11.427588040520206"><ele>78.8</ele><time>2026-04-29T10:56:07Z</time></trkpt><trkpt lat="27.949002509452793" lon="-11.42764518535934"><ele>78.4</ele><time>2026-04-29T10:56:08Z</time></trkpt><trkpt lat="27.9489467797257" lon="-11.427728680663327"><ele>78.0</ele><time>2026-04-29T10:56:09Z</time></trkpt><trkpt lat="27.94888814841283" lon="-11.42784607503818"><ele>77.5</ele><time>2026-04-29T10:56:10Z</time></trkpt><trkpt lat="27.9488194287893" lon="-11.427997371343503"><ele>77.0</ele><time>2026-04-29T10:56:11Z</time></trkpt><trkpt lat="27.948751739654103" lon="-11.428111793025582"><ele>76.5</ele><time>2026-04-29T10:56:12Z</time></trkpt><trkpt lat="27.948645737642767" lon="-11.428216251593671"><ele>76.0</ele><time>2026-04-29T10:56:13Z</time></trkpt><trkpt lat="27.948537943551816" lon="-11.428292563894441"><ele>76.0</ele><time>2026-04-29T10:56:14Z</time></trkpt><trkpt lat="27.948445406597433" lon="-11.428341155952838"><ele>76.0</ele><time>2026-04-29T10:56:15Z</time></trkpt><trkpt lat="27.94836663329598" lon="-11.428382118503212"><ele>76.0</ele><time>2026-04-29T10:56:16Z</time></trkpt><trkpt lat="27.948294526077365" lon="-11.42841610710145"><ele>76.0</ele><time>2026-04-29T10:56:17Z</time></trkpt><trkpt lat="27.948222187761505" lon="-11.42844490707691"><ele>76.0</ele><time>2026-04-29T10:56:18Z</time></trkpt><trkpt lat="27.94815482848054" lon="-11.428451947321717"><ele>76.0</ele><time>2026-04-29T10:56:19Z</time></trkpt><trkpt lat="27.94809125851077" lon="-11.428447372337962"><ele>76.0</ele><time>2026-04-29T10:56:20Z</time></trkpt><trkpt lat="27.947983915268452" lon="-11.428435696487078"><ele>76.0</ele><time>2026-04-29T10:56:22Z</time></trkpt><trkpt lat="27.94788997787107" lon="-11.428435703933573"><ele>76.0</ele><time>2026-04-29T10:56:24Z</time></trkpt><trkpt lat="27.94782085361478" lon="-11.428460216771002"><ele>76.0</ele><time>2026-04-29T11:02:47Z</time></trkpt><trkpt lat="27.947758424100027" lon="-11.428498879466783"><ele>76.0</ele><time>2026-04-29T11:02:49Z</time></trkpt><trkpt lat="27.947708667463427" lon="-11.42859910440023"><ele>76.0</ele><time>2026-04-29T11:02:50Z</time></trkpt><trkpt lat="27.947650641025717" lon="-11.428700020848503"><ele>76.0</ele><time>2026-04-29T11:02:51Z</time></trkpt><trkpt lat="27.94757763339892" lon="-11.428814036884988"><ele>76.0</ele><time>2026-04-29T11:02:52Z</time></trkpt><trkpt lat="27.947496222939904" lon="-11.428940197192205"><ele>76.0</ele><time>2026-04-29T11:02:53Z</time></trkpt><trkpt lat="27.947422484163035" lon="-11.429055600549017"><ele>76.0</ele><time>2026-04-29T11:02:54Z</time></trkpt><trkpt lat="27.94733948837784" lon="-11.429181736095124"><ele>76.0</ele><time>2026-04-29T11:02:55Z</time></trkpt><trkpt lat="27.947245671572592" lon="-11.429325175891568"><ele>76.0</ele><time>2026-04-29T11:02:56Z</time></trkpt><trkpt lat="27.94714924333981" lon="-11.429478301814747"><ele>76.0</ele><time>2026-04-29T11:02:57Z</time></trkpt><trkpt lat="27.947043590696506" lon="-11.429648144903789"><ele>75.66666666666666</ele><time>2026-04-29T11:02:58Z</time></trkpt><trkpt lat="27.946930310847986" lon="-11.429829077809778"><ele>75.33333333333333</ele><time>2026-04-29T11:02:59Z</time></trkpt><trkpt lat="27.946812284070138" lon="-11.430014454140116"><ele>75.0</ele><time>2026-04-29T11:03:00Z</time></trkpt><trkpt lat="27.946692771828147" lon="-11.430205352580353"><ele>75.33333333333333</ele><time>2026-04-29T11:03:01Z</time></trkpt><trkpt lat="27.94656985414403" lon="-11.430398872225178"><ele>75.66666666666666</ele><time>2026-04-29T11:03:02Z</time></trkpt><trkpt lat="27.94644739706653" lon="-11.430586830760877"><ele>76.0</ele><time>2026-04-29T11:03:03Z</time></trkpt><trkpt lat="27.946327517826873" lon="-11.430767479056712"><ele>76.0</ele><time>2026-04-29T11:03:04Z</time></trkpt><trkpt lat="27.946210064888817" lon="-11.430945531138683"><ele>76.0</ele><time>2026-04-29T11:03:05Z</time></trkpt><trkpt lat="27.94608828117418" lon="-11.431133126263818"><ele>76.0</ele><time>2026-04-29T11:03:06Z</time></trkpt><trkpt lat="27.94596581445207" lon="-11.431324872064911"><ele>76.0</ele><time>2026-04-29T11:03:07Z</time></trkpt><trkpt lat="27.9458444039612" lon="-11.431516648546003"><ele>76.0</ele><time>2026-04-29T11:03:08Z</time></trkpt><trkpt lat="27.94572384478712" lon="-11.431709589283068"><ele>76.0</ele><time>2026-04-29T11:03:09Z</time></trkpt><trkpt lat="27.94559952784231" lon="-11.431900081789294"><ele>76.0</ele><time>2026-04-29T11:03:10Z</time></trkpt><trkpt lat="27.945470690640647" lon="-11.432093751410187"><ele>76.0</ele><time>2026-04-29T11:03:11Z</time></trkpt><trkpt lat="27.94533698890424" lon="-11.43229118918327"><ele>76.0</ele><time>2026-04-29T11:03:12Z</time></trkpt><trkpt lat="27.945202336335996" lon="-11.43249556196365"><ele>75.0</ele><time>2026-04-29T11:03:13Z</time></trkpt><trkpt lat="27.94506774961672" lon="-11.432705251738291"><ele>74.0</ele><time>2026-04-29T11:03:14Z</time></trkpt><trkpt lat="27.944929622238643" lon="-11.432917208462733"><ele>72.66666666666667</ele><time>2026-04-29T11:03:15Z</time></trkpt><trkpt lat="27.94480338104961" lon="-11.433114321385153"><ele>71.33333333333333</ele><time>2026-04-29T11:03:16Z</time></trkpt><trkpt lat="27.944686549012673" lon="-11.433297824139375"><ele>70.0</ele><time>2026-04-29T11:03:17Z</time></trkpt><trkpt lat="27.94457736319153" lon="-11.433468218542322"><ele>70.0</ele><time>2026-04-29T11:03:18Z</time></trkpt><trkpt lat="27.944474918042722" lon="-11.433629576182604"><ele>70.0</ele><time>2026-04-29T11:03:19Z</time></trkpt><trkpt lat="27.944377941044866" lon="-11.43378263054233"><ele>70.0</ele><time>2026-04-29T11:03:20Z</time></trkpt><trkpt lat="27.944292949027485" lon="-11.433920128296542"><ele>70.0</ele><time>2026-04-29T11:03:21Z</time></trkpt><trkpt lat="27.944218720280006" lon="-11.434035278390056"><ele>70.0</ele><time>2026-04-29T11:03:22Z</time></trkpt><trkpt lat="27.944155171847346" lon="-11.434133094476318"><ele>70.0</ele><time>2026-04-29T11:03:23Z</time></trkpt><trkpt lat="27.944100304556848" lon="-11.434225746302872"><ele>70.0</ele><time>2026-04-29T11:03:24Z</time></trkpt><trkpt lat="27.944040290927767" lon="-11.434319426792959"><ele>70.0</ele><time>2026-04-29T11:03:25Z</time></trkpt><trkpt lat="27.94397087921022" lon="-11.434425640589192"><ele>70.0</ele><time>2026-04-29T11:03:26Z</time></trkpt><trkpt lat="27.943895129143034" lon="-11.434546847958815"><ele>70.0</ele><time>2026-04-29T11:03:27Z</time></trkpt><trkpt lat="27.94381645756282" lon="-11.434670840390288"><ele>70.0</ele><time>2026-04-29T11:03:28Z</time></trkpt><trkpt lat="27.94373798310937" lon="-11.43479300555188"><ele>70.0</ele><time>2026-04-29T11:03:29Z</time></trkpt><trkpt lat="27.9436658531462" lon="-11.434901852478353"><ele>70.0</ele><time>2026-04-29T11:03:30Z</time></trkpt><trkpt lat="27.943604289867675" lon="-11.434997494344385"><ele>70.0</ele><time>2026-04-29T11:03:31Z</time></trkpt><trkpt lat="27.94355627742281" lon="-11.435078429719077"><ele>70.0</ele><time>2026-04-29T11:03:32Z</time></trkpt><trkpt lat="27.943503895269217" lon="-11.435155117048074"><ele>70.0</ele><time>2026-04-29T11:03:33Z</time></trkpt><trkpt lat="27.943463673783263" lon="-11.435214573936507"><ele>70.0</ele><time>2026-04-29T11:03:34Z</time></trkpt><trkpt lat="27.943423015789886" lon="-11.435273421976907"><ele>70.0</ele><time>2026-04-29T11:03:35Z</time></trkpt><trkpt lat="27.943376622898057" lon="-11.43535664569602"><ele>69.8</ele><time>2026-04-29T11:03:36Z</time></trkpt><trkpt lat="27.943317505192972" lon="-11.43545228717195"><ele>69.6</ele><time>2026-04-29T11:03:37Z</time></trkpt><trkpt lat="27.94325414053813" lon="-11.435556728239208"><ele>69.4</ele><time>2026-04-29T11:03:38Z</time></trkpt><trkpt lat="27.943189896278717" lon="-11.435659101753895"><ele>69.2</ele><time>2026-04-29T11:03:39Z</time></trkpt><trkpt lat="27.943124034274657" lon="-11.435765041050903"><ele>69.0</ele><time>2026-04-29T11:03:40Z</time></trkpt><trkpt lat="27.94305610783425" lon="-11.435871978323782"><ele>68.75</ele><time>2026-04-29T11:03:41Z</time></trkpt><trkpt lat="27.942987280322733" lon="-11.435985394411535"><ele>68.5</ele><time>2026-04-29T11:03:42Z</time></trkpt><trkpt lat="27.94290447351981" lon="-11.436109636544218"><ele>68.25</ele><time>2026-04-29T11:03:43Z</time></trkpt><trkpt lat="27.94281865206222" lon="-11.436241085837725"><ele>68.0</ele><time>2026-04-29T11:03:44Z</time></trkpt><trkpt lat="27.942729990628404" lon="-11.436380384792024"><ele>68.0</ele><time>2026-04-29T11:03:45Z</time></trkpt><trkpt lat="27.942630798160284" lon="-11.436526331060506"><ele>68.0</ele><time>2026-04-29T11:03:46Z</time></trkpt><trkpt lat="27.942533207291874" lon="-11.43668261824713"><ele>68.0</ele><time>2026-04-29T11:03:47Z</time></trkpt><trkpt lat="27.942439968117593" lon="-11.436841749333201"><ele>68.0</ele><time>2026-04-29T11:03:48Z</time></trkpt><trkpt lat="27.942338732795918" lon="-11.437003962999464"><ele>68.0</ele><time>2026-04-29T11:03:49Z</time></trkpt><trkpt lat="27.94223309534278" lon="-11.437170153221278"><ele>68.0</ele><time>2026-04-29T11:03:50Z</time></trkpt><trkpt lat="27.942125561361507" lon="-11.437332193371324"><ele>68.0</ele><time>2026-04-29T11:03:51Z</time></trkpt><trkpt lat="27.94202103032347" lon="-11.437491365523526"><ele>68.0</ele><time>2026-04-29T11:03:52Z</time></trkpt><trkpt lat="27.941916402077364" lon="-11.437651005826345"><ele>68.0</ele><time>2026-04-29T11:03:53Z</time></trkpt><trkpt lat="27.94181815652663" lon="-11.437809006650399"><ele>69.33333333333334</ele><time>2026-04-29T11:03:54Z</time></trkpt><trkpt lat="27.94172373527647" lon="-11.437968828236238"><ele>70.66666666666667</ele><time>2026-04-29T11:03:55Z</time></trkpt><trkpt lat="27.941631793655453" lon="-11.438126522816843"><ele>72.0</ele><time>2026-04-29T11:03:56Z</time></trkpt><trkpt lat="27.941531168375892" lon="-11.43827599190239"><ele>72.33333333333333</ele><time>2026-04-29T11:03:57Z</time></trkpt><trkpt lat="27.941434604388622" lon="-11.438416743027828"><ele>72.66666666666666</ele><time>2026-04-29T11:03:58Z</time></trkpt><trkpt lat="27.941345345632392" lon="-11.438557335206857"><ele>73.0</ele><time>2026-04-29T11:03:59Z</time></trkpt><trkpt lat="27.94125435954588" lon="-11.438704788653371"><ele>73.0</ele><time>2026-04-29T11:04:00Z</time></trkpt><trkpt lat="27.941147634133916" lon="-11.438869294418208"><ele>73.0</ele><time>2026-04-29T11:04:01Z</time></trkpt><trkpt lat="27.941031833670497" lon="-11.439046021716443"><ele>73.0</ele><time>2026-04-29T11:04:02Z</time></trkpt><trkpt lat="27.940911929118496" lon="-11.43921859502096"><ele>73.33333333333333</ele><time>2026-04-29T11:04:03Z</time></trkpt><trkpt lat="27.94079033743891" lon="-11.439385361195948"><ele>73.66666666666667</ele><time>2026-04-29T11:04:04Z</time></trkpt><trkpt lat="27.94066310552313" lon="-11.439556248311266"><ele>74.0</ele><time>2026-04-29T11:04:05Z</time></trkpt><trkpt lat="27.94053784731092" lon="-11.439723296688678"><ele>74.0</ele><time>2026-04-29T11:04:06Z</time></trkpt><trkpt lat="27.940411584276003" lon="-11.43988701944902"><ele>74.0</ele><time>2026-04-29T11:04:07Z</time></trkpt><trkpt lat="27.940282482286374" lon="-11.440047893995953"><ele>74.0</ele><time>2026-04-29T11:04:08Z</time></trkpt><trkpt lat="27.9401468671816" lon="-11.440207981870676"><ele>74.33333333333334</ele><time>2026-04-29T11:04:09Z</time></trkpt><trkpt lat="27.940005706308693" lon="-11.440355832831226"><ele>74.66666666666667</ele><time>2026-04-29T11:04:10Z</time></trkpt><trkpt lat="27.939864500070204" lon="-11.440493091951163"><ele>75.0</ele><time>2026-04-29T11:04:11Z</time></trkpt><trkpt lat="27.9397194359385" lon="-11.440630062098164"><ele>74.33333333333333</ele><time>2026-04-29T11:04:12Z</time></trkpt><trkpt lat="27.939581986214563" lon="-11.440774135409368"><ele>73.66666666666666</ele><time>2026-04-29T11:04:13Z</time></trkpt><trkpt lat="27.93943373110572" lon="-11.440909490443392"><ele>73.0</ele><time>2026-04-29T11:04:14Z</time></trkpt><trkpt lat="27.93927916111423" lon="-11.441037043787004"><ele>73.33333333333333</ele><time>2026-04-29T11:04:15Z</time></trkpt><trkpt lat="27.939123709536695" lon="-11.441174233669807"><ele>73.66666666666667</ele><time>2026-04-29T11:04:16Z</time></trkpt><trkpt lat="27.938962692990188" lon="-11.4413190131324"><ele>74.0</ele><time>2026-04-29T11:04:17Z</time></trkpt><trkpt lat="27.93880014389723" lon="-11.441452075689066"><ele>74.33333333333334</ele><time>2026-04-29T11:04:18Z</time></trkpt><trkpt lat="27.938627943592977" lon="-11.441585709094436"><ele>74.66666666666667</ele><time>2026-04-29T11:04:19Z</time></trkpt><trkpt lat="27.938460230951556" lon="-11.441721619839445"><ele>75.0</ele><time>2026-04-29T11:04:20Z</time></trkpt><trkpt lat="27.938293749021796" lon="-11.441857098817568"><ele>75.0</ele><time>2026-04-29T11:04:21Z</time></trkpt><trkpt lat="27.93812422326612" lon="-11.441992573541615"><ele>75.0</ele><time>2026-04-29T11:04:22Z</time></trkpt><trkpt lat="27.937954889694307" lon="-11.442130695883966"><ele>75.0</ele><time>2026-04-29T11:04:23Z</time></trkpt><trkpt lat="27.937784302664696" lon="-11.442271334745273"><ele>74.66666666666667</ele><time>2026-04-29T11:04:24Z</time></trkpt><trkpt lat="27.93761415190147" lon="-11.442413214089669"><ele>74.33333333333334</ele><time>2026-04-29T11:04:25Z</time></trkpt><trkpt lat="27.93744070574221" lon="-11.442554718825763"><ele>74.0</ele><time>2026-04-29T11:04:26Z</time></trkpt><trkpt lat="27.93726491788608" lon="-11.442697520100296"><ele>74.0</ele><time>2026-04-29T11:04:27Z</time></trkpt><trkpt lat="27.937085753293932" lon="-11.44284189741943"><ele>74.0</ele><time>2026-04-29T11:04:28Z</time></trkpt><trkpt lat="27.936909876640453" lon="-11.442985940752006"><ele>74.0</ele><time>2026-04-29T11:04:29Z</time></trkpt><trkpt lat="27.936732148755745" lon="-11.443133419234801"><ele>76.5</ele><time>2026-04-29T11:04:30Z</time></trkpt><trkpt lat="27.93655204796334" lon="-11.443283375457783"><ele>79.0</ele><time>2026-04-29T11:04:31Z</time></trkpt><trkpt lat="27.936365908197345" lon="-11.443436599648079"><ele>79.0</ele><time>2026-04-29T11:04:32Z</time></trkpt><trkpt lat="27.936185010624165" lon="-11.443586510026519"><ele>79.0</ele><time>2026-04-29T11:04:33Z</time></trkpt><trkpt lat="27.936003887633596" lon="-11.443737938497247"><ele>79.0</ele><time>2026-04-29T11:04:34Z</time></trkpt><trkpt lat="27.935824531030086" lon="-11.443889226126634"><ele>77.66666666666666</ele><time>2026-04-29T11:04:35Z</time></trkpt><trkpt lat="27.93565133153458" lon="-11.444021014253488"><ele>76.33333333333333</ele><time>2026-04-29T11:04:36Z</time></trkpt><trkpt lat="27.935486225622213" lon="-11.44413935364233"><ele>75.0</ele><time>2026-04-29T11:04:37Z</time></trkpt><trkpt lat="27.935327527253563" lon="-11.444250247554232"><ele>75.0</ele><time>2026-04-29T11:04:38Z</time></trkpt><trkpt lat="27.93516081948794" lon="-11.444362754090948"><ele>75.0</ele><time>2026-04-29T11:04:39Z</time></trkpt><trkpt lat="27.934983427456995" lon="-11.444473433573435"><ele>75.0</ele><time>2026-04-29T11:04:40Z</time></trkpt><trkpt lat="27.934791090651107" lon="-11.444583521253314"><ele>76.0</ele><time>2026-04-29T11:04:41Z</time></trkpt><trkpt lat="27.934589046480554" lon="-11.444695470828666"><ele>77.0</ele><time>2026-04-29T11:04:42Z</time></trkpt><trkpt lat="27.934382689531592" lon="-11.444800402887521"><ele>76.33333333333334</ele><time>2026-04-29T11:04:43Z</time></trkpt><trkpt lat="27.934178601707707" lon="-11.444892182370996"><ele>75.66666666666667</ele><time>2026-04-29T11:04:44Z</time></trkpt><trkpt lat="27.93398229503675" lon="-11.444971495116036"><ele>75.0</ele><time>2026-04-29T11:04:45Z</time></trkpt><trkpt lat="27.933795484477415" lon="-11.445036376612617"><ele>75.0</ele><time>2026-04-29T11:04:46Z</time></trkpt><trkpt lat="27.93360718241937" lon="-11.445097027922374"><ele>75.0</ele><time>2026-04-29T11:04:47Z</time></trkpt><trkpt lat="27.933412545542502" lon="-11.445154321440459"><ele>75.0</ele><time>2026-04-29T11:04:48Z</time></trkpt><trkpt lat="27.933208681913445" lon="-11.445209330345527"><ele>75.33333333333333</ele><time>2026-04-29T11:04:49Z</time></trkpt><trkpt lat="27.932997536106484" lon="-11.445262197145183"><ele>75.66666666666666</ele><time>2026-04-29T11:04:50Z</time></trkpt><trkpt lat="27.932781398381366" lon="-11.445308930534038"><ele>76.0</ele><time>2026-04-29T11:04:51Z</time></trkpt><trkpt lat="27.932564423196762" lon="-11.445346044392446"><ele>76.33333333333333</ele><time>2026-04-29T11:04:52Z</time></trkpt><trkpt lat="27.932348160704155" lon="-11.445374100819613"><ele>76.66666666666667</ele><time>2026-04-29T11:04:53Z</time></trkpt><trkpt lat="27.932133823917837" lon="-11.44539512186437"><ele>77.0</ele><time>2026-04-29T11:04:54Z</time></trkpt><trkpt lat="27.931923652065255" lon="-11.44540877052963"><ele>77.0</ele><time>2026-04-29T11:04:55Z</time></trkpt><trkpt lat="27.93172770204529" lon="-11.445416371392627"><ele>77.0</ele><time>2026-04-29T11:04:56Z</time></trkpt><trkpt lat="27.931528267927373" lon="-11.445420390687978"><ele>77.0</ele><time>2026-04-29T11:04:57Z</time></trkpt><trkpt lat="27.93132458061836" lon="-11.44541598258714"><ele>77.0</ele><time>2026-04-29T11:04:58Z</time></trkpt><trkpt lat="27.931114610362723" lon="-11.445407302692054"><ele>77.0</ele><time>2026-04-29T11:04:59Z</time></trkpt><trkpt lat="27.93091199879851" lon="-11.445387974431796"><ele>77.0</ele><time>2026-04-29T11:05:00Z</time></trkpt><trkpt lat="27.930706755933844" lon="-11.445357629813872"><ele>77.0</ele><time>2026-04-29T11:05:01Z</time></trkpt><trkpt lat="27.93049860629807" lon="-11.445322421816698"><ele>77.0</ele><time>2026-04-29T11:05:02Z</time></trkpt><trkpt lat="27.930293462241597" lon="-11.445285628346637"><ele>77.0</ele><time>2026-04-29T11:05:03Z</time></trkpt><trkpt lat="27.93008397454185" lon="-11.445268039002862"><ele>78.33333333333334</ele><time>2026-04-29T11:05:04Z</time></trkpt><trkpt lat="27.929882305182584" lon="-11.445233021795017"><ele>79.66666666666667</ele><time>2026-04-29T11:05:05Z</time></trkpt><trkpt lat="27.92968018266035" lon="-11.44519286179345"><ele>81.0</ele><time>2026-04-29T11:05:06Z</time></trkpt><trkpt lat="27.92948502000857" lon="-11.445152699547268"><ele>81.0</ele><time>2026-04-29T11:05:07Z</time></trkpt><trkpt lat="27.929299394510792" lon="-11.44511456361352"><ele>81.0</ele><time>2026-04-29T11:05:08Z</time></trkpt><trkpt lat="27.929122989169528" lon="-11.445078480698669"><ele>81.0</ele><time>2026-04-29T11:05:09Z</time></trkpt><trkpt lat="27.928958134108886" lon="-11.445041558073184"><ele>80.75</ele><time>2026-04-29T11:05:10Z</time></trkpt><trkpt lat="27.92880356108641" lon="-11.445005370847946"><ele>80.5</ele><time>2026-04-29T11:05:11Z</time></trkpt><trkpt lat="27.928662232484847" lon="-11.444972477905827"><ele>80.25</ele><time>2026-04-29T11:05:12Z</time></trkpt><trkpt lat="27.928530712480157" lon="-11.444941867747692"><ele>80.0</ele><time>2026-04-29T11:05:13Z</time></trkpt><trkpt lat="27.928420072981243" lon="-11.444917388356346"><ele>79.66666666666667</ele><time>2026-04-29T11:05:14Z</time></trkpt><trkpt lat="27.9283239297421" lon="-11.444900948920033"><ele>79.33333333333334</ele><time>2026-04-29T11:05:15Z</time></trkpt><trkpt lat="27.92825276588161" lon="-11.444872820244823"><ele>79.0</ele><time>2026-04-29T11:05:16Z</time></trkpt><trkpt lat="27.928174721179655" lon="-11.44487970821356"><ele>78.66666666666667</ele><time>2026-04-29T11:05:18Z</time></trkpt><trkpt lat="27.928111701049325" lon="-11.444909411635727"><ele>78.33333333333333</ele><time>2026-04-29T11:05:20Z</time></trkpt><trkpt lat="27.928037815213017" lon="-11.444942826885432"><ele>78.0</ele><time>2026-04-29T11:05:22Z</time></trkpt><trkpt lat="27.927947394637616" lon="-11.445110702252489"><ele>78.0</ele><time>2026-04-29T11:05:24Z</time></trkpt><trkpt lat="27.927884432426858" lon="-11.445220580197384"><ele>78.0</ele><time>2026-04-29T11:05:25Z</time></trkpt><trkpt lat="27.927815539744532" lon="-11.445331288525415"><ele>78.0</ele><time>2026-04-29T11:05:26Z</time></trkpt><trkpt lat="27.927739820136996" lon="-11.445443429430462"><ele>78.0</ele><time>2026-04-29T11:05:27Z</time></trkpt><trkpt lat="27.927657937365552" lon="-11.445558477895547"><ele>78.5</ele><time>2026-04-29T11:05:28Z</time></trkpt><trkpt lat="27.927573685572124" lon="-11.445677547165204"><ele>79.0</ele><time>2026-04-29T11:05:29Z</time></trkpt><trkpt lat="27.92749449673431" lon="-11.445801023795342"><ele>79.5</ele><time>2026-04-29T11:05:30Z</time></trkpt><trkpt lat="27.92741022112046" lon="-11.445950134034351"><ele>80.0</ele><time>2026-04-29T11:05:31Z</time></trkpt><trkpt lat="27.92731639144286" lon="-11.446117022540616"><ele>79.33333333333334</ele><time>2026-04-29T11:05:32Z</time></trkpt><trkpt lat="27.92721018595362" lon="-11.446316555554635"><ele>78.66666666666667</ele><time>2026-04-29T11:05:33Z</time></trkpt><trkpt lat="27.927103740601396" lon="-11.446516499513548"><ele>78.0</ele><time>2026-04-29T11:05:34Z</time></trkpt><trkpt lat="27.926993941156766" lon="-11.4467192417111"><ele>78.0</ele><time>2026-04-29T11:05:35Z</time></trkpt><trkpt lat="27.926883278765754" lon="-11.446928393831323"><ele>78.0</ele><time>2026-04-29T11:05:36Z</time></trkpt><trkpt lat="27.926773147948268" lon="-11.447137400059582"><ele>78.0</ele><time>2026-04-29T11:05:37Z</time></trkpt><trkpt lat="27.926667287672306" lon="-11.447328689240848"><ele>77.66666666666667</ele><time>2026-04-29T11:05:38Z</time></trkpt><trkpt lat="27.926565550785476" lon="-11.447497847891537"><ele>77.33333333333334</ele><time>2026-04-29T11:05:39Z</time></trkpt><trkpt lat="27.926457204966653" lon="-11.447660844842895"><ele>77.0</ele><time>2026-04-29T11:05:40Z</time></trkpt><trkpt lat="27.926345783770564" lon="-11.447824236577391"><ele>78.66666666666667</ele><time>2026-04-29T11:05:41Z</time></trkpt><trkpt lat="27.92622182834216" lon="-11.447986856638888"><ele>80.33333333333333</ele><time>2026-04-29T11:05:42Z</time></trkpt><trkpt lat="27.92607494312856" lon="-11.448161359557247"><ele>82.0</ele><time>2026-04-29T11:05:43Z</time></trkpt><trkpt lat="27.925928100225597" lon="-11.448337500756757"><ele>81.33333333333333</ele><time>2026-04-29T11:05:44Z</time></trkpt><trkpt lat="27.925799829883026" lon="-11.448495452534251"><ele>80.66666666666667</ele><time>2026-04-29T11:05:45Z</time></trkpt><trkpt lat="27.925684492229557" lon="-11.448644133496186"><ele>80.0</ele><time>2026-04-29T11:05:46Z</time></trkpt><trkpt lat="27.925570182189688" lon="-11.448788311455122"><ele>81.66666666666667</ele><time>2026-04-29T11:05:47Z</time></trkpt><trkpt lat="27.92547537875193" lon="-11.448932242077879"><ele>83.33333333333333</ele><time>2026-04-29T11:05:48Z</time></trkpt><trkpt lat="27.925382672429677" lon="-11.449086922205135"><ele>85.0</ele><time>2026-04-29T11:05:49Z</time></trkpt><trkpt lat="27.925300086999748" lon="-11.449241306588794"><ele>85.0</ele><time>2026-04-29T11:05:50Z</time></trkpt><trkpt lat="27.925219110144628" lon="-11.449400647868256"><ele>85.0</ele><time>2026-04-29T11:05:51Z</time></trkpt><trkpt lat="27.92514722464457" lon="-11.449555999606511"><ele>85.0</ele><time>2026-04-29T11:05:52Z</time></trkpt><trkpt lat="27.92506215625745" lon="-11.449722665871727"><ele>85.0</ele><time>2026-04-29T11:05:53Z</time></trkpt><trkpt lat="27.92497758117162" lon="-11.449890743806883"><ele>85.0</ele><time>2026-04-29T11:05:54Z</time></trkpt><trkpt lat="27.924905827609706" lon="-11.450064627916717"><ele>85.0</ele><time>2026-04-29T11:05:55Z</time></trkpt><trkpt lat="27.9248305608332" lon="-11.450266390556969"><ele>86.33333333333333</ele><time>2026-04-29T11:05:56Z</time></trkpt><trkpt lat="27.92473760197699" lon="-11.450460428553004"><ele>87.66666666666667</ele><time>2026-04-29T11:05:57Z</time></trkpt><trkpt lat="27.92462841048026" lon="-11.450660725291675"><ele>89.0</ele><time>2026-04-29T11:05:58Z</time></trkpt><trkpt lat="27.924514240544752" lon="-11.450865748416863"><ele>89.0</ele><time>2026-04-29T11:05:59Z</time></trkpt><trkpt lat="27.924418619402882" lon="-11.451044266932183"><ele>89.0</ele><time>2026-04-29T11:06:00Z</time></trkpt><trkpt lat="27.924332913862358" lon="-11.451205060229785"><ele>89.0</ele><time>2026-04-29T11:06:01Z</time></trkpt><trkpt lat="27.924239777335945" lon="-11.45137200876734"><ele>89.66666666666667</ele><time>2026-04-29T11:06:02Z</time></trkpt><trkpt lat="27.92414475671611" lon="-11.45154320973638"><ele>90.33333333333333</ele><time>2026-04-29T11:06:03Z</time></trkpt><trkpt lat="27.92405599296649" lon="-11.45171312574219"><ele>91.0</ele><time>2026-04-29T11:06:04Z</time></trkpt><trkpt lat="27.923981519344146" lon="-11.451881053707591"><ele>91.0</ele><time>2026-04-29T11:06:05Z</time></trkpt><trkpt lat="27.923905889989996" lon="-11.452052854867327"><ele>91.0</ele><time>2026-04-29T11:06:06Z</time></trkpt><trkpt lat="27.923831714168966" lon="-11.452213115494283"><ele>91.0</ele><time>2026-04-29T11:06:07Z</time></trkpt><trkpt lat="27.923765977328728" lon="-11.45236295324725"><ele>90.66666666666666</ele><time>2026-04-29T11:06:08Z</time></trkpt><trkpt lat="27.92370709471666" lon="-11.452512653005181"><ele>90.33333333333333</ele><time>2026-04-29T11:06:09Z</time></trkpt><trkpt lat="27.923641688988795" lon="-11.452671119496866"><ele>90.0</ele><time>2026-04-29T11:06:10Z</time></trkpt><trkpt lat="27.923581016252218" lon="-11.452832561188965"><ele>90.5</ele><time>2026-04-29T11:06:11Z</time></trkpt><trkpt lat="27.923526525482053" lon="-11.452980439326794"><ele>91.0</ele><time>2026-04-29T11:06:12Z</time></trkpt><trkpt lat="27.923477316991097" lon="-11.453100769593286"><ele>91.5</ele><time>2026-04-29T11:06:13Z</time></trkpt><trkpt lat="27.923428206334176" lon="-11.453220764274423"><ele>92.0</ele><time>2026-04-29T11:06:14Z</time></trkpt><trkpt lat="27.92336960693033" lon="-11.45334333220828"><ele>92.0</ele><time>2026-04-29T11:06:15Z</time></trkpt><trkpt lat="27.92329281454716" lon="-11.453480510876988"><ele>92.0</ele><time>2026-04-29T11:06:16Z</time></trkpt><trkpt lat="27.923201968374556" lon="-11.453624782337176"><ele>92.0</ele><time>2026-04-29T11:06:17Z</time></trkpt><trkpt lat="27.923106568085586" lon="-11.453753115069324"><ele>92.0</ele><time>2026-04-29T11:06:18Z</time></trkpt><trkpt lat="27.92300014691891" lon="-11.45387559914904"><ele>92.25</ele><time>2026-04-29T11:06:19Z</time></trkpt><trkpt lat="27.922887635633675" lon="-11.453996813400362"><ele>92.5</ele><time>2026-04-29T11:06:20Z</time></trkpt><trkpt lat="27.922787860742382" lon="-11.45410986372819"><ele>92.75</ele><time>2026-04-29T11:06:21Z</time></trkpt><trkpt lat="27.922697300549647" lon="-11.454228315265654"><ele>93.0</ele><time>2026-04-29T11:06:22Z</time></trkpt><trkpt lat="27.92260138491549" lon="-11.454338407624824"><ele>92.75</ele><time>2026-04-29T11:06:23Z</time></trkpt><trkpt lat="27.922489234314916" lon="-11.454443716939128"><ele>92.5</ele><time>2026-04-29T11:06:24Z</time></trkpt><trkpt lat="27.92236647744367" lon="-11.454547568348636"><ele>92.25</ele><time>2026-04-29T11:06:25Z</time></trkpt><trkpt lat="27.92224495177622" lon="-11.454642204842898"><ele>92.0</ele><time>2026-04-29T11:06:26Z</time></trkpt><trkpt lat="27.922124519630373" lon="-11.454733872652328"><ele>92.0</ele><time>2026-04-29T11:06:27Z</time></trkpt><trkpt lat="27.92199625715224" lon="-11.454826270274914"><ele>92.0</ele><time>2026-04-29T11:06:28Z</time></trkpt><trkpt lat="27.921862920996876" lon="-11.454918347795987"><ele>92.0</ele><time>2026-04-29T11:06:29Z</time></trkpt><trkpt lat="27.921741876637693" lon="-11.454984193885117"><ele>92.0</ele><time>2026-04-29T11:06:30Z</time></trkpt><trkpt lat="27.921616486426124" lon="-11.455037728948556"><ele>91.75</ele><time>2026-04-29T11:06:31Z</time></trkpt><trkpt lat="27.921484924254923" lon="-11.45509242148816"><ele>91.5</ele><time>2026-04-29T11:06:32Z</time></trkpt><trkpt lat="27.921355962925922" lon="-11.455151019586339"><ele>91.25</ele><time>2026-04-29T11:06:33Z</time></trkpt><trkpt lat="27.92122618855194" lon="-11.455213910515853"><ele>91.0</ele><time>2026-04-29T11:06:34Z</time></trkpt><trkpt lat="27.921098732519464" lon="-11.455288556253002"><ele>91.0</ele><time>2026-04-29T11:06:35Z</time></trkpt><trkpt lat="27.92098464013969" lon="-11.455366068890001"><ele>91.0</ele><time>2026-04-29T11:06:36Z</time></trkpt><trkpt lat="27.920888839935674" lon="-11.45544278584636"><ele>91.0</ele><time>2026-04-29T11:06:37Z</time></trkpt><trkpt lat="27.920797946487774" lon="-11.455523440048296"><ele>91.0</ele><time>2026-04-29T11:06:38Z</time></trkpt><trkpt lat="27.9206976716247" lon="-11.45561161843826"><ele>92.5</ele><time>2026-04-29T11:06:39Z</time></trkpt><trkpt lat="27.920590895163976" lon="-11.455699608289832"><ele>94.0</ele><time>2026-04-29T11:06:40Z</time></trkpt><trkpt lat="27.920485133589665" lon="-11.455782499847679"><ele>95.5</ele><time>2026-04-29T11:06:41Z</time></trkpt><trkpt lat="27.920389696988074" lon="-11.455879136069603"><ele>97.0</ele><time>2026-04-29T11:06:42Z</time></trkpt><trkpt lat="27.92029214336988" lon="-11.455998268166459"><ele>97.0</ele><time>2026-04-29T11:06:43Z</time></trkpt><trkpt lat="27.92018771609897" lon="-11.45612514692423"><ele>97.0</ele><time>2026-04-29T11:06:44Z</time></trkpt><trkpt lat="27.920079986444804" lon="-11.456251759425934"><ele>97.0</ele><time>2026-04-29T11:06:45Z</time></trkpt><trkpt lat="27.919976497608857" lon="-11.456384228783966"><ele>97.75</ele><time>2026-04-29T11:06:46Z</time></trkpt><trkpt lat="27.919884489517298" lon="-11.456514395708217"><ele>98.5</ele><time>2026-04-29T11:06:47Z</time></trkpt><trkpt lat="27.919797095165595" lon="-11.456647356233015"><ele>99.25</ele><time>2026-04-29T11:06:48Z</time></trkpt><trkpt lat="27.919724480645197" lon="-11.456774866663366"><ele>100.0</ele><time>2026-04-29T11:06:49Z</time></trkpt><trkpt lat="27.91967015436629" lon="-11.456890928195037"><ele>100.0</ele><time>2026-04-29T11:06:50Z</time></trkpt><trkpt lat="27.91962321654365" lon="-11.456991733300669"><ele>100.0</ele><time>2026-04-29T11:06:51Z</time></trkpt><trkpt lat="27.91958806212212" lon="-11.457075040487732"><ele>100.0</ele><time>2026-04-29T11:06:52Z</time></trkpt><trkpt lat="27.919571797507068" lon="-11.457194734648533"><ele>100.0</ele><time>2026-04-29T11:06:54Z</time></trkpt><trkpt lat="27.919649692959254" lon="-11.457331919605712"><ele>100.0</ele><time>2026-04-29T11:06:56Z</time></trkpt><trkpt lat="27.919674762256236" lon="-11.457471362540051"><ele>99.66666666666667</ele><time>2026-04-29T11:06:58Z</time></trkpt><trkpt lat="27.919650961754886" lon="-11.457555295728667"><ele>99.33333333333334</ele><time>2026-04-29T11:06:59Z</time></trkpt><trkpt lat="27.91961758809536" lon="-11.457615860105475"><ele>99.0</ele><time>2026-04-29T11:07:00Z</time></trkpt><trkpt lat="27.919558936070242" lon="-11.45767466073214"><ele>98.66666666666666</ele><time>2026-04-29T11:07:01Z</time></trkpt><trkpt lat="27.91947775287973" lon="-11.457728786914613"><ele>98.33333333333333</ele><time>2026-04-29T11:07:02Z</time></trkpt><trkpt lat="27.919412257829414" lon="-11.457764851424722"><ele>98.0</ele><time>2026-04-29T11:07:03Z</time></trkpt><trkpt lat="27.919292458545854" lon="-11.457811961402752"><ele>97.83333333333333</ele><time>2026-04-29T11:07:05Z</time></trkpt><trkpt lat="27.91922618301519" lon="-11.457836329760005"><ele>97.66666666666666</ele><time>2026-04-29T11:07:06Z</time></trkpt><trkpt lat="27.91915204238658" lon="-11.457870257494205"><ele>97.5</ele><time>2026-04-29T11:07:07Z</time></trkpt><trkpt lat="27.91908270136915" lon="-11.457920710065132"><ele>97.33333333333334</ele><time>2026-04-29T11:07:08Z</time></trkpt><trkpt lat="27.91901226587446" lon="-11.457995044094243"><ele>97.16666666666667</ele><time>2026-04-29T11:07:09Z</time></trkpt><trkpt lat="27.918948074282063" lon="-11.458097433398123"><ele>97.0</ele><time>2026-04-29T11:07:10Z</time></trkpt><trkpt lat="27.918886383714863" lon="-11.458215082317693"><ele>98.25</ele><time>2026-04-29T11:07:11Z</time></trkpt><trkpt lat="27.918827260967834" lon="-11.458353266701776"><ele>99.5</ele><time>2026-04-29T11:07:12Z</time></trkpt><trkpt lat="27.918766867744957" lon="-11.458498230424178"><ele>100.75</ele><time>2026-04-29T11:07:13Z</time></trkpt><trkpt lat="27.91870669419787" lon="-11.458628268214888"><ele>102.0</ele><time>2026-04-29T11:07:14Z</time></trkpt><trkpt lat="27.918642058380872" lon="-11.458759737536925"><ele>102.0</ele><time>2026-04-29T11:07:15Z</time></trkpt><trkpt lat="27.91858032843898" lon="-11.458894271050559"><ele>102.0</ele><time>2026-04-29T11:07:16Z</time></trkpt><trkpt lat="27.918518639457663" lon="-11.459043465443797"><ele>102.0</ele><time>2026-04-29T11:07:17Z</time></trkpt><trkpt lat="27.918451445915295" lon="-11.459193622537526"><ele>102.0</ele><time>2026-04-29T11:07:18Z</time></trkpt><trkpt lat="27.918386816606862" lon="-11.459323168563126"><ele>102.25</ele><time>2026-04-29T11:07:19Z</time></trkpt><trkpt lat="27.918317766032565" lon="-11.459430687783072"><ele>102.5</ele><time>2026-04-29T11:07:20Z</time></trkpt><trkpt lat="27.91823700864266" lon="-11.45954336522965"><ele>102.75</ele><time>2026-04-29T11:07:21Z</time></trkpt><trkpt lat="27.918161389481526" lon="-11.459643081633105"><ele>103.0</ele><time>2026-04-29T11:07:22Z</time></trkpt><trkpt lat="27.918093999072763" lon="-11.459722530301635"><ele>102.33333333333334</ele><time>2026-04-29T11:07:23Z</time></trkpt><trkpt lat="27.918037671216776" lon="-11.459795941377163"><ele>101.66666666666667</ele><time>2026-04-29T11:07:24Z</time></trkpt><trkpt lat="27.917977711619628" lon="-11.459866349428928"><ele>101.0</ele><time>2026-04-29T11:07:25Z</time></trkpt><trkpt lat="27.91792072978604" lon="-11.459914183067829"><ele>100.33333333333334</ele><time>2026-04-29T11:07:26Z</time></trkpt><trkpt lat="27.917826895202644" lon="-11.459974572285676"><ele>99.66666666666667</ele><time>2026-04-29T11:07:28Z</time></trkpt><trkpt lat="27.917768969765188" lon="-11.460006429665958"><ele>99.0</ele><time>2026-04-29T11:07:29Z</time></trkpt><trkpt lat="27.917700552989942" lon="-11.460042199961652"><ele>99.0</ele><time>2026-04-29T11:07:30Z</time></trkpt><trkpt lat="27.917627779343977" lon="-11.46007366776091"><ele>99.0</ele><time>2026-04-29T11:07:31Z</time></trkpt><trkpt lat="27.917563119186713" lon="-11.46009756769815"><ele>99.0</ele><time>2026-04-29T11:07:32Z</time></trkpt><trkpt lat="27.917492738743338" lon="-11.460118925539005"><ele>99.0</ele><time>2026-04-29T11:07:33Z</time></trkpt><trkpt lat="27.917378570664543" lon="-11.460160194590097"><ele>99.0</ele><time>2026-04-29T11:07:35Z</time></trkpt><trkpt lat="27.917276934092758" lon="-11.460199601591905"><ele>99.0</ele><time>2026-04-29T11:07:37Z</time></trkpt><trkpt lat="27.917150548994353" lon="-11.460234248169954"><ele>99.66666666666667</ele><time>2026-04-29T11:07:39Z</time></trkpt><trkpt lat="27.917080268155544" lon="-11.460252382395518"><ele>100.33333333333334</ele><time>2026-04-29T11:07:40Z</time></trkpt><trkpt lat="27.917009780438203" lon="-11.46026259429995"><ele>101.0</ele><time>2026-04-29T11:07:41Z</time></trkpt><trkpt lat="27.916934592369476" lon="-11.460270346372894"><ele>101.66666666666667</ele><time>2026-04-29T11:07:42Z</time></trkpt><trkpt lat="27.916854997419982" lon="-11.460279624149617"><ele>102.33333333333334</ele><time>2026-04-29T11:07:43Z</time></trkpt><trkpt lat="27.916768722610744" lon="-11.460285171583118"><ele>103.0</ele><time>2026-04-29T11:07:44Z</time></trkpt><trkpt lat="27.916660762525417" lon="-11.46028948761587"><ele>103.5</ele><time>2026-04-29T11:07:45Z</time></trkpt><trkpt lat="27.916533816774518" lon="-11.460291632635126"><ele>104.0</ele><time>2026-04-29T11:07:46Z</time></trkpt><trkpt lat="27.916397379293763" lon="-11.46029803198476"><ele>104.5</ele><time>2026-04-29T11:07:47Z</time></trkpt><trkpt lat="27.916244341498125" lon="-11.460312016114566"><ele>105.0</ele><time>2026-04-29T11:07:48Z</time></trkpt><trkpt lat="27.916084711766036" lon="-11.46033491803634"><ele>105.0</ele><time>2026-04-29T11:07:49Z</time></trkpt><trkpt lat="27.915936591861115" lon="-11.46035781485843"><ele>105.0</ele><time>2026-04-29T11:07:50Z</time></trkpt><trkpt lat="27.915783057732288" lon="-11.46039028590115"><ele>105.0</ele><time>2026-04-29T11:07:51Z</time></trkpt><trkpt lat="27.915633760121914" lon="-11.460437860759598"><ele>104.8</ele><time>2026-04-29T11:07:52Z</time></trkpt><trkpt lat="27.915512005545434" lon="-11.460478475403166"><ele>104.6</ele><time>2026-04-29T11:07:53Z</time></trkpt><trkpt lat="27.91540814891233" lon="-11.460507178987813"><ele>104.4</ele><time>2026-04-29T11:07:54Z</time></trkpt><trkpt lat="27.915328176113462" lon="-11.460523706048969"><ele>104.2</ele><time>2026-04-29T11:07:55Z</time></trkpt><trkpt lat="27.915233108708087" lon="-11.46055366093717"><ele>104.0</ele><time>2026-04-29T11:07:57Z</time></trkpt><trkpt lat="27.915157913816387" lon="-11.460659274098113"><ele>104.0</ele><time>2026-04-29T11:07:59Z</time></trkpt><trkpt lat="27.915116741579467" lon="-11.46075366746099"><ele>104.0</ele><time>2026-04-29T11:08:00Z</time></trkpt><trkpt lat="27.915066217275605" lon="-11.460847092612827"><ele>104.0</ele><time>2026-04-29T11:08:01Z</time></trkpt><trkpt lat="27.914993511457904" lon="-11.460913826154313"><ele>104.0</ele><time>2026-04-29T11:08:02Z</time></trkpt><trkpt lat="27.914903621139317" lon="-11.460939994688678"><ele>104.0</ele><time>2026-04-29T11:08:03Z</time></trkpt><trkpt lat="27.91477875650232" lon="-11.460961813914482"><ele>103.4</ele><time>2026-04-29T11:08:04Z</time></trkpt><trkpt lat="27.91465732377661" lon="-11.460992376611959"><ele>102.80000000000001</ele><time>2026-04-29T11:08:05Z</time></trkpt><trkpt lat="27.914558620276445" lon="-11.461033317272056"><ele>102.19999999999999</ele><time>2026-04-29T11:08:06Z</time></trkpt><trkpt lat="27.91447748674726" lon="-11.461065692888672"><ele>101.6</ele><time>2026-04-29T11:08:07Z</time></trkpt><trkpt lat="27.914405995033732" lon="-11.461092673389004"><ele>101.0</ele><time>2026-04-29T11:08:08Z</time></trkpt><trkpt lat="27.914312919595822" lon="-11.461126035671363"><ele>101.0</ele><time>2026-04-29T11:08:10Z</time></trkpt><trkpt lat="27.91424127254948" lon="-11.461150295426703"><ele>101.0</ele><time>2026-04-29T11:08:12Z</time></trkpt><trkpt lat="27.91413552926929" lon="-11.461181334410401"><ele>101.0</ele><time>2026-04-29T11:08:14Z</time></trkpt><trkpt lat="27.914039627604065" lon="-11.46121910335709"><ele>101.0</ele><time>2026-04-29T11:08:16Z</time></trkpt><trkpt lat="27.91397959528502" lon="-11.461292739344902"><ele>101.0</ele><time>2026-04-29T11:08:18Z</time></trkpt><trkpt lat="27.9138826705099" lon="-11.461405981163875"><ele>101.4</ele><time>2026-04-29T11:08:20Z</time></trkpt><trkpt lat="27.913833281647715" lon="-11.461461411092928"><ele>101.8</ele><time>2026-04-29T11:08:21Z</time></trkpt><trkpt lat="27.91374006139893" lon="-11.46155283561648"><ele>102.2</ele><time>2026-04-29T11:08:23Z</time></trkpt><trkpt lat="27.91365676777948" lon="-11.461645887482037"><ele>102.60000000000001</ele><time>2026-04-29T11:08:25Z</time></trkpt><trkpt lat="27.91359124392326" lon="-11.461723966389002"><ele>103.0</ele><time>2026-04-29T11:08:27Z</time></trkpt><trkpt lat="27.91351672702456" lon="-11.461756281765668"><ele>103.0</ele><time>2026-04-29T11:08:29Z</time></trkpt><trkpt lat="27.91344829033588" lon="-11.461754716980472"><ele>103.0</ele><time>2026-04-29T11:08:32Z</time></trkpt><trkpt lat="27.91336396005261" lon="-11.461714857221772"><ele>103.0</ele><time>2026-04-29T11:11:46Z</time></trkpt><trkpt lat="27.91324981806932" lon="-11.46169873355484"><ele>103.0</ele><time>2026-04-29T11:11:48Z</time></trkpt><trkpt lat="27.913115047320673" lon="-11.461658758445465"><ele>103.0</ele><time>2026-04-29T11:11:50Z</time></trkpt><trkpt lat="27.913035050746593" lon="-11.461646571653723"><ele>103.00000000000001</ele><time>2026-04-29T11:11:51Z</time></trkpt><trkpt lat="27.91295051394926" lon="-11.461653510346483"><ele>103.0</ele><time>2026-04-29T11:11:52Z</time></trkpt><trkpt lat="27.912867686366447" lon="-11.46167343864982"><ele>103.0</ele><time>2026-04-29T11:11:53Z</time></trkpt><trkpt lat="27.912788872437467" lon="-11.461708979757901"><ele>103.0</ele><time>2026-04-29T11:11:54Z</time></trkpt><trkpt lat="27.912697994843448" lon="-11.461730794559188"><ele>103.00000000000001</ele><time>2026-04-29T11:11:55Z</time></trkpt><trkpt lat="27.912607065706755" lon="-11.461750667028404"><ele>103.0</ele><time>2026-04-29T11:11:56Z</time></trkpt><trkpt lat="27.912519298267192" lon="-11.46179310755037"><ele>103.0</ele><time>2026-04-29T11:11:57Z</time></trkpt><trkpt lat="27.912428495727138" lon="-11.461874134495703"><ele>103.0</ele><time>2026-04-29T11:11:58Z</time></trkpt><trkpt lat="27.912347727343437" lon="-11.461972151426515"><ele>103.0</ele><time>2026-04-29T11:11:59Z</time></trkpt><trkpt lat="27.912288237047157" lon="-11.4620583579897"><ele>103.0</ele><time>2026-04-29T11:12:00Z</time></trkpt><trkpt lat="27.91223462587897" lon="-11.462160924832236"><ele>103.0</ele><time>2026-04-29T11:12:01Z</time></trkpt><trkpt lat="27.9121811547537" lon="-11.462292238629756"><ele>103.0</ele><time>2026-04-29T11:12:02Z</time></trkpt><trkpt lat="27.912111775222435" lon="-11.462420017393793"><ele>103.0</ele><time>2026-04-29T11:12:03Z</time></trkpt><trkpt lat="27.9120259776978" lon="-11.462542973083828"><ele>103.0</ele><time>2026-04-29T11:12:04Z</time></trkpt><trkpt lat="27.911945023551343" lon="-11.462672057170186"><ele>103.0</ele><time>2026-04-29T11:12:05Z</time></trkpt><trkpt lat="27.911888389626423" lon="-11.462793482747287"><ele>103.0</ele><time>2026-04-29T11:12:06Z</time></trkpt><trkpt lat="27.911855248855385" lon="-11.462904778702672"><ele>103.0</ele><time>2026-04-29T11:12:07Z</time></trkpt><trkpt lat="27.911838778766068" lon="-11.462998433042326"><ele>103.0</ele><time>2026-04-29T11:12:08Z</time></trkpt><trkpt lat="27.911824668378223" lon="-11.463092299227823"><ele>103.0</ele><time>2026-04-29T11:12:09Z</time></trkpt><trkpt lat="27.911797023100096" lon="-11.463190669284133"><ele>103.0</ele><time>2026-04-29T11:12:10Z</time></trkpt><trkpt lat="27.91175491588521" lon="-11.46330455732329"><ele>103.0</ele><time>2026-04-29T11:12:11Z</time></trkpt><trkpt lat="27.911694825576888" lon="-11.46343291078044"><ele>103.0</ele><time>2026-04-29T11:12:12Z</time></trkpt><trkpt lat="27.911624910256123" lon="-11.46355444793882"><ele>103.0</ele><time>2026-04-29T11:12:13Z</time></trkpt><trkpt lat="27.911547410558082" lon="-11.463677797780038"><ele>103.0</ele><time>2026-04-29T11:12:14Z</time></trkpt><trkpt lat="27.911472697794633" lon="-11.463792071398569"><ele>103.0</ele><time>2026-04-29T11:12:15Z</time></trkpt><trkpt lat="27.911376284197008" lon="-11.46392163107872"><ele>103.0</ele><time>2026-04-29T11:12:16Z</time></trkpt><trkpt lat="27.911281952606544" lon="-11.464041400983035"><ele>103.0</ele><time>2026-04-29T11:12:17Z</time></trkpt><trkpt lat="27.911183928601556" lon="-11.464150828958376"><ele>103.0</ele><time>2026-04-29T11:12:18Z</time></trkpt><trkpt lat="27.911075814225157" lon="-11.464264695301477"><ele>103.0</ele><time>2026-04-29T11:12:19Z</time></trkpt><trkpt lat="27.91098141204788" lon="-11.464380944675113"><ele>103.0</ele><time>2026-04-29T11:12:20Z</time></trkpt><trkpt lat="27.910885079269768" lon="-11.46450210301638"><ele>103.0</ele><time>2026-04-29T11:12:21Z</time></trkpt><trkpt lat="27.910779814542476" lon="-11.46462871267814"><ele>103.0</ele><time>2026-04-29T11:12:22Z</time></trkpt><trkpt lat="27.91067351560568" lon="-11.464757456882593"><ele>104.66666666666667</ele><time>2026-04-29T11:12:23Z</time></trkpt><trkpt lat="27.910568923417216" lon="-11.464876853848434"><ele>106.33333333333334</ele><time>2026-04-29T11:12:24Z</time></trkpt><trkpt lat="27.910463021035966" lon="-11.4650023197736"><ele>108.0</ele><time>2026-04-29T11:12:25Z</time></trkpt><trkpt lat="27.91035426787181" lon="-11.465118170310035"><ele>108.0</ele><time>2026-04-29T11:12:26Z</time></trkpt><trkpt lat="27.91024222826274" lon="-11.465235729729569"><ele>108.0</ele><time>2026-04-29T11:12:27Z</time></trkpt><trkpt lat="27.910131935497528" lon="-11.46535736821934"><ele>108.0</ele><time>2026-04-29T11:12:28Z</time></trkpt><trkpt lat="27.910031447356474" lon="-11.465483878635236"><ele>107.33333333333334</ele><time>2026-04-29T11:12:29Z</time></trkpt><trkpt lat="27.909937698865818" lon="-11.465618078584026"><ele>106.66666666666667</ele><time>2026-04-29T11:12:30Z</time></trkpt><trkpt lat="27.9098367407313" lon="-11.465765062142474"><ele>106.0</ele><time>2026-04-29T11:12:31Z</time></trkpt><trkpt lat="27.909734978112585" lon="-11.465905391053981"><ele>106.0</ele><time>2026-04-29T11:12:32Z</time></trkpt><trkpt lat="27.90963853418687" lon="-11.466034167124556"><ele>106.0</ele><time>2026-04-29T11:12:33Z</time></trkpt><trkpt lat="27.90954275944158" lon="-11.466171334545388"><ele>106.0</ele><time>2026-04-29T11:12:34Z</time></trkpt><trkpt lat="27.909442615701465" lon="-11.46630619240546"><ele>106.33333333333334</ele><time>2026-04-29T11:12:35Z</time></trkpt><trkpt lat="27.90932684841765" lon="-11.466437870287896"><ele>106.66666666666666</ele><time>2026-04-29T11:12:36Z</time></trkpt><trkpt lat="27.909202954887068" lon="-11.466569048077291"><ele>107.0</ele><time>2026-04-29T11:12:37Z</time></trkpt><trkpt lat="27.90906024086799" lon="-11.466725426293525"><ele>107.0</ele><time>2026-04-29T11:12:38Z</time></trkpt><trkpt lat="27.90892001960033" lon="-11.46688591630063"><ele>107.0</ele><time>2026-04-29T11:12:39Z</time></trkpt><trkpt lat="27.9087786006634" lon="-11.46703338487711"><ele>107.0</ele><time>2026-04-29T11:12:40Z</time></trkpt><trkpt lat="27.90863139505194" lon="-11.467172055911432"><ele>108.0</ele><time>2026-04-29T11:12:41Z</time></trkpt><trkpt lat="27.908466090019807" lon="-11.467302631758232"><ele>109.0</ele><time>2026-04-29T11:12:42Z</time></trkpt><trkpt lat="27.908297502291465" lon="-11.467426969184638"><ele>110.0</ele><time>2026-04-29T11:12:43Z</time></trkpt><trkpt lat="27.908128473950125" lon="-11.467547063650164"><ele>110.33333333333333</ele><time>2026-04-29T11:12:44Z</time></trkpt><trkpt lat="27.907958061404294" lon="-11.467666719997553"><ele>110.66666666666666</ele><time>2026-04-29T11:12:45Z</time></trkpt><trkpt lat="27.90777916110363" lon="-11.467802566410176"><ele>111.0</ele><time>2026-04-29T11:12:46Z</time></trkpt><trkpt lat="27.907606444820424" lon="-11.467930579868895"><ele>111.66666666666666</ele><time>2026-04-29T11:12:47Z</time></trkpt><trkpt lat="27.907442225007866" lon="-11.468046630868786"><ele>112.33333333333333</ele><time>2026-04-29T11:12:48Z</time></trkpt><trkpt lat="27.907298816528883" lon="-11.468147489740272"><ele>113.0</ele><time>2026-04-29T11:12:49Z</time></trkpt><trkpt lat="27.90713526380084" lon="-11.468258758036523"><ele>113.0</ele><time>2026-04-29T11:12:50Z</time></trkpt><trkpt lat="27.906997728112454" lon="-11.468349247229407"><ele>113.0</ele><time>2026-04-29T11:12:51Z</time></trkpt><trkpt lat="27.906868485731874" lon="-11.468432613685627"><ele>113.0</ele><time>2026-04-29T11:12:52Z</time></trkpt><trkpt lat="27.906749149779646" lon="-11.468514850819082"><ele>113.0</ele><time>2026-04-29T11:12:53Z</time></trkpt><trkpt lat="27.906635393543063" lon="-11.46859316040758"><ele>112.2</ele><time>2026-04-29T11:12:54Z</time></trkpt><trkpt lat="27.906534853646505" lon="-11.46866838431504"><ele>111.4</ele><time>2026-04-29T11:12:55Z</time></trkpt><trkpt lat="27.906444869255367" lon="-11.468739224837156"><ele>110.60000000000001</ele><time>2026-04-29T11:12:56Z</time></trkpt><trkpt lat="27.906375737868043" lon="-11.46880667617588"><ele>109.80000000000001</ele><time>2026-04-29T11:12:57Z</time></trkpt><trkpt lat="27.906315551471355" lon="-11.468878603072723"><ele>109.0</ele><time>2026-04-29T11:12:58Z</time></trkpt><trkpt lat="27.906266894468843" lon="-11.468962307306697"><ele>109.0</ele><time>2026-04-29T11:12:59Z</time></trkpt><trkpt lat="27.906235079318645" lon="-11.469046516613966"><ele>109.0</ele><time>2026-04-29T11:13:00Z</time></trkpt><trkpt lat="27.906206958075256" lon="-11.46913941914305"><ele>109.0</ele><time>2026-04-29T11:13:01Z</time></trkpt><trkpt lat="27.90619382025669" lon="-11.469242398160288"><ele>109.0</ele><time>2026-04-29T11:13:02Z</time></trkpt><trkpt lat="27.906199722257718" lon="-11.469336356854411"><ele>109.0</ele><time>2026-04-29T11:13:03Z</time></trkpt><trkpt lat="27.906232501235554" lon="-11.469464630466817"><ele>110.0</ele><time>2026-04-29T11:13:04Z</time></trkpt><trkpt lat="27.906278533371314" lon="-11.469614183020603"><ele>111.0</ele><time>2026-04-29T11:13:05Z</time></trkpt><trkpt lat="27.90632048922406" lon="-11.469782329855864"><ele>112.0</ele><time>2026-04-29T11:13:06Z</time></trkpt><trkpt lat="27.906357749132496" lon="-11.46996495140222"><ele>112.0</ele><time>2026-04-29T11:13:07Z</time></trkpt><trkpt lat="27.90640197179222" lon="-11.470174870835377"><ele>112.0</ele><time>2026-04-29T11:13:08Z</time></trkpt><trkpt lat="27.906439761504807" lon="-11.47035208446117"><ele>112.0</ele><time>2026-04-29T11:13:09Z</time></trkpt><trkpt lat="27.90647831833077" lon="-11.470531474467544"><ele>112.0</ele><time>2026-04-29T11:13:10Z</time></trkpt><trkpt lat="27.906556034573782" lon="-11.470703550269493"><ele>112.0</ele><time>2026-04-29T11:13:11Z</time></trkpt><trkpt lat="27.906622965866674" lon="-11.470844834907327"><ele>112.0</ele><time>2026-04-29T11:13:12Z</time></trkpt><trkpt lat="27.906703591645833" lon="-11.471014776301539"><ele>112.0</ele><time>2026-04-29T11:13:13Z</time></trkpt><trkpt lat="27.906771926010634" lon="-11.471158447359686"><ele>112.0</ele><time>2026-04-29T11:13:14Z</time></trkpt><trkpt lat="27.9068467724292" lon="-11.471315809867361"><ele>112.0</ele><time>2026-04-29T11:13:15Z</time></trkpt><trkpt lat="27.90692546137894" lon="-11.471483000397555"><ele>110.75</ele><time>2026-04-29T11:13:16Z</time></trkpt><trkpt lat="27.906997534547873" lon="-11.471615422581232"><ele>109.5</ele><time>2026-04-29T11:13:17Z</time></trkpt><trkpt lat="27.907062942836276" lon="-11.471736581315342"><ele>108.25</ele><time>2026-04-29T11:13:18Z</time></trkpt><trkpt lat="27.907126633488758" lon="-11.471868852464304"><ele>107.0</ele><time>2026-04-29T11:13:19Z</time></trkpt><trkpt lat="27.90717433119586" lon="-11.472008335468574"><ele>109.25</ele><time>2026-04-29T11:13:20Z</time></trkpt><trkpt lat="27.9072339216392" lon="-11.472134201479221"><ele>111.5</ele><time>2026-04-29T11:13:21Z</time></trkpt><trkpt lat="27.907298106022324" lon="-11.472260417259278"><ele>113.75</ele><time>2026-04-29T11:13:22Z</time></trkpt><trkpt lat="27.907311589924277" lon="-11.472447610583068"><ele>116.0</ele><time>2026-04-29T11:13:23Z</time></trkpt><trkpt lat="27.907313107924068" lon="-11.472635201264897"><ele>116.0</ele><time>2026-04-29T11:13:24Z</time></trkpt><trkpt lat="27.907318422464922" lon="-11.472773452384082"><ele>116.0</ele><time>2026-04-29T11:13:25Z</time></trkpt><trkpt lat="27.907304062773946" lon="-11.472882928905324"><ele>116.0</ele><time>2026-04-29T11:13:26Z</time></trkpt><trkpt lat="27.907300450570023" lon="-11.47300125707341"><ele>116.0</ele><time>2026-04-29T11:13:27Z</time></trkpt><trkpt lat="27.90729727537125" lon="-11.473105269791427"><ele>116.0</ele><time>2026-04-29T11:13:28Z</time></trkpt><trkpt lat="27.907293327047658" lon="-11.473226080829612"><ele>116.25</ele><time>2026-04-29T11:13:29Z</time></trkpt><trkpt lat="27.907293625330535" lon="-11.473397242657443"><ele>116.5</ele><time>2026-04-29T11:13:30Z</time></trkpt><trkpt lat="27.907324462098668" lon="-11.473542571762076"><ele>116.75</ele><time>2026-04-29T11:13:31Z</time></trkpt><trkpt lat="27.907356582191824" lon="-11.473688466772279"><ele>117.0</ele><time>2026-04-29T11:13:32Z</time></trkpt><trkpt lat="27.907389550171782" lon="-11.47384199810833"><ele>117.0</ele><time>2026-04-29T11:13:33Z</time></trkpt><trkpt lat="27.90742620382408" lon="-11.47401278882355"><ele>117.0</ele><time>2026-04-29T11:13:34Z</time></trkpt><trkpt lat="27.907464084879315" lon="-11.474190424650846"><ele>117.0</ele><time>2026-04-29T11:13:35Z</time></trkpt><trkpt lat="27.907502487739205" lon="-11.474369075703905"><ele>117.0</ele><time>2026-04-29T11:13:36Z</time></trkpt><trkpt lat="27.907541679942536" lon="-11.474551398817981"><ele>117.0</ele><time>2026-04-29T11:13:37Z</time></trkpt><trkpt lat="27.907636977752656" lon="-11.474751878514141"><ele>117.0</ele><time>2026-04-29T11:13:38Z</time></trkpt><trkpt lat="27.907719104312616" lon="-11.47493242227835"><ele>117.0</ele><time>2026-04-29T11:13:39Z</time></trkpt><trkpt lat="27.907801427661987" lon="-11.4751133122332"><ele>117.0</ele><time>2026-04-29T11:13:40Z</time></trkpt><trkpt lat="27.90788040093558" lon="-11.475286820014427"><ele>117.0</ele><time>2026-04-29T11:13:41Z</time></trkpt><trkpt lat="27.907951944591115" lon="-11.475442376393943"><ele>117.25</ele><time>2026-04-29T11:13:42Z</time></trkpt><trkpt lat="27.90801463595897" lon="-11.475580466051431"><ele>117.5</ele><time>2026-04-29T11:13:43Z</time></trkpt><trkpt lat="27.90806238795774" lon="-11.475685789138955"><ele>117.75</ele><time>2026-04-29T11:13:44Z</time></trkpt><trkpt lat="27.908125422353155" lon="-11.475791460977977"><ele>118.0</ele><time>2026-04-29T11:13:45Z</time></trkpt><trkpt lat="27.908167716899506" lon="-11.475901326425209"><ele>118.00000000000001</ele><time>2026-04-29T11:13:46Z</time></trkpt><trkpt lat="27.908198730966316" lon="-11.476021533378535"><ele>118.0</ele><time>2026-04-29T11:13:47Z</time></trkpt><trkpt lat="27.908256728192086" lon="-11.476128234685302"><ele>118.0</ele><time>2026-04-29T11:13:48Z</time></trkpt><trkpt lat="27.908291582291994" lon="-11.476225701632288"><ele>118.0</ele><time>2026-04-29T11:13:49Z</time></trkpt><trkpt lat="27.90832057448529" lon="-11.476290922715574"><ele>118.00000000000001</ele><time>2026-04-29T11:13:50Z</time></trkpt><trkpt lat="27.908350947439946" lon="-11.47635782490531"><ele>118.0</ele><time>2026-04-29T11:13:53Z</time></trkpt><trkpt lat="27.908419179941518" lon="-11.476399279583541"><ele>118.2</ele><time>2026-04-29T11:18:15Z</time></trkpt><trkpt lat="27.90844811259263" lon="-11.476495800543516"><ele>118.4</ele><time>2026-04-29T11:18:16Z</time></trkpt><trkpt lat="27.908491755484413" lon="-11.476602067467171"><ele>118.60000000000001</ele><time>2026-04-29T11:18:17Z</time></trkpt><trkpt lat="27.908504361807427" lon="-11.476742056818926"><ele>118.80000000000001</ele><time>2026-04-29T11:18:18Z</time></trkpt><trkpt lat="27.908543863903756" lon="-11.476841191576627"><ele>119.0</ele><time>2026-04-29T11:18:19Z</time></trkpt><trkpt lat="27.9085835804588" lon="-11.476940864593553"><ele>118.99999999999999</ele><time>2026-04-29T11:18:20Z</time></trkpt><trkpt lat="27.908617243086066" lon="-11.47702641907457"><ele>119.0</ele><time>2026-04-29T11:18:21Z</time></trkpt><trkpt lat="27.90865036947018" lon="-11.477110486259962"><ele>119.0</ele><time>2026-04-29T11:18:22Z</time></trkpt><trkpt lat="27.908683886989042" lon="-11.477194987168177"><ele>119.0</ele><time>2026-04-29T11:18:23Z</time></trkpt><trkpt lat="27.908713226746755" lon="-11.47726895550205"><ele>118.99999999999999</ele><time>2026-04-29T11:18:24Z</time></trkpt><trkpt lat="27.90874469358842" lon="-11.47734828638236"><ele>119.0</ele><time>2026-04-29T11:18:25Z</time></trkpt><trkpt lat="27.908781036902965" lon="-11.47744003584643"><ele>119.2</ele><time>2026-04-29T11:18:26Z</time></trkpt><trkpt lat="27.908820179730036" lon="-11.477537246491229"><ele>119.4</ele><time>2026-04-29T11:18:27Z</time></trkpt><trkpt lat="27.90886186575131" lon="-11.477641888035494"><ele>119.6</ele><time>2026-04-29T11:18:28Z</time></trkpt><trkpt lat="27.90890607454702" lon="-11.477753581021465"><ele>119.8</ele><time>2026-04-29T11:18:29Z</time></trkpt><trkpt lat="27.90894974216217" lon="-11.477863906736454"><ele>120.0</ele><time>2026-04-29T11:18:30Z</time></trkpt><trkpt lat="27.9089928926168" lon="-11.477973097407782"><ele>120.0</ele><time>2026-04-29T11:18:31Z</time></trkpt><trkpt lat="27.90903133784387" lon="-11.478068185341746"><ele>120.0</ele><time>2026-04-29T11:18:32Z</time></trkpt><trkpt lat="27.909071714211784" lon="-11.478210655974308"><ele>120.0</ele><time>2026-04-29T11:18:34Z</time></trkpt><trkpt lat="27.90909354209219" lon="-11.478295523600899"><ele>120.0</ele><time>2026-04-29T11:18:35Z</time></trkpt><trkpt lat="27.909120539518874" lon="-11.478401039327935"><ele>120.0</ele><time>2026-04-29T11:18:36Z</time></trkpt><trkpt lat="27.909150372645776" lon="-11.478518253523719"><ele>120.0</ele><time>2026-04-29T11:18:37Z</time></trkpt><trkpt lat="27.909184046328534" lon="-11.478649956012362"><ele>120.0</ele><time>2026-04-29T11:18:38Z</time></trkpt><trkpt lat="27.909217947656572" lon="-11.47878052251517"><ele>120.0</ele><time>2026-04-29T11:18:39Z</time></trkpt><trkpt lat="27.909250759948844" lon="-11.478906860993801"><ele>120.0</ele><time>2026-04-29T11:18:40Z</time></trkpt><trkpt lat="27.909283574383693" lon="-11.479038750578125"><ele>120.5</ele><time>2026-04-29T11:18:41Z</time></trkpt><trkpt lat="27.909317945507556" lon="-11.479179193047019"><ele>121.0</ele><time>2026-04-29T11:18:42Z</time></trkpt><trkpt lat="27.909356787032657" lon="-11.479334503764566"><ele>121.5</ele><time>2026-04-29T11:18:43Z</time></trkpt><trkpt lat="27.90939843505404" lon="-11.479503216928892"><ele>122.0</ele><time>2026-04-29T11:18:44Z</time></trkpt><trkpt lat="27.909439967284566" lon="-11.47967247688805"><ele>122.66666666666666</ele><time>2026-04-29T11:18:45Z</time></trkpt><trkpt lat="27.909484915158426" lon="-11.479854602876712"><ele>123.33333333333334</ele><time>2026-04-29T11:18:46Z</time></trkpt><trkpt lat="27.909528504958647" lon="-11.480030204318904"><ele>124.0</ele><time>2026-04-29T11:18:47Z</time></trkpt><trkpt lat="27.90956894813707" lon="-11.480198895034691"><ele>124.0</ele><time>2026-04-29T11:18:48Z</time></trkpt><trkpt lat="27.90960237745002" lon="-11.480370329233255"><ele>124.0</ele><time>2026-04-29T11:18:49Z</time></trkpt><trkpt lat="27.90963654864646" lon="-11.48054516619637"><ele>124.0</ele><time>2026-04-29T11:18:50Z</time></trkpt><trkpt lat="27.909669949758086" lon="-11.480718343779838"><ele>125.33333333333334</ele><time>2026-04-29T11:18:51Z</time></trkpt><trkpt lat="27.909701398698655" lon="-11.480878852143755"><ele>126.66666666666666</ele><time>2026-04-29T11:18:52Z</time></trkpt><trkpt lat="27.909733921581406" lon="-11.481045943992775"><ele>128.0</ele><time>2026-04-29T11:18:53Z</time></trkpt><trkpt lat="27.909767091165733" lon="-11.481216266704543"><ele>128.66666666666666</ele><time>2026-04-29T11:18:54Z</time></trkpt><trkpt lat="27.909801891962235" lon="-11.48139513176843"><ele>129.33333333333334</ele><time>2026-04-29T11:18:55Z</time></trkpt><trkpt lat="27.909834810582268" lon="-11.48156460678799"><ele>130.0</ele><time>2026-04-29T11:18:56Z</time></trkpt><trkpt lat="27.90986598414705" lon="-11.481725303462422"><ele>130.0</ele><time>2026-04-29T11:18:57Z</time></trkpt><trkpt lat="27.90989585239785" lon="-11.481879833874963"><ele>130.0</ele><time>2026-04-29T11:18:58Z</time></trkpt><trkpt lat="27.909924470028056" lon="-11.482025883078299"><ele>130.0</ele><time>2026-04-29T11:18:59Z</time></trkpt><trkpt lat="27.909952306811544" lon="-11.482165807688375"><ele>130.0</ele><time>2026-04-29T11:19:00Z</time></trkpt><trkpt lat="27.909978584202676" lon="-11.482300558483496"><ele>128.75</ele><time>2026-04-29T11:19:01Z</time></trkpt><trkpt lat="27.910002637454387" lon="-11.482424170803693"><ele>127.5</ele><time>2026-04-29T11:19:02Z</time></trkpt><trkpt lat="27.91002627085259" lon="-11.482545625487965"><ele>126.25</ele><time>2026-04-29T11:19:03Z</time></trkpt><trkpt lat="27.91005136988324" lon="-11.482667884229283"><ele>125.0</ele><time>2026-04-29T11:19:04Z</time></trkpt><trkpt lat="27.910082450675112" lon="-11.482803922804983"><ele>125.75</ele><time>2026-04-29T11:19:05Z</time></trkpt><trkpt lat="27.91011689108915" lon="-11.482954884538065"><ele>126.5</ele><time>2026-04-29T11:19:06Z</time></trkpt><trkpt lat="27.910153811791606" lon="-11.483117886216881"><ele>127.25</ele><time>2026-04-29T11:19:07Z</time></trkpt><trkpt lat="27.910207078009286" lon="-11.483288985072027"><ele>128.0</ele><time>2026-04-29T11:19:08Z</time></trkpt><trkpt lat="27.910248278742436" lon="-11.48347020078188"><ele>128.0</ele><time>2026-04-29T11:19:09Z</time></trkpt><trkpt lat="27.910295613809215" lon="-11.483671593201535"><ele>128.0</ele><time>2026-04-29T11:19:10Z</time></trkpt><trkpt lat="27.910316688294518" lon="-11.483872425380792"><ele>128.0</ele><time>2026-04-29T11:19:11Z</time></trkpt><trkpt lat="27.910372200054635" lon="-11.48406097261791"><ele>128.66666666666666</ele><time>2026-04-29T11:19:12Z</time></trkpt><trkpt lat="27.910409683903374" lon="-11.484248294011982"><ele>129.33333333333334</ele><time>2026-04-29T11:19:13Z</time></trkpt><trkpt lat="27.910442404363888" lon="-11.484436544548444"><ele>130.0</ele><time>2026-04-29T11:19:14Z</time></trkpt><trkpt lat="27.910487026777645" lon="-11.48461982527488"><ele>130.33333333333334</ele><time>2026-04-29T11:19:15Z</time></trkpt><trkpt lat="27.910538538115883" lon="-11.484800943471098"><ele>130.66666666666666</ele><time>2026-04-29T11:19:16Z</time></trkpt><trkpt lat="27.910591040343515" lon="-11.484984436584956"><ele>131.0</ele><time>2026-04-29T11:19:17Z</time></trkpt><trkpt lat="27.91063697146151" lon="-11.485159908246395"><ele>131.0</ele><time>2026-04-29T11:19:18Z</time></trkpt><trkpt lat="27.910678731008495" lon="-11.485336034971763"><ele>131.0</ele><time>2026-04-29T11:19:19Z</time></trkpt><trkpt lat="27.91071597794246" lon="-11.485507470125654"><ele>131.0</ele><time>2026-04-29T11:19:20Z</time></trkpt><trkpt lat="27.910752983280513" lon="-11.48566528536949"><ele>131.66666666666666</ele><time>2026-04-29T11:19:21Z</time></trkpt><trkpt lat="27.91077341621067" lon="-11.485816634002685"><ele>132.33333333333334</ele><time>2026-04-29T11:19:22Z</time></trkpt><trkpt lat="27.91081156547404" lon="-11.485984731585559"><ele>133.0</ele><time>2026-04-29T11:19:23Z</time></trkpt><trkpt lat="27.910854721842455" lon="-11.48617239317483"><ele>132.66666666666669</ele><time>2026-04-29T11:19:24Z</time></trkpt><trkpt lat="27.910901110450016" lon="-11.48637498508652"><ele>132.33333333333334</ele><time>2026-04-29T11:19:25Z</time></trkpt><trkpt lat="27.910947377034198" lon="-11.48657739195769"><ele>132.0</ele><time>2026-04-29T11:19:26Z</time></trkpt><trkpt lat="27.91099608410481" lon="-11.486764287553463"><ele>132.0</ele><time>2026-04-29T11:19:27Z</time></trkpt><trkpt lat="27.91104346668157" lon="-11.486939383014953"><ele>132.0</ele><time>2026-04-29T11:19:28Z</time></trkpt><trkpt lat="27.911093902156605" lon="-11.487120198579566"><ele>132.0</ele><time>2026-04-29T11:19:29Z</time></trkpt><trkpt lat="27.91114492271572" lon="-11.487305011554382"><ele>132.0</ele><time>2026-04-29T11:19:30Z</time></trkpt><trkpt lat="27.91119883708042" lon="-11.487479493614966"><ele>132.0</ele><time>2026-04-29T11:19:31Z</time></trkpt><trkpt lat="27.911236246668807" lon="-11.487639892204541"><ele>132.0</ele><time>2026-04-29T11:19:32Z</time></trkpt><trkpt lat="27.911273823981894" lon="-11.48778716845051"><ele>132.0</ele><time>2026-04-29T11:19:33Z</time></trkpt><trkpt lat="27.91131742738919" lon="-11.487953955946018"><ele>134.33333333333334</ele><time>2026-04-29T11:19:34Z</time></trkpt><trkpt lat="27.911364435417074" lon="-11.488126289946878"><ele>136.66666666666669</ele><time>2026-04-29T11:19:35Z</time></trkpt><trkpt lat="27.911418870219865" lon="-11.488307359876112"><ele>139.0</ele><time>2026-04-29T11:19:36Z</time></trkpt><trkpt lat="27.91147035796739" lon="-11.48849333725115"><ele>139.0</ele><time>2026-04-29T11:19:37Z</time></trkpt><trkpt lat="27.91151958773213" lon="-11.488671845651979"><ele>139.0</ele><time>2026-04-29T11:19:38Z</time></trkpt><trkpt lat="27.9115715271817" lon="-11.488850269826868"><ele>139.0</ele><time>2026-04-29T11:19:39Z</time></trkpt><trkpt lat="27.91161737850626" lon="-11.488992513874791"><ele>139.0</ele><time>2026-04-29T11:19:40Z</time></trkpt><trkpt lat="27.911664660724707" lon="-11.48913425395731"><ele>139.0</ele><time>2026-04-29T11:19:41Z</time></trkpt><trkpt lat="27.911684099663848" lon="-11.489255256414562"><ele>139.0</ele><time>2026-04-29T11:19:42Z</time></trkpt><trkpt lat="27.911770722836785" lon="-11.489349094956262"><ele>139.0</ele><time>2026-04-29T11:19:43Z</time></trkpt><trkpt lat="27.91183343409663" lon="-11.489463311749969"><ele>139.0</ele><time>2026-04-29T11:19:44Z</time></trkpt><trkpt lat="27.911917890071674" lon="-11.489574556552167"><ele>139.0</ele><time>2026-04-29T11:19:45Z</time></trkpt><trkpt lat="27.91199918872854" lon="-11.48969741591958"><ele>139.0</ele><time>2026-04-29T11:19:46Z</time></trkpt><trkpt lat="27.912066952908535" lon="-11.48982099330822"><ele>139.0</ele><time>2026-04-29T11:19:47Z</time></trkpt><trkpt lat="27.912159179426965" lon="-11.489937452835738"><ele>139.66666666666669</ele><time>2026-04-29T11:19:48Z</time></trkpt><trkpt lat="27.912244653639686" lon="-11.4900661731359"><ele>140.33333333333334</ele><time>2026-04-29T11:19:49Z</time></trkpt><trkpt lat="27.91233232668164" lon="-11.49019847541936"><ele>141.0</ele><time>2026-04-29T11:19:50Z</time></trkpt><trkpt lat="27.9124326148172" lon="-11.490372768524153"><ele>141.0</ele><time>2026-04-29T11:19:51Z</time></trkpt><trkpt lat="27.912548415496243" lon="-11.490464786855302"><ele>141.0</ele><time>2026-04-29T11:19:52Z</time></trkpt><trkpt lat="27.91265461973526" lon="-11.490548669723774"><ele>141.0</ele><time>2026-04-29T11:19:53Z</time></trkpt><trkpt lat="27.912778040623127" lon="-11.490644988458277"><ele>141.0</ele><time>2026-04-29T11:19:54Z</time></trkpt><trkpt lat="27.9128995626392" lon="-11.490742030118316"><ele>141.0</ele><time>2026-04-29T11:19:55Z</time></trkpt><trkpt lat="27.913022776727228" lon="-11.49083831023623"><ele>141.0</ele><time>2026-04-29T11:19:56Z</time></trkpt><trkpt lat="27.913151796585026" lon="-11.49094031297085"><ele>141.0</ele><time>2026-04-29T11:19:57Z</time></trkpt><trkpt lat="27.91327989721761" lon="-11.491041295123933"><ele>141.0</ele><time>2026-04-29T11:19:58Z</time></trkpt><trkpt lat="27.913404310493807" lon="-11.491139370531455"><ele>141.0</ele><time>2026-04-29T11:19:59Z</time></trkpt><trkpt lat="27.9135260147612" lon="-11.491236122560867"><ele>141.0</ele><time>2026-04-29T11:20:00Z</time></trkpt><trkpt lat="27.91364537892909" lon="-11.491330027729859"><ele>141.0</ele><time>2026-04-29T11:20:01Z</time></trkpt><trkpt lat="27.91376461917758" lon="-11.491423657464093"><ele>140.0</ele><time>2026-04-29T11:20:02Z</time></trkpt><trkpt lat="27.91388458811603" lon="-11.491518323355399"><ele>139.0</ele><time>2026-04-29T11:20:03Z</time></trkpt><trkpt lat="27.914003125752753" lon="-11.491611863458523"><ele>138.0</ele><time>2026-04-29T11:20:04Z</time></trkpt><trkpt lat="27.914116745774574" lon="-11.491701904885037"><ele>137.0</ele><time>2026-04-29T11:20:05Z</time></trkpt><trkpt lat="27.91420812669731" lon="-11.491793052101645"><ele>137.0</ele><time>2026-04-29T11:20:06Z</time></trkpt><trkpt lat="27.914304071822542" lon="-11.491903877009964"><ele>137.0</ele><time>2026-04-29T11:20:07Z</time></trkpt><trkpt lat="27.914400702138888" lon="-11.492015966421537"><ele>137.0</ele><time>2026-04-29T11:20:08Z</time></trkpt><trkpt lat="27.914492610269136" lon="-11.492122035062485"><ele>137.0</ele><time>2026-04-29T11:20:09Z</time></trkpt><trkpt lat="27.914584099520425" lon="-11.492227667956916"><ele>137.0</ele><time>2026-04-29T11:20:10Z</time></trkpt><trkpt lat="27.914679892371463" lon="-11.492338493345503"><ele>137.0</ele><time>2026-04-29T11:20:11Z</time></trkpt><trkpt lat="27.91478024852708" lon="-11.492454579344535"><ele>137.0</ele><time>2026-04-29T11:20:12Z</time></trkpt><trkpt lat="27.91487286724451" lon="-11.492561355041236"><ele>137.0</ele><time>2026-04-29T11:20:13Z</time></trkpt><trkpt lat="27.914957666236347" lon="-11.492659640736303"><ele>137.0</ele><time>2026-04-29T11:20:14Z</time></trkpt><trkpt lat="27.915038027477667" lon="-11.492754349981022"><ele>137.0</ele><time>2026-04-29T11:20:15Z</time></trkpt><trkpt lat="27.915111651970307" lon="-11.492871661054544"><ele>137.0</ele><time>2026-04-29T11:20:16Z</time></trkpt><trkpt lat="27.91519087923003" lon="-11.492993716028218"><ele>137.0</ele><time>2026-04-29T11:20:17Z</time></trkpt><trkpt lat="27.91527252537972" lon="-11.49312288234985"><ele>137.5</ele><time>2026-04-29T11:20:18Z</time></trkpt><trkpt lat="27.915365741632975" lon="-11.49326793844711"><ele>138.0</ele><time>2026-04-29T11:20:19Z</time></trkpt><trkpt lat="27.91545241423582" lon="-11.493403750971893"><ele>138.5</ele><time>2026-04-29T11:20:20Z</time></trkpt><trkpt lat="27.915532669670686" lon="-11.493529524833544"><ele>139.0</ele><time>2026-04-29T11:20:21Z</time></trkpt><trkpt lat="27.915612455981986" lon="-11.493655121940636"><ele>139.25</ele><time>2026-04-29T11:20:22Z</time></trkpt><trkpt lat="27.915695627036477" lon="-11.493790449164564"><ele>139.5</ele><time>2026-04-29T11:20:23Z</time></trkpt><trkpt lat="27.91576164767102" lon="-11.493906644912457"><ele>139.75</ele><time>2026-04-29T11:20:24Z</time></trkpt><trkpt lat="27.9158216570904" lon="-11.49401233740666"><ele>140.0</ele><time>2026-04-29T11:20:25Z</time></trkpt><trkpt lat="27.91588158644075" lon="-11.494118067690618"><ele>140.0</ele><time>2026-04-29T11:20:26Z</time></trkpt><trkpt lat="27.915942625081563" lon="-11.494225257409925"><ele>140.0</ele><time>2026-04-29T11:20:27Z</time></trkpt><trkpt lat="27.916004136172905" lon="-11.494332550436537"><ele>140.0</ele><time>2026-04-29T11:20:28Z</time></trkpt><trkpt lat="27.91607515654224" lon="-11.494457652870427"><ele>140.0</ele><time>2026-04-29T11:20:29Z</time></trkpt><trkpt lat="27.916171605577553" lon="-11.494633511126448"><ele>140.0</ele><time>2026-04-29T11:20:30Z</time></trkpt><trkpt lat="27.91622449763149" lon="-11.494743894842689"><ele>140.0</ele><time>2026-04-29T11:20:31Z</time></trkpt><trkpt lat="27.91626825841554" lon="-11.494833618137164"><ele>140.0</ele><time>2026-04-29T11:20:32Z</time></trkpt><trkpt lat="27.91627907463253" lon="-11.494928281846962"><ele>140.0</ele><time>2026-04-29T11:20:33Z</time></trkpt><trkpt lat="27.916251503419275" lon="-11.495398837091376"><ele>140.8</ele><time>2026-04-29T11:20:34Z</time></trkpt><trkpt lat="27.91624013399921" lon="-11.495552639512567"><ele>141.6</ele><time>2026-04-29T11:20:36Z</time></trkpt><trkpt lat="27.916222288883592" lon="-11.495666275384808"><ele>142.4</ele><time>2026-04-29T11:20:37Z</time></trkpt><trkpt lat="27.91620273507988" lon="-11.495792067722508"><ele>143.2</ele><time>2026-04-29T11:20:38Z</time></trkpt><trkpt lat="27.916189997384095" lon="-11.495874011099612"><ele>144.0</ele><time>2026-04-29T11:20:39Z</time></trkpt><trkpt lat="27.916176849905092" lon="-11.4959585910453"><ele>144.0</ele><time>2026-04-29T11:20:41Z</time></trkpt><trkpt lat="27.915830497654177" lon="-11.495880012331124"><ele>144.0</ele><time>2026-04-29T11:36:32Z</time></trkpt><trkpt lat="27.915874876662937" lon="-11.495955260982498"><ele>144.0</ele><time>2026-04-29T11:40:27Z</time></trkpt><trkpt lat="27.915947766429937" lon="-11.495962981402894"><ele>144.0</ele><time>2026-04-29T11:40:29Z</time></trkpt><trkpt lat="27.916000904801102" lon="-11.495889938519822"><ele>144.0</ele><time>2026-04-29T11:40:31Z</time></trkpt><trkpt lat="27.915958668541993" lon="-11.495787604353497"><ele>144.0</ele><time>2026-04-29T11:40:33Z</time></trkpt><trkpt lat="27.915915560997103" lon="-11.495688703166678"><ele>144.0</ele><time>2026-04-29T11:40:35Z</time></trkpt><trkpt lat="27.915880342036896" lon="-11.495603025919614"><ele>144.0</ele><time>2026-04-29T11:40:37Z</time></trkpt><trkpt lat="27.915826260020598" lon="-11.495499870514974"><ele>143.33333333333334</ele><time>2026-04-29T11:40:39Z</time></trkpt><trkpt lat="27.91578163607744" lon="-11.495392168724212"><ele>142.66666666666666</ele><time>2026-04-29T11:40:41Z</time></trkpt><trkpt lat="27.915787120722612" lon="-11.495308547799507"><ele>142.0</ele><time>2026-04-29T11:40:43Z</time></trkpt><trkpt lat="27.915829162334433" lon="-11.495227739816993"><ele>141.33333333333331</ele><time>2026-04-29T11:40:45Z</time></trkpt><trkpt lat="27.915881042579308" lon="-11.49514306368327"><ele>140.66666666666666</ele><time>2026-04-29T11:40:47Z</time></trkpt><trkpt lat="27.915898156112636" lon="-11.49505877049142"><ele>140.0</ele><time>2026-04-29T11:40:49Z</time></trkpt><trkpt lat="27.91588326537956" lon="-11.494959424142483"><ele>140.0</ele><time>2026-04-29T11:40:51Z</time></trkpt><trkpt lat="27.915868239625453" lon="-11.494859230483211"><ele>140.0</ele><time>2026-04-29T11:40:53Z</time></trkpt><trkpt lat="27.915851259043496" lon="-11.494774400992402"><ele>140.0</ele><time>2026-04-29T11:40:55Z</time></trkpt><trkpt lat="27.915826222505455" lon="-11.494698328873282"><ele>140.0</ele><time>2026-04-29T11:40:57Z</time></trkpt><trkpt lat="27.91578948204882" lon="-11.494604024145808"><ele>140.0</ele><time>2026-04-29T11:40:59Z</time></trkpt><trkpt lat="27.915765133841145" lon="-11.494514563484115"><ele>140.0</ele><time>2026-04-29T11:41:01Z</time></trkpt><trkpt lat="27.915733491159195" lon="-11.494436106942889"><ele>140.0</ele><time>2026-04-29T11:41:03Z</time></trkpt><trkpt lat="27.91566628263402" lon="-11.494376608565645"><ele>140.0</ele><time>2026-04-29T11:41:05Z</time></trkpt><trkpt lat="27.915598213281378" lon="-11.494324427053677"><ele>140.0</ele><time>2026-04-29T11:41:07Z</time></trkpt><trkpt lat="27.91555487321685" lon="-11.494240183491103"><ele>140.0</ele><time>2026-04-29T11:41:10Z</time></trkpt><trkpt lat="27.91556968976771" lon="-11.494169341432748"><ele>140.0</ele><time>2026-04-29T11:41:12Z</time></trkpt><trkpt lat="27.915620297083674" lon="-11.494100667577513"><ele>140.0</ele><time>2026-04-29T11:41:15Z</time></trkpt><trkpt lat="27.91567969240096" lon="-11.494128343019858"><ele>140.0</ele><time>2026-04-29T11:41:17Z</time></trkpt><trkpt lat="27.91574350231247" lon="-11.49417565892488"><ele>140.0</ele><time>2026-04-29T11:42:35Z</time></trkpt><trkpt lat="27.91581837836805" lon="-11.494268484071407"><ele>140.0</ele><time>2026-04-29T11:42:46Z</time></trkpt><trkpt lat="27.915869360555032" lon="-11.494372552370313"><ele>140.0</ele><time>2026-04-29T11:42:48Z</time></trkpt><trkpt lat="27.915890776332468" lon="-11.49448186173173"><ele>140.0</ele><time>2026-04-29T11:42:50Z</time></trkpt><trkpt lat="27.915897974659927" lon="-11.494583688924285"><ele>140.0</ele><time>2026-04-29T11:42:52Z</time></trkpt><trkpt lat="27.915905428798194" lon="-11.494689137934515"><ele>140.0</ele><time>2026-04-29T11:42:54Z</time></trkpt><trkpt lat="27.915918396313383" lon="-11.494790710837425"><ele>140.0</ele><time>2026-04-29T11:42:56Z</time></trkpt><trkpt lat="27.915929153795446" lon="-11.494888992260286"><ele>140.0</ele><time>2026-04-29T11:42:58Z</time></trkpt><trkpt lat="27.915927944353033" lon="-11.494982029869405"><ele>140.0</ele><time>2026-04-29T11:43:00Z</time></trkpt><trkpt lat="27.915937392786358" lon="-11.495072800628186"><ele>140.0</ele><time>2026-04-29T11:43:02Z</time></trkpt><trkpt lat="27.91594144876385" lon="-11.495153213276188"><ele>140.0</ele><time>2026-04-29T11:43:05Z</time></trkpt><trkpt lat="27.915899263150266" lon="-11.495239993889546"><ele>140.0</ele><time>2026-04-29T11:52:24Z</time></trkpt><trkpt lat="27.91584476463039" lon="-11.495310393923052"><ele>140.0</ele><time>2026-04-29T11:52:26Z</time></trkpt><trkpt lat="27.91582371216554" lon="-11.495406479289915"><ele>140.0</ele><time>2026-04-29T11:52:28Z</time></trkpt><trkpt lat="27.915818649859833" lon="-11.495499715562705"><ele>140.0</ele><time>2026-04-29T11:52:30Z</time></trkpt><trkpt lat="27.915848646702276" lon="-11.495584809894583"><ele>140.0</ele><time>2026-04-29T11:52:32Z</time></trkpt><trkpt lat="27.91586563891415" lon="-11.495677188460672"><ele>140.66666666666666</ele><time>2026-04-29T11:52:34Z</time></trkpt><trkpt lat="27.91587707905728" lon="-11.495783276445874"><ele>141.33333333333331</ele><time>2026-04-29T11:52:37Z</time></trkpt><trkpt lat="27.915899549760667" lon="-11.495860479906732"><ele>142.0</ele><time>2026-04-29T11:52:40Z</time></trkpt><trkpt lat="27.915963751382503" lon="-11.495864183671781"><ele>142.66666666666666</ele><time>2026-04-29T11:52:43Z</time></trkpt><trkpt lat="27.91604354305843" lon="-11.49588322437958"><ele>143.33333333333334</ele><time>2026-04-29T11:52:46Z</time></trkpt><trkpt lat="27.916023220633996" lon="-11.495967460747924"><ele>144.0</ele><time>2026-04-29T11:52:49Z</time></trkpt><trkpt lat="27.915943191971575" lon="-11.49595407586924"><ele>144.14285714285717</ele><time>2026-04-29T11:52:52Z</time></trkpt><trkpt lat="27.915895599456814" lon="-11.495903645780656"><ele>144.28571428571428</ele><time>2026-04-29T12:01:07Z</time></trkpt><trkpt lat="27.915833920502962" lon="-11.495924346113608"><ele>144.42857142857144</ele><time>2026-04-29T12:03:06Z</time></trkpt><trkpt lat="27.91589639819063" lon="-11.495905324824124"><ele>144.57142857142858</ele><time>2026-04-29T12:04:27.999Z</time></trkpt><trkpt lat="27.91582319545796" lon="-11.495917719933939"><ele>144.71428571428572</ele><time>2026-04-29T12:05:16Z</time></trkpt><trkpt lat="27.91589533571528" lon="-11.49591582410336"><ele>144.85714285714286</ele><time>2026-04-29T12:22:35.001Z</time></trkpt><trkpt lat="27.91588701631462" lon="-11.495838273226"><ele>145.0</ele><time>2026-04-29T12:36:07Z</time></trkpt><trkpt lat="27.915857624065367" lon="-11.495773916394617"><ele>145.0</ele><time>2026-04-29T12:36:24Z</time></trkpt><trkpt lat="27.91586793523932" lon="-11.495859894048081"><ele>145.0</ele><time>2026-04-29T12:36:54Z</time></trkpt><trkpt lat="27.915932400865927" lon="-11.495892852538358"><ele>145.0</ele><time>2026-04-29T12:37:07Z</time></trkpt><trkpt lat="27.91584746473694" lon="-11.495922268108666"><ele>145.0</ele><time>2026-04-29T12:41:28Z</time></trkpt><trkpt lat="27.915854386011176" lon="-11.496044164058517"><ele>145.0</ele><time>2026-04-29T12:41:30Z</time></trkpt><trkpt lat="27.915882156159878" lon="-11.496142261540815"><ele>145.0</ele><time>2026-04-29T12:41:31Z</time></trkpt><trkpt lat="27.91587944272785" lon="-11.496223308063053"><ele>145.6</ele><time>2026-04-29T12:41:32Z</time></trkpt><trkpt lat="27.9158656427428" lon="-11.496328027644855"><ele>146.2</ele><time>2026-04-29T12:41:33Z</time></trkpt><trkpt lat="27.915844543299208" lon="-11.496458233916965"><ele>146.8</ele><time>2026-04-29T12:41:34Z</time></trkpt><trkpt lat="27.91582337478295" lon="-11.496572714788103"><ele>147.4</ele><time>2026-04-29T12:41:35Z</time></trkpt><trkpt lat="27.91580440252861" lon="-11.496683841222016"><ele>148.0</ele><time>2026-04-29T12:41:36Z</time></trkpt><trkpt lat="27.915786518905463" lon="-11.496793656886666"><ele>148.0</ele><time>2026-04-29T12:41:37Z</time></trkpt><trkpt lat="27.91575811745204" lon="-11.496909924596302"><ele>148.0</ele><time>2026-04-29T12:41:38Z</time></trkpt><trkpt lat="27.915725663082036" lon="-11.497010399998052"><ele>148.0</ele><time>2026-04-29T12:41:39Z</time></trkpt><trkpt lat="27.915708131688824" lon="-11.49709698587317"><ele>148.0</ele><time>2026-04-29T12:41:40Z</time></trkpt><trkpt lat="27.91569122233268" lon="-11.49720437165713"><ele>148.0</ele><time>2026-04-29T12:41:41Z</time></trkpt><trkpt lat="27.915671650109648" lon="-11.497311344137458"><ele>147.6</ele><time>2026-04-29T12:41:42Z</time></trkpt><trkpt lat="27.915649449787555" lon="-11.497408090115307"><ele>147.20000000000002</ele><time>2026-04-29T12:41:43Z</time></trkpt><trkpt lat="27.915619570254012" lon="-11.497515547783198"><ele>146.8</ele><time>2026-04-29T12:41:44Z</time></trkpt><trkpt lat="27.915594387398652" lon="-11.497648523567108"><ele>146.4</ele><time>2026-04-29T12:41:45Z</time></trkpt><trkpt lat="27.915567968222412" lon="-11.497785971511862"><ele>146.0</ele><time>2026-04-29T12:41:46Z</time></trkpt><trkpt lat="27.915532050979657" lon="-11.497914314500754"><ele>147.5</ele><time>2026-04-29T12:41:47Z</time></trkpt><trkpt lat="27.91549637448785" lon="-11.498035879696445"><ele>149.0</ele><time>2026-04-29T12:41:48Z</time></trkpt><trkpt lat="27.91547236429994" lon="-11.49816737909741"><ele>150.5</ele><time>2026-04-29T12:41:49Z</time></trkpt><trkpt lat="27.91546432635596" lon="-11.498299837422344"><ele>152.0</ele><time>2026-04-29T12:41:50Z</time></trkpt><trkpt lat="27.915466505607" lon="-11.498422485316288"><ele>152.0</ele><time>2026-04-29T12:41:51Z</time></trkpt><trkpt lat="27.915474463909018" lon="-11.498546903295109"><ele>152.0</ele><time>2026-04-29T12:41:52Z</time></trkpt><trkpt lat="27.91548309699926" lon="-11.49867354224187"><ele>152.0</ele><time>2026-04-29T12:41:53Z</time></trkpt><trkpt lat="27.915488851258697" lon="-11.49880869607653"><ele>152.0</ele><time>2026-04-29T12:41:54Z</time></trkpt><trkpt lat="27.915498149783218" lon="-11.498951125270114"><ele>152.0</ele><time>2026-04-29T12:41:55Z</time></trkpt><trkpt lat="27.915503936833858" lon="-11.499091690511047"><ele>152.0</ele><time>2026-04-29T12:41:56Z</time></trkpt><trkpt lat="27.91551254204722" lon="-11.49923033902125"><ele>152.0</ele><time>2026-04-29T12:41:57Z</time></trkpt><trkpt lat="27.91551825913432" lon="-11.499347947713913"><ele>152.0</ele><time>2026-04-29T12:41:58Z</time></trkpt><trkpt lat="27.915519182620002" lon="-11.499465805430535"><ele>152.25</ele><time>2026-04-29T12:41:59Z</time></trkpt><trkpt lat="27.915501289954026" lon="-11.499603297658798"><ele>152.5</ele><time>2026-04-29T12:42:00Z</time></trkpt><trkpt lat="27.915472281341778" lon="-11.499743480652562"><ele>152.75</ele><time>2026-04-29T12:42:01Z</time></trkpt><trkpt lat="27.915451906723245" lon="-11.49987181731864"><ele>153.0</ele><time>2026-04-29T12:42:02Z</time></trkpt><trkpt lat="27.915428414467232" lon="-11.500009236435952"><ele>153.0</ele><time>2026-04-29T12:42:03Z</time></trkpt><trkpt lat="27.91540899358699" lon="-11.500132725292433"><ele>153.0</ele><time>2026-04-29T12:42:04Z</time></trkpt><trkpt lat="27.91538375050871" lon="-11.500246903060264"><ele>153.0</ele><time>2026-04-29T12:42:05Z</time></trkpt><trkpt lat="27.9153593162865" lon="-11.500351490734529"><ele>153.0</ele><time>2026-04-29T12:42:06Z</time></trkpt><trkpt lat="27.91533251965468" lon="-11.500452555755752"><ele>153.0</ele><time>2026-04-29T12:42:07Z</time></trkpt><trkpt lat="27.915306386134077" lon="-11.500570937616788"><ele>153.0</ele><time>2026-04-29T12:42:08Z</time></trkpt><trkpt lat="27.915277540115373" lon="-11.50069095634375"><ele>153.0</ele><time>2026-04-29T12:42:09Z</time></trkpt><trkpt lat="27.91523887594245" lon="-11.500810154463075"><ele>153.0</ele><time>2026-04-29T12:42:10Z</time></trkpt><trkpt lat="27.915206350318304" lon="-11.50092322649951"><ele>153.0</ele><time>2026-04-29T12:42:11Z</time></trkpt><trkpt lat="27.915169704496734" lon="-11.501050369930029"><ele>153.0</ele><time>2026-04-29T12:42:12Z</time></trkpt><trkpt lat="27.915134367770687" lon="-11.50119350592089"><ele>153.0</ele><time>2026-04-29T12:42:13Z</time></trkpt><trkpt lat="27.91510686514878" lon="-11.50132161035808"><ele>153.0</ele><time>2026-04-29T12:42:14Z</time></trkpt><trkpt lat="27.915094623177037" lon="-11.501435938315906"><ele>153.0</ele><time>2026-04-29T12:42:15Z</time></trkpt><trkpt lat="27.91509245684154" lon="-11.501554555394963"><ele>153.0</ele><time>2026-04-29T12:42:16Z</time></trkpt><trkpt lat="27.915117649324163" lon="-11.501705562249441"><ele>153.0</ele><time>2026-04-29T12:42:17Z</time></trkpt><trkpt lat="27.9151640247077" lon="-11.501872865611487"><ele>153.0</ele><time>2026-04-29T12:42:18Z</time></trkpt><trkpt lat="27.91517778980336" lon="-11.501980291490137"><ele>153.0</ele><time>2026-04-29T12:42:19Z</time></trkpt><trkpt lat="27.915172099663348" lon="-11.502056905972246"><ele>153.0</ele><time>2026-04-29T12:42:20Z</time></trkpt><trkpt lat="27.91514128771312" lon="-11.502128090400113"><ele>153.0</ele><time>2026-04-29T12:42:21Z</time></trkpt><trkpt lat="27.91507769428304" lon="-11.50220724274221"><ele>153.5</ele><time>2026-04-29T12:42:22Z</time></trkpt><trkpt lat="27.914985358393867" lon="-11.502305613254608"><ele>154.0</ele><time>2026-04-29T12:42:23Z</time></trkpt><trkpt lat="27.914881515930688" lon="-11.502401012593763"><ele>154.5</ele><time>2026-04-29T12:42:24Z</time></trkpt><trkpt lat="27.914776018443042" lon="-11.502517857631526"><ele>155.0</ele><time>2026-04-29T12:42:25Z</time></trkpt><trkpt lat="27.914692762328016" lon="-11.50262636282786"><ele>155.0</ele><time>2026-04-29T12:42:26Z</time></trkpt><trkpt lat="27.91462157682845" lon="-11.502732806937857"><ele>155.0</ele><time>2026-04-29T12:42:27Z</time></trkpt><trkpt lat="27.91456944603998" lon="-11.502823197531587"><ele>155.0</ele><time>2026-04-29T12:42:28Z</time></trkpt><trkpt lat="27.914524731866827" lon="-11.50289765836439"><ele>155.0</ele><time>2026-04-29T12:42:29Z</time></trkpt><trkpt lat="27.914458437501835" lon="-11.502998422261546"><ele>155.0</ele><time>2026-04-29T12:42:31Z</time></trkpt><trkpt lat="27.914427373340036" lon="-11.50306424120021"><ele>155.0</ele><time>2026-04-29T12:42:32Z</time></trkpt><trkpt lat="27.91439731173031" lon="-11.503129799965187"><ele>155.0</ele><time>2026-04-29T12:42:33Z</time></trkpt><trkpt lat="27.91436413681644" lon="-11.503234509435527"><ele>155.0</ele><time>2026-04-29T12:42:35Z</time></trkpt><trkpt lat="27.914320742196754" lon="-11.503365788469676"><ele>155.0</ele><time>2026-04-29T12:42:37Z</time></trkpt><trkpt lat="27.914289314553844" lon="-11.50344568666445"><ele>155.0</ele><time>2026-04-29T12:42:38Z</time></trkpt><trkpt lat="27.91425594597942" lon="-11.503528435972559"><ele>155.0</ele><time>2026-04-29T12:42:39Z</time></trkpt><trkpt lat="27.914220822123692" lon="-11.503620632634973"><ele>155.16666666666666</ele><time>2026-04-29T12:42:40Z</time></trkpt><trkpt lat="27.91418819998171" lon="-11.50371003153095"><ele>155.33333333333331</ele><time>2026-04-29T12:42:41Z</time></trkpt><trkpt lat="27.914161275525707" lon="-11.503806309285507"><ele>155.5</ele><time>2026-04-29T12:42:42Z</time></trkpt><trkpt lat="27.914141734264533" lon="-11.503903125929508"><ele>155.66666666666666</ele><time>2026-04-29T12:42:43Z</time></trkpt><trkpt lat="27.91412895746471" lon="-11.503993893176082"><ele>155.83333333333334</ele><time>2026-04-29T12:42:44Z</time></trkpt><trkpt lat="27.914119441434256" lon="-11.50408062699095"><ele>156.0</ele><time>2026-04-29T12:42:45Z</time></trkpt><trkpt lat="27.91413624493993" lon="-11.504190991159126"><ele>156.0</ele><time>2026-04-29T12:42:47Z</time></trkpt><trkpt lat="27.91417085848559" lon="-11.504302048835346"><ele>156.0</ele><time>2026-04-29T12:42:49Z</time></trkpt><trkpt lat="27.914245587263004" lon="-11.504391033184632"><ele>156.0</ele><time>2026-04-29T12:42:51Z</time></trkpt><trkpt lat="27.914402248264427" lon="-11.50438090738035"><ele>156.0</ele><time>2026-04-29T12:42:53Z</time></trkpt><trkpt lat="27.914487340833137" lon="-11.504345973902357"><ele>156.0</ele><time>2026-04-29T12:42:54Z</time></trkpt><trkpt lat="27.914546987322357" lon="-11.504323064544021"><ele>156.0</ele><time>2026-04-29T12:42:55Z</time></trkpt><trkpt lat="27.91463718056542" lon="-11.504327859730296"><ele>156.0</ele><time>2026-04-29T12:42:57Z</time></trkpt><trkpt lat="27.914732482334735" lon="-11.50438110320456"><ele>156.0</ele><time>2026-04-29T12:42:59Z</time></trkpt><trkpt lat="27.914780941904105" lon="-11.504431300825352"><ele>156.0</ele><time>2026-04-29T12:43:00Z</time></trkpt><trkpt lat="27.914822800076667" lon="-11.50450361375763"><ele>156.0</ele><time>2026-04-29T12:43:01Z</time></trkpt><trkpt lat="27.914834468107397" lon="-11.504597007680294"><ele>157.0</ele><time>2026-04-29T12:43:02Z</time></trkpt><trkpt lat="27.914802729637806" lon="-11.50471476752104"><ele>158.0</ele><time>2026-04-29T12:43:03Z</time></trkpt><trkpt lat="27.91473737015414" lon="-11.504834960399549"><ele>159.0</ele><time>2026-04-29T12:43:04Z</time></trkpt><trkpt lat="27.914643214598836" lon="-11.504942354067774"><ele>160.0</ele><time>2026-04-29T12:43:05Z</time></trkpt><trkpt lat="27.914549381053178" lon="-11.505040531191094"><ele>160.0</ele><time>2026-04-29T12:43:06Z</time></trkpt><trkpt lat="27.91442743750451" lon="-11.505145277669738"><ele>160.0</ele><time>2026-04-29T12:43:07Z</time></trkpt><trkpt lat="27.91429565843673" lon="-11.505250741260694"><ele>160.0</ele><time>2026-04-29T12:43:08Z</time></trkpt><trkpt lat="27.914207931285766" lon="-11.505354870198765"><ele>160.0</ele><time>2026-04-29T12:43:09Z</time></trkpt><trkpt lat="27.914154813749985" lon="-11.505464020704782"><ele>160.66666666666669</ele><time>2026-04-29T12:43:10Z</time></trkpt><trkpt lat="27.914110394106093" lon="-11.505601830655301"><ele>161.33333333333334</ele><time>2026-04-29T12:43:11Z</time></trkpt><trkpt lat="27.91408339397519" lon="-11.505784510501618"><ele>162.0</ele><time>2026-04-29T12:43:12Z</time></trkpt><trkpt lat="27.914080851678623" lon="-11.505972675700358"><ele>162.0</ele><time>2026-04-29T12:43:13Z</time></trkpt><trkpt lat="27.91407855875062" lon="-11.506119748837262"><ele>162.0</ele><time>2026-04-29T12:43:14Z</time></trkpt><trkpt lat="27.914066780718596" lon="-11.50624556317362"><ele>162.0</ele><time>2026-04-29T12:43:15Z</time></trkpt><trkpt lat="27.91404553985454" lon="-11.506381795535768"><ele>162.0</ele><time>2026-04-29T12:43:16Z</time></trkpt><trkpt lat="27.914021533550635" lon="-11.506523613832783"><ele>162.0</ele><time>2026-04-29T12:43:17Z</time></trkpt><trkpt lat="27.91399980791236" lon="-11.506670283179016"><ele>162.0</ele><time>2026-04-29T12:43:18Z</time></trkpt><trkpt lat="27.913973750823686" lon="-11.506811568942826"><ele>162.0</ele><time>2026-04-29T12:43:19Z</time></trkpt><trkpt lat="27.91395330290172" lon="-11.506965431700541"><ele>162.0</ele><time>2026-04-29T12:43:20Z</time></trkpt><trkpt lat="27.913923619140668" lon="-11.507119426017477"><ele>162.5</ele><time>2026-04-29T12:43:21Z</time></trkpt><trkpt lat="27.91388808637357" lon="-11.50726893968678"><ele>163.0</ele><time>2026-04-29T12:43:22Z</time></trkpt><trkpt lat="27.913857684991566" lon="-11.507415506695386"><ele>163.5</ele><time>2026-04-29T12:43:23Z</time></trkpt><trkpt lat="27.913828698672283" lon="-11.507563567781943"><ele>164.0</ele><time>2026-04-29T12:43:24Z</time></trkpt><trkpt lat="27.91380116795475" lon="-11.507709459110517"><ele>164.0</ele><time>2026-04-29T12:43:25Z</time></trkpt><trkpt lat="27.9137763716526" lon="-11.507852113651914"><ele>164.0</ele><time>2026-04-29T12:43:26Z</time></trkpt><trkpt lat="27.913755582158398" lon="-11.507989419734367"><ele>164.0</ele><time>2026-04-29T12:43:27Z</time></trkpt><trkpt lat="27.913734304653293" lon="-11.508115813253912"><ele>164.0</ele><time>2026-04-29T12:43:28Z</time></trkpt><trkpt lat="27.913722944018566" lon="-11.508237699537897"><ele>164.25</ele><time>2026-04-29T12:43:29Z</time></trkpt><trkpt lat="27.913715215354202" lon="-11.508361248680712"><ele>164.5</ele><time>2026-04-29T12:43:30Z</time></trkpt><trkpt lat="27.91369853293919" lon="-11.50848542225335"><ele>164.75</ele><time>2026-04-29T12:43:31Z</time></trkpt><trkpt lat="27.91368634361078" lon="-11.508621738978244"><ele>165.0</ele><time>2026-04-29T12:43:32Z</time></trkpt><trkpt lat="27.913675123276494" lon="-11.50876765692177"><ele>165.25</ele><time>2026-04-29T12:43:33Z</time></trkpt><trkpt lat="27.913655417082524" lon="-11.508903676670435"><ele>165.5</ele><time>2026-04-29T12:43:34Z</time></trkpt><trkpt lat="27.91363287265666" lon="-11.509041282443802"><ele>165.75</ele><time>2026-04-29T12:43:35Z</time></trkpt><trkpt lat="27.913608057454283" lon="-11.509178426293834"><ele>166.0</ele><time>2026-04-29T12:43:36Z</time></trkpt><trkpt lat="27.913580096567117" lon="-11.50931780965079"><ele>166.0</ele><time>2026-04-29T12:43:37Z</time></trkpt><trkpt lat="27.913563177455668" lon="-11.509445800116632"><ele>166.0</ele><time>2026-04-29T12:43:38Z</time></trkpt><trkpt lat="27.91353861734254" lon="-11.509580284270719"><ele>166.0</ele><time>2026-04-29T12:43:39Z</time></trkpt><trkpt lat="27.913508483156992" lon="-11.509728256295848"><ele>166.0</ele><time>2026-04-29T12:43:40Z</time></trkpt><trkpt lat="27.91348685695215" lon="-11.50985941667019"><ele>166.75</ele><time>2026-04-29T12:43:41Z</time></trkpt><trkpt lat="27.9134758514943" lon="-11.509987427622692"><ele>167.5</ele><time>2026-04-29T12:43:42Z</time></trkpt><trkpt lat="27.913482410032117" lon="-11.510125763255973"><ele>168.25</ele><time>2026-04-29T12:43:43Z</time></trkpt><trkpt lat="27.91349536194614" lon="-11.510276132282371"><ele>169.0</ele><time>2026-04-29T12:43:44Z</time></trkpt><trkpt lat="27.91351064649723" lon="-11.510433209830516"><ele>169.75</ele><time>2026-04-29T12:43:45Z</time></trkpt><trkpt lat="27.913537492537102" lon="-11.510588110072858"><ele>170.5</ele><time>2026-04-29T12:43:46Z</time></trkpt><trkpt lat="27.913566712015562" lon="-11.510730614027494"><ele>171.25</ele><time>2026-04-29T12:43:47Z</time></trkpt><trkpt lat="27.913581131093917" lon="-11.51087406748776"><ele>172.0</ele><time>2026-04-29T12:43:48Z</time></trkpt><trkpt lat="27.913580478365905" lon="-11.51101955429827"><ele>172.0</ele><time>2026-04-29T12:43:49Z</time></trkpt><trkpt lat="27.913592296819363" lon="-11.511168249702932"><ele>172.0</ele><time>2026-04-29T12:43:50Z</time></trkpt><trkpt lat="27.913614744945434" lon="-11.511317159722422"><ele>172.0</ele><time>2026-04-29T12:43:51Z</time></trkpt><trkpt lat="27.913632598888626" lon="-11.511463433892402"><ele>172.0</ele><time>2026-04-29T12:43:52Z</time></trkpt><trkpt lat="27.913643102280677" lon="-11.511596996358689"><ele>173.0</ele><time>2026-04-29T12:43:53Z</time></trkpt><trkpt lat="27.913648820673657" lon="-11.511733780521629"><ele>174.0</ele><time>2026-04-29T12:43:54Z</time></trkpt><trkpt lat="27.913657867126027" lon="-11.511874636370418"><ele>175.0</ele><time>2026-04-29T12:43:55Z</time></trkpt><trkpt lat="27.91366641806154" lon="-11.51201196835244"><ele>176.0</ele><time>2026-04-29T12:43:56Z</time></trkpt><trkpt lat="27.913672742571414" lon="-11.512150499857551"><ele>176.0</ele><time>2026-04-29T12:43:57Z</time></trkpt><trkpt lat="27.913680309653653" lon="-11.512286773553525"><ele>176.0</ele><time>2026-04-29T12:43:58Z</time></trkpt><trkpt lat="27.913689485307227" lon="-11.512424568471468"><ele>176.0</ele><time>2026-04-29T12:43:59Z</time></trkpt><trkpt lat="27.913706317420573" lon="-11.51256240090149"><ele>176.0</ele><time>2026-04-29T12:44:00Z</time></trkpt><trkpt lat="27.913720379672853" lon="-11.512711472318772"><ele>176.0</ele><time>2026-04-29T12:44:01Z</time></trkpt><trkpt lat="27.913717872301383" lon="-11.51287306984194"><ele>176.0</ele><time>2026-04-29T12:44:02Z</time></trkpt><trkpt lat="27.91370906441867" lon="-11.513049880601605"><ele>176.0</ele><time>2026-04-29T12:44:03Z</time></trkpt><trkpt lat="27.91369584434472" lon="-11.513206945451376"><ele>176.0</ele><time>2026-04-29T12:44:04Z</time></trkpt><trkpt lat="27.913678431584692" lon="-11.513358963661926"><ele>176.25</ele><time>2026-04-29T12:44:05Z</time></trkpt><trkpt lat="27.913659882740358" lon="-11.51350191422081"><ele>176.5</ele><time>2026-04-29T12:44:06Z</time></trkpt><trkpt lat="27.913648806336358" lon="-11.513643230379355"><ele>176.75</ele><time>2026-04-29T12:44:07Z</time></trkpt><trkpt lat="27.913639888143095" lon="-11.513783478357315"><ele>177.0</ele><time>2026-04-29T12:44:08Z</time></trkpt><trkpt lat="27.91362106902863" lon="-11.513922358989335"><ele>177.25</ele><time>2026-04-29T12:44:09Z</time></trkpt><trkpt lat="27.913601501113632" lon="-11.514057727353297"><ele>177.5</ele><time>2026-04-29T12:44:10Z</time></trkpt><trkpt lat="27.91358589814514" lon="-11.514187298941003"><ele>177.75</ele><time>2026-04-29T12:44:11Z</time></trkpt><trkpt lat="27.91357495491429" lon="-11.514320014575098"><ele>178.0</ele><time>2026-04-29T12:44:12Z</time></trkpt><trkpt lat="27.913567794731925" lon="-11.514454571797328"><ele>178.4</ele><time>2026-04-29T12:44:13Z</time></trkpt><trkpt lat="27.913573701070884" lon="-11.51457627280856"><ele>178.8</ele><time>2026-04-29T12:44:14Z</time></trkpt><trkpt lat="27.913586657164675" lon="-11.514692365510742"><ele>179.2</ele><time>2026-04-29T12:44:15Z</time></trkpt><trkpt lat="27.91359828279203" lon="-11.51481190168167"><ele>179.6</ele><time>2026-04-29T12:44:16Z</time></trkpt><trkpt lat="27.9136176443248" lon="-11.514955945487795"><ele>180.0</ele><time>2026-04-29T12:44:17Z</time></trkpt><trkpt lat="27.91363419997871" lon="-11.515101307275705"><ele>180.0</ele><time>2026-04-29T12:44:18Z</time></trkpt><trkpt lat="27.913639720445534" lon="-11.515246762001473"><ele>180.0</ele><time>2026-04-29T12:44:19Z</time></trkpt><trkpt lat="27.913643825705538" lon="-11.515410639074307"><ele>180.0</ele><time>2026-04-29T12:44:20Z</time></trkpt><trkpt lat="27.913651912968536" lon="-11.515568125127256"><ele>180.0</ele><time>2026-04-29T12:44:21Z</time></trkpt><trkpt lat="27.913656915983623" lon="-11.515723990162279"><ele>181.25</ele><time>2026-04-29T12:44:22Z</time></trkpt><trkpt lat="27.91365634925631" lon="-11.515891620302174"><ele>182.5</ele><time>2026-04-29T12:44:23Z</time></trkpt><trkpt lat="27.913659851927655" lon="-11.516055961071475"><ele>183.75</ele><time>2026-04-29T12:44:24Z</time></trkpt><trkpt lat="27.913664859520594" lon="-11.516217849843603"><ele>185.0</ele><time>2026-04-29T12:44:25Z</time></trkpt><trkpt lat="27.913669776099297" lon="-11.516382262907378"><ele>185.25</ele><time>2026-04-29T12:44:26Z</time></trkpt><trkpt lat="27.91367425860358" lon="-11.516548120152954"><ele>185.5</ele><time>2026-04-29T12:44:27Z</time></trkpt><trkpt lat="27.913677734154092" lon="-11.516709731255105"><ele>185.75</ele><time>2026-04-29T12:44:28Z</time></trkpt><trkpt lat="27.91368398882535" lon="-11.516867700686799"><ele>186.0</ele><time>2026-04-29T12:44:29Z</time></trkpt><trkpt lat="27.913709660947635" lon="-11.517027078458547"><ele>186.75</ele><time>2026-04-29T12:44:30Z</time></trkpt><trkpt lat="27.913744800857504" lon="-11.517186225702984"><ele>187.5</ele><time>2026-04-29T12:44:31Z</time></trkpt><trkpt lat="27.91377625286731" lon="-11.517332778861414"><ele>188.25</ele><time>2026-04-29T12:44:32Z</time></trkpt><trkpt lat="27.913815470180968" lon="-11.517465414545567"><ele>189.0</ele><time>2026-04-29T12:44:33Z</time></trkpt><trkpt lat="27.913857726409645" lon="-11.517582352818982"><ele>189.0</ele><time>2026-04-29T12:44:34Z</time></trkpt><trkpt lat="27.91390106334343" lon="-11.517676285703303"><ele>189.0</ele><time>2026-04-29T12:44:35Z</time></trkpt><trkpt lat="27.91395255063557" lon="-11.517767105414846"><ele>189.0</ele><time>2026-04-29T12:44:36Z</time></trkpt><trkpt lat="27.914006676214058" lon="-11.517837822425324"><ele>189.0</ele><time>2026-04-29T12:44:37Z</time></trkpt><trkpt lat="27.914050046761595" lon="-11.517916697739455"><ele>189.0</ele><time>2026-04-29T12:44:38Z</time></trkpt><trkpt lat="27.914093613350907" lon="-11.51798971703997"><ele>189.0</ele><time>2026-04-29T12:44:39Z</time></trkpt><trkpt lat="27.91415222977738" lon="-11.518079074541276"><ele>189.25</ele><time>2026-04-29T12:44:40Z</time></trkpt><trkpt lat="27.914228381706394" lon="-11.518157382303828"><ele>189.5</ele><time>2026-04-29T12:44:41Z</time></trkpt><trkpt lat="27.914323042544947" lon="-11.518225263429741"><ele>189.75</ele><time>2026-04-29T12:44:42Z</time></trkpt><trkpt lat="27.91444266073228" lon="-11.51827539886116"><ele>190.0</ele><time>2026-04-29T12:44:43Z</time></trkpt><trkpt lat="27.914573817182916" lon="-11.518313908161987"><ele>189.25</ele><time>2026-04-29T12:44:44Z</time></trkpt><trkpt lat="27.914709534783814" lon="-11.518361826136921"><ele>188.5</ele><time>2026-04-29T12:44:45Z</time></trkpt><trkpt lat="27.914831067010706" lon="-11.51841724368359"><ele>187.75</ele><time>2026-04-29T12:44:46Z</time></trkpt><trkpt lat="27.914949270583364" lon="-11.518478399487321"><ele>187.0</ele><time>2026-04-29T12:44:47Z</time></trkpt><trkpt lat="27.91505028117083" lon="-11.518544277546575"><ele>187.0</ele><time>2026-04-29T12:44:48Z</time></trkpt><trkpt lat="27.915153208637122" lon="-11.518617033913888"><ele>187.0</ele><time>2026-04-29T12:44:49Z</time></trkpt><trkpt lat="27.91526080029787" lon="-11.518703544332292"><ele>187.0</ele><time>2026-04-29T12:44:50Z</time></trkpt><trkpt lat="27.915350070093282" lon="-11.518816805920311"><ele>187.0</ele><time>2026-04-29T12:44:51Z</time></trkpt><trkpt lat="27.915421961596657" lon="-11.518957253107217"><ele>188.25</ele><time>2026-04-29T12:44:52Z</time></trkpt><trkpt lat="27.915485066092174" lon="-11.519109367880489"><ele>189.5</ele><time>2026-04-29T12:44:53Z</time></trkpt><trkpt lat="27.915535296843714" lon="-11.519261846948128"><ele>190.75</ele><time>2026-04-29T12:44:54Z</time></trkpt><trkpt lat="27.915587965330015" lon="-11.519411260609411"><ele>192.0</ele><time>2026-04-29T12:44:55Z</time></trkpt><trkpt lat="27.915647542870996" lon="-11.51956315788734"><ele>191.0</ele><time>2026-04-29T12:44:56Z</time></trkpt><trkpt lat="27.915719609992934" lon="-11.519737600705488"><ele>190.0</ele><time>2026-04-29T12:44:57Z</time></trkpt><trkpt lat="27.915790341369814" lon="-11.51990897957066"><ele>189.0</ele><time>2026-04-29T12:44:58Z</time></trkpt><trkpt lat="27.91586471832725" lon="-11.520073203096015"><ele>189.66666666666666</ele><time>2026-04-29T12:44:59Z</time></trkpt><trkpt lat="27.91591969407195" lon="-11.520231221573118"><ele>190.33333333333331</ele><time>2026-04-29T12:45:00Z</time></trkpt><trkpt lat="27.915973413065792" lon="-11.520403604967406"><ele>191.0</ele><time>2026-04-29T12:45:01Z</time></trkpt><trkpt lat="27.916017831425926" lon="-11.520575332571049"><ele>191.66666666666666</ele><time>2026-04-29T12:45:02Z</time></trkpt><trkpt lat="27.916055485678708" lon="-11.520754636052322"><ele>192.33333333333331</ele><time>2026-04-29T12:45:03Z</time></trkpt><trkpt lat="27.916095094218722" lon="-11.520916923796682"><ele>193.0</ele><time>2026-04-29T12:45:04Z</time></trkpt><trkpt lat="27.916140039278684" lon="-11.521084279112875"><ele>192.66666666666666</ele><time>2026-04-29T12:45:05Z</time></trkpt><trkpt lat="27.916176584873455" lon="-11.52125668621313"><ele>192.33333333333331</ele><time>2026-04-29T12:45:06Z</time></trkpt><trkpt lat="27.916213412281454" lon="-11.52145181026314"><ele>192.0</ele><time>2026-04-29T12:45:07Z</time></trkpt><trkpt lat="27.916256596870298" lon="-11.521654775280227"><ele>192.0</ele><time>2026-04-29T12:45:08Z</time></trkpt><trkpt lat="27.91629092849627" lon="-11.521837432484803"><ele>192.0</ele><time>2026-04-29T12:45:09Z</time></trkpt><trkpt lat="27.91632398253544" lon="-11.522033806328391"><ele>192.0</ele><time>2026-04-29T12:45:10Z</time></trkpt><trkpt lat="27.91635893526328" lon="-11.522228796681773"><ele>193.33333333333331</ele><time>2026-04-29T12:45:11Z</time></trkpt><trkpt lat="27.916394074631086" lon="-11.522420399048974"><ele>194.66666666666666</ele><time>2026-04-29T12:45:12Z</time></trkpt><trkpt lat="27.91641445188138" lon="-11.522598083508788"><ele>196.0</ele><time>2026-04-29T12:45:13Z</time></trkpt><trkpt lat="27.916435347047" lon="-11.522775011635224"><ele>195.5</ele><time>2026-04-29T12:45:14Z</time></trkpt><trkpt lat="27.91645771621252" lon="-11.522940891001458"><ele>195.0</ele><time>2026-04-29T12:45:15Z</time></trkpt><trkpt lat="27.916470417184915" lon="-11.5230730901026"><ele>194.5</ele><time>2026-04-29T12:45:16Z</time></trkpt><trkpt lat="27.91647716251156" lon="-11.523202646882668"><ele>194.0</ele><time>2026-04-29T12:45:17Z</time></trkpt><trkpt lat="27.916468884037297" lon="-11.523329880173355"><ele>194.00000000000003</ele><time>2026-04-29T12:45:18Z</time></trkpt><trkpt lat="27.916446922611666" lon="-11.523456846743775"><ele>194.0</ele><time>2026-04-29T12:45:19Z</time></trkpt><trkpt lat="27.916428408292745" lon="-11.52356996257851"><ele>194.0</ele><time>2026-04-29T12:45:20Z</time></trkpt><trkpt lat="27.91640944492123" lon="-11.523661466054527"><ele>194.0</ele><time>2026-04-29T12:45:21Z</time></trkpt><trkpt lat="27.916384123432287" lon="-11.523731384925416"><ele>194.00000000000003</ele><time>2026-04-29T12:45:22Z</time></trkpt><trkpt lat="27.9163344064402" lon="-11.523800007777549"><ele>194.0</ele><time>2026-04-29T12:45:24Z</time></trkpt><trkpt lat="27.916335357920953" lon="-11.52388931476249"><ele>194.0</ele><time>2026-04-29T12:46:51Z</time></trkpt><trkpt lat="27.9163554596091" lon="-11.523968239527631"><ele>194.0</ele><time>2026-04-29T12:46:52Z</time></trkpt><trkpt lat="27.9163925575283" lon="-11.524069409974038"><ele>194.0</ele><time>2026-04-29T12:46:53Z</time></trkpt><trkpt lat="27.916432308049977" lon="-11.524179426539458"><ele>194.0</ele><time>2026-04-29T12:46:54Z</time></trkpt><trkpt lat="27.91646374019446" lon="-11.524286020166944"><ele>194.0</ele><time>2026-04-29T12:46:55Z</time></trkpt><trkpt lat="27.916500378052213" lon="-11.524399124964583"><ele>194.0</ele><time>2026-04-29T12:46:56Z</time></trkpt><trkpt lat="27.916535643229047" lon="-11.524524562554841"><ele>194.0</ele><time>2026-04-29T12:46:57Z</time></trkpt><trkpt lat="27.91657321353751" lon="-11.524638331385804"><ele>194.0</ele><time>2026-04-29T12:46:58Z</time></trkpt><trkpt lat="27.91662484603094" lon="-11.524740077452499"><ele>194.0</ele><time>2026-04-29T12:46:59Z</time></trkpt><trkpt lat="27.91669630693709" lon="-11.524850708653107"><ele>194.0</ele><time>2026-04-29T12:47:00Z</time></trkpt><trkpt lat="27.91678595204293" lon="-11.524974885472078"><ele>194.0</ele><time>2026-04-29T12:47:01Z</time></trkpt><trkpt lat="27.91686975517866" lon="-11.525096510333327"><ele>194.0</ele><time>2026-04-29T12:47:02Z</time></trkpt><trkpt lat="27.91694211144597" lon="-11.525219160026497"><ele>194.0</ele><time>2026-04-29T12:47:03Z</time></trkpt><trkpt lat="27.91702073565778" lon="-11.52533010040627"><ele>194.0</ele><time>2026-04-29T12:47:04Z</time></trkpt><trkpt lat="27.917116217498787" lon="-11.525437094621427"><ele>193.6</ele><time>2026-04-29T12:47:05Z</time></trkpt><trkpt lat="27.917207700931954" lon="-11.525523271242653"><ele>193.2</ele><time>2026-04-29T12:47:06Z</time></trkpt><trkpt lat="27.917282983595115" lon="-11.525596221998232"><ele>192.79999999999998</ele><time>2026-04-29T12:47:07Z</time></trkpt><trkpt lat="27.917343766700338" lon="-11.525668926675477"><ele>192.39999999999998</ele><time>2026-04-29T12:47:08Z</time></trkpt><trkpt lat="27.917400113253937" lon="-11.525755856195467"><ele>192.0</ele><time>2026-04-29T12:47:09Z</time></trkpt><trkpt lat="27.917441381865647" lon="-11.525866943920372"><ele>192.0</ele><time>2026-04-29T12:47:10Z</time></trkpt><trkpt lat="27.917458305373607" lon="-11.52597844893544"><ele>192.0</ele><time>2026-04-29T12:47:11Z</time></trkpt><trkpt lat="27.91744695377915" lon="-11.526106824582094"><ele>192.0</ele><time>2026-04-29T12:47:12Z</time></trkpt><trkpt lat="27.917412395046597" lon="-11.526257331371891"><ele>192.0</ele><time>2026-04-29T12:47:13Z</time></trkpt><trkpt lat="27.917362935679396" lon="-11.526397324055797"><ele>193.25</ele><time>2026-04-29T12:47:14Z</time></trkpt><trkpt lat="27.91730481543757" lon="-11.526515682476868"><ele>194.5</ele><time>2026-04-29T12:47:15Z</time></trkpt><trkpt lat="27.91723165016151" lon="-11.5266223552777"><ele>195.75</ele><time>2026-04-29T12:47:16Z</time></trkpt><trkpt lat="27.91715789219101" lon="-11.526729319700477"><ele>197.0</ele><time>2026-04-29T12:47:17Z</time></trkpt><trkpt lat="27.91708056822213" lon="-11.526843749471261"><ele>197.0</ele><time>2026-04-29T12:47:18Z</time></trkpt><trkpt lat="27.917010131196285" lon="-11.526957501641553"><ele>197.0</ele><time>2026-04-29T12:47:19Z</time></trkpt><trkpt lat="27.916931723544845" lon="-11.527086232044297"><ele>197.0</ele><time>2026-04-29T12:47:20Z</time></trkpt><trkpt lat="27.91684594552376" lon="-11.527202037354275"><ele>197.0</ele><time>2026-04-29T12:47:21Z</time></trkpt><trkpt lat="27.916756018807288" lon="-11.52728760338925"><ele>196.5</ele><time>2026-04-29T12:47:22Z</time></trkpt><trkpt lat="27.916658927738098" lon="-11.527358242165818"><ele>196.0</ele><time>2026-04-29T12:47:23Z</time></trkpt><trkpt lat="27.916559670372532" lon="-11.52742199358276"><ele>195.5</ele><time>2026-04-29T12:47:24Z</time></trkpt><trkpt lat="27.916453237098825" lon="-11.527485181612397"><ele>195.0</ele><time>2026-04-29T12:47:25Z</time></trkpt><trkpt lat="27.916330903882194" lon="-11.527548273994432"><ele>195.0</ele><time>2026-04-29T12:47:26Z</time></trkpt><trkpt lat="27.916205189110844" lon="-11.527604603728351"><ele>195.0</ele><time>2026-04-29T12:47:27Z</time></trkpt><trkpt lat="27.91608027702433" lon="-11.527655427065662"><ele>195.0</ele><time>2026-04-29T12:47:28Z</time></trkpt><trkpt lat="27.915956561991944" lon="-11.527700946593278"><ele>195.0</ele><time>2026-04-29T12:47:29Z</time></trkpt><trkpt lat="27.91584385214483" lon="-11.527747199020201"><ele>195.0</ele><time>2026-04-29T12:47:30Z</time></trkpt><trkpt lat="27.915722862543763" lon="-11.527801391827838"><ele>195.0</ele><time>2026-04-29T12:47:31Z</time></trkpt><trkpt lat="27.91557295614259" lon="-11.527857348926556"><ele>195.0</ele><time>2026-04-29T12:47:32Z</time></trkpt><trkpt lat="27.91540577371409" lon="-11.52793218443"><ele>195.0</ele><time>2026-04-29T12:47:33Z</time></trkpt><trkpt lat="27.91523832241601" lon="-11.527995866525007"><ele>195.0</ele><time>2026-04-29T12:47:34Z</time></trkpt><trkpt lat="27.915105797533837" lon="-11.52804461993904"><ele>195.0</ele><time>2026-04-29T12:47:35Z</time></trkpt><trkpt lat="27.914975422516736" lon="-11.528098370472652"><ele>195.75</ele><time>2026-04-29T12:47:36Z</time></trkpt><trkpt lat="27.91484348542077" lon="-11.528144423850339"><ele>196.5</ele><time>2026-04-29T12:47:37Z</time></trkpt><trkpt lat="27.914732763807354" lon="-11.528174401686423"><ele>197.25</ele><time>2026-04-29T12:47:38Z</time></trkpt><trkpt lat="27.91460725699776" lon="-11.528202286501335"><ele>198.0</ele><time>2026-04-29T12:47:39Z</time></trkpt><trkpt lat="27.914472394506163" lon="-11.528228574995914"><ele>198.0</ele><time>2026-04-29T12:47:40Z</time></trkpt><trkpt lat="27.914345979107484" lon="-11.52826730313432"><ele>198.0</ele><time>2026-04-29T12:47:41Z</time></trkpt><trkpt lat="27.914217046276143" lon="-11.52832002857725"><ele>198.0</ele><time>2026-04-29T12:47:42Z</time></trkpt><trkpt lat="27.914095504349138" lon="-11.528371608759555"><ele>198.0</ele><time>2026-04-29T12:47:43Z</time></trkpt><trkpt lat="27.913985468932715" lon="-11.528412860705828"><ele>198.25</ele><time>2026-04-29T12:47:44Z</time></trkpt><trkpt lat="27.913881476008786" lon="-11.528472286034042"><ele>198.5</ele><time>2026-04-29T12:47:45Z</time></trkpt><trkpt lat="27.91377276465032" lon="-11.528521090442398"><ele>198.75</ele><time>2026-04-29T12:47:46Z</time></trkpt><trkpt lat="27.913661665759882" lon="-11.528572257554115"><ele>199.0</ele><time>2026-04-29T12:47:47Z</time></trkpt><trkpt lat="27.913562880023623" lon="-11.528622914644346"><ele>199.0</ele><time>2026-04-29T12:47:48Z</time></trkpt><trkpt lat="27.913488188094316" lon="-11.528681323690908"><ele>199.0</ele><time>2026-04-29T12:47:49Z</time></trkpt><trkpt lat="27.913436321810703" lon="-11.528758049157974"><ele>199.0</ele><time>2026-04-29T12:47:50Z</time></trkpt><trkpt lat="27.91338791240701" lon="-11.528850972842873"><ele>199.0</ele><time>2026-04-29T12:47:51Z</time></trkpt><trkpt lat="27.91335585375379" lon="-11.528975550360007"><ele>199.0</ele><time>2026-04-29T12:47:52Z</time></trkpt><trkpt lat="27.913344598193373" lon="-11.529133934769453"><ele>199.75</ele><time>2026-04-29T12:47:53Z</time></trkpt><trkpt lat="27.91334833510863" lon="-11.529293335255822"><ele>200.5</ele><time>2026-04-29T12:47:54Z</time></trkpt><trkpt lat="27.913350144379145" lon="-11.529413005875949"><ele>201.25</ele><time>2026-04-29T12:47:55Z</time></trkpt><trkpt lat="27.913352198139126" lon="-11.52952405452212"><ele>202.0</ele><time>2026-04-29T12:47:56Z</time></trkpt><trkpt lat="27.913363158160784" lon="-11.52965619234782"><ele>202.0</ele><time>2026-04-29T12:47:57Z</time></trkpt><trkpt lat="27.913373570934123" lon="-11.529793555028274"><ele>202.0</ele><time>2026-04-29T12:47:58Z</time></trkpt><trkpt lat="27.913374955150577" lon="-11.529907841817051"><ele>202.0</ele><time>2026-04-29T12:47:59Z</time></trkpt><trkpt lat="27.913361106969354" lon="-11.530012584938229"><ele>202.0</ele><time>2026-04-29T12:48:00Z</time></trkpt><trkpt lat="27.913338054552625" lon="-11.530110775949765"><ele>202.0</ele><time>2026-04-29T12:48:01Z</time></trkpt><trkpt lat="27.91329762271747" lon="-11.530211972357721"><ele>202.0</ele><time>2026-04-29T12:48:02Z</time></trkpt><trkpt lat="27.91321775408012" lon="-11.530339157238375"><ele>202.0</ele><time>2026-04-29T12:48:03Z</time></trkpt><trkpt lat="27.91313833352527" lon="-11.530464731860212"><ele>202.0</ele><time>2026-04-29T12:48:04Z</time></trkpt><trkpt lat="27.91307904682128" lon="-11.530582822769519"><ele>202.0</ele><time>2026-04-29T12:48:05Z</time></trkpt><trkpt lat="27.913039826021603" lon="-11.530697933119013"><ele>202.2</ele><time>2026-04-29T12:48:06Z</time></trkpt><trkpt lat="27.913015885941412" lon="-11.53079938637093"><ele>202.39999999999998</ele><time>2026-04-29T12:48:07Z</time></trkpt><trkpt lat="27.912998328747857" lon="-11.53090286283981"><ele>202.60000000000002</ele><time>2026-04-29T12:48:08Z</time></trkpt><trkpt lat="27.91298871125959" lon="-11.531012502167256"><ele>202.8</ele><time>2026-04-29T12:48:09Z</time></trkpt><trkpt lat="27.912989080501667" lon="-11.53112295650809"><ele>203.0</ele><time>2026-04-29T12:48:10Z</time></trkpt><trkpt lat="27.912990874952033" lon="-11.53122417503354"><ele>203.2</ele><time>2026-04-29T12:48:11Z</time></trkpt><trkpt lat="27.912998388756392" lon="-11.531297927395745"><ele>203.4</ele><time>2026-04-29T12:48:12Z</time></trkpt><trkpt lat="27.913020785576936" lon="-11.531411850897486"><ele>203.6</ele><time>2026-04-29T12:48:14Z</time></trkpt><trkpt lat="27.91303850819571" lon="-11.53151591512429"><ele>203.79999999999998</ele><time>2026-04-29T12:48:16Z</time></trkpt><trkpt lat="27.91306278955402" lon="-11.531599542844974"><ele>204.0</ele><time>2026-04-29T12:48:18Z</time></trkpt><trkpt lat="27.91309563272132" lon="-11.531722190222254"><ele>204.0</ele><time>2026-04-29T12:48:20Z</time></trkpt><trkpt lat="27.913117118002948" lon="-11.531804810939045"><ele>204.0</ele><time>2026-04-29T12:48:21Z</time></trkpt><trkpt lat="27.91313297073767" lon="-11.531885661804306"><ele>204.0</ele><time>2026-04-29T12:48:22Z</time></trkpt><trkpt lat="27.913140695900747" lon="-11.531970698865408"><ele>204.0</ele><time>2026-04-29T12:48:23Z</time></trkpt><trkpt lat="27.913157139200084" lon="-11.532090109311806"><ele>204.0</ele><time>2026-04-29T12:48:25Z</time></trkpt><trkpt lat="27.91319524210993" lon="-11.532176616381994"><ele>204.0</ele><time>2026-04-29T12:48:27Z</time></trkpt><trkpt lat="27.913239190831014" lon="-11.532289685769163"><ele>204.0</ele><time>2026-04-29T12:48:29Z</time></trkpt><trkpt lat="27.91326378516355" lon="-11.532361595869679"><ele>204.0</ele><time>2026-04-29T12:48:30Z</time></trkpt><trkpt lat="27.913285367574236" lon="-11.53244152106155"><ele>204.0</ele><time>2026-04-29T12:48:31Z</time></trkpt><trkpt lat="27.913299290691604" lon="-11.532540225795575"><ele>204.0</ele><time>2026-04-29T12:48:32Z</time></trkpt><trkpt lat="27.9133122936707" lon="-11.532652073269354"><ele>204.0</ele><time>2026-04-29T12:48:33Z</time></trkpt><trkpt lat="27.913323890140752" lon="-11.532770879739257"><ele>204.0</ele><time>2026-04-29T12:48:34Z</time></trkpt><trkpt lat="27.91333460502885" lon="-11.532885396753741"><ele>204.5</ele><time>2026-04-29T12:48:35Z</time></trkpt><trkpt lat="27.913344229597282" lon="-11.533008616102256"><ele>205.0</ele><time>2026-04-29T12:48:36Z</time></trkpt><trkpt lat="27.913355551177336" lon="-11.533132301339544"><ele>205.5</ele><time>2026-04-29T12:48:37Z</time></trkpt><trkpt lat="27.913367179183204" lon="-11.533264049283108"><ele>206.0</ele><time>2026-04-29T12:48:38Z</time></trkpt><trkpt lat="27.913390987361414" lon="-11.533413315503614"><ele>205.5</ele><time>2026-04-29T12:48:39Z</time></trkpt><trkpt lat="27.913422819981204" lon="-11.533566492403956"><ele>205.0</ele><time>2026-04-29T12:48:40Z</time></trkpt><trkpt lat="27.913450709643243" lon="-11.53371990294725"><ele>204.5</ele><time>2026-04-29T12:48:41Z</time></trkpt><trkpt lat="27.913464931181558" lon="-11.533873430308432"><ele>204.0</ele><time>2026-04-29T12:48:42Z</time></trkpt><trkpt lat="27.913464422620997" lon="-11.534021368547474"><ele>204.0</ele><time>2026-04-29T12:48:43Z</time></trkpt><trkpt lat="27.913469307351065" lon="-11.534169704900496"><ele>204.0</ele><time>2026-04-29T12:48:44Z</time></trkpt><trkpt lat="27.91347436699432" lon="-11.534334001082222"><ele>204.0</ele><time>2026-04-29T12:48:45Z</time></trkpt><trkpt lat="27.913474965805037" lon="-11.534490264646834"><ele>204.0</ele><time>2026-04-29T12:48:46Z</time></trkpt><trkpt lat="27.91346341456575" lon="-11.534624559638182"><ele>205.0</ele><time>2026-04-29T12:48:47Z</time></trkpt><trkpt lat="27.913434391785298" lon="-11.534751031262575"><ele>206.0</ele><time>2026-04-29T12:48:48Z</time></trkpt><trkpt lat="27.913391564633887" lon="-11.534879964917799"><ele>207.0</ele><time>2026-04-29T12:48:49Z</time></trkpt><trkpt lat="27.913339175622493" lon="-11.53500813063097"><ele>208.0</ele><time>2026-04-29T12:48:50Z</time></trkpt><trkpt lat="27.91327443950387" lon="-11.535148640843637"><ele>208.0</ele><time>2026-04-29T12:48:51Z</time></trkpt><trkpt lat="27.913197883188552" lon="-11.535282498296286"><ele>208.0</ele><time>2026-04-29T12:48:52Z</time></trkpt><trkpt lat="27.91312488976063" lon="-11.53540214349936"><ele>208.0</ele><time>2026-04-29T12:48:53Z</time></trkpt><trkpt lat="27.913044553044653" lon="-11.535504035531817"><ele>208.0</ele><time>2026-04-29T12:48:54Z</time></trkpt><trkpt lat="27.912971839596562" lon="-11.535607045452313"><ele>207.2</ele><time>2026-04-29T12:48:55Z</time></trkpt><trkpt lat="27.912907975284693" lon="-11.535710883833126"><ele>206.4</ele><time>2026-04-29T12:48:56Z</time></trkpt><trkpt lat="27.91284064134861" lon="-11.53581089734604"><ele>205.6</ele><time>2026-04-29T12:48:57Z</time></trkpt><trkpt lat="27.91278948244764" lon="-11.535879800121753"><ele>204.79999999999998</ele><time>2026-04-29T12:48:58Z</time></trkpt><trkpt lat="27.91273876199072" lon="-11.535945476364924"><ele>204.0</ele><time>2026-04-29T12:49:00Z</time></trkpt><trkpt lat="27.912693752567407" lon="-11.536068533321156"><ele>204.0</ele><time>2026-04-29T12:50:19Z</time></trkpt><trkpt lat="27.912677512717366" lon="-11.536164011267651"><ele>204.0</ele><time>2026-04-29T12:50:20Z</time></trkpt><trkpt lat="27.91267550743603" lon="-11.536292132875818"><ele>204.0</ele><time>2026-04-29T12:50:21Z</time></trkpt><trkpt lat="27.912676123635713" lon="-11.536433286703678"><ele>204.0</ele><time>2026-04-29T12:50:22Z</time></trkpt><trkpt lat="27.91266897026376" lon="-11.536575396766143"><ele>204.5</ele><time>2026-04-29T12:50:23Z</time></trkpt><trkpt lat="27.912653194115887" lon="-11.536713402702889"><ele>205.0</ele><time>2026-04-29T12:50:24Z</time></trkpt><trkpt lat="27.91263960682091" lon="-11.536849986324267"><ele>205.5</ele><time>2026-04-29T12:50:25Z</time></trkpt><trkpt lat="27.91262882177105" lon="-11.536977921330548"><ele>206.0</ele><time>2026-04-29T12:50:26Z</time></trkpt><trkpt lat="27.912615067053228" lon="-11.537119423328633"><ele>206.0</ele><time>2026-04-29T12:50:27Z</time></trkpt><trkpt lat="27.912610523329995" lon="-11.537258447711448"><ele>206.0</ele><time>2026-04-29T12:50:28Z</time></trkpt><trkpt lat="27.912625081643764" lon="-11.53738398072785"><ele>206.0</ele><time>2026-04-29T12:50:29Z</time></trkpt><trkpt lat="27.912658809407827" lon="-11.537511664451522"><ele>206.0</ele><time>2026-04-29T12:50:30Z</time></trkpt><trkpt lat="27.91271414043158" lon="-11.537660121399837"><ele>206.0</ele><time>2026-04-29T12:50:31Z</time></trkpt><trkpt lat="27.91277659212927" lon="-11.537818346967445"><ele>206.0</ele><time>2026-04-29T12:50:32Z</time></trkpt><trkpt lat="27.91282143018805" lon="-11.537955199138558"><ele>206.0</ele><time>2026-04-29T12:50:33Z</time></trkpt><trkpt lat="27.912861933904946" lon="-11.538068537403902"><ele>206.0</ele><time>2026-04-29T12:50:34Z</time></trkpt><trkpt lat="27.9129139187656" lon="-11.538171370349737"><ele>206.14285714285714</ele><time>2026-04-29T12:50:35Z</time></trkpt><trkpt lat="27.91296603318198" lon="-11.53824532828086"><ele>206.28571428571428</ele><time>2026-04-29T12:50:36Z</time></trkpt><trkpt lat="27.913025570270236" lon="-11.538292087341707"><ele>206.42857142857144</ele><time>2026-04-29T12:50:37Z</time></trkpt><trkpt lat="27.913087952713163" lon="-11.53832349085948"><ele>206.57142857142856</ele><time>2026-04-29T12:50:38Z</time></trkpt><trkpt lat="27.91314852239716" lon="-11.538352463165781"><ele>206.71428571428572</ele><time>2026-04-29T12:50:39Z</time></trkpt><trkpt lat="27.913197286225266" lon="-11.53839938966926"><ele>206.85714285714286</ele><time>2026-04-29T12:50:40Z</time></trkpt><trkpt lat="27.913237276500322" lon="-11.538468625214538"><ele>207.0</ele><time>2026-04-29T12:50:41Z</time></trkpt><trkpt lat="27.91327266874456" lon="-11.538543659842704"><ele>207.0</ele><time>2026-04-29T12:50:42Z</time></trkpt><trkpt lat="27.9133064301696" lon="-11.538611840169422"><ele>207.0</ele><time>2026-04-29T12:50:43Z</time></trkpt><trkpt lat="27.913353112885613" lon="-11.538719080779476"><ele>207.0</ele><time>2026-04-29T12:50:45Z</time></trkpt><trkpt lat="27.913383069160613" lon="-11.53883278560742"><ele>207.0</ele><time>2026-04-29T12:50:47Z</time></trkpt><trkpt lat="27.91338510434777" lon="-11.538918914138057"><ele>207.0</ele><time>2026-04-29T12:50:48Z</time></trkpt><trkpt lat="27.91337758615191" lon="-11.539005833921724"><ele>207.0</ele><time>2026-04-29T12:50:49Z</time></trkpt><trkpt lat="27.913362870347406" lon="-11.539092215026844"><ele>207.0</ele><time>2026-04-29T12:50:50Z</time></trkpt><trkpt lat="27.913344053420253" lon="-11.53916815991787"><ele>207.0</ele><time>2026-04-29T12:50:51Z</time></trkpt><trkpt lat="27.91332597644186" lon="-11.53930286313176"><ele>207.0</ele><time>2026-04-29T12:50:53Z</time></trkpt><trkpt lat="27.913307533146433" lon="-11.539377644783297"><ele>207.0</ele><time>2026-04-29T12:50:54Z</time></trkpt><trkpt lat="27.913293646590475" lon="-11.539462595048539"><ele>207.0</ele><time>2026-04-29T12:50:55Z</time></trkpt><trkpt lat="27.913289109377754" lon="-11.539560002552491"><ele>207.0</ele><time>2026-04-29T12:50:56Z</time></trkpt><trkpt lat="27.913284201825768" lon="-11.539671072637796"><ele>207.0</ele><time>2026-04-29T12:50:57Z</time></trkpt><trkpt lat="27.91327506624627" lon="-11.539781233371427"><ele>207.0</ele><time>2026-04-29T12:50:58Z</time></trkpt><trkpt lat="27.913266056787197" lon="-11.53991089757398"><ele>207.0</ele><time>2026-04-29T12:50:59Z</time></trkpt><trkpt lat="27.913263277753085" lon="-11.540030985503124"><ele>207.0</ele><time>2026-04-29T12:51:00Z</time></trkpt><trkpt lat="27.91326931217629" lon="-11.540149477940744"><ele>207.0</ele><time>2026-04-29T12:51:01Z</time></trkpt><trkpt lat="27.91329030045232" lon="-11.540266102911099"><ele>207.0</ele><time>2026-04-29T12:51:02Z</time></trkpt><trkpt lat="27.913324755140707" lon="-11.54038018471522"><ele>207.0</ele><time>2026-04-29T12:51:03Z</time></trkpt><trkpt lat="27.913369279329252" lon="-11.540502409857236"><ele>207.0</ele><time>2026-04-29T12:51:04Z</time></trkpt><trkpt lat="27.91340790517188" lon="-11.54063161361561"><ele>207.0</ele><time>2026-04-29T12:51:05Z</time></trkpt><trkpt lat="27.91343744038576" lon="-11.540752429314882"><ele>207.0</ele><time>2026-04-29T12:51:06Z</time></trkpt><trkpt lat="27.913467409728597" lon="-11.540878916765877"><ele>207.0</ele><time>2026-04-29T12:51:07Z</time></trkpt><trkpt lat="27.91349415925497" lon="-11.541014054862348"><ele>207.0</ele><time>2026-04-29T12:51:08Z</time></trkpt><trkpt lat="27.913522787892425" lon="-11.54116402508514"><ele>207.0</ele><time>2026-04-29T12:51:09Z</time></trkpt><trkpt lat="27.91355707725461" lon="-11.541327371284876"><ele>208.0</ele><time>2026-04-29T12:51:10Z</time></trkpt><trkpt lat="27.913594634125005" lon="-11.541495826041563"><ele>209.0</ele><time>2026-04-29T12:51:11Z</time></trkpt><trkpt lat="27.913623866898014" lon="-11.541650957708125"><ele>210.0</ele><time>2026-04-29T12:51:12Z</time></trkpt><trkpt lat="27.913636750268207" lon="-11.5418060186206"><ele>211.0</ele><time>2026-04-29T12:51:13Z</time></trkpt><trkpt lat="27.913633546203236" lon="-11.541956481707823"><ele>212.0</ele><time>2026-04-29T12:51:14Z</time></trkpt><trkpt lat="27.913631365024305" lon="-11.542110561366414"><ele>213.0</ele><time>2026-04-29T12:51:15Z</time></trkpt><trkpt lat="27.913631691198393" lon="-11.542287791671319"><ele>214.0</ele><time>2026-04-29T12:51:16Z</time></trkpt><trkpt lat="27.913639815270596" lon="-11.54247030164452"><ele>214.0</ele><time>2026-04-29T12:51:17Z</time></trkpt><trkpt lat="27.913666546099492" lon="-11.54262991603488"><ele>214.0</ele><time>2026-04-29T12:51:18Z</time></trkpt><trkpt lat="27.9137110035743" lon="-11.54280546221918"><ele>214.0</ele><time>2026-04-29T12:51:19Z</time></trkpt><trkpt lat="27.913755614742275" lon="-11.542985857770645"><ele>214.0</ele><time>2026-04-29T12:51:20Z</time></trkpt><trkpt lat="27.91378609776423" lon="-11.5431720779686"><ele>214.0</ele><time>2026-04-29T12:51:21Z</time></trkpt><trkpt lat="27.913809226360986" lon="-11.543365031906058"><ele>214.0</ele><time>2026-04-29T12:51:22Z</time></trkpt><trkpt lat="27.913834589692296" lon="-11.54356470937872"><ele>213.33333333333331</ele><time>2026-04-29T12:51:23Z</time></trkpt><trkpt lat="27.913855084427862" lon="-11.54375673050762"><ele>212.66666666666669</ele><time>2026-04-29T12:51:24Z</time></trkpt><trkpt lat="27.913867988184855" lon="-11.543953498619397"><ele>212.0</ele><time>2026-04-29T12:51:25Z</time></trkpt><trkpt lat="27.913875813276114" lon="-11.544144813442504"><ele>212.0</ele><time>2026-04-29T12:51:26Z</time></trkpt><trkpt lat="27.913884995793197" lon="-11.544343607262006"><ele>212.0</ele><time>2026-04-29T12:51:27Z</time></trkpt><trkpt lat="27.9138978077213" lon="-11.544535049585074"><ele>212.0</ele><time>2026-04-29T12:51:28Z</time></trkpt><trkpt lat="27.913918607002145" lon="-11.544733265873573"><ele>211.33333333333334</ele><time>2026-04-29T12:51:29Z</time></trkpt><trkpt lat="27.913943452660117" lon="-11.54492981240553"><ele>210.66666666666669</ele><time>2026-04-29T12:51:30Z</time></trkpt><trkpt lat="27.913966836442626" lon="-11.545125028744653"><ele>210.0</ele><time>2026-04-29T12:51:31Z</time></trkpt><trkpt lat="27.91398886541004" lon="-11.545310746611435"><ele>211.33333333333331</ele><time>2026-04-29T12:51:32Z</time></trkpt><trkpt lat="27.914017418965194" lon="-11.545488256793389"><ele>212.66666666666666</ele><time>2026-04-29T12:51:33Z</time></trkpt><trkpt lat="27.91405591831863" lon="-11.545668100393682"><ele>214.0</ele><time>2026-04-29T12:51:34Z</time></trkpt><trkpt lat="27.91410322594834" lon="-11.54584781442395"><ele>214.0</ele><time>2026-04-29T12:51:35Z</time></trkpt><trkpt lat="27.914153757905975" lon="-11.546009390087372"><ele>214.0</ele><time>2026-04-29T12:51:36Z</time></trkpt><trkpt lat="27.91421270902107" lon="-11.546160983613149"><ele>214.0</ele><time>2026-04-29T12:51:37Z</time></trkpt><trkpt lat="27.914279035183906" lon="-11.546316984755155"><ele>214.33333333333331</ele><time>2026-04-29T12:51:38Z</time></trkpt><trkpt lat="27.91436668928213" lon="-11.546503364979287"><ele>214.66666666666669</ele><time>2026-04-29T12:51:39Z</time></trkpt><trkpt lat="27.914453255778934" lon="-11.546687107315579"><ele>215.0</ele><time>2026-04-29T12:51:40Z</time></trkpt><trkpt lat="27.91454782045287" lon="-11.546859503769234"><ele>215.0</ele><time>2026-04-29T12:51:41Z</time></trkpt><trkpt lat="27.914645809534342" lon="-11.547023817590333"><ele>215.0</ele><time>2026-04-29T12:51:42Z</time></trkpt><trkpt lat="27.914738741575192" lon="-11.547183040765688"><ele>215.0</ele><time>2026-04-29T12:51:43Z</time></trkpt><trkpt lat="27.914830155004477" lon="-11.547350407573964"><ele>216.33333333333334</ele><time>2026-04-29T12:51:44Z</time></trkpt><trkpt lat="27.91491098479657" lon="-11.54750927319881"><ele>217.66666666666669</ele><time>2026-04-29T12:51:45Z</time></trkpt><trkpt lat="27.914997946363222" lon="-11.547674099737547"><ele>219.0</ele><time>2026-04-29T12:51:46Z</time></trkpt><trkpt lat="27.915089415408328" lon="-11.547833190080064"><ele>219.66666666666669</ele><time>2026-04-29T12:51:47Z</time></trkpt><trkpt lat="27.91517935865195" lon="-11.547985829108644"><ele>220.33333333333334</ele><time>2026-04-29T12:51:48Z</time></trkpt><trkpt lat="27.91526097575692" lon="-11.548145493304029"><ele>221.0</ele><time>2026-04-29T12:51:49Z</time></trkpt><trkpt lat="27.91534641893676" lon="-11.548306458857617"><ele>221.0</ele><time>2026-04-29T12:51:50Z</time></trkpt><trkpt lat="27.915449571423377" lon="-11.548490364202891"><ele>221.0</ele><time>2026-04-29T12:51:51Z</time></trkpt><trkpt lat="27.915554875331434" lon="-11.548680054561574"><ele>221.0</ele><time>2026-04-29T12:51:52Z</time></trkpt><trkpt lat="27.915667939845783" lon="-11.548877473287353"><ele>220.66666666666669</ele><time>2026-04-29T12:51:53Z</time></trkpt><trkpt lat="27.915779125747925" lon="-11.549069023490306"><ele>220.33333333333331</ele><time>2026-04-29T12:51:54Z</time></trkpt><trkpt lat="27.91587505191345" lon="-11.549247222716106"><ele>220.0</ele><time>2026-04-29T12:51:55Z</time></trkpt><trkpt lat="27.91596095663783" lon="-11.549423833655364"><ele>221.66666666666666</ele><time>2026-04-29T12:51:56Z</time></trkpt><trkpt lat="27.91604783936861" lon="-11.549603713009645"><ele>223.33333333333331</ele><time>2026-04-29T12:51:57Z</time></trkpt><trkpt lat="27.916134988964544" lon="-11.549786079566793"><ele>225.0</ele><time>2026-04-29T12:51:58Z</time></trkpt><trkpt lat="27.9162199269317" lon="-11.549970745353951"><ele>225.0</ele><time>2026-04-29T12:51:59Z</time></trkpt><trkpt lat="27.916311053048393" lon="-11.550171183896877"><ele>225.0</ele><time>2026-04-29T12:52:00Z</time></trkpt><trkpt lat="27.916403718025784" lon="-11.550380754428113"><ele>225.0</ele><time>2026-04-29T12:52:00.999Z</time></trkpt><trkpt lat="27.9165033385994" lon="-11.550598445008669"><ele>225.0</ele><time>2026-04-29T12:52:01.999Z</time></trkpt><trkpt lat="27.916604064418255" lon="-11.55082133490951"><ele>225.0</ele><time>2026-04-29T12:52:02.999Z</time></trkpt><trkpt lat="27.916708622553084" lon="-11.551057778064585"><ele>226.33333333333331</ele><time>2026-04-29T12:52:03.999Z</time></trkpt><trkpt lat="27.91681296980966" lon="-11.551283241533687"><ele>227.66666666666666</ele><time>2026-04-29T12:52:04.999Z</time></trkpt><trkpt lat="27.916917447443762" lon="-11.55149374129709"><ele>229.0</ele><time>2026-04-29T12:52:06Z</time></trkpt><trkpt lat="27.91701441771349" lon="-11.551685202743684"><ele>229.0</ele><time>2026-04-29T12:52:07Z</time></trkpt><trkpt lat="27.91711702310605" lon="-11.55187257679641"><ele>229.0</ele><time>2026-04-29T12:52:08Z</time></trkpt><trkpt lat="27.917233771210633" lon="-11.552068115881275"><ele>229.0</ele><time>2026-04-29T12:52:09Z</time></trkpt><trkpt lat="27.917349037225353" lon="-11.552253363461247"><ele>228.0</ele><time>2026-04-29T12:52:10Z</time></trkpt><trkpt lat="27.917470033568055" lon="-11.552417315486764"><ele>227.0</ele><time>2026-04-29T12:52:11Z</time></trkpt><trkpt lat="27.917608295830906" lon="-11.552585876036902"><ele>226.0</ele><time>2026-04-29T12:52:12Z</time></trkpt><trkpt lat="27.91775285480802" lon="-11.552766276091026"><ele>227.0</ele><time>2026-04-29T12:52:13Z</time></trkpt><trkpt lat="27.9178984123781" lon="-11.552939424789365"><ele>228.0</ele><time>2026-04-29T12:52:14Z</time></trkpt><trkpt lat="27.91804622045774" lon="-11.553114194125758"><ele>229.0</ele><time>2026-04-29T12:52:15Z</time></trkpt><trkpt lat="27.918209095143858" lon="-11.553301313514025"><ele>229.0</ele><time>2026-04-29T12:52:16Z</time></trkpt><trkpt lat="27.91838180086641" lon="-11.553490176046603"><ele>229.0</ele><time>2026-04-29T12:52:17Z</time></trkpt><trkpt lat="27.91853900510343" lon="-11.553663627970364"><ele>230.66666666666666</ele><time>2026-04-29T12:52:18Z</time></trkpt><trkpt lat="27.918677630855893" lon="-11.553817105902711"><ele>232.33333333333331</ele><time>2026-04-29T12:52:19Z</time></trkpt><trkpt lat="27.918813962433973" lon="-11.553979294148762"><ele>234.0</ele><time>2026-04-29T12:52:20Z</time></trkpt><trkpt lat="27.918928063594954" lon="-11.554133150782532"><ele>234.0</ele><time>2026-04-29T12:52:21Z</time></trkpt><trkpt lat="27.91901698893405" lon="-11.554277650902083"><ele>234.0</ele><time>2026-04-29T12:52:22Z</time></trkpt><trkpt lat="27.9190977465527" lon="-11.55442707113147"><ele>234.0</ele><time>2026-04-29T12:52:23Z</time></trkpt><trkpt lat="27.919167569151167" lon="-11.554582793981218"><ele>234.0</ele><time>2026-04-29T12:52:24Z</time></trkpt><trkpt lat="27.919215414679087" lon="-11.554743521312453"><ele>234.0</ele><time>2026-04-29T12:52:25Z</time></trkpt><trkpt lat="27.919241468742136" lon="-11.554906086856894"><ele>234.0</ele><time>2026-04-29T12:52:26Z</time></trkpt><trkpt lat="27.919252674282244" lon="-11.555078592711665"><ele>234.0</ele><time>2026-04-29T12:52:27Z</time></trkpt><trkpt lat="27.91925407670616" lon="-11.55527578111334"><ele>235.33333333333331</ele><time>2026-04-29T12:52:28Z</time></trkpt><trkpt lat="27.91926363780945" lon="-11.555468786732991"><ele>236.66666666666666</ele><time>2026-04-29T12:52:29Z</time></trkpt><trkpt lat="27.919293564023086" lon="-11.555648788329442"><ele>238.0</ele><time>2026-04-29T12:52:30Z</time></trkpt><trkpt lat="27.919361126130894" lon="-11.55584236540532"><ele>238.0</ele><time>2026-04-29T12:52:31Z</time></trkpt><trkpt lat="27.919445447939438" lon="-11.556041972379946"><ele>238.0</ele><time>2026-04-29T12:52:32Z</time></trkpt><trkpt lat="27.91950085359025" lon="-11.556217940858502"><ele>238.0</ele><time>2026-04-29T12:52:33Z</time></trkpt><trkpt lat="27.919523576324167" lon="-11.55641479265409"><ele>238.75</ele><time>2026-04-29T12:52:34Z</time></trkpt><trkpt lat="27.91953232996223" lon="-11.556607671834163"><ele>239.5</ele><time>2026-04-29T12:52:35Z</time></trkpt><trkpt lat="27.919541134291595" lon="-11.556748508261638"><ele>240.25</ele><time>2026-04-29T12:52:36Z</time></trkpt><trkpt lat="27.919551606710268" lon="-11.55686488008102"><ele>241.0</ele><time>2026-04-29T12:52:37Z</time></trkpt><trkpt lat="27.91955920836973" lon="-11.5569452293743"><ele>240.99999999999997</ele><time>2026-04-29T12:52:38Z</time></trkpt><trkpt lat="27.919571495272873" lon="-11.557027595362355"><ele>241.0</ele><time>2026-04-29T12:52:40Z</time></trkpt><trkpt lat="27.919582898666395" lon="-11.557123312145018"><ele>241.0</ele><time>2026-04-29T12:52:43Z</time></trkpt><trkpt lat="27.919626615787912" lon="-11.557044122776583"><ele>241.0</ele><time>2026-04-29T12:55:37Z</time></trkpt><trkpt lat="27.919684092799613" lon="-11.55696997665798"><ele>240.99999999999997</ele><time>2026-04-29T12:55:40Z</time></trkpt><trkpt lat="27.919773669414734" lon="-11.556980584131239"><ele>241.0</ele><time>2026-04-29T12:55:42Z</time></trkpt><trkpt lat="27.919827262044148" lon="-11.557028748290277"><ele>240.8</ele><time>2026-04-29T12:55:43Z</time></trkpt><trkpt lat="27.919884065273827" lon="-11.557082299434114"><ele>240.60000000000002</ele><time>2026-04-29T12:55:44Z</time></trkpt><trkpt lat="27.919947732681315" lon="-11.557136896394146"><ele>240.4</ele><time>2026-04-29T12:55:45Z</time></trkpt><trkpt lat="27.92004067145041" lon="-11.557192256582981"><ele>240.2</ele><time>2026-04-29T12:55:46Z</time></trkpt><trkpt lat="27.92017308811468" lon="-11.557235498002928"><ele>240.0</ele><time>2026-04-29T12:55:47Z</time></trkpt><trkpt lat="27.920313176876867" lon="-11.557268505453672"><ele>240.0</ele><time>2026-04-29T12:55:48Z</time></trkpt><trkpt lat="27.920441729614375" lon="-11.557316577198833"><ele>240.0</ele><time>2026-04-29T12:55:49Z</time></trkpt><trkpt lat="27.920535734404734" lon="-11.557373097590716"><ele>240.0</ele><time>2026-04-29T12:55:50Z</time></trkpt><trkpt lat="27.92060735785826" lon="-11.557429087443733"><ele>240.0</ele><time>2026-04-29T12:55:51Z</time></trkpt><trkpt lat="27.92066767493203" lon="-11.557480177380281"><ele>240.0</ele><time>2026-04-29T12:55:52Z</time></trkpt><trkpt lat="27.920714394066437" lon="-11.557530064493458"><ele>240.0</ele><time>2026-04-29T12:55:53Z</time></trkpt><trkpt lat="27.92078352975348" lon="-11.55761701566729"><ele>240.0</ele><time>2026-04-29T12:55:55Z</time></trkpt><trkpt lat="27.920837537586415" lon="-11.557682378844367"><ele>240.0</ele><time>2026-04-29T12:55:57Z</time></trkpt><trkpt lat="27.92088943420238" lon="-11.557761917378802"><ele>240.0</ele><time>2026-04-29T12:55:59Z</time></trkpt><trkpt lat="27.920955288262693" lon="-11.557843949469333"><ele>240.0</ele><time>2026-04-29T12:58:02Z</time></trkpt><trkpt lat="27.920980403013044" lon="-11.557930863977784"><ele>240.0</ele><time>2026-04-29T12:58:04Z</time></trkpt><trkpt lat="27.920974651492116" lon="-11.558024583902144"><ele>240.6</ele><time>2026-04-29T12:58:06Z</time></trkpt><trkpt lat="27.920907857079047" lon="-11.558096793528076"><ele>241.2</ele><time>2026-04-29T12:58:08Z</time></trkpt><trkpt lat="27.920803515648597" lon="-11.558102139545078"><ele>241.8</ele><time>2026-04-29T12:58:10Z</time></trkpt><trkpt lat="27.92072062876553" lon="-11.558095731788113"><ele>242.4</ele><time>2026-04-29T12:58:11Z</time></trkpt><trkpt lat="27.92062886707483" lon="-11.55809200149829"><ele>243.0</ele><time>2026-04-29T12:58:12Z</time></trkpt><trkpt lat="27.920540384951053" lon="-11.55808167606519"><ele>243.0</ele><time>2026-04-29T12:58:13Z</time></trkpt><trkpt lat="27.920461690623046" lon="-11.558082731034373"><ele>243.0</ele><time>2026-04-29T12:58:14Z</time></trkpt><trkpt lat="27.92039161130289" lon="-11.558092076738047"><ele>243.0</ele><time>2026-04-29T12:58:15Z</time></trkpt><trkpt lat="27.920317662762216" lon="-11.558114841694369"><ele>243.0</ele><time>2026-04-29T12:58:16Z</time></trkpt><trkpt lat="27.920252712298115" lon="-11.558158484396216"><ele>243.0</ele><time>2026-04-29T12:58:17Z</time></trkpt><trkpt lat="27.920185304895003" lon="-11.558245262437335"><ele>243.0</ele><time>2026-04-29T12:58:18Z</time></trkpt><trkpt lat="27.920131842706155" lon="-11.55835898779533"><ele>243.0</ele><time>2026-04-29T12:58:19Z</time></trkpt><trkpt lat="27.92009949608358" lon="-11.558435001017484"><ele>243.0</ele><time>2026-04-29T12:58:20Z</time></trkpt><trkpt lat="27.920055251817463" lon="-11.558495288561103"><ele>243.0</ele><time>2026-04-29T12:58:21Z</time></trkpt><trkpt lat="27.919998372217762" lon="-11.558570587489568"><ele>243.0</ele><time>2026-04-29T12:58:22Z</time></trkpt><trkpt lat="27.919942253933787" lon="-11.558652248096516"><ele>243.0</ele><time>2026-04-29T12:58:23Z</time></trkpt><trkpt lat="27.919874201068335" lon="-11.55875687507646"><ele>243.0</ele><time>2026-04-29T12:58:24Z</time></trkpt><trkpt lat="27.919827664606398" lon="-11.55884935154727"><ele>242.25</ele><time>2026-04-29T12:58:25Z</time></trkpt><trkpt lat="27.919803121800207" lon="-11.558997035208549"><ele>241.5</ele><time>2026-04-29T12:58:27Z</time></trkpt><trkpt lat="27.919822953860574" lon="-11.559115024288175"><ele>240.75</ele><time>2026-04-29T12:58:28Z</time></trkpt><trkpt lat="27.919849082893403" lon="-11.559239160693025"><ele>240.0</ele><time>2026-04-29T12:58:29Z</time></trkpt><trkpt lat="27.919873818641918" lon="-11.559366735526972"><ele>240.0</ele><time>2026-04-29T12:58:30Z</time></trkpt><trkpt lat="27.91988778968263" lon="-11.559506443117343"><ele>240.0</ele><time>2026-04-29T12:58:31Z</time></trkpt><trkpt lat="27.919899577469835" lon="-11.559660542784487"><ele>240.0</ele><time>2026-04-29T12:58:32Z</time></trkpt><trkpt lat="27.9199205344452" lon="-11.559837609418038"><ele>240.0</ele><time>2026-04-29T12:58:33Z</time></trkpt><trkpt lat="27.919947669759544" lon="-11.560024310298463"><ele>241.33333333333331</ele><time>2026-04-29T12:58:34Z</time></trkpt><trkpt lat="27.9199761916386" lon="-11.560209870466174"><ele>242.66666666666666</ele><time>2026-04-29T12:58:35Z</time></trkpt><trkpt lat="27.92000921421481" lon="-11.56039568371335"><ele>244.0</ele><time>2026-04-29T12:58:36Z</time></trkpt><trkpt lat="27.9200497174199" lon="-11.560580545177219"><ele>244.66666666666666</ele><time>2026-04-29T12:58:37Z</time></trkpt><trkpt lat="27.920095660820717" lon="-11.560767147951882"><ele>245.33333333333331</ele><time>2026-04-29T12:58:38Z</time></trkpt><trkpt lat="27.92015175962593" lon="-11.560948326796536"><ele>246.0</ele><time>2026-04-29T12:58:39Z</time></trkpt><trkpt lat="27.920220018310232" lon="-11.56111605415386"><ele>246.0</ele><time>2026-04-29T12:58:40Z</time></trkpt><trkpt lat="27.920275421582858" lon="-11.5612848191915"><ele>246.0</ele><time>2026-04-29T12:58:41Z</time></trkpt><trkpt lat="27.920304177059" lon="-11.561494038298369"><ele>246.0</ele><time>2026-04-29T12:58:42Z</time></trkpt><trkpt lat="27.920331605090013" lon="-11.56172425099377"><ele>246.0</ele><time>2026-04-29T12:58:43Z</time></trkpt><trkpt lat="27.920370796129212" lon="-11.56194740476667"><ele>246.0</ele><time>2026-04-29T12:58:44Z</time></trkpt><trkpt lat="27.92041058912289" lon="-11.562164626437188"><ele>246.0</ele><time>2026-04-29T12:58:45Z</time></trkpt><trkpt lat="27.920444557140247" lon="-11.562373120477453"><ele>247.0</ele><time>2026-04-29T12:58:46Z</time></trkpt><trkpt lat="27.920470243861924" lon="-11.562567932055462"><ele>248.0</ele><time>2026-04-29T12:58:47Z</time></trkpt><trkpt lat="27.920494934503676" lon="-11.562748187492877"><ele>249.0</ele><time>2026-04-29T12:58:48Z</time></trkpt><trkpt lat="27.92053141426128" lon="-11.562912740791909"><ele>249.0</ele><time>2026-04-29T12:58:49Z</time></trkpt><trkpt lat="27.920589967426427" lon="-11.563081368419027"><ele>249.0</ele><time>2026-04-29T12:58:50Z</time></trkpt><trkpt lat="27.92067842871668" lon="-11.563257003766248"><ele>249.0</ele><time>2026-04-29T12:58:51Z</time></trkpt><trkpt lat="27.92077270823311" lon="-11.56341447147022"><ele>249.0</ele><time>2026-04-29T12:58:52Z</time></trkpt><trkpt lat="27.92083977426017" lon="-11.563566716686884"><ele>249.0</ele><time>2026-04-29T12:58:53Z</time></trkpt><trkpt lat="27.92087434434188" lon="-11.563742181098178"><ele>249.0</ele><time>2026-04-29T12:58:54Z</time></trkpt><trkpt lat="27.92089694480129" lon="-11.563945882145655"><ele>250.33333333333331</ele><time>2026-04-29T12:58:55Z</time></trkpt><trkpt lat="27.92092778574423" lon="-11.56412959843309"><ele>251.66666666666666</ele><time>2026-04-29T12:58:56Z</time></trkpt><trkpt lat="27.92098077758074" lon="-11.564291054591017"><ele>253.0</ele><time>2026-04-29T12:58:57Z</time></trkpt><trkpt lat="27.921069178152756" lon="-11.564461040942446"><ele>254.33333333333331</ele><time>2026-04-29T12:58:58Z</time></trkpt><trkpt lat="27.92116593482962" lon="-11.564620615737363"><ele>255.66666666666669</ele><time>2026-04-29T12:58:59Z</time></trkpt><trkpt lat="27.92126166268744" lon="-11.564802150801414"><ele>257.0</ele><time>2026-04-29T12:59:00Z</time></trkpt><trkpt lat="27.92135917052281" lon="-11.564966104271953"><ele>257.0</ele><time>2026-04-29T12:59:01Z</time></trkpt><trkpt lat="27.92145278852068" lon="-11.565098190174899"><ele>257.0</ele><time>2026-04-29T12:59:02Z</time></trkpt><trkpt lat="27.921520315267976" lon="-11.565234879688681"><ele>257.0</ele><time>2026-04-29T12:59:03Z</time></trkpt><trkpt lat="27.92154821636168" lon="-11.56537907736409"><ele>257.0</ele><time>2026-04-29T12:59:04Z</time></trkpt><trkpt lat="27.921553602030805" lon="-11.56554194441806"><ele>257.6</ele><time>2026-04-29T12:59:05Z</time></trkpt><trkpt lat="27.921530128256478" lon="-11.565687509970475"><ele>258.2</ele><time>2026-04-29T12:59:06Z</time></trkpt><trkpt lat="27.921491095765006" lon="-11.565810790354895"><ele>258.8</ele><time>2026-04-29T12:59:07Z</time></trkpt><trkpt lat="27.921460966279604" lon="-11.565913093183372"><ele>259.4</ele><time>2026-04-29T12:59:08Z</time></trkpt><trkpt lat="27.9214620801156" lon="-11.565997434861416"><ele>260.0</ele><time>2026-04-29T12:59:09Z</time></trkpt><trkpt lat="27.921471654690464" lon="-11.566073438790792"><ele>260.0</ele><time>2026-04-29T12:59:10Z</time></trkpt><trkpt lat="27.92147433226188" lon="-11.566158713298968"><ele>260.0</ele><time>2026-04-29T12:59:11Z</time></trkpt><trkpt lat="27.921462947623173" lon="-11.566257941557815"><ele>260.0</ele><time>2026-04-29T12:59:12Z</time></trkpt><trkpt lat="27.92145349172557" lon="-11.566355968567986"><ele>260.0</ele><time>2026-04-29T12:59:13Z</time></trkpt><trkpt lat="27.92146317582221" lon="-11.566446184294277"><ele>260.0</ele><time>2026-04-29T12:59:14Z</time></trkpt><trkpt lat="27.921497953066773" lon="-11.566532531615664"><ele>260.0</ele><time>2026-04-29T12:59:15Z</time></trkpt><trkpt lat="27.921561177730098" lon="-11.566618885349726"><ele>259.5</ele><time>2026-04-29T12:59:16Z</time></trkpt><trkpt lat="27.92165797219404" lon="-11.566709381996734"><ele>259.0</ele><time>2026-04-29T12:59:17Z</time></trkpt><trkpt lat="27.921778270777594" lon="-11.56678781982523"><ele>258.5</ele><time>2026-04-29T12:59:18Z</time></trkpt><trkpt lat="27.92190156452486" lon="-11.566872514514726"><ele>258.0</ele><time>2026-04-29T12:59:19Z</time></trkpt><trkpt lat="27.92201366553656" lon="-11.566957759786863"><ele>256.25</ele><time>2026-04-29T12:59:20Z</time></trkpt><trkpt lat="27.922130067730183" lon="-11.567019790993692"><ele>254.5</ele><time>2026-04-29T12:59:21Z</time></trkpt><trkpt lat="27.922256065187707" lon="-11.56705092719565"><ele>252.75</ele><time>2026-04-29T12:59:22Z</time></trkpt><trkpt lat="27.922398428023524" lon="-11.567070531602175"><ele>251.0</ele><time>2026-04-29T12:59:23Z</time></trkpt><trkpt lat="27.922560765238124" lon="-11.5670783894824"><ele>248.33333333333334</ele><time>2026-04-29T12:59:24Z</time></trkpt><trkpt lat="27.92274516727387" lon="-11.56709880241997"><ele>245.66666666666669</ele><time>2026-04-29T12:59:25Z</time></trkpt><trkpt lat="27.922952442107462" lon="-11.567149521403884"><ele>243.0</ele><time>2026-04-29T12:59:26Z</time></trkpt><trkpt lat="27.923169600692137" lon="-11.56721323608879"><ele>243.0</ele><time>2026-04-29T12:59:27Z</time></trkpt><trkpt lat="27.923376716833907" lon="-11.567292547269759"><ele>243.0</ele><time>2026-04-29T12:59:28Z</time></trkpt><trkpt lat="27.92355920382953" lon="-11.567380787989114"><ele>243.0</ele><time>2026-04-29T12:59:29Z</time></trkpt><trkpt lat="27.92374022221098" lon="-11.567496359923704"><ele>242.5</ele><time>2026-04-29T12:59:30Z</time></trkpt><trkpt lat="27.923939769203955" lon="-11.56764121015843"><ele>242.0</ele><time>2026-04-29T12:59:31Z</time></trkpt><trkpt lat="27.924120400977497" lon="-11.567776706611511"><ele>240.66666666666669</ele><time>2026-04-29T12:59:32Z</time></trkpt><trkpt lat="27.924291187867333" lon="-11.567886830680392"><ele>239.33333333333331</ele><time>2026-04-29T12:59:33Z</time></trkpt><trkpt lat="27.92445491856035" lon="-11.567986355030728"><ele>238.0</ele><time>2026-04-29T12:59:34Z</time></trkpt><trkpt lat="27.924615843412138" lon="-11.568083047741226"><ele>238.0</ele><time>2026-04-29T12:59:35Z</time></trkpt><trkpt lat="27.924802572566882" lon="-11.568188071571932"><ele>238.0</ele><time>2026-04-29T12:59:36Z</time></trkpt><trkpt lat="27.92497227255425" lon="-11.568293845833576"><ele>238.0</ele><time>2026-04-29T12:59:37Z</time></trkpt><trkpt lat="27.925145860126996" lon="-11.568400997846815"><ele>236.66666666666666</ele><time>2026-04-29T12:59:38Z</time></trkpt><trkpt lat="27.9253238431291" lon="-11.56850026131501"><ele>235.33333333333331</ele><time>2026-04-29T12:59:39Z</time></trkpt><trkpt lat="27.92550434466601" lon="-11.56859617899459"><ele>234.0</ele><time>2026-04-29T12:59:40Z</time></trkpt><trkpt lat="27.925683431592635" lon="-11.568685403513777"><ele>233.66666666666669</ele><time>2026-04-29T12:59:41Z</time></trkpt><trkpt lat="27.925848004823727" lon="-11.568771528854235"><ele>233.33333333333334</ele><time>2026-04-29T12:59:42Z</time></trkpt><trkpt lat="27.925994386561953" lon="-11.568871800031788"><ele>233.0</ele><time>2026-04-29T12:59:43Z</time></trkpt><trkpt lat="27.92613400758368" lon="-11.569002246785962"><ele>232.33333333333334</ele><time>2026-04-29T12:59:44Z</time></trkpt><trkpt lat="27.926265810632014" lon="-11.569153711879789"><ele>231.66666666666669</ele><time>2026-04-29T12:59:45Z</time></trkpt><trkpt lat="27.926397874431967" lon="-11.569306288801373"><ele>231.0</ele><time>2026-04-29T12:59:46Z</time></trkpt><trkpt lat="27.926551222879766" lon="-11.569465417110916"><ele>230.33333333333331</ele><time>2026-04-29T12:59:47Z</time></trkpt><trkpt lat="27.92671746710379" lon="-11.569629838029355"><ele>229.66666666666666</ele><time>2026-04-29T12:59:48Z</time></trkpt><trkpt lat="27.926873687459278" lon="-11.569789363639458"><ele>229.0</ele><time>2026-04-29T12:59:49Z</time></trkpt><trkpt lat="27.927008901505804" lon="-11.56993993980236"><ele>227.66666666666666</ele><time>2026-04-29T12:59:50Z</time></trkpt><trkpt lat="27.927138345273672" lon="-11.570082776789029"><ele>226.33333333333331</ele><time>2026-04-29T12:59:51Z</time></trkpt><trkpt lat="27.927267940365464" lon="-11.570218088177498"><ele>225.0</ele><time>2026-04-29T12:59:52Z</time></trkpt><trkpt lat="27.927398303889852" lon="-11.570330840640041"><ele>225.25</ele><time>2026-04-29T12:59:53Z</time></trkpt><trkpt lat="27.927534466817782" lon="-11.570430065562586"><ele>225.5</ele><time>2026-04-29T12:59:54Z</time></trkpt><trkpt lat="27.927659276359616" lon="-11.570512364919985"><ele>225.75</ele><time>2026-04-29T12:59:55Z</time></trkpt><trkpt lat="27.92777273159918" lon="-11.57058773439285"><ele>226.0</ele><time>2026-04-29T12:59:56Z</time></trkpt><trkpt lat="27.92786813866079" lon="-11.570665736753766"><ele>225.4</ele><time>2026-04-29T12:59:57Z</time></trkpt><trkpt lat="27.92794765888328" lon="-11.570736178437427"><ele>224.8</ele><time>2026-04-29T12:59:58Z</time></trkpt><trkpt lat="27.9280124259229" lon="-11.570798654944658"><ele>224.20000000000002</ele><time>2026-04-29T12:59:59Z</time></trkpt><trkpt lat="27.928065005971526" lon="-11.57086527499786"><ele>223.60000000000002</ele><time>2026-04-29T13:00:00Z</time></trkpt><trkpt lat="27.928094914601903" lon="-11.570933168990969"><ele>223.0</ele><time>2026-04-29T13:00:01Z</time></trkpt><trkpt lat="27.92808756756546" lon="-11.571092073948689"><ele>222.60000000000002</ele><time>2026-04-29T13:00:03Z</time></trkpt><trkpt lat="27.928044910707907" lon="-11.571197319851"><ele>222.20000000000002</ele><time>2026-04-29T13:00:04Z</time></trkpt><trkpt lat="27.927983847543146" lon="-11.571262568219868"><ele>221.8</ele><time>2026-04-29T13:00:05Z</time></trkpt><trkpt lat="27.927911064217213" lon="-11.571319186808353"><ele>221.4</ele><time>2026-04-29T13:00:06Z</time></trkpt><trkpt lat="27.927823150007722" lon="-11.571405693385033"><ele>221.0</ele><time>2026-04-29T13:00:07Z</time></trkpt><trkpt lat="27.927737683256183" lon="-11.571503269361505"><ele>221.0</ele><time>2026-04-29T13:00:08Z</time></trkpt><trkpt lat="27.927672085911194" lon="-11.571580466807642"><ele>221.00000000000003</ele><time>2026-04-29T13:00:09Z</time></trkpt><trkpt lat="27.92759570091338" lon="-11.571650497290642"><ele>221.00000000000003</ele><time>2026-04-29T13:00:10Z</time></trkpt><trkpt lat="27.927526764771653" lon="-11.5717138289042"><ele>221.0</ele><time>2026-04-29T13:00:11Z</time></trkpt><trkpt lat="27.927470650960377" lon="-11.571798322787464"><ele>221.0</ele><time>2026-04-29T13:00:12Z</time></trkpt><trkpt lat="27.927406086285014" lon="-11.571905719374612"><ele>221.60000000000002</ele><time>2026-04-29T13:00:13Z</time></trkpt><trkpt lat="27.92734318305039" lon="-11.572007233071867"><ele>222.20000000000002</ele><time>2026-04-29T13:00:14Z</time></trkpt><trkpt lat="27.92727343624899" lon="-11.572119822661225"><ele>222.79999999999998</ele><time>2026-04-29T13:00:15Z</time></trkpt><trkpt lat="27.927222805100698" lon="-11.572235893399652"><ele>223.39999999999998</ele><time>2026-04-29T13:00:16Z</time></trkpt><trkpt lat="27.9271926004186" lon="-11.572343409433687"><ele>224.0</ele><time>2026-04-29T13:00:17Z</time></trkpt><trkpt lat="27.927185938622454" lon="-11.5724601563973"><ele>224.0</ele><time>2026-04-29T13:00:18Z</time></trkpt><trkpt lat="27.927206510134635" lon="-11.572601654982256"><ele>224.0</ele><time>2026-04-29T13:00:19Z</time></trkpt><trkpt lat="27.927252696577792" lon="-11.572783013274595"><ele>224.0</ele><time>2026-04-29T13:00:20Z</time></trkpt><trkpt lat="27.92731054410046" lon="-11.572987643762172"><ele>224.0</ele><time>2026-04-29T13:00:21Z</time></trkpt><trkpt lat="27.92735553691236" lon="-11.573187376580522"><ele>224.0</ele><time>2026-04-29T13:00:22Z</time></trkpt><trkpt lat="27.92738662059642" lon="-11.573376982216896"><ele>224.0</ele><time>2026-04-29T13:00:23Z</time></trkpt><trkpt lat="27.927408234038616" lon="-11.57357242957248"><ele>224.66666666666669</ele><time>2026-04-29T13:00:24Z</time></trkpt><trkpt lat="27.927423478961064" lon="-11.573743509956149"><ele>225.33333333333331</ele><time>2026-04-29T13:00:25Z</time></trkpt><trkpt lat="27.927417220025422" lon="-11.573904453569545"><ele>226.0</ele><time>2026-04-29T13:00:26Z</time></trkpt><trkpt lat="27.927399868204542" lon="-11.574096743478421"><ele>226.0</ele><time>2026-04-29T13:00:27Z</time></trkpt><trkpt lat="27.927388654948977" lon="-11.57429682791629"><ele>226.0</ele><time>2026-04-29T13:00:28Z</time></trkpt><trkpt lat="27.927380949936325" lon="-11.574484216758119"><ele>226.0</ele><time>2026-04-29T13:00:29Z</time></trkpt><trkpt lat="27.9273913986053" lon="-11.574665877299076"><ele>225.66666666666666</ele><time>2026-04-29T13:00:30Z</time></trkpt><trkpt lat="27.927418193092382" lon="-11.574836297529052"><ele>225.33333333333331</ele><time>2026-04-29T13:00:31Z</time></trkpt><trkpt lat="27.927450741764982" lon="-11.575012196246705"><ele>225.0</ele><time>2026-04-29T13:00:32Z</time></trkpt><trkpt lat="27.92748357221911" lon="-11.575196498324512"><ele>225.0</ele><time>2026-04-29T13:00:33Z</time></trkpt><trkpt lat="27.927492159287016" lon="-11.57537858044932"><ele>225.0</ele><time>2026-04-29T13:00:34Z</time></trkpt><trkpt lat="27.927497737020385" lon="-11.575569557304446"><ele>225.0</ele><time>2026-04-29T13:00:35Z</time></trkpt><trkpt lat="27.927515637327645" lon="-11.575746327325975"><ele>225.0</ele><time>2026-04-29T13:00:36Z</time></trkpt><trkpt lat="27.927554486554563" lon="-11.575927299941181"><ele>225.0</ele><time>2026-04-29T13:00:37Z</time></trkpt><trkpt lat="27.927606690309123" lon="-11.5761204691506"><ele>225.0</ele><time>2026-04-29T13:00:38Z</time></trkpt><trkpt lat="27.927638349894238" lon="-11.576281280698243"><ele>225.25</ele><time>2026-04-29T13:00:39Z</time></trkpt><trkpt lat="27.927640905542596" lon="-11.576430389755531"><ele>225.5</ele><time>2026-04-29T13:00:40Z</time></trkpt><trkpt lat="27.927612216358128" lon="-11.576573781625134"><ele>225.75</ele><time>2026-04-29T13:00:41Z</time></trkpt><trkpt lat="27.927559669297576" lon="-11.57674047270335"><ele>226.0</ele><time>2026-04-29T13:00:42Z</time></trkpt><trkpt lat="27.92750076901959" lon="-11.576930556340285"><ele>227.0</ele><time>2026-04-29T13:00:43Z</time></trkpt><trkpt lat="27.92746432405042" lon="-11.577121410904525"><ele>228.0</ele><time>2026-04-29T13:00:44Z</time></trkpt><trkpt lat="27.927440653301762" lon="-11.577320222427044"><ele>229.0</ele><time>2026-04-29T13:00:45Z</time></trkpt><trkpt lat="27.927431220309906" lon="-11.577511586487383"><ele>229.0</ele><time>2026-04-29T13:00:46Z</time></trkpt><trkpt lat="27.927448157285497" lon="-11.577716057425773"><ele>229.0</ele><time>2026-04-29T13:00:47Z</time></trkpt><trkpt lat="27.92746547942289" lon="-11.577942812625377"><ele>229.0</ele><time>2026-04-29T13:00:48Z</time></trkpt><trkpt lat="27.927469775542004" lon="-11.578139114105305"><ele>228.5</ele><time>2026-04-29T13:00:49Z</time></trkpt><trkpt lat="27.927461447742655" lon="-11.5783120076934"><ele>228.0</ele><time>2026-04-29T13:00:50Z</time></trkpt><trkpt lat="27.927465960416377" lon="-11.578475709249835"><ele>227.5</ele><time>2026-04-29T13:00:51Z</time></trkpt><trkpt lat="27.927486822607133" lon="-11.578601638028967"><ele>227.0</ele><time>2026-04-29T13:00:52Z</time></trkpt><trkpt lat="27.927496184668637" lon="-11.578688394728744"><ele>226.8</ele><time>2026-04-29T13:00:53Z</time></trkpt><trkpt lat="27.927451480065006" lon="-11.57880537678451"><ele>226.6</ele><time>2026-04-29T13:00:55Z</time></trkpt><trkpt lat="27.92738808254471" lon="-11.578876593692195"><ele>226.40000000000003</ele><time>2026-04-29T13:00:56Z</time></trkpt><trkpt lat="27.927291553252854" lon="-11.578955567382062"><ele>226.20000000000002</ele><time>2026-04-29T13:00:57Z</time></trkpt><trkpt lat="27.92718311208302" lon="-11.579010073222456"><ele>226.0</ele><time>2026-04-29T13:00:58Z</time></trkpt><trkpt lat="27.92705957536299" lon="-11.579057404738034"><ele>226.0</ele><time>2026-04-29T13:00:59Z</time></trkpt><trkpt lat="27.926933815812834" lon="-11.579092598612096"><ele>226.0</ele><time>2026-04-29T13:01:00Z</time></trkpt><trkpt lat="27.926792378976206" lon="-11.579124498726717"><ele>226.0</ele><time>2026-04-29T13:01:01Z</time></trkpt><trkpt lat="27.926633500327625" lon="-11.579146221395778"><ele>226.0</ele><time>2026-04-29T13:01:02Z</time></trkpt><trkpt lat="27.92645481459505" lon="-11.57918089652525"><ele>227.0</ele><time>2026-04-29T13:01:03Z</time></trkpt><trkpt lat="27.92627298857099" lon="-11.579231459647655"><ele>228.0</ele><time>2026-04-29T13:01:04Z</time></trkpt><trkpt lat="27.926090076805796" lon="-11.579296043962882"><ele>229.0</ele><time>2026-04-29T13:01:05Z</time></trkpt><trkpt lat="27.925901526226507" lon="-11.579364420854825"><ele>230.5</ele><time>2026-04-29T13:01:06Z</time></trkpt><trkpt lat="27.925693411477777" lon="-11.579421174383338"><ele>232.0</ele><time>2026-04-29T13:01:07Z</time></trkpt><trkpt lat="27.925455156233433" lon="-11.579461652990949"><ele>232.0</ele><time>2026-04-29T13:01:08Z</time></trkpt><trkpt lat="27.92521895391504" lon="-11.579485960157674"><ele>232.0</ele><time>2026-04-29T13:01:09Z</time></trkpt><trkpt lat="27.92501511778877" lon="-11.579498990736168"><ele>232.0</ele><time>2026-04-29T13:01:10Z</time></trkpt><trkpt lat="27.92484399323423" lon="-11.579505926148807"><ele>232.66666666666666</ele><time>2026-04-29T13:01:11Z</time></trkpt><trkpt lat="27.924675391616766" lon="-11.579525433581177"><ele>233.33333333333331</ele><time>2026-04-29T13:01:12Z</time></trkpt><trkpt lat="27.924514844982298" lon="-11.579561293564028"><ele>234.0</ele><time>2026-04-29T13:01:13Z</time></trkpt><trkpt lat="27.924364564317735" lon="-11.579611763951673"><ele>233.75</ele><time>2026-04-29T13:01:14Z</time></trkpt><trkpt lat="27.924226963760294" lon="-11.579668161884308"><ele>233.5</ele><time>2026-04-29T13:01:15Z</time></trkpt><trkpt lat="27.92409798171064" lon="-11.579734957096054"><ele>233.25</ele><time>2026-04-29T13:01:16Z</time></trkpt><trkpt lat="27.923965287466064" lon="-11.579815469279982"><ele>233.0</ele><time>2026-04-29T13:01:17Z</time></trkpt><trkpt lat="27.923851365482086" lon="-11.579898134812066"><ele>233.0</ele><time>2026-04-29T13:01:18Z</time></trkpt><trkpt lat="27.923747256871703" lon="-11.57999770945828"><ele>233.0</ele><time>2026-04-29T13:01:19Z</time></trkpt><trkpt lat="27.923639954281892" lon="-11.580135445188336"><ele>233.0</ele><time>2026-04-29T13:01:20Z</time></trkpt><trkpt lat="27.923514381544486" lon="-11.580301513166047"><ele>233.33333333333334</ele><time>2026-04-29T13:01:21Z</time></trkpt><trkpt lat="27.923381645216885" lon="-11.580452872139624"><ele>233.66666666666669</ele><time>2026-04-29T13:01:22Z</time></trkpt><trkpt lat="27.923274400776165" lon="-11.58057120036046"><ele>234.0</ele><time>2026-04-29T13:01:23Z</time></trkpt><trkpt lat="27.923157257690693" lon="-11.580698758794835"><ele>234.0</ele><time>2026-04-29T13:01:24Z</time></trkpt><trkpt lat="27.923051733603273" lon="-11.58081683015529"><ele>234.0</ele><time>2026-04-29T13:01:25Z</time></trkpt><trkpt lat="27.922956881845934" lon="-11.580940082237296"><ele>234.0</ele><time>2026-04-29T13:01:26Z</time></trkpt><trkpt lat="27.92288525604815" lon="-11.581072416888812"><ele>234.0</ele><time>2026-04-29T13:01:27Z</time></trkpt><trkpt lat="27.922818805286877" lon="-11.581238614179835"><ele>232.66666666666669</ele><time>2026-04-29T13:01:28Z</time></trkpt><trkpt lat="27.922718955444065" lon="-11.58141155269162"><ele>231.33333333333334</ele><time>2026-04-29T13:01:29Z</time></trkpt><trkpt lat="27.92259572608654" lon="-11.58157051736028"><ele>230.0</ele><time>2026-04-29T13:01:30Z</time></trkpt><trkpt lat="27.9224689785923" lon="-11.581712509572727"><ele>230.0</ele><time>2026-04-29T13:01:31Z</time></trkpt><trkpt lat="27.922335620337233" lon="-11.581864513076559"><ele>230.0</ele><time>2026-04-29T13:01:32Z</time></trkpt><trkpt lat="27.92224956349085" lon="-11.581981318096071"><ele>230.0</ele><time>2026-04-29T13:01:33Z</time></trkpt><trkpt lat="27.922186561325987" lon="-11.582102312964004"><ele>230.0</ele><time>2026-04-29T13:01:34Z</time></trkpt><trkpt lat="27.92213110219814" lon="-11.582260833042064"><ele>230.0</ele><time>2026-04-29T13:01:35Z</time></trkpt><trkpt lat="27.922079546229835" lon="-11.582434284146082"><ele>230.0</ele><time>2026-04-29T13:01:36Z</time></trkpt><trkpt lat="27.922046231335464" lon="-11.582571291118496"><ele>230.0</ele><time>2026-04-29T13:01:37Z</time></trkpt><trkpt lat="27.922011622285417" lon="-11.58267557500659"><ele>230.0</ele><time>2026-04-29T13:01:38Z</time></trkpt><trkpt lat="27.921948900619398" lon="-11.582755827097838"><ele>230.0</ele><time>2026-04-29T13:01:39Z</time></trkpt><trkpt lat="27.92185114266079" lon="-11.582831619382215"><ele>230.0</ele><time>2026-04-29T13:01:40Z</time></trkpt><trkpt lat="27.92173338488681" lon="-11.58288847837065"><ele>230.0</ele><time>2026-04-29T13:01:41Z</time></trkpt><trkpt lat="27.921598994217348" lon="-11.582940358561528"><ele>230.0</ele><time>2026-04-29T13:01:42Z</time></trkpt><trkpt lat="27.921444554209963" lon="-11.583009219438003"><ele>230.33333333333334</ele><time>2026-04-29T13:01:43Z</time></trkpt><trkpt lat="27.921310177825482" lon="-11.583107513976941"><ele>230.66666666666669</ele><time>2026-04-29T13:01:44Z</time></trkpt><trkpt lat="27.92115859253759" lon="-11.583231581696635"><ele>231.0</ele><time>2026-04-29T13:01:45Z</time></trkpt><trkpt lat="27.920994655061925" lon="-11.583331491391922"><ele>231.5</ele><time>2026-04-29T13:01:46Z</time></trkpt><trkpt lat="27.92080942049036" lon="-11.583416180004159"><ele>232.0</ele><time>2026-04-29T13:01:47Z</time></trkpt><trkpt lat="27.920572335155676" lon="-11.583516849416924"><ele>232.0</ele><time>2026-04-29T13:01:48Z</time></trkpt><trkpt lat="27.920330492917387" lon="-11.58360766578602"><ele>232.0</ele><time>2026-04-29T13:01:49Z</time></trkpt><trkpt lat="27.920113922120315" lon="-11.583686080082327"><ele>232.66666666666666</ele><time>2026-04-29T13:01:50Z</time></trkpt><trkpt lat="27.919916376187736" lon="-11.583753329828214"><ele>233.33333333333331</ele><time>2026-04-29T13:01:51Z</time></trkpt><trkpt lat="27.91973678875239" lon="-11.583808228970726"><ele>234.0</ele><time>2026-04-29T13:01:52Z</time></trkpt><trkpt lat="27.919578020899664" lon="-11.583855446239722"><ele>234.0</ele><time>2026-04-29T13:01:53Z</time></trkpt><trkpt lat="27.919431889431" lon="-11.583894324445412"><ele>233.99999999999997</ele><time>2026-04-29T13:01:54Z</time></trkpt><trkpt lat="27.91931765251148" lon="-11.583921826277601"><ele>233.99999999999997</ele><time>2026-04-29T13:01:55Z</time></trkpt><trkpt lat="27.919232770964523" lon="-11.583935927651503"><ele>234.0</ele><time>2026-04-29T13:01:56Z</time></trkpt><trkpt lat="27.919138865082505" lon="-11.583952680951697"><ele>234.0</ele><time>2026-04-29T13:01:58Z</time></trkpt><trkpt lat="27.91908464665132" lon="-11.583991620328032"><ele>234.83333333333334</ele><time>2026-04-29T13:02:01Z</time></trkpt><trkpt lat="27.91900987271006" lon="-11.584007196907434"><ele>235.66666666666669</ele><time>2026-04-29T13:02:05Z</time></trkpt><trkpt lat="27.918975170429373" lon="-11.58394374164813"><ele>236.5</ele><time>2026-04-29T13:02:08Z</time></trkpt><trkpt lat="27.91902533510046" lon="-11.583886736789605"><ele>237.33333333333334</ele><time>2026-04-29T13:02:10Z</time></trkpt><trkpt lat="27.91912068529455" lon="-11.583885481552592"><ele>238.16666666666669</ele><time>2026-04-29T13:02:12Z</time></trkpt><trkpt lat="27.91915779218962" lon="-11.583957471045865"><ele>239.0</ele><time>2026-04-29T13:02:15Z</time></trkpt><trkpt lat="27.91909964326107" lon="-11.584031958559134"><ele>239.00000000000003</ele><time>2026-04-29T13:02:18Z</time></trkpt><trkpt lat="27.919050443168437" lon="-11.583986288702123"><ele>239.0</ele><time>2026-04-29T13:02:22Z</time></trkpt><trkpt lat="27.91896633796729" lon="-11.583968704108"><ele>239.0</ele><time>2026-04-29T13:04:49Z</time></trkpt><trkpt lat="27.918926504839977" lon="-11.58402739787268"><ele>239.0</ele><time>2026-04-29T13:04:51Z</time></trkpt><trkpt lat="27.918851484902596" lon="-11.584110995788246"><ele>239.00000000000003</ele><time>2026-04-29T13:04:53Z</time></trkpt><trkpt lat="27.918783632718547" lon="-11.584141962869083"><ele>239.0</ele><time>2026-04-29T13:04:54Z</time></trkpt><trkpt lat="27.91870338371465" lon="-11.584177539145033"><ele>239.0</ele><time>2026-04-29T13:04:55Z</time></trkpt><trkpt lat="27.91860946337232" lon="-11.58421897025383"><ele>239.0</ele><time>2026-04-29T13:04:56Z</time></trkpt><trkpt lat="27.918508851631405" lon="-11.58427580911112"><ele>239.0</ele><time>2026-04-29T13:04:57Z</time></trkpt><trkpt lat="27.918408605927503" lon="-11.584345498958152"><ele>239.0</ele><time>2026-04-29T13:04:58Z</time></trkpt><trkpt lat="27.918301301795115" lon="-11.584421248532763"><ele>238.75</ele><time>2026-04-29T13:04:59Z</time></trkpt><trkpt lat="27.918176554032335" lon="-11.584485465040215"><ele>238.5</ele><time>2026-04-29T13:05:00Z</time></trkpt><trkpt lat="27.918050905920733" lon="-11.584548497280672"><ele>238.25</ele><time>2026-04-29T13:05:01Z</time></trkpt><trkpt lat="27.917928490047363" lon="-11.584617882942917"><ele>238.0</ele><time>2026-04-29T13:05:02Z</time></trkpt><trkpt lat="27.917811201378154" lon="-11.584698019079212"><ele>237.33333333333331</ele><time>2026-04-29T13:05:03Z</time></trkpt><trkpt lat="27.917681099936857" lon="-11.58477853233808"><ele>236.66666666666669</ele><time>2026-04-29T13:05:04Z</time></trkpt><trkpt lat="27.917542115264318" lon="-11.584866157613304"><ele>236.0</ele><time>2026-04-29T13:05:05Z</time></trkpt><trkpt lat="27.917409911432564" lon="-11.58495579737698"><ele>238.0</ele><time>2026-04-29T13:05:06Z</time></trkpt><trkpt lat="27.917275828518708" lon="-11.585030948570223"><ele>240.0</ele><time>2026-04-29T13:05:07Z</time></trkpt><trkpt lat="27.91712883773538" lon="-11.585112151355322"><ele>242.0</ele><time>2026-04-29T13:05:08Z</time></trkpt><trkpt lat="27.916967850170565" lon="-11.585201135185015"><ele>242.0</ele><time>2026-04-29T13:05:09Z</time></trkpt><trkpt lat="27.916808000812427" lon="-11.585299539209096"><ele>242.0</ele><time>2026-04-29T13:05:10Z</time></trkpt><trkpt lat="27.91665813071932" lon="-11.58540359515531"><ele>242.0</ele><time>2026-04-29T13:05:11Z</time></trkpt><trkpt lat="27.916519156980826" lon="-11.585516301559595"><ele>243.0</ele><time>2026-04-29T13:05:12Z</time></trkpt><trkpt lat="27.916396948621777" lon="-11.585642756534941"><ele>244.0</ele><time>2026-04-29T13:05:13Z</time></trkpt><trkpt lat="27.916301554279748" lon="-11.585738865380065"><ele>245.0</ele><time>2026-04-29T13:05:14Z</time></trkpt><trkpt lat="27.916189434052907" lon="-11.585813750181437"><ele>246.0</ele><time>2026-04-29T13:05:15Z</time></trkpt><trkpt lat="27.916056738159025" lon="-11.585892502190548"><ele>246.0</ele><time>2026-04-29T13:05:16Z</time></trkpt><trkpt lat="27.91593328933263" lon="-11.585966202788327"><ele>246.0</ele><time>2026-04-29T13:05:17Z</time></trkpt><trkpt lat="27.915807733667595" lon="-11.586035071737452"><ele>246.0</ele><time>2026-04-29T13:05:18Z</time></trkpt><trkpt lat="27.91567373660285" lon="-11.586100747667562"><ele>246.0</ele><time>2026-04-29T13:05:19Z</time></trkpt><trkpt lat="27.915543316832512" lon="-11.586178674386055"><ele>247.60000000000002</ele><time>2026-04-29T13:05:20Z</time></trkpt><trkpt lat="27.915416388934442" lon="-11.586247435448383"><ele>249.20000000000002</ele><time>2026-04-29T13:05:21Z</time></trkpt><trkpt lat="27.91529743143644" lon="-11.586304601379402"><ele>250.79999999999998</ele><time>2026-04-29T13:05:22Z</time></trkpt><trkpt lat="27.91520263254577" lon="-11.586346491791923"><ele>252.39999999999998</ele><time>2026-04-29T13:05:23Z</time></trkpt><trkpt lat="27.915137081578525" lon="-11.586378575361236"><ele>254.0</ele><time>2026-04-29T13:05:24Z</time></trkpt><trkpt lat="27.91503478320112" lon="-11.58641282918239"><ele>255.00000000000003</ele><time>2026-04-29T13:05:26Z</time></trkpt><trkpt lat="27.914906386388044" lon="-11.586445193180166"><ele>256.0</ele><time>2026-04-29T13:05:28Z</time></trkpt><trkpt lat="27.914845857966597" lon="-11.586469920851883"><ele>257.0</ele><time>2026-04-29T13:05:31Z</time></trkpt><trkpt lat="27.914786934022022" lon="-11.586498936262368"><ele>258.0</ele><time>2026-04-29T13:05:38Z</time></trkpt><trkpt lat="27.91471567111224" lon="-11.586514651096945"><ele>259.0</ele><time>2026-04-29T13:05:40Z</time></trkpt><trkpt lat="27.914631382857582" lon="-11.58650466421879"><ele>260.0</ele><time>2026-04-29T13:05:42Z</time></trkpt><trkpt lat="27.914553619853255" lon="-11.586511264017574"><ele>260.0</ele><time>2026-04-29T13:05:44Z</time></trkpt><trkpt lat="27.91448294181132" lon="-11.586581777794656"><ele>260.0</ele><time>2026-04-29T13:05:46Z</time></trkpt><trkpt lat="27.9144495148419" lon="-11.586661177619746"><ele>260.0</ele><time>2026-04-29T13:05:47Z</time></trkpt><trkpt lat="27.9144208479804" lon="-11.58677968882303"><ele>260.0</ele><time>2026-04-29T13:05:48Z</time></trkpt><trkpt lat="27.914395932008176" lon="-11.586929986436653"><ele>260.0</ele><time>2026-04-29T13:05:49Z</time></trkpt><trkpt lat="27.91437470172975" lon="-11.587070092877992"><ele>261.4</ele><time>2026-04-29T13:05:50Z</time></trkpt><trkpt lat="27.914351519025185" lon="-11.5872015082635"><ele>262.8</ele><time>2026-04-29T13:05:51Z</time></trkpt><trkpt lat="27.914333243507397" lon="-11.587309298798267"><ele>264.2</ele><time>2026-04-29T13:05:52Z</time></trkpt><trkpt lat="27.914311917993977" lon="-11.587383541439104"><ele>265.6</ele><time>2026-04-29T13:05:53Z</time></trkpt><trkpt lat="27.91426874408469" lon="-11.587462399439742"><ele>267.0</ele><time>2026-04-29T13:05:54Z</time></trkpt><trkpt lat="27.914212857687613" lon="-11.587541144980298"><ele>267.4</ele><time>2026-04-29T13:05:55Z</time></trkpt><trkpt lat="27.914169856948064" lon="-11.587593245303479"><ele>267.79999999999995</ele><time>2026-04-29T13:05:56Z</time></trkpt><trkpt lat="27.914073284749552" lon="-11.587670490285438"><ele>268.2</ele><time>2026-04-29T13:05:58Z</time></trkpt><trkpt lat="27.91400370707301" lon="-11.587737114481472"><ele>268.59999999999997</ele><time>2026-04-29T13:05:59Z</time></trkpt><trkpt lat="27.91392291116795" lon="-11.587818282622049"><ele>269.0</ele><time>2026-04-29T13:06:00Z</time></trkpt><trkpt lat="27.913832992327073" lon="-11.587925519710073"><ele>269.0</ele><time>2026-04-29T13:06:01Z</time></trkpt><trkpt lat="27.913751233947163" lon="-11.5880367133541"><ele>269.0</ele><time>2026-04-29T13:06:02Z</time></trkpt><trkpt lat="27.913669379707866" lon="-11.588174916653012"><ele>269.0</ele><time>2026-04-29T13:06:03Z</time></trkpt><trkpt lat="27.913580785256254" lon="-11.58833487004187"><ele>269.0</ele><time>2026-04-29T13:06:04Z</time></trkpt><trkpt lat="27.91349065370966" lon="-11.588489444305063"><ele>270.33333333333337</ele><time>2026-04-29T13:06:05Z</time></trkpt><trkpt lat="27.913394792768823" lon="-11.588648544441224"><ele>271.6666666666667</ele><time>2026-04-29T13:06:06Z</time></trkpt><trkpt lat="27.913292938315113" lon="-11.588811095494014"><ele>273.0</ele><time>2026-04-29T13:06:07Z</time></trkpt><trkpt lat="27.913184428185534" lon="-11.588989654996208"><ele>273.3333333333333</ele><time>2026-04-29T13:06:08Z</time></trkpt><trkpt lat="27.91308069585145" lon="-11.58916850960092"><ele>273.66666666666663</ele><time>2026-04-29T13:06:09Z</time></trkpt><trkpt lat="27.912978678875355" lon="-11.5893457109511"><ele>274.0</ele><time>2026-04-29T13:06:10Z</time></trkpt><trkpt lat="27.91286727068976" lon="-11.589529097033564"><ele>274.0</ele><time>2026-04-29T13:06:11Z</time></trkpt><trkpt lat="27.912758598395573" lon="-11.589712345496556"><ele>274.0</ele><time>2026-04-29T13:06:12Z</time></trkpt><trkpt lat="27.912646313208523" lon="-11.589900484494452"><ele>274.0</ele><time>2026-04-29T13:06:13Z</time></trkpt><trkpt lat="27.912535334997692" lon="-11.590084593574144"><ele>274.66666666666663</ele><time>2026-04-29T13:06:14Z</time></trkpt><trkpt lat="27.912433260927155" lon="-11.590260941027696"><ele>275.3333333333333</ele><time>2026-04-29T13:06:15Z</time></trkpt><trkpt lat="27.912349723265546" lon="-11.590411026422675"><ele>276.0</ele><time>2026-04-29T13:06:16Z</time></trkpt><trkpt lat="27.912266108763465" lon="-11.5905671087489"><ele>276.0</ele><time>2026-04-29T13:06:17Z</time></trkpt><trkpt lat="27.91217433447127" lon="-11.590731352594183"><ele>276.0</ele><time>2026-04-29T13:06:18Z</time></trkpt><trkpt lat="27.912076081482645" lon="-11.59089985271168"><ele>276.0</ele><time>2026-04-29T13:06:19Z</time></trkpt><trkpt lat="27.911975131490994" lon="-11.591079004237855"><ele>276.0</ele><time>2026-04-29T13:06:20Z</time></trkpt><trkpt lat="27.911877795777368" lon="-11.591260711528637"><ele>276.0</ele><time>2026-04-29T13:06:21Z</time></trkpt><trkpt lat="27.91177800058815" lon="-11.591442061317707"><ele>276.0</ele><time>2026-04-29T13:06:22Z</time></trkpt><trkpt lat="27.911677971808345" lon="-11.591614704223861"><ele>276.6666666666667</ele><time>2026-04-29T13:06:23Z</time></trkpt><trkpt lat="27.911581926281364" lon="-11.591791610850276"><ele>277.33333333333337</ele><time>2026-04-29T13:06:24Z</time></trkpt><trkpt lat="27.911486370961224" lon="-11.59197185669427"><ele>278.0</ele><time>2026-04-29T13:06:25Z</time></trkpt><trkpt lat="27.91139328242137" lon="-11.59215700080343"><ele>278.0</ele><time>2026-04-29T13:06:26Z</time></trkpt><trkpt lat="27.911306912847266" lon="-11.592350994620114"><ele>278.0</ele><time>2026-04-29T13:06:27Z</time></trkpt><trkpt lat="27.911221108710492" lon="-11.592546683134925"><ele>278.0</ele><time>2026-04-29T13:06:28Z</time></trkpt><trkpt lat="27.91113595360536" lon="-11.592743676439676"><ele>278.33333333333337</ele><time>2026-04-29T13:06:29Z</time></trkpt><trkpt lat="27.91105154838146" lon="-11.592940264062012"><ele>278.6666666666667</ele><time>2026-04-29T13:06:30Z</time></trkpt><trkpt lat="27.91097242353951" lon="-11.593139670253468"><ele>279.0</ele><time>2026-04-29T13:06:31Z</time></trkpt><trkpt lat="27.910901555285914" lon="-11.593341352387949"><ele>279.6666666666667</ele><time>2026-04-29T13:06:32Z</time></trkpt><trkpt lat="27.910838125409715" lon="-11.593546460698585"><ele>280.33333333333337</ele><time>2026-04-29T13:06:33Z</time></trkpt><trkpt lat="27.910785803142154" lon="-11.593760441619011"><ele>281.0</ele><time>2026-04-29T13:06:34Z</time></trkpt><trkpt lat="27.910735479407688" lon="-11.593970411641896"><ele>281.0</ele><time>2026-04-29T13:06:35Z</time></trkpt><trkpt lat="27.910683032544732" lon="-11.59418328793278"><ele>281.0</ele><time>2026-04-29T13:06:36Z</time></trkpt><trkpt lat="27.91063667149362" lon="-11.594358823215373"><ele>281.0</ele><time>2026-04-29T13:06:37Z</time></trkpt><trkpt lat="27.910592019343767" lon="-11.5944910981092"><ele>280.8</ele><time>2026-04-29T13:06:38Z</time></trkpt><trkpt lat="27.910557692375782" lon="-11.59459892272904"><ele>280.6</ele><time>2026-04-29T13:06:39Z</time></trkpt><trkpt lat="27.910525966517877" lon="-11.594701024511318"><ele>280.4</ele><time>2026-04-29T13:06:40Z</time></trkpt><trkpt lat="27.91047299764148" lon="-11.594816551193947"><ele>280.2</ele><time>2026-04-29T13:06:41Z</time></trkpt><trkpt lat="27.91044932068327" lon="-11.594888489317064"><ele>280.0</ele><time>2026-04-29T13:06:42Z</time></trkpt><trkpt lat="27.910395880922678" lon="-11.595007955328246"><ele>280.0</ele><time>2026-04-29T13:06:43Z</time></trkpt><trkpt lat="27.910328978132497" lon="-11.59515321450499"><ele>280.0</ele><time>2026-04-29T13:06:44Z</time></trkpt><trkpt lat="27.910245305530907" lon="-11.595301270244082"><ele>280.0</ele><time>2026-04-29T13:06:45Z</time></trkpt><trkpt lat="27.910146671081403" lon="-11.595444282302601"><ele>280.66666666666663</ele><time>2026-04-29T13:06:46Z</time></trkpt><trkpt lat="27.91002641601569" lon="-11.595601857819348"><ele>281.3333333333333</ele><time>2026-04-29T13:06:47Z</time></trkpt><trkpt lat="27.909891365154053" lon="-11.595763880406723"><ele>282.0</ele><time>2026-04-29T13:06:48Z</time></trkpt><trkpt lat="27.909755158112027" lon="-11.59592479067467"><ele>282.0</ele><time>2026-04-29T13:06:49Z</time></trkpt><trkpt lat="27.909610916177837" lon="-11.596094164049303"><ele>282.0</ele><time>2026-04-29T13:06:50Z</time></trkpt><trkpt lat="27.909462953359473" lon="-11.596268020456604"><ele>282.0</ele><time>2026-04-29T13:06:51Z</time></trkpt><trkpt lat="27.909304695884313" lon="-11.596452429860655"><ele>282.6666666666667</ele><time>2026-04-29T13:06:52Z</time></trkpt><trkpt lat="27.90914791382653" lon="-11.596633737577411"><ele>283.33333333333337</ele><time>2026-04-29T13:06:53Z</time></trkpt><trkpt lat="27.909006823225194" lon="-11.596792760752965"><ele>284.0</ele><time>2026-04-29T13:06:54Z</time></trkpt><trkpt lat="27.908862447679" lon="-11.596957367303698"><ele>283.6666666666667</ele><time>2026-04-29T13:06:55Z</time></trkpt><trkpt lat="27.908730802823268" lon="-11.597140194558213"><ele>283.3333333333333</ele><time>2026-04-29T13:06:56Z</time></trkpt><trkpt lat="27.908587055148132" lon="-11.59733687647399"><ele>283.0</ele><time>2026-04-29T13:06:57Z</time></trkpt><trkpt lat="27.908441787569018" lon="-11.597529000542835"><ele>283.0</ele><time>2026-04-29T13:06:58Z</time></trkpt><trkpt lat="27.908297365592517" lon="-11.59771841676793"><ele>283.0</ele><time>2026-04-29T13:06:59Z</time></trkpt><trkpt lat="27.90815476954957" lon="-11.597889988691941"><ele>283.0</ele><time>2026-04-29T13:07:00Z</time></trkpt><trkpt lat="27.907998902069128" lon="-11.598082042916026"><ele>283.0</ele><time>2026-04-29T13:07:01Z</time></trkpt><trkpt lat="27.907846102619278" lon="-11.59826177442851"><ele>283.0</ele><time>2026-04-29T13:07:02Z</time></trkpt><trkpt lat="27.907694452587062" lon="-11.598428203384925"><ele>283.0</ele><time>2026-04-29T13:07:03Z</time></trkpt><trkpt lat="27.907552032174266" lon="-11.598584979566812"><ele>283.66666666666663</ele><time>2026-04-29T13:07:04Z</time></trkpt><trkpt lat="27.907413796669196" lon="-11.598748409942724"><ele>284.3333333333333</ele><time>2026-04-29T13:07:05Z</time></trkpt><trkpt lat="27.907277640367504" lon="-11.598905451739649"><ele>285.0</ele><time>2026-04-29T13:07:06Z</time></trkpt><trkpt lat="27.907141471656637" lon="-11.5990484249845"><ele>285.0</ele><time>2026-04-29T13:07:07Z</time></trkpt><trkpt lat="27.906922888641795" lon="-11.599110073099776"><ele>285.0</ele><time>2026-04-29T13:07:08Z</time></trkpt><trkpt lat="27.906793188755817" lon="-11.59928393616478"><ele>285.0</ele><time>2026-04-29T13:07:09Z</time></trkpt><trkpt lat="27.906658216530833" lon="-11.599464866823732"><ele>285.6666666666667</ele><time>2026-04-29T13:07:10Z</time></trkpt><trkpt lat="27.90654224278966" lon="-11.599641045198323"><ele>286.33333333333337</ele><time>2026-04-29T13:07:11Z</time></trkpt><trkpt lat="27.906413131973384" lon="-11.599792756138811"><ele>287.0</ele><time>2026-04-29T13:07:12Z</time></trkpt><trkpt lat="27.90628282763091" lon="-11.599966300691573"><ele>287.0</ele><time>2026-04-29T13:07:13Z</time></trkpt><trkpt lat="27.906142395640703" lon="-11.600140599736605"><ele>287.0</ele><time>2026-04-29T13:07:14Z</time></trkpt><trkpt lat="27.905984387394724" lon="-11.600306340826869"><ele>287.0</ele><time>2026-04-29T13:07:15Z</time></trkpt><trkpt lat="27.90584152998473" lon="-11.600456189588785"><ele>287.6666666666667</ele><time>2026-04-29T13:07:16Z</time></trkpt><trkpt lat="27.90571000287758" lon="-11.600594153562177"><ele>288.3333333333333</ele><time>2026-04-29T13:07:17Z</time></trkpt><trkpt lat="27.9055932771517" lon="-11.600716591762172"><ele>289.0</ele><time>2026-04-29T13:07:18Z</time></trkpt><trkpt lat="27.90547975489921" lon="-11.60083566972605"><ele>289.0</ele><time>2026-04-29T13:07:19Z</time></trkpt><trkpt lat="27.905351078991792" lon="-11.600970642973845"><ele>289.0</ele><time>2026-04-29T13:07:20Z</time></trkpt><trkpt lat="27.90522752707057" lon="-11.601100683783377"><ele>289.0</ele><time>2026-04-29T13:07:21Z</time></trkpt><trkpt lat="27.905096688990238" lon="-11.60123802078761"><ele>289.3333333333333</ele><time>2026-04-29T13:07:22Z</time></trkpt><trkpt lat="27.90496658971617" lon="-11.601374550412666"><ele>289.6666666666667</ele><time>2026-04-29T13:07:23Z</time></trkpt><trkpt lat="27.904833811637" lon="-11.601513628527476"><ele>290.0</ele><time>2026-04-29T13:07:24Z</time></trkpt><trkpt lat="27.90470586742922" lon="-11.601647621449764"><ele>290.0</ele><time>2026-04-29T13:07:25Z</time></trkpt><trkpt lat="27.904576264313977" lon="-11.601783828994794"><ele>290.0</ele><time>2026-04-29T13:07:26Z</time></trkpt><trkpt lat="27.904425679340036" lon="-11.601942087619117"><ele>290.0</ele><time>2026-04-29T13:07:27Z</time></trkpt><trkpt lat="27.904283801229152" lon="-11.602089381945449"><ele>290.6666666666667</ele><time>2026-04-29T13:07:28Z</time></trkpt><trkpt lat="27.904120272032685" lon="-11.60223119901446"><ele>291.3333333333333</ele><time>2026-04-29T13:07:29Z</time></trkpt><trkpt lat="27.903973587172278" lon="-11.602358408224312"><ele>292.0</ele><time>2026-04-29T13:07:30Z</time></trkpt><trkpt lat="27.903815499979913" lon="-11.602495505814108"><ele>292.0</ele><time>2026-04-29T13:07:31Z</time></trkpt><trkpt lat="27.903657393779724" lon="-11.602632945831948"><ele>292.0</ele><time>2026-04-29T13:07:32Z</time></trkpt><trkpt lat="27.903465238173787" lon="-11.602753384482893"><ele>292.0</ele><time>2026-04-29T13:07:33Z</time></trkpt><trkpt lat="27.90327022783759" lon="-11.60286369310109"><ele>292.0</ele><time>2026-04-29T13:07:34Z</time></trkpt><trkpt lat="27.903082529707028" lon="-11.602969865379027"><ele>292.0</ele><time>2026-04-29T13:07:35Z</time></trkpt><trkpt lat="27.902896878883556" lon="-11.603070779972903"><ele>292.0</ele><time>2026-04-29T13:07:36Z</time></trkpt><trkpt lat="27.902732487403657" lon="-11.603170815082153"><ele>291.3333333333333</ele><time>2026-04-29T13:07:37Z</time></trkpt><trkpt lat="27.902561420542582" lon="-11.603276653772813"><ele>290.6666666666667</ele><time>2026-04-29T13:07:38Z</time></trkpt><trkpt lat="27.902390878681363" lon="-11.603376613474579"><ele>290.0</ele><time>2026-04-29T13:07:39Z</time></trkpt><trkpt lat="27.902241152641714" lon="-11.603474607391231"><ele>290.0</ele><time>2026-04-29T13:07:40Z</time></trkpt><trkpt lat="27.902124725926964" lon="-11.603614187541027"><ele>290.0</ele><time>2026-04-29T13:07:41Z</time></trkpt><trkpt lat="27.901972803499618" lon="-11.6037651200564"><ele>290.0</ele><time>2026-04-29T13:07:42Z</time></trkpt><trkpt lat="27.901819709191074" lon="-11.6039175824978"><ele>290.6666666666667</ele><time>2026-04-29T13:07:43Z</time></trkpt><trkpt lat="27.9016872338494" lon="-11.604050176422845"><ele>291.3333333333333</ele><time>2026-04-29T13:07:44Z</time></trkpt><trkpt lat="27.901556539925984" lon="-11.604159888777254"><ele>292.0</ele><time>2026-04-29T13:07:45Z</time></trkpt><trkpt lat="27.90144347766319" lon="-11.604310924602741"><ele>292.0</ele><time>2026-04-29T13:07:46Z</time></trkpt><trkpt lat="27.90133245808417" lon="-11.604475096486693"><ele>292.0</ele><time>2026-04-29T13:07:47Z</time></trkpt><trkpt lat="27.90123385871201" lon="-11.604608983557936"><ele>292.0</ele><time>2026-04-29T13:07:48Z</time></trkpt><trkpt lat="27.901130831687222" lon="-11.604748882887746"><ele>292.3333333333333</ele><time>2026-04-29T13:07:49Z</time></trkpt><trkpt lat="27.901016009664822" lon="-11.60490068939405"><ele>292.6666666666667</ele><time>2026-04-29T13:07:50Z</time></trkpt><trkpt lat="27.900900857200885" lon="-11.605061872308477"><ele>293.0</ele><time>2026-04-29T13:07:51Z</time></trkpt><trkpt lat="27.90078500063504" lon="-11.605220605238"><ele>294.0</ele><time>2026-04-29T13:07:52Z</time></trkpt><trkpt lat="27.90066998675872" lon="-11.605377027003698"><ele>295.0</ele><time>2026-04-29T13:07:53Z</time></trkpt><trkpt lat="27.900550200486357" lon="-11.60554308495919"><ele>296.0</ele><time>2026-04-29T13:07:54Z</time></trkpt><trkpt lat="27.90042162743017" lon="-11.60571594673252"><ele>296.0</ele><time>2026-04-29T13:07:55Z</time></trkpt><trkpt lat="27.900299305291888" lon="-11.605893392121507"><ele>296.0</ele><time>2026-04-29T13:07:56Z</time></trkpt><trkpt lat="27.9001866905001" lon="-11.606046332918353"><ele>296.0</ele><time>2026-04-29T13:07:57Z</time></trkpt><trkpt lat="27.900069306201118" lon="-11.606203206636282"><ele>295.6666666666667</ele><time>2026-04-29T13:07:58Z</time></trkpt><trkpt lat="27.899942546932483" lon="-11.606356821873378"><ele>295.3333333333333</ele><time>2026-04-29T13:07:59Z</time></trkpt><trkpt lat="27.89981628859034" lon="-11.606503791044153"><ele>295.0</ele><time>2026-04-29T13:08:00Z</time></trkpt><trkpt lat="27.89970914399357" lon="-11.606677553392435"><ele>295.0</ele><time>2026-04-29T13:08:01Z</time></trkpt><trkpt lat="27.89954793339473" lon="-11.60679438505997"><ele>295.0</ele><time>2026-04-29T13:08:02Z</time></trkpt><trkpt lat="27.899386932319004" lon="-11.606906414576972"><ele>295.0</ele><time>2026-04-29T13:08:03Z</time></trkpt><trkpt lat="27.89922745691182" lon="-11.607012034445626"><ele>294.3333333333333</ele><time>2026-04-29T13:08:04Z</time></trkpt><trkpt lat="27.89906063420222" lon="-11.607121535943037"><ele>293.6666666666667</ele><time>2026-04-29T13:08:05Z</time></trkpt><trkpt lat="27.89889530233941" lon="-11.607237529232503"><ele>293.0</ele><time>2026-04-29T13:08:06Z</time></trkpt><trkpt lat="27.898761709135925" lon="-11.607374002822104"><ele>293.0</ele><time>2026-04-29T13:08:07Z</time></trkpt><trkpt lat="27.89861160515311" lon="-11.60752705009893"><ele>293.0</ele><time>2026-04-29T13:08:08Z</time></trkpt><trkpt lat="27.898462167563054" lon="-11.607679418706866"><ele>293.0</ele><time>2026-04-29T13:08:09Z</time></trkpt><trkpt lat="27.898312452089524" lon="-11.607832549381897"><ele>294.0</ele><time>2026-04-29T13:08:10Z</time></trkpt><trkpt lat="27.898173656688453" lon="-11.60797469050755"><ele>295.0</ele><time>2026-04-29T13:08:11Z</time></trkpt><trkpt lat="27.8980299804647" lon="-11.608122664166116"><ele>296.0</ele><time>2026-04-29T13:08:12Z</time></trkpt><trkpt lat="27.89788959917207" lon="-11.608265957352735"><ele>296.0</ele><time>2026-04-29T13:08:13Z</time></trkpt><trkpt lat="27.897755369391376" lon="-11.608403151502412"><ele>296.0</ele><time>2026-04-29T13:08:14Z</time></trkpt><trkpt lat="27.89761540794099" lon="-11.608546878404782"><ele>296.0</ele><time>2026-04-29T13:08:15Z</time></trkpt><trkpt lat="27.897475056165042" lon="-11.608690888433944"><ele>296.0</ele><time>2026-04-29T13:08:16Z</time></trkpt><trkpt lat="27.897339847850166" lon="-11.608830344972128"><ele>296.0</ele><time>2026-04-29T13:08:17Z</time></trkpt><trkpt lat="27.897202689926637" lon="-11.608975875271677"><ele>296.0</ele><time>2026-04-29T13:08:18Z</time></trkpt><trkpt lat="27.897065328614104" lon="-11.60912162149078"><ele>296.0</ele><time>2026-04-29T13:08:19Z</time></trkpt><trkpt lat="27.896946025808408" lon="-11.609248206747994"><ele>296.0</ele><time>2026-04-29T13:08:20Z</time></trkpt><trkpt lat="27.896814492207405" lon="-11.60938776935109"><ele>296.0</ele><time>2026-04-29T13:08:21Z</time></trkpt><trkpt lat="27.896680524238974" lon="-11.609529996588446"><ele>296.33333333333337</ele><time>2026-04-29T13:08:22Z</time></trkpt><trkpt lat="27.89656145169158" lon="-11.609656425870794"><ele>296.6666666666667</ele><time>2026-04-29T13:08:23Z</time></trkpt><trkpt lat="27.896441198126716" lon="-11.609784109156498"><ele>297.0</ele><time>2026-04-29T13:08:24Z</time></trkpt><trkpt lat="27.896324181913325" lon="-11.609908355099902"><ele>297.0</ele><time>2026-04-29T13:08:25Z</time></trkpt><trkpt lat="27.89623498694143" lon="-11.610012821656184"><ele>297.0</ele><time>2026-04-29T13:08:26Z</time></trkpt><trkpt lat="27.896148696488705" lon="-11.610094373754443"><ele>297.0</ele><time>2026-04-29T13:08:27Z</time></trkpt><trkpt lat="27.896079393137942" lon="-11.610179808762911"><ele>297.0</ele><time>2026-04-29T13:08:28Z</time></trkpt><trkpt lat="27.895982251004046" lon="-11.610244769442136"><ele>297.3333333333333</ele><time>2026-04-29T13:08:29Z</time></trkpt><trkpt lat="27.895855291048626" lon="-11.61031376719648"><ele>297.66666666666663</ele><time>2026-04-29T13:08:30Z</time></trkpt><trkpt lat="27.895735147373497" lon="-11.61041001123998"><ele>298.0</ele><time>2026-04-29T13:08:31Z</time></trkpt><trkpt lat="27.895592095828984" lon="-11.610495774769918"><ele>298.0</ele><time>2026-04-29T13:08:32Z</time></trkpt><trkpt lat="27.895423355319483" lon="-11.610550775116458"><ele>298.0</ele><time>2026-04-29T13:08:33Z</time></trkpt><trkpt lat="27.89525116618527" lon="-11.610606126784491"><ele>298.0</ele><time>2026-04-29T13:08:34Z</time></trkpt><trkpt lat="27.895103153692787" lon="-11.61065394115678"><ele>298.66666666666663</ele><time>2026-04-29T13:08:35Z</time></trkpt><trkpt lat="27.894928527553002" lon="-11.610651653876392"><ele>299.3333333333333</ele><time>2026-04-29T13:08:36Z</time></trkpt><trkpt lat="27.89474549862838" lon="-11.610654896326148"><ele>300.0</ele><time>2026-04-29T13:08:37Z</time></trkpt><trkpt lat="27.89454120004399" lon="-11.610648174886446"><ele>300.0</ele><time>2026-04-29T13:08:38Z</time></trkpt><trkpt lat="27.89432378521023" lon="-11.610640747468066"><ele>300.0</ele><time>2026-04-29T13:08:39Z</time></trkpt><trkpt lat="27.894127600482797" lon="-11.61063404532303"><ele>300.0</ele><time>2026-04-29T13:08:40Z</time></trkpt><trkpt lat="27.893941805017757" lon="-11.610627623659527"><ele>299.3333333333333</ele><time>2026-04-29T13:08:41Z</time></trkpt><trkpt lat="27.893772534196184" lon="-11.610621282286457"><ele>298.66666666666663</ele><time>2026-04-29T13:08:42Z</time></trkpt><trkpt lat="27.893597989645382" lon="-11.610621360935598"><ele>298.0</ele><time>2026-04-29T13:08:43Z</time></trkpt><trkpt lat="27.893407693226855" lon="-11.610609548549494"><ele>297.75</ele><time>2026-04-29T13:08:44Z</time></trkpt><trkpt lat="27.893231882495186" lon="-11.610620349802138"><ele>297.5</ele><time>2026-04-29T13:08:45Z</time></trkpt><trkpt lat="27.89309197928078" lon="-11.610619738395057"><ele>297.25</ele><time>2026-04-29T13:08:46Z</time></trkpt><trkpt lat="27.89296816943153" lon="-11.610618782051626"><ele>297.0</ele><time>2026-04-29T13:08:47Z</time></trkpt><trkpt lat="27.892871181022343" lon="-11.61061878879341"><ele>297.0</ele><time>2026-04-29T13:08:48Z</time></trkpt><trkpt lat="27.892760726731698" lon="-11.610618788794666"><ele>297.0</ele><time>2026-04-29T13:08:49Z</time></trkpt><trkpt lat="27.892615512541955" lon="-11.610618101247974"><ele>297.0</ele><time>2026-04-29T13:08:50Z</time></trkpt><trkpt lat="27.892478721301003" lon="-11.61061745774163"><ele>297.0</ele><time>2026-04-29T13:08:51Z</time></trkpt><trkpt lat="27.892347951199984" lon="-11.610617388795145"><ele>297.3333333333333</ele><time>2026-04-29T13:08:52Z</time></trkpt><trkpt lat="27.892204612553627" lon="-11.610617388796847"><ele>297.66666666666663</ele><time>2026-04-29T13:08:53Z</time></trkpt><trkpt lat="27.892039542529872" lon="-11.610616974392123"><ele>298.0</ele><time>2026-04-29T13:08:54Z</time></trkpt><trkpt lat="27.89186740987079" lon="-11.610616367468841"><ele>298.3333333333333</ele><time>2026-04-29T13:08:55Z</time></trkpt><trkpt lat="27.891693584573737" lon="-11.610616088795755"><ele>298.6666666666667</ele><time>2026-04-29T13:08:56Z</time></trkpt><trkpt lat="27.891527264124893" lon="-11.610616088795965"><ele>299.0</ele><time>2026-04-29T13:08:57Z</time></trkpt><trkpt lat="27.89133890211443" lon="-11.610615452117976"><ele>299.0</ele><time>2026-04-29T13:08:58Z</time></trkpt><trkpt lat="27.891144132710945" lon="-11.610614773648667"><ele>299.0</ele><time>2026-04-29T13:08:59Z</time></trkpt><trkpt lat="27.890939502408244" lon="-11.61061428120388"><ele>299.0</ele><time>2026-04-29T13:09:00Z</time></trkpt><trkpt lat="27.890750085989687" lon="-11.61061385295778"><ele>299.0</ele><time>2026-04-29T13:09:01Z</time></trkpt><trkpt lat="27.890589534428226" lon="-11.610613489970056"><ele>299.0</ele><time>2026-04-29T13:09:02Z</time></trkpt><trkpt lat="27.890413925996807" lon="-11.610623638711017"><ele>299.0</ele><time>2026-04-29T13:09:03Z</time></trkpt><trkpt lat="27.890219660610164" lon="-11.610638786557429"><ele>299.6666666666667</ele><time>2026-04-29T13:09:04Z</time></trkpt><trkpt lat="27.890019613199225" lon="-11.61065533146694"><ele>300.3333333333333</ele><time>2026-04-29T13:09:05Z</time></trkpt><trkpt lat="27.889828452386787" lon="-11.610671227380502"><ele>301.0</ele><time>2026-04-29T13:09:06Z</time></trkpt><trkpt lat="27.88962469307236" lon="-11.61068782593183"><ele>301.0</ele><time>2026-04-29T13:09:07Z</time></trkpt><trkpt lat="27.889443465433537" lon="-11.610702499976412"><ele>301.0</ele><time>2026-04-29T13:09:08Z</time></trkpt><trkpt lat="27.889278787408134" lon="-11.610715833166388"><ele>301.0</ele><time>2026-04-29T13:09:09Z</time></trkpt><trkpt lat="27.889112641950565" lon="-11.610729285997044"><ele>301.3333333333333</ele><time>2026-04-29T13:09:10Z</time></trkpt><trkpt lat="27.88891912205262" lon="-11.610738935586014"><ele>301.6666666666667</ele><time>2026-04-29T13:09:11Z</time></trkpt><trkpt lat="27.88872646129975" lon="-11.610720433465254"><ele>302.0</ele><time>2026-04-29T13:09:12Z</time></trkpt><trkpt lat="27.888554714101883" lon="-11.610704395066309"><ele>301.6666666666667</ele><time>2026-04-29T13:09:13Z</time></trkpt><trkpt lat="27.888377108892648" lon="-11.610686296533066"><ele>301.3333333333333</ele><time>2026-04-29T13:09:14Z</time></trkpt><trkpt lat="27.88819697173174" lon="-11.61060906263711"><ele>301.0</ele><time>2026-04-29T13:09:15Z</time></trkpt><trkpt lat="27.888023518126545" lon="-11.610546886936318"><ele>301.0</ele><time>2026-04-29T13:09:16Z</time></trkpt><trkpt lat="27.887838581367472" lon="-11.610464990730458"><ele>301.0</ele><time>2026-04-29T13:09:17Z</time></trkpt><trkpt lat="27.887651004932962" lon="-11.610412537094351"><ele>301.0</ele><time>2026-04-29T13:09:18Z</time></trkpt><trkpt lat="27.887472604222722" lon="-11.610363278514523"><ele>300.66666666666663</ele><time>2026-04-29T13:09:19Z</time></trkpt><trkpt lat="27.887291860536255" lon="-11.61031977491154"><ele>300.3333333333333</ele><time>2026-04-29T13:09:20Z</time></trkpt><trkpt lat="27.887126059484142" lon="-11.610286793190527"><ele>300.0</ele><time>2026-04-29T13:09:21Z</time></trkpt><trkpt lat="27.886949192909636" lon="-11.610264895653133"><ele>300.0</ele><time>2026-04-29T13:09:22Z</time></trkpt><trkpt lat="27.88678301799006" lon="-11.61029363693438"><ele>300.0</ele><time>2026-04-29T13:09:23Z</time></trkpt><trkpt lat="27.886597740859095" lon="-11.610310492453738"><ele>300.0</ele><time>2026-04-29T13:09:24Z</time></trkpt><trkpt lat="27.886392762940233" lon="-11.610328942650996"><ele>300.0</ele><time>2026-04-29T13:09:25Z</time></trkpt><trkpt lat="27.886196936839266" lon="-11.610347271815476"><ele>300.0</ele><time>2026-04-29T13:09:26Z</time></trkpt><trkpt lat="27.885999508345115" lon="-11.610365469887054"><ele>300.0</ele><time>2026-04-29T13:09:27Z</time></trkpt><trkpt lat="27.885799022311627" lon="-11.610383947739892"><ele>300.0</ele><time>2026-04-29T13:09:28Z</time></trkpt><trkpt lat="27.88562222569352" lon="-11.610400658316726"><ele>300.0</ele><time>2026-04-29T13:09:29Z</time></trkpt><trkpt lat="27.885470333094972" lon="-11.610415049122981"><ele>300.0</ele><time>2026-04-29T13:09:30Z</time></trkpt><trkpt lat="27.885341165705448" lon="-11.610427286886317"><ele>300.0</ele><time>2026-04-29T13:09:31Z</time></trkpt><trkpt lat="27.885231711372967" lon="-11.61045095485424"><ele>300.0</ele><time>2026-04-29T13:09:32Z</time></trkpt><trkpt lat="27.885124750472976" lon="-11.61048081889375"><ele>300.0</ele><time>2026-04-29T13:09:33Z</time></trkpt><trkpt lat="27.885031547751172" lon="-11.610507071060466"><ele>300.0</ele><time>2026-04-29T13:09:34Z</time></trkpt><trkpt lat="27.884951832230712" lon="-11.610529524358054"><ele>300.0</ele><time>2026-04-29T13:09:35Z</time></trkpt><trkpt lat="27.88479333400966" lon="-11.610599736723966"><ele>299.8</ele><time>2026-04-29T13:09:36Z</time></trkpt><trkpt lat="27.88472879226012" lon="-11.610596634401503"><ele>299.6</ele><time>2026-04-29T13:09:37Z</time></trkpt><trkpt lat="27.88463878537568" lon="-11.610567433787082"><ele>299.4</ele><time>2026-04-29T13:09:39Z</time></trkpt><trkpt lat="27.88458096590671" lon="-11.610536593020724"><ele>299.2</ele><time>2026-04-29T13:09:41Z</time></trkpt><trkpt lat="27.884504298867178" lon="-11.610498957482102"><ele>299.0</ele><time>2026-04-29T13:09:43Z</time></trkpt><trkpt lat="27.884496559560155" lon="-11.609962675714616"><ele>299.0</ele><time>2026-04-29T13:09:45Z</time></trkpt><trkpt lat="27.88449782269583" lon="-11.609869410072879"><ele>299.0</ele><time>2026-04-29T13:14:43Z</time></trkpt><trkpt lat="27.884458975011174" lon="-11.609751255350393"><ele>299.0</ele><time>2026-04-29T13:14:45Z</time></trkpt><trkpt lat="27.88443194356838" lon="-11.609672152171735"><ele>299.0</ele><time>2026-04-29T13:14:46Z</time></trkpt><trkpt lat="27.88440425265019" lon="-11.609581108735775"><ele>299.0</ele><time>2026-04-29T13:14:47Z</time></trkpt><trkpt lat="27.884378891768396" lon="-11.609483744039396"><ele>299.0</ele><time>2026-04-29T13:14:48Z</time></trkpt><trkpt lat="27.884366220854645" lon="-11.609386152360624"><ele>298.8</ele><time>2026-04-29T13:14:49Z</time></trkpt><trkpt lat="27.884352437280935" lon="-11.609281299763424"><ele>298.59999999999997</ele><time>2026-04-29T13:14:50Z</time></trkpt><trkpt lat="27.8843288355827" lon="-11.60918510982461"><ele>298.4</ele><time>2026-04-29T13:14:51Z</time></trkpt><trkpt lat="27.884295060767492" lon="-11.609078619963679"><ele>298.2</ele><time>2026-04-29T13:14:52Z</time></trkpt><trkpt lat="27.884230961610907" lon="-11.608964255855058"><ele>298.0</ele><time>2026-04-29T13:14:53Z</time></trkpt><trkpt lat="27.884149485199362" lon="-11.608853891966405"><ele>297.5</ele><time>2026-04-29T13:14:54Z</time></trkpt><trkpt lat="27.88406205146782" lon="-11.608748585875944"><ele>297.0</ele><time>2026-04-29T13:14:55Z</time></trkpt><trkpt lat="27.883971262352855" lon="-11.608643947660997"><ele>296.5</ele><time>2026-04-29T13:14:56Z</time></trkpt><trkpt lat="27.883878977227848" lon="-11.608523555044606"><ele>296.0</ele><time>2026-04-29T13:14:57Z</time></trkpt><trkpt lat="27.883770967969337" lon="-11.608357183297707"><ele>295.33333333333337</ele><time>2026-04-29T13:14:58Z</time></trkpt><trkpt lat="27.88367251006423" lon="-11.608192008940232"><ele>294.6666666666667</ele><time>2026-04-29T13:14:59Z</time></trkpt><trkpt lat="27.883575278717355" lon="-11.60802592855805"><ele>294.0</ele><time>2026-04-29T13:15:00Z</time></trkpt><trkpt lat="27.88349743645593" lon="-11.6078701023885"><ele>294.0</ele><time>2026-04-29T13:15:01Z</time></trkpt><trkpt lat="27.883431793280813" lon="-11.607721292486916"><ele>294.0</ele><time>2026-04-29T13:15:02Z</time></trkpt><trkpt lat="27.883359675824323" lon="-11.60757646970675"><ele>294.0</ele><time>2026-04-29T13:15:03Z</time></trkpt><trkpt lat="27.88327768902635" lon="-11.60742319678485"><ele>293.3333333333333</ele><time>2026-04-29T13:15:04Z</time></trkpt><trkpt lat="27.883187042343202" lon="-11.607251638040694"><ele>292.66666666666663</ele><time>2026-04-29T13:15:05Z</time></trkpt><trkpt lat="27.8830908372977" lon="-11.607082181582657"><ele>292.0</ele><time>2026-04-29T13:15:06Z</time></trkpt><trkpt lat="27.88299386865462" lon="-11.606907570920109"><ele>292.0</ele><time>2026-04-29T13:15:07Z</time></trkpt><trkpt lat="27.882903052373422" lon="-11.606737977661837"><ele>292.0</ele><time>2026-04-29T13:15:08Z</time></trkpt><trkpt lat="27.882820841954995" lon="-11.606585820356079"><ele>292.0</ele><time>2026-04-29T13:15:09Z</time></trkpt><trkpt lat="27.882732073151924" lon="-11.606435164879967"><ele>292.0</ele><time>2026-04-29T13:15:10Z</time></trkpt><trkpt lat="27.882638902407372" lon="-11.606275484215"><ele>292.0</ele><time>2026-04-29T13:15:11Z</time></trkpt><trkpt lat="27.882543198617306" lon="-11.606123868273011"><ele>292.0</ele><time>2026-04-29T13:15:12Z</time></trkpt><trkpt lat="27.88244993391558" lon="-11.605967509278296"><ele>292.0</ele><time>2026-04-29T13:15:13Z</time></trkpt><trkpt lat="27.882349273612654" lon="-11.605820436786692"><ele>292.0</ele><time>2026-04-29T13:15:14Z</time></trkpt><trkpt lat="27.882248586863753" lon="-11.605665315002302"><ele>292.0</ele><time>2026-04-29T13:15:15Z</time></trkpt><trkpt lat="27.882143438390578" lon="-11.605508195555656"><ele>292.0</ele><time>2026-04-29T13:15:16Z</time></trkpt><trkpt lat="27.88203463975607" lon="-11.605349351839733"><ele>292.0</ele><time>2026-04-29T13:15:17Z</time></trkpt><trkpt lat="27.881928950452416" lon="-11.605193344579321"><ele>292.0</ele><time>2026-04-29T13:15:18Z</time></trkpt><trkpt lat="27.88182783293001" lon="-11.60503023654294"><ele>291.3333333333333</ele><time>2026-04-29T13:15:19Z</time></trkpt><trkpt lat="27.881728072984362" lon="-11.604863846915158"><ele>290.6666666666667</ele><time>2026-04-29T13:15:20Z</time></trkpt><trkpt lat="27.881624492421526" lon="-11.604683175730376"><ele>290.0</ele><time>2026-04-29T13:15:21Z</time></trkpt><trkpt lat="27.881524134088004" lon="-11.60449521350006"><ele>289.6666666666667</ele><time>2026-04-29T13:15:22Z</time></trkpt><trkpt lat="27.881428829062198" lon="-11.604324631353245"><ele>289.3333333333333</ele><time>2026-04-29T13:15:23Z</time></trkpt><trkpt lat="27.881322699712147" lon="-11.604164291242027"><ele>289.0</ele><time>2026-04-29T13:15:24Z</time></trkpt><trkpt lat="27.88120149040867" lon="-11.603999335947542"><ele>289.0</ele><time>2026-04-29T13:15:25Z</time></trkpt><trkpt lat="27.881072163626932" lon="-11.603818169941375"><ele>289.0</ele><time>2026-04-29T13:15:26Z</time></trkpt><trkpt lat="27.88094019025075" lon="-11.6036214721452"><ele>289.0</ele><time>2026-04-29T13:15:27Z</time></trkpt><trkpt lat="27.880825838031406" lon="-11.603455510213061"><ele>288.0</ele><time>2026-04-29T13:15:28Z</time></trkpt><trkpt lat="27.880718538170854" lon="-11.603303194900198"><ele>287.0</ele><time>2026-04-29T13:15:29Z</time></trkpt><trkpt lat="27.88059464978947" lon="-11.603136661164472"><ele>286.0</ele><time>2026-04-29T13:15:30Z</time></trkpt><trkpt lat="27.88047203548574" lon="-11.602976724525705"><ele>286.0</ele><time>2026-04-29T13:15:31Z</time></trkpt><trkpt lat="27.880353255833853" lon="-11.602833335294653"><ele>286.0</ele><time>2026-04-29T13:15:32Z</time></trkpt><trkpt lat="27.880226604037013" lon="-11.60269354653001"><ele>286.0</ele><time>2026-04-29T13:15:33Z</time></trkpt><trkpt lat="27.880092218742814" lon="-11.602557280003207"><ele>285.3333333333333</ele><time>2026-04-29T13:15:34Z</time></trkpt><trkpt lat="27.87995201211649" lon="-11.602431784960547"><ele>284.6666666666667</ele><time>2026-04-29T13:15:35Z</time></trkpt><trkpt lat="27.879833056316905" lon="-11.602323725331972"><ele>284.0</ele><time>2026-04-29T13:15:36Z</time></trkpt><trkpt lat="27.879732801033725" lon="-11.602229186970204"><ele>284.0</ele><time>2026-04-29T13:15:37Z</time></trkpt><trkpt lat="27.87964547716935" lon="-11.602156446447015"><ele>284.0</ele><time>2026-04-29T13:15:38Z</time></trkpt><trkpt lat="27.879552687900723" lon="-11.602114262331753"><ele>284.0</ele><time>2026-04-29T13:15:39Z</time></trkpt><trkpt lat="27.879457723920073" lon="-11.602098694219475"><ele>284.0</ele><time>2026-04-29T13:15:40Z</time></trkpt><trkpt lat="27.879349935668564" lon="-11.602098912884482"><ele>284.0</ele><time>2026-04-29T13:15:41Z</time></trkpt><trkpt lat="27.879232183616935" lon="-11.602118546611043"><ele>283.75</ele><time>2026-04-29T13:15:42Z</time></trkpt><trkpt lat="27.879092567154853" lon="-11.602157378929164"><ele>283.5</ele><time>2026-04-29T13:15:43Z</time></trkpt><trkpt lat="27.87894854023631" lon="-11.602194906022982"><ele>283.25</ele><time>2026-04-29T13:15:44Z</time></trkpt><trkpt lat="27.878820129623172" lon="-11.602215321862177"><ele>283.0</ele><time>2026-04-29T13:15:45Z</time></trkpt><trkpt lat="27.878699563355738" lon="-11.60221405296733"><ele>283.0</ele><time>2026-04-29T13:15:46Z</time></trkpt><trkpt lat="27.878591959209523" lon="-11.60221610879501"><ele>283.0</ele><time>2026-04-29T13:15:47Z</time></trkpt><trkpt lat="27.878504724643932" lon="-11.602234620365975"><ele>283.0</ele><time>2026-04-29T13:15:48Z</time></trkpt><trkpt lat="27.878405743761146" lon="-11.602268929490629"><ele>283.0</ele><time>2026-04-29T13:15:49Z</time></trkpt><trkpt lat="27.878292702127254" lon="-11.602322458417195"><ele>283.0</ele><time>2026-04-29T13:15:50Z</time></trkpt><trkpt lat="27.87817690154783" lon="-11.602386339208795"><ele>282.0</ele><time>2026-04-29T13:15:51Z</time></trkpt><trkpt lat="27.87803085790407" lon="-11.602478165324694"><ele>281.0</ele><time>2026-04-29T13:15:52Z</time></trkpt><trkpt lat="27.877882958372883" lon="-11.602591477882633"><ele>280.0</ele><time>2026-04-29T13:15:53Z</time></trkpt><trkpt lat="27.87772702871692" lon="-11.60273129377143"><ele>280.3333333333333</ele><time>2026-04-29T13:15:54Z</time></trkpt><trkpt lat="27.877584193198377" lon="-11.602879237001778"><ele>280.6666666666667</ele><time>2026-04-29T13:15:55Z</time></trkpt><trkpt lat="27.87744958579751" lon="-11.603032368147577"><ele>281.0</ele><time>2026-04-29T13:15:56Z</time></trkpt><trkpt lat="27.877308062294894" lon="-11.60319204017659"><ele>281.0</ele><time>2026-04-29T13:15:57Z</time></trkpt><trkpt lat="27.877145331106977" lon="-11.603365209932937"><ele>281.0</ele><time>2026-04-29T13:15:58Z</time></trkpt><trkpt lat="27.87698063036049" lon="-11.603536464106714"><ele>281.0</ele><time>2026-04-29T13:15:59Z</time></trkpt><trkpt lat="27.876839527517195" lon="-11.603684124810016"><ele>281.33333333333337</ele><time>2026-04-29T13:16:00Z</time></trkpt><trkpt lat="27.876716277166743" lon="-11.603816127918336"><ele>281.6666666666667</ele><time>2026-04-29T13:16:01Z</time></trkpt><trkpt lat="27.87660755299578" lon="-11.603936698556462"><ele>282.0</ele><time>2026-04-29T13:16:02Z</time></trkpt><trkpt lat="27.876513714131992" lon="-11.604049563689461"><ele>282.0</ele><time>2026-04-29T13:16:03Z</time></trkpt><trkpt lat="27.876424683857657" lon="-11.604164978045754"><ele>282.0</ele><time>2026-04-29T13:16:04Z</time></trkpt><trkpt lat="27.87633580512636" lon="-11.604290745162753"><ele>282.0</ele><time>2026-04-29T13:16:05Z</time></trkpt><trkpt lat="27.8762530052819" lon="-11.604409976818522"><ele>282.0</ele><time>2026-04-29T13:16:06Z</time></trkpt><trkpt lat="27.876177092822076" lon="-11.604502369770271"><ele>282.0</ele><time>2026-04-29T13:16:07Z</time></trkpt><trkpt lat="27.876088762536064" lon="-11.604582199543778"><ele>282.0</ele><time>2026-04-29T13:16:08Z</time></trkpt><trkpt lat="27.875989481139463" lon="-11.604642309122966"><ele>282.0</ele><time>2026-04-29T13:16:09Z</time></trkpt><trkpt lat="27.875877782506024" lon="-11.604678252160603"><ele>282.0</ele><time>2026-04-29T13:16:10Z</time></trkpt><trkpt lat="27.875755463738592" lon="-11.604687246292084"><ele>282.25</ele><time>2026-04-29T13:16:11Z</time></trkpt><trkpt lat="27.87562869548683" lon="-11.604669704480257"><ele>282.5</ele><time>2026-04-29T13:16:12Z</time></trkpt><trkpt lat="27.87548928040004" lon="-11.604634960075886"><ele>282.75</ele><time>2026-04-29T13:16:13Z</time></trkpt><trkpt lat="27.875362948463394" lon="-11.604588584574223"><ele>283.0</ele><time>2026-04-29T13:16:14Z</time></trkpt><trkpt lat="27.875230198221374" lon="-11.604541396578027"><ele>282.3333333333333</ele><time>2026-04-29T13:16:15Z</time></trkpt><trkpt lat="27.87509826317158" lon="-11.604495156434716"><ele>281.6666666666667</ele><time>2026-04-29T13:16:16Z</time></trkpt><trkpt lat="27.874951924188128" lon="-11.604423595236627"><ele>281.0</ele><time>2026-04-29T13:16:17Z</time></trkpt><trkpt lat="27.874806250617258" lon="-11.604348308525172"><ele>281.0</ele><time>2026-04-29T13:16:18Z</time></trkpt><trkpt lat="27.874653716760168" lon="-11.604270551835535"><ele>281.0</ele><time>2026-04-29T13:16:19Z</time></trkpt><trkpt lat="27.87448633344067" lon="-11.604197526247658"><ele>281.0</ele><time>2026-04-29T13:16:20Z</time></trkpt><trkpt lat="27.874318616056275" lon="-11.604144972701434"><ele>280.6666666666667</ele><time>2026-04-29T13:16:21Z</time></trkpt><trkpt lat="27.874144232346268" lon="-11.604097371445246"><ele>280.3333333333333</ele><time>2026-04-29T13:16:22Z</time></trkpt><trkpt lat="27.873977281098902" lon="-11.604053101286656"><ele>280.0</ele><time>2026-04-29T13:16:23Z</time></trkpt><trkpt lat="27.87381682545576" lon="-11.604020507866794"><ele>280.0</ele><time>2026-04-29T13:16:24Z</time></trkpt><trkpt lat="27.873657163947257" lon="-11.603996897344206"><ele>280.0</ele><time>2026-04-29T13:16:25Z</time></trkpt><trkpt lat="27.8735079802259" lon="-11.60399117673449"><ele>280.0</ele><time>2026-04-29T13:16:26Z</time></trkpt><trkpt lat="27.87337446110553" lon="-11.604001144064712"><ele>280.0</ele><time>2026-04-29T13:16:27Z</time></trkpt><trkpt lat="27.873253399205907" lon="-11.60402599587178"><ele>280.25</ele><time>2026-04-29T13:16:28Z</time></trkpt><trkpt lat="27.87314030389596" lon="-11.604074057996833"><ele>280.5</ele><time>2026-04-29T13:16:29Z</time></trkpt><trkpt lat="27.87301584992562" lon="-11.604163800468445"><ele>280.75</ele><time>2026-04-29T13:16:30Z</time></trkpt><trkpt lat="27.87288724459156" lon="-11.604287222709889"><ele>281.0</ele><time>2026-04-29T13:16:31Z</time></trkpt><trkpt lat="27.872773686352858" lon="-11.604412948383514"><ele>281.33333333333337</ele><time>2026-04-29T13:16:32Z</time></trkpt><trkpt lat="27.87266755617526" lon="-11.604541964187932"><ele>281.6666666666667</ele><time>2026-04-29T13:16:33Z</time></trkpt><trkpt lat="27.872555915389018" lon="-11.604676391881732"><ele>282.0</ele><time>2026-04-29T13:16:34Z</time></trkpt><trkpt lat="27.872441501779967" lon="-11.604819030792413"><ele>282.3333333333333</ele><time>2026-04-29T13:16:35Z</time></trkpt><trkpt lat="27.8723143444236" lon="-11.604947432046453"><ele>282.66666666666663</ele><time>2026-04-29T13:16:36Z</time></trkpt><trkpt lat="27.872164844048523" lon="-11.60506194779078"><ele>283.0</ele><time>2026-04-29T13:16:37Z</time></trkpt><trkpt lat="27.871994826990296" lon="-11.605178093255589"><ele>283.0</ele><time>2026-04-29T13:16:38Z</time></trkpt><trkpt lat="27.871821628874947" lon="-11.60529360852713"><ele>283.0</ele><time>2026-04-29T13:16:39Z</time></trkpt><trkpt lat="27.871661276030757" lon="-11.605399576894667"><ele>283.0</ele><time>2026-04-29T13:16:40Z</time></trkpt><trkpt lat="27.871525337912477" lon="-11.605503120233273"><ele>283.3333333333333</ele><time>2026-04-29T13:16:41Z</time></trkpt><trkpt lat="27.871397791721627" lon="-11.605619749615876"><ele>283.6666666666667</ele><time>2026-04-29T13:16:42Z</time></trkpt><trkpt lat="27.871287352934623" lon="-11.605751582354632"><ele>284.0</ele><time>2026-04-29T13:16:43Z</time></trkpt><trkpt lat="27.87117319049566" lon="-11.605893845714203"><ele>284.0</ele><time>2026-04-29T13:16:44Z</time></trkpt><trkpt lat="27.871060661615285" lon="-11.606037606579958"><ele>284.0</ele><time>2026-04-29T13:16:45Z</time></trkpt><trkpt lat="27.87094189627266" lon="-11.606187565098052"><ele>284.0</ele><time>2026-04-29T13:16:46Z</time></trkpt><trkpt lat="27.870818438523678" lon="-11.606340805374428"><ele>284.6666666666667</ele><time>2026-04-29T13:16:47Z</time></trkpt><trkpt lat="27.870697049290023" lon="-11.606495431056592"><ele>285.3333333333333</ele><time>2026-04-29T13:16:48Z</time></trkpt><trkpt lat="27.870580982440607" lon="-11.606646807514597"><ele>286.0</ele><time>2026-04-29T13:16:49Z</time></trkpt><trkpt lat="27.870464962701885" lon="-11.606800396129787"><ele>286.0</ele><time>2026-04-29T13:16:50Z</time></trkpt><trkpt lat="27.870352016807047" lon="-11.606954122218172"><ele>286.0</ele><time>2026-04-29T13:16:51Z</time></trkpt><trkpt lat="27.87023619422783" lon="-11.607109454956165"><ele>286.0</ele><time>2026-04-29T13:16:52Z</time></trkpt><trkpt lat="27.870102128730757" lon="-11.607265955035528"><ele>286.0</ele><time>2026-04-29T13:16:53Z</time></trkpt><trkpt lat="27.86996931128495" lon="-11.607416604601779"><ele>286.0</ele><time>2026-04-29T13:16:54Z</time></trkpt><trkpt lat="27.86984362604024" lon="-11.60755864803889"><ele>286.0</ele><time>2026-04-29T13:16:55Z</time></trkpt><trkpt lat="27.869715263299273" lon="-11.60770960770529"><ele>285.66666666666663</ele><time>2026-04-29T13:16:56Z</time></trkpt><trkpt lat="27.869590377271102" lon="-11.607853369800239"><ele>285.3333333333333</ele><time>2026-04-29T13:16:57Z</time></trkpt><trkpt lat="27.86946302822413" lon="-11.608002577728396"><ele>285.0</ele><time>2026-04-29T13:16:58Z</time></trkpt><trkpt lat="27.86933802675876" lon="-11.608150814651978"><ele>284.6666666666667</ele><time>2026-04-29T13:16:59Z</time></trkpt><trkpt lat="27.86921141618325" lon="-11.60829302660883"><ele>284.33333333333337</ele><time>2026-04-29T13:17:00Z</time></trkpt><trkpt lat="27.86907042355629" lon="-11.608443389837273"><ele>284.0</ele><time>2026-04-29T13:17:01Z</time></trkpt><trkpt lat="27.868919470013992" lon="-11.608590996576092"><ele>284.33333333333337</ele><time>2026-04-29T13:17:02Z</time></trkpt><trkpt lat="27.868771842145737" lon="-11.608735995435724"><ele>284.6666666666667</ele><time>2026-04-29T13:17:03Z</time></trkpt><trkpt lat="27.868638689211554" lon="-11.608880703033408"><ele>285.0</ele><time>2026-04-29T13:17:04Z</time></trkpt><trkpt lat="27.868506824386813" lon="-11.609040005793565"><ele>284.6666666666667</ele><time>2026-04-29T13:17:05Z</time></trkpt><trkpt lat="27.86837918190428" lon="-11.609188913592986"><ele>284.33333333333337</ele><time>2026-04-29T13:17:06Z</time></trkpt><trkpt lat="27.868253936755192" lon="-11.609322318509683"><ele>284.0</ele><time>2026-04-29T13:17:07Z</time></trkpt><trkpt lat="27.868132926562748" lon="-11.609445074458884"><ele>284.6666666666667</ele><time>2026-04-29T13:17:08Z</time></trkpt><trkpt lat="27.868025976074932" lon="-11.60956335955491"><ele>285.3333333333333</ele><time>2026-04-29T13:17:09Z</time></trkpt><trkpt lat="27.867933545352983" lon="-11.609685917409228"><ele>286.0</ele><time>2026-04-29T13:17:10Z</time></trkpt><trkpt lat="27.867825542877647" lon="-11.609820718666816"><ele>286.0</ele><time>2026-04-29T13:17:11Z</time></trkpt><trkpt lat="27.867710917697142" lon="-11.609960868197247"><ele>286.0</ele><time>2026-04-29T13:17:12Z</time></trkpt><trkpt lat="27.86759279703668" lon="-11.610101673137997"><ele>286.0</ele><time>2026-04-29T13:17:13Z</time></trkpt><trkpt lat="27.867474331633332" lon="-11.610237039782714"><ele>285.66666666666663</ele><time>2026-04-29T13:17:14Z</time></trkpt><trkpt lat="27.867349190111078" lon="-11.610371621547278"><ele>285.3333333333333</ele><time>2026-04-29T13:17:15Z</time></trkpt><trkpt lat="27.867236970739818" lon="-11.610487694824672"><ele>285.0</ele><time>2026-04-29T13:17:16Z</time></trkpt><trkpt lat="27.86713260761383" lon="-11.610586464752753"><ele>285.0</ele><time>2026-04-29T13:17:17Z</time></trkpt><trkpt lat="27.86701893086889" lon="-11.610667825219027"><ele>285.0</ele><time>2026-04-29T13:17:18Z</time></trkpt><trkpt lat="27.86685957432307" lon="-11.610739922852753"><ele>285.0</ele><time>2026-04-29T13:17:19Z</time></trkpt><trkpt lat="27.866652557025823" lon="-11.610802841892717"><ele>284.5</ele><time>2026-04-29T13:17:20Z</time></trkpt><trkpt lat="27.866428733141376" lon="-11.61085405790474"><ele>284.0</ele><time>2026-04-29T13:17:21Z</time></trkpt><trkpt lat="27.866193762484134" lon="-11.610914936243724"><ele>284.0</ele><time>2026-04-29T13:17:22Z</time></trkpt><trkpt lat="27.865966647104216" lon="-11.61097989203174"><ele>284.0</ele><time>2026-04-29T13:17:23Z</time></trkpt><trkpt lat="27.86575285570588" lon="-11.611043128658087"><ele>283.6666666666667</ele><time>2026-04-29T13:17:24Z</time></trkpt><trkpt lat="27.865541591347046" lon="-11.611106468070234"><ele>283.3333333333333</ele><time>2026-04-29T13:17:25Z</time></trkpt><trkpt lat="27.86534690378799" lon="-11.611173383808932"><ele>283.0</ele><time>2026-04-29T13:17:26Z</time></trkpt><trkpt lat="27.865171664922865" lon="-11.611231019121723"><ele>283.66666666666663</ele><time>2026-04-29T13:17:27Z</time></trkpt><trkpt lat="27.864975762564313" lon="-11.611295229973413"><ele>284.3333333333333</ele><time>2026-04-29T13:17:28Z</time></trkpt><trkpt lat="27.86479703636281" lon="-11.611357537808095"><ele>285.0</ele><time>2026-04-29T13:17:29Z</time></trkpt><trkpt lat="27.86461484040435" lon="-11.611436799564045"><ele>285.0</ele><time>2026-04-29T13:17:30Z</time></trkpt><trkpt lat="27.864446548946415" lon="-11.611503565841296"><ele>285.0</ele><time>2026-04-29T13:17:31Z</time></trkpt><trkpt lat="27.864271216280947" lon="-11.611567075863563"><ele>285.0</ele><time>2026-04-29T13:17:32Z</time></trkpt><trkpt lat="27.864092763033987" lon="-11.611627309960356"><ele>285.0</ele><time>2026-04-29T13:17:33Z</time></trkpt><trkpt lat="27.863915396114944" lon="-11.611691732174418"><ele>285.0</ele><time>2026-04-29T13:17:34Z</time></trkpt><trkpt lat="27.86374166816223" lon="-11.611748351949572"><ele>285.0</ele><time>2026-04-29T13:17:35Z</time></trkpt><trkpt lat="27.863570441077982" lon="-11.611812208057216"><ele>284.6666666666667</ele><time>2026-04-29T13:17:36Z</time></trkpt><trkpt lat="27.86340009884938" lon="-11.611881396921541"><ele>284.33333333333337</ele><time>2026-04-29T13:17:37Z</time></trkpt><trkpt lat="27.8632198840769" lon="-11.61195322659494"><ele>284.0</ele><time>2026-04-29T13:17:38Z</time></trkpt><trkpt lat="27.86302784304477" lon="-11.612025777494596"><ele>283.6666666666667</ele><time>2026-04-29T13:17:39Z</time></trkpt><trkpt lat="27.86283248363467" lon="-11.612100003826992"><ele>283.3333333333333</ele><time>2026-04-29T13:17:40Z</time></trkpt><trkpt lat="27.86264168979183" lon="-11.612173417662204"><ele>283.0</ele><time>2026-04-29T13:17:41Z</time></trkpt><trkpt lat="27.862454039823326" lon="-11.61225136997295"><ele>283.0</ele><time>2026-04-29T13:17:42Z</time></trkpt><trkpt lat="27.86225010492469" lon="-11.612340561557984"><ele>283.0</ele><time>2026-04-29T13:17:43Z</time></trkpt><trkpt lat="27.862052843264873" lon="-11.61242240915604"><ele>283.0</ele><time>2026-04-29T13:17:44Z</time></trkpt><trkpt lat="27.86187817151019" lon="-11.612507486567619"><ele>283.0</ele><time>2026-04-29T13:17:45Z</time></trkpt><trkpt lat="27.86169644038015" lon="-11.612593512429928"><ele>283.0</ele><time>2026-04-29T13:17:46Z</time></trkpt><trkpt lat="27.861509155273428" lon="-11.61267914567606"><ele>283.0</ele><time>2026-04-29T13:17:47Z</time></trkpt><trkpt lat="27.861327022723337" lon="-11.612756915234572"><ele>283.0</ele><time>2026-04-29T13:17:48Z</time></trkpt><trkpt lat="27.861161898441797" lon="-11.61283134356702"><ele>283.0</ele><time>2026-04-29T13:17:49Z</time></trkpt><trkpt lat="27.860984749166946" lon="-11.612908530068541"><ele>283.0</ele><time>2026-04-29T13:17:50Z</time></trkpt><trkpt lat="27.860804756047845" lon="-11.612987444911415"><ele>283.3333333333333</ele><time>2026-04-29T13:17:51Z</time></trkpt><trkpt lat="27.860627695773125" lon="-11.613061679108238"><ele>283.6666666666667</ele><time>2026-04-29T13:17:52Z</time></trkpt><trkpt lat="27.860456619667257" lon="-11.6131302740729"><ele>284.0</ele><time>2026-04-29T13:17:53Z</time></trkpt><trkpt lat="27.860272739295006" lon="-11.61319449778174"><ele>284.33333333333337</ele><time>2026-04-29T13:17:54Z</time></trkpt><trkpt lat="27.860102819805093" lon="-11.613250892735115"><ele>284.6666666666667</ele><time>2026-04-29T13:17:55Z</time></trkpt><trkpt lat="27.859914915155866" lon="-11.613313204768236"><ele>285.0</ele><time>2026-04-29T13:17:56Z</time></trkpt><trkpt lat="27.85972131052611" lon="-11.613371681453948"><ele>285.0</ele><time>2026-04-29T13:17:57Z</time></trkpt><trkpt lat="27.85953288863029" lon="-11.613423237840982"><ele>285.0</ele><time>2026-04-29T13:17:58Z</time></trkpt><trkpt lat="27.85932204033732" lon="-11.613491317914857"><ele>285.0</ele><time>2026-04-29T13:17:59Z</time></trkpt><trkpt lat="27.859117029036515" lon="-11.613563391927265"><ele>284.0</ele><time>2026-04-29T13:18:00Z</time></trkpt><trkpt lat="27.85892169971597" lon="-11.613636415330921"><ele>283.0</ele><time>2026-04-29T13:18:01Z</time></trkpt><trkpt lat="27.8587480120031" lon="-11.613696248375092"><ele>282.0</ele><time>2026-04-29T13:18:02Z</time></trkpt><trkpt lat="27.858589156526584" lon="-11.613753927151624"><ele>282.6666666666667</ele><time>2026-04-29T13:18:03Z</time></trkpt><trkpt lat="27.858421210468325" lon="-11.613815810589202"><ele>283.33333333333337</ele><time>2026-04-29T13:18:04Z</time></trkpt><trkpt lat="27.858258267675158" lon="-11.613880367601723"><ele>284.0</ele><time>2026-04-29T13:18:05Z</time></trkpt><trkpt lat="27.858100406746626" lon="-11.613947182666259"><ele>284.0</ele><time>2026-04-29T13:18:06Z</time></trkpt><trkpt lat="27.85793614723219" lon="-11.614022953457338"><ele>284.0</ele><time>2026-04-29T13:18:07Z</time></trkpt><trkpt lat="27.857754117130177" lon="-11.614114306147687"><ele>284.0</ele><time>2026-04-29T13:18:08Z</time></trkpt><trkpt lat="27.85756920922519" lon="-11.614208266048198"><ele>283.33333333333337</ele><time>2026-04-29T13:18:09Z</time></trkpt><trkpt lat="27.857385550328335" lon="-11.614299724687402"><ele>282.6666666666667</ele><time>2026-04-29T13:18:10Z</time></trkpt><trkpt lat="27.8571961921287" lon="-11.614387176280013"><ele>282.0</ele><time>2026-04-29T13:18:11Z</time></trkpt><trkpt lat="27.857018903748607" lon="-11.614471451542355"><ele>282.3333333333333</ele><time>2026-04-29T13:18:12Z</time></trkpt><trkpt lat="27.8568348331668" lon="-11.614566772684187"><ele>282.66666666666663</ele><time>2026-04-29T13:18:13Z</time></trkpt><trkpt lat="27.856661726198332" lon="-11.614669254281472"><ele>283.0</ele><time>2026-04-29T13:18:14Z</time></trkpt><trkpt lat="27.856486194809243" lon="-11.61476671421026"><ele>283.0</ele><time>2026-04-29T13:18:15Z</time></trkpt><trkpt lat="27.85635768078079" lon="-11.614834300970848"><ele>283.0</ele><time>2026-04-29T13:18:16Z</time></trkpt><trkpt lat="27.856191635804706" lon="-11.614916643434453"><ele>283.0</ele><time>2026-04-29T13:18:17Z</time></trkpt><trkpt lat="27.85605170839552" lon="-11.614983906588801"><ele>282.66666666666663</ele><time>2026-04-29T13:18:18Z</time></trkpt><trkpt lat="27.855902901716583" lon="-11.615065854957885"><ele>282.3333333333333</ele><time>2026-04-29T13:18:19Z</time></trkpt><trkpt lat="27.855749592685573" lon="-11.615147936466919"><ele>282.0</ele><time>2026-04-29T13:18:20Z</time></trkpt><trkpt lat="27.85559238567923" lon="-11.615233138873343"><ele>282.6666666666667</ele><time>2026-04-29T13:18:21Z</time></trkpt><trkpt lat="27.855422898339594" lon="-11.615329462620734"><ele>283.33333333333337</ele><time>2026-04-29T13:18:22Z</time></trkpt><trkpt lat="27.855237442876742" lon="-11.615427963941022"><ele>284.0</ele><time>2026-04-29T13:18:23Z</time></trkpt><trkpt lat="27.85507029329058" lon="-11.615521523958641"><ele>284.0</ele><time>2026-04-29T13:18:24Z</time></trkpt><trkpt lat="27.854909603954415" lon="-11.61560549303142"><ele>284.0</ele><time>2026-04-29T13:18:25Z</time></trkpt><trkpt lat="27.854744202641168" lon="-11.615687763183528"><ele>284.0</ele><time>2026-04-29T13:18:26Z</time></trkpt><trkpt lat="27.85458090791647" lon="-11.61577341915763"><ele>284.0</ele><time>2026-04-29T13:18:27Z</time></trkpt><trkpt lat="27.854406173629194" lon="-11.615857402066197"><ele>284.0</ele><time>2026-04-29T13:18:28Z</time></trkpt><trkpt lat="27.85422003881452" lon="-11.615948371280421"><ele>284.0</ele><time>2026-04-29T13:18:29Z</time></trkpt><trkpt lat="27.854039104041355" lon="-11.616035518662557"><ele>283.6666666666667</ele><time>2026-04-29T13:18:30Z</time></trkpt><trkpt lat="27.85386148686573" lon="-11.616128828607486"><ele>283.3333333333333</ele><time>2026-04-29T13:18:31Z</time></trkpt><trkpt lat="27.853688165043" lon="-11.616225276689049"><ele>283.0</ele><time>2026-04-29T13:18:32Z</time></trkpt><trkpt lat="27.853509228432713" lon="-11.616320532149109"><ele>283.0</ele><time>2026-04-29T13:18:33Z</time></trkpt><trkpt lat="27.853329725176003" lon="-11.616403236772463"><ele>283.0</ele><time>2026-04-29T13:18:34Z</time></trkpt><trkpt lat="27.853168486321678" lon="-11.61647724225609"><ele>283.0</ele><time>2026-04-29T13:18:35Z</time></trkpt><trkpt lat="27.853003076473716" lon="-11.616553554326712"><ele>283.0</ele><time>2026-04-29T13:18:36Z</time></trkpt><trkpt lat="27.85281633725773" lon="-11.616644580316207"><ele>283.0</ele><time>2026-04-29T13:18:37Z</time></trkpt><trkpt lat="27.85264064536931" lon="-11.616731474644155"><ele>283.0</ele><time>2026-04-29T13:18:38Z</time></trkpt><trkpt lat="27.85246926476146" lon="-11.616819754017293"><ele>283.66666666666663</ele><time>2026-04-29T13:18:39Z</time></trkpt><trkpt lat="27.85230778418714" lon="-11.616893961727378"><ele>284.3333333333333</ele><time>2026-04-29T13:18:40Z</time></trkpt><trkpt lat="27.852145000685905" lon="-11.616979044441711"><ele>285.0</ele><time>2026-04-29T13:18:41Z</time></trkpt><trkpt lat="27.851985310451784" lon="-11.61707421828475"><ele>285.3333333333333</ele><time>2026-04-29T13:18:42Z</time></trkpt><trkpt lat="27.85183149591971" lon="-11.617163603817858"><ele>285.66666666666663</ele><time>2026-04-29T13:18:43Z</time></trkpt><trkpt lat="27.85167126095079" lon="-11.61724469405918"><ele>286.0</ele><time>2026-04-29T13:18:44Z</time></trkpt><trkpt lat="27.85150894126653" lon="-11.617333448491351"><ele>286.0</ele><time>2026-04-29T13:18:45Z</time></trkpt><trkpt lat="27.851351929291507" lon="-11.617419794926574"><ele>286.0</ele><time>2026-04-29T13:18:46Z</time></trkpt><trkpt lat="27.851196077162985" lon="-11.617500381337496"><ele>286.0</ele><time>2026-04-29T13:18:47Z</time></trkpt><trkpt lat="27.851037727558484" lon="-11.617586426564861"><ele>285.66666666666663</ele><time>2026-04-29T13:18:48Z</time></trkpt><trkpt lat="27.850876652762423" lon="-11.617672024696573"><ele>285.3333333333333</ele><time>2026-04-29T13:18:49Z</time></trkpt><trkpt lat="27.85070941342213" lon="-11.617768682342657"><ele>285.0</ele><time>2026-04-29T13:18:50Z</time></trkpt><trkpt lat="27.85053747096988" lon="-11.617869409098954"><ele>285.0</ele><time>2026-04-29T13:18:51Z</time></trkpt><trkpt lat="27.850364611117442" lon="-11.617971869579529"><ele>285.0</ele><time>2026-04-29T13:18:52Z</time></trkpt><trkpt lat="27.850195556262985" lon="-11.618071553705285"><ele>285.0</ele><time>2026-04-29T13:18:53Z</time></trkpt><trkpt lat="27.850026801680755" lon="-11.61816832684667"><ele>285.3333333333333</ele><time>2026-04-29T13:18:54Z</time></trkpt><trkpt lat="27.849864349336446" lon="-11.618273271779067"><ele>285.66666666666663</ele><time>2026-04-29T13:18:55Z</time></trkpt><trkpt lat="27.849698075334686" lon="-11.618369016410949"><ele>286.0</ele><time>2026-04-29T13:18:56Z</time></trkpt><trkpt lat="27.849532676204774" lon="-11.61846241845784"><ele>286.0</ele><time>2026-04-29T13:18:57Z</time></trkpt><trkpt lat="27.84938016539126" lon="-11.618552759316746"><ele>286.0</ele><time>2026-04-29T13:18:58Z</time></trkpt><trkpt lat="27.84922023975524" lon="-11.618646530100309"><ele>286.0</ele><time>2026-04-29T13:18:59Z</time></trkpt><trkpt lat="27.849059288186687" lon="-11.618732783369687"><ele>286.3333333333333</ele><time>2026-04-29T13:19:00Z</time></trkpt><trkpt lat="27.84888166201059" lon="-11.618849536404756"><ele>286.6666666666667</ele><time>2026-04-29T13:19:01Z</time></trkpt><trkpt lat="27.848707191967417" lon="-11.618948754966034"><ele>287.0</ele><time>2026-04-29T13:19:02Z</time></trkpt><trkpt lat="27.848543784059732" lon="-11.619044953430897"><ele>286.0</ele><time>2026-04-29T13:19:03Z</time></trkpt><trkpt lat="27.848366121858447" lon="-11.619154211487526"><ele>285.0</ele><time>2026-04-29T13:19:04Z</time></trkpt><trkpt lat="27.84819234677499" lon="-11.619269238293132"><ele>284.0</ele><time>2026-04-29T13:19:05Z</time></trkpt><trkpt lat="27.848019083297025" lon="-11.619378646050757"><ele>284.33333333333337</ele><time>2026-04-29T13:19:06Z</time></trkpt><trkpt lat="27.847851632731118" lon="-11.619485044406867"><ele>284.6666666666667</ele><time>2026-04-29T13:19:07Z</time></trkpt><trkpt lat="27.847684827906097" lon="-11.619595657097186"><ele>285.0</ele><time>2026-04-29T13:19:08Z</time></trkpt><trkpt lat="27.84753454871205" lon="-11.619694695749857"><ele>285.3333333333333</ele><time>2026-04-29T13:19:09Z</time></trkpt><trkpt lat="27.847367312422143" lon="-11.619814977285456"><ele>285.66666666666663</ele><time>2026-04-29T13:19:10Z</time></trkpt><trkpt lat="27.847207649597806" lon="-11.61993893149004"><ele>286.0</ele><time>2026-04-29T13:19:11Z</time></trkpt><trkpt lat="27.847059845579743" lon="-11.620047159402349"><ele>286.0</ele><time>2026-04-29T13:19:12Z</time></trkpt><trkpt lat="27.84690790389501" lon="-11.620151151934207"><ele>286.0</ele><time>2026-04-29T13:19:13Z</time></trkpt><trkpt lat="27.84673787695374" lon="-11.620289491217232"><ele>286.0</ele><time>2026-04-29T13:19:14Z</time></trkpt><trkpt lat="27.846568055465337" lon="-11.620431686459668"><ele>285.0</ele><time>2026-04-29T13:19:15Z</time></trkpt><trkpt lat="27.846406005692653" lon="-11.62056382165684"><ele>284.0</ele><time>2026-04-29T13:19:16Z</time></trkpt><trkpt lat="27.846241258441946" lon="-11.620696552723246"><ele>283.0</ele><time>2026-04-29T13:19:17Z</time></trkpt><trkpt lat="27.8460680914597" lon="-11.62084571394624"><ele>283.0</ele><time>2026-04-29T13:19:18Z</time></trkpt><trkpt lat="27.845899135254328" lon="-11.620987609532088"><ele>283.0</ele><time>2026-04-29T13:19:19Z</time></trkpt><trkpt lat="27.84573267671966" lon="-11.621130351741725"><ele>283.0</ele><time>2026-04-29T13:19:20Z</time></trkpt><trkpt lat="27.845558795851627" lon="-11.62127264540517"><ele>283.0</ele><time>2026-04-29T13:19:21Z</time></trkpt><trkpt lat="27.84539330331838" lon="-11.62142634965226"><ele>283.0</ele><time>2026-04-29T13:19:22Z</time></trkpt><trkpt lat="27.84523292038837" lon="-11.62155923006266"><ele>283.0</ele><time>2026-04-29T13:19:23Z</time></trkpt><trkpt lat="27.845082704233732" lon="-11.621691542562553"><ele>283.0</ele><time>2026-04-29T13:19:24Z</time></trkpt><trkpt lat="27.844930338234533" lon="-11.621843215849225"><ele>283.0</ele><time>2026-04-29T13:19:25Z</time></trkpt><trkpt lat="27.84476863487728" lon="-11.621981262396398"><ele>283.0</ele><time>2026-04-29T13:19:26Z</time></trkpt><trkpt lat="27.844615570968795" lon="-11.622113915436001"><ele>283.0</ele><time>2026-04-29T13:19:27Z</time></trkpt><trkpt lat="27.844464719685057" lon="-11.622248010915456"><ele>283.0</ele><time>2026-04-29T13:19:28Z</time></trkpt><trkpt lat="27.84432736938911" lon="-11.62239330984259"><ele>283.0</ele><time>2026-04-29T13:19:29Z</time></trkpt><trkpt lat="27.84418418444748" lon="-11.62253088375875"><ele>283.0</ele><time>2026-04-29T13:19:30Z</time></trkpt><trkpt lat="27.844034365965868" lon="-11.62266151351918"><ele>283.0</ele><time>2026-04-29T13:19:31Z</time></trkpt><trkpt lat="27.843884413163433" lon="-11.622798127278623"><ele>283.0</ele><time>2026-04-29T13:19:32Z</time></trkpt><trkpt lat="27.84373428307174" lon="-11.62293988584983"><ele>283.0</ele><time>2026-04-29T13:19:33Z</time></trkpt><trkpt lat="27.84357960350062" lon="-11.62307822075873"><ele>283.0</ele><time>2026-04-29T13:19:34Z</time></trkpt><trkpt lat="27.84343520888335" lon="-11.623216357382587"><ele>283.0</ele><time>2026-04-29T13:19:35Z</time></trkpt><trkpt lat="27.843303388275718" lon="-11.623344278979596"><ele>283.0</ele><time>2026-04-29T13:19:36Z</time></trkpt><trkpt lat="27.843156954384252" lon="-11.623471625327996"><ele>283.0</ele><time>2026-04-29T13:19:37Z</time></trkpt><trkpt lat="27.843001593304017" lon="-11.623622715835007"><ele>283.0</ele><time>2026-04-29T13:19:38Z</time></trkpt><trkpt lat="27.84284281125739" lon="-11.623771728044407"><ele>283.0</ele><time>2026-04-29T13:19:39Z</time></trkpt><trkpt lat="27.842691927023854" lon="-11.623894775766592"><ele>283.0</ele><time>2026-04-29T13:19:40Z</time></trkpt><trkpt lat="27.842537532829777" lon="-11.62401754513379"><ele>283.0</ele><time>2026-04-29T13:19:41Z</time></trkpt><trkpt lat="27.842397363867736" lon="-11.624147496553402"><ele>283.0</ele><time>2026-04-29T13:19:42Z</time></trkpt><trkpt lat="27.842266788066016" lon="-11.624276720902815"><ele>283.0</ele><time>2026-04-29T13:19:43Z</time></trkpt><trkpt lat="27.842142568344457" lon="-11.62438852715064"><ele>283.0</ele><time>2026-04-29T13:19:44Z</time></trkpt><trkpt lat="27.842019684994362" lon="-11.624495487048543"><ele>282.66666666666663</ele><time>2026-04-29T13:19:45Z</time></trkpt><trkpt lat="27.841891081639837" lon="-11.624612691603058"><ele>282.3333333333333</ele><time>2026-04-29T13:19:46Z</time></trkpt><trkpt lat="27.841771536404885" lon="-11.62472723856745"><ele>282.0</ele><time>2026-04-29T13:19:47Z</time></trkpt><trkpt lat="27.841640991034115" lon="-11.624846238778261"><ele>281.6666666666667</ele><time>2026-04-29T13:19:48Z</time></trkpt><trkpt lat="27.84151323728417" lon="-11.624973354286565"><ele>281.33333333333337</ele><time>2026-04-29T13:19:49Z</time></trkpt><trkpt lat="27.841384926716625" lon="-11.625097107621432"><ele>281.0</ele><time>2026-04-29T13:19:50Z</time></trkpt><trkpt lat="27.84124597713323" lon="-11.62523661242316"><ele>281.0</ele><time>2026-04-29T13:19:51Z</time></trkpt><trkpt lat="27.84111061120063" lon="-11.625352851382416"><ele>281.0</ele><time>2026-04-29T13:19:52Z</time></trkpt><trkpt lat="27.840973541489156" lon="-11.625476614689706"><ele>281.0</ele><time>2026-04-29T13:19:53Z</time></trkpt><trkpt lat="27.840823472765297" lon="-11.625611334501821"><ele>281.0</ele><time>2026-04-29T13:19:54Z</time></trkpt><trkpt lat="27.84066203319889" lon="-11.625745769388057"><ele>281.0</ele><time>2026-04-29T13:19:55Z</time></trkpt><trkpt lat="27.84050680665328" lon="-11.625881828348291"><ele>281.0</ele><time>2026-04-29T13:19:56Z</time></trkpt><trkpt lat="27.840352864479385" lon="-11.626000061722145"><ele>281.0</ele><time>2026-04-29T13:19:57Z</time></trkpt><trkpt lat="27.84018917667388" lon="-11.626132129882983"><ele>281.0</ele><time>2026-04-29T13:19:58Z</time></trkpt><trkpt lat="27.840026459256922" lon="-11.626258671924987"><ele>281.0</ele><time>2026-04-29T13:19:59Z</time></trkpt><trkpt lat="27.839860927541302" lon="-11.626382069798328"><ele>281.33333333333337</ele><time>2026-04-29T13:20:00Z</time></trkpt><trkpt lat="27.83969796170025" lon="-11.626505765872297"><ele>281.6666666666667</ele><time>2026-04-29T13:20:01Z</time></trkpt><trkpt lat="27.839535104906272" lon="-11.626622083615324"><ele>282.0</ele><time>2026-04-29T13:20:02Z</time></trkpt><trkpt lat="27.83937204080141" lon="-11.626750562637659"><ele>281.6666666666667</ele><time>2026-04-29T13:20:03Z</time></trkpt><trkpt lat="27.839197706735487" lon="-11.62688735422281"><ele>281.33333333333337</ele><time>2026-04-29T13:20:04Z</time></trkpt><trkpt lat="27.839026240437413" lon="-11.627021007999945"><ele>281.0</ele><time>2026-04-29T13:20:05Z</time></trkpt><trkpt lat="27.838862912090068" lon="-11.627143804504385"><ele>281.0</ele><time>2026-04-29T13:20:06Z</time></trkpt><trkpt lat="27.838699875040014" lon="-11.627275256708073"><ele>281.0</ele><time>2026-04-29T13:20:07Z</time></trkpt><trkpt lat="27.838538639898122" lon="-11.627407760272849"><ele>281.0</ele><time>2026-04-29T13:20:08Z</time></trkpt><trkpt lat="27.83838061925817" lon="-11.627537853013036"><ele>281.0</ele><time>2026-04-29T13:20:09Z</time></trkpt><trkpt lat="27.838217950099484" lon="-11.627680443296434"><ele>281.0</ele><time>2026-04-29T13:20:10Z</time></trkpt><trkpt lat="27.8380605980806" lon="-11.627823691244231"><ele>281.0</ele><time>2026-04-29T13:20:11Z</time></trkpt><trkpt lat="27.83790737177805" lon="-11.627961861850421"><ele>281.0</ele><time>2026-04-29T13:20:12Z</time></trkpt><trkpt lat="27.837758144658093" lon="-11.628103977492408"><ele>281.0</ele><time>2026-04-29T13:20:13Z</time></trkpt><trkpt lat="27.837603197596906" lon="-11.628242432878173"><ele>281.0</ele><time>2026-04-29T13:20:14Z</time></trkpt><trkpt lat="27.837440465726885" lon="-11.62838979723505"><ele>281.0</ele><time>2026-04-29T13:20:15Z</time></trkpt><trkpt lat="27.837276564956703" lon="-11.628549978823775"><ele>281.0</ele><time>2026-04-29T13:20:16Z</time></trkpt><trkpt lat="27.8371098305895" lon="-11.628711742264233"><ele>281.0</ele><time>2026-04-29T13:20:17Z</time></trkpt><trkpt lat="27.836956543999385" lon="-11.628855914062612"><ele>280.6666666666667</ele><time>2026-04-29T13:20:18Z</time></trkpt><trkpt lat="27.83679055992578" lon="-11.629014120663816"><ele>280.3333333333333</ele><time>2026-04-29T13:20:19Z</time></trkpt><trkpt lat="27.836632533347817" lon="-11.629159783021203"><ele>280.0</ele><time>2026-04-29T13:20:20Z</time></trkpt><trkpt lat="27.836470868245303" lon="-11.629302650956904"><ele>280.0</ele><time>2026-04-29T13:20:21Z</time></trkpt><trkpt lat="27.83631953787664" lon="-11.62943288511341"><ele>280.0</ele><time>2026-04-29T13:20:22Z</time></trkpt><trkpt lat="27.8361584942932" lon="-11.629575190599208"><ele>280.0</ele><time>2026-04-29T13:20:23Z</time></trkpt><trkpt lat="27.8359954586175" lon="-11.629718776457945"><ele>280.0</ele><time>2026-04-29T13:20:24Z</time></trkpt><trkpt lat="27.835830062372715" lon="-11.629861431512838"><ele>280.0</ele><time>2026-04-29T13:20:25Z</time></trkpt><trkpt lat="27.835665903032265" lon="-11.629991177842864"><ele>280.0</ele><time>2026-04-29T13:20:26Z</time></trkpt><trkpt lat="27.83552236448969" lon="-11.630113177395142"><ele>280.0</ele><time>2026-04-29T13:20:27Z</time></trkpt><trkpt lat="27.83538619547397" lon="-11.630218852553586"><ele>280.0</ele><time>2026-04-29T13:20:28Z</time></trkpt><trkpt lat="27.835256009348555" lon="-11.630327007120679"><ele>280.0</ele><time>2026-04-29T13:20:29Z</time></trkpt><trkpt lat="27.835104074052918" lon="-11.63044708270398"><ele>281.0</ele><time>2026-04-29T13:20:30Z</time></trkpt><trkpt lat="27.8349550380187" lon="-11.630563790615188"><ele>282.0</ele><time>2026-04-29T13:20:31Z</time></trkpt><trkpt lat="27.83480377244826" lon="-11.630666093117071"><ele>283.0</ele><time>2026-04-29T13:20:32Z</time></trkpt><trkpt lat="27.834649889517998" lon="-11.630762690793452"><ele>283.0</ele><time>2026-04-29T13:20:33Z</time></trkpt><trkpt lat="27.83447669078532" lon="-11.630871909886434"><ele>283.0</ele><time>2026-04-29T13:20:34Z</time></trkpt><trkpt lat="27.834303301232985" lon="-11.630984254407013"><ele>283.0</ele><time>2026-04-29T13:20:35Z</time></trkpt><trkpt lat="27.83410904325291" lon="-11.63110807703712"><ele>282.66666666666663</ele><time>2026-04-29T13:20:36Z</time></trkpt><trkpt lat="27.83390936216225" lon="-11.631223635561906"><ele>282.3333333333333</ele><time>2026-04-29T13:20:37Z</time></trkpt><trkpt lat="27.833715969131756" lon="-11.631330748323949"><ele>282.0</ele><time>2026-04-29T13:20:38Z</time></trkpt><trkpt lat="27.833510495565402" lon="-11.63143205627926"><ele>281.6666666666667</ele><time>2026-04-29T13:20:39Z</time></trkpt><trkpt lat="27.83332216241943" lon="-11.63151762964096"><ele>281.33333333333337</ele><time>2026-04-29T13:20:40Z</time></trkpt><trkpt lat="27.833135884659953" lon="-11.631606065903977"><ele>281.0</ele><time>2026-04-29T13:20:41Z</time></trkpt><trkpt lat="27.832930098707713" lon="-11.631704818552933"><ele>281.0</ele><time>2026-04-29T13:20:42Z</time></trkpt><trkpt lat="27.83274058153805" lon="-11.63179628963865"><ele>281.0</ele><time>2026-04-29T13:20:43Z</time></trkpt><trkpt lat="27.83255537954212" lon="-11.631890952970263"><ele>281.0</ele><time>2026-04-29T13:20:44Z</time></trkpt><trkpt lat="27.832368471490984" lon="-11.631977685382928"><ele>281.0</ele><time>2026-04-29T13:20:45Z</time></trkpt><trkpt lat="27.832176180866593" lon="-11.632076794982023"><ele>281.0</ele><time>2026-04-29T13:20:46Z</time></trkpt><trkpt lat="27.83199327531188" lon="-11.632171196036206"><ele>281.0</ele><time>2026-04-29T13:20:47Z</time></trkpt><trkpt lat="27.831809886514304" lon="-11.63227593918869"><ele>281.0</ele><time>2026-04-29T13:20:48Z</time></trkpt><trkpt lat="27.8316335717633" lon="-11.632384313053917"><ele>281.0</ele><time>2026-04-29T13:20:49Z</time></trkpt><trkpt lat="27.831456768082138" lon="-11.63248366900658"><ele>281.0</ele><time>2026-04-29T13:20:50Z</time></trkpt><trkpt lat="27.8312723724491" lon="-11.632586609700743"><ele>281.0</ele><time>2026-04-29T13:20:51Z</time></trkpt><trkpt lat="27.831082679694404" lon="-11.632687379410733"><ele>281.0</ele><time>2026-04-29T13:20:52Z</time></trkpt><trkpt lat="27.830892874815525" lon="-11.632795910604406"><ele>281.0</ele><time>2026-04-29T13:20:53Z</time></trkpt><trkpt lat="27.830701076398576" lon="-11.632903122778453"><ele>280.6666666666667</ele><time>2026-04-29T13:20:54Z</time></trkpt><trkpt lat="27.83051370649009" lon="-11.633005341407125"><ele>280.3333333333333</ele><time>2026-04-29T13:20:55Z</time></trkpt><trkpt lat="27.83033026932119" lon="-11.633100727385232"><ele>280.0</ele><time>2026-04-29T13:20:56Z</time></trkpt><trkpt lat="27.83014217255968" lon="-11.633207287877111"><ele>279.66666666666663</ele><time>2026-04-29T13:20:57Z</time></trkpt><trkpt lat="27.829958870707983" lon="-11.633317023986123"><ele>279.3333333333333</ele><time>2026-04-29T13:20:58Z</time></trkpt><trkpt lat="27.829776524078994" lon="-11.633428746361435"><ele>279.0</ele><time>2026-04-29T13:20:59Z</time></trkpt><trkpt lat="27.829608025178807" lon="-11.633541868151756"><ele>279.0</ele><time>2026-04-29T13:21:00Z</time></trkpt><trkpt lat="27.829438773539692" lon="-11.633672446041256"><ele>279.0</ele><time>2026-04-29T13:21:01Z</time></trkpt><trkpt lat="27.829271773827095" lon="-11.633798552263128"><ele>279.0</ele><time>2026-04-29T13:21:02Z</time></trkpt><trkpt lat="27.82910944947015" lon="-11.633924850409581"><ele>278.6666666666667</ele><time>2026-04-29T13:21:03Z</time></trkpt><trkpt lat="27.828959791787916" lon="-11.63405402058223"><ele>278.33333333333337</ele><time>2026-04-29T13:21:04Z</time></trkpt><trkpt lat="27.82880625743027" lon="-11.63419486211788"><ele>278.0</ele><time>2026-04-29T13:21:05Z</time></trkpt><trkpt lat="27.828639835490936" lon="-11.634327626597758"><ele>278.0</ele><time>2026-04-29T13:21:06Z</time></trkpt><trkpt lat="27.828451321457464" lon="-11.634465906505955"><ele>278.0</ele><time>2026-04-29T13:21:07Z</time></trkpt><trkpt lat="27.828260339413387" lon="-11.634615310391068"><ele>278.0</ele><time>2026-04-29T13:21:08Z</time></trkpt><trkpt lat="27.828077675376974" lon="-11.63475044243824"><ele>278.0</ele><time>2026-04-29T13:21:09Z</time></trkpt><trkpt lat="27.827904545040496" lon="-11.634871913493297"><ele>278.0</ele><time>2026-04-29T13:21:10Z</time></trkpt><trkpt lat="27.82771609200264" lon="-11.634995842733119"><ele>277.6666666666667</ele><time>2026-04-29T13:21:11Z</time></trkpt><trkpt lat="27.827524204705256" lon="-11.635117883227446"><ele>277.3333333333333</ele><time>2026-04-29T13:21:12Z</time></trkpt><trkpt lat="27.827333539286613" lon="-11.63524058880124"><ele>277.0</ele><time>2026-04-29T13:21:13Z</time></trkpt><trkpt lat="27.82714466136015" lon="-11.635365022433884"><ele>276.66666666666663</ele><time>2026-04-29T13:21:14Z</time></trkpt><trkpt lat="27.826963043980196" lon="-11.635483319052595"><ele>276.3333333333333</ele><time>2026-04-29T13:21:15Z</time></trkpt><trkpt lat="27.826770900789615" lon="-11.635604372852685"><ele>276.0</ele><time>2026-04-29T13:21:16Z</time></trkpt><trkpt lat="27.82658886585087" lon="-11.635719739196908"><ele>276.0</ele><time>2026-04-29T13:21:17Z</time></trkpt><trkpt lat="27.8264057772979" lon="-11.63583456032121"><ele>276.0</ele><time>2026-04-29T13:21:18Z</time></trkpt><trkpt lat="27.826229484848444" lon="-11.635946489725903"><ele>276.0</ele><time>2026-04-29T13:21:19Z</time></trkpt><trkpt lat="27.826061513189888" lon="-11.636051471973413"><ele>275.6666666666667</ele><time>2026-04-29T13:21:20Z</time></trkpt><trkpt lat="27.825875301300574" lon="-11.63616519472714"><ele>275.33333333333337</ele><time>2026-04-29T13:21:21Z</time></trkpt><trkpt lat="27.825692835921277" lon="-11.63627759283567"><ele>275.0</ele><time>2026-04-29T13:21:22Z</time></trkpt><trkpt lat="27.825494759650347" lon="-11.636385243881879"><ele>275.0</ele><time>2026-04-29T13:21:23Z</time></trkpt><trkpt lat="27.825299384896173" lon="-11.636489345180852"><ele>275.0</ele><time>2026-04-29T13:21:24Z</time></trkpt><trkpt lat="27.82510139040182" lon="-11.636591395944341"><ele>275.0</ele><time>2026-04-29T13:21:25Z</time></trkpt><trkpt lat="27.824888860174916" lon="-11.636697745044295"><ele>276.0</ele><time>2026-04-29T13:21:26Z</time></trkpt><trkpt lat="27.824669102020554" lon="-11.636805515102514"><ele>277.0</ele><time>2026-04-29T13:21:27Z</time></trkpt><trkpt lat="27.82444757508773" lon="-11.636914942575089"><ele>277.66666666666663</ele><time>2026-04-29T13:21:28Z</time></trkpt><trkpt lat="27.824250305689958" lon="-11.6370044447628"><ele>278.3333333333333</ele><time>2026-04-29T13:21:29Z</time></trkpt><trkpt lat="27.824047502877534" lon="-11.637083523189059"><ele>279.0</ele><time>2026-04-29T13:21:30Z</time></trkpt><trkpt lat="27.82384155640821" lon="-11.63716043744866"><ele>279.0</ele><time>2026-04-29T13:21:31Z</time></trkpt><trkpt lat="27.823635000843584" lon="-11.637233627549586"><ele>279.0</ele><time>2026-04-29T13:21:32Z</time></trkpt><trkpt lat="27.823438040585984" lon="-11.637293619823986"><ele>279.0</ele><time>2026-04-29T13:21:33Z</time></trkpt><trkpt lat="27.82322886095866" lon="-11.637358929040708"><ele>278.6666666666667</ele><time>2026-04-29T13:21:34Z</time></trkpt><trkpt lat="27.82302170886192" lon="-11.637424930795046"><ele>278.33333333333337</ele><time>2026-04-29T13:21:35Z</time></trkpt><trkpt lat="27.822812439027363" lon="-11.637487330976011"><ele>278.0</ele><time>2026-04-29T13:21:36Z</time></trkpt><trkpt lat="27.822604076293885" lon="-11.637547483749335"><ele>278.0</ele><time>2026-04-29T13:21:37Z</time></trkpt><trkpt lat="27.822390600772856" lon="-11.63761142189003"><ele>278.0</ele><time>2026-04-29T13:21:38Z</time></trkpt><trkpt lat="27.8221737649157" lon="-11.637680492846794"><ele>278.0</ele><time>2026-04-29T13:21:39Z</time></trkpt><trkpt lat="27.821947172581375" lon="-11.63775086358735"><ele>277.5</ele><time>2026-04-29T13:21:40Z</time></trkpt><trkpt lat="27.82172649255125" lon="-11.637817028880542"><ele>277.0</ele><time>2026-04-29T13:21:41Z</time></trkpt><trkpt lat="27.821513130342577" lon="-11.637886289852327"><ele>277.0</ele><time>2026-04-29T13:21:42Z</time></trkpt><trkpt lat="27.82130039874216" lon="-11.63795704596787"><ele>277.0</ele><time>2026-04-29T13:21:43Z</time></trkpt><trkpt lat="27.821088452785933" lon="-11.638028091074778"><ele>277.0</ele><time>2026-04-29T13:21:44Z</time></trkpt><trkpt lat="27.820890588894194" lon="-11.638096501666134"><ele>277.0</ele><time>2026-04-29T13:21:45Z</time></trkpt><trkpt lat="27.820682278440703" lon="-11.638171689065237"><ele>277.0</ele><time>2026-04-29T13:21:46Z</time></trkpt><trkpt lat="27.820469089288004" lon="-11.638256095552762"><ele>277.0</ele><time>2026-04-29T13:21:47Z</time></trkpt><trkpt lat="27.820264493722867" lon="-11.638333900405172"><ele>277.0</ele><time>2026-04-29T13:21:48Z</time></trkpt><trkpt lat="27.820050279198316" lon="-11.638419779009737"><ele>277.0</ele><time>2026-04-29T13:21:49Z</time></trkpt><trkpt lat="27.819832636089593" lon="-11.638506055099823"><ele>277.0</ele><time>2026-04-29T13:21:50Z</time></trkpt><trkpt lat="27.819613989764928" lon="-11.638591055922378"><ele>277.0</ele><time>2026-04-29T13:21:51Z</time></trkpt><trkpt lat="27.819392504585373" lon="-11.638675074132534"><ele>277.5</ele><time>2026-04-29T13:21:52Z</time></trkpt><trkpt lat="27.819180167966756" lon="-11.638755355268966"><ele>278.0</ele><time>2026-04-29T13:21:53Z</time></trkpt><trkpt lat="27.818963377341856" lon="-11.638829061009899"><ele>278.0</ele><time>2026-04-29T13:21:54Z</time></trkpt><trkpt lat="27.818750465852514" lon="-11.638897862111532"><ele>278.0</ele><time>2026-04-29T13:21:55Z</time></trkpt><trkpt lat="27.818528420097444" lon="-11.638966658824085"><ele>277.0</ele><time>2026-04-29T13:21:56Z</time></trkpt><trkpt lat="27.81830210629262" lon="-11.63904584184938"><ele>276.0</ele><time>2026-04-29T13:21:57Z</time></trkpt><trkpt lat="27.818087000330387" lon="-11.639114208562631"><ele>276.0</ele><time>2026-04-29T13:21:58Z</time></trkpt><trkpt lat="27.817868770679063" lon="-11.639182540379826"><ele>276.0</ele><time>2026-04-29T13:21:59Z</time></trkpt><trkpt lat="27.81765878122254" lon="-11.639240947388958"><ele>276.0</ele><time>2026-04-29T13:22:00Z</time></trkpt><trkpt lat="27.817442526037468" lon="-11.639306820761163"><ele>275.6666666666667</ele><time>2026-04-29T13:22:01Z</time></trkpt><trkpt lat="27.817221761918823" lon="-11.639373567604757"><ele>275.33333333333337</ele><time>2026-04-29T13:22:02Z</time></trkpt><trkpt lat="27.817013934845082" lon="-11.639426198894789"><ele>275.0</ele><time>2026-04-29T13:22:03Z</time></trkpt><trkpt lat="27.8167940119419" lon="-11.639492477296987"><ele>275.0</ele><time>2026-04-29T13:22:04Z</time></trkpt><trkpt lat="27.816563129712595" lon="-11.639557091357492"><ele>275.0</ele><time>2026-04-29T13:22:05Z</time></trkpt><trkpt lat="27.81632826051858" lon="-11.639619282566423"><ele>275.0</ele><time>2026-04-29T13:22:06Z</time></trkpt><trkpt lat="27.81608942137503" lon="-11.639694850482899"><ele>275.0</ele><time>2026-04-29T13:22:07Z</time></trkpt><trkpt lat="27.815853058905233" lon="-11.639771126659932"><ele>276.0</ele><time>2026-04-29T13:22:08Z</time></trkpt><trkpt lat="27.815609441705707" lon="-11.639858562785575"><ele>277.0</ele><time>2026-04-29T13:22:09Z</time></trkpt><trkpt lat="27.81534219357811" lon="-11.639938012158169"><ele>275.5</ele><time>2026-04-29T13:22:10Z</time></trkpt><trkpt lat="27.815101141061977" lon="-11.6400160351499"><ele>274.0</ele><time>2026-04-29T13:22:11Z</time></trkpt><trkpt lat="27.814883373249064" lon="-11.640089412839686"><ele>274.0</ele><time>2026-04-29T13:22:12Z</time></trkpt><trkpt lat="27.814669023232643" lon="-11.640159220958452"><ele>274.0</ele><time>2026-04-29T13:22:13Z</time></trkpt><trkpt lat="27.814477458974086" lon="-11.640217554862177"><ele>274.0</ele><time>2026-04-29T13:22:14Z</time></trkpt><trkpt lat="27.814295942615235" lon="-11.640280042996944"><ele>275.0</ele><time>2026-04-29T13:22:15Z</time></trkpt><trkpt lat="27.814132644401912" lon="-11.640333052658772"><ele>276.0</ele><time>2026-04-29T13:22:16Z</time></trkpt><trkpt lat="27.813975828541032" lon="-11.640388810534867"><ele>277.0</ele><time>2026-04-29T13:22:17Z</time></trkpt><trkpt lat="27.813838033751598" lon="-11.640443502644759"><ele>277.0</ele><time>2026-04-29T13:22:18Z</time></trkpt><trkpt lat="27.813686107110247" lon="-11.640509497440766"><ele>277.0</ele><time>2026-04-29T13:22:19Z</time></trkpt><trkpt lat="27.813526288561636" lon="-11.640584687318752"><ele>277.0</ele><time>2026-04-29T13:22:20Z</time></trkpt><trkpt lat="27.813362282468038" lon="-11.640646657526265"><ele>277.0</ele><time>2026-04-29T13:22:21Z</time></trkpt><trkpt lat="27.8132096976866" lon="-11.640686839459777"><ele>277.0</ele><time>2026-04-29T13:22:22Z</time></trkpt><trkpt lat="27.813061622017788" lon="-11.640708607740581"><ele>277.0</ele><time>2026-04-29T13:22:23Z</time></trkpt><trkpt lat="27.812908599540737" lon="-11.640719437529242"><ele>277.0</ele><time>2026-04-29T13:22:24Z</time></trkpt><trkpt lat="27.812765034555387" lon="-11.64071265672254"><ele>277.0</ele><time>2026-04-29T13:22:25Z</time></trkpt><trkpt lat="27.812612974426884" lon="-11.640688102287875"><ele>277.0</ele><time>2026-04-29T13:22:26Z</time></trkpt><trkpt lat="27.812443709511538" lon="-11.640644355348233"><ele>275.66666666666663</ele><time>2026-04-29T13:22:27Z</time></trkpt><trkpt lat="27.812248158607833" lon="-11.640597597342115"><ele>274.3333333333333</ele><time>2026-04-29T13:22:28Z</time></trkpt><trkpt lat="27.812070034084545" lon="-11.640556842858468"><ele>273.0</ele><time>2026-04-29T13:22:29Z</time></trkpt><trkpt lat="27.811910481823713" lon="-11.640518554788432"><ele>273.75</ele><time>2026-04-29T13:22:30Z</time></trkpt><trkpt lat="27.81176477567554" lon="-11.640475669428314"><ele>274.5</ele><time>2026-04-29T13:22:31Z</time></trkpt><trkpt lat="27.8116219227125" lon="-11.640436825091525"><ele>275.25</ele><time>2026-04-29T13:22:32Z</time></trkpt><trkpt lat="27.811484187152544" lon="-11.640395704238967"><ele>276.0</ele><time>2026-04-29T13:22:33Z</time></trkpt><trkpt lat="27.811336373289258" lon="-11.640356067433045"><ele>276.0</ele><time>2026-04-29T13:22:34Z</time></trkpt><trkpt lat="27.811168556793152" lon="-11.640322903658204"><ele>276.0</ele><time>2026-04-29T13:22:35Z</time></trkpt><trkpt lat="27.810985491751293" lon="-11.640289470982667"><ele>276.0</ele><time>2026-04-29T13:22:36Z</time></trkpt><trkpt lat="27.81078113327932" lon="-11.640253871701955"><ele>275.3333333333333</ele><time>2026-04-29T13:22:37Z</time></trkpt><trkpt lat="27.810585595447332" lon="-11.640219077000378"><ele>274.66666666666663</ele><time>2026-04-29T13:22:38Z</time></trkpt><trkpt lat="27.810403358478087" lon="-11.640187807921217"><ele>274.0</ele><time>2026-04-29T13:22:39Z</time></trkpt><trkpt lat="27.81020890688183" lon="-11.640153888829921"><ele>274.3333333333333</ele><time>2026-04-29T13:22:40Z</time></trkpt><trkpt lat="27.81002718026394" lon="-11.640120391136909"><ele>274.6666666666667</ele><time>2026-04-29T13:22:41Z</time></trkpt><trkpt lat="27.809837560873017" lon="-11.64008951315309"><ele>275.0</ele><time>2026-04-29T13:22:42Z</time></trkpt><trkpt lat="27.809635450850685" lon="-11.640058350385226"><ele>275.0</ele><time>2026-04-29T13:22:43Z</time></trkpt><trkpt lat="27.809420737132367" lon="-11.640028992921929"><ele>275.0</ele><time>2026-04-29T13:22:44Z</time></trkpt><trkpt lat="27.809188120320165" lon="-11.640001602652047"><ele>275.0</ele><time>2026-04-29T13:22:45Z</time></trkpt><trkpt lat="27.808981749700717" lon="-11.639967300245422"><ele>275.0</ele><time>2026-04-29T13:22:46Z</time></trkpt><trkpt lat="27.808783884204257" lon="-11.639933278199091"><ele>275.0</ele><time>2026-04-29T13:22:47Z</time></trkpt><trkpt lat="27.808625255504726" lon="-11.639895338974043"><ele>275.0</ele><time>2026-04-29T13:22:48Z</time></trkpt><trkpt lat="27.808425309068635" lon="-11.639863017217474"><ele>275.0</ele><time>2026-04-29T13:22:49Z</time></trkpt><trkpt lat="27.808225275997508" lon="-11.63982982146869"><ele>275.0</ele><time>2026-04-29T13:22:50Z</time></trkpt><trkpt lat="27.808021663686894" lon="-11.639796095887165"><ele>275.0</ele><time>2026-04-29T13:22:51Z</time></trkpt><trkpt lat="27.80782504241423" lon="-11.639765445537376"><ele>275.0</ele><time>2026-04-29T13:22:52Z</time></trkpt><trkpt lat="27.807639572948563" lon="-11.639743383656116"><ele>275.0</ele><time>2026-04-29T13:22:53Z</time></trkpt><trkpt lat="27.807472112449084" lon="-11.639721126252523"><ele>274.75</ele><time>2026-04-29T13:22:54Z</time></trkpt><trkpt lat="27.807316688038455" lon="-11.639701330801183"><ele>274.5</ele><time>2026-04-29T13:22:55Z</time></trkpt><trkpt lat="27.80717277684098" lon="-11.639680263541047"><ele>274.25</ele><time>2026-04-29T13:22:56Z</time></trkpt><trkpt lat="27.807044754538683" lon="-11.63966097755539"><ele>274.0</ele><time>2026-04-29T13:22:57Z</time></trkpt><trkpt lat="27.8069271717434" lon="-11.639648971437504"><ele>273.8333333333333</ele><time>2026-04-29T13:22:58Z</time></trkpt><trkpt lat="27.80682609363413" lon="-11.639639882703557"><ele>273.66666666666663</ele><time>2026-04-29T13:22:59Z</time></trkpt><trkpt lat="27.80674046886504" lon="-11.6396341509159"><ele>273.5</ele><time>2026-04-29T13:23:00Z</time></trkpt><trkpt lat="27.80666155999399" lon="-11.639630564726593"><ele>273.3333333333333</ele><time>2026-04-29T13:23:01Z</time></trkpt><trkpt lat="27.806573646540073" lon="-11.639627029177376"><ele>273.1666666666667</ele><time>2026-04-29T13:23:02Z</time></trkpt><trkpt lat="27.80648182143438" lon="-11.639618996698717"><ele>273.0</ele><time>2026-04-29T13:23:03Z</time></trkpt><trkpt lat="27.806399482170644" lon="-11.639615824129967"><ele>273.0</ele><time>2026-04-29T13:23:04Z</time></trkpt><trkpt lat="27.806327567607966" lon="-11.639617350580453"><ele>273.0</ele><time>2026-04-29T13:23:05Z</time></trkpt><trkpt lat="27.806261005778957" lon="-11.639615831609072"><ele>273.0</ele><time>2026-04-29T13:23:06Z</time></trkpt><trkpt lat="27.80617893634255" lon="-11.639597188550558"><ele>273.0</ele><time>2026-04-29T13:23:07Z</time></trkpt><trkpt lat="27.806062958240084" lon="-11.639569755171472"><ele>273.0</ele><time>2026-04-29T13:23:08Z</time></trkpt><trkpt lat="27.805941190004134" lon="-11.639556034232296"><ele>272.0</ele><time>2026-04-29T13:23:09Z</time></trkpt><trkpt lat="27.805816634011357" lon="-11.6395418861006"><ele>271.0</ele><time>2026-04-29T13:23:10Z</time></trkpt><trkpt lat="27.805679014626907" lon="-11.639532085491075"><ele>270.0</ele><time>2026-04-29T13:23:11Z</time></trkpt><trkpt lat="27.805519286330075" lon="-11.639519051132382"><ele>269.0</ele><time>2026-04-29T13:23:12Z</time></trkpt><trkpt lat="27.805342735968384" lon="-11.639499308392137"><ele>268.75</ele><time>2026-04-29T13:23:13Z</time></trkpt><trkpt lat="27.805195554360587" lon="-11.639461437616074"><ele>268.5</ele><time>2026-04-29T13:23:14Z</time></trkpt><trkpt lat="27.80506038667612" lon="-11.639418160662501"><ele>268.25</ele><time>2026-04-29T13:23:15Z</time></trkpt><trkpt lat="27.804929740154403" lon="-11.639383502957102"><ele>268.0</ele><time>2026-04-29T13:23:16Z</time></trkpt><trkpt lat="27.804787608851367" lon="-11.639352327579221"><ele>267.25</ele><time>2026-04-29T13:23:17Z</time></trkpt><trkpt lat="27.804635910577787" lon="-11.639328623836969"><ele>266.5</ele><time>2026-04-29T13:23:18Z</time></trkpt><trkpt lat="27.80448832621089" lon="-11.639307462647851"><ele>265.75</ele><time>2026-04-29T13:23:19Z</time></trkpt><trkpt lat="27.80434303163073" lon="-11.639284688514337"><ele>265.0</ele><time>2026-04-29T13:23:20Z</time></trkpt><trkpt lat="27.80418210699749" lon="-11.639258292754585"><ele>264.0</ele><time>2026-04-29T13:23:21Z</time></trkpt><trkpt lat="27.80401733103541" lon="-11.639234586303958"><ele>263.0</ele><time>2026-04-29T13:23:22Z</time></trkpt><trkpt lat="27.80384028003576" lon="-11.639208648897574"><ele>262.0</ele><time>2026-04-29T13:23:23Z</time></trkpt><trkpt lat="27.80366101339006" lon="-11.639182654869193"><ele>261.0</ele><time>2026-04-29T13:23:24Z</time></trkpt><trkpt lat="27.803481759913392" lon="-11.639150249227232"><ele>260.0</ele><time>2026-04-29T13:23:25Z</time></trkpt><trkpt lat="27.803310257301206" lon="-11.639117192327124"><ele>259.0</ele><time>2026-04-29T13:23:26Z</time></trkpt><trkpt lat="27.803135723598878" lon="-11.63908501867112"><ele>259.0</ele><time>2026-04-29T13:23:27Z</time></trkpt><trkpt lat="27.802963388442215" lon="-11.639068691504699"><ele>259.0</ele><time>2026-04-29T13:23:28Z</time></trkpt><trkpt lat="27.802789903964346" lon="-11.639062777248286"><ele>259.0</ele><time>2026-04-29T13:23:29Z</time></trkpt><trkpt lat="27.802611305748076" lon="-11.639066066688123"><ele>257.3333333333333</ele><time>2026-04-29T13:23:30Z</time></trkpt><trkpt lat="27.80243118616681" lon="-11.639078094616144"><ele>255.66666666666669</ele><time>2026-04-29T13:23:31Z</time></trkpt><trkpt lat="27.802247250143882" lon="-11.639091693373016"><ele>254.0</ele><time>2026-04-29T13:23:32Z</time></trkpt><trkpt lat="27.80206480665211" lon="-11.63910441101551"><ele>254.0</ele><time>2026-04-29T13:23:33Z</time></trkpt><trkpt lat="27.801881238704897" lon="-11.639119859876024"><ele>254.0</ele><time>2026-04-29T13:23:34Z</time></trkpt><trkpt lat="27.80169002993523" lon="-11.639136732567701"><ele>254.0</ele><time>2026-04-29T13:23:35Z</time></trkpt><trkpt lat="27.8014852680997" lon="-11.639156936825547"><ele>253.33333333333334</ele><time>2026-04-29T13:23:36Z</time></trkpt><trkpt lat="27.801285901216296" lon="-11.639174132364934"><ele>252.66666666666669</ele><time>2026-04-29T13:23:37Z</time></trkpt><trkpt lat="27.801090232850232" lon="-11.639179658614683"><ele>252.0</ele><time>2026-04-29T13:23:38Z</time></trkpt><trkpt lat="27.800891317168706" lon="-11.639176709050638"><ele>252.0</ele><time>2026-04-29T13:23:39Z</time></trkpt><trkpt lat="27.80068996636529" lon="-11.639160000781114"><ele>252.0</ele><time>2026-04-29T13:23:40Z</time></trkpt><trkpt lat="27.800493726521104" lon="-11.639131808586495"><ele>252.0</ele><time>2026-04-29T13:23:41Z</time></trkpt><trkpt lat="27.800314618759508" lon="-11.639102980334926"><ele>252.0</ele><time>2026-04-29T13:23:42Z</time></trkpt><trkpt lat="27.800104650843014" lon="-11.63904275564269"><ele>252.0</ele><time>2026-04-29T13:23:43Z</time></trkpt><trkpt lat="27.79989709397232" lon="-11.638970944864779"><ele>252.0</ele><time>2026-04-29T13:23:44Z</time></trkpt><trkpt lat="27.799695730049873" lon="-11.638898659728754"><ele>252.0</ele><time>2026-04-29T13:23:45Z</time></trkpt><trkpt lat="27.799506805441066" lon="-11.638820694129205"><ele>252.0</ele><time>2026-04-29T13:23:46Z</time></trkpt><trkpt lat="27.79931324207818" lon="-11.638729369168185"><ele>252.0</ele><time>2026-04-29T13:23:47Z</time></trkpt><trkpt lat="27.79913020602059" lon="-11.638626067742447"><ele>252.33333333333331</ele><time>2026-04-29T13:23:48Z</time></trkpt><trkpt lat="27.79895423491564" lon="-11.638513923813344"><ele>252.66666666666666</ele><time>2026-04-29T13:23:49Z</time></trkpt><trkpt lat="27.798774027825317" lon="-11.638399800566257"><ele>253.0</ele><time>2026-04-29T13:23:50Z</time></trkpt><trkpt lat="27.798606420434247" lon="-11.63829281980902"><ele>253.33333333333331</ele><time>2026-04-29T13:23:51Z</time></trkpt><trkpt lat="27.798446270737877" lon="-11.638183927832216"><ele>253.66666666666669</ele><time>2026-04-29T13:23:52Z</time></trkpt><trkpt lat="27.798290020404433" lon="-11.638072731317601"><ele>254.0</ele><time>2026-04-29T13:23:53Z</time></trkpt><trkpt lat="27.79814430533045" lon="-11.637961669578639"><ele>254.0</ele><time>2026-04-29T13:23:54Z</time></trkpt><trkpt lat="27.7979983730724" lon="-11.637847744405645"><ele>254.0</ele><time>2026-04-29T13:23:55Z</time></trkpt><trkpt lat="27.797846289693783" lon="-11.637733330014184"><ele>254.0</ele><time>2026-04-29T13:23:56Z</time></trkpt><trkpt lat="27.797688665206046" lon="-11.637620918121065"><ele>252.66666666666669</ele><time>2026-04-29T13:23:57Z</time></trkpt><trkpt lat="27.797527844457676" lon="-11.637507656716636"><ele>251.33333333333331</ele><time>2026-04-29T13:23:58Z</time></trkpt><trkpt lat="27.797354600433007" lon="-11.637384261756589"><ele>250.0</ele><time>2026-04-29T13:23:59Z</time></trkpt><trkpt lat="27.797185455068398" lon="-11.637269417616169"><ele>250.0</ele><time>2026-04-29T13:24:00Z</time></trkpt><trkpt lat="27.79701362267338" lon="-11.637160913789241"><ele>250.0</ele><time>2026-04-29T13:24:01Z</time></trkpt><trkpt lat="27.79684301776911" lon="-11.637059826460247"><ele>250.0</ele><time>2026-04-29T13:24:02Z</time></trkpt><trkpt lat="27.796661565331355" lon="-11.636954558200589"><ele>249.33333333333331</ele><time>2026-04-29T13:24:03Z</time></trkpt><trkpt lat="27.79647702138256" lon="-11.636853232126377"><ele>248.66666666666669</ele><time>2026-04-29T13:24:04Z</time></trkpt><trkpt lat="27.796287154361348" lon="-11.636759747101909"><ele>248.0</ele><time>2026-04-29T13:24:05Z</time></trkpt><trkpt lat="27.796094384568303" lon="-11.636677472874368"><ele>247.0</ele><time>2026-04-29T13:24:06Z</time></trkpt><trkpt lat="27.795911579052763" lon="-11.636602222091678"><ele>246.0</ele><time>2026-04-29T13:24:07Z</time></trkpt><trkpt lat="27.79573519094348" lon="-11.636529170306273"><ele>245.0</ele><time>2026-04-29T13:24:08Z</time></trkpt><trkpt lat="27.795557610884448" lon="-11.636457606172506"><ele>245.0</ele><time>2026-04-29T13:24:09Z</time></trkpt><trkpt lat="27.79538323455643" lon="-11.636380889342652"><ele>245.0</ele><time>2026-04-29T13:24:10Z</time></trkpt><trkpt lat="27.795206368640702" lon="-11.636294978594814"><ele>245.0</ele><time>2026-04-29T13:24:11Z</time></trkpt><trkpt lat="27.795032214448806" lon="-11.636204146403461"><ele>245.66666666666669</ele><time>2026-04-29T13:24:12Z</time></trkpt><trkpt lat="27.79485032859552" lon="-11.636117925172158"><ele>246.33333333333331</ele><time>2026-04-29T13:24:13Z</time></trkpt><trkpt lat="27.794664078078007" lon="-11.636043213357945"><ele>247.0</ele><time>2026-04-29T13:24:14Z</time></trkpt><trkpt lat="27.794474235803328" lon="-11.635983282240671"><ele>245.66666666666666</ele><time>2026-04-29T13:24:15Z</time></trkpt><trkpt lat="27.794284506199777" lon="-11.63592827638487"><ele>244.33333333333331</ele><time>2026-04-29T13:24:16Z</time></trkpt><trkpt lat="27.794095396753942" lon="-11.635875458361033"><ele>243.0</ele><time>2026-04-29T13:24:17Z</time></trkpt><trkpt lat="27.79391806102773" lon="-11.635835685641018"><ele>243.0</ele><time>2026-04-29T13:24:18Z</time></trkpt><trkpt lat="27.79375530468754" lon="-11.63580490945247"><ele>243.0</ele><time>2026-04-29T13:24:19Z</time></trkpt><trkpt lat="27.793615603302122" lon="-11.635767726900506"><ele>243.0</ele><time>2026-04-29T13:24:20Z</time></trkpt><trkpt lat="27.79348769582588" lon="-11.635710314867692"><ele>243.0</ele><time>2026-04-29T13:24:21Z</time></trkpt><trkpt lat="27.793361181075994" lon="-11.635643624661313"><ele>243.33333333333331</ele><time>2026-04-29T13:24:22Z</time></trkpt><trkpt lat="27.79323326195122" lon="-11.635556036757816"><ele>243.66666666666666</ele><time>2026-04-29T13:24:23Z</time></trkpt><trkpt lat="27.79310397721182" lon="-11.635453722635777"><ele>244.0</ele><time>2026-04-29T13:24:24Z</time></trkpt><trkpt lat="27.792975157689053" lon="-11.635336408937139"><ele>243.33333333333331</ele><time>2026-04-29T13:24:25Z</time></trkpt><trkpt lat="27.79284118528263" lon="-11.63521205343005"><ele>242.66666666666669</ele><time>2026-04-29T13:24:26Z</time></trkpt><trkpt lat="27.792712365706915" lon="-11.63509592320594"><ele>242.0</ele><time>2026-04-29T13:24:27Z</time></trkpt><trkpt lat="27.792582030736725" lon="-11.634983061440144"><ele>240.0</ele><time>2026-04-29T13:24:28Z</time></trkpt><trkpt lat="27.792451958672032" lon="-11.634870869282667"><ele>238.0</ele><time>2026-04-29T13:24:29Z</time></trkpt><trkpt lat="27.79233236504568" lon="-11.634769172114481"><ele>236.0</ele><time>2026-04-29T13:24:30Z</time></trkpt><trkpt lat="27.79222021157504" lon="-11.634673575703152"><ele>236.0</ele><time>2026-04-29T13:24:31Z</time></trkpt><trkpt lat="27.792114620938996" lon="-11.634583607389358"><ele>236.0</ele><time>2026-04-29T13:24:32Z</time></trkpt><trkpt lat="27.792019084476323" lon="-11.634501671244852"><ele>236.0</ele><time>2026-04-29T13:24:33Z</time></trkpt><trkpt lat="27.79192297469466" lon="-11.63442305693097"><ele>236.0</ele><time>2026-04-29T13:24:34Z</time></trkpt><trkpt lat="27.791823805641197" lon="-11.634346584490489"><ele>236.66666666666669</ele><time>2026-04-29T13:24:35Z</time></trkpt><trkpt lat="27.791718851440592" lon="-11.63425630878178"><ele>237.33333333333331</ele><time>2026-04-29T13:24:36Z</time></trkpt><trkpt lat="27.791609478540956" lon="-11.634136991413833"><ele>238.0</ele><time>2026-04-29T13:24:37Z</time></trkpt><trkpt lat="27.79149174513932" lon="-11.63398772160121"><ele>238.0</ele><time>2026-04-29T13:24:38Z</time></trkpt><trkpt lat="27.791390313385246" lon="-11.633846760347016"><ele>238.0</ele><time>2026-04-29T13:24:39Z</time></trkpt><trkpt lat="27.791302539842107" lon="-11.633712655144064"><ele>238.0</ele><time>2026-04-29T13:24:40Z</time></trkpt><trkpt lat="27.791230986347305" lon="-11.633592966826626"><ele>238.0</ele><time>2026-04-29T13:24:41Z</time></trkpt><trkpt lat="27.791151864359524" lon="-11.633491722805875"><ele>238.0</ele><time>2026-04-29T13:24:42Z</time></trkpt><trkpt lat="27.791074218938924" lon="-11.633425514881628"><ele>238.0</ele><time>2026-04-29T13:24:43Z</time></trkpt><trkpt lat="27.790985412112178" lon="-11.633376075579601"><ele>238.0</ele><time>2026-04-29T13:24:44Z</time></trkpt><trkpt lat="27.790874148197272" lon="-11.63332061406787"><ele>238.0</ele><time>2026-04-29T13:24:45Z</time></trkpt><trkpt lat="27.79075972781154" lon="-11.633254351182249"><ele>238.0</ele><time>2026-04-29T13:24:46Z</time></trkpt><trkpt lat="27.79065718268253" lon="-11.633205492117645"><ele>238.0</ele><time>2026-04-29T13:24:47Z</time></trkpt><trkpt lat="27.790551642409376" lon="-11.633184352156787"><ele>238.0</ele><time>2026-04-29T13:24:48Z</time></trkpt><trkpt lat="27.790429919615605" lon="-11.633159389609027"><ele>238.0</ele><time>2026-04-29T13:24:49Z</time></trkpt><trkpt lat="27.790299950798246" lon="-11.63312710517778"><ele>238.0</ele><time>2026-04-29T13:24:50Z</time></trkpt><trkpt lat="27.790169000469717" lon="-11.633100058704015"><ele>237.75</ele><time>2026-04-29T13:24:51Z</time></trkpt><trkpt lat="27.790035984135567" lon="-11.633081369386062"><ele>237.5</ele><time>2026-04-29T13:24:52Z</time></trkpt><trkpt lat="27.789894340564693" lon="-11.63307935980194"><ele>237.25</ele><time>2026-04-29T13:24:53Z</time></trkpt><trkpt lat="27.78975636884589" lon="-11.6330710492483"><ele>237.0</ele><time>2026-04-29T13:24:54Z</time></trkpt><trkpt lat="27.789626392987266" lon="-11.633050761671953"><ele>237.0</ele><time>2026-04-29T13:24:55Z</time></trkpt><trkpt lat="27.789483749376362" lon="-11.633031679545217"><ele>237.0</ele><time>2026-04-29T13:24:56Z</time></trkpt><trkpt lat="27.789348079497056" lon="-11.633003071815315"><ele>237.0</ele><time>2026-04-29T13:24:57Z</time></trkpt><trkpt lat="27.789234906623005" lon="-11.632979220162381"><ele>237.0</ele><time>2026-04-29T13:24:58Z</time></trkpt><trkpt lat="27.78915060617419" lon="-11.632963884979521"><ele>237.16666666666666</ele><time>2026-04-29T13:24:59Z</time></trkpt><trkpt lat="27.789073163519298" lon="-11.632954237343986"><ele>237.33333333333331</ele><time>2026-04-29T13:25:00Z</time></trkpt><trkpt lat="27.789005842828303" lon="-11.632944386829173"><ele>237.5</ele><time>2026-04-29T13:25:01Z</time></trkpt><trkpt lat="27.788906623904104" lon="-11.632916097594531"><ele>237.66666666666666</ele><time>2026-04-29T13:25:03Z</time></trkpt><trkpt lat="27.788843053294748" lon="-11.632890374793792"><ele>237.83333333333331</ele><time>2026-04-29T13:25:05Z</time></trkpt><trkpt lat="27.788775235172572" lon="-11.632877347612611"><ele>238.0</ele><time>2026-04-29T13:25:08Z</time></trkpt><trkpt lat="27.788683059728427" lon="-11.632883428563398"><ele>238.0</ele><time>2026-04-29T13:34:05Z</time></trkpt><trkpt lat="27.78859622229212" lon="-11.632891338749117"><ele>238.0</ele><time>2026-04-29T13:34:06Z</time></trkpt><trkpt lat="27.78849451215774" lon="-11.63289958445019"><ele>238.0</ele><time>2026-04-29T13:34:07Z</time></trkpt><trkpt lat="27.788383792711688" lon="-11.632906086482402"><ele>238.0</ele><time>2026-04-29T13:34:08Z</time></trkpt><trkpt lat="27.788266890739934" lon="-11.632895344661248"><ele>238.0</ele><time>2026-04-29T13:34:09Z</time></trkpt><trkpt lat="27.788111752927485" lon="-11.632854915958703"><ele>239.33333333333331</ele><time>2026-04-29T13:34:10Z</time></trkpt><trkpt lat="27.787927792942188" lon="-11.632805585706596"><ele>240.66666666666669</ele><time>2026-04-29T13:34:11Z</time></trkpt><trkpt lat="27.78771938652849" lon="-11.632774020559467"><ele>242.0</ele><time>2026-04-29T13:34:12Z</time></trkpt><trkpt lat="27.787481954245198" lon="-11.632752847403909"><ele>242.5</ele><time>2026-04-29T13:34:13Z</time></trkpt><trkpt lat="27.787220978947087" lon="-11.632739749952135"><ele>243.0</ele><time>2026-04-29T13:34:14Z</time></trkpt><trkpt lat="27.78699360288964" lon="-11.632737958085901"><ele>243.66666666666669</ele><time>2026-04-29T13:34:15Z</time></trkpt><trkpt lat="27.78678461912407" lon="-11.632748031322338"><ele>244.33333333333334</ele><time>2026-04-29T13:34:16Z</time></trkpt><trkpt lat="27.78657298006083" lon="-11.632757705237744"><ele>245.0</ele><time>2026-04-29T13:34:17Z</time></trkpt><trkpt lat="27.78635367602076" lon="-11.632771338289633"><ele>245.0</ele><time>2026-04-29T13:34:18Z</time></trkpt><trkpt lat="27.786129749687884" lon="-11.632788837498516"><ele>245.0</ele><time>2026-04-29T13:34:19Z</time></trkpt><trkpt lat="27.785932448882097" lon="-11.632801074463844"><ele>245.0</ele><time>2026-04-29T13:34:20Z</time></trkpt><trkpt lat="27.785741710171514" lon="-11.632821225258482"><ele>244.33333333333334</ele><time>2026-04-29T13:34:21Z</time></trkpt><trkpt lat="27.785537837267707" lon="-11.632846993768617"><ele>243.66666666666669</ele><time>2026-04-29T13:34:22Z</time></trkpt><trkpt lat="27.78531391801059" lon="-11.632874513435436"><ele>243.0</ele><time>2026-04-29T13:34:23Z</time></trkpt><trkpt lat="27.78509234997391" lon="-11.632898341952334"><ele>245.5</ele><time>2026-04-29T13:34:24Z</time></trkpt><trkpt lat="27.784865782715404" lon="-11.632906666803278"><ele>248.0</ele><time>2026-04-29T13:34:25Z</time></trkpt><trkpt lat="27.784625642939496" lon="-11.632893740472106"><ele>248.0</ele><time>2026-04-29T13:34:26Z</time></trkpt><trkpt lat="27.78441265484518" lon="-11.632881103140633"><ele>248.0</ele><time>2026-04-29T13:34:27Z</time></trkpt><trkpt lat="27.784227018341888" lon="-11.63288081524673"><ele>248.0</ele><time>2026-04-29T13:34:28Z</time></trkpt><trkpt lat="27.784045950010768" lon="-11.63288692768837"><ele>248.33333333333334</ele><time>2026-04-29T13:34:29Z</time></trkpt><trkpt lat="27.783850909499" lon="-11.632888281925773"><ele>248.66666666666669</ele><time>2026-04-29T13:34:30Z</time></trkpt><trkpt lat="27.78364817808168" lon="-11.63288545379007"><ele>249.0</ele><time>2026-04-29T13:34:31Z</time></trkpt><trkpt lat="27.783472970466384" lon="-11.632871149795971"><ele>249.0</ele><time>2026-04-29T13:34:32Z</time></trkpt><trkpt lat="27.783316204139076" lon="-11.63286021061559"><ele>249.0</ele><time>2026-04-29T13:34:33Z</time></trkpt><trkpt lat="27.78317294006913" lon="-11.632848637094776"><ele>249.0</ele><time>2026-04-29T13:34:34Z</time></trkpt><trkpt lat="27.783028451683005" lon="-11.63283645202259"><ele>249.0</ele><time>2026-04-29T13:34:35Z</time></trkpt><trkpt lat="27.782889077855724" lon="-11.632816747266215"><ele>249.0</ele><time>2026-04-29T13:34:36Z</time></trkpt><trkpt lat="27.782741987987865" lon="-11.632792993847673"><ele>249.0</ele><time>2026-04-29T13:34:37Z</time></trkpt><trkpt lat="27.78259964289921" lon="-11.632764611208252"><ele>249.0</ele><time>2026-04-29T13:34:38Z</time></trkpt><trkpt lat="27.782463776200647" lon="-11.632720743918801"><ele>249.0</ele><time>2026-04-29T13:34:39Z</time></trkpt><trkpt lat="27.782322654892344" lon="-11.632649901818352"><ele>249.33333333333331</ele><time>2026-04-29T13:34:40Z</time></trkpt><trkpt lat="27.78217702953793" lon="-11.632553520094698"><ele>249.66666666666666</ele><time>2026-04-29T13:34:41Z</time></trkpt><trkpt lat="27.78201527859786" lon="-11.632437931806386"><ele>250.0</ele><time>2026-04-29T13:34:42Z</time></trkpt><trkpt lat="27.781849972224155" lon="-11.632332844929477"><ele>250.33333333333331</ele><time>2026-04-29T13:34:43Z</time></trkpt><trkpt lat="27.781689486584227" lon="-11.632246288591276"><ele>250.66666666666669</ele><time>2026-04-29T13:34:44Z</time></trkpt><trkpt lat="27.781513156607602" lon="-11.632161012595015"><ele>251.0</ele><time>2026-04-29T13:34:45Z</time></trkpt><trkpt lat="27.781329819003005" lon="-11.632075686482594"><ele>251.0</ele><time>2026-04-29T13:34:46Z</time></trkpt><trkpt lat="27.78115306087997" lon="-11.63200037511534"><ele>251.0</ele><time>2026-04-29T13:34:47Z</time></trkpt><trkpt lat="27.780991017302807" lon="-11.631949555852323"><ele>251.0</ele><time>2026-04-29T13:34:48Z</time></trkpt><trkpt lat="27.780807377136057" lon="-11.631907311776658"><ele>252.0</ele><time>2026-04-29T13:34:49Z</time></trkpt><trkpt lat="27.780629702109795" lon="-11.631880823490283"><ele>253.0</ele><time>2026-04-29T13:34:50Z</time></trkpt><trkpt lat="27.78044137067335" lon="-11.631881299079103"><ele>254.0</ele><time>2026-04-29T13:34:51Z</time></trkpt><trkpt lat="27.780240580750817" lon="-11.63190122146177"><ele>254.5</ele><time>2026-04-29T13:34:52Z</time></trkpt><trkpt lat="27.780064358317173" lon="-11.631910924718197"><ele>255.0</ele><time>2026-04-29T13:34:53Z</time></trkpt><trkpt lat="27.779930324140906" lon="-11.631915631300577"><ele>255.5</ele><time>2026-04-29T13:34:54Z</time></trkpt><trkpt lat="27.77983233642412" lon="-11.631930578900095"><ele>256.0</ele><time>2026-04-29T13:34:55Z</time></trkpt><trkpt lat="27.7797621876947" lon="-11.631944404259697"><ele>256.0</ele><time>2026-04-29T13:34:56Z</time></trkpt><trkpt lat="27.779656211178626" lon="-11.631956037805413"><ele>256.0</ele><time>2026-04-29T13:35:22Z</time></trkpt><trkpt lat="27.77952087477218" lon="-11.631986605984686"><ele>256.0</ele><time>2026-04-29T13:35:24Z</time></trkpt><trkpt lat="27.77942938955881" lon="-11.632007319223378"><ele>256.0</ele><time>2026-04-29T13:35:25Z</time></trkpt><trkpt lat="27.779319590072177" lon="-11.632034282865574"><ele>256.5</ele><time>2026-04-29T13:35:26Z</time></trkpt><trkpt lat="27.779200531153293" lon="-11.632058402278235"><ele>257.0</ele><time>2026-04-29T13:35:27Z</time></trkpt><trkpt lat="27.779077402002596" lon="-11.63208036002997"><ele>257.5</ele><time>2026-04-29T13:35:28Z</time></trkpt><trkpt lat="27.778953032411653" lon="-11.632101821572894"><ele>258.0</ele><time>2026-04-29T13:35:29Z</time></trkpt><trkpt lat="27.778821390644424" lon="-11.6321225061306"><ele>258.0</ele><time>2026-04-29T13:35:30Z</time></trkpt><trkpt lat="27.77869007855287" lon="-11.632163016015433"><ele>258.0</ele><time>2026-04-29T13:35:31Z</time></trkpt><trkpt lat="27.778557214358162" lon="-11.632221731909892"><ele>258.0</ele><time>2026-04-29T13:35:32Z</time></trkpt><trkpt lat="27.77840899253773" lon="-11.632265125269267"><ele>258.0</ele><time>2026-04-29T13:35:33Z</time></trkpt><trkpt lat="27.778218264443176" lon="-11.632280259119696"><ele>258.5</ele><time>2026-04-29T13:35:34Z</time></trkpt><trkpt lat="27.778050913056965" lon="-11.632290484484848"><ele>259.0</ele><time>2026-04-29T13:35:35Z</time></trkpt><trkpt lat="27.77791564967256" lon="-11.632300489527362"><ele>259.5</ele><time>2026-04-29T13:35:36Z</time></trkpt><trkpt lat="27.777791145652103" lon="-11.632308214089099"><ele>260.0</ele><time>2026-04-29T13:35:37Z</time></trkpt><trkpt lat="27.777681904089384" lon="-11.632310525211102"><ele>260.8</ele><time>2026-04-29T13:35:38Z</time></trkpt><trkpt lat="27.777581014253848" lon="-11.63230663194888"><ele>261.6</ele><time>2026-04-29T13:35:39Z</time></trkpt><trkpt lat="27.777481503416126" lon="-11.632303120930231"><ele>262.4</ele><time>2026-04-29T13:35:40Z</time></trkpt><trkpt lat="27.777375156744597" lon="-11.632302204268305"><ele>263.2</ele><time>2026-04-29T13:35:41Z</time></trkpt><trkpt lat="27.777256385098642" lon="-11.632304915885886"><ele>264.0</ele><time>2026-04-29T13:35:42Z</time></trkpt><trkpt lat="27.777119848191845" lon="-11.632310310549629"><ele>264.0</ele><time>2026-04-29T13:35:43Z</time></trkpt><trkpt lat="27.77696926923504" lon="-11.632313049109426"><ele>264.0</ele><time>2026-04-29T13:35:44Z</time></trkpt><trkpt lat="27.77679840170231" lon="-11.632308150960721"><ele>264.0</ele><time>2026-04-29T13:35:45Z</time></trkpt><trkpt lat="27.776606533362184" lon="-11.632300235705596"><ele>264.3333333333333</ele><time>2026-04-29T13:35:46Z</time></trkpt><trkpt lat="27.776408368472907" lon="-11.632294691862151"><ele>264.66666666666663</ele><time>2026-04-29T13:35:47Z</time></trkpt><trkpt lat="27.77621122173769" lon="-11.632287996987692"><ele>265.0</ele><time>2026-04-29T13:35:48Z</time></trkpt><trkpt lat="27.77601665672165" lon="-11.632281592796133"><ele>265.3333333333333</ele><time>2026-04-29T13:35:49Z</time></trkpt><trkpt lat="27.775810876696134" lon="-11.632273800950037"><ele>265.6666666666667</ele><time>2026-04-29T13:35:50Z</time></trkpt><trkpt lat="27.77560172646753" lon="-11.632264571397014"><ele>266.0</ele><time>2026-04-29T13:35:51Z</time></trkpt><trkpt lat="27.77540969744776" lon="-11.632251709965674"><ele>266.0</ele><time>2026-04-29T13:35:52Z</time></trkpt><trkpt lat="27.775236980388375" lon="-11.632237384943041"><ele>266.0</ele><time>2026-04-29T13:35:53Z</time></trkpt><trkpt lat="27.775061877512407" lon="-11.632220082791946"><ele>266.0</ele><time>2026-04-29T13:35:54Z</time></trkpt><trkpt lat="27.7748856663061" lon="-11.632210907434553"><ele>266.6666666666667</ele><time>2026-04-29T13:35:55Z</time></trkpt><trkpt lat="27.77471076894618" lon="-11.632219364902987"><ele>267.3333333333333</ele><time>2026-04-29T13:35:56Z</time></trkpt><trkpt lat="27.774559379362262" lon="-11.632246359432298"><ele>268.0</ele><time>2026-04-29T13:35:57Z</time></trkpt><trkpt lat="27.774423216937006" lon="-11.632304122667009"><ele>269.0</ele><time>2026-04-29T13:35:58Z</time></trkpt><trkpt lat="27.77428180829928" lon="-11.632382906342752"><ele>270.0</ele><time>2026-04-29T13:35:59Z</time></trkpt><trkpt lat="27.774144536961177" lon="-11.632476993358049"><ele>271.0</ele><time>2026-04-29T13:36:00Z</time></trkpt><trkpt lat="27.773994184555463" lon="-11.632593712461956"><ele>271.0</ele><time>2026-04-29T13:36:01Z</time></trkpt><trkpt lat="27.77384083867373" lon="-11.632733301680942"><ele>271.0</ele><time>2026-04-29T13:36:02Z</time></trkpt><trkpt lat="27.7736875490019" lon="-11.632857568410309"><ele>271.0</ele><time>2026-04-29T13:36:03Z</time></trkpt><trkpt lat="27.773530884431533" lon="-11.632970065844809"><ele>272.3333333333333</ele><time>2026-04-29T13:36:04Z</time></trkpt><trkpt lat="27.773378233501763" lon="-11.633081528135811"><ele>273.6666666666667</ele><time>2026-04-29T13:36:05Z</time></trkpt><trkpt lat="27.773214291637863" lon="-11.633195086802838"><ele>275.0</ele><time>2026-04-29T13:36:06Z</time></trkpt><trkpt lat="27.7730485125048" lon="-11.633313425109225"><ele>275.0</ele><time>2026-04-29T13:36:07Z</time></trkpt><trkpt lat="27.772891648207683" lon="-11.633423826404728"><ele>275.0</ele><time>2026-04-29T13:36:08Z</time></trkpt><trkpt lat="27.77273493249444" lon="-11.633533027386376"><ele>275.0</ele><time>2026-04-29T13:36:09Z</time></trkpt><trkpt lat="27.772578480987786" lon="-11.63364125136173"><ele>274.6666666666667</ele><time>2026-04-29T13:36:10Z</time></trkpt><trkpt lat="27.77242313320015" lon="-11.633746704859165"><ele>274.3333333333333</ele><time>2026-04-29T13:36:11Z</time></trkpt><trkpt lat="27.772270872285684" lon="-11.63384854885683"><ele>274.0</ele><time>2026-04-29T13:36:12Z</time></trkpt><trkpt lat="27.772116562535846" lon="-11.63395436409722"><ele>274.0</ele><time>2026-04-29T13:36:13Z</time></trkpt><trkpt lat="27.77195976464117" lon="-11.634062488780511"><ele>274.0</ele><time>2026-04-29T13:36:14Z</time></trkpt><trkpt lat="27.771800844723813" lon="-11.634177301644142"><ele>274.0</ele><time>2026-04-29T13:36:15Z</time></trkpt><trkpt lat="27.77164183845476" lon="-11.63429119925254"><ele>274.0</ele><time>2026-04-29T13:36:16Z</time></trkpt><trkpt lat="27.77147405124527" lon="-11.634405822011182"><ele>274.0</ele><time>2026-04-29T13:36:17Z</time></trkpt><trkpt lat="27.771304059618622" lon="-11.63451818618655"><ele>274.0</ele><time>2026-04-29T13:36:18Z</time></trkpt><trkpt lat="27.771126626039113" lon="-11.634630661608648"><ele>274.66666666666663</ele><time>2026-04-29T13:36:19Z</time></trkpt><trkpt lat="27.770953081199544" lon="-11.634741978604715"><ele>275.3333333333333</ele><time>2026-04-29T13:36:20Z</time></trkpt><trkpt lat="27.77077547863844" lon="-11.634854616548575"><ele>276.0</ele><time>2026-04-29T13:36:21Z</time></trkpt><trkpt lat="27.770597548004158" lon="-11.63497064251903"><ele>276.0</ele><time>2026-04-29T13:36:22Z</time></trkpt><trkpt lat="27.77041102477596" lon="-11.635093363551272"><ele>276.0</ele><time>2026-04-29T13:36:23Z</time></trkpt><trkpt lat="27.770201434832096" lon="-11.635227743131377"><ele>275.5</ele><time>2026-04-29T13:36:24Z</time></trkpt><trkpt lat="27.769964974854584" lon="-11.635380911976364"><ele>275.0</ele><time>2026-04-29T13:36:25Z</time></trkpt><trkpt lat="27.76972331158406" lon="-11.635536897168022"><ele>275.0</ele><time>2026-04-29T13:36:26Z</time></trkpt><trkpt lat="27.76947143560088" lon="-11.635697669011117"><ele>275.0</ele><time>2026-04-29T13:36:27Z</time></trkpt><trkpt lat="27.769216390984536" lon="-11.635860635907207"><ele>275.0</ele><time>2026-04-29T13:36:28Z</time></trkpt><trkpt lat="27.768968574889993" lon="-11.636012548932523"><ele>275.0</ele><time>2026-04-29T13:36:29Z</time></trkpt><trkpt lat="27.768722650846044" lon="-11.63617053881197"><ele>275.0</ele><time>2026-04-29T13:36:30Z</time></trkpt><trkpt lat="27.76848926062801" lon="-11.63632625452528"><ele>275.0</ele><time>2026-04-29T13:36:31Z</time></trkpt><trkpt lat="27.76825456488777" lon="-11.636487512196023"><ele>275.0</ele><time>2026-04-29T13:36:32Z</time></trkpt><trkpt lat="27.768021214978095" lon="-11.63664674022066"><ele>275.0</ele><time>2026-04-29T13:36:33Z</time></trkpt><trkpt lat="27.767795037383134" lon="-11.636801104112012"><ele>275.0</ele><time>2026-04-29T13:36:34Z</time></trkpt><trkpt lat="27.76757245141938" lon="-11.636953966234861"><ele>275.0</ele><time>2026-04-29T13:36:35Z</time></trkpt><trkpt lat="27.7673649166267" lon="-11.637103190430842"><ele>275.0</ele><time>2026-04-29T13:36:36Z</time></trkpt><trkpt lat="27.76716828181886" lon="-11.63724912398673"><ele>275.0</ele><time>2026-04-29T13:36:37Z</time></trkpt><trkpt lat="27.76695681472766" lon="-11.637413645276686"><ele>276.0</ele><time>2026-04-29T13:36:38Z</time></trkpt><trkpt lat="27.766735173006445" lon="-11.63759799072283"><ele>277.0</ele><time>2026-04-29T13:36:39Z</time></trkpt><trkpt lat="27.76651037857643" lon="-11.637779439577079"><ele>277.0</ele><time>2026-04-29T13:36:40Z</time></trkpt><trkpt lat="27.766288797204368" lon="-11.637955673706239"><ele>277.0</ele><time>2026-04-29T13:36:41Z</time></trkpt><trkpt lat="27.76609374985424" lon="-11.638115790433327"><ele>276.66666666666663</ele><time>2026-04-29T13:36:42Z</time></trkpt><trkpt lat="27.76592258700485" lon="-11.63826786526413"><ele>276.3333333333333</ele><time>2026-04-29T13:36:43Z</time></trkpt><trkpt lat="27.765768966330466" lon="-11.638411316506785"><ele>276.0</ele><time>2026-04-29T13:36:44Z</time></trkpt><trkpt lat="27.76562764093917" lon="-11.638556926693"><ele>276.6666666666667</ele><time>2026-04-29T13:36:45Z</time></trkpt><trkpt lat="27.7655044947578" lon="-11.638704275559752"><ele>277.33333333333337</ele><time>2026-04-29T13:36:46Z</time></trkpt><trkpt lat="27.76537858396237" lon="-11.638867032124148"><ele>278.0</ele><time>2026-04-29T13:36:47Z</time></trkpt><trkpt lat="27.7652475694123" lon="-11.639044427801604"><ele>278.0</ele><time>2026-04-29T13:36:48Z</time></trkpt><trkpt lat="27.765108646616753" lon="-11.639241599652237"><ele>278.0</ele><time>2026-04-29T13:36:49Z</time></trkpt><trkpt lat="27.764968531273805" lon="-11.639441985882705"><ele>278.0</ele><time>2026-04-29T13:36:50Z</time></trkpt><trkpt lat="27.76483690509223" lon="-11.639639710824936"><ele>279.0</ele><time>2026-04-29T13:36:51Z</time></trkpt><trkpt lat="27.764693262935527" lon="-11.639863200031144"><ele>280.0</ele><time>2026-04-29T13:36:52Z</time></trkpt><trkpt lat="27.764555484925747" lon="-11.640094019811098"><ele>279.5</ele><time>2026-04-29T13:36:53Z</time></trkpt><trkpt lat="27.76441632658007" lon="-11.640318360497703"><ele>279.0</ele><time>2026-04-29T13:36:54Z</time></trkpt><trkpt lat="27.764274691646538" lon="-11.640535387648987"><ele>280.0</ele><time>2026-04-29T13:36:55Z</time></trkpt><trkpt lat="27.764132175123912" lon="-11.640748592467189"><ele>281.0</ele><time>2026-04-29T13:36:56Z</time></trkpt><trkpt lat="27.7640026043451" lon="-11.640948600615646"><ele>281.0</ele><time>2026-04-29T13:36:57Z</time></trkpt><trkpt lat="27.76387135083653" lon="-11.641146779768025"><ele>281.0</ele><time>2026-04-29T13:36:58Z</time></trkpt><trkpt lat="27.76374759024105" lon="-11.64134275884306"><ele>281.0</ele><time>2026-04-29T13:36:59Z</time></trkpt><trkpt lat="27.763628483103492" lon="-11.641534299707798"><ele>280.33333333333337</ele><time>2026-04-29T13:37:00Z</time></trkpt><trkpt lat="27.76351047259937" lon="-11.641718746133098"><ele>279.6666666666667</ele><time>2026-04-29T13:37:01Z</time></trkpt><trkpt lat="27.763390585799552" lon="-11.641900047596305"><ele>279.0</ele><time>2026-04-29T13:37:02Z</time></trkpt><trkpt lat="27.76326861556654" lon="-11.642082005976999"><ele>279.0</ele><time>2026-04-29T13:37:03Z</time></trkpt><trkpt lat="27.76314329726424" lon="-11.64227153719872"><ele>279.0</ele><time>2026-04-29T13:37:04Z</time></trkpt><trkpt lat="27.763008418944874" lon="-11.642467175571486"><ele>279.0</ele><time>2026-04-29T13:37:05Z</time></trkpt><trkpt lat="27.762878125489266" lon="-11.64265012255935"><ele>279.3333333333333</ele><time>2026-04-29T13:37:06Z</time></trkpt><trkpt lat="27.762746909671883" lon="-11.642833771809087"><ele>279.66666666666663</ele><time>2026-04-29T13:37:07Z</time></trkpt><trkpt lat="27.7626023286223" lon="-11.643028184858037"><ele>280.0</ele><time>2026-04-29T13:37:08Z</time></trkpt><trkpt lat="27.762459092665985" lon="-11.643218980255522"><ele>280.0</ele><time>2026-04-29T13:37:09Z</time></trkpt><trkpt lat="27.76231159823328" lon="-11.643404677254214"><ele>280.0</ele><time>2026-04-29T13:37:10Z</time></trkpt><trkpt lat="27.762159266668828" lon="-11.643593722620638"><ele>280.0</ele><time>2026-04-29T13:37:11Z</time></trkpt><trkpt lat="27.762006334013634" lon="-11.643779596211136"><ele>280.5</ele><time>2026-04-29T13:37:12Z</time></trkpt><trkpt lat="27.761846988549422" lon="-11.643975370748224"><ele>281.0</ele><time>2026-04-29T13:37:13Z</time></trkpt><trkpt lat="27.761694470040645" lon="-11.644164706204258"><ele>281.0</ele><time>2026-04-29T13:37:14Z</time></trkpt><trkpt lat="27.76153448618982" lon="-11.644349479855498"><ele>281.0</ele><time>2026-04-29T13:37:15Z</time></trkpt><trkpt lat="27.761394856789412" lon="-11.64453404443238"><ele>281.0</ele><time>2026-04-29T13:37:16Z</time></trkpt><trkpt lat="27.76126004078819" lon="-11.644726983898547"><ele>281.0</ele><time>2026-04-29T13:37:17Z</time></trkpt><trkpt lat="27.76113085982935" lon="-11.644917447288062"><ele>281.0</ele><time>2026-04-29T13:37:18Z</time></trkpt><trkpt lat="27.761002368094932" lon="-11.645107058820267"><ele>281.0</ele><time>2026-04-29T13:37:19Z</time></trkpt><trkpt lat="27.760871395923303" lon="-11.64530734918851"><ele>281.33333333333337</ele><time>2026-04-29T13:37:20Z</time></trkpt><trkpt lat="27.760745155956496" lon="-11.645506284564657"><ele>281.6666666666667</ele><time>2026-04-29T13:37:21Z</time></trkpt><trkpt lat="27.760626130669685" lon="-11.645696179030105"><ele>282.0</ele><time>2026-04-29T13:37:22Z</time></trkpt><trkpt lat="27.760506934340643" lon="-11.645876408721001"><ele>282.0</ele><time>2026-04-29T13:37:23Z</time></trkpt><trkpt lat="27.76038762156671" lon="-11.646062786190274"><ele>282.0</ele><time>2026-04-29T13:37:24Z</time></trkpt><trkpt lat="27.760263599854788" lon="-11.646243842224179"><ele>282.0</ele><time>2026-04-29T13:37:25Z</time></trkpt><trkpt lat="27.76013307471484" lon="-11.646428939113369"><ele>282.0</ele><time>2026-04-29T13:37:26Z</time></trkpt><trkpt lat="27.76000382416201" lon="-11.64661716170387"><ele>282.0</ele><time>2026-04-29T13:37:27Z</time></trkpt><trkpt lat="27.759878221359912" lon="-11.646791992349346"><ele>282.0</ele><time>2026-04-29T13:37:28Z</time></trkpt><trkpt lat="27.75975700634817" lon="-11.646966530581699"><ele>282.3333333333333</ele><time>2026-04-29T13:37:29Z</time></trkpt><trkpt lat="27.759645443723574" lon="-11.647132896497675"><ele>282.66666666666663</ele><time>2026-04-29T13:37:30Z</time></trkpt><trkpt lat="27.75954656117631" lon="-11.647289065291881"><ele>283.0</ele><time>2026-04-29T13:37:31Z</time></trkpt><trkpt lat="27.7594469817113" lon="-11.647435382197767"><ele>283.0</ele><time>2026-04-29T13:37:32Z</time></trkpt><trkpt lat="27.759353446075064" lon="-11.647586305902497"><ele>283.0</ele><time>2026-04-29T13:37:33Z</time></trkpt><trkpt lat="27.75926512530986" lon="-11.64774870227648"><ele>283.0</ele><time>2026-04-29T13:37:34Z</time></trkpt><trkpt lat="27.759177850010207" lon="-11.647922658116002"><ele>283.0</ele><time>2026-04-29T13:37:35Z</time></trkpt><trkpt lat="27.759093706312076" lon="-11.648105442127326"><ele>283.0</ele><time>2026-04-29T13:37:36Z</time></trkpt><trkpt lat="27.759018994442133" lon="-11.648311611789184"><ele>283.0</ele><time>2026-04-29T13:37:37Z</time></trkpt><trkpt lat="27.758951563575057" lon="-11.648559986759317"><ele>282.66666666666663</ele><time>2026-04-29T13:37:38Z</time></trkpt><trkpt lat="27.75888979464189" lon="-11.648806268421385"><ele>282.3333333333333</ele><time>2026-04-29T13:37:39Z</time></trkpt><trkpt lat="27.758831428597322" lon="-11.649021734199039"><ele>282.0</ele><time>2026-04-29T13:37:40Z</time></trkpt><trkpt lat="27.75877004903766" lon="-11.64922912596085"><ele>282.0</ele><time>2026-04-29T13:37:41Z</time></trkpt><trkpt lat="27.75871175359452" lon="-11.64941601514637"><ele>282.0</ele><time>2026-04-29T13:37:42Z</time></trkpt><trkpt lat="27.758650838172155" lon="-11.649601829229418"><ele>282.0</ele><time>2026-04-29T13:37:43Z</time></trkpt><trkpt lat="27.758573958147586" lon="-11.649784956554596"><ele>282.6666666666667</ele><time>2026-04-29T13:37:44Z</time></trkpt><trkpt lat="27.758478200749504" lon="-11.649969480178294"><ele>283.33333333333337</ele><time>2026-04-29T13:37:45Z</time></trkpt><trkpt lat="27.758371589810967" lon="-11.650162915837923"><ele>284.0</ele><time>2026-04-29T13:37:46Z</time></trkpt><trkpt lat="27.758267157695425" lon="-11.650367145394304"><ele>284.33333333333337</ele><time>2026-04-29T13:37:47Z</time></trkpt><trkpt lat="27.758180884560296" lon="-11.650552627150542"><ele>284.6666666666667</ele><time>2026-04-29T13:37:48Z</time></trkpt><trkpt lat="27.758103808719056" lon="-11.650738545437223"><ele>285.0</ele><time>2026-04-29T13:37:49Z</time></trkpt><trkpt lat="27.758023296024216" lon="-11.650932688784934"><ele>284.6666666666667</ele><time>2026-04-29T13:37:50Z</time></trkpt><trkpt lat="27.757945873784568" lon="-11.651124437800647"><ele>284.33333333333337</ele><time>2026-04-29T13:37:51Z</time></trkpt><trkpt lat="27.757869290824868" lon="-11.65131895487326"><ele>284.0</ele><time>2026-04-29T13:37:52Z</time></trkpt><trkpt lat="27.75780294121581" lon="-11.651509171717906"><ele>284.0</ele><time>2026-04-29T13:37:53Z</time></trkpt><trkpt lat="27.75773822208584" lon="-11.651698342155818"><ele>284.0</ele><time>2026-04-29T13:37:54Z</time></trkpt><trkpt lat="27.757668824118888" lon="-11.651891282441216"><ele>284.0</ele><time>2026-04-29T13:37:55Z</time></trkpt><trkpt lat="27.7575916824451" lon="-11.65207979823522"><ele>283.33333333333337</ele><time>2026-04-29T13:37:56Z</time></trkpt><trkpt lat="27.757512928073023" lon="-11.652259269945475"><ele>282.6666666666667</ele><time>2026-04-29T13:37:57Z</time></trkpt><trkpt lat="27.75743646558818" lon="-11.65242708312045"><ele>282.0</ele><time>2026-04-29T13:37:58Z</time></trkpt><trkpt lat="27.757347349991964" lon="-11.652600612314261"><ele>282.0</ele><time>2026-04-29T13:37:59Z</time></trkpt><trkpt lat="27.757251663509635" lon="-11.652770033398884"><ele>282.0</ele><time>2026-04-29T13:38:00Z</time></trkpt><trkpt lat="27.757158281823607" lon="-11.652926186593922"><ele>282.0</ele><time>2026-04-29T13:38:01Z</time></trkpt><trkpt lat="27.757045168754882" lon="-11.653086051325928"><ele>282.0</ele><time>2026-04-29T13:38:02Z</time></trkpt><trkpt lat="27.75692686466336" lon="-11.653243618178818"><ele>282.0</ele><time>2026-04-29T13:38:03Z</time></trkpt><trkpt lat="27.756807772309298" lon="-11.653399169093442"><ele>282.0</ele><time>2026-04-29T13:38:04Z</time></trkpt><trkpt lat="27.756686731244145" lon="-11.653558338454125"><ele>282.6666666666667</ele><time>2026-04-29T13:38:05Z</time></trkpt><trkpt lat="27.75656609318842" lon="-11.653714914353202"><ele>283.33333333333337</ele><time>2026-04-29T13:38:06Z</time></trkpt><trkpt lat="27.75644380963574" lon="-11.653870368155273"><ele>284.0</ele><time>2026-04-29T13:38:07Z</time></trkpt><trkpt lat="27.75632166938695" lon="-11.654022769844444"><ele>284.0</ele><time>2026-04-29T13:38:08Z</time></trkpt><trkpt lat="27.756183418132483" lon="-11.654177864736978"><ele>284.0</ele><time>2026-04-29T13:38:09Z</time></trkpt><trkpt lat="27.756042488674396" lon="-11.654333385371586"><ele>284.0</ele><time>2026-04-29T13:38:10Z</time></trkpt><trkpt lat="27.75590634634486" lon="-11.654501051343782"><ele>284.0</ele><time>2026-04-29T13:38:11Z</time></trkpt><trkpt lat="27.75580431139258" lon="-11.654667021803283"><ele>284.0</ele><time>2026-04-29T13:38:12Z</time></trkpt><trkpt lat="27.75570582768805" lon="-11.654839761133768"><ele>284.0</ele><time>2026-04-29T13:38:13Z</time></trkpt><trkpt lat="27.755607502845372" lon="-11.655025546047423"><ele>284.0</ele><time>2026-04-29T13:38:14Z</time></trkpt><trkpt lat="27.75551544113323" lon="-11.655208872392949"><ele>284.0</ele><time>2026-04-29T13:38:15Z</time></trkpt><trkpt lat="27.755413924791323" lon="-11.655389559738174"><ele>284.0</ele><time>2026-04-29T13:38:16Z</time></trkpt><trkpt lat="27.755306057634158" lon="-11.655562963116308"><ele>284.0</ele><time>2026-04-29T13:38:17Z</time></trkpt><trkpt lat="27.7552033136619" lon="-11.65572403427282"><ele>284.0</ele><time>2026-04-29T13:38:18Z</time></trkpt><trkpt lat="27.75510411688481" lon="-11.655890515630183"><ele>284.0</ele><time>2026-04-29T13:38:19Z</time></trkpt><trkpt lat="27.755008717151544" lon="-11.656067814262737"><ele>284.0</ele><time>2026-04-29T13:38:20Z</time></trkpt><trkpt lat="27.75491537432281" lon="-11.65624541747905"><ele>284.0</ele><time>2026-04-29T13:38:21Z</time></trkpt><trkpt lat="27.75482127558728" lon="-11.656423021863942"><ele>284.0</ele><time>2026-04-29T13:38:22Z</time></trkpt><trkpt lat="27.754735913558523" lon="-11.656564348132815"><ele>284.0</ele><time>2026-04-29T13:38:23Z</time></trkpt><trkpt lat="27.754620863526576" lon="-11.656719482937959"><ele>284.0</ele><time>2026-04-29T13:38:24Z</time></trkpt><trkpt lat="27.754508068805233" lon="-11.656883861023639"><ele>284.0</ele><time>2026-04-29T13:38:25Z</time></trkpt><trkpt lat="27.754398672526005" lon="-11.6570521405153"><ele>284.0</ele><time>2026-04-29T13:38:26Z</time></trkpt><trkpt lat="27.754291472465642" lon="-11.65725483625794"><ele>284.0</ele><time>2026-04-29T13:38:27Z</time></trkpt><trkpt lat="27.754185291374476" lon="-11.657462410798944"><ele>284.0</ele><time>2026-04-29T13:38:28Z</time></trkpt><trkpt lat="27.754072773589343" lon="-11.6576681261606"><ele>284.0</ele><time>2026-04-29T13:38:29Z</time></trkpt><trkpt lat="27.753943235907517" lon="-11.657878824967323"><ele>284.0</ele><time>2026-04-29T13:38:30Z</time></trkpt><trkpt lat="27.753810804612197" lon="-11.658090835446538"><ele>284.0</ele><time>2026-04-29T13:38:31Z</time></trkpt><trkpt lat="27.75368274047661" lon="-11.658302804587436"><ele>284.0</ele><time>2026-04-29T13:38:32Z</time></trkpt><trkpt lat="27.753555134851943" lon="-11.658517346759218"><ele>284.5</ele><time>2026-04-29T13:38:33Z</time></trkpt><trkpt lat="27.753414729238887" lon="-11.658742203387238"><ele>285.0</ele><time>2026-04-29T13:38:34Z</time></trkpt><trkpt lat="27.753273001302478" lon="-11.658957971458685"><ele>285.0</ele><time>2026-04-29T13:38:35Z</time></trkpt><trkpt lat="27.75313616717487" lon="-11.659158875325703"><ele>285.0</ele><time>2026-04-29T13:38:36Z</time></trkpt><trkpt lat="27.752997590213862" lon="-11.659357389543167"><ele>285.0</ele><time>2026-04-29T13:38:37Z</time></trkpt><trkpt lat="27.752853541134016" lon="-11.659569787276698"><ele>285.0</ele><time>2026-04-29T13:38:38Z</time></trkpt><trkpt lat="27.752720983981174" lon="-11.659772719041417"><ele>285.0</ele><time>2026-04-29T13:38:39Z</time></trkpt><trkpt lat="27.752586539234432" lon="-11.65998137689672"><ele>285.0</ele><time>2026-04-29T13:38:40Z</time></trkpt><trkpt lat="27.752456897856888" lon="-11.660184633961892"><ele>285.0</ele><time>2026-04-29T13:38:41Z</time></trkpt><trkpt lat="27.75233137326515" lon="-11.660385996632284"><ele>285.0</ele><time>2026-04-29T13:38:42Z</time></trkpt><trkpt lat="27.75219911638574" lon="-11.66058180580636"><ele>285.5</ele><time>2026-04-29T13:38:43Z</time></trkpt><trkpt lat="27.752051882780343" lon="-11.660792286379099"><ele>286.0</ele><time>2026-04-29T13:38:44Z</time></trkpt><trkpt lat="27.751906374427744" lon="-11.661009531336772"><ele>285.0</ele><time>2026-04-29T13:38:45Z</time></trkpt><trkpt lat="27.751764250867613" lon="-11.661223664749889"><ele>284.0</ele><time>2026-04-29T13:38:46Z</time></trkpt><trkpt lat="27.75162610971908" lon="-11.661436620653616"><ele>284.0</ele><time>2026-04-29T13:38:47Z</time></trkpt><trkpt lat="27.751482789709836" lon="-11.661655406469434"><ele>284.0</ele><time>2026-04-29T13:38:48Z</time></trkpt><trkpt lat="27.751348751772035" lon="-11.661862815119223"><ele>284.33333333333337</ele><time>2026-04-29T13:38:49Z</time></trkpt><trkpt lat="27.75121840202461" lon="-11.662063953913664"><ele>284.6666666666667</ele><time>2026-04-29T13:38:50Z</time></trkpt><trkpt lat="27.751086077794344" lon="-11.662264412864154"><ele>285.0</ele><time>2026-04-29T13:38:51Z</time></trkpt><trkpt lat="27.75095155568146" lon="-11.662466452660338"><ele>285.0</ele><time>2026-04-29T13:38:52Z</time></trkpt><trkpt lat="27.750820665749345" lon="-11.66267598871272"><ele>285.0</ele><time>2026-04-29T13:38:53Z</time></trkpt><trkpt lat="27.75068790563553" lon="-11.662892020423115"><ele>285.0</ele><time>2026-04-29T13:38:54Z</time></trkpt><trkpt lat="27.750554253614567" lon="-11.663109064312987"><ele>285.0</ele><time>2026-04-29T13:38:55Z</time></trkpt><trkpt lat="27.75042753720126" lon="-11.66331345464842"><ele>285.0</ele><time>2026-04-29T13:38:56Z</time></trkpt><trkpt lat="27.750296674585538" lon="-11.663515601965212"><ele>285.0</ele><time>2026-04-29T13:38:57Z</time></trkpt><trkpt lat="27.750167380092766" lon="-11.663717347937164"><ele>285.0</ele><time>2026-04-29T13:38:58Z</time></trkpt><trkpt lat="27.75005275169655" lon="-11.663899727574679"><ele>285.3333333333333</ele><time>2026-04-29T13:38:59Z</time></trkpt><trkpt lat="27.749935524808045" lon="-11.664077138456134"><ele>285.66666666666663</ele><time>2026-04-29T13:39:00Z</time></trkpt><trkpt lat="27.74980085922557" lon="-11.664263475697204"><ele>286.0</ele><time>2026-04-29T13:39:01Z</time></trkpt><trkpt lat="27.74966313338844" lon="-11.66445259453709"><ele>286.0</ele><time>2026-04-29T13:39:02Z</time></trkpt><trkpt lat="27.74952219703146" lon="-11.664634280858065"><ele>286.0</ele><time>2026-04-29T13:39:03Z</time></trkpt><trkpt lat="27.749381845810067" lon="-11.664811736360075"><ele>286.0</ele><time>2026-04-29T13:39:04Z</time></trkpt><trkpt lat="27.74924222125237" lon="-11.664985964575218"><ele>286.0</ele><time>2026-04-29T13:39:05Z</time></trkpt><trkpt lat="27.749098392829055" lon="-11.665158660517609"><ele>286.0</ele><time>2026-04-29T13:39:06Z</time></trkpt><trkpt lat="27.74895481059143" lon="-11.665313508409435"><ele>286.0</ele><time>2026-04-29T13:39:07Z</time></trkpt><trkpt lat="27.748792573363982" lon="-11.665483457733224"><ele>286.3333333333333</ele><time>2026-04-29T13:39:08Z</time></trkpt><trkpt lat="27.748634507816067" lon="-11.665646716675141"><ele>286.6666666666667</ele><time>2026-04-29T13:39:09Z</time></trkpt><trkpt lat="27.748476571464316" lon="-11.665821571089804"><ele>287.0</ele><time>2026-04-29T13:39:10Z</time></trkpt><trkpt lat="27.748324736995446" lon="-11.665990265415068"><ele>287.6666666666667</ele><time>2026-04-29T13:39:11Z</time></trkpt><trkpt lat="27.74817204340553" lon="-11.66615716372438"><ele>288.3333333333333</ele><time>2026-04-29T13:39:12Z</time></trkpt><trkpt lat="27.748010037975696" lon="-11.666332291224178"><ele>289.0</ele><time>2026-04-29T13:39:13Z</time></trkpt><trkpt lat="27.74783875285667" lon="-11.666510480689917"><ele>288.0</ele><time>2026-04-29T13:39:14Z</time></trkpt><trkpt lat="27.747653549012863" lon="-11.666699734493033"><ele>287.0</ele><time>2026-04-29T13:39:15Z</time></trkpt><trkpt lat="27.747458325759617" lon="-11.666887803489953"><ele>287.6666666666667</ele><time>2026-04-29T13:39:16Z</time></trkpt><trkpt lat="27.747290813553374" lon="-11.667053794694962"><ele>288.3333333333333</ele><time>2026-04-29T13:39:17Z</time></trkpt><trkpt lat="27.747120546288855" lon="-11.667214404962477"><ele>289.0</ele><time>2026-04-29T13:39:18Z</time></trkpt><trkpt lat="27.746953721937977" lon="-11.667365702932718"><ele>289.0</ele><time>2026-04-29T13:39:19Z</time></trkpt><trkpt lat="27.746782217440384" lon="-11.667524335104217"><ele>289.0</ele><time>2026-04-29T13:39:20Z</time></trkpt><trkpt lat="27.74661752374124" lon="-11.667681120237171"><ele>289.0</ele><time>2026-04-29T13:39:21Z</time></trkpt><trkpt lat="27.746444848156077" lon="-11.667837417928931"><ele>289.0</ele><time>2026-04-29T13:39:22Z</time></trkpt><trkpt lat="27.74628319536968" lon="-11.667985529909712"><ele>289.0</ele><time>2026-04-29T13:39:23Z</time></trkpt><trkpt lat="27.746126023277977" lon="-11.668136427235648"><ele>289.0</ele><time>2026-04-29T13:39:24Z</time></trkpt><trkpt lat="27.745964616921622" lon="-11.668297209135417"><ele>289.0</ele><time>2026-04-29T13:39:25Z</time></trkpt><trkpt lat="27.74581409381032" lon="-11.66846402649336"><ele>289.0</ele><time>2026-04-29T13:39:26Z</time></trkpt><trkpt lat="27.74566966239387" lon="-11.668643011413096"><ele>289.0</ele><time>2026-04-29T13:39:27Z</time></trkpt><trkpt lat="27.745522904241884" lon="-11.66883224880628"><ele>289.0</ele><time>2026-04-29T13:39:28Z</time></trkpt><trkpt lat="27.745389542394484" lon="-11.669020693287527"><ele>289.0</ele><time>2026-04-29T13:39:29Z</time></trkpt><trkpt lat="27.745266616354186" lon="-11.669210348048916"><ele>289.0</ele><time>2026-04-29T13:39:30Z</time></trkpt><trkpt lat="27.74514990530556" lon="-11.669394688831808"><ele>288.66666666666663</ele><time>2026-04-29T13:39:31Z</time></trkpt><trkpt lat="27.745024773368243" lon="-11.669589800864134"><ele>288.3333333333333</ele><time>2026-04-29T13:39:32Z</time></trkpt><trkpt lat="27.744882143006237" lon="-11.669795117706164"><ele>288.0</ele><time>2026-04-29T13:39:33Z</time></trkpt><trkpt lat="27.744728234162125" lon="-11.670001416038298"><ele>288.0</ele><time>2026-04-29T13:39:34Z</time></trkpt><trkpt lat="27.744568443236396" lon="-11.67021142161565"><ele>288.0</ele><time>2026-04-29T13:39:35Z</time></trkpt><trkpt lat="27.744427332354547" lon="-11.670401847894011"><ele>288.3333333333333</ele><time>2026-04-29T13:39:36Z</time></trkpt><trkpt lat="27.74429218179806" lon="-11.670589024227644"><ele>288.66666666666663</ele><time>2026-04-29T13:39:37Z</time></trkpt><trkpt lat="27.744167925538758" lon="-11.670765350692331"><ele>289.0</ele><time>2026-04-29T13:39:38Z</time></trkpt><trkpt lat="27.74405311538823" lon="-11.670924904251759"><ele>289.0</ele><time>2026-04-29T13:39:39Z</time></trkpt><trkpt lat="27.74394408468187" lon="-11.671065742620309"><ele>289.0</ele><time>2026-04-29T13:39:40Z</time></trkpt><trkpt lat="27.743819526727297" lon="-11.671220415147381"><ele>289.0</ele><time>2026-04-29T13:39:41Z</time></trkpt><trkpt lat="27.743691784838308" lon="-11.67137938639482"><ele>289.0</ele><time>2026-04-29T13:39:42Z</time></trkpt><trkpt lat="27.74356445430338" lon="-11.67155652127403"><ele>289.0</ele><time>2026-04-29T13:39:43Z</time></trkpt><trkpt lat="27.743440849097205" lon="-11.671737154065035"><ele>289.0</ele><time>2026-04-29T13:39:44Z</time></trkpt><trkpt lat="27.743316901186482" lon="-11.67191224368423"><ele>289.0</ele><time>2026-04-29T13:39:45Z</time></trkpt><trkpt lat="27.743171562746234" lon="-11.672086084118314"><ele>289.0</ele><time>2026-04-29T13:39:46Z</time></trkpt><trkpt lat="27.742996282759666" lon="-11.672256658113211"><ele>289.0</ele><time>2026-04-29T13:39:47Z</time></trkpt><trkpt lat="27.742793899378164" lon="-11.672436398765765"><ele>289.5</ele><time>2026-04-29T13:39:48Z</time></trkpt><trkpt lat="27.742617319918992" lon="-11.672603305583891"><ele>290.0</ele><time>2026-04-29T13:39:49Z</time></trkpt><trkpt lat="27.742445690785917" lon="-11.672771285704632"><ele>290.33333333333337</ele><time>2026-04-29T13:39:50Z</time></trkpt><trkpt lat="27.742291621926125" lon="-11.672928409157981"><ele>290.6666666666667</ele><time>2026-04-29T13:39:51Z</time></trkpt><trkpt lat="27.74213576958699" lon="-11.673088591281351"><ele>291.0</ele><time>2026-04-29T13:39:52Z</time></trkpt><trkpt lat="27.74198161175113" lon="-11.673254327369627"><ele>291.0</ele><time>2026-04-29T13:39:53Z</time></trkpt><trkpt lat="27.74182129587209" lon="-11.673420396774867"><ele>291.0</ele><time>2026-04-29T13:39:54Z</time></trkpt><trkpt lat="27.741663382024164" lon="-11.673571448962374"><ele>291.0</ele><time>2026-04-29T13:39:55Z</time></trkpt><trkpt lat="27.741502039559016" lon="-11.673722814062879"><ele>290.3333333333333</ele><time>2026-04-29T13:39:56Z</time></trkpt><trkpt lat="27.741342273710483" lon="-11.673875263401094"><ele>289.66666666666663</ele><time>2026-04-29T13:39:57Z</time></trkpt><trkpt lat="27.741188453351192" lon="-11.674019160787383"><ele>289.0</ele><time>2026-04-29T13:39:58Z</time></trkpt><trkpt lat="27.741042240875405" lon="-11.674157504464766"><ele>289.0</ele><time>2026-04-29T13:39:59Z</time></trkpt><trkpt lat="27.740889893670918" lon="-11.674301844047553"><ele>289.0</ele><time>2026-04-29T13:40:00Z</time></trkpt><trkpt lat="27.74074130298613" lon="-11.674441793290123"><ele>289.0</ele><time>2026-04-29T13:40:01Z</time></trkpt><trkpt lat="27.740588912863934" lon="-11.674584961272986"><ele>289.3333333333333</ele><time>2026-04-29T13:40:02Z</time></trkpt><trkpt lat="27.740422778090878" lon="-11.674734186147795"><ele>289.6666666666667</ele><time>2026-04-29T13:40:03Z</time></trkpt><trkpt lat="27.740260226556277" lon="-11.674885430340488"><ele>290.0</ele><time>2026-04-29T13:40:04Z</time></trkpt><trkpt lat="27.740105797500767" lon="-11.675027760478374"><ele>290.0</ele><time>2026-04-29T13:40:05Z</time></trkpt><trkpt lat="27.73994585639999" lon="-11.675167338858902"><ele>290.0</ele><time>2026-04-29T13:40:06Z</time></trkpt><trkpt lat="27.739774962597174" lon="-11.67530749299043"><ele>290.0</ele><time>2026-04-29T13:40:07Z</time></trkpt><trkpt lat="27.73959429962872" lon="-11.675450557223405"><ele>289.6666666666667</ele><time>2026-04-29T13:40:08Z</time></trkpt><trkpt lat="27.73941997745295" lon="-11.675586664082807"><ele>289.3333333333333</ele><time>2026-04-29T13:40:09Z</time></trkpt><trkpt lat="27.739253312530984" lon="-11.675718165615097"><ele>289.0</ele><time>2026-04-29T13:40:10Z</time></trkpt><trkpt lat="27.739085866112482" lon="-11.675848545605941"><ele>289.66666666666663</ele><time>2026-04-29T13:40:11Z</time></trkpt><trkpt lat="27.738919312554664" lon="-11.675978191246669"><ele>290.3333333333333</ele><time>2026-04-29T13:40:12Z</time></trkpt><trkpt lat="27.73876456235181" lon="-11.676100329607756"><ele>291.0</ele><time>2026-04-29T13:40:13Z</time></trkpt><trkpt lat="27.738617155807393" lon="-11.676220411868412"><ele>290.6666666666667</ele><time>2026-04-29T13:40:14Z</time></trkpt><trkpt lat="27.738464423684206" lon="-11.676349265157263"><ele>290.33333333333337</ele><time>2026-04-29T13:40:15Z</time></trkpt><trkpt lat="27.738304972579986" lon="-11.676494693289582"><ele>290.0</ele><time>2026-04-29T13:40:16Z</time></trkpt><trkpt lat="27.73813973038445" lon="-11.676655657625703"><ele>290.0</ele><time>2026-04-29T13:40:17Z</time></trkpt><trkpt lat="27.737958670288474" lon="-11.676846719921691"><ele>290.0</ele><time>2026-04-29T13:40:18Z</time></trkpt><trkpt lat="27.737803599542236" lon="-11.67703622390441"><ele>290.33333333333337</ele><time>2026-04-29T13:40:19Z</time></trkpt><trkpt lat="27.73766667260531" lon="-11.677225281702908"><ele>290.6666666666667</ele><time>2026-04-29T13:40:20Z</time></trkpt><trkpt lat="27.737543710763877" lon="-11.677416965449256"><ele>291.0</ele><time>2026-04-29T13:40:21Z</time></trkpt><trkpt lat="27.737424718181142" lon="-11.677600954038247"><ele>291.0</ele><time>2026-04-29T13:40:22Z</time></trkpt><trkpt lat="27.73728671142444" lon="-11.677787519879326"><ele>291.0</ele><time>2026-04-29T13:40:23Z</time></trkpt><trkpt lat="27.737143644873033" lon="-11.677959691712664"><ele>291.0</ele><time>2026-04-29T13:40:24Z</time></trkpt><trkpt lat="27.7369846995766" lon="-11.678136277289779"><ele>291.5</ele><time>2026-04-29T13:40:25Z</time></trkpt><trkpt lat="27.736812256084068" lon="-11.678322008480366"><ele>292.0</ele><time>2026-04-29T13:40:26Z</time></trkpt><trkpt lat="27.73665285038054" lon="-11.67849804790048"><ele>292.0</ele><time>2026-04-29T13:40:27Z</time></trkpt><trkpt lat="27.73649635892619" lon="-11.678666132974927"><ele>292.0</ele><time>2026-04-29T13:40:28Z</time></trkpt><trkpt lat="27.736344757936454" lon="-11.678821949638953"><ele>292.0</ele><time>2026-04-29T13:40:29Z</time></trkpt><trkpt lat="27.736190197129652" lon="-11.678976466881013"><ele>291.66666666666663</ele><time>2026-04-29T13:40:30Z</time></trkpt><trkpt lat="27.736024655636793" lon="-11.67913116953982"><ele>291.3333333333333</ele><time>2026-04-29T13:40:31Z</time></trkpt><trkpt lat="27.735859069839464" lon="-11.679286283495824"><ele>291.0</ele><time>2026-04-29T13:40:32Z</time></trkpt><trkpt lat="27.735709761350254" lon="-11.679433515036889"><ele>290.6666666666667</ele><time>2026-04-29T13:40:33Z</time></trkpt><trkpt lat="27.735555947360428" lon="-11.679582192862917"><ele>290.33333333333337</ele><time>2026-04-29T13:40:34Z</time></trkpt><trkpt lat="27.735404378849992" lon="-11.67973305039729"><ele>290.0</ele><time>2026-04-29T13:40:35Z</time></trkpt><trkpt lat="27.7352645471975" lon="-11.679870254733672"><ele>290.6666666666667</ele><time>2026-04-29T13:40:36Z</time></trkpt><trkpt lat="27.73513288132361" lon="-11.6799871945979"><ele>291.3333333333333</ele><time>2026-04-29T13:40:37Z</time></trkpt><trkpt lat="27.73500273504006" lon="-11.68008129162528"><ele>292.0</ele><time>2026-04-29T13:40:38Z</time></trkpt><trkpt lat="27.734852521425733" lon="-11.68017419232506"><ele>292.0</ele><time>2026-04-29T13:40:39Z</time></trkpt><trkpt lat="27.734674734898157" lon="-11.680271987528208"><ele>292.0</ele><time>2026-04-29T13:40:40Z</time></trkpt><trkpt lat="27.734508186570512" lon="-11.680368962588517"><ele>292.0</ele><time>2026-04-29T13:40:41Z</time></trkpt><trkpt lat="27.73434921621719" lon="-11.68046890226255"><ele>292.0</ele><time>2026-04-29T13:40:42Z</time></trkpt><trkpt lat="27.7341642794063" lon="-11.680562264011316"><ele>292.0</ele><time>2026-04-29T13:40:43Z</time></trkpt><trkpt lat="27.733967094981207" lon="-11.680648899343959"><ele>292.0</ele><time>2026-04-29T13:40:44Z</time></trkpt><trkpt lat="27.733803638672708" lon="-11.680739381290268"><ele>292.0</ele><time>2026-04-29T13:40:45Z</time></trkpt><trkpt lat="27.73364800377831" lon="-11.680854326964173"><ele>292.0</ele><time>2026-04-29T13:40:46Z</time></trkpt><trkpt lat="27.733497903648583" lon="-11.680985782640317"><ele>292.0</ele><time>2026-04-29T13:40:47Z</time></trkpt><trkpt lat="27.733348765687456" lon="-11.68112948985303"><ele>292.3333333333333</ele><time>2026-04-29T13:40:48Z</time></trkpt><trkpt lat="27.733190120884046" lon="-11.681295746589598"><ele>292.6666666666667</ele><time>2026-04-29T13:40:49Z</time></trkpt><trkpt lat="27.733038021035238" lon="-11.681470283578788"><ele>293.0</ele><time>2026-04-29T13:40:50Z</time></trkpt><trkpt lat="27.73287801982831" lon="-11.681651978075145"><ele>292.6666666666667</ele><time>2026-04-29T13:40:51Z</time></trkpt><trkpt lat="27.7327141822214" lon="-11.681810367732766"><ele>292.3333333333333</ele><time>2026-04-29T13:40:52Z</time></trkpt><trkpt lat="27.732549745096954" lon="-11.681948013197601"><ele>292.0</ele><time>2026-04-29T13:40:53Z</time></trkpt><trkpt lat="27.732373055823707" lon="-11.682079060679891"><ele>292.0</ele><time>2026-04-29T13:40:54Z</time></trkpt><trkpt lat="27.7321953183625" lon="-11.682209241630675"><ele>292.0</ele><time>2026-04-29T13:40:55Z</time></trkpt><trkpt lat="27.732007996420762" lon="-11.682343386898161"><ele>292.0</ele><time>2026-04-29T13:40:56Z</time></trkpt><trkpt lat="27.73182607783197" lon="-11.682480379224067"><ele>292.66666666666663</ele><time>2026-04-29T13:40:57Z</time></trkpt><trkpt lat="27.731642062178963" lon="-11.682617075365789"><ele>293.3333333333333</ele><time>2026-04-29T13:40:58Z</time></trkpt><trkpt lat="27.73145921476401" lon="-11.682749980385866"><ele>294.0</ele><time>2026-04-29T13:40:59Z</time></trkpt><trkpt lat="27.73127792624769" lon="-11.68288126114143"><ele>294.0</ele><time>2026-04-29T13:41:00Z</time></trkpt><trkpt lat="27.731106307634338" lon="-11.683004182816394"><ele>294.0</ele><time>2026-04-29T13:41:01Z</time></trkpt><trkpt lat="27.73093234132071" lon="-11.683119644055749"><ele>294.0</ele><time>2026-04-29T13:41:02Z</time></trkpt><trkpt lat="27.730758485773404" lon="-11.68323766030458"><ele>294.0</ele><time>2026-04-29T13:41:03Z</time></trkpt><trkpt lat="27.730571734846443" lon="-11.683366681724715"><ele>294.0</ele><time>2026-04-29T13:41:04Z</time></trkpt><trkpt lat="27.730381509329458" lon="-11.683505369113153"><ele>294.0</ele><time>2026-04-29T13:41:05Z</time></trkpt><trkpt lat="27.73018368332884" lon="-11.68364333259753"><ele>293.5</ele><time>2026-04-29T13:41:06Z</time></trkpt><trkpt lat="27.729977852501573" lon="-11.683786838070446"><ele>293.0</ele><time>2026-04-29T13:41:07Z</time></trkpt><trkpt lat="27.72978505116042" lon="-11.683920749462128"><ele>293.0</ele><time>2026-04-29T13:41:08Z</time></trkpt><trkpt lat="27.7295914743082" lon="-11.684055525269942"><ele>293.0</ele><time>2026-04-29T13:41:09Z</time></trkpt><trkpt lat="27.729379891305697" lon="-11.68420138136677"><ele>293.0</ele><time>2026-04-29T13:41:10Z</time></trkpt><trkpt lat="27.729163148469798" lon="-11.684355270570647"><ele>293.0</ele><time>2026-04-29T13:41:11Z</time></trkpt><trkpt lat="27.72894111698694" lon="-11.68451709073696"><ele>293.5</ele><time>2026-04-29T13:41:12Z</time></trkpt><trkpt lat="27.72871114078845" lon="-11.684677234156956"><ele>294.0</ele><time>2026-04-29T13:41:13Z</time></trkpt><trkpt lat="27.728500704589674" lon="-11.684828921435038"><ele>294.0</ele><time>2026-04-29T13:41:14Z</time></trkpt><trkpt lat="27.72828667025748" lon="-11.684979476386278"><ele>294.0</ele><time>2026-04-29T13:41:15Z</time></trkpt><trkpt lat="27.72808611160906" lon="-11.685127930666681"><ele>294.5</ele><time>2026-04-29T13:41:16Z</time></trkpt><trkpt lat="27.72788210912481" lon="-11.68527583764322"><ele>295.0</ele><time>2026-04-29T13:41:17Z</time></trkpt><trkpt lat="27.727695714747878" lon="-11.685420485131687"><ele>295.0</ele><time>2026-04-29T13:41:18Z</time></trkpt><trkpt lat="27.72751582973493" lon="-11.685575171060293"><ele>295.0</ele><time>2026-04-29T13:41:19Z</time></trkpt><trkpt lat="27.727340220226715" lon="-11.685739737426655"><ele>295.0</ele><time>2026-04-29T13:41:20Z</time></trkpt><trkpt lat="27.72716311850812" lon="-11.685900804607677"><ele>295.0</ele><time>2026-04-29T13:41:21Z</time></trkpt><trkpt lat="27.72697955069526" lon="-11.686076671200231"><ele>294.0</ele><time>2026-04-29T13:41:22Z</time></trkpt><trkpt lat="27.726789873681795" lon="-11.68626021061692"><ele>293.0</ele><time>2026-04-29T13:41:23Z</time></trkpt><trkpt lat="27.72660641175016" lon="-11.686439831070361"><ele>293.0</ele><time>2026-04-29T13:41:24Z</time></trkpt><trkpt lat="27.726419909776798" lon="-11.686617997335373"><ele>293.0</ele><time>2026-04-29T13:41:25Z</time></trkpt><trkpt lat="27.726230748376704" lon="-11.686797405545262"><ele>293.5</ele><time>2026-04-29T13:41:26Z</time></trkpt><trkpt lat="27.726037812805625" lon="-11.686977250042263"><ele>294.0</ele><time>2026-04-29T13:41:27Z</time></trkpt><trkpt lat="27.72584731782048" lon="-11.687160398941765"><ele>294.0</ele><time>2026-04-29T13:41:28Z</time></trkpt><trkpt lat="27.725641681547412" lon="-11.687361204570378"><ele>294.0</ele><time>2026-04-29T13:41:29Z</time></trkpt><trkpt lat="27.72545628667848" lon="-11.687548369444976"><ele>294.0</ele><time>2026-04-29T13:41:30Z</time></trkpt><trkpt lat="27.725291056839954" lon="-11.68772120004577"><ele>294.0</ele><time>2026-04-29T13:41:31Z</time></trkpt><trkpt lat="27.725130435352288" lon="-11.687891674538857"><ele>294.0</ele><time>2026-04-29T13:41:32Z</time></trkpt><trkpt lat="27.7249680739571" lon="-11.688080531063946"><ele>295.5</ele><time>2026-04-29T13:41:33Z</time></trkpt><trkpt lat="27.72481949179225" lon="-11.688273530301874"><ele>297.0</ele><time>2026-04-29T13:41:34Z</time></trkpt><trkpt lat="27.724661704593718" lon="-11.688480807737113"><ele>296.5</ele><time>2026-04-29T13:41:35Z</time></trkpt><trkpt lat="27.724503681825173" lon="-11.688664896692954"><ele>296.0</ele><time>2026-04-29T13:41:36Z</time></trkpt><trkpt lat="27.724339540936615" lon="-11.688847436199657"><ele>296.0</ele><time>2026-04-29T13:41:37Z</time></trkpt><trkpt lat="27.724169832637205" lon="-11.689023194667561"><ele>296.0</ele><time>2026-04-29T13:41:38Z</time></trkpt><trkpt lat="27.723991040461655" lon="-11.68919683849741"><ele>296.0</ele><time>2026-04-29T13:41:39Z</time></trkpt><trkpt lat="27.72379179988284" lon="-11.689388704320935"><ele>296.0</ele><time>2026-04-29T13:41:40Z</time></trkpt><trkpt lat="27.723608213932366" lon="-11.689571435569844"><ele>296.5</ele><time>2026-04-29T13:41:41Z</time></trkpt><trkpt lat="27.72342669339615" lon="-11.689753752447675"><ele>297.0</ele><time>2026-04-29T13:41:42Z</time></trkpt><trkpt lat="27.723243161076116" lon="-11.689934122540862"><ele>297.0</ele><time>2026-04-29T13:41:43Z</time></trkpt><trkpt lat="27.723077440542475" lon="-11.690099774582265"><ele>297.0</ele><time>2026-04-29T13:41:44Z</time></trkpt><trkpt lat="27.722916899654006" lon="-11.690258851395768"><ele>297.0</ele><time>2026-04-29T13:41:45Z</time></trkpt><trkpt lat="27.722767626446707" lon="-11.69040862522522"><ele>297.0</ele><time>2026-04-29T13:41:46Z</time></trkpt><trkpt lat="27.72263144615243" lon="-11.690549110530386"><ele>297.0</ele><time>2026-04-29T13:41:47Z</time></trkpt><trkpt lat="27.72249705384565" lon="-11.69068136014894"><ele>297.0</ele><time>2026-04-29T13:41:48Z</time></trkpt><trkpt lat="27.722356654483114" lon="-11.6908171536671"><ele>297.0</ele><time>2026-04-29T13:41:49Z</time></trkpt><trkpt lat="27.722221616192197" lon="-11.690952054826711"><ele>297.0</ele><time>2026-04-29T13:41:50Z</time></trkpt><trkpt lat="27.722092119305046" lon="-11.691083701812362"><ele>297.0</ele><time>2026-04-29T13:41:51Z</time></trkpt><trkpt lat="27.721961586884305" lon="-11.691221083045196"><ele>297.0</ele><time>2026-04-29T13:41:52Z</time></trkpt><trkpt lat="27.72183504093384" lon="-11.691352585579203"><ele>297.0</ele><time>2026-04-29T13:41:53Z</time></trkpt><trkpt lat="27.721721356703565" lon="-11.691468464086364"><ele>297.0</ele><time>2026-04-29T13:41:54Z</time></trkpt><trkpt lat="27.721613312539397" lon="-11.691578162802756"><ele>297.0</ele><time>2026-04-29T13:41:55Z</time></trkpt><trkpt lat="27.721500937544626" lon="-11.691690486191737"><ele>297.0</ele><time>2026-04-29T13:41:56Z</time></trkpt><trkpt lat="27.721386129841406" lon="-11.691800769799247"><ele>297.0</ele><time>2026-04-29T13:41:57Z</time></trkpt><trkpt lat="27.721274805365294" lon="-11.691909328985714"><ele>297.0</ele><time>2026-04-29T13:41:58Z</time></trkpt><trkpt lat="27.721163722602526" lon="-11.692026081944185"><ele>297.3333333333333</ele><time>2026-04-29T13:41:59Z</time></trkpt><trkpt lat="27.721048168739234" lon="-11.692144954486118"><ele>297.66666666666663</ele><time>2026-04-29T13:42:00Z</time></trkpt><trkpt lat="27.72091488973524" lon="-11.692280550754399"><ele>298.0</ele><time>2026-04-29T13:42:01Z</time></trkpt><trkpt lat="27.72076644584549" lon="-11.692426728714524"><ele>298.0</ele><time>2026-04-29T13:42:02Z</time></trkpt><trkpt lat="27.720631222619843" lon="-11.692561200057597"><ele>298.0</ele><time>2026-04-29T13:42:03Z</time></trkpt><trkpt lat="27.720499534872005" lon="-11.692690340504823"><ele>298.0</ele><time>2026-04-29T13:42:04Z</time></trkpt><trkpt lat="27.72037025392635" lon="-11.692820219454294"><ele>298.0</ele><time>2026-04-29T13:42:05Z</time></trkpt><trkpt lat="27.720234663491254" lon="-11.692962489898884"><ele>298.0</ele><time>2026-04-29T13:42:06Z</time></trkpt><trkpt lat="27.720075470800936" lon="-11.693124431590276"><ele>298.0</ele><time>2026-04-29T13:42:07Z</time></trkpt><trkpt lat="27.719913106672273" lon="-11.693287118063559"><ele>298.5</ele><time>2026-04-29T13:42:08Z</time></trkpt><trkpt lat="27.71975138539107" lon="-11.693454996083753"><ele>299.0</ele><time>2026-04-29T13:42:09Z</time></trkpt><trkpt lat="27.71956518393283" lon="-11.693646417882968"><ele>300.0</ele><time>2026-04-29T13:42:10Z</time></trkpt><trkpt lat="27.719378074286947" lon="-11.693840260858284"><ele>301.0</ele><time>2026-04-29T13:42:11Z</time></trkpt><trkpt lat="27.719196712117355" lon="-11.694031180051232"><ele>301.0</ele><time>2026-04-29T13:42:12Z</time></trkpt><trkpt lat="27.719018015180666" lon="-11.694206575938898"><ele>301.0</ele><time>2026-04-29T13:42:13Z</time></trkpt><trkpt lat="27.718824343121923" lon="-11.694408061686024"><ele>300.0</ele><time>2026-04-29T13:42:14Z</time></trkpt><trkpt lat="27.718629288528913" lon="-11.69459903066978"><ele>299.0</ele><time>2026-04-29T13:42:15Z</time></trkpt><trkpt lat="27.718430650029756" lon="-11.694790359748888"><ele>298.5</ele><time>2026-04-29T13:42:16Z</time></trkpt><trkpt lat="27.718229900622493" lon="-11.694976932474788"><ele>298.0</ele><time>2026-04-29T13:42:17Z</time></trkpt><trkpt lat="27.718014586083743" lon="-11.695177231288856"><ele>299.0</ele><time>2026-04-29T13:42:18Z</time></trkpt><trkpt lat="27.717795448088793" lon="-11.6953786762358"><ele>300.0</ele><time>2026-04-29T13:42:19Z</time></trkpt><trkpt lat="27.717571165601203" lon="-11.695580990783034"><ele>300.0</ele><time>2026-04-29T13:42:20Z</time></trkpt><trkpt lat="27.71734658678804" lon="-11.695783999329992"><ele>300.0</ele><time>2026-04-29T13:42:21Z</time></trkpt><trkpt lat="27.71712765144739" lon="-11.695980111880933"><ele>299.0</ele><time>2026-04-29T13:42:22Z</time></trkpt><trkpt lat="27.716900118814138" lon="-11.696185914525788"><ele>298.0</ele><time>2026-04-29T13:42:23Z</time></trkpt><trkpt lat="27.71668646432281" lon="-11.696382686623853"><ele>298.0</ele><time>2026-04-29T13:42:24Z</time></trkpt><trkpt lat="27.716450079600953" lon="-11.696602436115965"><ele>298.0</ele><time>2026-04-29T13:42:25Z</time></trkpt><trkpt lat="27.716209991571" lon="-11.696820197817829"><ele>299.5</ele><time>2026-04-29T13:42:26Z</time></trkpt><trkpt lat="27.71596135185425" lon="-11.6970484693449"><ele>301.0</ele><time>2026-04-29T13:42:27Z</time></trkpt><trkpt lat="27.715714394978107" lon="-11.6972702658877"><ele>301.0</ele><time>2026-04-29T13:42:28Z</time></trkpt><trkpt lat="27.71548359684795" lon="-11.697484025947578"><ele>301.0</ele><time>2026-04-29T13:42:29Z</time></trkpt><trkpt lat="27.715253076545125" lon="-11.69769494681363"><ele>300.5</ele><time>2026-04-29T13:42:30Z</time></trkpt><trkpt lat="27.71503170764318" lon="-11.69788741379582"><ele>300.0</ele><time>2026-04-29T13:42:31Z</time></trkpt><trkpt lat="27.714815799461906" lon="-11.698071808065277"><ele>300.0</ele><time>2026-04-29T13:42:32Z</time></trkpt><trkpt lat="27.7145999040922" lon="-11.698262556582852"><ele>300.0</ele><time>2026-04-29T13:42:33Z</time></trkpt><trkpt lat="27.71439620052869" lon="-11.698451042294186"><ele>301.0</ele><time>2026-04-29T13:42:34Z</time></trkpt><trkpt lat="27.714193614780804" lon="-11.69864638368416"><ele>302.0</ele><time>2026-04-29T13:42:35Z</time></trkpt><trkpt lat="27.713995292174378" lon="-11.698839601606"><ele>302.0</ele><time>2026-04-29T13:42:36Z</time></trkpt><trkpt lat="27.713777879525335" lon="-11.699048980635917"><ele>302.0</ele><time>2026-04-29T13:42:37Z</time></trkpt><trkpt lat="27.71355550864245" lon="-11.699264000039946"><ele>303.0</ele><time>2026-04-29T13:42:38Z</time></trkpt><trkpt lat="27.713326302341635" lon="-11.699485996340272"><ele>304.0</ele><time>2026-04-29T13:42:39Z</time></trkpt><trkpt lat="27.713099995582375" lon="-11.69970108053742"><ele>304.0</ele><time>2026-04-29T13:42:40Z</time></trkpt><trkpt lat="27.712893690557415" lon="-11.699899257898803"><ele>304.0</ele><time>2026-04-29T13:42:41Z</time></trkpt><trkpt lat="27.71268912647717" lon="-11.700095081969108"><ele>303.0</ele><time>2026-04-29T13:42:42Z</time></trkpt><trkpt lat="27.712476199492322" lon="-11.700303862756437"><ele>302.0</ele><time>2026-04-29T13:42:43Z</time></trkpt><trkpt lat="27.712282498182958" lon="-11.700500117125822"><ele>302.0</ele><time>2026-04-29T13:42:44Z</time></trkpt><trkpt lat="27.712084499375447" lon="-11.700701972044453"><ele>302.0</ele><time>2026-04-29T13:42:45Z</time></trkpt><trkpt lat="27.711898394251193" lon="-11.700901161599836"><ele>302.5</ele><time>2026-04-29T13:42:46Z</time></trkpt><trkpt lat="27.711711051661705" lon="-11.701107622243176"><ele>303.0</ele><time>2026-04-29T13:42:47Z</time></trkpt><trkpt lat="27.711529803147684" lon="-11.701315404685598"><ele>303.0</ele><time>2026-04-29T13:42:48Z</time></trkpt><trkpt lat="27.711355154948198" lon="-11.70151949194942"><ele>303.0</ele><time>2026-04-29T13:42:49Z</time></trkpt><trkpt lat="27.71119778815943" lon="-11.701699326786427"><ele>303.0</ele><time>2026-04-29T13:42:50Z</time></trkpt><trkpt lat="27.711031865473785" lon="-11.701897410879472"><ele>303.0</ele><time>2026-04-29T13:42:51Z</time></trkpt><trkpt lat="27.71086591809471" lon="-11.702101236782342"><ele>303.0</ele><time>2026-04-29T13:42:52Z</time></trkpt><trkpt lat="27.71071664600428" lon="-11.702290374924974"><ele>303.0</ele><time>2026-04-29T13:42:53Z</time></trkpt><trkpt lat="27.71056848600859" lon="-11.702479002561216"><ele>303.0</ele><time>2026-04-29T13:42:54Z</time></trkpt><trkpt lat="27.710423716722687" lon="-11.702669023768083"><ele>303.0</ele><time>2026-04-29T13:42:55Z</time></trkpt><trkpt lat="27.71028731508341" lon="-11.702848713781258"><ele>303.0</ele><time>2026-04-29T13:42:56Z</time></trkpt><trkpt lat="27.710139665549534" lon="-11.703039763290352"><ele>303.0</ele><time>2026-04-29T13:42:57Z</time></trkpt><trkpt lat="27.70999925009701" lon="-11.703221039543402"><ele>303.0</ele><time>2026-04-29T13:42:58Z</time></trkpt><trkpt lat="27.70986394504236" lon="-11.703400616382108"><ele>303.0</ele><time>2026-04-29T13:42:59Z</time></trkpt><trkpt lat="27.70972368964555" lon="-11.703585713970762"><ele>303.0</ele><time>2026-04-29T13:43:00Z</time></trkpt><trkpt lat="27.709584301063686" lon="-11.703765957286041"><ele>303.0</ele><time>2026-04-29T13:43:01Z</time></trkpt><trkpt lat="27.709441290502554" lon="-11.703940073564617"><ele>303.0</ele><time>2026-04-29T13:43:02Z</time></trkpt><trkpt lat="27.70929446068378" lon="-11.704109665563818"><ele>303.0</ele><time>2026-04-29T13:43:03Z</time></trkpt><trkpt lat="27.709143999527452" lon="-11.704267145635324"><ele>303.0</ele><time>2026-04-29T13:43:04Z</time></trkpt><trkpt lat="27.708993910403958" lon="-11.70442195599434"><ele>303.0</ele><time>2026-04-29T13:43:05Z</time></trkpt><trkpt lat="27.70883668669353" lon="-11.704565653798856"><ele>303.0</ele><time>2026-04-29T13:43:06Z</time></trkpt><trkpt lat="27.7086741189586" lon="-11.70470372800981"><ele>303.0</ele><time>2026-04-29T13:43:07Z</time></trkpt><trkpt lat="27.70851084710696" lon="-11.7048359724831"><ele>303.0</ele><time>2026-04-29T13:43:08Z</time></trkpt><trkpt lat="27.708326584424285" lon="-11.704980637487816"><ele>303.0</ele><time>2026-04-29T13:43:09Z</time></trkpt><trkpt lat="27.708139077287356" lon="-11.705113736922323"><ele>302.5</ele><time>2026-04-29T13:43:10Z</time></trkpt><trkpt lat="27.70793191363632" lon="-11.70525612837463"><ele>302.0</ele><time>2026-04-29T13:43:11Z</time></trkpt><trkpt lat="27.707735135048594" lon="-11.705380842387205"><ele>302.0</ele><time>2026-04-29T13:43:12Z</time></trkpt><trkpt lat="27.70751563450744" lon="-11.70550807587864"><ele>302.0</ele><time>2026-04-29T13:43:13Z</time></trkpt><trkpt lat="27.707303572026817" lon="-11.705623091594687"><ele>302.0</ele><time>2026-04-29T13:43:14Z</time></trkpt><trkpt lat="27.707112630878385" lon="-11.705732659008737"><ele>302.0</ele><time>2026-04-29T13:43:15Z</time></trkpt><trkpt lat="27.706922585276562" lon="-11.705832088604472"><ele>302.0</ele><time>2026-04-29T13:43:16Z</time></trkpt><trkpt lat="27.706746245688066" lon="-11.705926005762183"><ele>302.0</ele><time>2026-04-29T13:43:17Z</time></trkpt><trkpt lat="27.706595534729267" lon="-11.706005294229161"><ele>302.0</ele><time>2026-04-29T13:43:18Z</time></trkpt><trkpt lat="27.70646779884503" lon="-11.706075282136416"><ele>302.0</ele><time>2026-04-29T13:43:19Z</time></trkpt><trkpt lat="27.70635295449477" lon="-11.706140242318833"><ele>302.0</ele><time>2026-04-29T13:43:20Z</time></trkpt><trkpt lat="27.706253276451996" lon="-11.70619747640827"><ele>302.0</ele><time>2026-04-29T13:43:21Z</time></trkpt><trkpt lat="27.706152717813954" lon="-11.706260084505919"><ele>302.0</ele><time>2026-04-29T13:43:22Z</time></trkpt><trkpt lat="27.706069971107993" lon="-11.70631534253934"><ele>302.0</ele><time>2026-04-29T13:43:23Z</time></trkpt><trkpt lat="27.705990682610494" lon="-11.706364296785502"><ele>302.0</ele><time>2026-04-29T13:43:24Z</time></trkpt><trkpt lat="27.70592156868262" lon="-11.706401935389135"><ele>302.0</ele><time>2026-04-29T13:43:25Z</time></trkpt><trkpt lat="27.705837737306016" lon="-11.706448991538025"><ele>302.4</ele><time>2026-04-29T13:43:26Z</time></trkpt><trkpt lat="27.705752019513362" lon="-11.706497528558433"><ele>302.79999999999995</ele><time>2026-04-29T13:43:27Z</time></trkpt><trkpt lat="27.705668143153197" lon="-11.70654350390564"><ele>303.2</ele><time>2026-04-29T13:43:28Z</time></trkpt><trkpt lat="27.705581097588755" lon="-11.706590357275516"><ele>303.59999999999997</ele><time>2026-04-29T13:43:29Z</time></trkpt><trkpt lat="27.705500784403732" lon="-11.706636590351991"><ele>304.0</ele><time>2026-04-29T13:43:30Z</time></trkpt><trkpt lat="27.70543229993563" lon="-11.706674573105"><ele>304.0</ele><time>2026-04-29T13:43:31Z</time></trkpt><trkpt lat="27.7053649426606" lon="-11.70671114011946"><ele>304.0</ele><time>2026-04-29T13:43:32Z</time></trkpt><trkpt lat="27.705289862258976" lon="-11.706748133046435"><ele>304.0</ele><time>2026-04-29T13:43:33Z</time></trkpt><trkpt lat="27.705206739019214" lon="-11.706794185172122"><ele>304.0</ele><time>2026-04-29T13:43:34Z</time></trkpt><trkpt lat="27.705125510675938" lon="-11.706837821126053"><ele>304.0</ele><time>2026-04-29T13:43:35Z</time></trkpt><trkpt lat="27.70504036968956" lon="-11.706878828929666"><ele>304.0</ele><time>2026-04-29T13:43:36Z</time></trkpt><trkpt lat="27.704959520988613" lon="-11.706913671674764"><ele>304.4</ele><time>2026-04-29T13:43:37Z</time></trkpt><trkpt lat="27.704880561628" lon="-11.70694380317699"><ele>304.79999999999995</ele><time>2026-04-29T13:43:38Z</time></trkpt><trkpt lat="27.704790510266044" lon="-11.70698477310876"><ele>305.20000000000005</ele><time>2026-04-29T13:43:39Z</time></trkpt><trkpt lat="27.704703305699198" lon="-11.707037333773492"><ele>305.6</ele><time>2026-04-29T13:43:40Z</time></trkpt><trkpt lat="27.704616906681462" lon="-11.707091296782272"><ele>306.0</ele><time>2026-04-29T13:43:41Z</time></trkpt><trkpt lat="27.70454127688588" lon="-11.707139441453311"><ele>306.0</ele><time>2026-04-29T13:43:42Z</time></trkpt><trkpt lat="27.704469979607367" lon="-11.70717937682515"><ele>306.0</ele><time>2026-04-29T13:43:43Z</time></trkpt><trkpt lat="27.70438567814021" lon="-11.707216463078831"><ele>306.0</ele><time>2026-04-29T13:43:44Z</time></trkpt><trkpt lat="27.704296370480417" lon="-11.707252432243745"><ele>306.0</ele><time>2026-04-29T13:43:45Z</time></trkpt><trkpt lat="27.70420628742477" lon="-11.707291102681879"><ele>306.0</ele><time>2026-04-29T13:43:46Z</time></trkpt><trkpt lat="27.704113074445633" lon="-11.707324535905267"><ele>305.85714285714283</ele><time>2026-04-29T13:43:47Z</time></trkpt><trkpt lat="27.70403850057361" lon="-11.707348962637482"><ele>305.7142857142857</ele><time>2026-04-29T13:43:48Z</time></trkpt><trkpt lat="27.703974716492535" lon="-11.707371698782723"><ele>305.57142857142856</ele><time>2026-04-29T13:43:49Z</time></trkpt><trkpt lat="27.703912849005743" lon="-11.707393653664461"><ele>305.42857142857144</ele><time>2026-04-29T13:43:50Z</time></trkpt><trkpt lat="27.70384656424184" lon="-11.707420020171478"><ele>305.2857142857143</ele><time>2026-04-29T13:43:51Z</time></trkpt><trkpt lat="27.703777394295745" lon="-11.70745727642606"><ele>305.14285714285717</ele><time>2026-04-29T13:43:52Z</time></trkpt><trkpt lat="27.703720788726123" lon="-11.707490703334221"><ele>305.0</ele><time>2026-04-29T13:43:53Z</time></trkpt><trkpt lat="27.703611898338526" lon="-11.707552478944738"><ele>305.0</ele><time>2026-04-29T13:43:55Z</time></trkpt><trkpt lat="27.703509317025595" lon="-11.70760914380451"><ele>305.0</ele><time>2026-04-29T13:43:57Z</time></trkpt><trkpt lat="27.703448407196323" lon="-11.707644731138476"><ele>305.0</ele><time>2026-04-29T13:43:58Z</time></trkpt><trkpt lat="27.703386660808373" lon="-11.707685901458772"><ele>305.0</ele><time>2026-04-29T13:43:59Z</time></trkpt><trkpt lat="27.70332319218209" lon="-11.707726248912694"><ele>305.0</ele><time>2026-04-29T13:44:00Z</time></trkpt><trkpt lat="27.70325627427247" lon="-11.707762931452631"><ele>305.0</ele><time>2026-04-29T13:44:01Z</time></trkpt><trkpt lat="27.70315653685442" lon="-11.707825847924221"><ele>305.0</ele><time>2026-04-29T13:44:03Z</time></trkpt><trkpt lat="27.703052358406392" lon="-11.707895540514448"><ele>305.0</ele><time>2026-04-29T13:44:05Z</time></trkpt><trkpt lat="27.702995929353175" lon="-11.70792983758489"><ele>305.0</ele><time>2026-04-29T13:44:06Z</time></trkpt><trkpt lat="27.70293613776085" lon="-11.707964026054844"><ele>305.0</ele><time>2026-04-29T13:44:07Z</time></trkpt><trkpt lat="27.70287263593836" lon="-11.708003805470051"><ele>305.0</ele><time>2026-04-29T13:44:08Z</time></trkpt><trkpt lat="27.70281484302642" lon="-11.708047194590568"><ele>305.0</ele><time>2026-04-29T13:44:09Z</time></trkpt><trkpt lat="27.70276511159146" lon="-11.70809193933887"><ele>305.0</ele><time>2026-04-29T13:44:10Z</time></trkpt><trkpt lat="27.702709654783664" lon="-11.708134893352888"><ele>305.0</ele><time>2026-04-29T13:44:11Z</time></trkpt><trkpt lat="27.70265310481386" lon="-11.708176040517303"><ele>305.0</ele><time>2026-04-29T13:44:12Z</time></trkpt><trkpt lat="27.70260271345547" lon="-11.708220577910911"><ele>305.0</ele><time>2026-04-29T13:44:13Z</time></trkpt><trkpt lat="27.702535754602664" lon="-11.708321395204576"><ele>305.0</ele><time>2026-04-29T13:44:15Z</time></trkpt><trkpt lat="27.702447843990626" lon="-11.708373131652662"><ele>305.0</ele><time>2026-04-29T13:44:17Z</time></trkpt><trkpt lat="27.70237309498728" lon="-11.708402478237277"><ele>305.0</ele><time>2026-04-29T13:44:19Z</time></trkpt><trkpt lat="27.702290242040952" lon="-11.70845192125598"><ele>305.0</ele><time>2026-04-29T13:44:21Z</time></trkpt><trkpt lat="27.70221081643489" lon="-11.708507224937312"><ele>305.0</ele><time>2026-04-29T13:44:23Z</time></trkpt><trkpt lat="27.70214637810423" lon="-11.708546870503975"><ele>305.0</ele><time>2026-04-29T13:44:25Z</time></trkpt><trkpt lat="27.70205793933443" lon="-11.70859373149125"><ele>305.0</ele><time>2026-04-29T13:44:27Z</time></trkpt><trkpt lat="27.70196776222019" lon="-11.708635598637507"><ele>305.4</ele><time>2026-04-29T13:44:29Z</time></trkpt><trkpt lat="27.701880778994223" lon="-11.708689539197598"><ele>305.8</ele><time>2026-04-29T13:44:31Z</time></trkpt><trkpt lat="27.701787384155665" lon="-11.708746211419763"><ele>306.2</ele><time>2026-04-29T13:44:33Z</time></trkpt><trkpt lat="27.7017011518454" lon="-11.708787753531933"><ele>306.6</ele><time>2026-04-29T13:44:35Z</time></trkpt><trkpt lat="27.701596245406908" lon="-11.708847036686695"><ele>307.0</ele><time>2026-04-29T13:44:37Z</time></trkpt><trkpt lat="27.701534057018367" lon="-11.708881056749918"><ele>307.0</ele><time>2026-04-29T13:44:38Z</time></trkpt><trkpt lat="27.70146736083159" lon="-11.70891916449673"><ele>307.0</ele><time>2026-04-29T13:44:39Z</time></trkpt><trkpt lat="27.701399116950416" lon="-11.708956389226863"><ele>307.0</ele><time>2026-04-29T13:44:40Z</time></trkpt><trkpt lat="27.70133780696976" lon="-11.708987740535877"><ele>307.0</ele><time>2026-04-29T13:44:41Z</time></trkpt><trkpt lat="27.701278252759373" lon="-11.709021497424235"><ele>307.0</ele><time>2026-04-29T13:44:42Z</time></trkpt><trkpt lat="27.701190125315968" lon="-11.70906173966932"><ele>307.0</ele><time>2026-04-29T13:44:44Z</time></trkpt><trkpt lat="27.701084396456952" lon="-11.709115913166356"><ele>307.16666666666663</ele><time>2026-04-29T13:44:46Z</time></trkpt><trkpt lat="27.701021674445027" lon="-11.70914521707172"><ele>307.3333333333333</ele><time>2026-04-29T13:44:47Z</time></trkpt><trkpt lat="27.700960162047497" lon="-11.709170458388547"><ele>307.5</ele><time>2026-04-29T13:44:48Z</time></trkpt><trkpt lat="27.700897413779487" lon="-11.709197758155016"><ele>307.6666666666667</ele><time>2026-04-29T13:44:49Z</time></trkpt><trkpt lat="27.700785952768474" lon="-11.70924573053526"><ele>307.83333333333337</ele><time>2026-04-29T13:44:51Z</time></trkpt><trkpt lat="27.700724587720632" lon="-11.709265697433995"><ele>308.0</ele><time>2026-04-29T13:44:52Z</time></trkpt><trkpt lat="27.700624911200553" lon="-11.709306648532959"><ele>308.0</ele><time>2026-04-29T13:44:54Z</time></trkpt><trkpt lat="27.70052825252644" lon="-11.7093582474873"><ele>308.0</ele><time>2026-04-29T13:44:56Z</time></trkpt><trkpt lat="27.70041777871296" lon="-11.70940819059649"><ele>308.0</ele><time>2026-04-29T13:44:58Z</time></trkpt><trkpt lat="27.700354276815794" lon="-11.709432940571057"><ele>308.0</ele><time>2026-04-29T13:44:59Z</time></trkpt><trkpt lat="27.700281051145172" lon="-11.709452675571796"><ele>308.0</ele><time>2026-04-29T13:45:00Z</time></trkpt><trkpt lat="27.700216752625142" lon="-11.70947232046633"><ele>308.0</ele><time>2026-04-29T13:45:01Z</time></trkpt><trkpt lat="27.700105893919424" lon="-11.709528671911313"><ele>307.5</ele><time>2026-04-29T13:45:03Z</time></trkpt><trkpt lat="27.69999837575673" lon="-11.709585282402081"><ele>307.0</ele><time>2026-04-29T13:45:05Z</time></trkpt><trkpt lat="27.69992099787894" lon="-11.709620658636634"><ele>306.5</ele><time>2026-04-29T13:45:06Z</time></trkpt><trkpt lat="27.699847645433085" lon="-11.709656270844933"><ele>306.0</ele><time>2026-04-29T13:45:07Z</time></trkpt><trkpt lat="27.699779980477192" lon="-11.709689014013223"><ele>305.5</ele><time>2026-04-29T13:45:08Z</time></trkpt><trkpt lat="27.69971159719745" lon="-11.709719974717283"><ele>305.0</ele><time>2026-04-29T13:45:09Z</time></trkpt><trkpt lat="27.699645371704722" lon="-11.709753181575701"><ele>305.0</ele><time>2026-04-29T13:45:10Z</time></trkpt><trkpt lat="27.699580781960073" lon="-11.70979017973378"><ele>305.0</ele><time>2026-04-29T13:45:11Z</time></trkpt><trkpt lat="27.699515449969457" lon="-11.709828798211154"><ele>305.0</ele><time>2026-04-29T13:45:12Z</time></trkpt><trkpt lat="27.699448669290177" lon="-11.709872071724329"><ele>305.0</ele><time>2026-04-29T13:45:13Z</time></trkpt><trkpt lat="27.69938884845921" lon="-11.709914980953661"><ele>305.0</ele><time>2026-04-29T13:45:14Z</time></trkpt><trkpt lat="27.69932182990157" lon="-11.709951804274485"><ele>305.0</ele><time>2026-04-29T13:45:15Z</time></trkpt><trkpt lat="27.699258617989155" lon="-11.709981490819972"><ele>305.0</ele><time>2026-04-29T13:45:16Z</time></trkpt><trkpt lat="27.69919875282191" lon="-11.710011474151719"><ele>305.33333333333337</ele><time>2026-04-29T13:45:17Z</time></trkpt><trkpt lat="27.69914013558947" lon="-11.71004726188046"><ele>305.6666666666667</ele><time>2026-04-29T13:45:18Z</time></trkpt><trkpt lat="27.699075990747332" lon="-11.71008801455668"><ele>306.0</ele><time>2026-04-29T13:45:19Z</time></trkpt><trkpt lat="27.699010700910154" lon="-11.710122332840152"><ele>306.3333333333333</ele><time>2026-04-29T13:45:20Z</time></trkpt><trkpt lat="27.698936094388834" lon="-11.71015441838683"><ele>306.66666666666663</ele><time>2026-04-29T13:45:21Z</time></trkpt><trkpt lat="27.69886572919077" lon="-11.710192024712464"><ele>307.0</ele><time>2026-04-29T13:45:22Z</time></trkpt><trkpt lat="27.698780637329467" lon="-11.71023686137516"><ele>306.99999999999994</ele><time>2026-04-29T13:45:23Z</time></trkpt><trkpt lat="27.698709145475707" lon="-11.710282778565379"><ele>307.0</ele><time>2026-04-29T13:45:24Z</time></trkpt><trkpt lat="27.698644755561595" lon="-11.710334827871426"><ele>307.0</ele><time>2026-04-29T13:45:25Z</time></trkpt><trkpt lat="27.698580508436045" lon="-11.710381860950418"><ele>307.0</ele><time>2026-04-29T13:45:26Z</time></trkpt><trkpt lat="27.698520804204094" lon="-11.710416753577388"><ele>307.0</ele><time>2026-04-29T13:45:27Z</time></trkpt><trkpt lat="27.69845650040722" lon="-11.710436089418211"><ele>306.99999999999994</ele><time>2026-04-29T13:45:28Z</time></trkpt><trkpt lat="27.698386091277968" lon="-11.710469998417466"><ele>307.0</ele><time>2026-04-29T13:45:29Z</time></trkpt><trkpt lat="27.69831793627253" lon="-11.710513180870915"><ele>307.0</ele><time>2026-04-29T13:45:30Z</time></trkpt><trkpt lat="27.698252797935762" lon="-11.710565103073808"><ele>307.0</ele><time>2026-04-29T13:45:31Z</time></trkpt><trkpt lat="27.6981927496739" lon="-11.710598018296793"><ele>307.0</ele><time>2026-04-29T13:45:32Z</time></trkpt><trkpt lat="27.6981310454664" lon="-11.710634361093984"><ele>307.0</ele><time>2026-04-29T13:45:33Z</time></trkpt><trkpt lat="27.698051478643492" lon="-11.710674673018787"><ele>307.0</ele><time>2026-04-29T13:45:34Z</time></trkpt><trkpt lat="27.69796676335117" lon="-11.710719395310091"><ele>307.0</ele><time>2026-04-29T13:45:35Z</time></trkpt><trkpt lat="27.697882188462053" lon="-11.7107694999656"><ele>307.0</ele><time>2026-04-29T13:45:36Z</time></trkpt><trkpt lat="27.6977930057396" lon="-11.710824350275278"><ele>307.0</ele><time>2026-04-29T13:45:37Z</time></trkpt><trkpt lat="27.697702361588707" lon="-11.710881254045013"><ele>307.0</ele><time>2026-04-29T13:45:38Z</time></trkpt><trkpt lat="27.697610661139404" lon="-11.7109485632821"><ele>307.0</ele><time>2026-04-29T13:45:39Z</time></trkpt><trkpt lat="27.697520550972044" lon="-11.71102228392653"><ele>307.0</ele><time>2026-04-29T13:45:40Z</time></trkpt><trkpt lat="27.69744550963296" lon="-11.711096633718581"><ele>307.0</ele><time>2026-04-29T13:45:41Z</time></trkpt><trkpt lat="27.69736880055155" lon="-11.711176665431504"><ele>307.0</ele><time>2026-04-29T13:45:42Z</time></trkpt><trkpt lat="27.697284630325395" lon="-11.711256299923868"><ele>307.0</ele><time>2026-04-29T13:45:43Z</time></trkpt><trkpt lat="27.697198006399894" lon="-11.711334014830966"><ele>307.0</ele><time>2026-04-29T13:45:44Z</time></trkpt><trkpt lat="27.69710612736525" lon="-11.711421750411336"><ele>307.0</ele><time>2026-04-29T13:45:45Z</time></trkpt><trkpt lat="27.697022306197926" lon="-11.711511180760684"><ele>307.0</ele><time>2026-04-29T13:45:46Z</time></trkpt><trkpt lat="27.696938030128845" lon="-11.711600671649395"><ele>307.0</ele><time>2026-04-29T13:45:47Z</time></trkpt><trkpt lat="27.696850634660063" lon="-11.7116976111482"><ele>307.0</ele><time>2026-04-29T13:45:48Z</time></trkpt><trkpt lat="27.696760173552" lon="-11.711787262913944"><ele>307.0</ele><time>2026-04-29T13:45:49Z</time></trkpt><trkpt lat="27.696667594782085" lon="-11.711876993429357"><ele>307.0</ele><time>2026-04-29T13:45:50Z</time></trkpt><trkpt lat="27.696573065421884" lon="-11.711962117154156"><ele>307.0</ele><time>2026-04-29T13:45:51Z</time></trkpt><trkpt lat="27.6964803383157" lon="-11.712045185964014"><ele>307.0</ele><time>2026-04-29T13:45:52Z</time></trkpt><trkpt lat="27.696389444666348" lon="-11.712130556399908"><ele>307.0</ele><time>2026-04-29T13:45:53Z</time></trkpt><trkpt lat="27.696296707818203" lon="-11.712219701591183"><ele>307.0</ele><time>2026-04-29T13:45:54Z</time></trkpt><trkpt lat="27.69620907170043" lon="-11.712304598057692"><ele>307.0</ele><time>2026-04-29T13:45:55Z</time></trkpt><trkpt lat="27.69612226101674" lon="-11.712388962406708"><ele>307.0</ele><time>2026-04-29T13:45:56Z</time></trkpt><trkpt lat="27.696031516878367" lon="-11.712473596188891"><ele>307.0</ele><time>2026-04-29T13:45:57Z</time></trkpt><trkpt lat="27.69594234223134" lon="-11.712555101511217"><ele>306.8</ele><time>2026-04-29T13:45:58Z</time></trkpt><trkpt lat="27.69586280621169" lon="-11.712626014831985"><ele>306.6</ele><time>2026-04-29T13:45:59Z</time></trkpt><trkpt lat="27.69577917398644" lon="-11.712694745721272"><ele>306.40000000000003</ele><time>2026-04-29T13:46:00Z</time></trkpt><trkpt lat="27.695688749848223" lon="-11.712765449897107"><ele>306.2</ele><time>2026-04-29T13:46:01Z</time></trkpt><trkpt lat="27.695597824876845" lon="-11.712835625599052"><ele>306.0</ele><time>2026-04-29T13:46:02Z</time></trkpt><trkpt lat="27.69550464344568" lon="-11.712907071320107"><ele>306.0</ele><time>2026-04-29T13:46:03Z</time></trkpt><trkpt lat="27.69541187267619" lon="-11.7129816438362"><ele>306.0</ele><time>2026-04-29T13:46:04Z</time></trkpt><trkpt lat="27.695325191332316" lon="-11.713054931346303"><ele>306.0</ele><time>2026-04-29T13:46:05Z</time></trkpt><trkpt lat="27.69524290302484" lon="-11.713124192698375"><ele>306.0</ele><time>2026-04-29T13:46:06Z</time></trkpt><trkpt lat="27.695163401188154" lon="-11.713190260513151"><ele>306.0</ele><time>2026-04-29T13:46:07Z</time></trkpt><trkpt lat="27.69509113424213" lon="-11.713251330770037"><ele>306.1666666666667</ele><time>2026-04-29T13:46:08Z</time></trkpt><trkpt lat="27.69502642739165" lon="-11.71330606550892"><ele>306.3333333333333</ele><time>2026-04-29T13:46:09Z</time></trkpt><trkpt lat="27.694962711806514" lon="-11.713363798874967"><ele>306.5</ele><time>2026-04-29T13:46:10Z</time></trkpt><trkpt lat="27.694899258948368" lon="-11.713419359457435"><ele>306.66666666666663</ele><time>2026-04-29T13:46:11Z</time></trkpt><trkpt lat="27.694829255518453" lon="-11.713471538873536"><ele>306.8333333333333</ele><time>2026-04-29T13:46:12Z</time></trkpt><trkpt lat="27.69475632003508" lon="-11.713525595040851"><ele>307.0</ele><time>2026-04-29T13:46:13Z</time></trkpt><trkpt lat="27.694687123491608" lon="-11.71358718925858"><ele>307.2</ele><time>2026-04-29T13:46:14Z</time></trkpt><trkpt lat="27.694620627584975" lon="-11.71365121073997"><ele>307.4</ele><time>2026-04-29T13:46:15Z</time></trkpt><trkpt lat="27.694550596768597" lon="-11.713717907050462"><ele>307.6</ele><time>2026-04-29T13:46:16Z</time></trkpt><trkpt lat="27.694475391225097" lon="-11.713783068541543"><ele>307.8</ele><time>2026-04-29T13:46:17Z</time></trkpt><trkpt lat="27.69439792809255" lon="-11.71384526457619"><ele>308.0</ele><time>2026-04-29T13:46:18Z</time></trkpt><trkpt lat="27.694322984350624" lon="-11.713910199286158"><ele>308.0</ele><time>2026-04-29T13:46:19Z</time></trkpt><trkpt lat="27.694245726012323" lon="-11.713978083447586"><ele>308.0</ele><time>2026-04-29T13:46:20Z</time></trkpt><trkpt lat="27.694167029052277" lon="-11.714043355635981"><ele>308.0</ele><time>2026-04-29T13:46:21Z</time></trkpt><trkpt lat="27.694083898313885" lon="-11.714108490538578"><ele>308.0</ele><time>2026-04-29T13:46:22Z</time></trkpt><trkpt lat="27.694002490148645" lon="-11.714174340146206"><ele>308.0</ele><time>2026-04-29T13:46:23Z</time></trkpt><trkpt lat="27.693916938523973" lon="-11.714244863125948"><ele>308.0</ele><time>2026-04-29T13:46:24Z</time></trkpt><trkpt lat="27.693828976838322" lon="-11.714313102451628"><ele>308.0</ele><time>2026-04-29T13:46:25Z</time></trkpt><trkpt lat="27.693737765851814" lon="-11.714382813153087"><ele>308.0</ele><time>2026-04-29T13:46:26Z</time></trkpt><trkpt lat="27.693645154745795" lon="-11.714461018711052"><ele>308.0</ele><time>2026-04-29T13:46:27Z</time></trkpt><trkpt lat="27.69355680868235" lon="-11.714541404337542"><ele>308.0</ele><time>2026-04-29T13:46:28Z</time></trkpt><trkpt lat="27.693464681213687" lon="-11.714619676664036"><ele>308.25</ele><time>2026-04-29T13:46:29Z</time></trkpt><trkpt lat="27.693369469918945" lon="-11.714700844893212"><ele>308.5</ele><time>2026-04-29T13:46:30Z</time></trkpt><trkpt lat="27.693274813338196" lon="-11.714781485948887"><ele>308.75</ele><time>2026-04-29T13:46:31Z</time></trkpt><trkpt lat="27.693174546824956" lon="-11.714863126174695"><ele>309.0</ele><time>2026-04-29T13:46:32Z</time></trkpt><trkpt lat="27.693077574267598" lon="-11.714940669561184"><ele>309.0</ele><time>2026-04-29T13:46:33Z</time></trkpt><trkpt lat="27.69298355960376" lon="-11.715015483920716"><ele>309.0</ele><time>2026-04-29T13:46:34Z</time></trkpt><trkpt lat="27.692903292751275" lon="-11.715082781362886"><ele>309.0</ele><time>2026-04-29T13:46:35Z</time></trkpt><trkpt lat="27.692828481331468" lon="-11.715146661849907"><ele>309.0</ele><time>2026-04-29T13:46:36Z</time></trkpt><trkpt lat="27.692762015019206" lon="-11.715206718974782"><ele>309.0</ele><time>2026-04-29T13:46:37Z</time></trkpt><trkpt lat="27.692696065127258" lon="-11.715262732003946"><ele>309.0</ele><time>2026-04-29T13:46:38Z</time></trkpt><trkpt lat="27.692625168983835" lon="-11.715318163355445"><ele>309.0</ele><time>2026-04-29T13:46:39Z</time></trkpt><trkpt lat="27.692554848148568" lon="-11.71537088025698"><ele>309.0</ele><time>2026-04-29T13:46:40Z</time></trkpt><trkpt lat="27.69248319313358" lon="-11.71542653074735"><ele>309.0</ele><time>2026-04-29T13:46:41Z</time></trkpt><trkpt lat="27.692411777498553" lon="-11.71548476416373"><ele>309.0</ele><time>2026-04-29T13:46:42Z</time></trkpt><trkpt lat="27.692344547282325" lon="-11.715541266106484"><ele>309.0</ele><time>2026-04-29T13:46:43Z</time></trkpt><trkpt lat="27.692268584828323" lon="-11.715600910273933"><ele>309.0</ele><time>2026-04-29T13:46:44Z</time></trkpt><trkpt lat="27.69219290067813" lon="-11.71565696038868"><ele>309.0</ele><time>2026-04-29T13:46:45Z</time></trkpt><trkpt lat="27.69211795520858" lon="-11.715717135449522"><ele>309.0</ele><time>2026-04-29T13:46:46Z</time></trkpt><trkpt lat="27.692052089769287" lon="-11.715774516851319"><ele>309.0</ele><time>2026-04-29T13:46:47Z</time></trkpt><trkpt lat="27.691979309919247" lon="-11.715832551463333"><ele>309.0</ele><time>2026-04-29T13:46:48Z</time></trkpt><trkpt lat="27.691903844806465" lon="-11.7158886877569"><ele>309.0</ele><time>2026-04-29T13:46:49Z</time></trkpt><trkpt lat="27.691825041986043" lon="-11.715946287683282"><ele>309.2</ele><time>2026-04-29T13:46:50Z</time></trkpt><trkpt lat="27.691743804144263" lon="-11.716003954298134"><ele>309.4</ele><time>2026-04-29T13:46:51Z</time></trkpt><trkpt lat="27.691661656301353" lon="-11.71606258901756"><ele>309.6</ele><time>2026-04-29T13:46:52Z</time></trkpt><trkpt lat="27.69158711113801" lon="-11.716119648403454"><ele>309.8</ele><time>2026-04-29T13:46:53Z</time></trkpt><trkpt lat="27.69151026186045" lon="-11.716181943846932"><ele>310.0</ele><time>2026-04-29T13:46:54Z</time></trkpt><trkpt lat="27.691435242487795" lon="-11.716243674147394"><ele>310.0</ele><time>2026-04-29T13:46:55Z</time></trkpt><trkpt lat="27.691357460305078" lon="-11.716304459361558"><ele>310.0</ele><time>2026-04-29T13:46:56Z</time></trkpt><trkpt lat="27.6912862165608" lon="-11.716362925825663"><ele>310.0</ele><time>2026-04-29T13:46:57Z</time></trkpt><trkpt lat="27.69121766984324" lon="-11.716416129639818"><ele>310.0</ele><time>2026-04-29T13:46:58Z</time></trkpt><trkpt lat="27.691155292259417" lon="-11.716464055518252"><ele>310.0</ele><time>2026-04-29T13:46:59Z</time></trkpt><trkpt lat="27.691094530058937" lon="-11.716512398989636"><ele>310.0</ele><time>2026-04-29T13:47:00Z</time></trkpt><trkpt lat="27.691038232412048" lon="-11.716557017492"><ele>309.8333333333333</ele><time>2026-04-29T13:47:01Z</time></trkpt><trkpt lat="27.69098595696816" lon="-11.716599938907127"><ele>309.66666666666663</ele><time>2026-04-29T13:47:02Z</time></trkpt><trkpt lat="27.690931743099593" lon="-11.716644838198752"><ele>309.5</ele><time>2026-04-29T13:47:03Z</time></trkpt><trkpt lat="27.690872187422205" lon="-11.716693568016531"><ele>309.3333333333333</ele><time>2026-04-29T13:47:04Z</time></trkpt><trkpt lat="27.69079483818775" lon="-11.716758306208549"><ele>309.1666666666667</ele><time>2026-04-29T13:47:05Z</time></trkpt><trkpt lat="27.69071686478418" lon="-11.716821233129528"><ele>309.0</ele><time>2026-04-29T13:47:06Z</time></trkpt><trkpt lat="27.69062843283209" lon="-11.716890482194868"><ele>309.25</ele><time>2026-04-29T13:47:07Z</time></trkpt><trkpt lat="27.690537761995472" lon="-11.716967184691201"><ele>309.5</ele><time>2026-04-29T13:47:08Z</time></trkpt><trkpt lat="27.690437404206317" lon="-11.717060587978667"><ele>309.75</ele><time>2026-04-29T13:47:09Z</time></trkpt><trkpt lat="27.690346104895156" lon="-11.71716026403753"><ele>310.0</ele><time>2026-04-29T13:47:10Z</time></trkpt><trkpt lat="27.690253802748977" lon="-11.717267420910167"><ele>310.0</ele><time>2026-04-29T13:47:11Z</time></trkpt><trkpt lat="27.690167981056952" lon="-11.717370170483123"><ele>310.0</ele><time>2026-04-29T13:47:12Z</time></trkpt><trkpt lat="27.690073543867413" lon="-11.717476302208578"><ele>310.0</ele><time>2026-04-29T13:47:13Z</time></trkpt><trkpt lat="27.689979354664217" lon="-11.71758731111071"><ele>310.0</ele><time>2026-04-29T13:47:14Z</time></trkpt><trkpt lat="27.689890791288736" lon="-11.717693577153304"><ele>310.0</ele><time>2026-04-29T13:47:15Z</time></trkpt><trkpt lat="27.68980298664145" lon="-11.717798712470332"><ele>310.0</ele><time>2026-04-29T13:47:16Z</time></trkpt><trkpt lat="27.689717545163898" lon="-11.717903683738772"><ele>310.0</ele><time>2026-04-29T13:47:17Z</time></trkpt><trkpt lat="27.689626661094135" lon="-11.718001001268815"><ele>310.0</ele><time>2026-04-29T13:47:18Z</time></trkpt><trkpt lat="27.68953009057458" lon="-11.71808479377108"><ele>310.0</ele><time>2026-04-29T13:47:19Z</time></trkpt><trkpt lat="27.689432796818842" lon="-11.718166100191715"><ele>310.0</ele><time>2026-04-29T13:47:20Z</time></trkpt><trkpt lat="27.689337228226805" lon="-11.718245101869114"><ele>310.0</ele><time>2026-04-29T13:47:21Z</time></trkpt><trkpt lat="27.689242424993076" lon="-11.71832576938947"><ele>310.0</ele><time>2026-04-29T13:47:22Z</time></trkpt><trkpt lat="27.689152642318064" lon="-11.718410547606458"><ele>310.0</ele><time>2026-04-29T13:47:23Z</time></trkpt><trkpt lat="27.68906031851009" lon="-11.718492364702913"><ele>310.0</ele><time>2026-04-29T13:47:24Z</time></trkpt><trkpt lat="27.68896868213137" lon="-11.718575500058664"><ele>310.0</ele><time>2026-04-29T13:47:25Z</time></trkpt><trkpt lat="27.688877569068822" lon="-11.718661174169739"><ele>310.0</ele><time>2026-04-29T13:47:26Z</time></trkpt><trkpt lat="27.688783349620564" lon="-11.718752269037363"><ele>310.5</ele><time>2026-04-29T13:47:27Z</time></trkpt><trkpt lat="27.688689226601593" lon="-11.718845954585706"><ele>311.0</ele><time>2026-04-29T13:47:28Z</time></trkpt><trkpt lat="27.688600927984222" lon="-11.718943477526631"><ele>311.5</ele><time>2026-04-29T13:47:29Z</time></trkpt><trkpt lat="27.68850746903987" lon="-11.719048643993048"><ele>312.0</ele><time>2026-04-29T13:47:30Z</time></trkpt><trkpt lat="27.688412572916082" lon="-11.719146238405704"><ele>312.0</ele><time>2026-04-29T13:47:31Z</time></trkpt><trkpt lat="27.688304412610975" lon="-11.719254991012814"><ele>312.0</ele><time>2026-04-29T13:47:32Z</time></trkpt><trkpt lat="27.688204264753065" lon="-11.719350050763863"><ele>312.0</ele><time>2026-04-29T13:47:33Z</time></trkpt><trkpt lat="27.688101841061442" lon="-11.719445872901835"><ele>312.0</ele><time>2026-04-29T13:47:34Z</time></trkpt><trkpt lat="27.687995240706503" lon="-11.719545358432656"><ele>312.0</ele><time>2026-04-29T13:47:35Z</time></trkpt><trkpt lat="27.687888762732136" lon="-11.719641108259786"><ele>312.0</ele><time>2026-04-29T13:47:36Z</time></trkpt><trkpt lat="27.68778032629587" lon="-11.719735408809342"><ele>312.0</ele><time>2026-04-29T13:47:37Z</time></trkpt><trkpt lat="27.687675404062762" lon="-11.71983305723404"><ele>312.0</ele><time>2026-04-29T13:47:38Z</time></trkpt><trkpt lat="27.68757635030261" lon="-11.719932255407185"><ele>312.0</ele><time>2026-04-29T13:47:39Z</time></trkpt><trkpt lat="27.687474439603704" lon="-11.720038769143903"><ele>312.0</ele><time>2026-04-29T13:47:40Z</time></trkpt><trkpt lat="27.68737011487809" lon="-11.720135747793764"><ele>312.0</ele><time>2026-04-29T13:47:41Z</time></trkpt><trkpt lat="27.687264498490958" lon="-11.720215351987367"><ele>312.0</ele><time>2026-04-29T13:47:42Z</time></trkpt><trkpt lat="27.68715946852584" lon="-11.720284889076883"><ele>312.0</ele><time>2026-04-29T13:47:43Z</time></trkpt><trkpt lat="27.687047704171547" lon="-11.720353501429994"><ele>312.0</ele><time>2026-04-29T13:47:44Z</time></trkpt><trkpt lat="27.686935917599133" lon="-11.72041141676141"><ele>312.0</ele><time>2026-04-29T13:47:45Z</time></trkpt><trkpt lat="27.68681142640926" lon="-11.720461263168767"><ele>312.0</ele><time>2026-04-29T13:47:46Z</time></trkpt><trkpt lat="27.686677777049063" lon="-11.720496141528885"><ele>312.0</ele><time>2026-04-29T13:47:47Z</time></trkpt><trkpt lat="27.686520255443668" lon="-11.720525411401967"><ele>312.0</ele><time>2026-04-29T13:47:48Z</time></trkpt><trkpt lat="27.686336797845" lon="-11.720549014171828"><ele>312.0</ele><time>2026-04-29T13:47:49Z</time></trkpt><trkpt lat="27.686174934903512" lon="-11.720556537129141"><ele>312.0</ele><time>2026-04-29T13:47:50Z</time></trkpt><trkpt lat="27.68602854957396" lon="-11.720569037560413"><ele>312.0</ele><time>2026-04-29T13:47:51Z</time></trkpt><trkpt lat="27.685890675976545" lon="-11.720582275879433"><ele>312.0</ele><time>2026-04-29T13:47:52Z</time></trkpt><trkpt lat="27.68575899904945" lon="-11.72059130458172"><ele>312.0</ele><time>2026-04-29T13:47:53Z</time></trkpt><trkpt lat="27.685622747308287" lon="-11.720595299709627"><ele>312.0</ele><time>2026-04-29T13:47:54Z</time></trkpt><trkpt lat="27.685481962372375" lon="-11.720593333275227"><ele>312.0</ele><time>2026-04-29T13:47:55Z</time></trkpt><trkpt lat="27.685343299076525" lon="-11.720593105193435"><ele>312.0</ele><time>2026-04-29T13:47:56Z</time></trkpt><trkpt lat="27.685199356122883" lon="-11.720596419912269"><ele>312.0</ele><time>2026-04-29T13:47:57Z</time></trkpt><trkpt lat="27.685043628001686" lon="-11.720608396696246"><ele>311.6666666666667</ele><time>2026-04-29T13:47:58Z</time></trkpt><trkpt lat="27.684878493701387" lon="-11.720632883187223"><ele>311.33333333333337</ele><time>2026-04-29T13:47:59Z</time></trkpt><trkpt lat="27.684710471975716" lon="-11.720661919699456"><ele>311.0</ele><time>2026-04-29T13:48:00Z</time></trkpt><trkpt lat="27.68454390126333" lon="-11.720692300828588"><ele>311.33333333333337</ele><time>2026-04-29T13:48:01Z</time></trkpt><trkpt lat="27.68436245221351" lon="-11.720709271134023"><ele>311.6666666666667</ele><time>2026-04-29T13:48:02Z</time></trkpt><trkpt lat="27.68417216054204" lon="-11.720734137327899"><ele>312.0</ele><time>2026-04-29T13:48:03Z</time></trkpt><trkpt lat="27.683976612445836" lon="-11.720754607222355"><ele>312.0</ele><time>2026-04-29T13:48:04Z</time></trkpt><trkpt lat="27.68377133968602" lon="-11.720773239074068"><ele>312.0</ele><time>2026-04-29T13:48:05Z</time></trkpt><trkpt lat="27.68355223489553" lon="-11.720785992931845"><ele>312.0</ele><time>2026-04-29T13:48:06Z</time></trkpt><trkpt lat="27.683341314471242" lon="-11.720794451732912"><ele>312.0</ele><time>2026-04-29T13:48:07Z</time></trkpt><trkpt lat="27.6831245752121" lon="-11.720797138668063"><ele>312.0</ele><time>2026-04-29T13:48:08Z</time></trkpt><trkpt lat="27.682915211186547" lon="-11.720796236117973"><ele>312.0</ele><time>2026-04-29T13:48:09Z</time></trkpt><trkpt lat="27.68270642438194" lon="-11.720798839311938"><ele>312.0</ele><time>2026-04-29T13:48:10Z</time></trkpt><trkpt lat="27.682493631230365" lon="-11.720805617805484"><ele>312.0</ele><time>2026-04-29T13:48:11Z</time></trkpt><trkpt lat="27.682287374589045" lon="-11.720814043800027"><ele>312.0</ele><time>2026-04-29T13:48:12Z</time></trkpt><trkpt lat="27.68207353938289" lon="-11.72081903505542"><ele>311.6666666666667</ele><time>2026-04-29T13:48:13Z</time></trkpt><trkpt lat="27.681861650669482" lon="-11.720828293858597"><ele>311.33333333333337</ele><time>2026-04-29T13:48:14Z</time></trkpt><trkpt lat="27.68163920434143" lon="-11.720835409629316"><ele>311.0</ele><time>2026-04-29T13:48:15Z</time></trkpt><trkpt lat="27.681423900454277" lon="-11.720833047371068"><ele>311.0</ele><time>2026-04-29T13:48:16Z</time></trkpt><trkpt lat="27.681199156194864" lon="-11.720821770343036"><ele>311.0</ele><time>2026-04-29T13:48:17Z</time></trkpt><trkpt lat="27.68096822036628" lon="-11.72080777313527"><ele>311.0</ele><time>2026-04-29T13:48:18Z</time></trkpt><trkpt lat="27.680731163947883" lon="-11.720797720527216"><ele>311.0</ele><time>2026-04-29T13:48:19Z</time></trkpt><trkpt lat="27.680494341392798" lon="-11.720794752439682"><ele>311.5</ele><time>2026-04-29T13:48:20Z</time></trkpt><trkpt lat="27.68025822343774" lon="-11.720795887552583"><ele>312.0</ele><time>2026-04-29T13:48:21Z</time></trkpt><trkpt lat="27.680030647194407" lon="-11.720794731527526"><ele>312.0</ele><time>2026-04-29T13:48:22Z</time></trkpt><trkpt lat="27.679799704046182" lon="-11.720798281360427"><ele>312.0</ele><time>2026-04-29T13:48:23Z</time></trkpt><trkpt lat="27.679567244746714" lon="-11.720803944151623"><ele>312.3333333333333</ele><time>2026-04-29T13:48:24Z</time></trkpt><trkpt lat="27.67935188204972" lon="-11.720824151894945"><ele>312.66666666666663</ele><time>2026-04-29T13:48:25Z</time></trkpt><trkpt lat="27.679128039421897" lon="-11.720849454321929"><ele>313.0</ele><time>2026-04-29T13:48:26Z</time></trkpt><trkpt lat="27.67889749789808" lon="-11.720872040742984"><ele>313.0</ele><time>2026-04-29T13:48:27Z</time></trkpt><trkpt lat="27.678680442163664" lon="-11.720890820244339"><ele>313.0</ele><time>2026-04-29T13:48:28Z</time></trkpt><trkpt lat="27.678454868753033" lon="-11.720910142670295"><ele>313.0</ele><time>2026-04-29T13:48:29Z</time></trkpt><trkpt lat="27.678231829364194" lon="-11.720928400402098"><ele>313.0</ele><time>2026-04-29T13:48:30Z</time></trkpt><trkpt lat="27.677990046502046" lon="-11.720946445456617"><ele>313.0</ele><time>2026-04-29T13:48:31Z</time></trkpt><trkpt lat="27.677771402788593" lon="-11.720965861736072"><ele>311.5</ele><time>2026-04-29T13:48:32Z</time></trkpt><trkpt lat="27.67753367703773" lon="-11.720986942443655"><ele>310.0</ele><time>2026-04-29T13:48:33Z</time></trkpt><trkpt lat="27.677310293533658" lon="-11.721004804251244"><ele>310.0</ele><time>2026-04-29T13:48:34Z</time></trkpt><trkpt lat="27.67709029706275" lon="-11.721014610621143"><ele>310.0</ele><time>2026-04-29T13:48:35Z</time></trkpt><trkpt lat="27.67686266991052" lon="-11.721018646150904"><ele>310.0</ele><time>2026-04-29T13:48:36Z</time></trkpt><trkpt lat="27.676627380220353" lon="-11.7210254106785"><ele>311.0</ele><time>2026-04-29T13:48:37Z</time></trkpt><trkpt lat="27.676380302606862" lon="-11.721027113999638"><ele>312.0</ele><time>2026-04-29T13:48:38Z</time></trkpt><trkpt lat="27.676131455110045" lon="-11.721031921371008"><ele>312.0</ele><time>2026-04-29T13:48:39Z</time></trkpt><trkpt lat="27.67588575498239" lon="-11.721035985045175"><ele>312.0</ele><time>2026-04-29T13:48:40Z</time></trkpt><trkpt lat="27.67564814433021" lon="-11.721043304320105"><ele>312.0</ele><time>2026-04-29T13:48:41Z</time></trkpt><trkpt lat="27.675401208696655" lon="-11.72104996989953"><ele>312.0</ele><time>2026-04-29T13:48:42Z</time></trkpt><trkpt lat="27.675156649083462" lon="-11.721057787251816"><ele>312.0</ele><time>2026-04-29T13:48:43Z</time></trkpt><trkpt lat="27.6749174782934" lon="-11.721066453018134"><ele>312.0</ele><time>2026-04-29T13:48:44Z</time></trkpt><trkpt lat="27.67469128176352" lon="-11.72108685596066"><ele>312.0</ele><time>2026-04-29T13:48:45Z</time></trkpt><trkpt lat="27.674462892861396" lon="-11.721118445706797"><ele>312.0</ele><time>2026-04-29T13:48:46Z</time></trkpt><trkpt lat="27.674234795119805" lon="-11.72114877586429"><ele>312.0</ele><time>2026-04-29T13:48:47Z</time></trkpt><trkpt lat="27.674003138688825" lon="-11.72117761921549"><ele>312.0</ele><time>2026-04-29T13:48:48Z</time></trkpt><trkpt lat="27.67378292425957" lon="-11.7212058237677"><ele>312.0</ele><time>2026-04-29T13:48:49Z</time></trkpt><trkpt lat="27.67356765528232" lon="-11.721232595395868"><ele>312.0</ele><time>2026-04-29T13:48:50Z</time></trkpt><trkpt lat="27.67334878662844" lon="-11.72126299805886"><ele>312.0</ele><time>2026-04-29T13:48:51Z</time></trkpt><trkpt lat="27.67313417599521" lon="-11.721295237424409"><ele>312.0</ele><time>2026-04-29T13:48:52Z</time></trkpt><trkpt lat="27.67290868100814" lon="-11.721331254380882"><ele>312.0</ele><time>2026-04-29T13:48:53Z</time></trkpt><trkpt lat="27.672688817025556" lon="-11.721370396825783"><ele>312.3333333333333</ele><time>2026-04-29T13:48:54Z</time></trkpt><trkpt lat="27.67247111927536" lon="-11.721410251058144"><ele>312.66666666666663</ele><time>2026-04-29T13:48:55Z</time></trkpt><trkpt lat="27.67225677404919" lon="-11.72145763502718"><ele>313.0</ele><time>2026-04-29T13:48:56Z</time></trkpt><trkpt lat="27.67204443125239" lon="-11.721509572153916"><ele>312.0</ele><time>2026-04-29T13:48:57Z</time></trkpt><trkpt lat="27.671830578081057" lon="-11.721570671931037"><ele>311.0</ele><time>2026-04-29T13:48:58Z</time></trkpt><trkpt lat="27.671612888319608" lon="-11.7216366711457"><ele>310.0</ele><time>2026-04-29T13:48:59Z</time></trkpt><trkpt lat="27.67140373793462" lon="-11.7216930690606"><ele>310.0</ele><time>2026-04-29T13:49:00Z</time></trkpt><trkpt lat="27.671199037359827" lon="-11.721741271273887"><ele>310.0</ele><time>2026-04-29T13:49:01Z</time></trkpt><trkpt lat="27.67101687173444" lon="-11.72176280060383"><ele>310.0</ele><time>2026-04-29T13:49:02Z</time></trkpt><trkpt lat="27.67083104743782" lon="-11.721757172536956"><ele>310.0</ele><time>2026-04-29T13:49:03Z</time></trkpt><trkpt lat="27.67063337418809" lon="-11.721737858097086"><ele>310.0</ele><time>2026-04-29T13:49:04Z</time></trkpt><trkpt lat="27.670434660547965" lon="-11.721714571515273"><ele>310.0</ele><time>2026-04-29T13:49:05Z</time></trkpt><trkpt lat="27.67024486552556" lon="-11.721696802409639"><ele>311.0</ele><time>2026-04-29T13:49:06Z</time></trkpt><trkpt lat="27.670056308911146" lon="-11.721686620885809"><ele>312.0</ele><time>2026-04-29T13:49:07Z</time></trkpt><trkpt lat="27.669867009414144" lon="-11.721687795226243"><ele>313.0</ele><time>2026-04-29T13:49:08Z</time></trkpt><trkpt lat="27.669691938054648" lon="-11.72170108796343"><ele>313.0</ele><time>2026-04-29T13:49:09Z</time></trkpt><trkpt lat="27.669508610006552" lon="-11.72172790832942"><ele>313.0</ele><time>2026-04-29T13:49:10Z</time></trkpt><trkpt lat="27.66930219369087" lon="-11.721758748442662"><ele>313.0</ele><time>2026-04-29T13:49:11Z</time></trkpt><trkpt lat="27.669072587758674" lon="-11.721791914006436"><ele>313.0</ele><time>2026-04-29T13:49:12Z</time></trkpt><trkpt lat="27.668829039965065" lon="-11.721848281126695"><ele>313.0</ele><time>2026-04-29T13:49:13Z</time></trkpt><trkpt lat="27.668580057294125" lon="-11.721920088887419"><ele>312.5</ele><time>2026-04-29T13:49:14Z</time></trkpt><trkpt lat="27.66831996195381" lon="-11.721996265681188"><ele>312.0</ele><time>2026-04-29T13:49:15Z</time></trkpt><trkpt lat="27.66805107724972" lon="-11.722069191764009"><ele>312.0</ele><time>2026-04-29T13:49:16Z</time></trkpt><trkpt lat="27.667789356363645" lon="-11.72214526665898"><ele>312.0</ele><time>2026-04-29T13:49:17Z</time></trkpt><trkpt lat="27.66752719291388" lon="-11.722215558548116"><ele>312.0</ele><time>2026-04-29T13:49:18Z</time></trkpt><trkpt lat="27.667278225240853" lon="-11.722283760398176"><ele>312.0</ele><time>2026-04-29T13:49:19Z</time></trkpt><trkpt lat="27.66702614663739" lon="-11.722346362658357"><ele>311.5</ele><time>2026-04-29T13:49:20Z</time></trkpt><trkpt lat="27.66677672345022" lon="-11.722396202492462"><ele>311.0</ele><time>2026-04-29T13:49:21Z</time></trkpt><trkpt lat="27.66652752445882" lon="-11.722440612124412"><ele>311.0</ele><time>2026-04-29T13:49:22Z</time></trkpt><trkpt lat="27.666272102139246" lon="-11.72248563076197"><ele>311.0</ele><time>2026-04-29T13:49:23Z</time></trkpt><trkpt lat="27.666026963523116" lon="-11.722525191231643"><ele>312.0</ele><time>2026-04-29T13:49:24Z</time></trkpt><trkpt lat="27.665780228382875" lon="-11.722562791185709"><ele>313.0</ele><time>2026-04-29T13:49:25Z</time></trkpt><trkpt lat="27.665536792808354" lon="-11.722589197847057"><ele>313.0</ele><time>2026-04-29T13:49:26Z</time></trkpt><trkpt lat="27.66531583545313" lon="-11.722615120903097"><ele>313.0</ele><time>2026-04-29T13:49:27Z</time></trkpt><trkpt lat="27.665090338393824" lon="-11.722630494593743"><ele>313.0</ele><time>2026-04-29T13:49:28Z</time></trkpt><trkpt lat="27.664870990243134" lon="-11.722656266633452"><ele>312.0</ele><time>2026-04-29T13:49:29Z</time></trkpt><trkpt lat="27.66462102950113" lon="-11.722689361396121"><ele>311.0</ele><time>2026-04-29T13:49:30Z</time></trkpt><trkpt lat="27.664365120439864" lon="-11.72272480690469"><ele>311.0</ele><time>2026-04-29T13:49:31Z</time></trkpt><trkpt lat="27.664102287280315" lon="-11.722762154355062"><ele>311.0</ele><time>2026-04-29T13:49:32Z</time></trkpt><trkpt lat="27.663834536347917" lon="-11.722796545223442"><ele>313.0</ele><time>2026-04-29T13:49:33Z</time></trkpt><trkpt lat="27.663555198758544" lon="-11.72283137284721"><ele>315.0</ele><time>2026-04-29T13:49:34Z</time></trkpt><trkpt lat="27.663276264158576" lon="-11.722869449265763"><ele>315.0</ele><time>2026-04-29T13:49:35Z</time></trkpt><trkpt lat="27.66302395685248" lon="-11.72290596422884"><ele>315.0</ele><time>2026-04-29T13:49:36Z</time></trkpt><trkpt lat="27.662773252649497" lon="-11.722946403815902"><ele>313.0</ele><time>2026-04-29T13:49:37Z</time></trkpt><trkpt lat="27.662532604371215" lon="-11.7229833691388"><ele>311.0</ele><time>2026-04-29T13:49:38Z</time></trkpt><trkpt lat="27.662298829688076" lon="-11.72301563908618"><ele>311.0</ele><time>2026-04-29T13:49:39Z</time></trkpt><trkpt lat="27.66205049466326" lon="-11.7230472678762"><ele>311.0</ele><time>2026-04-29T13:49:40Z</time></trkpt><trkpt lat="27.661797157615013" lon="-11.723082522354268"><ele>311.5</ele><time>2026-04-29T13:49:41Z</time></trkpt><trkpt lat="27.661562705378945" lon="-11.723114379759597"><ele>312.0</ele><time>2026-04-29T13:49:42Z</time></trkpt><trkpt lat="27.661341838332" lon="-11.723149684407103"><ele>312.0</ele><time>2026-04-29T13:49:43Z</time></trkpt><trkpt lat="27.661118523636524" lon="-11.723201700336887"><ele>312.0</ele><time>2026-04-29T13:49:44Z</time></trkpt><trkpt lat="27.660879888468575" lon="-11.723263939804538"><ele>311.5</ele><time>2026-04-29T13:49:45Z</time></trkpt><trkpt lat="27.660634975408378" lon="-11.723326255391624"><ele>311.0</ele><time>2026-04-29T13:49:46Z</time></trkpt><trkpt lat="27.660393663492012" lon="-11.723389827575826"><ele>311.5</ele><time>2026-04-29T13:49:47Z</time></trkpt><trkpt lat="27.66014683953367" lon="-11.723452643128368"><ele>312.0</ele><time>2026-04-29T13:49:48Z</time></trkpt><trkpt lat="27.659892769087875" lon="-11.723519257758555"><ele>312.0</ele><time>2026-04-29T13:49:49Z</time></trkpt><trkpt lat="27.65965883740535" lon="-11.723584170458977"><ele>312.0</ele><time>2026-04-29T13:49:50Z</time></trkpt><trkpt lat="27.6594182922172" lon="-11.723658583301857"><ele>311.5</ele><time>2026-04-29T13:49:51Z</time></trkpt><trkpt lat="27.65917732210256" lon="-11.72374192941111"><ele>311.0</ele><time>2026-04-29T13:49:52Z</time></trkpt><trkpt lat="27.6589300073467" lon="-11.72383358440297"><ele>311.0</ele><time>2026-04-29T13:49:53Z</time></trkpt><trkpt lat="27.65869036651697" lon="-11.723920213378058"><ele>311.0</ele><time>2026-04-29T13:49:54Z</time></trkpt><trkpt lat="27.658452687146557" lon="-11.72400582527918"><ele>310.5</ele><time>2026-04-29T13:49:55Z</time></trkpt><trkpt lat="27.65822241245435" lon="-11.724082494228288"><ele>310.0</ele><time>2026-04-29T13:49:56Z</time></trkpt><trkpt lat="27.65798456768279" lon="-11.72416037436334"><ele>310.5</ele><time>2026-04-29T13:49:57Z</time></trkpt><trkpt lat="27.657731611230474" lon="-11.7242385443231"><ele>311.0</ele><time>2026-04-29T13:49:58Z</time></trkpt><trkpt lat="27.65747813622374" lon="-11.724302880741934"><ele>311.0</ele><time>2026-04-29T13:49:59Z</time></trkpt><trkpt lat="27.65722264048485" lon="-11.724354195096016"><ele>311.0</ele><time>2026-04-29T13:50:00Z</time></trkpt><trkpt lat="27.656947096441804" lon="-11.724407945365453"><ele>312.5</ele><time>2026-04-29T13:50:01Z</time></trkpt><trkpt lat="27.6566721366893" lon="-11.724469073000837"><ele>314.0</ele><time>2026-04-29T13:50:02Z</time></trkpt><trkpt lat="27.65640626228254" lon="-11.724521234463833"><ele>314.0</ele><time>2026-04-29T13:50:03Z</time></trkpt><trkpt lat="27.65614628203867" lon="-11.724578305099081"><ele>314.0</ele><time>2026-04-29T13:50:04Z</time></trkpt><trkpt lat="27.655895085624852" lon="-11.724642239917998"><ele>313.5</ele><time>2026-04-29T13:50:05Z</time></trkpt><trkpt lat="27.655650647037607" lon="-11.724706940502632"><ele>313.0</ele><time>2026-04-29T13:50:06Z</time></trkpt><trkpt lat="27.655393292256633" lon="-11.724773288378376"><ele>312.5</ele><time>2026-04-29T13:50:07Z</time></trkpt><trkpt lat="27.65514519167335" lon="-11.72484134757332"><ele>312.0</ele><time>2026-04-29T13:50:08Z</time></trkpt><trkpt lat="27.654898261195147" lon="-11.72491242557428"><ele>312.0</ele><time>2026-04-29T13:50:09Z</time></trkpt><trkpt lat="27.654657481303378" lon="-11.724993555227348"><ele>312.0</ele><time>2026-04-29T13:50:10Z</time></trkpt><trkpt lat="27.654423335136073" lon="-11.725082095601984"><ele>312.0</ele><time>2026-04-29T13:50:11Z</time></trkpt><trkpt lat="27.65419332787837" lon="-11.725173209552333"><ele>312.0</ele><time>2026-04-29T13:50:12Z</time></trkpt><trkpt lat="27.653962932104843" lon="-11.725264746619045"><ele>312.0</ele><time>2026-04-29T13:50:13Z</time></trkpt><trkpt lat="27.653733822519413" lon="-11.7253514214882"><ele>312.0</ele><time>2026-04-29T13:50:14Z</time></trkpt><trkpt lat="27.65350149813519" lon="-11.725438467048118"><ele>312.5</ele><time>2026-04-29T13:50:15Z</time></trkpt><trkpt lat="27.653276696160905" lon="-11.725526126204523"><ele>313.0</ele><time>2026-04-29T13:50:16Z</time></trkpt><trkpt lat="27.653056601453056" lon="-11.725609942072223"><ele>313.0</ele><time>2026-04-29T13:50:17Z</time></trkpt><trkpt lat="27.652843813381804" lon="-11.725697095037383"><ele>313.0</ele><time>2026-04-29T13:50:18Z</time></trkpt><trkpt lat="27.652645510207396" lon="-11.725778760130737"><ele>313.0</ele><time>2026-04-29T13:50:19Z</time></trkpt><trkpt lat="27.652449638303576" lon="-11.725847030605882"><ele>313.0</ele><time>2026-04-29T13:50:20Z</time></trkpt><trkpt lat="27.652266910371036" lon="-11.725893310298124"><ele>313.0</ele><time>2026-04-29T13:50:21Z</time></trkpt><trkpt lat="27.652066866935524" lon="-11.725916001387496"><ele>313.0</ele><time>2026-04-29T13:50:22Z</time></trkpt><trkpt lat="27.65185406860714" lon="-11.725929615174834"><ele>312.66666666666663</ele><time>2026-04-29T13:50:23Z</time></trkpt><trkpt lat="27.651634303359053" lon="-11.725957951976929"><ele>312.3333333333333</ele><time>2026-04-29T13:50:24Z</time></trkpt><trkpt lat="27.65142991516909" lon="-11.725979425307168"><ele>312.0</ele><time>2026-04-29T13:50:25Z</time></trkpt><trkpt lat="27.651233285673733" lon="-11.725986268125437"><ele>311.3333333333333</ele><time>2026-04-29T13:50:26Z</time></trkpt><trkpt lat="27.651067137193277" lon="-11.725970835696133"><ele>310.66666666666663</ele><time>2026-04-29T13:50:27Z</time></trkpt><trkpt lat="27.650891149191168" lon="-11.725947244411698"><ele>310.0</ele><time>2026-04-29T13:50:28Z</time></trkpt><trkpt lat="27.65069495437352" lon="-11.725902052056718"><ele>310.0</ele><time>2026-04-29T13:50:29Z</time></trkpt><trkpt lat="27.650503786341037" lon="-11.725854693597578"><ele>310.0</ele><time>2026-04-29T13:50:30Z</time></trkpt><trkpt lat="27.650309740679432" lon="-11.725808687014332"><ele>310.0</ele><time>2026-04-29T13:50:31Z</time></trkpt><trkpt lat="27.650123698362506" lon="-11.725761619872609"><ele>310.66666666666663</ele><time>2026-04-29T13:50:32Z</time></trkpt><trkpt lat="27.649937436979908" lon="-11.725722850106997"><ele>311.3333333333333</ele><time>2026-04-29T13:50:33Z</time></trkpt><trkpt lat="27.649755046212903" lon="-11.725705058285232"><ele>312.0</ele><time>2026-04-29T13:50:34Z</time></trkpt><trkpt lat="27.649563173698645" lon="-11.725701395537369"><ele>312.0</ele><time>2026-04-29T13:50:35Z</time></trkpt><trkpt lat="27.649373730976475" lon="-11.725711330565213"><ele>312.0</ele><time>2026-04-29T13:50:36Z</time></trkpt><trkpt lat="27.64918354772781" lon="-11.725740711084397"><ele>312.0</ele><time>2026-04-29T13:50:37Z</time></trkpt><trkpt lat="27.648984360169774" lon="-11.72578064788132"><ele>312.0</ele><time>2026-04-29T13:50:38Z</time></trkpt><trkpt lat="27.64879301841289" lon="-11.725830588774281"><ele>312.0</ele><time>2026-04-29T13:50:39Z</time></trkpt><trkpt lat="27.6486041388627" lon="-11.725871651883496"><ele>312.0</ele><time>2026-04-29T13:50:40Z</time></trkpt><trkpt lat="27.648407932755354" lon="-11.725907830290593"><ele>312.0</ele><time>2026-04-29T13:50:41Z</time></trkpt><trkpt lat="27.648204742481447" lon="-11.72592578319333"><ele>312.0</ele><time>2026-04-29T13:50:42Z</time></trkpt><trkpt lat="27.648016200715105" lon="-11.725920799833899"><ele>312.0</ele><time>2026-04-29T13:50:43Z</time></trkpt><trkpt lat="27.647810742013476" lon="-11.725894950207467"><ele>311.3333333333333</ele><time>2026-04-29T13:50:44Z</time></trkpt><trkpt lat="27.647597549850815" lon="-11.725866628623725"><ele>310.66666666666663</ele><time>2026-04-29T13:50:45Z</time></trkpt><trkpt lat="27.64739094585403" lon="-11.725862439117773"><ele>310.0</ele><time>2026-04-29T13:50:46Z</time></trkpt><trkpt lat="27.647206367241374" lon="-11.72587033176354"><ele>310.0</ele><time>2026-04-29T13:50:47Z</time></trkpt><trkpt lat="27.647002166034415" lon="-11.725880267153704"><ele>310.0</ele><time>2026-04-29T13:50:48Z</time></trkpt><trkpt lat="27.64680547602437" lon="-11.725893440297735"><ele>310.0</ele><time>2026-04-29T13:50:49Z</time></trkpt><trkpt lat="27.646615846469494" lon="-11.725923441822587"><ele>310.0</ele><time>2026-04-29T13:50:50Z</time></trkpt><trkpt lat="27.646417005686118" lon="-11.725957508721642"><ele>310.0</ele><time>2026-04-29T13:50:51Z</time></trkpt><trkpt lat="27.646213232455608" lon="-11.725999684148062"><ele>310.0</ele><time>2026-04-29T13:50:52Z</time></trkpt><trkpt lat="27.646019156426206" lon="-11.726033760405768"><ele>310.3333333333333</ele><time>2026-04-29T13:50:53Z</time></trkpt><trkpt lat="27.645820544003595" lon="-11.726054060346327"><ele>310.6666666666667</ele><time>2026-04-29T13:50:54Z</time></trkpt><trkpt lat="27.64559078443675" lon="-11.726053945877153"><ele>311.0</ele><time>2026-04-29T13:50:55Z</time></trkpt><trkpt lat="27.645352026106334" lon="-11.726038095702485"><ele>311.0</ele><time>2026-04-29T13:50:56Z</time></trkpt><trkpt lat="27.645141735343987" lon="-11.72601751798021"><ele>311.0</ele><time>2026-04-29T13:50:57Z</time></trkpt><trkpt lat="27.64494976051776" lon="-11.725980032393084"><ele>311.0</ele><time>2026-04-29T13:50:58Z</time></trkpt><trkpt lat="27.644758537643597" lon="-11.725926702383564"><ele>311.0</ele><time>2026-04-29T13:50:59Z</time></trkpt><trkpt lat="27.64456102591946" lon="-11.725887257863755"><ele>311.0</ele><time>2026-04-29T13:51:00Z</time></trkpt><trkpt lat="27.64436086625812" lon="-11.725862711391107"><ele>311.0</ele><time>2026-04-29T13:51:01Z</time></trkpt><trkpt lat="27.64415318181324" lon="-11.725855269197746"><ele>311.0</ele><time>2026-04-29T13:51:02Z</time></trkpt><trkpt lat="27.643953149948988" lon="-11.725861156102741"><ele>311.0</ele><time>2026-04-29T13:51:03Z</time></trkpt><trkpt lat="27.643722555251927" lon="-11.72586963358195"><ele>311.0</ele><time>2026-04-29T13:51:04Z</time></trkpt><trkpt lat="27.64351101486894" lon="-11.725884337928884"><ele>311.0</ele><time>2026-04-29T13:51:05Z</time></trkpt><trkpt lat="27.643311223417264" lon="-11.725890240897044"><ele>311.0</ele><time>2026-04-29T13:51:06Z</time></trkpt><trkpt lat="27.643125348083043" lon="-11.725896736170952"><ele>311.0</ele><time>2026-04-29T13:51:07Z</time></trkpt><trkpt lat="27.642948953310317" lon="-11.725906408632358"><ele>311.33333333333337</ele><time>2026-04-29T13:51:08Z</time></trkpt><trkpt lat="27.642791540394587" lon="-11.725916305877357"><ele>311.6666666666667</ele><time>2026-04-29T13:51:09Z</time></trkpt><trkpt lat="27.64264319124262" lon="-11.725920772702404"><ele>312.0</ele><time>2026-04-29T13:51:10Z</time></trkpt><trkpt lat="27.642499692180305" lon="-11.725924062122244"><ele>312.0</ele><time>2026-04-29T13:51:11Z</time></trkpt><trkpt lat="27.642374104356282" lon="-11.725921504351318"><ele>312.0</ele><time>2026-04-29T13:51:12Z</time></trkpt><trkpt lat="27.642260128789097" lon="-11.725913020455438"><ele>312.0</ele><time>2026-04-29T13:51:13Z</time></trkpt><trkpt lat="27.642158967038068" lon="-11.725901226333907"><ele>312.0</ele><time>2026-04-29T13:51:14Z</time></trkpt><trkpt lat="27.64206620779507" lon="-11.725894443039497"><ele>312.0</ele><time>2026-04-29T13:51:15Z</time></trkpt><trkpt lat="27.641988783449854" lon="-11.725884975326764"><ele>311.5</ele><time>2026-04-29T13:51:16Z</time></trkpt><trkpt lat="27.64188055036565" lon="-11.725889706403898"><ele>311.0</ele><time>2026-04-29T13:51:18Z</time></trkpt><trkpt lat="27.641813098986304" lon="-11.725894000868191"><ele>310.5</ele><time>2026-04-29T13:51:19Z</time></trkpt><trkpt lat="27.641697580885275" lon="-11.725890280757186"><ele>310.0</ele><time>2026-04-29T13:51:21Z</time></trkpt><trkpt lat="27.64162009394283" lon="-11.725903025108535"><ele>309.5</ele><time>2026-04-29T13:51:23Z</time></trkpt><trkpt lat="27.641655357303975" lon="-11.725981265778374"><ele>309.0</ele><time>2026-04-29T13:52:37Z</time></trkpt><trkpt lat="27.64166511360166" lon="-11.726054913096862"><ele>309.0</ele><time>2026-04-29T13:53:24Z</time></trkpt><trkpt lat="27.641650685334636" lon="-11.726126563710649"><ele>309.0</ele><time>2026-04-29T13:53:49Z</time></trkpt><trkpt lat="27.64163634635416" lon="-11.726053352218205"><ele>309.0</ele><time>2026-04-29T13:59:34.999Z</time></trkpt><trkpt lat="27.641614641584486" lon="-11.725985461986802"><ele>309.0</ele><time>2026-04-29T13:59:39.999Z</time></trkpt><trkpt lat="27.641542730950718" lon="-11.725951904127395"><ele>309.0</ele><time>2026-04-29T14:23:32Z</time></trkpt><trkpt lat="27.64144819863298" lon="-11.725950448551178"><ele>309.0</ele><time>2026-04-29T14:23:34Z</time></trkpt><trkpt lat="27.64134403351858" lon="-11.725916462748248"><ele>309.0</ele><time>2026-04-29T14:23:36Z</time></trkpt><trkpt lat="27.641273021728693" lon="-11.725891504558987"><ele>309.0</ele><time>2026-04-29T14:23:37Z</time></trkpt><trkpt lat="27.641167311214918" lon="-11.725839732811842"><ele>309.0</ele><time>2026-04-29T14:23:39Z</time></trkpt><trkpt lat="27.641069798973742" lon="-11.725837324537192"><ele>309.0</ele><time>2026-04-29T14:23:41Z</time></trkpt><trkpt lat="27.641000754275716" lon="-11.725830774361368"><ele>309.0</ele><time>2026-04-29T14:23:42Z</time></trkpt><trkpt lat="27.640868997109436" lon="-11.725823687654682"><ele>309.3333333333333</ele><time>2026-04-29T14:23:44Z</time></trkpt><trkpt lat="27.640794002464784" lon="-11.725819641472002"><ele>309.6666666666667</ele><time>2026-04-29T14:23:45Z</time></trkpt><trkpt lat="27.640724484072592" lon="-11.725815820215685"><ele>310.0</ele><time>2026-04-29T14:23:46Z</time></trkpt><trkpt lat="27.640613481086582" lon="-11.725809718651808"><ele>310.33333333333337</ele><time>2026-04-29T14:23:48Z</time></trkpt><trkpt lat="27.640516656989977" lon="-11.725804396466565"><ele>310.6666666666667</ele><time>2026-04-29T14:23:50Z</time></trkpt><trkpt lat="27.640438890185603" lon="-11.725800121815265"><ele>311.0</ele><time>2026-04-29T14:23:52Z</time></trkpt><trkpt lat="27.64033332052488" lon="-11.725794318907411"><ele>310.83333333333337</ele><time>2026-04-29T14:23:54Z</time></trkpt><trkpt lat="27.640230113978824" lon="-11.725788645894452"><ele>310.6666666666667</ele><time>2026-04-29T14:23:56Z</time></trkpt><trkpt lat="27.64011879983559" lon="-11.725782592617847"><ele>310.5</ele><time>2026-04-29T14:23:58Z</time></trkpt><trkpt lat="27.640054213486163" lon="-11.72577908470273"><ele>310.3333333333333</ele><time>2026-04-29T14:23:59Z</time></trkpt><trkpt lat="27.639970920185764" lon="-11.725774560745522"><ele>310.16666666666663</ele><time>2026-04-29T14:24:00Z</time></trkpt><trkpt lat="27.63988826735591" lon="-11.725770071574109"><ele>310.0</ele><time>2026-04-29T14:24:01Z</time></trkpt><trkpt lat="27.639798491385907" lon="-11.725765195519791"><ele>310.0</ele><time>2026-04-29T14:24:02Z</time></trkpt><trkpt lat="27.63970766993274" lon="-11.725760262681566"><ele>310.0</ele><time>2026-04-29T14:24:03Z</time></trkpt><trkpt lat="27.639608456067624" lon="-11.725754874021645"><ele>310.0</ele><time>2026-04-29T14:24:04Z</time></trkpt><trkpt lat="27.639510596231702" lon="-11.725749548795733"><ele>310.0</ele><time>2026-04-29T14:24:05Z</time></trkpt><trkpt lat="27.63940909229648" lon="-11.725744011146547"><ele>310.0</ele><time>2026-04-29T14:24:06Z</time></trkpt><trkpt lat="27.639311046013813" lon="-11.725738953065072"><ele>310.0</ele><time>2026-04-29T14:24:07Z</time></trkpt><trkpt lat="27.6392089590133" lon="-11.725733609266152"><ele>310.0</ele><time>2026-04-29T14:24:08Z</time></trkpt><trkpt lat="27.63910662058909" lon="-11.725727905157227"><ele>310.0</ele><time>2026-04-29T14:24:09Z</time></trkpt><trkpt lat="27.639004711438456" lon="-11.725722224974424"><ele>310.0</ele><time>2026-04-29T14:24:10Z</time></trkpt><trkpt lat="27.638905840916973" lon="-11.7257167141595"><ele>310.0</ele><time>2026-04-29T14:24:11Z</time></trkpt><trkpt lat="27.638804526382568" lon="-11.725711067120345"><ele>310.0</ele><time>2026-04-29T14:24:12Z</time></trkpt><trkpt lat="27.638677602931736" lon="-11.72570416428391"><ele>310.0</ele><time>2026-04-29T14:24:13Z</time></trkpt><trkpt lat="27.638515832731436" lon="-11.725695395907776"><ele>310.0</ele><time>2026-04-29T14:24:14Z</time></trkpt><trkpt lat="27.638343550789575" lon="-11.725686057767597"><ele>310.3333333333333</ele><time>2026-04-29T14:24:15Z</time></trkpt><trkpt lat="27.63816110735803" lon="-11.725676168846237"><ele>310.6666666666667</ele><time>2026-04-29T14:24:16Z</time></trkpt><trkpt lat="27.637987493882118" lon="-11.725666758532801"><ele>311.0</ele><time>2026-04-29T14:24:17Z</time></trkpt><trkpt lat="27.6378253532717" lon="-11.725657961786885"><ele>311.25</ele><time>2026-04-29T14:24:18Z</time></trkpt><trkpt lat="27.637676839416663" lon="-11.725649895057654"><ele>311.5</ele><time>2026-04-29T14:24:19Z</time></trkpt><trkpt lat="27.637537327004363" lon="-11.725642317254513"><ele>311.75</ele><time>2026-04-29T14:24:20Z</time></trkpt><trkpt lat="27.637398975132264" lon="-11.725634802488143"><ele>312.0</ele><time>2026-04-29T14:24:21Z</time></trkpt><trkpt lat="27.637256513062795" lon="-11.725627063677658"><ele>312.0</ele><time>2026-04-29T14:24:22Z</time></trkpt><trkpt lat="27.637111731156377" lon="-11.725619261670044"><ele>312.0</ele><time>2026-04-29T14:24:23Z</time></trkpt><trkpt lat="27.63698527295069" lon="-11.725612474489498"><ele>312.0</ele><time>2026-04-29T14:24:24Z</time></trkpt><trkpt lat="27.636874801237305" lon="-11.72560654532386"><ele>312.0</ele><time>2026-04-29T14:24:25Z</time></trkpt><trkpt lat="27.636752404039704" lon="-11.725599976100336"><ele>311.5</ele><time>2026-04-29T14:24:26Z</time></trkpt><trkpt lat="27.636633416590257" lon="-11.725593589884651"><ele>311.0</ele><time>2026-04-29T14:24:27Z</time></trkpt><trkpt lat="27.63650343477068" lon="-11.7255866135851"><ele>310.5</ele><time>2026-04-29T14:24:28Z</time></trkpt><trkpt lat="27.63638224208971" lon="-11.725580109010528"><ele>310.0</ele><time>2026-04-29T14:24:29Z</time></trkpt><trkpt lat="27.63624749209277" lon="-11.725572820788383"><ele>310.25</ele><time>2026-04-29T14:24:30Z</time></trkpt><trkpt lat="27.636113541559595" lon="-11.725565542914135"><ele>310.5</ele><time>2026-04-29T14:24:31Z</time></trkpt><trkpt lat="27.635994582729005" lon="-11.725559079577245"><ele>310.75</ele><time>2026-04-29T14:24:32Z</time></trkpt><trkpt lat="27.635865957837776" lon="-11.725552091058166"><ele>311.0</ele><time>2026-04-29T14:24:33Z</time></trkpt><trkpt lat="27.635723920871165" lon="-11.725544373827642"><ele>311.0</ele><time>2026-04-29T14:24:34Z</time></trkpt><trkpt lat="27.635589238839323" lon="-11.725540780451675"><ele>311.0</ele><time>2026-04-29T14:24:35Z</time></trkpt><trkpt lat="27.63544192212145" lon="-11.725538117342134"><ele>311.0</ele><time>2026-04-29T14:24:36Z</time></trkpt><trkpt lat="27.63529336889241" lon="-11.725535431879866"><ele>311.0</ele><time>2026-04-29T14:24:37Z</time></trkpt><trkpt lat="27.635129868561464" lon="-11.725532476212251"><ele>310.33333333333337</ele><time>2026-04-29T14:24:38Z</time></trkpt><trkpt lat="27.634975264913304" lon="-11.725529681375038"><ele>309.6666666666667</ele><time>2026-04-29T14:24:39Z</time></trkpt><trkpt lat="27.634815062995212" lon="-11.725526743190082"><ele>309.0</ele><time>2026-04-29T14:24:40Z</time></trkpt><trkpt lat="27.6346564342343" lon="-11.725523761237273"><ele>309.0</ele><time>2026-04-29T14:24:41Z</time></trkpt><trkpt lat="27.634493823533976" lon="-11.725520704430249"><ele>309.0</ele><time>2026-04-29T14:24:42Z</time></trkpt><trkpt lat="27.63433323267491" lon="-11.725517685592527"><ele>309.0</ele><time>2026-04-29T14:24:43Z</time></trkpt><trkpt lat="27.63417987481894" lon="-11.725514924909726"><ele>308.6666666666667</ele><time>2026-04-29T14:24:44Z</time></trkpt><trkpt lat="27.63403338784826" lon="-11.725512315020339"><ele>308.33333333333337</ele><time>2026-04-29T14:24:45Z</time></trkpt><trkpt lat="27.63387231207988" lon="-11.725509445210418"><ele>308.0</ele><time>2026-04-29T14:24:46Z</time></trkpt><trkpt lat="27.633706637417756" lon="-11.725506493462623"><ele>308.0</ele><time>2026-04-29T14:24:47Z</time></trkpt><trkpt lat="27.633520742779748" lon="-11.725503181466042"><ele>308.0</ele><time>2026-04-29T14:24:48Z</time></trkpt><trkpt lat="27.63333132900233" lon="-11.725499806769164"><ele>308.0</ele><time>2026-04-29T14:24:49Z</time></trkpt><trkpt lat="27.633141004390247" lon="-11.725496157943434"><ele>308.0</ele><time>2026-04-29T14:24:50Z</time></trkpt><trkpt lat="27.632956126174225" lon="-11.725492553103033"><ele>308.0</ele><time>2026-04-29T14:24:51Z</time></trkpt><trkpt lat="27.63276892476985" lon="-11.72548960769909"><ele>308.0</ele><time>2026-04-29T14:24:52Z</time></trkpt><trkpt lat="27.632579581567295" lon="-11.725486135635446"><ele>308.6666666666667</ele><time>2026-04-29T14:24:53Z</time></trkpt><trkpt lat="27.63239074929566" lon="-11.7254826729435"><ele>309.3333333333333</ele><time>2026-04-29T14:24:54Z</time></trkpt><trkpt lat="27.632197801896684" lon="-11.72547913394972"><ele>310.0</ele><time>2026-04-29T14:24:55Z</time></trkpt><trkpt lat="27.632007617760006" lon="-11.725475646465714"><ele>309.3333333333333</ele><time>2026-04-29T14:24:56Z</time></trkpt><trkpt lat="27.631825225670546" lon="-11.725472301868924"><ele>308.6666666666667</ele><time>2026-04-29T14:24:57Z</time></trkpt><trkpt lat="27.63164615563613" lon="-11.725469018188356"><ele>308.0</ele><time>2026-04-29T14:24:58Z</time></trkpt><trkpt lat="27.63146502904438" lon="-11.72546569679764"><ele>308.0</ele><time>2026-04-29T14:24:59Z</time></trkpt><trkpt lat="27.631288665729425" lon="-11.725462462751734"><ele>308.0</ele><time>2026-04-29T14:25:00Z</time></trkpt><trkpt lat="27.631107736838597" lon="-11.725459144983443"><ele>308.0</ele><time>2026-04-29T14:25:01Z</time></trkpt><trkpt lat="27.630918639313926" lon="-11.725455677424762"><ele>308.33333333333337</ele><time>2026-04-29T14:25:02Z</time></trkpt><trkpt lat="27.63071658312225" lon="-11.725451759365521"><ele>308.6666666666667</ele><time>2026-04-29T14:25:03Z</time></trkpt><trkpt lat="27.630520268461037" lon="-11.725448250831398"><ele>309.0</ele><time>2026-04-29T14:25:04Z</time></trkpt><trkpt lat="27.630311741633786" lon="-11.725444213601884"><ele>309.0</ele><time>2026-04-29T14:25:05Z</time></trkpt><trkpt lat="27.630111237262945" lon="-11.725440766829617"><ele>309.0</ele><time>2026-04-29T14:25:06Z</time></trkpt><trkpt lat="27.62990716486184" lon="-11.725437258723007"><ele>309.0</ele><time>2026-04-29T14:25:07Z</time></trkpt><trkpt lat="27.629710040241186" lon="-11.725433870049855"><ele>309.0</ele><time>2026-04-29T14:25:08Z</time></trkpt><trkpt lat="27.629502778466417" lon="-11.725429870323424"><ele>309.0</ele><time>2026-04-29T14:25:09Z</time></trkpt><trkpt lat="27.6293019103911" lon="-11.725425738235462"><ele>309.0</ele><time>2026-04-29T14:25:10Z</time></trkpt><trkpt lat="27.629103279180743" lon="-11.725422329375988"><ele>308.6666666666667</ele><time>2026-04-29T14:25:11Z</time></trkpt><trkpt lat="27.62890913806864" lon="-11.72541915645726"><ele>308.33333333333337</ele><time>2026-04-29T14:25:12Z</time></trkpt><trkpt lat="27.628716663713426" lon="-11.725416010779746"><ele>308.0</ele><time>2026-04-29T14:25:13Z</time></trkpt><trkpt lat="27.628534682475742" lon="-11.725415252679618"><ele>307.33333333333337</ele><time>2026-04-29T14:25:14Z</time></trkpt><trkpt lat="27.62835857057599" lon="-11.725420241896611"><ele>306.6666666666667</ele><time>2026-04-29T14:25:15Z</time></trkpt><trkpt lat="27.628195662007418" lon="-11.725424857066642"><ele>306.0</ele><time>2026-04-29T14:25:16Z</time></trkpt><trkpt lat="27.628021380434436" lon="-11.725430061852146"><ele>306.0</ele><time>2026-04-29T14:25:17Z</time></trkpt><trkpt lat="27.627830625901108" lon="-11.725436031041395"><ele>306.0</ele><time>2026-04-29T14:25:18Z</time></trkpt><trkpt lat="27.627623616228725" lon="-11.725442508895505"><ele>306.0</ele><time>2026-04-29T14:25:19Z</time></trkpt><trkpt lat="27.627415496671166" lon="-11.725449610645555"><ele>305.3333333333333</ele><time>2026-04-29T14:25:20Z</time></trkpt><trkpt lat="27.62721064359714" lon="-11.725455627971781"><ele>304.66666666666663</ele><time>2026-04-29T14:25:21Z</time></trkpt><trkpt lat="27.627016454255102" lon="-11.72546116510567"><ele>304.0</ele><time>2026-04-29T14:25:22Z</time></trkpt><trkpt lat="27.626823921328164" lon="-11.725467445894429"><ele>304.0</ele><time>2026-04-29T14:25:23Z</time></trkpt><trkpt lat="27.626619680620948" lon="-11.72545848629044"><ele>304.0</ele><time>2026-04-29T14:25:24Z</time></trkpt><trkpt lat="27.626414757450352" lon="-11.725483486592253"><ele>304.0</ele><time>2026-04-29T14:25:25Z</time></trkpt><trkpt lat="27.62621788420622" lon="-11.72549714675183"><ele>304.3333333333333</ele><time>2026-04-29T14:25:26Z</time></trkpt><trkpt lat="27.626038798322217" lon="-11.725510247664385"><ele>304.6666666666667</ele><time>2026-04-29T14:25:27Z</time></trkpt><trkpt lat="27.62583710779574" lon="-11.725524261693431"><ele>305.0</ele><time>2026-04-29T14:25:28Z</time></trkpt><trkpt lat="27.625636972739734" lon="-11.725538692191106"><ele>305.0</ele><time>2026-04-29T14:25:29Z</time></trkpt><trkpt lat="27.625421443133096" lon="-11.725554232695025"><ele>305.0</ele><time>2026-04-29T14:25:30Z</time></trkpt><trkpt lat="27.625196181198863" lon="-11.725570087336953"><ele>305.0</ele><time>2026-04-29T14:25:31Z</time></trkpt><trkpt lat="27.62498369825447" lon="-11.72558494988804"><ele>304.6666666666667</ele><time>2026-04-29T14:25:32Z</time></trkpt><trkpt lat="27.624765239623144" lon="-11.725600946309708"><ele>304.3333333333333</ele><time>2026-04-29T14:25:33Z</time></trkpt><trkpt lat="27.624550979983315" lon="-11.725615728140392"><ele>304.0</ele><time>2026-04-29T14:25:34Z</time></trkpt><trkpt lat="27.624331522941198" lon="-11.725631352032611"><ele>304.0</ele><time>2026-04-29T14:25:35Z</time></trkpt><trkpt lat="27.624129328943862" lon="-11.725646068842606"><ele>304.0</ele><time>2026-04-29T14:25:36Z</time></trkpt><trkpt lat="27.623937001323274" lon="-11.725659417610059"><ele>304.0</ele><time>2026-04-29T14:25:37Z</time></trkpt><trkpt lat="27.623754145696388" lon="-11.725672269899546"><ele>304.0</ele><time>2026-04-29T14:25:38Z</time></trkpt><trkpt lat="27.623583999626067" lon="-11.725684451441929"><ele>304.0</ele><time>2026-04-29T14:25:39Z</time></trkpt><trkpt lat="27.623404599574066" lon="-11.7256975929249"><ele>304.0</ele><time>2026-04-29T14:25:40Z</time></trkpt><trkpt lat="27.62320514399575" lon="-11.725717002297277"><ele>304.0</ele><time>2026-04-29T14:25:41Z</time></trkpt><trkpt lat="27.62298339068525" lon="-11.72572716130189"><ele>304.0</ele><time>2026-04-29T14:25:42Z</time></trkpt><trkpt lat="27.622755996185465" lon="-11.725743351200402"><ele>303.5</ele><time>2026-04-29T14:25:43Z</time></trkpt><trkpt lat="27.622515217514316" lon="-11.72576053000757"><ele>303.0</ele><time>2026-04-29T14:25:44Z</time></trkpt><trkpt lat="27.622275884062503" lon="-11.72577761070155"><ele>303.0</ele><time>2026-04-29T14:25:45Z</time></trkpt><trkpt lat="27.62204276735829" lon="-11.725794404672245"><ele>303.0</ele><time>2026-04-29T14:25:46Z</time></trkpt><trkpt lat="27.62180780793682" lon="-11.725811341451264"><ele>304.0</ele><time>2026-04-29T14:25:47Z</time></trkpt><trkpt lat="27.621569109788695" lon="-11.725828547758343"><ele>305.0</ele><time>2026-04-29T14:25:48Z</time></trkpt><trkpt lat="27.62133220513672" lon="-11.72584530880096"><ele>305.0</ele><time>2026-04-29T14:25:49Z</time></trkpt><trkpt lat="27.62108916729375" lon="-11.725862367383131"><ele>305.0</ele><time>2026-04-29T14:25:50Z</time></trkpt><trkpt lat="27.620841487535724" lon="-11.72587975178923"><ele>305.0</ele><time>2026-04-29T14:25:51Z</time></trkpt><trkpt lat="27.620596523752397" lon="-11.72589694556407"><ele>305.0</ele><time>2026-04-29T14:25:52Z</time></trkpt><trkpt lat="27.62028784069767" lon="-11.725949497083866"><ele>305.0</ele><time>2026-04-29T14:25:53Z</time></trkpt><trkpt lat="27.62004859123815" lon="-11.726006762579859"><ele>305.0</ele><time>2026-04-29T14:25:54Z</time></trkpt><trkpt lat="27.619810839910798" lon="-11.726064193299614"><ele>305.0</ele><time>2026-04-29T14:25:55Z</time></trkpt><trkpt lat="27.61956687741505" lon="-11.726122388564736"><ele>305.0</ele><time>2026-04-29T14:25:56Z</time></trkpt><trkpt lat="27.619327659834244" lon="-11.726179281006788"><ele>305.0</ele><time>2026-04-29T14:25:57Z</time></trkpt><trkpt lat="27.61908971767077" lon="-11.726235827491111"><ele>305.0</ele><time>2026-04-29T14:25:58Z</time></trkpt><trkpt lat="27.618855154034318" lon="-11.72629147609598"><ele>304.0</ele><time>2026-04-29T14:25:59Z</time></trkpt><trkpt lat="27.618610415300413" lon="-11.7263502230766"><ele>303.0</ele><time>2026-04-29T14:26:00Z</time></trkpt><trkpt lat="27.618348755056637" lon="-11.726412904205793"><ele>303.0</ele><time>2026-04-29T14:26:01Z</time></trkpt><trkpt lat="27.618080055914415" lon="-11.726477015042583"><ele>303.0</ele><time>2026-04-29T14:26:02Z</time></trkpt><trkpt lat="27.617816754322885" lon="-11.726539590552035"><ele>303.5</ele><time>2026-04-29T14:26:03Z</time></trkpt><trkpt lat="27.617555837666657" lon="-11.726601598474703"><ele>304.0</ele><time>2026-04-29T14:26:04Z</time></trkpt><trkpt lat="27.61729858231827" lon="-11.726663846361468"><ele>304.0</ele><time>2026-04-29T14:26:05Z</time></trkpt><trkpt lat="27.617048537478333" lon="-11.72672346379167"><ele>304.0</ele><time>2026-04-29T14:26:06Z</time></trkpt><trkpt lat="27.616795354544006" lon="-11.726783628377117"><ele>303.0</ele><time>2026-04-29T14:26:07Z</time></trkpt><trkpt lat="27.61653126933915" lon="-11.726846383362497"><ele>302.0</ele><time>2026-04-29T14:26:08Z</time></trkpt><trkpt lat="27.61626739509098" lon="-11.726909926180435"><ele>302.0</ele><time>2026-04-29T14:26:09Z</time></trkpt><trkpt lat="27.616000840303744" lon="-11.726973585335044"><ele>302.0</ele><time>2026-04-29T14:26:10Z</time></trkpt><trkpt lat="27.61574272422277" lon="-11.72703510478732"><ele>302.0</ele><time>2026-04-29T14:26:11Z</time></trkpt><trkpt lat="27.61549380373165" lon="-11.72709413334099"><ele>302.0</ele><time>2026-04-29T14:26:12Z</time></trkpt><trkpt lat="27.615254881705482" lon="-11.727150791524908"><ele>301.5</ele><time>2026-04-29T14:26:13Z</time></trkpt><trkpt lat="27.615011940048053" lon="-11.727208403277404"><ele>301.0</ele><time>2026-04-29T14:26:14Z</time></trkpt><trkpt lat="27.614772002922233" lon="-11.727280202558322"><ele>301.0</ele><time>2026-04-29T14:26:15Z</time></trkpt><trkpt lat="27.614583062622252" lon="-11.727600292296072"><ele>301.0</ele><time>2026-04-29T14:26:16Z</time></trkpt><trkpt lat="27.614338461116905" lon="-11.727645611292733"><ele>302.0</ele><time>2026-04-29T14:26:17Z</time></trkpt><trkpt lat="27.614095982134383" lon="-11.72768809780195"><ele>303.0</ele><time>2026-04-29T14:26:18Z</time></trkpt><trkpt lat="27.613857154363576" lon="-11.727726890292583"><ele>303.5</ele><time>2026-04-29T14:26:19Z</time></trkpt><trkpt lat="27.613620828405185" lon="-11.727764484718547"><ele>304.0</ele><time>2026-04-29T14:26:20Z</time></trkpt><trkpt lat="27.6133751107627" lon="-11.727800488128503"><ele>304.0</ele><time>2026-04-29T14:26:21Z</time></trkpt><trkpt lat="27.613126584228752" lon="-11.727839473269963"><ele>304.0</ele><time>2026-04-29T14:26:22Z</time></trkpt><trkpt lat="27.612894935187235" lon="-11.727879965958534"><ele>303.3333333333333</ele><time>2026-04-29T14:26:23Z</time></trkpt><trkpt lat="27.61267406985239" lon="-11.727923915834667"><ele>302.6666666666667</ele><time>2026-04-29T14:26:24Z</time></trkpt><trkpt lat="27.61246351691002" lon="-11.727970152635946"><ele>302.0</ele><time>2026-04-29T14:26:25Z</time></trkpt><trkpt lat="27.61226823369555" lon="-11.728014100138132"><ele>302.0</ele><time>2026-04-29T14:26:26Z</time></trkpt><trkpt lat="27.612060541062792" lon="-11.72806384566915"><ele>302.0</ele><time>2026-04-29T14:26:27Z</time></trkpt><trkpt lat="27.611856095167163" lon="-11.728123354653219"><ele>302.0</ele><time>2026-04-29T14:26:28Z</time></trkpt><trkpt lat="27.611665113204374" lon="-11.728180629187161"><ele>301.6666666666667</ele><time>2026-04-29T14:26:29Z</time></trkpt><trkpt lat="27.611455431142954" lon="-11.728250073905375"><ele>301.3333333333333</ele><time>2026-04-29T14:26:30Z</time></trkpt><trkpt lat="27.6112745044584" lon="-11.728313884795826"><ele>301.0</ele><time>2026-04-29T14:26:31Z</time></trkpt><trkpt lat="27.611081117182252" lon="-11.728400191002006"><ele>301.0</ele><time>2026-04-29T14:26:32Z</time></trkpt><trkpt lat="27.610894761096933" lon="-11.728456919503772"><ele>301.0</ele><time>2026-04-29T14:26:33Z</time></trkpt><trkpt lat="27.610693967528952" lon="-11.728507331432278"><ele>301.0</ele><time>2026-04-29T14:26:34Z</time></trkpt><trkpt lat="27.61051139365126" lon="-11.728549726713378"><ele>301.66666666666663</ele><time>2026-04-29T14:26:35Z</time></trkpt><trkpt lat="27.61032237826534" lon="-11.728622561237382"><ele>302.3333333333333</ele><time>2026-04-29T14:26:36Z</time></trkpt><trkpt lat="27.610143539913704" lon="-11.728699264860836"><ele>303.0</ele><time>2026-04-29T14:26:37Z</time></trkpt><trkpt lat="27.609971861112637" lon="-11.72878915764265"><ele>303.0</ele><time>2026-04-29T14:26:38Z</time></trkpt><trkpt lat="27.609795211876154" lon="-11.72889736136828"><ele>303.0</ele><time>2026-04-29T14:26:39Z</time></trkpt><trkpt lat="27.60962316877275" lon="-11.729015797549904"><ele>303.0</ele><time>2026-04-29T14:26:40Z</time></trkpt><trkpt lat="27.60945571445737" lon="-11.729144322014712"><ele>302.6666666666667</ele><time>2026-04-29T14:26:41Z</time></trkpt><trkpt lat="27.609280385457037" lon="-11.729287461008155"><ele>302.33333333333337</ele><time>2026-04-29T14:26:42Z</time></trkpt><trkpt lat="27.60911288404073" lon="-11.729426855829987"><ele>302.0</ele><time>2026-04-29T14:26:43Z</time></trkpt><trkpt lat="27.608949916367628" lon="-11.729561800467746"><ele>301.6666666666667</ele><time>2026-04-29T14:26:44Z</time></trkpt><trkpt lat="27.608779133711806" lon="-11.729702031314192"><ele>301.3333333333333</ele><time>2026-04-29T14:26:45Z</time></trkpt><trkpt lat="27.608602567473078" lon="-11.72984976302731"><ele>301.0</ele><time>2026-04-29T14:26:46Z</time></trkpt><trkpt lat="27.60842458407178" lon="-11.730005857803103"><ele>300.5</ele><time>2026-04-29T14:26:47Z</time></trkpt><trkpt lat="27.608246165028014" lon="-11.730160572009462"><ele>300.0</ele><time>2026-04-29T14:26:48Z</time></trkpt><trkpt lat="27.6080639011693" lon="-11.73031523011206"><ele>300.0</ele><time>2026-04-29T14:26:49Z</time></trkpt><trkpt lat="27.60788194798206" lon="-11.730467538431045"><ele>300.0</ele><time>2026-04-29T14:26:50Z</time></trkpt><trkpt lat="27.607698182134968" lon="-11.730618158763106"><ele>300.5</ele><time>2026-04-29T14:26:51Z</time></trkpt><trkpt lat="27.607513182316715" lon="-11.730771332114458"><ele>301.0</ele><time>2026-04-29T14:26:52Z</time></trkpt><trkpt lat="27.60731911661306" lon="-11.730925168087937"><ele>301.0</ele><time>2026-04-29T14:26:53Z</time></trkpt><trkpt lat="27.607117180210118" lon="-11.731079530645001"><ele>301.0</ele><time>2026-04-29T14:26:54Z</time></trkpt><trkpt lat="27.60692360007172" lon="-11.731224888390804"><ele>301.0</ele><time>2026-04-29T14:26:55Z</time></trkpt><trkpt lat="27.606720922053746" lon="-11.731371167033235"><ele>301.0</ele><time>2026-04-29T14:26:56Z</time></trkpt><trkpt lat="27.606510800864264" lon="-11.731512358220776"><ele>301.0</ele><time>2026-04-29T14:26:57Z</time></trkpt><trkpt lat="27.60630976662698" lon="-11.731653315357079"><ele>301.0</ele><time>2026-04-29T14:26:58Z</time></trkpt><trkpt lat="27.60611106179003" lon="-11.731786067405055"><ele>302.0</ele><time>2026-04-29T14:26:59Z</time></trkpt><trkpt lat="27.60590937716751" lon="-11.731917090085265"><ele>303.0</ele><time>2026-04-29T14:27:00Z</time></trkpt><trkpt lat="27.605707174963136" lon="-11.732058892252676"><ele>303.0</ele><time>2026-04-29T14:27:01Z</time></trkpt><trkpt lat="27.60551823042507" lon="-11.732209518906814"><ele>303.0</ele><time>2026-04-29T14:27:02Z</time></trkpt><trkpt lat="27.605312004135307" lon="-11.732360910023969"><ele>302.5</ele><time>2026-04-29T14:27:03Z</time></trkpt><trkpt lat="27.605105085500416" lon="-11.73250636500223"><ele>302.0</ele><time>2026-04-29T14:27:04Z</time></trkpt><trkpt lat="27.604894523787568" lon="-11.732639666652377"><ele>302.5</ele><time>2026-04-29T14:27:05Z</time></trkpt><trkpt lat="27.604674589095673" lon="-11.732777238135641"><ele>303.0</ele><time>2026-04-29T14:27:06Z</time></trkpt><trkpt lat="27.604443836370574" lon="-11.732921453614827"><ele>301.5</ele><time>2026-04-29T14:27:07Z</time></trkpt><trkpt lat="27.60422104211429" lon="-11.733063600970267"><ele>300.0</ele><time>2026-04-29T14:27:08Z</time></trkpt><trkpt lat="27.603999053010426" lon="-11.733205268288609"><ele>300.0</ele><time>2026-04-29T14:27:09Z</time></trkpt><trkpt lat="27.60378971960818" lon="-11.733344986790431"><ele>300.0</ele><time>2026-04-29T14:27:10Z</time></trkpt><trkpt lat="27.603594239673725" lon="-11.733471563315534"><ele>301.0</ele><time>2026-04-29T14:27:11Z</time></trkpt><trkpt lat="27.603411874830467" lon="-11.733587646619954"><ele>302.0</ele><time>2026-04-29T14:27:12Z</time></trkpt><trkpt lat="27.603231772787353" lon="-11.733694863345129"><ele>303.0</ele><time>2026-04-29T14:27:13Z</time></trkpt><trkpt lat="27.60307212862932" lon="-11.73378626033889"><ele>303.0</ele><time>2026-04-29T14:27:14Z</time></trkpt><trkpt lat="27.60290335809109" lon="-11.733877189531205"><ele>303.0</ele><time>2026-04-29T14:27:15Z</time></trkpt><trkpt lat="27.60271048316434" lon="-11.73397105784307"><ele>303.0</ele><time>2026-04-29T14:27:16Z</time></trkpt><trkpt lat="27.602526138245814" lon="-11.734060930608074"><ele>302.6666666666667</ele><time>2026-04-29T14:27:17Z</time></trkpt><trkpt lat="27.602332004489643" lon="-11.734145207321276"><ele>302.33333333333337</ele><time>2026-04-29T14:27:18Z</time></trkpt><trkpt lat="27.60215048320919" lon="-11.734225680470011"><ele>302.0</ele><time>2026-04-29T14:27:19Z</time></trkpt><trkpt lat="27.601970763202157" lon="-11.734294411058958"><ele>301.6666666666667</ele><time>2026-04-29T14:27:20Z</time></trkpt><trkpt lat="27.601812449225903" lon="-11.734358181489672"><ele>301.3333333333333</ele><time>2026-04-29T14:27:21Z</time></trkpt><trkpt lat="27.601646245894766" lon="-11.734416579438905"><ele>301.0</ele><time>2026-04-29T14:27:22Z</time></trkpt><trkpt lat="27.601480122163775" lon="-11.73446485091696"><ele>301.66666666666663</ele><time>2026-04-29T14:27:23Z</time></trkpt><trkpt lat="27.601330226767576" lon="-11.734498212626944"><ele>302.3333333333333</ele><time>2026-04-29T14:27:24Z</time></trkpt><trkpt lat="27.60118588757563" lon="-11.73455084094103"><ele>303.0</ele><time>2026-04-29T14:27:25Z</time></trkpt><trkpt lat="27.601051553457115" lon="-11.734632180139448"><ele>303.3333333333333</ele><time>2026-04-29T14:27:26Z</time></trkpt><trkpt lat="27.60091979674577" lon="-11.734726468706544"><ele>303.66666666666663</ele><time>2026-04-29T14:27:27Z</time></trkpt><trkpt lat="27.600774471401248" lon="-11.734827960921281"><ele>304.0</ele><time>2026-04-29T14:27:28Z</time></trkpt><trkpt lat="27.60060357208741" lon="-11.734955366067156"><ele>304.0</ele><time>2026-04-29T14:27:29Z</time></trkpt><trkpt lat="27.600429523070108" lon="-11.73508959499144"><ele>304.0</ele><time>2026-04-29T14:27:30Z</time></trkpt><trkpt lat="27.6002626866111" lon="-11.73522177227387"><ele>304.0</ele><time>2026-04-29T14:27:31Z</time></trkpt><trkpt lat="27.600107872065372" lon="-11.735358968171534"><ele>303.0</ele><time>2026-04-29T14:27:32Z</time></trkpt><trkpt lat="27.599947977955516" lon="-11.735511196002333"><ele>302.0</ele><time>2026-04-29T14:27:33Z</time></trkpt><trkpt lat="27.59979143965218" lon="-11.735675762433388"><ele>301.0</ele><time>2026-04-29T14:27:34Z</time></trkpt><trkpt lat="27.599632384212267" lon="-11.73584672471667"><ele>301.0</ele><time>2026-04-29T14:27:35Z</time></trkpt><trkpt lat="27.599484172594597" lon="-11.736010478490675"><ele>301.0</ele><time>2026-04-29T14:27:36Z</time></trkpt><trkpt lat="27.599341642219983" lon="-11.736162428757703"><ele>301.0</ele><time>2026-04-29T14:27:37Z</time></trkpt><trkpt lat="27.599191670226883" lon="-11.736307306216805"><ele>301.0</ele><time>2026-04-29T14:27:38Z</time></trkpt><trkpt lat="27.599039778900277" lon="-11.73645029556457"><ele>301.0</ele><time>2026-04-29T14:27:39Z</time></trkpt><trkpt lat="27.59889219277082" lon="-11.736588260344655"><ele>301.0</ele><time>2026-04-29T14:27:40Z</time></trkpt><trkpt lat="27.598752277247936" lon="-11.736719261090968"><ele>300.66666666666663</ele><time>2026-04-29T14:27:41Z</time></trkpt><trkpt lat="27.59861634666454" lon="-11.736843005845621"><ele>300.3333333333333</ele><time>2026-04-29T14:27:42Z</time></trkpt><trkpt lat="27.598479038478846" lon="-11.736964389402246"><ele>300.0</ele><time>2026-04-29T14:27:43Z</time></trkpt><trkpt lat="27.598343852225906" lon="-11.737083347676966"><ele>300.0</ele><time>2026-04-29T14:27:44Z</time></trkpt><trkpt lat="27.59820912472668" lon="-11.737215473808732"><ele>300.0</ele><time>2026-04-29T14:27:45Z</time></trkpt><trkpt lat="27.598065978984145" lon="-11.737334438324982"><ele>300.0</ele><time>2026-04-29T14:27:46Z</time></trkpt><trkpt lat="27.597929921059354" lon="-11.737452734767935"><ele>300.0</ele><time>2026-04-29T14:27:47Z</time></trkpt><trkpt lat="27.597764635271883" lon="-11.737590454767679"><ele>300.0</ele><time>2026-04-29T14:27:48Z</time></trkpt><trkpt lat="27.597620507296032" lon="-11.737724981311294"><ele>300.0</ele><time>2026-04-29T14:27:49Z</time></trkpt><trkpt lat="27.597465497860167" lon="-11.737867131972848"><ele>300.3333333333333</ele><time>2026-04-29T14:27:50Z</time></trkpt><trkpt lat="27.597320652816023" lon="-11.738008133762486"><ele>300.66666666666663</ele><time>2026-04-29T14:27:51Z</time></trkpt><trkpt lat="27.597164742994615" lon="-11.7381475618276"><ele>301.0</ele><time>2026-04-29T14:27:52Z</time></trkpt><trkpt lat="27.597013848967897" lon="-11.738283268718927"><ele>301.0</ele><time>2026-04-29T14:27:53Z</time></trkpt><trkpt lat="27.5968507360867" lon="-11.738419255206505"><ele>301.0</ele><time>2026-04-29T14:27:54Z</time></trkpt><trkpt lat="27.596705871285707" lon="-11.738559112753698"><ele>301.0</ele><time>2026-04-29T14:27:55Z</time></trkpt><trkpt lat="27.596556010480587" lon="-11.738707767016052"><ele>301.0</ele><time>2026-04-29T14:27:56Z</time></trkpt><trkpt lat="27.5964028553562" lon="-11.738862283956069"><ele>301.0</ele><time>2026-04-29T14:27:57Z</time></trkpt><trkpt lat="27.596254249754427" lon="-11.739014489012483"><ele>301.0</ele><time>2026-04-29T14:27:58Z</time></trkpt><trkpt lat="27.596109108264024" lon="-11.739164936530276"><ele>301.3333333333333</ele><time>2026-04-29T14:27:59Z</time></trkpt><trkpt lat="27.595956673764938" lon="-11.739305304159393"><ele>301.6666666666667</ele><time>2026-04-29T14:28:00Z</time></trkpt><trkpt lat="27.595804112738623" lon="-11.739443776704464"><ele>302.0</ele><time>2026-04-29T14:28:01Z</time></trkpt><trkpt lat="27.595659518767217" lon="-11.739581751825899"><ele>302.0</ele><time>2026-04-29T14:28:02Z</time></trkpt><trkpt lat="27.595499993715926" lon="-11.739741671085644"><ele>302.0</ele><time>2026-04-29T14:28:03Z</time></trkpt><trkpt lat="27.595342185978176" lon="-11.739899728185737"><ele>302.0</ele><time>2026-04-29T14:28:04Z</time></trkpt><trkpt lat="27.5951902177471" lon="-11.740045932791217"><ele>301.6666666666667</ele><time>2026-04-29T14:28:05Z</time></trkpt><trkpt lat="27.59504284792375" lon="-11.740187794869927"><ele>301.3333333333333</ele><time>2026-04-29T14:28:06Z</time></trkpt><trkpt lat="27.594877349158587" lon="-11.740344909720807"><ele>301.0</ele><time>2026-04-29T14:28:07Z</time></trkpt><trkpt lat="27.5947275375209" lon="-11.740479610296841"><ele>300.3333333333333</ele><time>2026-04-29T14:28:08Z</time></trkpt><trkpt lat="27.594592839231016" lon="-11.740610205649915"><ele>299.6666666666667</ele><time>2026-04-29T14:28:09Z</time></trkpt><trkpt lat="27.594461854933407" lon="-11.740744275602529"><ele>299.0</ele><time>2026-04-29T14:28:10Z</time></trkpt><trkpt lat="27.594323770705437" lon="-11.74088754601506"><ele>299.0</ele><time>2026-04-29T14:28:11Z</time></trkpt><trkpt lat="27.594192098767934" lon="-11.741038180923914"><ele>299.0</ele><time>2026-04-29T14:28:12Z</time></trkpt><trkpt lat="27.594043705917322" lon="-11.741198136494312"><ele>299.0</ele><time>2026-04-29T14:28:13Z</time></trkpt><trkpt lat="27.593893222972483" lon="-11.741355248112386"><ele>299.6666666666667</ele><time>2026-04-29T14:28:14Z</time></trkpt><trkpt lat="27.59373864919734" lon="-11.741517825247515"><ele>300.3333333333333</ele><time>2026-04-29T14:28:15Z</time></trkpt><trkpt lat="27.593613725774116" lon="-11.741645364664352"><ele>301.0</ele><time>2026-04-29T14:28:16Z</time></trkpt><trkpt lat="27.59349311787081" lon="-11.741768098297323"><ele>301.0</ele><time>2026-04-29T14:28:17Z</time></trkpt><trkpt lat="27.59336759371939" lon="-11.741900087864487"><ele>301.0</ele><time>2026-04-29T14:28:18Z</time></trkpt><trkpt lat="27.5932329194769" lon="-11.742049711065981"><ele>301.0</ele><time>2026-04-29T14:28:19Z</time></trkpt><trkpt lat="27.5930868674289" lon="-11.74220203011949"><ele>301.0</ele><time>2026-04-29T14:28:20Z</time></trkpt><trkpt lat="27.592951027989265" lon="-11.742343854670013"><ele>301.0</ele><time>2026-04-29T14:28:21Z</time></trkpt><trkpt lat="27.59280359159517" lon="-11.742500646783986"><ele>301.0</ele><time>2026-04-29T14:28:22Z</time></trkpt><trkpt lat="27.59265951196757" lon="-11.742649988495407"><ele>300.3333333333333</ele><time>2026-04-29T14:28:23Z</time></trkpt><trkpt lat="27.59251609643987" lon="-11.742800315287548"><ele>299.6666666666667</ele><time>2026-04-29T14:28:24Z</time></trkpt><trkpt lat="27.592377100407287" lon="-11.742942104182173"><ele>299.0</ele><time>2026-04-29T14:28:25Z</time></trkpt><trkpt lat="27.59223652058672" lon="-11.743079760719905"><ele>299.0</ele><time>2026-04-29T14:28:26Z</time></trkpt><trkpt lat="27.592101391975554" lon="-11.743205286999073"><ele>299.0</ele><time>2026-04-29T14:28:27Z</time></trkpt><trkpt lat="27.591957846641336" lon="-11.743340580407368"><ele>299.0</ele><time>2026-04-29T14:28:28Z</time></trkpt><trkpt lat="27.591806571513427" lon="-11.743476307187228"><ele>299.33333333333337</ele><time>2026-04-29T14:28:29Z</time></trkpt><trkpt lat="27.59165533510095" lon="-11.743610741861628"><ele>299.6666666666667</ele><time>2026-04-29T14:28:30Z</time></trkpt><trkpt lat="27.591509363906564" lon="-11.743747654019346"><ele>300.0</ele><time>2026-04-29T14:28:31Z</time></trkpt><trkpt lat="27.591356134244013" lon="-11.74388194148462"><ele>300.0</ele><time>2026-04-29T14:28:32Z</time></trkpt><trkpt lat="27.59120478344096" lon="-11.74401817638072"><ele>300.0</ele><time>2026-04-29T14:28:33Z</time></trkpt><trkpt lat="27.591077491246175" lon="-11.744133740213591"><ele>300.0</ele><time>2026-04-29T14:28:34Z</time></trkpt><trkpt lat="27.59103424508383" lon="-11.744379259984683"><ele>299.6666666666667</ele><time>2026-04-29T14:28:35Z</time></trkpt><trkpt lat="27.590891133001744" lon="-11.744500588866467"><ele>299.33333333333337</ele><time>2026-04-29T14:28:36Z</time></trkpt><trkpt lat="27.590742496299686" lon="-11.744626890578733"><ele>299.0</ele><time>2026-04-29T14:28:37Z</time></trkpt><trkpt lat="27.5906033655441" lon="-11.744745114577295"><ele>299.0</ele><time>2026-04-29T14:28:38Z</time></trkpt><trkpt lat="27.590469971295168" lon="-11.744857981564287"><ele>299.0</ele><time>2026-04-29T14:28:39Z</time></trkpt><trkpt lat="27.590339287488156" lon="-11.744968449321906"><ele>299.0</ele><time>2026-04-29T14:28:40Z</time></trkpt><trkpt lat="27.59020256809375" lon="-11.74508426315112"><ele>299.33333333333337</ele><time>2026-04-29T14:28:41Z</time></trkpt><trkpt lat="27.590046174518758" lon="-11.745198501051522"><ele>299.6666666666667</ele><time>2026-04-29T14:28:42Z</time></trkpt><trkpt lat="27.589906045614757" lon="-11.745349006599534"><ele>300.0</ele><time>2026-04-29T14:28:43Z</time></trkpt><trkpt lat="27.589743777795917" lon="-11.745473435076525"><ele>300.3333333333333</ele><time>2026-04-29T14:28:44Z</time></trkpt><trkpt lat="27.58959000911177" lon="-11.745604761267906"><ele>300.66666666666663</ele><time>2026-04-29T14:28:45Z</time></trkpt><trkpt lat="27.58944083148892" lon="-11.745731382717992"><ele>301.0</ele><time>2026-04-29T14:28:46Z</time></trkpt><trkpt lat="27.589291664230032" lon="-11.745857978190203"><ele>300.3333333333333</ele><time>2026-04-29T14:28:47Z</time></trkpt><trkpt lat="27.589133099093182" lon="-11.746000306196036"><ele>299.6666666666667</ele><time>2026-04-29T14:28:48Z</time></trkpt><trkpt lat="27.588972030318754" lon="-11.746129149674749"><ele>299.0</ele><time>2026-04-29T14:28:49Z</time></trkpt><trkpt lat="27.58882793670273" lon="-11.746251395931031"><ele>298.6666666666667</ele><time>2026-04-29T14:28:50Z</time></trkpt><trkpt lat="27.588708854747427" lon="-11.746394640685772"><ele>298.3333333333333</ele><time>2026-04-29T14:28:51Z</time></trkpt><trkpt lat="27.58858318540548" lon="-11.746543003872066"><ele>298.0</ele><time>2026-04-29T14:28:52Z</time></trkpt><trkpt lat="27.588446303895054" lon="-11.746703582461116"><ele>298.0</ele><time>2026-04-29T14:28:53Z</time></trkpt><trkpt lat="27.588310595998895" lon="-11.746862753823239"><ele>298.0</ele><time>2026-04-29T14:28:54Z</time></trkpt><trkpt lat="27.58817844002771" lon="-11.747018306284877"><ele>298.0</ele><time>2026-04-29T14:28:55Z</time></trkpt><trkpt lat="27.588041628149174" lon="-11.747179751090421"><ele>297.66666666666663</ele><time>2026-04-29T14:28:56Z</time></trkpt><trkpt lat="27.587888550143308" lon="-11.747360494237949"><ele>297.3333333333333</ele><time>2026-04-29T14:28:57Z</time></trkpt><trkpt lat="27.58773280803202" lon="-11.747544309313849"><ele>297.0</ele><time>2026-04-29T14:28:58Z</time></trkpt><trkpt lat="27.587568137450432" lon="-11.74773753179874"><ele>297.0</ele><time>2026-04-29T14:28:59Z</time></trkpt><trkpt lat="27.587403370315535" lon="-11.74793092523922"><ele>297.0</ele><time>2026-04-29T14:29:00Z</time></trkpt><trkpt lat="27.587235430702588" lon="-11.74812901924811"><ele>297.0</ele><time>2026-04-29T14:29:01Z</time></trkpt><trkpt lat="27.587069136942105" lon="-11.748324677929796"><ele>297.0</ele><time>2026-04-29T14:29:02Z</time></trkpt><trkpt lat="27.58690036783921" lon="-11.748523248807118"><ele>297.0</ele><time>2026-04-29T14:29:03Z</time></trkpt><trkpt lat="27.58673882529966" lon="-11.74871331754546"><ele>297.0</ele><time>2026-04-29T14:29:04Z</time></trkpt><trkpt lat="27.586533968073734" lon="-11.748915383228553"><ele>297.0</ele><time>2026-04-29T14:29:05Z</time></trkpt><trkpt lat="27.58635433393648" lon="-11.749074501155402"><ele>297.0</ele><time>2026-04-29T14:29:06Z</time></trkpt><trkpt lat="27.58617876186578" lon="-11.749229946704865"><ele>297.0</ele><time>2026-04-29T14:29:07Z</time></trkpt><trkpt lat="27.58600590751028" lon="-11.749382624003909"><ele>297.0</ele><time>2026-04-29T14:29:08Z</time></trkpt><trkpt lat="27.58583180578458" lon="-11.749536403033018"><ele>297.0</ele><time>2026-04-29T14:29:09Z</time></trkpt><trkpt lat="27.58565044145694" lon="-11.74969659676741"><ele>297.0</ele><time>2026-04-29T14:29:10Z</time></trkpt><trkpt lat="27.58547101627885" lon="-11.749854638894549"><ele>297.0</ele><time>2026-04-29T14:29:11Z</time></trkpt><trkpt lat="27.58529755455602" lon="-11.750007223419377"><ele>297.0</ele><time>2026-04-29T14:29:12Z</time></trkpt><trkpt lat="27.585127793330194" lon="-11.750157173439861"><ele>297.3333333333333</ele><time>2026-04-29T14:29:13Z</time></trkpt><trkpt lat="27.584968537264842" lon="-11.750297941636076"><ele>297.66666666666663</ele><time>2026-04-29T14:29:14Z</time></trkpt><trkpt lat="27.58480100337096" lon="-11.7504458351214"><ele>298.0</ele><time>2026-04-29T14:29:15Z</time></trkpt><trkpt lat="27.58463604311874" lon="-11.750591685772346"><ele>297.66666666666663</ele><time>2026-04-29T14:29:16Z</time></trkpt><trkpt lat="27.584485528266413" lon="-11.750724256993959"><ele>297.3333333333333</ele><time>2026-04-29T14:29:17Z</time></trkpt><trkpt lat="27.584335768074304" lon="-11.75087437404756"><ele>297.0</ele><time>2026-04-29T14:29:18Z</time></trkpt><trkpt lat="27.584185709551686" lon="-11.751024790272961"><ele>297.0</ele><time>2026-04-29T14:29:19Z</time></trkpt><trkpt lat="27.584033228577706" lon="-11.751177634719209"><ele>297.0</ele><time>2026-04-29T14:29:20Z</time></trkpt><trkpt lat="27.583889918865207" lon="-11.751321286062165"><ele>297.0</ele><time>2026-04-29T14:29:21Z</time></trkpt><trkpt lat="27.58375030285024" lon="-11.751461250221165"><ele>297.0</ele><time>2026-04-29T14:29:22Z</time></trkpt><trkpt lat="27.583609556804173" lon="-11.751602451595812"><ele>297.0</ele><time>2026-04-29T14:29:23Z</time></trkpt><trkpt lat="27.583460399842725" lon="-11.751752091136765"><ele>297.0</ele><time>2026-04-29T14:29:24Z</time></trkpt><trkpt lat="27.583309316880985" lon="-11.751903662892397"><ele>297.0</ele><time>2026-04-29T14:29:25Z</time></trkpt><trkpt lat="27.583165107276077" lon="-11.752048338880279"><ele>297.0</ele><time>2026-04-29T14:29:26Z</time></trkpt><trkpt lat="27.583031501637368" lon="-11.752182376773051"><ele>297.0</ele><time>2026-04-29T14:29:27Z</time></trkpt><trkpt lat="27.582892527250337" lon="-11.752321042082983"><ele>296.6666666666667</ele><time>2026-04-29T14:29:28Z</time></trkpt><trkpt lat="27.582744130827884" lon="-11.752469777179025"><ele>296.33333333333337</ele><time>2026-04-29T14:29:29Z</time></trkpt><trkpt lat="27.58259701671654" lon="-11.752617255260672"><ele>296.0</ele><time>2026-04-29T14:29:30Z</time></trkpt><trkpt lat="27.58245821115957" lon="-11.7527564042116"><ele>296.0</ele><time>2026-04-29T14:29:31Z</time></trkpt><trkpt lat="27.58230977694535" lon="-11.752905205586067"><ele>296.0</ele><time>2026-04-29T14:29:32Z</time></trkpt><trkpt lat="27.582170981703623" lon="-11.75304434420592"><ele>296.0</ele><time>2026-04-29T14:29:33Z</time></trkpt><trkpt lat="27.58203458323881" lon="-11.753180983542393"><ele>295.6666666666667</ele><time>2026-04-29T14:29:34Z</time></trkpt><trkpt lat="27.581896099598087" lon="-11.753319329134477"><ele>295.3333333333333</ele><time>2026-04-29T14:29:35Z</time></trkpt><trkpt lat="27.581753115250187" lon="-11.753462170014892"><ele>295.0</ele><time>2026-04-29T14:29:36Z</time></trkpt><trkpt lat="27.58154474396366" lon="-11.753609971885933"><ele>295.66666666666663</ele><time>2026-04-29T14:29:37Z</time></trkpt><trkpt lat="27.581381800117978" lon="-11.753726738428433"><ele>296.3333333333333</ele><time>2026-04-29T14:29:38Z</time></trkpt><trkpt lat="27.581227828744616" lon="-11.753837492372444"><ele>297.0</ele><time>2026-04-29T14:29:39Z</time></trkpt><trkpt lat="27.58106196001333" lon="-11.753956567178244"><ele>297.0</ele><time>2026-04-29T14:29:40Z</time></trkpt><trkpt lat="27.580903778522657" lon="-11.754069572327744"><ele>297.0</ele><time>2026-04-29T14:29:41Z</time></trkpt><trkpt lat="27.580727850207232" lon="-11.754177664121812"><ele>297.0</ele><time>2026-04-29T14:29:42Z</time></trkpt><trkpt lat="27.580579806120383" lon="-11.75430222372237"><ele>298.3333333333333</ele><time>2026-04-29T14:29:43Z</time></trkpt><trkpt lat="27.580430631971872" lon="-11.75440929262186"><ele>299.66666666666663</ele><time>2026-04-29T14:29:44Z</time></trkpt><trkpt lat="27.580289989339434" lon="-11.754510756836009"><ele>301.0</ele><time>2026-04-29T14:29:45Z</time></trkpt><trkpt lat="27.58013231386997" lon="-11.754623963258718"><ele>297.66666666666663</ele><time>2026-04-29T14:29:46Z</time></trkpt><trkpt lat="27.579974497286674" lon="-11.754736942158889"><ele>294.3333333333333</ele><time>2026-04-29T14:29:47Z</time></trkpt><trkpt lat="27.579810927640324" lon="-11.754854697546318"><ele>291.0</ele><time>2026-04-29T14:29:48Z</time></trkpt><trkpt lat="27.57964855596175" lon="-11.754971141766509"><ele>292.3333333333333</ele><time>2026-04-29T14:29:49Z</time></trkpt><trkpt lat="27.579488454481282" lon="-11.7550978066931"><ele>293.66666666666663</ele><time>2026-04-29T14:29:50Z</time></trkpt><trkpt lat="27.579317591742274" lon="-11.75520895854344"><ele>295.0</ele><time>2026-04-29T14:29:51Z</time></trkpt><trkpt lat="27.579153346122663" lon="-11.755326746589084"><ele>295.0</ele><time>2026-04-29T14:29:52Z</time></trkpt><trkpt lat="27.578989285361175" lon="-11.755443999718555"><ele>295.0</ele><time>2026-04-29T14:29:53Z</time></trkpt><trkpt lat="27.5788405306915" lon="-11.755550324280556"><ele>295.0</ele><time>2026-04-29T14:29:54Z</time></trkpt><trkpt lat="27.57868638507378" lon="-11.755660502101325"><ele>297.0</ele><time>2026-04-29T14:29:55Z</time></trkpt><trkpt lat="27.578450317477863" lon="-11.755665281130906"><ele>299.0</ele><time>2026-04-29T14:29:56Z</time></trkpt><trkpt lat="27.57828205453108" lon="-11.755818558344211"><ele>299.0</ele><time>2026-04-29T14:29:57Z</time></trkpt><trkpt lat="27.57811781571996" lon="-11.75597249599944"><ele>299.0</ele><time>2026-04-29T14:29:58Z</time></trkpt><trkpt lat="27.577961062107065" lon="-11.756123594714177"><ele>299.0</ele><time>2026-04-29T14:29:59Z</time></trkpt><trkpt lat="27.577798194994216" lon="-11.756273511114825"><ele>297.33333333333337</ele><time>2026-04-29T14:30:00Z</time></trkpt><trkpt lat="27.577620661163383" lon="-11.756414571146955"><ele>295.6666666666667</ele><time>2026-04-29T14:30:01Z</time></trkpt><trkpt lat="27.577439088669006" lon="-11.756549938925438"><ele>294.0</ele><time>2026-04-29T14:30:02Z</time></trkpt><trkpt lat="27.577258904132243" lon="-11.756680762078952"><ele>294.0</ele><time>2026-04-29T14:30:03Z</time></trkpt><trkpt lat="27.57706947291498" lon="-11.7568171340985"><ele>294.0</ele><time>2026-04-29T14:30:04Z</time></trkpt><trkpt lat="27.576886909062356" lon="-11.75693407791905"><ele>294.0</ele><time>2026-04-29T14:30:05Z</time></trkpt><trkpt lat="27.576704235357486" lon="-11.757049436140772"><ele>294.3333333333333</ele><time>2026-04-29T14:30:06Z</time></trkpt><trkpt lat="27.57650778957005" lon="-11.75716929274597"><ele>294.66666666666663</ele><time>2026-04-29T14:30:07Z</time></trkpt><trkpt lat="27.57631839197387" lon="-11.757282923155863"><ele>295.0</ele><time>2026-04-29T14:30:08Z</time></trkpt><trkpt lat="27.576139323226997" lon="-11.757399239303151"><ele>294.3333333333333</ele><time>2026-04-29T14:30:09Z</time></trkpt><trkpt lat="27.575948559153115" lon="-11.757518545250042"><ele>293.6666666666667</ele><time>2026-04-29T14:30:10Z</time></trkpt><trkpt lat="27.57575806109668" lon="-11.757643702884664"><ele>293.0</ele><time>2026-04-29T14:30:11Z</time></trkpt><trkpt lat="27.57557272601568" lon="-11.757769824084502"><ele>294.6666666666667</ele><time>2026-04-29T14:30:12Z</time></trkpt><trkpt lat="27.57539589725667" lon="-11.757894324501212"><ele>296.3333333333333</ele><time>2026-04-29T14:30:13Z</time></trkpt><trkpt lat="27.57522202183345" lon="-11.758017972777267"><ele>298.0</ele><time>2026-04-29T14:30:14Z</time></trkpt><trkpt lat="27.575057128093462" lon="-11.758132219704292"><ele>298.0</ele><time>2026-04-29T14:30:15Z</time></trkpt><trkpt lat="27.574900296291" lon="-11.75823715967969"><ele>298.0</ele><time>2026-04-29T14:30:16Z</time></trkpt><trkpt lat="27.574746494016445" lon="-11.758333947306836"><ele>298.0</ele><time>2026-04-29T14:30:17Z</time></trkpt><trkpt lat="27.574581055354145" lon="-11.758413795401427"><ele>297.0</ele><time>2026-04-29T14:30:18Z</time></trkpt><trkpt lat="27.574409852405577" lon="-11.758494340341445"><ele>296.0</ele><time>2026-04-29T14:30:19Z</time></trkpt><trkpt lat="27.5742176897995" lon="-11.758576622891589"><ele>295.0</ele><time>2026-04-29T14:30:20Z</time></trkpt><trkpt lat="27.574034913861876" lon="-11.758642597975049"><ele>295.0</ele><time>2026-04-29T14:30:21Z</time></trkpt><trkpt lat="27.573835075296973" lon="-11.758710136407247"><ele>295.0</ele><time>2026-04-29T14:30:22Z</time></trkpt><trkpt lat="27.573612352112324" lon="-11.758795241918717"><ele>295.0</ele><time>2026-04-29T14:30:23Z</time></trkpt><trkpt lat="27.573416434215847" lon="-11.758867617371326"><ele>295.0</ele><time>2026-04-29T14:30:24Z</time></trkpt><trkpt lat="27.573218463848487" lon="-11.758942160482812"><ele>295.0</ele><time>2026-04-29T14:30:25Z</time></trkpt><trkpt lat="27.57302076157065" lon="-11.759014017348115"><ele>295.0</ele><time>2026-04-29T14:30:26Z</time></trkpt><trkpt lat="27.572820154893606" lon="-11.759090131599796"><ele>295.0</ele><time>2026-04-29T14:30:27Z</time></trkpt><trkpt lat="27.572610873701972" lon="-11.759166307523481"><ele>295.0</ele><time>2026-04-29T14:30:28Z</time></trkpt><trkpt lat="27.572403910289204" lon="-11.7592404870311"><ele>295.0</ele><time>2026-04-29T14:30:29Z</time></trkpt><trkpt lat="27.57220334385097" lon="-11.759318911605229"><ele>295.66666666666663</ele><time>2026-04-29T14:30:30Z</time></trkpt><trkpt lat="27.5720081731565" lon="-11.75938891333006"><ele>296.3333333333333</ele><time>2026-04-29T14:30:31Z</time></trkpt><trkpt lat="27.571821849257024" lon="-11.759456027522809"><ele>297.0</ele><time>2026-04-29T14:30:32Z</time></trkpt><trkpt lat="27.57164044079925" lon="-11.759533652866685"><ele>297.0</ele><time>2026-04-29T14:30:33Z</time></trkpt><trkpt lat="27.571456755444352" lon="-11.759611417264262"><ele>297.0</ele><time>2026-04-29T14:30:34Z</time></trkpt><trkpt lat="27.571269360232304" lon="-11.759690870672156"><ele>297.0</ele><time>2026-04-29T14:30:35Z</time></trkpt><trkpt lat="27.571086695906285" lon="-11.759766416360703"><ele>296.3333333333333</ele><time>2026-04-29T14:30:36Z</time></trkpt><trkpt lat="27.570895822856784" lon="-11.759848338618687"><ele>295.66666666666663</ele><time>2026-04-29T14:30:37Z</time></trkpt><trkpt lat="27.570710073140372" lon="-11.759925755100442"><ele>295.0</ele><time>2026-04-29T14:30:38Z</time></trkpt><trkpt lat="27.570519896822272" lon="-11.760002848039704"><ele>295.3333333333333</ele><time>2026-04-29T14:30:39Z</time></trkpt><trkpt lat="27.570333514171143" lon="-11.760081243672273"><ele>295.6666666666667</ele><time>2026-04-29T14:30:40Z</time></trkpt><trkpt lat="27.57016713431056" lon="-11.76015444437189"><ele>296.0</ele><time>2026-04-29T14:30:41Z</time></trkpt><trkpt lat="27.569973738060575" lon="-11.760235591077297"><ele>296.0</ele><time>2026-04-29T14:30:42Z</time></trkpt><trkpt lat="27.56977767815105" lon="-11.760316322346773"><ele>296.0</ele><time>2026-04-29T14:30:43Z</time></trkpt><trkpt lat="27.56959261924146" lon="-11.760398343512046"><ele>296.0</ele><time>2026-04-29T14:30:44Z</time></trkpt><trkpt lat="27.569397506447068" lon="-11.76048284987054"><ele>295.6666666666667</ele><time>2026-04-29T14:30:45Z</time></trkpt><trkpt lat="27.569213302981417" lon="-11.76057300780355"><ele>295.3333333333333</ele><time>2026-04-29T14:30:46Z</time></trkpt><trkpt lat="27.56902713255825" lon="-11.760672860486101"><ele>295.0</ele><time>2026-04-29T14:30:47Z</time></trkpt><trkpt lat="27.568847148550635" lon="-11.760774831854484"><ele>295.0</ele><time>2026-04-29T14:30:48Z</time></trkpt><trkpt lat="27.568660242013603" lon="-11.760881533626492"><ele>295.0</ele><time>2026-04-29T14:30:49Z</time></trkpt><trkpt lat="27.568466193981262" lon="-11.760983808442564"><ele>295.0</ele><time>2026-04-29T14:30:50Z</time></trkpt><trkpt lat="27.568279003300585" lon="-11.76108775139831"><ele>295.3333333333333</ele><time>2026-04-29T14:30:51Z</time></trkpt><trkpt lat="27.5681021688801" lon="-11.761181696745414"><ele>295.6666666666667</ele><time>2026-04-29T14:30:52Z</time></trkpt><trkpt lat="27.567914480688184" lon="-11.761286246468746"><ele>296.0</ele><time>2026-04-29T14:30:53Z</time></trkpt><trkpt lat="27.56772908130317" lon="-11.761386155068113"><ele>296.0</ele><time>2026-04-29T14:30:54Z</time></trkpt><trkpt lat="27.567549309587495" lon="-11.761487726150332"><ele>296.0</ele><time>2026-04-29T14:30:55Z</time></trkpt><trkpt lat="27.567364536634265" lon="-11.761600311596284"><ele>296.0</ele><time>2026-04-29T14:30:56Z</time></trkpt><trkpt lat="27.567190815922675" lon="-11.761705677573206"><ele>295.6666666666667</ele><time>2026-04-29T14:30:57Z</time></trkpt><trkpt lat="27.567013462503954" lon="-11.761808517067431"><ele>295.3333333333333</ele><time>2026-04-29T14:30:58Z</time></trkpt><trkpt lat="27.566834349736265" lon="-11.761907074975461"><ele>295.0</ele><time>2026-04-29T14:30:59Z</time></trkpt><trkpt lat="27.566661832522367" lon="-11.762002815195494"><ele>294.66666666666663</ele><time>2026-04-29T14:31:00Z</time></trkpt><trkpt lat="27.566506897835946" lon="-11.762102147371532"><ele>294.3333333333333</ele><time>2026-04-29T14:31:01Z</time></trkpt><trkpt lat="27.56633581964431" lon="-11.762205177176776"><ele>294.0</ele><time>2026-04-29T14:31:02Z</time></trkpt><trkpt lat="27.566151322689002" lon="-11.762314570060424"><ele>293.6666666666667</ele><time>2026-04-29T14:31:03Z</time></trkpt><trkpt lat="27.565987962296088" lon="-11.762410344377173"><ele>293.33333333333337</ele><time>2026-04-29T14:31:04Z</time></trkpt><trkpt lat="27.565817544373242" lon="-11.762503949406828"><ele>293.0</ele><time>2026-04-29T14:31:05Z</time></trkpt><trkpt lat="27.565635042342358" lon="-11.76261174526768"><ele>293.6666666666667</ele><time>2026-04-29T14:31:06Z</time></trkpt><trkpt lat="27.565468379845253" lon="-11.76271258683323"><ele>294.3333333333333</ele><time>2026-04-29T14:31:07Z</time></trkpt><trkpt lat="27.565299356541942" lon="-11.762808074269945"><ele>295.0</ele><time>2026-04-29T14:31:08Z</time></trkpt><trkpt lat="27.565129127959175" lon="-11.762910493508068"><ele>295.0</ele><time>2026-04-29T14:31:09Z</time></trkpt><trkpt lat="27.5649633132865" lon="-11.763011765753342"><ele>295.0</ele><time>2026-04-29T14:31:10Z</time></trkpt><trkpt lat="27.564786398430634" lon="-11.763122781384588"><ele>295.0</ele><time>2026-04-29T14:31:11Z</time></trkpt><trkpt lat="27.56462179850511" lon="-11.763222550283205"><ele>295.0</ele><time>2026-04-29T14:31:12Z</time></trkpt><trkpt lat="27.564455381186825" lon="-11.763328030962114"><ele>295.0</ele><time>2026-04-29T14:31:13Z</time></trkpt><trkpt lat="27.564274827842162" lon="-11.763442467084966"><ele>295.0</ele><time>2026-04-29T14:31:14Z</time></trkpt><trkpt lat="27.56411365821357" lon="-11.763542188431137"><ele>295.3333333333333</ele><time>2026-04-29T14:31:15Z</time></trkpt><trkpt lat="27.563928990767494" lon="-11.763653737153604"><ele>295.6666666666667</ele><time>2026-04-29T14:31:16Z</time></trkpt><trkpt lat="27.563763370307385" lon="-11.763745061587478"><ele>296.0</ele><time>2026-04-29T14:31:17Z</time></trkpt><trkpt lat="27.563587908518166" lon="-11.763854142748995"><ele>294.6666666666667</ele><time>2026-04-29T14:31:18Z</time></trkpt><trkpt lat="27.56341656179933" lon="-11.763955956371616"><ele>293.3333333333333</ele><time>2026-04-29T14:31:19Z</time></trkpt><trkpt lat="27.563228432673426" lon="-11.764076315071716"><ele>292.0</ele><time>2026-04-29T14:31:20Z</time></trkpt><trkpt lat="27.56304430181798" lon="-11.764188180373708"><ele>292.0</ele><time>2026-04-29T14:31:21Z</time></trkpt><trkpt lat="27.56286443806332" lon="-11.764297224153527"><ele>292.0</ele><time>2026-04-29T14:31:22Z</time></trkpt><trkpt lat="27.56268652791928" lon="-11.764404488700718"><ele>292.0</ele><time>2026-04-29T14:31:23Z</time></trkpt><trkpt lat="27.562507553799943" lon="-11.764517479121595"><ele>292.0</ele><time>2026-04-29T14:31:24Z</time></trkpt><trkpt lat="27.56233929952136" lon="-11.764625459292494"><ele>292.0</ele><time>2026-04-29T14:31:25Z</time></trkpt><trkpt lat="27.562164443650474" lon="-11.764738502982379"><ele>292.0</ele><time>2026-04-29T14:31:26Z</time></trkpt><trkpt lat="27.561993548751847" lon="-11.76485082237548"><ele>292.0</ele><time>2026-04-29T14:31:27Z</time></trkpt><trkpt lat="27.5618177455331" lon="-11.764965057275795"><ele>292.0</ele><time>2026-04-29T14:31:28Z</time></trkpt><trkpt lat="27.561634684965547" lon="-11.76509197736198"><ele>292.0</ele><time>2026-04-29T14:31:29Z</time></trkpt><trkpt lat="27.56145078875156" lon="-11.765206642155963"><ele>292.3333333333333</ele><time>2026-04-29T14:31:30Z</time></trkpt><trkpt lat="27.56127474126003" lon="-11.765327548274453"><ele>292.6666666666667</ele><time>2026-04-29T14:31:31Z</time></trkpt><trkpt lat="27.561104412049303" lon="-11.765448975603247"><ele>293.0</ele><time>2026-04-29T14:31:32Z</time></trkpt><trkpt lat="27.560934206015308" lon="-11.765573877767652"><ele>292.33333333333337</ele><time>2026-04-29T14:31:33Z</time></trkpt><trkpt lat="27.560775128979113" lon="-11.765699429406338"><ele>291.6666666666667</ele><time>2026-04-29T14:31:34Z</time></trkpt><trkpt lat="27.560624416423355" lon="-11.765822438061964"><ele>291.0</ele><time>2026-04-29T14:31:35Z</time></trkpt><trkpt lat="27.560462247056794" lon="-11.765959801475834"><ele>292.0</ele><time>2026-04-29T14:31:36Z</time></trkpt><trkpt lat="27.56030723882477" lon="-11.766095065708798"><ele>293.0</ele><time>2026-04-29T14:31:37Z</time></trkpt><trkpt lat="27.560153744611004" lon="-11.766240585739686"><ele>294.0</ele><time>2026-04-29T14:31:38Z</time></trkpt><trkpt lat="27.56000502351695" lon="-11.766400418278726"><ele>294.0</ele><time>2026-04-29T14:31:39Z</time></trkpt><trkpt lat="27.559863611359198" lon="-11.766563410327668"><ele>294.0</ele><time>2026-04-29T14:31:40Z</time></trkpt><trkpt lat="27.559724098737288" lon="-11.76671001377623"><ele>294.0</ele><time>2026-04-29T14:31:41Z</time></trkpt><trkpt lat="27.55958202385918" lon="-11.766861909694454"><ele>293.3333333333333</ele><time>2026-04-29T14:31:42Z</time></trkpt><trkpt lat="27.55944087420558" lon="-11.767011545040644"><ele>292.66666666666663</ele><time>2026-04-29T14:31:43Z</time></trkpt><trkpt lat="27.559295132058054" lon="-11.767162752284001"><ele>292.0</ele><time>2026-04-29T14:31:44Z</time></trkpt><trkpt lat="27.55914880070428" lon="-11.767303745000538"><ele>292.0</ele><time>2026-04-29T14:31:45Z</time></trkpt><trkpt lat="27.559003053029343" lon="-11.767442648327142"><ele>292.0</ele><time>2026-04-29T14:31:46Z</time></trkpt><trkpt lat="27.558858776875606" lon="-11.767575579083678"><ele>292.0</ele><time>2026-04-29T14:31:47Z</time></trkpt><trkpt lat="27.558703010370422" lon="-11.7677135158104"><ele>291.0</ele><time>2026-04-29T14:31:48Z</time></trkpt><trkpt lat="27.558549688622204" lon="-11.767842471550086"><ele>290.0</ele><time>2026-04-29T14:31:49Z</time></trkpt><trkpt lat="27.55840012083957" lon="-11.767963138228899"><ele>289.0</ele><time>2026-04-29T14:31:50Z</time></trkpt><trkpt lat="27.558246100856188" lon="-11.768089144132402"><ele>289.0</ele><time>2026-04-29T14:31:51Z</time></trkpt><trkpt lat="27.558089086190606" lon="-11.768211293312865"><ele>289.0</ele><time>2026-04-29T14:31:52Z</time></trkpt><trkpt lat="27.55799056610455" lon="-11.768464994400222"><ele>289.0</ele><time>2026-04-29T14:31:53Z</time></trkpt><trkpt lat="27.557823730561072" lon="-11.768571786015734"><ele>288.66666666666663</ele><time>2026-04-29T14:31:54Z</time></trkpt><trkpt lat="27.557646708439382" lon="-11.768684915783215"><ele>288.3333333333333</ele><time>2026-04-29T14:31:55Z</time></trkpt><trkpt lat="27.557468844204934" lon="-11.768798957877905"><ele>288.0</ele><time>2026-04-29T14:31:56Z</time></trkpt><trkpt lat="27.557280596186132" lon="-11.768919657877994"><ele>288.0</ele><time>2026-04-29T14:31:57Z</time></trkpt><trkpt lat="27.557090072105137" lon="-11.769041817010228"><ele>288.0</ele><time>2026-04-29T14:31:58Z</time></trkpt><trkpt lat="27.55689961496865" lon="-11.769163846461582"><ele>288.0</ele><time>2026-04-29T14:31:59Z</time></trkpt><trkpt lat="27.55670265369367" lon="-11.769289992527561"><ele>289.0</ele><time>2026-04-29T14:32:00Z</time></trkpt><trkpt lat="27.556498246580325" lon="-11.769420939805224"><ele>290.0</ele><time>2026-04-29T14:32:01Z</time></trkpt><trkpt lat="27.55630297400812" lon="-11.769546035322673"><ele>290.0</ele><time>2026-04-29T14:32:02Z</time></trkpt><trkpt lat="27.556116677402482" lon="-11.769665424996994"><ele>290.0</ele><time>2026-04-29T14:32:03Z</time></trkpt><trkpt lat="27.555932730726585" lon="-11.769783386022683"><ele>290.0</ele><time>2026-04-29T14:32:04Z</time></trkpt><trkpt lat="27.5557613184209" lon="-11.769893257482195"><ele>290.0</ele><time>2026-04-29T14:32:05Z</time></trkpt><trkpt lat="27.555595784778674" lon="-11.770004032925335"><ele>290.0</ele><time>2026-04-29T14:32:06Z</time></trkpt><trkpt lat="27.555430962740246" lon="-11.77012314194966"><ele>290.0</ele><time>2026-04-29T14:32:07Z</time></trkpt><trkpt lat="27.55525912680179" lon="-11.770247318709025"><ele>290.0</ele><time>2026-04-29T14:32:08Z</time></trkpt><trkpt lat="27.555089287040975" lon="-11.77037029666569"><ele>290.0</ele><time>2026-04-29T14:32:09Z</time></trkpt><trkpt lat="27.554921467414225" lon="-11.770491849983465"><ele>290.0</ele><time>2026-04-29T14:32:10Z</time></trkpt><trkpt lat="27.55475219735274" lon="-11.770614367811666"><ele>290.0</ele><time>2026-04-29T14:32:11Z</time></trkpt><trkpt lat="27.554578668710597" lon="-11.77073987371274"><ele>290.0</ele><time>2026-04-29T14:32:12Z</time></trkpt><trkpt lat="27.554405655626162" lon="-11.770865006638731"><ele>290.0</ele><time>2026-04-29T14:32:13Z</time></trkpt><trkpt lat="27.554235340430612" lon="-11.77098808736181"><ele>290.0</ele><time>2026-04-29T14:32:14Z</time></trkpt><trkpt lat="27.5540589165589" lon="-11.771115215152467"><ele>290.0</ele><time>2026-04-29T14:32:15Z</time></trkpt><trkpt lat="27.553887086576456" lon="-11.771239053708767"><ele>290.0</ele><time>2026-04-29T14:32:16Z</time></trkpt><trkpt lat="27.553717823252256" lon="-11.771361643414274"><ele>290.0</ele><time>2026-04-29T14:32:17Z</time></trkpt><trkpt lat="27.553538954001347" lon="-11.77149135142699"><ele>290.0</ele><time>2026-04-29T14:32:18Z</time></trkpt><trkpt lat="27.553361784623988" lon="-11.771619169763433"><ele>290.0</ele><time>2026-04-29T14:32:19Z</time></trkpt><trkpt lat="27.5531845252879" lon="-11.771747321314935"><ele>290.33333333333337</ele><time>2026-04-29T14:32:20Z</time></trkpt><trkpt lat="27.553001106227406" lon="-11.771879926165651"><ele>290.6666666666667</ele><time>2026-04-29T14:32:21Z</time></trkpt><trkpt lat="27.552823118587906" lon="-11.772008669357092"><ele>291.0</ele><time>2026-04-29T14:32:22Z</time></trkpt><trkpt lat="27.552636280465425" lon="-11.772143936265394"><ele>290.0</ele><time>2026-04-29T14:32:23Z</time></trkpt><trkpt lat="27.5524435437399" lon="-11.77228347353959"><ele>289.0</ele><time>2026-04-29T14:32:24Z</time></trkpt><trkpt lat="27.552250258752345" lon="-11.772423407704757"><ele>289.0</ele><time>2026-04-29T14:32:25Z</time></trkpt><trkpt lat="27.552057977950238" lon="-11.772562484426365"><ele>289.0</ele><time>2026-04-29T14:32:26Z</time></trkpt><trkpt lat="27.551871352061838" lon="-11.772697210928985"><ele>289.0</ele><time>2026-04-29T14:32:27Z</time></trkpt><trkpt lat="27.551683454008923" lon="-11.772832610542226"><ele>289.0</ele><time>2026-04-29T14:32:28Z</time></trkpt><trkpt lat="27.551499866753137" lon="-11.772965042966717"><ele>289.0</ele><time>2026-04-29T14:32:29Z</time></trkpt><trkpt lat="27.55130975258861" lon="-11.773102565508475"><ele>288.66666666666663</ele><time>2026-04-29T14:32:30Z</time></trkpt><trkpt lat="27.551123000469076" lon="-11.7732377264493"><ele>288.3333333333333</ele><time>2026-04-29T14:32:31Z</time></trkpt><trkpt lat="27.550940804224222" lon="-11.773369590000277"><ele>288.0</ele><time>2026-04-29T14:32:32Z</time></trkpt><trkpt lat="27.550753060707862" lon="-11.773505468520133"><ele>288.0</ele><time>2026-04-29T14:32:33Z</time></trkpt><trkpt lat="27.550567002732503" lon="-11.773639968138818"><ele>288.0</ele><time>2026-04-29T14:32:34Z</time></trkpt><trkpt lat="27.550380786471372" lon="-11.773774524806786"><ele>288.0</ele><time>2026-04-29T14:32:35Z</time></trkpt><trkpt lat="27.550203157207708" lon="-11.77390260173222"><ele>288.3333333333333</ele><time>2026-04-29T14:32:36Z</time></trkpt><trkpt lat="27.550020972541493" lon="-11.774032688139838"><ele>288.66666666666663</ele><time>2026-04-29T14:32:37Z</time></trkpt><trkpt lat="27.549848875937748" lon="-11.774157122320913"><ele>289.0</ele><time>2026-04-29T14:32:38Z</time></trkpt><trkpt lat="27.54968575811402" lon="-11.774275152929985"><ele>289.0</ele><time>2026-04-29T14:32:39Z</time></trkpt><trkpt lat="27.54952101534815" lon="-11.774394370349514"><ele>289.0</ele><time>2026-04-29T14:32:40Z</time></trkpt><trkpt lat="27.549350100016923" lon="-11.774518054430114"><ele>289.0</ele><time>2026-04-29T14:32:41Z</time></trkpt><trkpt lat="27.549179161981655" lon="-11.774641755091348"><ele>289.0</ele><time>2026-04-29T14:32:42Z</time></trkpt><trkpt lat="27.549002309091872" lon="-11.774770724482085"><ele>289.0</ele><time>2026-04-29T14:32:43Z</time></trkpt><trkpt lat="27.548847339748622" lon="-11.774886762265655"><ele>289.0</ele><time>2026-04-29T14:32:44Z</time></trkpt><trkpt lat="27.54869155696911" lon="-11.77500318164025"><ele>288.66666666666663</ele><time>2026-04-29T14:32:45Z</time></trkpt><trkpt lat="27.548533934387134" lon="-11.775120642305176"><ele>288.3333333333333</ele><time>2026-04-29T14:32:46Z</time></trkpt><trkpt lat="27.54835888670918" lon="-11.775251088162227"><ele>288.0</ele><time>2026-04-29T14:32:47Z</time></trkpt><trkpt lat="27.54816817544212" lon="-11.775393020264566"><ele>287.3333333333333</ele><time>2026-04-29T14:32:48Z</time></trkpt><trkpt lat="27.547995682028738" lon="-11.775521394288825"><ele>286.66666666666663</ele><time>2026-04-29T14:32:49Z</time></trkpt><trkpt lat="27.54781364437548" lon="-11.775656871437292"><ele>286.0</ele><time>2026-04-29T14:32:50Z</time></trkpt><trkpt lat="27.547638678755384" lon="-11.775787085371107"><ele>286.0</ele><time>2026-04-29T14:32:51Z</time></trkpt><trkpt lat="27.547462534779147" lon="-11.775918176266668"><ele>286.0</ele><time>2026-04-29T14:32:52Z</time></trkpt><trkpt lat="27.547294020537773" lon="-11.776043588940574"><ele>286.0</ele><time>2026-04-29T14:32:53Z</time></trkpt><trkpt lat="27.54713111743969" lon="-11.776164824092767"><ele>286.0</ele><time>2026-04-29T14:32:54Z</time></trkpt><trkpt lat="27.546956753344997" lon="-11.776294588083303"><ele>286.0</ele><time>2026-04-29T14:32:55Z</time></trkpt><trkpt lat="27.546776953780576" lon="-11.776428413529816"><ele>286.0</ele><time>2026-04-29T14:32:56Z</time></trkpt><trkpt lat="27.546592094479788" lon="-11.776563553532442"><ele>286.0</ele><time>2026-04-29T14:32:57Z</time></trkpt><trkpt lat="27.546408199431507" lon="-11.77667925595166"><ele>286.0</ele><time>2026-04-29T14:32:58Z</time></trkpt><trkpt lat="27.54623732369924" lon="-11.77683924884152"><ele>286.0</ele><time>2026-04-29T14:32:59Z</time></trkpt><trkpt lat="27.546072581683696" lon="-11.77697859590345"><ele>286.3333333333333</ele><time>2026-04-29T14:33:00Z</time></trkpt><trkpt lat="27.545903565661064" lon="-11.777142178161858"><ele>286.6666666666667</ele><time>2026-04-29T14:33:01Z</time></trkpt><trkpt lat="27.54573786689799" lon="-11.777305633575828"><ele>287.0</ele><time>2026-04-29T14:33:02Z</time></trkpt><trkpt lat="27.545584658988137" lon="-11.777455744533572"><ele>287.0</ele><time>2026-04-29T14:33:03Z</time></trkpt><trkpt lat="27.54542886083725" lon="-11.777611222640706"><ele>287.0</ele><time>2026-04-29T14:33:04Z</time></trkpt><trkpt lat="27.54527243855006" lon="-11.777778939613833"><ele>287.0</ele><time>2026-04-29T14:33:05Z</time></trkpt><trkpt lat="27.54511708312169" lon="-11.777934283763265"><ele>287.0</ele><time>2026-04-29T14:33:06Z</time></trkpt><trkpt lat="27.544956026137434" lon="-11.778096590351081"><ele>287.0</ele><time>2026-04-29T14:33:07Z</time></trkpt><trkpt lat="27.544796547108273" lon="-11.778260689910358"><ele>287.0</ele><time>2026-04-29T14:33:08Z</time></trkpt><trkpt lat="27.544639210123602" lon="-11.778425094195521"><ele>287.0</ele><time>2026-04-29T14:33:09Z</time></trkpt><trkpt lat="27.544489520418196" lon="-11.778581450496706"><ele>287.0</ele><time>2026-04-29T14:33:10Z</time></trkpt><trkpt lat="27.544341790562665" lon="-11.77874364282072"><ele>287.0</ele><time>2026-04-29T14:33:11Z</time></trkpt><trkpt lat="27.544193740153904" lon="-11.778915564473149"><ele>287.0</ele><time>2026-04-29T14:33:12Z</time></trkpt><trkpt lat="27.54404909931543" lon="-11.779083812621934"><ele>287.0</ele><time>2026-04-29T14:33:13Z</time></trkpt><trkpt lat="27.543905155737153" lon="-11.779253825649114"><ele>287.0</ele><time>2026-04-29T14:33:14Z</time></trkpt><trkpt lat="27.543750946017045" lon="-11.779411278251649"><ele>287.0</ele><time>2026-04-29T14:33:15Z</time></trkpt><trkpt lat="27.54359814436597" lon="-11.779571047488412"><ele>287.0</ele><time>2026-04-29T14:33:16Z</time></trkpt><trkpt lat="27.543448776085295" lon="-11.779726585771387"><ele>287.0</ele><time>2026-04-29T14:33:17Z</time></trkpt><trkpt lat="27.543294550848355" lon="-11.779889161356278"><ele>287.0</ele><time>2026-04-29T14:33:18Z</time></trkpt><trkpt lat="27.54314836420077" lon="-11.780046023155178"><ele>287.0</ele><time>2026-04-29T14:33:19Z</time></trkpt><trkpt lat="27.542985834243336" lon="-11.780217774228419"><ele>287.0</ele><time>2026-04-29T14:33:20Z</time></trkpt><trkpt lat="27.542840865697876" lon="-11.780374465321783"><ele>286.33333333333337</ele><time>2026-04-29T14:33:21Z</time></trkpt><trkpt lat="27.542692461737868" lon="-11.78053258408057"><ele>285.6666666666667</ele><time>2026-04-29T14:33:22Z</time></trkpt><trkpt lat="27.542526944331417" lon="-11.780695333913721"><ele>285.0</ele><time>2026-04-29T14:33:23Z</time></trkpt><trkpt lat="27.542369116273786" lon="-11.780854687545768"><ele>285.0</ele><time>2026-04-29T14:33:24Z</time></trkpt><trkpt lat="27.542211320559904" lon="-11.781013205978253"><ele>285.0</ele><time>2026-04-29T14:33:25Z</time></trkpt><trkpt lat="27.542054284043022" lon="-11.781178955810413"><ele>285.0</ele><time>2026-04-29T14:33:26Z</time></trkpt><trkpt lat="27.541902616925757" lon="-11.781345093287934"><ele>285.3333333333333</ele><time>2026-04-29T14:33:27Z</time></trkpt><trkpt lat="27.54175649943913" lon="-11.781508510648475"><ele>285.66666666666663</ele><time>2026-04-29T14:33:28Z</time></trkpt><trkpt lat="27.54160816665399" lon="-11.781672503078934"><ele>286.0</ele><time>2026-04-29T14:33:29Z</time></trkpt><trkpt lat="27.541460653066355" lon="-11.781830864612141"><ele>286.0</ele><time>2026-04-29T14:33:30Z</time></trkpt><trkpt lat="27.54131405237577" lon="-11.781992224985295"><ele>286.0</ele><time>2026-04-29T14:33:31Z</time></trkpt><trkpt lat="27.541171507341765" lon="-11.78215355595568"><ele>286.0</ele><time>2026-04-29T14:33:32Z</time></trkpt><trkpt lat="27.541023946384136" lon="-11.78231424020745"><ele>286.0</ele><time>2026-04-29T14:33:33Z</time></trkpt><trkpt lat="27.540877887847703" lon="-11.782474840302445"><ele>286.0</ele><time>2026-04-29T14:33:34Z</time></trkpt><trkpt lat="27.540725815937467" lon="-11.782639794449056"><ele>286.0</ele><time>2026-04-29T14:33:35Z</time></trkpt><trkpt lat="27.54058099195055" lon="-11.782812976417832"><ele>286.0</ele><time>2026-04-29T14:33:36Z</time></trkpt><trkpt lat="27.54043624456064" lon="-11.782986564101181"><ele>286.0</ele><time>2026-04-29T14:33:37Z</time></trkpt><trkpt lat="27.540289166981857" lon="-11.78316682862606"><ele>286.0</ele><time>2026-04-29T14:33:38Z</time></trkpt><trkpt lat="27.540143241896168" lon="-11.783344101987181"><ele>286.0</ele><time>2026-04-29T14:33:39Z</time></trkpt><trkpt lat="27.539994822133377" lon="-11.783512165798037"><ele>286.0</ele><time>2026-04-29T14:33:40Z</time></trkpt><trkpt lat="27.53985004462743" lon="-11.783676185834373"><ele>286.0</ele><time>2026-04-29T14:33:41Z</time></trkpt><trkpt lat="27.53970551067945" lon="-11.783835889932696"><ele>285.0</ele><time>2026-04-29T14:33:42Z</time></trkpt><trkpt lat="27.539548977737102" lon="-11.784003000123318"><ele>284.0</ele><time>2026-04-29T14:33:43Z</time></trkpt><trkpt lat="27.539409010546645" lon="-11.78416493898815"><ele>283.0</ele><time>2026-04-29T14:33:44Z</time></trkpt><trkpt lat="27.53926989975696" lon="-11.784331566258047"><ele>283.3333333333333</ele><time>2026-04-29T14:33:45Z</time></trkpt><trkpt lat="27.53913400303281" lon="-11.784502471831921"><ele>283.6666666666667</ele><time>2026-04-29T14:33:46Z</time></trkpt><trkpt lat="27.53901350114221" lon="-11.784671831850481"><ele>284.0</ele><time>2026-04-29T14:33:47Z</time></trkpt><trkpt lat="27.538876555302295" lon="-11.784863557983998"><ele>284.0</ele><time>2026-04-29T14:33:48Z</time></trkpt><trkpt lat="27.538751687206283" lon="-11.785054564435175"><ele>284.0</ele><time>2026-04-29T14:33:49Z</time></trkpt><trkpt lat="27.538626591066272" lon="-11.785259155866921"><ele>284.0</ele><time>2026-04-29T14:33:50Z</time></trkpt><trkpt lat="27.53849726122775" lon="-11.785481543430313"><ele>283.0</ele><time>2026-04-29T14:33:51Z</time></trkpt><trkpt lat="27.538365310136037" lon="-11.785704417996207"><ele>282.0</ele><time>2026-04-29T14:33:52Z</time></trkpt><trkpt lat="27.538246153505074" lon="-11.785889527404843"><ele>281.0</ele><time>2026-04-29T14:33:53Z</time></trkpt><trkpt lat="27.53812308671568" lon="-11.786074419588408"><ele>280.6666666666667</ele><time>2026-04-29T14:33:54Z</time></trkpt><trkpt lat="27.537990557716427" lon="-11.786266747671323"><ele>280.3333333333333</ele><time>2026-04-29T14:33:55Z</time></trkpt><trkpt lat="27.537863939228195" lon="-11.786443408095508"><ele>280.0</ele><time>2026-04-29T14:33:56Z</time></trkpt><trkpt lat="27.537731100773655" lon="-11.786631008117173"><ele>281.3333333333333</ele><time>2026-04-29T14:33:57Z</time></trkpt><trkpt lat="27.537598092140662" lon="-11.786818422961517"><ele>282.6666666666667</ele><time>2026-04-29T14:33:58Z</time></trkpt><trkpt lat="27.537463688559225" lon="-11.787019252779803"><ele>284.0</ele><time>2026-04-29T14:33:59Z</time></trkpt><trkpt lat="27.537330011183418" lon="-11.787213831123438"><ele>284.6666666666667</ele><time>2026-04-29T14:34:00Z</time></trkpt><trkpt lat="27.53719729392285" lon="-11.787403026862782"><ele>285.3333333333333</ele><time>2026-04-29T14:34:01Z</time></trkpt><trkpt lat="27.537061431382607" lon="-11.787592347821924"><ele>286.0</ele><time>2026-04-29T14:34:02Z</time></trkpt><trkpt lat="27.53692935773606" lon="-11.7877843664327"><ele>284.66666666666663</ele><time>2026-04-29T14:34:03Z</time></trkpt><trkpt lat="27.53679330264926" lon="-11.787974511769878"><ele>283.3333333333333</ele><time>2026-04-29T14:34:04Z</time></trkpt><trkpt lat="27.53666182906168" lon="-11.788160718774503"><ele>282.0</ele><time>2026-04-29T14:34:05Z</time></trkpt><trkpt lat="27.53652474388127" lon="-11.788337117913827"><ele>281.6666666666667</ele><time>2026-04-29T14:34:06Z</time></trkpt><trkpt lat="27.536382038722667" lon="-11.788519394049501"><ele>281.33333333333337</ele><time>2026-04-29T14:34:07Z</time></trkpt><trkpt lat="27.536234947308273" lon="-11.788700813286969"><ele>281.0</ele><time>2026-04-29T14:34:08Z</time></trkpt><trkpt lat="27.536091861387938" lon="-11.78887689634401"><ele>281.6666666666667</ele><time>2026-04-29T14:34:09Z</time></trkpt><trkpt lat="27.535945957645282" lon="-11.789048114755788"><ele>282.3333333333333</ele><time>2026-04-29T14:34:10Z</time></trkpt><trkpt lat="27.535793105867477" lon="-11.789231697134646"><ele>283.0</ele><time>2026-04-29T14:34:11Z</time></trkpt><trkpt lat="27.53564352386295" lon="-11.789407463763908"><ele>283.66666666666663</ele><time>2026-04-29T14:34:12Z</time></trkpt><trkpt lat="27.53549763746281" lon="-11.789577117430747"><ele>284.3333333333333</ele><time>2026-04-29T14:34:13Z</time></trkpt><trkpt lat="27.53535313442039" lon="-11.78974947363098"><ele>285.0</ele><time>2026-04-29T14:34:14Z</time></trkpt><trkpt lat="27.535210941093453" lon="-11.789929723751273"><ele>285.3333333333333</ele><time>2026-04-29T14:34:15Z</time></trkpt><trkpt lat="27.535070329396326" lon="-11.790103044389594"><ele>285.66666666666663</ele><time>2026-04-29T14:34:16Z</time></trkpt><trkpt lat="27.534937014790252" lon="-11.790264123934985"><ele>286.0</ele><time>2026-04-29T14:34:17Z</time></trkpt><trkpt lat="27.534798272010267" lon="-11.790424231352407"><ele>285.66666666666663</ele><time>2026-04-29T14:34:18Z</time></trkpt><trkpt lat="27.534665807498822" lon="-11.790591742410395"><ele>285.3333333333333</ele><time>2026-04-29T14:34:19Z</time></trkpt><trkpt lat="27.53453354621743" lon="-11.790758986504985"><ele>285.0</ele><time>2026-04-29T14:34:20Z</time></trkpt><trkpt lat="27.53440515306432" lon="-11.790928871413797"><ele>284.0</ele><time>2026-04-29T14:34:21Z</time></trkpt><trkpt lat="27.534280556213528" lon="-11.791095636035337"><ele>283.0</ele><time>2026-04-29T14:34:22Z</time></trkpt><trkpt lat="27.534145082342476" lon="-11.791280113316649"><ele>282.0</ele><time>2026-04-29T14:34:23Z</time></trkpt><trkpt lat="27.534011945796554" lon="-11.791461921290528"><ele>282.0</ele><time>2026-04-29T14:34:24Z</time></trkpt><trkpt lat="27.53387927302932" lon="-11.791650069654628"><ele>282.0</ele><time>2026-04-29T14:34:25Z</time></trkpt><trkpt lat="27.533754682191688" lon="-11.791826468427962"><ele>282.0</ele><time>2026-04-29T14:34:26Z</time></trkpt><trkpt lat="27.53362497188301" lon="-11.792016063855522"><ele>282.6666666666667</ele><time>2026-04-29T14:34:27Z</time></trkpt><trkpt lat="27.533495519238198" lon="-11.79220444174018"><ele>283.33333333333337</ele><time>2026-04-29T14:34:28Z</time></trkpt><trkpt lat="27.53338010990159" lon="-11.79237515205004"><ele>284.0</ele><time>2026-04-29T14:34:29Z</time></trkpt><trkpt lat="27.53326646875201" lon="-11.792533254341446"><ele>284.0</ele><time>2026-04-29T14:34:30Z</time></trkpt><trkpt lat="27.53313822529468" lon="-11.79268687209929"><ele>284.0</ele><time>2026-04-29T14:34:31Z</time></trkpt><trkpt lat="27.532969390998833" lon="-11.792862361387552"><ele>284.0</ele><time>2026-04-29T14:34:32Z</time></trkpt><trkpt lat="27.53286513679455" lon="-11.793175072509767"><ele>284.0</ele><time>2026-04-29T14:34:33Z</time></trkpt><trkpt lat="27.532667539997256" lon="-11.793356954462926"><ele>284.0</ele><time>2026-04-29T14:34:34Z</time></trkpt><trkpt lat="27.53249053031627" lon="-11.793520314452246"><ele>283.6666666666667</ele><time>2026-04-29T14:34:35Z</time></trkpt><trkpt lat="27.53232691950469" lon="-11.793671308740315"><ele>283.3333333333333</ele><time>2026-04-29T14:34:36Z</time></trkpt><trkpt lat="27.532173658977744" lon="-11.793812111265092"><ele>283.0</ele><time>2026-04-29T14:34:37Z</time></trkpt><trkpt lat="27.53203755555654" lon="-11.79394848788166"><ele>282.66666666666663</ele><time>2026-04-29T14:34:38Z</time></trkpt><trkpt lat="27.531911991714196" lon="-11.794147456906716"><ele>282.3333333333333</ele><time>2026-04-29T14:34:39Z</time></trkpt><trkpt lat="27.531794760845518" lon="-11.794333221483377"><ele>282.0</ele><time>2026-04-29T14:34:40Z</time></trkpt><trkpt lat="27.531675155786026" lon="-11.794522448454456"><ele>282.6666666666667</ele><time>2026-04-29T14:34:41Z</time></trkpt><trkpt lat="27.53156344965727" lon="-11.79469912021824"><ele>283.33333333333337</ele><time>2026-04-29T14:34:42Z</time></trkpt><trkpt lat="27.531461590356272" lon="-11.79486021843187"><ele>284.0</ele><time>2026-04-29T14:34:43Z</time></trkpt><trkpt lat="27.531361563988305" lon="-11.795017951929832"><ele>283.33333333333337</ele><time>2026-04-29T14:34:44Z</time></trkpt><trkpt lat="27.53125913776698" lon="-11.79517948943085"><ele>282.6666666666667</ele><time>2026-04-29T14:34:45Z</time></trkpt><trkpt lat="27.531162026118956" lon="-11.795333416803906"><ele>282.0</ele><time>2026-04-29T14:34:46Z</time></trkpt><trkpt lat="27.531069159861012" lon="-11.79548061501456"><ele>282.0</ele><time>2026-04-29T14:34:47Z</time></trkpt><trkpt lat="27.530978452588233" lon="-11.795624391065736"><ele>282.0</ele><time>2026-04-29T14:34:48Z</time></trkpt><trkpt lat="27.53089528126649" lon="-11.795756222276477"><ele>282.0</ele><time>2026-04-29T14:34:49Z</time></trkpt><trkpt lat="27.53082401615051" lon="-11.795869181410259"><ele>282.0</ele><time>2026-04-29T14:34:50Z</time></trkpt><trkpt lat="27.530757843539416" lon="-11.795974068676259"><ele>282.1666666666667</ele><time>2026-04-29T14:34:51Z</time></trkpt><trkpt lat="27.530685804853277" lon="-11.79608707262776"><ele>282.3333333333333</ele><time>2026-04-29T14:34:52Z</time></trkpt><trkpt lat="27.53062459102999" lon="-11.79615750896307"><ele>282.5</ele><time>2026-04-29T14:34:53Z</time></trkpt><trkpt lat="27.530566224008172" lon="-11.796224669669433"><ele>282.66666666666663</ele><time>2026-04-29T14:34:54Z</time></trkpt><trkpt lat="27.53051829671809" lon="-11.796279817776663"><ele>282.8333333333333</ele><time>2026-04-29T14:34:55Z</time></trkpt><trkpt lat="27.53046186489357" lon="-11.796344751709716"><ele>283.0</ele><time>2026-04-29T14:34:57Z</time></trkpt><trkpt lat="27.53037581506347" lon="-11.796443683785354"><ele>283.2</ele><time>2026-04-29T14:39:05Z</time></trkpt><trkpt lat="27.530317458521786" lon="-11.79651076765898"><ele>283.4</ele><time>2026-04-29T14:39:06Z</time></trkpt><trkpt lat="27.5302516069277" lon="-11.796586467477269"><ele>283.59999999999997</ele><time>2026-04-29T14:39:07Z</time></trkpt><trkpt lat="27.53018230732206" lon="-11.796666130957718"><ele>283.8</ele><time>2026-04-29T14:39:08Z</time></trkpt><trkpt lat="27.53010933125773" lon="-11.796750020711604"><ele>284.0</ele><time>2026-04-29T14:39:09Z</time></trkpt><trkpt lat="27.53001811423725" lon="-11.796854879396513"><ele>284.0</ele><time>2026-04-29T14:39:10Z</time></trkpt><trkpt lat="27.529911167063428" lon="-11.796977820716945"><ele>284.0</ele><time>2026-04-29T14:39:11Z</time></trkpt><trkpt lat="27.529791178241176" lon="-11.797115754062707"><ele>284.0</ele><time>2026-04-29T14:39:12Z</time></trkpt><trkpt lat="27.52966008302058" lon="-11.797266331431702"><ele>282.6666666666667</ele><time>2026-04-29T14:39:13Z</time></trkpt><trkpt lat="27.529520804159464" lon="-11.797426118875135"><ele>281.3333333333333</ele><time>2026-04-29T14:39:14Z</time></trkpt><trkpt lat="27.529380150006943" lon="-11.797587484086417"><ele>280.0</ele><time>2026-04-29T14:39:15Z</time></trkpt><trkpt lat="27.529233792655553" lon="-11.7977553922895"><ele>280.0</ele><time>2026-04-29T14:39:16Z</time></trkpt><trkpt lat="27.52909233432713" lon="-11.797917680102353"><ele>280.0</ele><time>2026-04-29T14:39:17Z</time></trkpt><trkpt lat="27.5289455089824" lon="-11.798086125212679"><ele>280.0</ele><time>2026-04-29T14:39:18Z</time></trkpt><trkpt lat="27.5288044955575" lon="-11.798248225904446"><ele>280.3333333333333</ele><time>2026-04-29T14:39:19Z</time></trkpt><trkpt lat="27.528677629417224" lon="-11.798393741474564"><ele>280.6666666666667</ele><time>2026-04-29T14:39:20Z</time></trkpt><trkpt lat="27.528595963430607" lon="-11.798498529269223"><ele>281.0</ele><time>2026-04-29T14:39:21Z</time></trkpt><trkpt lat="27.528501729818696" lon="-11.798637700337117"><ele>281.0</ele><time>2026-04-29T14:39:22Z</time></trkpt><trkpt lat="27.528418846629744" lon="-11.798760119359612"><ele>281.0</ele><time>2026-04-29T14:39:23Z</time></trkpt><trkpt lat="27.528336488064483" lon="-11.798881697058135"><ele>281.0</ele><time>2026-04-29T14:39:24Z</time></trkpt><trkpt lat="27.528254852096385" lon="-11.799001666428737"><ele>281.0</ele><time>2026-04-29T14:39:25Z</time></trkpt><trkpt lat="27.52815677119038" lon="-11.799146061608196"><ele>281.0</ele><time>2026-04-29T14:39:26Z</time></trkpt><trkpt lat="27.528057201132505" lon="-11.799293927566483"><ele>281.0</ele><time>2026-04-29T14:39:27Z</time></trkpt><trkpt lat="27.52793401072495" lon="-11.799475798229478"><ele>281.0</ele><time>2026-04-29T14:39:28Z</time></trkpt><trkpt lat="27.527806531938246" lon="-11.79966368588731"><ele>280.6666666666667</ele><time>2026-04-29T14:39:29Z</time></trkpt><trkpt lat="27.527689712831723" lon="-11.799835201295098"><ele>280.3333333333333</ele><time>2026-04-29T14:39:30Z</time></trkpt><trkpt lat="27.52755755997604" lon="-11.800030208291227"><ele>280.0</ele><time>2026-04-29T14:39:31Z</time></trkpt><trkpt lat="27.52742001364059" lon="-11.80023354631054"><ele>279.66666666666663</ele><time>2026-04-29T14:39:32Z</time></trkpt><trkpt lat="27.527288042758368" lon="-11.800429082791538"><ele>279.3333333333333</ele><time>2026-04-29T14:39:33Z</time></trkpt><trkpt lat="27.527159952818742" lon="-11.80061785303756"><ele>279.0</ele><time>2026-04-29T14:39:34Z</time></trkpt><trkpt lat="27.527024475779772" lon="-11.800818030104889"><ele>279.0</ele><time>2026-04-29T14:39:35Z</time></trkpt><trkpt lat="27.526897351342246" lon="-11.801005565729346"><ele>279.0</ele><time>2026-04-29T14:39:36Z</time></trkpt><trkpt lat="27.52675702216055" lon="-11.801211184359332"><ele>279.0</ele><time>2026-04-29T14:39:37Z</time></trkpt><trkpt lat="27.526625206433682" lon="-11.80140520023067"><ele>279.0</ele><time>2026-04-29T14:39:38Z</time></trkpt><trkpt lat="27.526496373737682" lon="-11.801596456239427"><ele>279.0</ele><time>2026-04-29T14:39:39Z</time></trkpt><trkpt lat="27.52635537687388" lon="-11.80180492527855"><ele>279.0</ele><time>2026-04-29T14:39:40Z</time></trkpt><trkpt lat="27.526210060339558" lon="-11.802019781151476"><ele>279.5</ele><time>2026-04-29T14:39:41Z</time></trkpt><trkpt lat="27.525989773517622" lon="-11.802282147971706"><ele>280.0</ele><time>2026-04-29T14:39:42Z</time></trkpt><trkpt lat="27.52580923725039" lon="-11.802445685700702"><ele>280.0</ele><time>2026-04-29T14:39:43Z</time></trkpt><trkpt lat="27.52561531726777" lon="-11.802621487477534"><ele>280.0</ele><time>2026-04-29T14:39:44Z</time></trkpt><trkpt lat="27.52543010784468" lon="-11.80278960883078"><ele>281.0</ele><time>2026-04-29T14:39:45Z</time></trkpt><trkpt lat="27.52523902305444" lon="-11.802963063395087"><ele>282.0</ele><time>2026-04-29T14:39:46Z</time></trkpt><trkpt lat="27.525064758112187" lon="-11.803121250033728"><ele>282.0</ele><time>2026-04-29T14:39:47Z</time></trkpt><trkpt lat="27.524880649130004" lon="-11.803288372388307"><ele>282.0</ele><time>2026-04-29T14:39:48Z</time></trkpt><trkpt lat="27.52470202584291" lon="-11.803451573177867"><ele>280.5</ele><time>2026-04-29T14:39:49Z</time></trkpt><trkpt lat="27.524526027580073" lon="-11.803611193387233"><ele>279.0</ele><time>2026-04-29T14:39:50Z</time></trkpt><trkpt lat="27.52434958670203" lon="-11.803771165979963"><ele>279.0</ele><time>2026-04-29T14:39:51Z</time></trkpt><trkpt lat="27.524177719056475" lon="-11.80392688785185"><ele>279.0</ele><time>2026-04-29T14:39:52Z</time></trkpt><trkpt lat="27.524000431309197" lon="-11.804088892412798"><ele>279.0</ele><time>2026-04-29T14:39:53Z</time></trkpt><trkpt lat="27.523786243063633" lon="-11.804273479693913"><ele>279.5</ele><time>2026-04-29T14:39:54Z</time></trkpt><trkpt lat="27.523592420967177" lon="-11.804423608315524"><ele>280.0</ele><time>2026-04-29T14:39:55Z</time></trkpt><trkpt lat="27.52339137316324" lon="-11.804579460613775"><ele>280.0</ele><time>2026-04-29T14:39:56Z</time></trkpt><trkpt lat="27.52319176751714" lon="-11.804733830177911"><ele>280.0</ele><time>2026-04-29T14:39:57Z</time></trkpt><trkpt lat="27.52299775403656" lon="-11.804883657760474"><ele>280.0</ele><time>2026-04-29T14:39:58Z</time></trkpt><trkpt lat="27.522793739433762" lon="-11.805042248736031"><ele>280.0</ele><time>2026-04-29T14:39:59Z</time></trkpt><trkpt lat="27.522585027922442" lon="-11.805203614333776"><ele>280.0</ele><time>2026-04-29T14:40:00Z</time></trkpt><trkpt lat="27.522384560994873" lon="-11.805358443110991"><ele>280.0</ele><time>2026-04-29T14:40:01Z</time></trkpt><trkpt lat="27.52218837493355" lon="-11.805510323621629"><ele>280.0</ele><time>2026-04-29T14:40:02Z</time></trkpt><trkpt lat="27.521976395668602" lon="-11.80567452828925"><ele>280.0</ele><time>2026-04-29T14:40:03Z</time></trkpt><trkpt lat="27.52176277422222" lon="-11.80584035159579"><ele>278.5</ele><time>2026-04-29T14:40:04Z</time></trkpt><trkpt lat="27.521544303975283" lon="-11.806009209334425"><ele>277.0</ele><time>2026-04-29T14:40:05Z</time></trkpt><trkpt lat="27.521327764781017" lon="-11.806176574543887"><ele>277.0</ele><time>2026-04-29T14:40:06Z</time></trkpt><trkpt lat="27.521116572894737" lon="-11.806339806769584"><ele>277.0</ele><time>2026-04-29T14:40:07Z</time></trkpt><trkpt lat="27.520908340984167" lon="-11.806501968435581"><ele>277.0</ele><time>2026-04-29T14:40:08Z</time></trkpt><trkpt lat="27.52070076917429" lon="-11.806663232681565"><ele>277.0</ele><time>2026-04-29T14:40:09Z</time></trkpt><trkpt lat="27.52049419889575" lon="-11.806822578192946"><ele>278.5</ele><time>2026-04-29T14:40:10Z</time></trkpt><trkpt lat="27.52030360528289" lon="-11.806969599512128"><ele>280.0</ele><time>2026-04-29T14:40:11Z</time></trkpt><trkpt lat="27.520112103473636" lon="-11.807117709600034"><ele>280.0</ele><time>2026-04-29T14:40:12Z</time></trkpt><trkpt lat="27.519944379916126" lon="-11.807250497352573"><ele>280.0</ele><time>2026-04-29T14:40:13Z</time></trkpt><trkpt lat="27.51975437732626" lon="-11.807412891357163"><ele>280.0</ele><time>2026-04-29T14:40:14Z</time></trkpt><trkpt lat="27.51957480743487" lon="-11.807566463057594"><ele>280.3333333333333</ele><time>2026-04-29T14:40:15Z</time></trkpt><trkpt lat="27.51939555999185" lon="-11.80771970236351"><ele>280.6666666666667</ele><time>2026-04-29T14:40:16Z</time></trkpt><trkpt lat="27.51923726006701" lon="-11.80785488055223"><ele>281.0</ele><time>2026-04-29T14:40:17Z</time></trkpt><trkpt lat="27.51907527826809" lon="-11.807993308968925"><ele>281.0</ele><time>2026-04-29T14:40:18Z</time></trkpt><trkpt lat="27.51891123647188" lon="-11.808133571393105"><ele>281.0</ele><time>2026-04-29T14:40:19Z</time></trkpt><trkpt lat="27.518743605751922" lon="-11.808277190449585"><ele>281.0</ele><time>2026-04-29T14:40:20Z</time></trkpt><trkpt lat="27.51857317786178" lon="-11.808422522267048"><ele>280.0</ele><time>2026-04-29T14:40:21Z</time></trkpt><trkpt lat="27.51842273588876" lon="-11.808550938342863"><ele>279.0</ele><time>2026-04-29T14:40:22Z</time></trkpt><trkpt lat="27.51826706193658" lon="-11.808684170439925"><ele>278.0</ele><time>2026-04-29T14:40:23Z</time></trkpt><trkpt lat="27.518106990417127" lon="-11.808820807335078"><ele>278.0</ele><time>2026-04-29T14:40:24Z</time></trkpt><trkpt lat="27.517943721533246" lon="-11.808960116216904"><ele>278.0</ele><time>2026-04-29T14:40:25Z</time></trkpt><trkpt lat="27.51778125557918" lon="-11.80909873994722"><ele>278.0</ele><time>2026-04-29T14:40:26Z</time></trkpt><trkpt lat="27.51761327123043" lon="-11.809242072236694"><ele>276.5</ele><time>2026-04-29T14:40:27Z</time></trkpt><trkpt lat="27.51742402143843" lon="-11.80938832086069"><ele>275.0</ele><time>2026-04-29T14:40:28Z</time></trkpt><trkpt lat="27.51712792281063" lon="-11.809406380298912"><ele>276.5</ele><time>2026-04-29T14:40:29Z</time></trkpt><trkpt lat="27.516947682605153" lon="-11.809599911285801"><ele>278.0</ele><time>2026-04-29T14:40:30Z</time></trkpt><trkpt lat="27.516766833562272" lon="-11.8097758235221"><ele>278.0</ele><time>2026-04-29T14:40:31Z</time></trkpt><trkpt lat="27.51658077400571" lon="-11.809943152109229"><ele>278.0</ele><time>2026-04-29T14:40:32Z</time></trkpt><trkpt lat="27.516401441644355" lon="-11.810099956025597"><ele>277.6666666666667</ele><time>2026-04-29T14:40:33Z</time></trkpt><trkpt lat="27.51622681548722" lon="-11.810243885867822"><ele>277.3333333333333</ele><time>2026-04-29T14:40:34Z</time></trkpt><trkpt lat="27.51606166854507" lon="-11.810386049498627"><ele>277.0</ele><time>2026-04-29T14:40:35Z</time></trkpt><trkpt lat="27.51590859814163" lon="-11.810520801334945"><ele>277.0</ele><time>2026-04-29T14:40:36Z</time></trkpt><trkpt lat="27.51576683504489" lon="-11.810641398732741"><ele>277.0</ele><time>2026-04-29T14:40:37Z</time></trkpt><trkpt lat="27.5156243761217" lon="-11.810760089074858"><ele>277.0</ele><time>2026-04-29T14:40:38Z</time></trkpt><trkpt lat="27.515488575555878" lon="-11.810884121860346"><ele>276.3333333333333</ele><time>2026-04-29T14:40:39Z</time></trkpt><trkpt lat="27.515361379356104" lon="-11.81100912651014"><ele>275.6666666666667</ele><time>2026-04-29T14:40:40Z</time></trkpt><trkpt lat="27.515244441996398" lon="-11.811125990248138"><ele>275.0</ele><time>2026-04-29T14:40:41Z</time></trkpt><trkpt lat="27.51514114055174" lon="-11.81123317139217"><ele>275.0</ele><time>2026-04-29T14:40:42Z</time></trkpt><trkpt lat="27.515045633996582" lon="-11.811334578688172"><ele>275.0</ele><time>2026-04-29T14:40:43Z</time></trkpt><trkpt lat="27.51495584926418" lon="-11.811428228697222"><ele>275.0</ele><time>2026-04-29T14:40:44Z</time></trkpt><trkpt lat="27.51487546935655" lon="-11.81151083950594"><ele>275.0</ele><time>2026-04-29T14:40:45Z</time></trkpt><trkpt lat="27.514805533654016" lon="-11.81158301110114"><ele>275.0</ele><time>2026-04-29T14:40:46Z</time></trkpt><trkpt lat="27.514742815865866" lon="-11.811647656738"><ele>275.0</ele><time>2026-04-29T14:40:47Z</time></trkpt><trkpt lat="27.514697851011043" lon="-11.811702933213862"><ele>275.0</ele><time>2026-04-29T14:40:48Z</time></trkpt><trkpt lat="27.514633812103234" lon="-11.811764269248533"><ele>275.0</ele><time>2026-04-29T14:40:50Z</time></trkpt><trkpt lat="27.51457881029682" lon="-11.811813992507169"><ele>275.0</ele><time>2026-04-29T14:41:08Z</time></trkpt><trkpt lat="27.514526604552554" lon="-11.811861288777216"><ele>275.0</ele><time>2026-04-29T14:41:10Z</time></trkpt><trkpt lat="27.514435122469816" lon="-11.811961251546204"><ele>275.2</ele><time>2026-04-29T14:41:12Z</time></trkpt><trkpt lat="27.514373951472145" lon="-11.81202305537175"><ele>275.4</ele><time>2026-04-29T14:41:13Z</time></trkpt><trkpt lat="27.514292968756227" lon="-11.812098798499214"><ele>275.6</ele><time>2026-04-29T14:41:14Z</time></trkpt><trkpt lat="27.514192825515035" lon="-11.812189112516943"><ele>275.8</ele><time>2026-04-29T14:41:15Z</time></trkpt><trkpt lat="27.514093066670288" lon="-11.81228141407315"><ele>276.0</ele><time>2026-04-29T14:41:16Z</time></trkpt><trkpt lat="27.5139805397093" lon="-11.812389245724631"><ele>276.0</ele><time>2026-04-29T14:41:17Z</time></trkpt><trkpt lat="27.5138516470589" lon="-11.81250894801788"><ele>276.0</ele><time>2026-04-29T14:41:18Z</time></trkpt><trkpt lat="27.513716590832377" lon="-11.812633942997813"><ele>276.0</ele><time>2026-04-29T14:41:19Z</time></trkpt><trkpt lat="27.51355994214645" lon="-11.812775180410313"><ele>276.3333333333333</ele><time>2026-04-29T14:41:20Z</time></trkpt><trkpt lat="27.51340094318254" lon="-11.812915731455822"><ele>276.66666666666663</ele><time>2026-04-29T14:41:21Z</time></trkpt><trkpt lat="27.51323504993087" lon="-11.813062556791433"><ele>277.0</ele><time>2026-04-29T14:41:22Z</time></trkpt><trkpt lat="27.513067279307677" lon="-11.813209362645479"><ele>277.66666666666663</ele><time>2026-04-29T14:41:23Z</time></trkpt><trkpt lat="27.512892356600638" lon="-11.81336055799412"><ele>278.3333333333333</ele><time>2026-04-29T14:41:24Z</time></trkpt><trkpt lat="27.512720344178312" lon="-11.813505705662696"><ele>279.0</ele><time>2026-04-29T14:41:25Z</time></trkpt><trkpt lat="27.512547390491314" lon="-11.813649370629408"><ele>279.0</ele><time>2026-04-29T14:41:26Z</time></trkpt><trkpt lat="27.5123757556053" lon="-11.813793300002432"><ele>279.0</ele><time>2026-04-29T14:41:27Z</time></trkpt><trkpt lat="27.512208765206452" lon="-11.813928181540833"><ele>279.0</ele><time>2026-04-29T14:41:28Z</time></trkpt><trkpt lat="27.51204815640796" lon="-11.814061301253833"><ele>279.0</ele><time>2026-04-29T14:41:29Z</time></trkpt><trkpt lat="27.511886579138686" lon="-11.814195843922992"><ele>279.0</ele><time>2026-04-29T14:41:30Z</time></trkpt><trkpt lat="27.511721637606026" lon="-11.814331917330806"><ele>279.0</ele><time>2026-04-29T14:41:31Z</time></trkpt><trkpt lat="27.511558739466057" lon="-11.814468943415225"><ele>278.6666666666667</ele><time>2026-04-29T14:41:32Z</time></trkpt><trkpt lat="27.511393644530244" lon="-11.81460583605597"><ele>278.33333333333337</ele><time>2026-04-29T14:41:33Z</time></trkpt><trkpt lat="27.511230328334328" lon="-11.814746241930651"><ele>278.0</ele><time>2026-04-29T14:41:34Z</time></trkpt><trkpt lat="27.511066463868335" lon="-11.814889449655277"><ele>278.0</ele><time>2026-04-29T14:41:35Z</time></trkpt><trkpt lat="27.510896262368167" lon="-11.8150394947695"><ele>278.0</ele><time>2026-04-29T14:41:36Z</time></trkpt><trkpt lat="27.510806804976486" lon="-11.815286138268663"><ele>278.0</ele><time>2026-04-29T14:41:37Z</time></trkpt><trkpt lat="27.510659961447427" lon="-11.815428192662903"><ele>278.0</ele><time>2026-04-29T14:41:38Z</time></trkpt><trkpt lat="27.510511476057133" lon="-11.815571835361967"><ele>278.0</ele><time>2026-04-29T14:41:39Z</time></trkpt><trkpt lat="27.51036027451393" lon="-11.8157178846425"><ele>277.0</ele><time>2026-04-29T14:41:40Z</time></trkpt><trkpt lat="27.510209271947705" lon="-11.8158637035002"><ele>276.0</ele><time>2026-04-29T14:41:41Z</time></trkpt><trkpt lat="27.51005885117085" lon="-11.816008960470453"><ele>275.0</ele><time>2026-04-29T14:41:42Z</time></trkpt><trkpt lat="27.50992208812359" lon="-11.816141178729916"><ele>273.6666666666667</ele><time>2026-04-29T14:41:43Z</time></trkpt><trkpt lat="27.509768568887672" lon="-11.816290595469436"><ele>272.3333333333333</ele><time>2026-04-29T14:41:44Z</time></trkpt><trkpt lat="27.509621878638725" lon="-11.816432147112952"><ele>271.0</ele><time>2026-04-29T14:41:45Z</time></trkpt><trkpt lat="27.509481563019353" lon="-11.816567622122925"><ele>271.0</ele><time>2026-04-29T14:41:46Z</time></trkpt><trkpt lat="27.509344533236003" lon="-11.816699957960116"><ele>271.0</ele><time>2026-04-29T14:41:47Z</time></trkpt><trkpt lat="27.50920369825431" lon="-11.816836202739768"><ele>271.0</ele><time>2026-04-29T14:41:48Z</time></trkpt><trkpt lat="27.50906811822966" lon="-11.816967430652062"><ele>273.0</ele><time>2026-04-29T14:41:49Z</time></trkpt><trkpt lat="27.508930202892458" lon="-11.817101069600742"><ele>275.0</ele><time>2026-04-29T14:41:50Z</time></trkpt><trkpt lat="27.508787185569602" lon="-11.817239509642766"><ele>277.0</ele><time>2026-04-29T14:41:51Z</time></trkpt><trkpt lat="27.50865059490862" lon="-11.81737149747296"><ele>277.0</ele><time>2026-04-29T14:41:52Z</time></trkpt><trkpt lat="27.50850990662973" lon="-11.817507444892778"><ele>277.0</ele><time>2026-04-29T14:41:53Z</time></trkpt><trkpt lat="27.508365214759788" lon="-11.817647260944947"><ele>277.0</ele><time>2026-04-29T14:41:54Z</time></trkpt><trkpt lat="27.50821960023522" lon="-11.81778799183639"><ele>277.0</ele><time>2026-04-29T14:41:55Z</time></trkpt><trkpt lat="27.508081537313235" lon="-11.817921453839443"><ele>277.0</ele><time>2026-04-29T14:41:56Z</time></trkpt><trkpt lat="27.50793804288254" lon="-11.818060166179555"><ele>277.0</ele><time>2026-04-29T14:41:57Z</time></trkpt><trkpt lat="27.507776587282258" lon="-11.818196005285538"><ele>276.0</ele><time>2026-04-29T14:41:58Z</time></trkpt><trkpt lat="27.507615773482378" lon="-11.818371695777202"><ele>275.0</ele><time>2026-04-29T14:41:59Z</time></trkpt><trkpt lat="27.507437691890356" lon="-11.818543842663633"><ele>275.0</ele><time>2026-04-29T14:42:00Z</time></trkpt><trkpt lat="27.50725049947453" lon="-11.818724345967837"><ele>275.0</ele><time>2026-04-29T14:42:01Z</time></trkpt><trkpt lat="27.507050002618385" lon="-11.818917611890376"><ele>276.0</ele><time>2026-04-29T14:42:02Z</time></trkpt><trkpt lat="27.506845678094965" lon="-11.819116564255392"><ele>277.0</ele><time>2026-04-29T14:42:03Z</time></trkpt><trkpt lat="27.506665741544168" lon="-11.819320015519212"><ele>277.0</ele><time>2026-04-29T14:42:04Z</time></trkpt><trkpt lat="27.506473767456463" lon="-11.81953707750288"><ele>277.0</ele><time>2026-04-29T14:42:05Z</time></trkpt><trkpt lat="27.50629830513993" lon="-11.81973600384584"><ele>277.5</ele><time>2026-04-29T14:42:06Z</time></trkpt><trkpt lat="27.506121483819193" lon="-11.819935800469398"><ele>278.0</ele><time>2026-04-29T14:42:07Z</time></trkpt><trkpt lat="27.505945830297577" lon="-11.820133840781699"><ele>276.0</ele><time>2026-04-29T14:42:08Z</time></trkpt><trkpt lat="27.505776504916163" lon="-11.820325602047168"><ele>274.0</ele><time>2026-04-29T14:42:09Z</time></trkpt><trkpt lat="27.50559569082834" lon="-11.82053059977409"><ele>274.0</ele><time>2026-04-29T14:42:10Z</time></trkpt><trkpt lat="27.50541332640887" lon="-11.820742636662205"><ele>274.0</ele><time>2026-04-29T14:42:11Z</time></trkpt><trkpt lat="27.505230057043917" lon="-11.820944739743958"><ele>274.66666666666663</ele><time>2026-04-29T14:42:12Z</time></trkpt><trkpt lat="27.50506945675985" lon="-11.82112588967547"><ele>275.3333333333333</ele><time>2026-04-29T14:42:13Z</time></trkpt><trkpt lat="27.504916404846085" lon="-11.821299740091725"><ele>276.0</ele><time>2026-04-29T14:42:14Z</time></trkpt><trkpt lat="27.50477152029613" lon="-11.821463053102967"><ele>276.0</ele><time>2026-04-29T14:42:15Z</time></trkpt><trkpt lat="27.504622278621774" lon="-11.821631372945308"><ele>276.0</ele><time>2026-04-29T14:42:16Z</time></trkpt><trkpt lat="27.504480232942065" lon="-11.821792647027115"><ele>276.0</ele><time>2026-04-29T14:42:17Z</time></trkpt><trkpt lat="27.504340645351462" lon="-11.821950733200532"><ele>277.0</ele><time>2026-04-29T14:42:18Z</time></trkpt><trkpt lat="27.504167056174854" lon="-11.822150562819411"><ele>278.0</ele><time>2026-04-29T14:42:19Z</time></trkpt><trkpt lat="27.503996419753843" lon="-11.82228927657386"><ele>278.0</ele><time>2026-04-29T14:42:20Z</time></trkpt><trkpt lat="27.50382576357956" lon="-11.822428006150583"><ele>278.0</ele><time>2026-04-29T14:42:21Z</time></trkpt><trkpt lat="27.503655939312626" lon="-11.822566059483588"><ele>278.0</ele><time>2026-04-29T14:42:22Z</time></trkpt><trkpt lat="27.503470665061503" lon="-11.8227167918227"><ele>277.6666666666667</ele><time>2026-04-29T14:42:23Z</time></trkpt><trkpt lat="27.503292568688845" lon="-11.822861808270007"><ele>277.3333333333333</ele><time>2026-04-29T14:42:24Z</time></trkpt><trkpt lat="27.503115570689694" lon="-11.823005012296106"><ele>277.0</ele><time>2026-04-29T14:42:25Z</time></trkpt><trkpt lat="27.50294096831321" lon="-11.823146423065296"><ele>277.0</ele><time>2026-04-29T14:42:26Z</time></trkpt><trkpt lat="27.502754279720335" lon="-11.823298231412899"><ele>277.0</ele><time>2026-04-29T14:42:27Z</time></trkpt><trkpt lat="27.502563635911283" lon="-11.823453429724626"><ele>278.5</ele><time>2026-04-29T14:42:28Z</time></trkpt><trkpt lat="27.502368992048492" lon="-11.823611884380522"><ele>280.0</ele><time>2026-04-29T14:42:29Z</time></trkpt><trkpt lat="27.50217837956714" lon="-11.823766409459937"><ele>277.5</ele><time>2026-04-29T14:42:30Z</time></trkpt><trkpt lat="27.501988734275706" lon="-11.823920577994379"><ele>275.0</ele><time>2026-04-29T14:42:31Z</time></trkpt><trkpt lat="27.50180661327124" lon="-11.824068872063082"><ele>275.0</ele><time>2026-04-29T14:42:32Z</time></trkpt><trkpt lat="27.50161736376234" lon="-11.824223068804159"><ele>275.0</ele><time>2026-04-29T14:42:33Z</time></trkpt><trkpt lat="27.50142356151575" lon="-11.824380195851129"><ele>278.5</ele><time>2026-04-29T14:42:34Z</time></trkpt><trkpt lat="27.50123599732359" lon="-11.824533269027173"><ele>282.0</ele><time>2026-04-29T14:42:35Z</time></trkpt><trkpt lat="27.50104615081021" lon="-11.824700198143695"><ele>282.0</ele><time>2026-04-29T14:42:36Z</time></trkpt><trkpt lat="27.5008406839688" lon="-11.824882229477506"><ele>282.0</ele><time>2026-04-29T14:42:37Z</time></trkpt><trkpt lat="27.500626190241732" lon="-11.82507262065414"><ele>281.5</ele><time>2026-04-29T14:42:38Z</time></trkpt><trkpt lat="27.500416674797712" lon="-11.825258585653094"><ele>281.0</ele><time>2026-04-29T14:42:39Z</time></trkpt><trkpt lat="27.50021528891338" lon="-11.82543733499201"><ele>277.5</ele><time>2026-04-29T14:42:40Z</time></trkpt><trkpt lat="27.500015286648203" lon="-11.825614856343648"><ele>274.0</ele><time>2026-04-29T14:42:41Z</time></trkpt><trkpt lat="27.499811211991446" lon="-11.825795991866247"><ele>273.5</ele><time>2026-04-29T14:42:42Z</time></trkpt><trkpt lat="27.49960530276388" lon="-11.825978756023414"><ele>273.0</ele><time>2026-04-29T14:42:43Z</time></trkpt><trkpt lat="27.49938184733765" lon="-11.826176722825783"><ele>273.0</ele><time>2026-04-29T14:42:44Z</time></trkpt><trkpt lat="27.499162526234453" lon="-11.826370993305998"><ele>273.0</ele><time>2026-04-29T14:42:45Z</time></trkpt><trkpt lat="27.49894212873743" lon="-11.82654358876003"><ele>273.0</ele><time>2026-04-29T14:42:46Z</time></trkpt><trkpt lat="27.498754732148328" lon="-11.826731818577494"><ele>273.0</ele><time>2026-04-29T14:42:47Z</time></trkpt><trkpt lat="27.498576730737977" lon="-11.82690792966005"><ele>274.0</ele><time>2026-04-29T14:42:48Z</time></trkpt><trkpt lat="27.498414978501934" lon="-11.827068349353942"><ele>275.0</ele><time>2026-04-29T14:42:49Z</time></trkpt><trkpt lat="27.498244393050953" lon="-11.82722891936285"><ele>276.0</ele><time>2026-04-29T14:42:50Z</time></trkpt><trkpt lat="27.498057583864714" lon="-11.827378818894873"><ele>276.0</ele><time>2026-04-29T14:42:51Z</time></trkpt><trkpt lat="27.497904596019577" lon="-11.827571884668004"><ele>276.0</ele><time>2026-04-29T14:42:52Z</time></trkpt><trkpt lat="27.497734660857873" lon="-11.827748924700584"><ele>276.0</ele><time>2026-04-29T14:42:53Z</time></trkpt><trkpt lat="27.497557940890676" lon="-11.82793741094707"><ele>276.0</ele><time>2026-04-29T14:42:54Z</time></trkpt><trkpt lat="27.49737476121351" lon="-11.828126347458493"><ele>276.0</ele><time>2026-04-29T14:42:55Z</time></trkpt><trkpt lat="27.497191813858052" lon="-11.828296495933504"><ele>276.0</ele><time>2026-04-29T14:42:56Z</time></trkpt><trkpt lat="27.49702712763849" lon="-11.828441743187398"><ele>276.0</ele><time>2026-04-29T14:42:57Z</time></trkpt><trkpt lat="27.49687121069216" lon="-11.828576192023233"><ele>277.6666666666667</ele><time>2026-04-29T14:42:58Z</time></trkpt><trkpt lat="27.49672562811393" lon="-11.828698900376795"><ele>279.33333333333337</ele><time>2026-04-29T14:42:59Z</time></trkpt><trkpt lat="27.496559980394867" lon="-11.82882956236285"><ele>281.0</ele><time>2026-04-29T14:43:00Z</time></trkpt><trkpt lat="27.496378036329837" lon="-11.828966757167498"><ele>280.6666666666667</ele><time>2026-04-29T14:43:01Z</time></trkpt><trkpt lat="27.496201902833157" lon="-11.829106749249753"><ele>280.3333333333333</ele><time>2026-04-29T14:43:02Z</time></trkpt><trkpt lat="27.496033579759757" lon="-11.829254173543992"><ele>280.0</ele><time>2026-04-29T14:43:03Z</time></trkpt><trkpt lat="27.49586438946646" lon="-11.829422198128645"><ele>278.0</ele><time>2026-04-29T14:43:04Z</time></trkpt><trkpt lat="27.495692036288755" lon="-11.829593191916054"><ele>276.0</ele><time>2026-04-29T14:43:05Z</time></trkpt><trkpt lat="27.49552599518592" lon="-11.829752886692356"><ele>274.0</ele><time>2026-04-29T14:43:06Z</time></trkpt><trkpt lat="27.495364427262956" lon="-11.829912871267858"><ele>274.3333333333333</ele><time>2026-04-29T14:43:07Z</time></trkpt><trkpt lat="27.495206178132023" lon="-11.830075790659452"><ele>274.6666666666667</ele><time>2026-04-29T14:43:08Z</time></trkpt><trkpt lat="27.495047806539734" lon="-11.830230382842421"><ele>275.0</ele><time>2026-04-29T14:43:09Z</time></trkpt><trkpt lat="27.49488835157785" lon="-11.830385195611791"><ele>275.0</ele><time>2026-04-29T14:43:10Z</time></trkpt><trkpt lat="27.494734083265367" lon="-11.830540722180315"><ele>275.0</ele><time>2026-04-29T14:43:11Z</time></trkpt><trkpt lat="27.494576518917977" lon="-11.83069910631035"><ele>275.0</ele><time>2026-04-29T14:43:12Z</time></trkpt><trkpt lat="27.494418962238342" lon="-11.830852165287464"><ele>274.0</ele><time>2026-04-29T14:43:13Z</time></trkpt><trkpt lat="27.494279742912564" lon="-11.830990539495124"><ele>273.0</ele><time>2026-04-29T14:43:14Z</time></trkpt><trkpt lat="27.494125869240424" lon="-11.831133482819869"><ele>272.0</ele><time>2026-04-29T14:43:15Z</time></trkpt><trkpt lat="27.49397613849388" lon="-11.831281078275453"><ele>272.0</ele><time>2026-04-29T14:43:16Z</time></trkpt><trkpt lat="27.49381739615447" lon="-11.831434586683695"><ele>272.0</ele><time>2026-04-29T14:43:17Z</time></trkpt><trkpt lat="27.49368084692384" lon="-11.831577152563979"><ele>272.0</ele><time>2026-04-29T14:43:18Z</time></trkpt><trkpt lat="27.493526876523816" lon="-11.831728675248327"><ele>273.33333333333337</ele><time>2026-04-29T14:43:19Z</time></trkpt><trkpt lat="27.49338471938306" lon="-11.831881438779208"><ele>274.6666666666667</ele><time>2026-04-29T14:43:20Z</time></trkpt><trkpt lat="27.493239689772278" lon="-11.832030898149354"><ele>276.0</ele><time>2026-04-29T14:43:21Z</time></trkpt><trkpt lat="27.493086224943518" lon="-11.832181256880837"><ele>276.0</ele><time>2026-04-29T14:43:22Z</time></trkpt><trkpt lat="27.492930362988616" lon="-11.832335027450398"><ele>276.0</ele><time>2026-04-29T14:43:23Z</time></trkpt><trkpt lat="27.49278423983488" lon="-11.832485214922183"><ele>276.0</ele><time>2026-04-29T14:43:24Z</time></trkpt><trkpt lat="27.49262816996489" lon="-11.832638824722821"><ele>275.6666666666667</ele><time>2026-04-29T14:43:25Z</time></trkpt><trkpt lat="27.492480803963076" lon="-11.832789847561076"><ele>275.33333333333337</ele><time>2026-04-29T14:43:26Z</time></trkpt><trkpt lat="27.492340096655752" lon="-11.832938619250942"><ele>275.0</ele><time>2026-04-29T14:43:27Z</time></trkpt><trkpt lat="27.492200794024868" lon="-11.83306906522093"><ele>274.0</ele><time>2026-04-29T14:43:28Z</time></trkpt><trkpt lat="27.492056951465475" lon="-11.833211814109204"><ele>273.0</ele><time>2026-04-29T14:43:29Z</time></trkpt><trkpt lat="27.491920578725477" lon="-11.833354909955014"><ele>272.0</ele><time>2026-04-29T14:43:30Z</time></trkpt><trkpt lat="27.491778834262163" lon="-11.833497307048571"><ele>272.0</ele><time>2026-04-29T14:43:31Z</time></trkpt><trkpt lat="27.491641069472166" lon="-11.833639549006229"><ele>272.0</ele><time>2026-04-29T14:43:32Z</time></trkpt><trkpt lat="27.491503851697683" lon="-11.833782896455908"><ele>272.0</ele><time>2026-04-29T14:43:33Z</time></trkpt><trkpt lat="27.491375559556133" lon="-11.833925075071907"><ele>272.0</ele><time>2026-04-29T14:43:34Z</time></trkpt><trkpt lat="27.4912533700604" lon="-11.83405898010687"><ele>272.0</ele><time>2026-04-29T14:43:35Z</time></trkpt><trkpt lat="27.491119780335058" lon="-11.83420056111482"><ele>272.0</ele><time>2026-04-29T14:43:36Z</time></trkpt><trkpt lat="27.490988187728533" lon="-11.8343463799892"><ele>272.0</ele><time>2026-04-29T14:43:37Z</time></trkpt><trkpt lat="27.49085539193356" lon="-11.834494694643428"><ele>272.0</ele><time>2026-04-29T14:43:38Z</time></trkpt><trkpt lat="27.490731047243667" lon="-11.834651070180765"><ele>272.0</ele><time>2026-04-29T14:43:39Z</time></trkpt><trkpt lat="27.490606646945213" lon="-11.834810292851149"><ele>272.0</ele><time>2026-04-29T14:43:40Z</time></trkpt><trkpt lat="27.490478876216212" lon="-11.834979449582796"><ele>272.0</ele><time>2026-04-29T14:43:41Z</time></trkpt><trkpt lat="27.490343260496644" lon="-11.835174840513053"><ele>272.0</ele><time>2026-04-29T14:43:42Z</time></trkpt><trkpt lat="27.490200394856128" lon="-11.835371930063546"><ele>274.0</ele><time>2026-04-29T14:43:43Z</time></trkpt><trkpt lat="27.490046851683225" lon="-11.835571066310083"><ele>276.0</ele><time>2026-04-29T14:43:44Z</time></trkpt><trkpt lat="27.489885560278484" lon="-11.835775462011444"><ele>274.5</ele><time>2026-04-29T14:43:45Z</time></trkpt><trkpt lat="27.489720564716023" lon="-11.835980385062557"><ele>273.0</ele><time>2026-04-29T14:43:46Z</time></trkpt><trkpt lat="27.489546723011607" lon="-11.836182163444786"><ele>273.0</ele><time>2026-04-29T14:43:47Z</time></trkpt><trkpt lat="27.489369852240507" lon="-11.836382930941323"><ele>273.0</ele><time>2026-04-29T14:43:48Z</time></trkpt><trkpt lat="27.48919573161439" lon="-11.836580392475012"><ele>273.0</ele><time>2026-04-29T14:43:49Z</time></trkpt><trkpt lat="27.489025177676712" lon="-11.836775356732845"><ele>273.0</ele><time>2026-04-29T14:43:50Z</time></trkpt><trkpt lat="27.48884845065966" lon="-11.836977323655422"><ele>272.5</ele><time>2026-04-29T14:43:51Z</time></trkpt><trkpt lat="27.488675247842465" lon="-11.837175848764362"><ele>272.0</ele><time>2026-04-29T14:43:52Z</time></trkpt><trkpt lat="27.48849539885133" lon="-11.837380420374197"><ele>272.0</ele><time>2026-04-29T14:43:53Z</time></trkpt><trkpt lat="27.488313494176385" lon="-11.837584209013084"><ele>272.0</ele><time>2026-04-29T14:43:54Z</time></trkpt><trkpt lat="27.488131142896055" lon="-11.837786507458064"><ele>272.0</ele><time>2026-04-29T14:43:55Z</time></trkpt><trkpt lat="27.48794873773673" lon="-11.83798022981958"><ele>272.0</ele><time>2026-04-29T14:43:56Z</time></trkpt><trkpt lat="27.48776530466527" lon="-11.83817058641777"><ele>272.0</ele><time>2026-04-29T14:43:57Z</time></trkpt><trkpt lat="27.4875823310952" lon="-11.838365059605307"><ele>272.0</ele><time>2026-04-29T14:43:58Z</time></trkpt><trkpt lat="27.487424981917748" lon="-11.838590993344393"><ele>272.0</ele><time>2026-04-29T14:43:59Z</time></trkpt><trkpt lat="27.48725529087741" lon="-11.838787591121498"><ele>272.0</ele><time>2026-04-29T14:44:00Z</time></trkpt><trkpt lat="27.487081690213788" lon="-11.8389953652395"><ele>272.0</ele><time>2026-04-29T14:44:01Z</time></trkpt><trkpt lat="27.486904086436002" lon="-11.839193841724397"><ele>272.0</ele><time>2026-04-29T14:44:02Z</time></trkpt><trkpt lat="27.486734705235367" lon="-11.83938977090927"><ele>271.0</ele><time>2026-04-29T14:44:03Z</time></trkpt><trkpt lat="27.486544463789286" lon="-11.839609829919942"><ele>270.0</ele><time>2026-04-29T14:44:04Z</time></trkpt><trkpt lat="27.486354487946883" lon="-11.839829721096041"><ele>272.0</ele><time>2026-04-29T14:44:05Z</time></trkpt><trkpt lat="27.486176298615213" lon="-11.840036461495759"><ele>274.0</ele><time>2026-04-29T14:44:06Z</time></trkpt><trkpt lat="27.486002916199265" lon="-11.84023751086412"><ele>274.0</ele><time>2026-04-29T14:44:07Z</time></trkpt><trkpt lat="27.485834800389046" lon="-11.840431762407757"><ele>274.0</ele><time>2026-04-29T14:44:08Z</time></trkpt><trkpt lat="27.485662538722124" lon="-11.84063132610213"><ele>274.0</ele><time>2026-04-29T14:44:09Z</time></trkpt><trkpt lat="27.48550053477485" lon="-11.840835026396956"><ele>274.0</ele><time>2026-04-29T14:44:10Z</time></trkpt><trkpt lat="27.485325997710298" lon="-11.841018897165558"><ele>272.0</ele><time>2026-04-29T14:44:11Z</time></trkpt><trkpt lat="27.485160688313808" lon="-11.841205499957452"><ele>270.0</ele><time>2026-04-29T14:44:12Z</time></trkpt><trkpt lat="27.48500305419246" lon="-11.841396954839727"><ele>270.0</ele><time>2026-04-29T14:44:13Z</time></trkpt><trkpt lat="27.48485194804671" lon="-11.841594618141169"><ele>270.0</ele><time>2026-04-29T14:44:14Z</time></trkpt><trkpt lat="27.484695438637488" lon="-11.8417709006457"><ele>271.0</ele><time>2026-04-29T14:44:15Z</time></trkpt><trkpt lat="27.48454426379183" lon="-11.841953190739304"><ele>272.0</ele><time>2026-04-29T14:44:16Z</time></trkpt><trkpt lat="27.484389466390773" lon="-11.8421387068254"><ele>273.0</ele><time>2026-04-29T14:44:17Z</time></trkpt><trkpt lat="27.484227226020966" lon="-11.842334285920225"><ele>273.0</ele><time>2026-04-29T14:44:18Z</time></trkpt><trkpt lat="27.484064967385937" lon="-11.842529887032645"><ele>273.0</ele><time>2026-04-29T14:44:19Z</time></trkpt><trkpt lat="27.483910368775366" lon="-11.842716039703527"><ele>272.6666666666667</ele><time>2026-04-29T14:44:20Z</time></trkpt><trkpt lat="27.483758563532735" lon="-11.842898877808453"><ele>272.33333333333337</ele><time>2026-04-29T14:44:21Z</time></trkpt><trkpt lat="27.483617901195124" lon="-11.84306831097841"><ele>272.0</ele><time>2026-04-29T14:44:22Z</time></trkpt><trkpt lat="27.48347116771264" lon="-11.843244515000142"><ele>272.0</ele><time>2026-04-29T14:44:23Z</time></trkpt><trkpt lat="27.483314941391313" lon="-11.843432758238166"><ele>272.0</ele><time>2026-04-29T14:44:24Z</time></trkpt><trkpt lat="27.48315433700247" lon="-11.843626032246432"><ele>271.6666666666667</ele><time>2026-04-29T14:44:25Z</time></trkpt><trkpt lat="27.48300024312617" lon="-11.843811113916473"><ele>271.3333333333333</ele><time>2026-04-29T14:44:26Z</time></trkpt><trkpt lat="27.482852008751053" lon="-11.843989294901387"><ele>271.0</ele><time>2026-04-29T14:44:27Z</time></trkpt><trkpt lat="27.482704139179866" lon="-11.844167158719376"><ele>270.3333333333333</ele><time>2026-04-29T14:44:28Z</time></trkpt><trkpt lat="27.482562322071363" lon="-11.84436100095329"><ele>269.6666666666667</ele><time>2026-04-29T14:44:29Z</time></trkpt><trkpt lat="27.48239947235646" lon="-11.844534909311184"><ele>269.0</ele><time>2026-04-29T14:44:30Z</time></trkpt><trkpt lat="27.4822509765207" lon="-11.844713690122735"><ele>269.0</ele><time>2026-04-29T14:44:31Z</time></trkpt><trkpt lat="27.482106967481457" lon="-11.844887069034833"><ele>269.0</ele><time>2026-04-29T14:44:32Z</time></trkpt><trkpt lat="27.481971560042002" lon="-11.845050092010233"><ele>269.0</ele><time>2026-04-29T14:44:33Z</time></trkpt><trkpt lat="27.481841769828886" lon="-11.84520635228105"><ele>270.0</ele><time>2026-04-29T14:44:34Z</time></trkpt><trkpt lat="27.481713303705135" lon="-11.845373745697616"><ele>271.0</ele><time>2026-04-29T14:44:35Z</time></trkpt><trkpt lat="27.481601435323665" lon="-11.845541903753551"><ele>272.0</ele><time>2026-04-29T14:44:36Z</time></trkpt><trkpt lat="27.481483524223407" lon="-11.845719145010259"><ele>272.0</ele><time>2026-04-29T14:44:37Z</time></trkpt><trkpt lat="27.48137160648968" lon="-11.845914367579567"><ele>272.0</ele><time>2026-04-29T14:44:38Z</time></trkpt><trkpt lat="27.48123275002472" lon="-11.846090680912178"><ele>272.0</ele><time>2026-04-29T14:44:39Z</time></trkpt><trkpt lat="27.48111296604964" lon="-11.846277311958604"><ele>272.0</ele><time>2026-04-29T14:44:40Z</time></trkpt><trkpt lat="27.480990689536473" lon="-11.846461241727102"><ele>272.0</ele><time>2026-04-29T14:44:41Z</time></trkpt><trkpt lat="27.480867860163283" lon="-11.84664615225053"><ele>272.0</ele><time>2026-04-29T14:44:42Z</time></trkpt><trkpt lat="27.48074301494379" lon="-11.846834097501452"><ele>272.0</ele><time>2026-04-29T14:44:43Z</time></trkpt><trkpt lat="27.480619684392938" lon="-11.847019494708686"><ele>272.0</ele><time>2026-04-29T14:44:44Z</time></trkpt><trkpt lat="27.480494089793893" lon="-11.847208746955255"><ele>272.0</ele><time>2026-04-29T14:44:45Z</time></trkpt><trkpt lat="27.48037306096489" lon="-11.847391262119853"><ele>272.0</ele><time>2026-04-29T14:44:46Z</time></trkpt><trkpt lat="27.480249729180596" lon="-11.847577266355678"><ele>272.0</ele><time>2026-04-29T14:44:47Z</time></trkpt><trkpt lat="27.48012778091997" lon="-11.847761115961369"><ele>272.0</ele><time>2026-04-29T14:44:48Z</time></trkpt><trkpt lat="27.480004549610083" lon="-11.847946610481427"><ele>271.6666666666667</ele><time>2026-04-29T14:44:49Z</time></trkpt><trkpt lat="27.479878578186735" lon="-11.848136229248391"><ele>271.3333333333333</ele><time>2026-04-29T14:44:50Z</time></trkpt><trkpt lat="27.47975102777638" lon="-11.848328224789393"><ele>271.0</ele><time>2026-04-29T14:44:51Z</time></trkpt><trkpt lat="27.47963594447562" lon="-11.848513253410418"><ele>271.0</ele><time>2026-04-29T14:44:52Z</time></trkpt><trkpt lat="27.479534081724363" lon="-11.848710144425588"><ele>271.0</ele><time>2026-04-29T14:44:53Z</time></trkpt><trkpt lat="27.47942418552223" lon="-11.848923052813078"><ele>271.0</ele><time>2026-04-29T14:44:54Z</time></trkpt><trkpt lat="27.479315082861437" lon="-11.849134727003078"><ele>270.0</ele><time>2026-04-29T14:44:55Z</time></trkpt><trkpt lat="27.47920121569568" lon="-11.849355594657606"><ele>269.0</ele><time>2026-04-29T14:44:56Z</time></trkpt><trkpt lat="27.479085420280008" lon="-11.849580059667112"><ele>269.0</ele><time>2026-04-29T14:44:57Z</time></trkpt><trkpt lat="27.478964402956343" lon="-11.849814650827376"><ele>269.0</ele><time>2026-04-29T14:44:58Z</time></trkpt><trkpt lat="27.478839458277907" lon="-11.850056856812584"><ele>270.0</ele><time>2026-04-29T14:44:59Z</time></trkpt><trkpt lat="27.478705211440545" lon="-11.850291350253892"><ele>271.0</ele><time>2026-04-29T14:45:00Z</time></trkpt><trkpt lat="27.4783898761075" lon="-11.85040827010508"><ele>271.0</ele><time>2026-04-29T14:45:01Z</time></trkpt><trkpt lat="27.47826053157841" lon="-11.850649349921618"><ele>271.0</ele><time>2026-04-29T14:45:02Z</time></trkpt><trkpt lat="27.47813376492162" lon="-11.850893595154796"><ele>271.5</ele><time>2026-04-29T14:45:03Z</time></trkpt><trkpt lat="27.478000550981484" lon="-11.851142604685338"><ele>272.0</ele><time>2026-04-29T14:45:04Z</time></trkpt><trkpt lat="27.477867799908264" lon="-11.851393568122647"><ele>272.0</ele><time>2026-04-29T14:45:05Z</time></trkpt><trkpt lat="27.477729082822783" lon="-11.8516496513095"><ele>272.0</ele><time>2026-04-29T14:45:06Z</time></trkpt><trkpt lat="27.47760113206104" lon="-11.851898341535763"><ele>272.5</ele><time>2026-04-29T14:45:07Z</time></trkpt><trkpt lat="27.47747352856151" lon="-11.852151891072204"><ele>273.0</ele><time>2026-04-29T14:45:08Z</time></trkpt><trkpt lat="27.477345894858537" lon="-11.852402012995405"><ele>273.0</ele><time>2026-04-29T14:45:09Z</time></trkpt><trkpt lat="27.47722121730809" lon="-11.852654869243416"><ele>273.0</ele><time>2026-04-29T14:45:10Z</time></trkpt><trkpt lat="27.47710160256322" lon="-11.852906161841172"><ele>273.0</ele><time>2026-04-29T14:45:11Z</time></trkpt><trkpt lat="27.476988605440983" lon="-11.853161709072142"><ele>273.0</ele><time>2026-04-29T14:45:12Z</time></trkpt><trkpt lat="27.476873193743796" lon="-11.853419963744466"><ele>273.5</ele><time>2026-04-29T14:45:13Z</time></trkpt><trkpt lat="27.476758247261536" lon="-11.853676950437752"><ele>274.0</ele><time>2026-04-29T14:45:14Z</time></trkpt><trkpt lat="27.47664356950648" lon="-11.853925832338046"><ele>274.0</ele><time>2026-04-29T14:45:15Z</time></trkpt><trkpt lat="27.476528108058826" lon="-11.854160095701653"><ele>274.0</ele><time>2026-04-29T14:45:16Z</time></trkpt><trkpt lat="27.476413709336875" lon="-11.85439185117954"><ele>273.5</ele><time>2026-04-29T14:45:17Z</time></trkpt><trkpt lat="27.476293610177137" lon="-11.854631258154384"><ele>273.0</ele><time>2026-04-29T14:45:18Z</time></trkpt><trkpt lat="27.476175843625576" lon="-11.854868814726178"><ele>272.0</ele><time>2026-04-29T14:45:19Z</time></trkpt><trkpt lat="27.476058553721032" lon="-11.855106784848022"><ele>271.0</ele><time>2026-04-29T14:45:20Z</time></trkpt><trkpt lat="27.475943751833544" lon="-11.85533774234182"><ele>271.0</ele><time>2026-04-29T14:45:21Z</time></trkpt><trkpt lat="27.475834152418216" lon="-11.855574183995419"><ele>271.0</ele><time>2026-04-29T14:45:22Z</time></trkpt><trkpt lat="27.475719894573768" lon="-11.855812101388715"><ele>272.0</ele><time>2026-04-29T14:45:23Z</time></trkpt><trkpt lat="27.475606041095876" lon="-11.856041572912506"><ele>273.0</ele><time>2026-04-29T14:45:24Z</time></trkpt><trkpt lat="27.475487459664155" lon="-11.856284025144404"><ele>271.0</ele><time>2026-04-29T14:45:25Z</time></trkpt><trkpt lat="27.475366124043276" lon="-11.856537555312428"><ele>269.0</ele><time>2026-04-29T14:45:26Z</time></trkpt><trkpt lat="27.475253590768453" lon="-11.856771481185104"><ele>269.33333333333337</ele><time>2026-04-29T14:45:27Z</time></trkpt><trkpt lat="27.475140098786536" lon="-11.856997123800275"><ele>269.6666666666667</ele><time>2026-04-29T14:45:28Z</time></trkpt><trkpt lat="27.47503410830703" lon="-11.857204603864082"><ele>270.0</ele><time>2026-04-29T14:45:29Z</time></trkpt><trkpt lat="27.474935249802485" lon="-11.85740139541701"><ele>270.0</ele><time>2026-04-29T14:45:30Z</time></trkpt><trkpt lat="27.47483358466357" lon="-11.857602984158222"><ele>270.0</ele><time>2026-04-29T14:45:31Z</time></trkpt><trkpt lat="27.474735055109605" lon="-11.857805382194941"><ele>270.0</ele><time>2026-04-29T14:45:32Z</time></trkpt><trkpt lat="27.474630776559216" lon="-11.858017558621052"><ele>270.0</ele><time>2026-04-29T14:45:33Z</time></trkpt><trkpt lat="27.474525069295183" lon="-11.858231786783572"><ele>270.0</ele><time>2026-04-29T14:45:34Z</time></trkpt><trkpt lat="27.474418462210522" lon="-11.858443697335819"><ele>270.0</ele><time>2026-04-29T14:45:35Z</time></trkpt><trkpt lat="27.47431065281403" lon="-11.858663935110478"><ele>270.3333333333333</ele><time>2026-04-29T14:45:36Z</time></trkpt><trkpt lat="27.474203306250004" lon="-11.858881030428632"><ele>270.66666666666663</ele><time>2026-04-29T14:45:37Z</time></trkpt><trkpt lat="27.474104814147964" lon="-11.859088571664401"><ele>271.0</ele><time>2026-04-29T14:45:38Z</time></trkpt><trkpt lat="27.474004708960862" lon="-11.859299569940548"><ele>269.5</ele><time>2026-04-29T14:45:39Z</time></trkpt><trkpt lat="27.473903190725384" lon="-11.859535411609547"><ele>268.0</ele><time>2026-04-29T14:45:40Z</time></trkpt><trkpt lat="27.473788397698346" lon="-11.859788173743722"><ele>268.5</ele><time>2026-04-29T14:45:41Z</time></trkpt><trkpt lat="27.473669651828054" lon="-11.86004384156"><ele>269.0</ele><time>2026-04-29T14:45:42Z</time></trkpt><trkpt lat="27.47354725106582" lon="-11.86030556227655"><ele>269.0</ele><time>2026-04-29T14:45:43Z</time></trkpt><trkpt lat="27.473414330418827" lon="-11.860584235743579"><ele>269.0</ele><time>2026-04-29T14:45:44Z</time></trkpt><trkpt lat="27.473279817282716" lon="-11.860871585288669"><ele>269.0</ele><time>2026-04-29T14:45:45Z</time></trkpt><trkpt lat="27.473148323316998" lon="-11.861158520468464"><ele>269.0</ele><time>2026-04-29T14:45:46Z</time></trkpt><trkpt lat="27.47302443478989" lon="-11.861428297610338"><ele>269.0</ele><time>2026-04-29T14:45:47Z</time></trkpt><trkpt lat="27.472908134531988" lon="-11.861687570961275"><ele>269.0</ele><time>2026-04-29T14:45:48Z</time></trkpt><trkpt lat="27.47278710718153" lon="-11.861951850053119"><ele>269.5</ele><time>2026-04-29T14:45:49Z</time></trkpt><trkpt lat="27.472667122990163" lon="-11.862212426957452"><ele>270.0</ele><time>2026-04-29T14:45:50Z</time></trkpt><trkpt lat="27.47254815468533" lon="-11.862475032581838"><ele>270.0</ele><time>2026-04-29T14:45:51Z</time></trkpt><trkpt lat="27.472429256273188" lon="-11.86273024808142"><ele>270.0</ele><time>2026-04-29T14:45:52Z</time></trkpt><trkpt lat="27.472313979377244" lon="-11.86298600253623"><ele>270.0</ele><time>2026-04-29T14:45:53Z</time></trkpt><trkpt lat="27.47220110584304" lon="-11.86324969863613"><ele>270.0</ele><time>2026-04-29T14:45:54Z</time></trkpt><trkpt lat="27.472088988826442" lon="-11.86351581491337"><ele>268.0</ele><time>2026-04-29T14:45:55Z</time></trkpt><trkpt lat="27.471981952193527" lon="-11.863774000995237"><ele>266.0</ele><time>2026-04-29T14:45:56Z</time></trkpt><trkpt lat="27.471878478472956" lon="-11.864031567516458"><ele>266.5</ele><time>2026-04-29T14:45:57Z</time></trkpt><trkpt lat="27.47177605761008" lon="-11.864291562924803"><ele>267.0</ele><time>2026-04-29T14:45:58Z</time></trkpt><trkpt lat="27.471672810531732" lon="-11.864551830597412"><ele>267.0</ele><time>2026-04-29T14:45:59Z</time></trkpt><trkpt lat="27.471569064984475" lon="-11.864811498704421"><ele>267.0</ele><time>2026-04-29T14:46:00Z</time></trkpt><trkpt lat="27.47146490185843" lon="-11.8650702238549"><ele>268.0</ele><time>2026-04-29T14:46:01Z</time></trkpt><trkpt lat="27.471370725685652" lon="-11.865314526764445"><ele>269.0</ele><time>2026-04-29T14:46:02Z</time></trkpt><trkpt lat="27.471282785605037" lon="-11.865544793303238"><ele>269.0</ele><time>2026-04-29T14:46:03Z</time></trkpt><trkpt lat="27.471195928655547" lon="-11.86575075622557"><ele>269.0</ele><time>2026-04-29T14:46:04Z</time></trkpt><trkpt lat="27.47109672056645" lon="-11.865959204958763"><ele>269.0</ele><time>2026-04-29T14:46:05Z</time></trkpt><trkpt lat="27.47099124325861" lon="-11.866169638221988"><ele>269.0</ele><time>2026-04-29T14:46:06Z</time></trkpt><trkpt lat="27.47088528517404" lon="-11.866392252234512"><ele>269.0</ele><time>2026-04-29T14:46:07Z</time></trkpt><trkpt lat="27.47079172911637" lon="-11.866617549784504"><ele>269.0</ele><time>2026-04-29T14:46:08Z</time></trkpt><trkpt lat="27.470711095027404" lon="-11.866846379388765"><ele>268.5</ele><time>2026-04-29T14:46:09Z</time></trkpt><trkpt lat="27.47062684415921" lon="-11.867087949960752"><ele>268.0</ele><time>2026-04-29T14:46:10Z</time></trkpt><trkpt lat="27.470538900925057" lon="-11.867329609583074"><ele>268.0</ele><time>2026-04-29T14:46:11Z</time></trkpt><trkpt lat="27.470447460287243" lon="-11.867559929374178"><ele>268.0</ele><time>2026-04-29T14:46:12Z</time></trkpt><trkpt lat="27.47035812593383" lon="-11.86779242128437"><ele>268.0</ele><time>2026-04-29T14:46:13Z</time></trkpt><trkpt lat="27.470262440876077" lon="-11.868035337913785"><ele>268.0</ele><time>2026-04-29T14:46:14Z</time></trkpt><trkpt lat="27.47016848799101" lon="-11.86827357083361"><ele>268.0</ele><time>2026-04-29T14:46:15Z</time></trkpt><trkpt lat="27.47007374592575" lon="-11.868514637134778"><ele>268.0</ele><time>2026-04-29T14:46:16Z</time></trkpt><trkpt lat="27.46998264619606" lon="-11.868752377595378"><ele>268.0</ele><time>2026-04-29T14:46:17Z</time></trkpt><trkpt lat="27.469899179948545" lon="-11.868986629731324"><ele>268.0</ele><time>2026-04-29T14:46:18Z</time></trkpt><trkpt lat="27.46981117182793" lon="-11.869232835301432"><ele>268.0</ele><time>2026-04-29T14:46:19Z</time></trkpt><trkpt lat="27.46971821724792" lon="-11.869479917379852"><ele>268.0</ele><time>2026-04-29T14:46:20Z</time></trkpt><trkpt lat="27.469626076083536" lon="-11.869732826754044"><ele>268.0</ele><time>2026-04-29T14:46:21Z</time></trkpt><trkpt lat="27.469538350375185" lon="-11.869983518239259"><ele>268.66666666666663</ele><time>2026-04-29T14:46:22Z</time></trkpt><trkpt lat="27.469452357155408" lon="-11.870227291065802"><ele>269.3333333333333</ele><time>2026-04-29T14:46:23Z</time></trkpt><trkpt lat="27.469370880094996" lon="-11.870452894669572"><ele>270.0</ele><time>2026-04-29T14:46:24Z</time></trkpt><trkpt lat="27.469284443694995" lon="-11.870694430586006"><ele>270.0</ele><time>2026-04-29T14:46:25Z</time></trkpt><trkpt lat="27.46920277828829" lon="-11.870932408505064"><ele>270.0</ele><time>2026-04-29T14:46:26Z</time></trkpt><trkpt lat="27.469120741744145" lon="-11.871177230022065"><ele>269.5</ele><time>2026-04-29T14:46:27Z</time></trkpt><trkpt lat="27.469036995364192" lon="-11.871427618752007"><ele>269.0</ele><time>2026-04-29T14:46:28Z</time></trkpt><trkpt lat="27.469075493311156" lon="-11.871738450872552"><ele>267.5</ele><time>2026-04-29T14:46:29Z</time></trkpt><trkpt lat="27.46898296809749" lon="-11.871976735698071"><ele>266.0</ele><time>2026-04-29T14:46:30Z</time></trkpt><trkpt lat="27.468890313054793" lon="-11.872214977690412"><ele>266.0</ele><time>2026-04-29T14:46:31Z</time></trkpt><trkpt lat="27.46880307800636" lon="-11.87243919880463"><ele>266.0</ele><time>2026-04-29T14:46:32Z</time></trkpt><trkpt lat="27.468693195007233" lon="-11.87266920037436"><ele>266.0</ele><time>2026-04-29T14:46:33Z</time></trkpt><trkpt lat="27.468581857231758" lon="-11.872883170052269"><ele>266.6666666666667</ele><time>2026-04-29T14:46:34Z</time></trkpt><trkpt lat="27.46848112119354" lon="-11.873100067151512"><ele>267.3333333333333</ele><time>2026-04-29T14:46:35Z</time></trkpt><trkpt lat="27.46836014929138" lon="-11.873309534333504"><ele>268.0</ele><time>2026-04-29T14:46:36Z</time></trkpt><trkpt lat="27.46825229876704" lon="-11.873516950051648"><ele>268.3333333333333</ele><time>2026-04-29T14:46:37Z</time></trkpt><trkpt lat="27.468150253213423" lon="-11.873713201803852"><ele>268.6666666666667</ele><time>2026-04-29T14:46:38Z</time></trkpt><trkpt lat="27.468038912153865" lon="-11.873927739494292"><ele>269.0</ele><time>2026-04-29T14:46:39Z</time></trkpt><trkpt lat="27.467923546489047" lon="-11.874148948969156"><ele>269.0</ele><time>2026-04-29T14:46:40Z</time></trkpt><trkpt lat="27.467810337160202" lon="-11.87436602379008"><ele>269.0</ele><time>2026-04-29T14:46:41Z</time></trkpt><trkpt lat="27.46770392674466" lon="-11.8745701158713"><ele>269.0</ele><time>2026-04-29T14:46:42Z</time></trkpt><trkpt lat="27.467595443929923" lon="-11.874778585541646"><ele>269.0</ele><time>2026-04-29T14:46:43Z</time></trkpt><trkpt lat="27.467538897197045" lon="-11.875022802506724"><ele>269.0</ele><time>2026-04-29T14:46:44Z</time></trkpt><trkpt lat="27.46744218371153" lon="-11.87524718194418"><ele>269.0</ele><time>2026-04-29T14:46:45Z</time></trkpt><trkpt lat="27.467382141043" lon="-11.875473587546166"><ele>269.0</ele><time>2026-04-29T14:46:46Z</time></trkpt><trkpt lat="27.467308226772367" lon="-11.875706525690978"><ele>269.0</ele><time>2026-04-29T14:46:47Z</time></trkpt><trkpt lat="27.46723585726937" lon="-11.875934064744925"><ele>269.0</ele><time>2026-04-29T14:46:48Z</time></trkpt><trkpt lat="27.46716250101824" lon="-11.876163244012174"><ele>267.5</ele><time>2026-04-29T14:46:49Z</time></trkpt><trkpt lat="27.467089224585237" lon="-11.87639135341424"><ele>266.0</ele><time>2026-04-29T14:46:50Z</time></trkpt><trkpt lat="27.46700626297045" lon="-11.87664961347962"><ele>266.0</ele><time>2026-04-29T14:46:51Z</time></trkpt><trkpt lat="27.46692432299097" lon="-11.876894636847387"><ele>266.0</ele><time>2026-04-29T14:46:52Z</time></trkpt><trkpt lat="27.466845038090927" lon="-11.877133062800885"><ele>266.0</ele><time>2026-04-29T14:46:53Z</time></trkpt><trkpt lat="27.46672208391758" lon="-11.87736125676049"><ele>266.0</ele><time>2026-04-29T14:46:54Z</time></trkpt><trkpt lat="27.46665703747617" lon="-11.877604231162437"><ele>267.0</ele><time>2026-04-29T14:46:55Z</time></trkpt><trkpt lat="27.46658867547613" lon="-11.877840849543684"><ele>268.0</ele><time>2026-04-29T14:46:56Z</time></trkpt><trkpt lat="27.466517565985647" lon="-11.878086517993303"><ele>268.0</ele><time>2026-04-29T14:46:57Z</time></trkpt><trkpt lat="27.466447123170425" lon="-11.878331192797479"><ele>268.0</ele><time>2026-04-29T14:46:58Z</time></trkpt><trkpt lat="27.466373013437703" lon="-11.878589932972886"><ele>268.5</ele><time>2026-04-29T14:46:59Z</time></trkpt><trkpt lat="27.46629411406189" lon="-11.878849358853158"><ele>269.0</ele><time>2026-04-29T14:47:00Z</time></trkpt><trkpt lat="27.466210455719153" lon="-11.879115468476245"><ele>269.5</ele><time>2026-04-29T14:47:01Z</time></trkpt><trkpt lat="27.46613049956006" lon="-11.879379203654182"><ele>270.0</ele><time>2026-04-29T14:47:02Z</time></trkpt><trkpt lat="27.46605208956483" lon="-11.879619474059348"><ele>270.0</ele><time>2026-04-29T14:47:03Z</time></trkpt><trkpt lat="27.46597246063272" lon="-11.879867441571912"><ele>270.0</ele><time>2026-04-29T14:47:04Z</time></trkpt><trkpt lat="27.465894285717354" lon="-11.880110064040686"><ele>269.5</ele><time>2026-04-29T14:47:05Z</time></trkpt><trkpt lat="27.46581603484783" lon="-11.880354609014754"><ele>269.0</ele><time>2026-04-29T14:47:06Z</time></trkpt><trkpt lat="27.465736790997646" lon="-11.88059303543997"><ele>269.0</ele><time>2026-04-29T14:47:07Z</time></trkpt><trkpt lat="27.465658912886354" lon="-11.880827884545416"><ele>269.0</ele><time>2026-04-29T14:47:08Z</time></trkpt><trkpt lat="27.465575824452518" lon="-11.881071254417426"><ele>269.0</ele><time>2026-04-29T14:47:09Z</time></trkpt><trkpt lat="27.465500280093377" lon="-11.881300231878859"><ele>269.0</ele><time>2026-04-29T14:47:10Z</time></trkpt><trkpt lat="27.465416730527355" lon="-11.88153658217105"><ele>269.0</ele><time>2026-04-29T14:47:11Z</time></trkpt><trkpt lat="27.465335712834186" lon="-11.881773592834719"><ele>267.0</ele><time>2026-04-29T14:47:12Z</time></trkpt><trkpt lat="27.46525469910191" lon="-11.882009813269942"><ele>265.0</ele><time>2026-04-29T14:47:13Z</time></trkpt><trkpt lat="27.465173832210514" lon="-11.88225317177348"><ele>265.0</ele><time>2026-04-29T14:47:14Z</time></trkpt><trkpt lat="27.465102313541287" lon="-11.882494475791974"><ele>265.0</ele><time>2026-04-29T14:47:15Z</time></trkpt><trkpt lat="27.465023081525004" lon="-11.882743409797365"><ele>266.5</ele><time>2026-04-29T14:47:16Z</time></trkpt><trkpt lat="27.464946902399625" lon="-11.882987634302001"><ele>268.0</ele><time>2026-04-29T14:47:17Z</time></trkpt><trkpt lat="27.464873349012986" lon="-11.883222917734937"><ele>267.3333333333333</ele><time>2026-04-29T14:47:18Z</time></trkpt><trkpt lat="27.464796616908973" lon="-11.883461372333365"><ele>266.6666666666667</ele><time>2026-04-29T14:47:19Z</time></trkpt><trkpt lat="27.464722832661877" lon="-11.883694529696"><ele>266.0</ele><time>2026-04-29T14:47:20Z</time></trkpt><trkpt lat="27.46465142042157" lon="-11.883924170628044"><ele>266.33333333333337</ele><time>2026-04-29T14:47:21Z</time></trkpt><trkpt lat="27.464579112731013" lon="-11.884154278478702"><ele>266.6666666666667</ele><time>2026-04-29T14:47:22Z</time></trkpt><trkpt lat="27.46450800269019" lon="-11.884381389145004"><ele>267.0</ele><time>2026-04-29T14:47:23Z</time></trkpt><trkpt lat="27.46443250167261" lon="-11.884612566375704"><ele>267.0</ele><time>2026-04-29T14:47:24Z</time></trkpt><trkpt lat="27.464354496876656" lon="-11.884853896280308"><ele>267.0</ele><time>2026-04-29T14:47:25Z</time></trkpt><trkpt lat="27.464276539080505" lon="-11.885095172687711"><ele>268.0</ele><time>2026-04-29T14:47:26Z</time></trkpt><trkpt lat="27.46419097288149" lon="-11.885331739014195"><ele>269.0</ele><time>2026-04-29T14:47:27Z</time></trkpt><trkpt lat="27.464096197517364" lon="-11.885572234332557"><ele>269.0</ele><time>2026-04-29T14:47:28Z</time></trkpt><trkpt lat="27.464000643973037" lon="-11.885824016826462"><ele>269.0</ele><time>2026-04-29T14:47:29Z</time></trkpt><trkpt lat="27.46390070715271" lon="-11.886090785686305"><ele>269.0</ele><time>2026-04-29T14:47:30Z</time></trkpt><trkpt lat="27.463790649595186" lon="-11.886368265036992"><ele>269.0</ele><time>2026-04-29T14:47:31Z</time></trkpt><trkpt lat="27.46369012859787" lon="-11.886628491165833"><ele>267.5</ele><time>2026-04-29T14:47:32Z</time></trkpt><trkpt lat="27.463591452310087" lon="-11.88687101791323"><ele>266.0</ele><time>2026-04-29T14:47:33Z</time></trkpt><trkpt lat="27.463486157849108" lon="-11.887112655479092"><ele>266.0</ele><time>2026-04-29T14:47:34Z</time></trkpt><trkpt lat="27.463393825415718" lon="-11.887340967502988"><ele>266.0</ele><time>2026-04-29T14:47:35Z</time></trkpt><trkpt lat="27.46330523941494" lon="-11.887558993515084"><ele>266.0</ele><time>2026-04-29T14:47:36Z</time></trkpt><trkpt lat="27.463222820659045" lon="-11.887768670662947"><ele>266.6666666666667</ele><time>2026-04-29T14:47:37Z</time></trkpt><trkpt lat="27.463144305524118" lon="-11.887978524223868"><ele>267.3333333333333</ele><time>2026-04-29T14:47:38Z</time></trkpt><trkpt lat="27.46307447669519" lon="-11.888181362612967"><ele>268.0</ele><time>2026-04-29T14:47:39Z</time></trkpt><trkpt lat="27.462999646966384" lon="-11.888386246424686"><ele>267.0</ele><time>2026-04-29T14:47:40Z</time></trkpt><trkpt lat="27.46293565983936" lon="-11.888565759461077"><ele>266.0</ele><time>2026-04-29T14:47:41Z</time></trkpt><trkpt lat="27.46287049019407" lon="-11.888761146100562"><ele>265.0</ele><time>2026-04-29T14:47:42Z</time></trkpt><trkpt lat="27.462805101990686" lon="-11.888953424004763"><ele>265.0</ele><time>2026-04-29T14:47:43Z</time></trkpt><trkpt lat="27.4627338631055" lon="-11.889149575324709"><ele>265.0</ele><time>2026-04-29T14:47:44Z</time></trkpt><trkpt lat="27.462666317943423" lon="-11.889345496616636"><ele>265.0</ele><time>2026-04-29T14:47:45Z</time></trkpt><trkpt lat="27.462587703377327" lon="-11.889550924406299"><ele>266.0</ele><time>2026-04-29T14:47:46Z</time></trkpt><trkpt lat="27.462513600757735" lon="-11.889751964212483"><ele>267.0</ele><time>2026-04-29T14:47:47Z</time></trkpt><trkpt lat="27.462433200231498" lon="-11.88994870233584"><ele>268.0</ele><time>2026-04-29T14:47:48Z</time></trkpt><trkpt lat="27.46234223159039" lon="-11.890158406905654"><ele>268.0</ele><time>2026-04-29T14:47:49Z</time></trkpt><trkpt lat="27.46225902970188" lon="-11.890361422984839"><ele>268.0</ele><time>2026-04-29T14:47:50Z</time></trkpt><trkpt lat="27.462164568966998" lon="-11.890571609908967"><ele>268.0</ele><time>2026-04-29T14:47:51Z</time></trkpt><trkpt lat="27.462097071608778" lon="-11.890771014734845"><ele>267.66666666666663</ele><time>2026-04-29T14:47:52Z</time></trkpt><trkpt lat="27.462011231420156" lon="-11.89096758529317"><ele>267.3333333333333</ele><time>2026-04-29T14:47:53Z</time></trkpt><trkpt lat="27.46192550865331" lon="-11.891175067869838"><ele>267.0</ele><time>2026-04-29T14:47:54Z</time></trkpt><trkpt lat="27.461859318316883" lon="-11.891379167561853"><ele>267.0</ele><time>2026-04-29T14:47:55Z</time></trkpt><trkpt lat="27.461782147629908" lon="-11.891588135356686"><ele>267.0</ele><time>2026-04-29T14:47:56Z</time></trkpt><trkpt lat="27.46171072037176" lon="-11.891791466790124"><ele>267.0</ele><time>2026-04-29T14:47:57Z</time></trkpt><trkpt lat="27.461643591197074" lon="-11.891998208215867"><ele>267.0</ele><time>2026-04-29T14:47:58Z</time></trkpt><trkpt lat="27.461580884584414" lon="-11.892204723171083"><ele>267.0</ele><time>2026-04-29T14:47:59Z</time></trkpt><trkpt lat="27.461515224681335" lon="-11.892409810361514"><ele>267.0</ele><time>2026-04-29T14:48:00Z</time></trkpt><trkpt lat="27.46144750394714" lon="-11.892611392880967"><ele>267.0</ele><time>2026-04-29T14:48:01Z</time></trkpt><trkpt lat="27.46137858355729" lon="-11.892817548591571"><ele>267.0</ele><time>2026-04-29T14:48:02Z</time></trkpt><trkpt lat="27.461310741493264" lon="-11.893023528362667"><ele>267.0</ele><time>2026-04-29T14:48:03Z</time></trkpt><trkpt lat="27.461250426026556" lon="-11.893238342340714"><ele>267.0</ele><time>2026-04-29T14:48:04Z</time></trkpt><trkpt lat="27.461187538847664" lon="-11.89344399129802"><ele>267.0</ele><time>2026-04-29T14:48:05Z</time></trkpt><trkpt lat="27.461116060110665" lon="-11.89365054409829"><ele>267.0</ele><time>2026-04-29T14:48:06Z</time></trkpt><trkpt lat="27.461041741093425" lon="-11.893855867071347"><ele>267.0</ele><time>2026-04-29T14:48:07Z</time></trkpt><trkpt lat="27.460973640346758" lon="-11.894066489535298"><ele>267.0</ele><time>2026-04-29T14:48:08Z</time></trkpt><trkpt lat="27.460919055218625" lon="-11.894271842742542"><ele>267.0</ele><time>2026-04-29T14:48:09Z</time></trkpt><trkpt lat="27.460852872241432" lon="-11.894467446257961"><ele>267.6666666666667</ele><time>2026-04-29T14:48:10Z</time></trkpt><trkpt lat="27.460801264453607" lon="-11.894650964390207"><ele>268.33333333333337</ele><time>2026-04-29T14:48:11Z</time></trkpt><trkpt lat="27.46073623312289" lon="-11.894852797329973"><ele>269.0</ele><time>2026-04-29T14:48:12Z</time></trkpt><trkpt lat="27.460682682782963" lon="-11.895065492549424"><ele>269.6666666666667</ele><time>2026-04-29T14:48:13Z</time></trkpt><trkpt lat="27.460612757876444" lon="-11.895269970705668"><ele>270.3333333333333</ele><time>2026-04-29T14:48:14Z</time></trkpt><trkpt lat="27.46054362362489" lon="-11.895476500337695"><ele>271.0</ele><time>2026-04-29T14:48:15Z</time></trkpt><trkpt lat="27.46048411572192" lon="-11.895692768537387"><ele>269.3333333333333</ele><time>2026-04-29T14:48:16Z</time></trkpt><trkpt lat="27.46040570835685" lon="-11.895902017356478"><ele>267.6666666666667</ele><time>2026-04-29T14:48:17Z</time></trkpt><trkpt lat="27.460341106328215" lon="-11.896111314297354"><ele>266.0</ele><time>2026-04-29T14:48:18Z</time></trkpt><trkpt lat="27.46025323104387" lon="-11.896310201203162"><ele>265.6666666666667</ele><time>2026-04-29T14:48:19Z</time></trkpt><trkpt lat="27.460170908085022" lon="-11.896514698356489"><ele>265.3333333333333</ele><time>2026-04-29T14:48:20Z</time></trkpt><trkpt lat="27.460084581193037" lon="-11.896719332615701"><ele>265.0</ele><time>2026-04-29T14:48:21Z</time></trkpt><trkpt lat="27.46000341000377" lon="-11.896921916661263"><ele>266.0</ele><time>2026-04-29T14:48:22Z</time></trkpt><trkpt lat="27.459930516695017" lon="-11.897123231581412"><ele>267.0</ele><time>2026-04-29T14:48:23Z</time></trkpt><trkpt lat="27.459840940459564" lon="-11.897330409734645"><ele>268.0</ele><time>2026-04-29T14:48:24Z</time></trkpt><trkpt lat="27.459764127133425" lon="-11.897531972254125"><ele>268.0</ele><time>2026-04-29T14:48:25Z</time></trkpt><trkpt lat="27.45968590687625" lon="-11.897737579737987"><ele>268.0</ele><time>2026-04-29T14:48:26Z</time></trkpt><trkpt lat="27.459608384056676" lon="-11.89794277092581"><ele>268.0</ele><time>2026-04-29T14:48:27Z</time></trkpt><trkpt lat="27.459531813256195" lon="-11.898145992619499"><ele>268.0</ele><time>2026-04-29T14:48:28Z</time></trkpt><trkpt lat="27.459446284829077" lon="-11.898351136766172"><ele>268.0</ele><time>2026-04-29T14:48:29Z</time></trkpt><trkpt lat="27.45936527914126" lon="-11.8985571234573"><ele>268.0</ele><time>2026-04-29T14:48:30Z</time></trkpt><trkpt lat="27.459282428482744" lon="-11.898758493456773"><ele>268.0</ele><time>2026-04-29T14:48:31Z</time></trkpt><trkpt lat="27.45921284072277" lon="-11.898951435440841"><ele>268.0</ele><time>2026-04-29T14:48:32Z</time></trkpt><trkpt lat="27.459158534809585" lon="-11.89913606853792"><ele>268.0</ele><time>2026-04-29T14:48:33Z</time></trkpt><trkpt lat="27.45908191365154" lon="-11.899339185303491"><ele>268.0</ele><time>2026-04-29T14:48:34Z</time></trkpt><trkpt lat="27.459014211150183" lon="-11.899550653969335"><ele>268.0</ele><time>2026-04-29T14:48:35Z</time></trkpt><trkpt lat="27.458947983435692" lon="-11.899763126555527"><ele>268.0</ele><time>2026-04-29T14:48:36Z</time></trkpt><trkpt lat="27.458888471469933" lon="-11.899951151453452"><ele>268.0</ele><time>2026-04-29T14:48:37Z</time></trkpt><trkpt lat="27.458829025002185" lon="-11.900158133384801"><ele>268.0</ele><time>2026-04-29T14:48:38Z</time></trkpt><trkpt lat="27.458763741941464" lon="-11.90037607470915"><ele>268.0</ele><time>2026-04-29T14:48:39Z</time></trkpt><trkpt lat="27.45869916662464" lon="-11.900592120661102"><ele>268.0</ele><time>2026-04-29T14:48:40Z</time></trkpt><trkpt lat="27.458628780135246" lon="-11.900805899472081"><ele>268.0</ele><time>2026-04-29T14:48:41Z</time></trkpt><trkpt lat="27.458559534130192" lon="-11.901023592946979"><ele>268.0</ele><time>2026-04-29T14:48:42Z</time></trkpt><trkpt lat="27.45848617104088" lon="-11.901234105583793"><ele>267.66666666666663</ele><time>2026-04-29T14:48:43Z</time></trkpt><trkpt lat="27.458412848066608" lon="-11.90145389537449"><ele>267.3333333333333</ele><time>2026-04-29T14:48:44Z</time></trkpt><trkpt lat="27.458343042819866" lon="-11.901664738170112"><ele>267.0</ele><time>2026-04-29T14:48:45Z</time></trkpt><trkpt lat="27.45826985258849" lon="-11.901885433287987"><ele>267.0</ele><time>2026-04-29T14:48:46Z</time></trkpt><trkpt lat="27.458198897828765" lon="-11.90210057348417"><ele>267.0</ele><time>2026-04-29T14:48:47Z</time></trkpt><trkpt lat="27.458122622264845" lon="-11.902323318774062"><ele>267.0</ele><time>2026-04-29T14:48:48Z</time></trkpt><trkpt lat="27.4580464902986" lon="-11.90253963317957"><ele>267.0</ele><time>2026-04-29T14:48:49Z</time></trkpt><trkpt lat="27.457965897796605" lon="-11.90273576882386"><ele>267.0</ele><time>2026-04-29T14:48:50Z</time></trkpt><trkpt lat="27.457883214180512" lon="-11.902941215924265"><ele>267.0</ele><time>2026-04-29T14:48:51Z</time></trkpt><trkpt lat="27.457800892800993" lon="-11.9031561744431"><ele>267.0</ele><time>2026-04-29T14:48:52Z</time></trkpt><trkpt lat="27.457717554409882" lon="-11.903372840398053"><ele>267.0</ele><time>2026-04-29T14:48:53Z</time></trkpt><trkpt lat="27.457638094739377" lon="-11.903577799461814"><ele>267.0</ele><time>2026-04-29T14:48:54Z</time></trkpt><trkpt lat="27.45755520324572" lon="-11.903782358187716"><ele>267.0</ele><time>2026-04-29T14:48:55Z</time></trkpt><trkpt lat="27.457471934116114" lon="-11.903986831763229"><ele>267.0</ele><time>2026-04-29T14:48:56Z</time></trkpt><trkpt lat="27.457393913225616" lon="-11.90419836509544"><ele>267.0</ele><time>2026-04-29T14:48:57Z</time></trkpt><trkpt lat="27.457310131469498" lon="-11.904398156255343"><ele>266.6666666666667</ele><time>2026-04-29T14:48:58Z</time></trkpt><trkpt lat="27.45722422870464" lon="-11.904610075177084"><ele>266.33333333333337</ele><time>2026-04-29T14:48:59Z</time></trkpt><trkpt lat="27.45713869904478" lon="-11.90481514645481"><ele>266.0</ele><time>2026-04-29T14:49:00Z</time></trkpt><trkpt lat="27.45705172443206" lon="-11.905020994774707"><ele>266.6666666666667</ele><time>2026-04-29T14:49:01Z</time></trkpt><trkpt lat="27.45696793218762" lon="-11.905226067096157"><ele>267.3333333333333</ele><time>2026-04-29T14:49:02Z</time></trkpt><trkpt lat="27.45688522562438" lon="-11.905433133925811"><ele>268.0</ele><time>2026-04-29T14:49:03Z</time></trkpt><trkpt lat="27.45680800239815" lon="-11.905640008699946"><ele>268.0</ele><time>2026-04-29T14:49:04Z</time></trkpt><trkpt lat="27.456740900232443" lon="-11.905844819451842"><ele>268.0</ele><time>2026-04-29T14:49:05Z</time></trkpt><trkpt lat="27.456673794840523" lon="-11.906063968324188"><ele>268.0</ele><time>2026-04-29T14:49:06Z</time></trkpt><trkpt lat="27.45675248503829" lon="-11.90633385373656"><ele>268.0</ele><time>2026-04-29T14:49:07Z</time></trkpt><trkpt lat="27.45667868161379" lon="-11.906554550195214"><ele>268.0</ele><time>2026-04-29T14:49:08Z</time></trkpt><trkpt lat="27.456606368686312" lon="-11.906771350783366"><ele>268.0</ele><time>2026-04-29T14:49:09Z</time></trkpt><trkpt lat="27.456530474640747" lon="-11.9069998259181"><ele>268.0</ele><time>2026-04-29T14:49:10Z</time></trkpt><trkpt lat="27.45645915385027" lon="-11.907214533578324"><ele>268.0</ele><time>2026-04-29T14:49:11Z</time></trkpt><trkpt lat="27.456388353877596" lon="-11.907427706169424"><ele>268.0</ele><time>2026-04-29T14:49:12Z</time></trkpt><trkpt lat="27.456304600371016" lon="-11.907635554736288"><ele>267.66666666666663</ele><time>2026-04-29T14:49:13Z</time></trkpt><trkpt lat="27.456262129995128" lon="-11.907845875516447"><ele>267.3333333333333</ele><time>2026-04-29T14:49:14Z</time></trkpt><trkpt lat="27.45618272670876" lon="-11.908044369925936"><ele>267.0</ele><time>2026-04-29T14:49:15Z</time></trkpt><trkpt lat="27.456112252827587" lon="-11.908255589862993"><ele>266.6666666666667</ele><time>2026-04-29T14:49:16Z</time></trkpt><trkpt lat="27.456043039926485" lon="-11.908463506403336"><ele>266.33333333333337</ele><time>2026-04-29T14:49:17Z</time></trkpt><trkpt lat="27.455973820704553" lon="-11.908671785090577"><ele>266.0</ele><time>2026-04-29T14:49:18Z</time></trkpt><trkpt lat="27.455888529743067" lon="-11.90886637906363"><ele>266.0</ele><time>2026-04-29T14:49:19Z</time></trkpt><trkpt lat="27.45580317224654" lon="-11.909049229023081"><ele>266.0</ele><time>2026-04-29T14:49:20Z</time></trkpt><trkpt lat="27.45571243894828" lon="-11.909243675937088"><ele>266.0</ele><time>2026-04-29T14:49:21Z</time></trkpt><trkpt lat="27.455610671868644" lon="-11.909460517726556"><ele>266.0</ele><time>2026-04-29T14:49:22Z</time></trkpt><trkpt lat="27.455511301336355" lon="-11.909672275546999"><ele>266.0</ele><time>2026-04-29T14:49:23Z</time></trkpt><trkpt lat="27.45547316672386" lon="-11.90994176703534"><ele>266.5</ele><time>2026-04-29T14:49:24Z</time></trkpt><trkpt lat="27.455370714062685" lon="-11.91017906440084"><ele>267.0</ele><time>2026-04-29T14:49:25Z</time></trkpt><trkpt lat="27.45527658099776" lon="-11.91040685550914"><ele>267.0</ele><time>2026-04-29T14:49:26Z</time></trkpt><trkpt lat="27.455179369165663" lon="-11.910624587742674"><ele>267.0</ele><time>2026-04-29T14:49:27Z</time></trkpt><trkpt lat="27.455081157191486" lon="-11.910858178486224"><ele>267.0</ele><time>2026-04-29T14:49:28Z</time></trkpt><trkpt lat="27.45498312786526" lon="-11.911090228592718"><ele>266.3333333333333</ele><time>2026-04-29T14:49:29Z</time></trkpt><trkpt lat="27.454886916041808" lon="-11.911324652590014"><ele>265.66666666666663</ele><time>2026-04-29T14:49:30Z</time></trkpt><trkpt lat="27.454791684718447" lon="-11.911545035422956"><ele>265.0</ele><time>2026-04-29T14:49:31Z</time></trkpt><trkpt lat="27.454684233022412" lon="-11.911780077730775"><ele>266.0</ele><time>2026-04-29T14:49:32Z</time></trkpt><trkpt lat="27.454577344486314" lon="-11.912009811404326"><ele>267.0</ele><time>2026-04-29T14:49:33Z</time></trkpt><trkpt lat="27.454468775048802" lon="-11.91223468252698"><ele>267.0</ele><time>2026-04-29T14:49:34Z</time></trkpt><trkpt lat="27.454360533624303" lon="-11.912458537768355"><ele>267.0</ele><time>2026-04-29T14:49:35Z</time></trkpt><trkpt lat="27.454259276251246" lon="-11.912677495596968"><ele>267.0</ele><time>2026-04-29T14:49:36Z</time></trkpt><trkpt lat="27.454165151895435" lon="-11.912899264455465"><ele>267.0</ele><time>2026-04-29T14:49:37Z</time></trkpt><trkpt lat="27.4540659730787" lon="-11.913123418476953"><ele>267.0</ele><time>2026-04-29T14:49:38Z</time></trkpt><trkpt lat="27.453973487082212" lon="-11.91334534237265"><ele>267.0</ele><time>2026-04-29T14:49:39Z</time></trkpt><trkpt lat="27.453885445689775" lon="-11.913576462951099"><ele>267.0</ele><time>2026-04-29T14:49:40Z</time></trkpt><trkpt lat="27.45380702847849" lon="-11.913810690575435"><ele>267.0</ele><time>2026-04-29T14:49:41Z</time></trkpt><trkpt lat="27.45373362208636" lon="-11.914042195078764"><ele>267.0</ele><time>2026-04-29T14:49:42Z</time></trkpt><trkpt lat="27.45366159152005" lon="-11.914280033972178"><ele>267.3333333333333</ele><time>2026-04-29T14:49:43Z</time></trkpt><trkpt lat="27.453588575307727" lon="-11.914502944742686"><ele>267.66666666666663</ele><time>2026-04-29T14:49:44Z</time></trkpt><trkpt lat="27.45351998302442" lon="-11.914722132134914"><ele>268.0</ele><time>2026-04-29T14:49:45Z</time></trkpt><trkpt lat="27.453444108981955" lon="-11.914949989340906"><ele>267.0</ele><time>2026-04-29T14:49:46Z</time></trkpt><trkpt lat="27.453375095673504" lon="-11.915180873988705"><ele>266.0</ele><time>2026-04-29T14:49:47Z</time></trkpt><trkpt lat="27.453313381977885" lon="-11.915400549520138"><ele>265.0</ele><time>2026-04-29T14:49:48Z</time></trkpt><trkpt lat="27.453244327619792" lon="-11.915627681216336"><ele>265.0</ele><time>2026-04-29T14:49:49Z</time></trkpt><trkpt lat="27.453170827051935" lon="-11.915862667456295"><ele>265.0</ele><time>2026-04-29T14:49:50Z</time></trkpt><trkpt lat="27.45309451476425" lon="-11.916083148476785"><ele>265.0</ele><time>2026-04-29T14:49:51Z</time></trkpt><trkpt lat="27.453016675381114" lon="-11.916300828989888"><ele>264.66666666666663</ele><time>2026-04-29T14:49:52Z</time></trkpt><trkpt lat="27.45293673457291" lon="-11.916517387695746"><ele>264.3333333333333</ele><time>2026-04-29T14:49:53Z</time></trkpt><trkpt lat="27.45284827157705" lon="-11.916736157728769"><ele>264.0</ele><time>2026-04-29T14:49:54Z</time></trkpt><trkpt lat="27.45275781722664" lon="-11.916957738617857"><ele>264.0</ele><time>2026-04-29T14:49:55Z</time></trkpt><trkpt lat="27.452674524733453" lon="-11.917176224178933"><ele>264.0</ele><time>2026-04-29T14:49:56Z</time></trkpt><trkpt lat="27.452581030797703" lon="-11.917404786115354"><ele>264.0</ele><time>2026-04-29T14:49:57Z</time></trkpt><trkpt lat="27.45250646787481" lon="-11.917619753478814"><ele>265.0</ele><time>2026-04-29T14:49:58Z</time></trkpt><trkpt lat="27.452431499698946" lon="-11.917836080790146"><ele>266.0</ele><time>2026-04-29T14:49:59Z</time></trkpt><trkpt lat="27.452350786690616" lon="-11.918067124945892"><ele>267.0</ele><time>2026-04-29T14:50:00Z</time></trkpt><trkpt lat="27.45226198447196" lon="-11.918276632578932"><ele>266.6666666666667</ele><time>2026-04-29T14:50:01Z</time></trkpt><trkpt lat="27.452173451314906" lon="-11.918495211352722"><ele>266.33333333333337</ele><time>2026-04-29T14:50:02Z</time></trkpt><trkpt lat="27.45208036218382" lon="-11.91869941315494"><ele>266.0</ele><time>2026-04-29T14:50:03Z</time></trkpt><trkpt lat="27.451981607879006" lon="-11.918885255958626"><ele>265.6666666666667</ele><time>2026-04-29T14:50:04Z</time></trkpt><trkpt lat="27.451870629822995" lon="-11.919075685480157"><ele>265.3333333333333</ele><time>2026-04-29T14:50:05Z</time></trkpt><trkpt lat="27.451746505739834" lon="-11.91927224680342"><ele>265.0</ele><time>2026-04-29T14:50:06Z</time></trkpt><trkpt lat="27.451629137792512" lon="-11.919470386795874"><ele>264.66666666666663</ele><time>2026-04-29T14:50:07Z</time></trkpt><trkpt lat="27.45150618652675" lon="-11.919660335188581"><ele>264.3333333333333</ele><time>2026-04-29T14:50:08Z</time></trkpt><trkpt lat="27.451403479596195" lon="-11.919842930227068"><ele>264.0</ele><time>2026-04-29T14:50:09Z</time></trkpt><trkpt lat="27.45128543375731" lon="-11.920056445877318"><ele>264.3333333333333</ele><time>2026-04-29T14:50:10Z</time></trkpt><trkpt lat="27.451173763594063" lon="-11.920261161005337"><ele>264.66666666666663</ele><time>2026-04-29T14:50:11Z</time></trkpt><trkpt lat="27.451069761121566" lon="-11.920463893345529"><ele>265.0</ele><time>2026-04-29T14:50:12Z</time></trkpt><trkpt lat="27.450979849293958" lon="-11.920650245046293"><ele>265.0</ele><time>2026-04-29T14:50:13Z</time></trkpt><trkpt lat="27.450898182794855" lon="-11.920842852029985"><ele>265.0</ele><time>2026-04-29T14:50:14Z</time></trkpt><trkpt lat="27.450833545183865" lon="-11.921040015430549"><ele>265.0</ele><time>2026-04-29T14:50:15Z</time></trkpt><trkpt lat="27.45077773721357" lon="-11.921246670536341"><ele>264.66666666666663</ele><time>2026-04-29T14:50:16Z</time></trkpt><trkpt lat="27.45071924382663" lon="-11.921456781815332"><ele>264.3333333333333</ele><time>2026-04-29T14:50:17Z</time></trkpt><trkpt lat="27.45066926541052" lon="-11.921669489472276"><ele>264.0</ele><time>2026-04-29T14:50:18Z</time></trkpt><trkpt lat="27.450622288743034" lon="-11.921865032739506"><ele>263.3333333333333</ele><time>2026-04-29T14:50:19Z</time></trkpt><trkpt lat="27.450567654706177" lon="-11.92205898900096"><ele>262.66666666666663</ele><time>2026-04-29T14:50:20Z</time></trkpt><trkpt lat="27.450511777249243" lon="-11.92227637547259"><ele>262.0</ele><time>2026-04-29T14:50:21Z</time></trkpt><trkpt lat="27.450447748482638" lon="-11.922497485270798"><ele>262.66666666666663</ele><time>2026-04-29T14:50:22Z</time></trkpt><trkpt lat="27.450378891731688" lon="-11.92272930747761"><ele>263.3333333333333</ele><time>2026-04-29T14:50:23Z</time></trkpt><trkpt lat="27.450307980524965" lon="-11.922964048304724"><ele>264.0</ele><time>2026-04-29T14:50:24Z</time></trkpt><trkpt lat="27.45024188025015" lon="-11.923195608452815"><ele>264.0</ele><time>2026-04-29T14:50:25Z</time></trkpt><trkpt lat="27.450176367066025" lon="-11.923427787732622"><ele>264.0</ele><time>2026-04-29T14:50:26Z</time></trkpt><trkpt lat="27.45011238991271" lon="-11.923651438135314"><ele>264.0</ele><time>2026-04-29T14:50:27Z</time></trkpt><trkpt lat="27.450043960488095" lon="-11.923882766205557"><ele>264.0</ele><time>2026-04-29T14:50:28Z</time></trkpt><trkpt lat="27.449975608422207" lon="-11.92412188921168"><ele>264.0</ele><time>2026-04-29T14:50:29Z</time></trkpt><trkpt lat="27.449903818909068" lon="-11.924360325768566"><ele>264.0</ele><time>2026-04-29T14:50:30Z</time></trkpt><trkpt lat="27.449832055843576" lon="-11.924602295078264"><ele>263.5</ele><time>2026-04-29T14:50:31Z</time></trkpt><trkpt lat="27.449761120531917" lon="-11.924847794316008"><ele>263.0</ele><time>2026-04-29T14:50:32Z</time></trkpt><trkpt lat="27.449679354503907" lon="-11.925106532845293"><ele>264.0</ele><time>2026-04-29T14:50:33Z</time></trkpt><trkpt lat="27.449605855461066" lon="-11.925355301751651"><ele>265.0</ele><time>2026-04-29T14:50:34Z</time></trkpt><trkpt lat="27.44952916478357" lon="-11.925596151775606"><ele>265.0</ele><time>2026-04-29T14:50:35Z</time></trkpt><trkpt lat="27.44945313533707" lon="-11.925830974717185"><ele>265.0</ele><time>2026-04-29T14:50:36Z</time></trkpt><trkpt lat="27.449379528350608" lon="-11.92606352594222"><ele>265.0</ele><time>2026-04-29T14:50:37Z</time></trkpt><trkpt lat="27.449303357081906" lon="-11.926301467059814"><ele>265.0</ele><time>2026-04-29T14:50:38Z</time></trkpt><trkpt lat="27.449222488425292" lon="-11.926542945372328"><ele>265.0</ele><time>2026-04-29T14:50:39Z</time></trkpt><trkpt lat="27.449145666075886" lon="-11.926784823031317"><ele>264.66666666666663</ele><time>2026-04-29T14:50:40Z</time></trkpt><trkpt lat="27.44907084111172" lon="-11.927018285669357"><ele>264.3333333333333</ele><time>2026-04-29T14:50:41Z</time></trkpt><trkpt lat="27.448999308605007" lon="-11.927246361530823"><ele>264.0</ele><time>2026-04-29T14:50:42Z</time></trkpt><trkpt lat="27.448927151922142" lon="-11.927478261781413"><ele>264.0</ele><time>2026-04-29T14:50:43Z</time></trkpt><trkpt lat="27.448864314593955" lon="-11.927699213828088"><ele>264.0</ele><time>2026-04-29T14:50:44Z</time></trkpt><trkpt lat="27.448810543869648" lon="-11.927921922858834"><ele>264.0</ele><time>2026-04-29T14:50:45Z</time></trkpt><trkpt lat="27.448763010919176" lon="-11.928132648398762"><ele>264.0</ele><time>2026-04-29T14:50:46Z</time></trkpt><trkpt lat="27.448721440447052" lon="-11.928335929149979"><ele>264.0</ele><time>2026-04-29T14:50:47Z</time></trkpt><trkpt lat="27.44868536804339" lon="-11.928538951443352"><ele>264.0</ele><time>2026-04-29T14:50:48Z</time></trkpt><trkpt lat="27.448640598437898" lon="-11.92876111843363"><ele>264.0</ele><time>2026-04-29T14:50:49Z</time></trkpt><trkpt lat="27.448599902117603" lon="-11.928991400832798"><ele>264.0</ele><time>2026-04-29T14:50:50Z</time></trkpt><trkpt lat="27.448557874448717" lon="-11.929221804490975"><ele>264.0</ele><time>2026-04-29T14:50:51Z</time></trkpt><trkpt lat="27.44850619824066" lon="-11.92945620012461"><ele>264.3333333333333</ele><time>2026-04-29T14:50:52Z</time></trkpt><trkpt lat="27.44844745472384" lon="-11.929677052339448"><ele>264.66666666666663</ele><time>2026-04-29T14:50:53Z</time></trkpt><trkpt lat="27.44838052769472" lon="-11.929911285078212"><ele>265.0</ele><time>2026-04-29T14:50:54Z</time></trkpt><trkpt lat="27.448311970629955" lon="-11.93013504406094"><ele>265.3333333333333</ele><time>2026-04-29T14:50:55Z</time></trkpt><trkpt lat="27.44824610905667" lon="-11.930352903804499"><ele>265.6666666666667</ele><time>2026-04-29T14:50:56Z</time></trkpt><trkpt lat="27.448181221640436" lon="-11.930578283904108"><ele>266.0</ele><time>2026-04-29T14:50:57Z</time></trkpt><trkpt lat="27.448123068105104" lon="-11.930799009073237"><ele>265.33333333333337</ele><time>2026-04-29T14:50:58Z</time></trkpt><trkpt lat="27.448068544627702" lon="-11.931022745248784"><ele>264.6666666666667</ele><time>2026-04-29T14:50:59Z</time></trkpt><trkpt lat="27.44801287311972" lon="-11.931244486209303"><ele>264.0</ele><time>2026-04-29T14:51:00Z</time></trkpt><trkpt lat="27.447953767302955" lon="-11.931463683263972"><ele>263.6666666666667</ele><time>2026-04-29T14:51:01Z</time></trkpt><trkpt lat="27.44789352005132" lon="-11.931680507249979"><ele>263.33333333333337</ele><time>2026-04-29T14:51:02Z</time></trkpt><trkpt lat="27.447827835959163" lon="-11.931907757794962"><ele>263.0</ele><time>2026-04-29T14:51:03Z</time></trkpt><trkpt lat="27.44776610895544" lon="-11.932129444868968"><ele>263.0</ele><time>2026-04-29T14:51:04Z</time></trkpt><trkpt lat="27.44769650604039" lon="-11.932359584661011"><ele>263.0</ele><time>2026-04-29T14:51:05Z</time></trkpt><trkpt lat="27.447628977577555" lon="-11.932589282056819"><ele>263.0</ele><time>2026-04-29T14:51:06Z</time></trkpt><trkpt lat="27.447558297410982" lon="-11.932815448237577"><ele>263.6666666666667</ele><time>2026-04-29T14:51:07Z</time></trkpt><trkpt lat="27.447490572792653" lon="-11.933033512332468"><ele>264.3333333333333</ele><time>2026-04-29T14:51:08Z</time></trkpt><trkpt lat="27.447426744672835" lon="-11.933266534130514"><ele>265.0</ele><time>2026-04-29T14:51:09Z</time></trkpt><trkpt lat="27.447366941897876" lon="-11.933495782675628"><ele>265.0</ele><time>2026-04-29T14:51:10Z</time></trkpt><trkpt lat="27.44731300543603" lon="-11.933723385141498"><ele>265.0</ele><time>2026-04-29T14:51:11Z</time></trkpt><trkpt lat="27.44727190479339" lon="-11.93395479008748"><ele>265.0</ele><time>2026-04-29T14:51:12Z</time></trkpt><trkpt lat="27.447232318805817" lon="-11.934193260549007"><ele>264.3333333333333</ele><time>2026-04-29T14:51:13Z</time></trkpt><trkpt lat="27.44719258054739" lon="-11.934430486846265"><ele>263.6666666666667</ele><time>2026-04-29T14:51:14Z</time></trkpt><trkpt lat="27.44715096396234" lon="-11.934672898717146"><ele>263.0</ele><time>2026-04-29T14:51:15Z</time></trkpt><trkpt lat="27.447108513464215" lon="-11.934917150806083"><ele>264.0</ele><time>2026-04-29T14:51:16Z</time></trkpt><trkpt lat="27.447059523334467" lon="-11.935178483374083"><ele>265.0</ele><time>2026-04-29T14:51:17Z</time></trkpt><trkpt lat="27.447008035270464" lon="-11.935445221000093"><ele>265.0</ele><time>2026-04-29T14:51:18Z</time></trkpt><trkpt lat="27.44695683197604" lon="-11.935701735809168"><ele>265.0</ele><time>2026-04-29T14:51:19Z</time></trkpt><trkpt lat="27.446905976602473" lon="-11.93595814158298"><ele>264.5</ele><time>2026-04-29T14:51:20Z</time></trkpt><trkpt lat="27.44685262018462" lon="-11.936213098317715"><ele>264.0</ele><time>2026-04-29T14:51:21Z</time></trkpt><trkpt lat="27.446798270056565" lon="-11.936457180861566"><ele>264.0</ele><time>2026-04-29T14:51:22Z</time></trkpt><trkpt lat="27.44674147601368" lon="-11.9367066679593"><ele>264.0</ele><time>2026-04-29T14:51:23Z</time></trkpt><trkpt lat="27.446692492571053" lon="-11.936935231151425"><ele>264.0</ele><time>2026-04-29T14:51:24Z</time></trkpt><trkpt lat="27.446642333727358" lon="-11.937156533005288"><ele>264.0</ele><time>2026-04-29T14:51:25Z</time></trkpt><trkpt lat="27.446596149570762" lon="-11.93738200471455"><ele>264.0</ele><time>2026-04-29T14:51:26Z</time></trkpt><trkpt lat="27.446545883800013" lon="-11.9376106991941"><ele>264.0</ele><time>2026-04-29T14:51:27Z</time></trkpt><trkpt lat="27.44649799694607" lon="-11.9378343521137"><ele>264.3333333333333</ele><time>2026-04-29T14:51:28Z</time></trkpt><trkpt lat="27.446454085857894" lon="-11.9380569002006"><ele>264.66666666666663</ele><time>2026-04-29T14:51:29Z</time></trkpt><trkpt lat="27.446410901605702" lon="-11.938276842693982"><ele>265.0</ele><time>2026-04-29T14:51:30Z</time></trkpt><trkpt lat="27.446365095822472" lon="-11.938492252120065"><ele>265.0</ele><time>2026-04-29T14:51:31Z</time></trkpt><trkpt lat="27.44632140471783" lon="-11.938710557326221"><ele>265.0</ele><time>2026-04-29T14:51:32Z</time></trkpt><trkpt lat="27.446275944768114" lon="-11.938936890485286"><ele>265.0</ele><time>2026-04-29T14:51:33Z</time></trkpt><trkpt lat="27.4462339417427" lon="-11.939159893258061"><ele>264.66666666666663</ele><time>2026-04-29T14:51:34Z</time></trkpt><trkpt lat="27.44619490155348" lon="-11.939385498835225"><ele>264.3333333333333</ele><time>2026-04-29T14:51:35Z</time></trkpt><trkpt lat="27.446157956671378" lon="-11.939600244160937"><ele>264.0</ele><time>2026-04-29T14:51:36Z</time></trkpt><trkpt lat="27.446119175317595" lon="-11.93983351210824"><ele>264.0</ele><time>2026-04-29T14:51:37Z</time></trkpt><trkpt lat="27.44608239326815" lon="-11.940058299189298"><ele>264.0</ele><time>2026-04-29T14:51:38Z</time></trkpt><trkpt lat="27.44604475772548" lon="-11.94028757709504"><ele>264.0</ele><time>2026-04-29T14:51:39Z</time></trkpt><trkpt lat="27.446003937493057" lon="-11.940508263520314"><ele>264.0</ele><time>2026-04-29T14:51:40Z</time></trkpt><trkpt lat="27.445953189740727" lon="-11.940727203026535"><ele>264.0</ele><time>2026-04-29T14:51:41Z</time></trkpt><trkpt lat="27.44590091423172" lon="-11.940933739184569"><ele>264.0</ele><time>2026-04-29T14:51:42Z</time></trkpt><trkpt lat="27.445841631706703" lon="-11.941124382482968"><ele>264.6666666666667</ele><time>2026-04-29T14:51:43Z</time></trkpt><trkpt lat="27.445774924664278" lon="-11.94131783743322"><ele>265.33333333333337</ele><time>2026-04-29T14:51:44Z</time></trkpt><trkpt lat="27.445693801753052" lon="-11.941514515958007"><ele>266.0</ele><time>2026-04-29T14:51:45Z</time></trkpt><trkpt lat="27.445600912917218" lon="-11.94171516626936"><ele>265.33333333333337</ele><time>2026-04-29T14:51:46Z</time></trkpt><trkpt lat="27.445511020199778" lon="-11.941913204773897"><ele>264.6666666666667</ele><time>2026-04-29T14:51:47Z</time></trkpt><trkpt lat="27.445415816781985" lon="-11.942106888162515"><ele>264.0</ele><time>2026-04-29T14:51:48Z</time></trkpt><trkpt lat="27.445335846930007" lon="-11.942295327440238"><ele>263.6666666666667</ele><time>2026-04-29T14:51:49Z</time></trkpt><trkpt lat="27.445261528135966" lon="-11.942495763200075"><ele>263.33333333333337</ele><time>2026-04-29T14:51:50Z</time></trkpt><trkpt lat="27.445188035592228" lon="-11.94270506134486"><ele>263.0</ele><time>2026-04-29T14:51:51Z</time></trkpt><trkpt lat="27.445121274425812" lon="-11.942918030853201"><ele>263.0</ele><time>2026-04-29T14:51:52Z</time></trkpt><trkpt lat="27.44506179335829" lon="-11.943128955134528"><ele>263.0</ele><time>2026-04-29T14:51:53Z</time></trkpt><trkpt lat="27.445004955517728" lon="-11.943356385739659"><ele>263.0</ele><time>2026-04-29T14:51:54Z</time></trkpt><trkpt lat="27.444952656071862" lon="-11.943586735633508"><ele>263.0</ele><time>2026-04-29T14:51:55Z</time></trkpt><trkpt lat="27.44489704767374" lon="-11.943820310975777"><ele>263.0</ele><time>2026-04-29T14:51:56Z</time></trkpt><trkpt lat="27.44483707222273" lon="-11.944049038741237"><ele>263.0</ele><time>2026-04-29T14:51:57Z</time></trkpt><trkpt lat="27.44478021011233" lon="-11.944278755788691"><ele>263.0</ele><time>2026-04-29T14:51:58Z</time></trkpt><trkpt lat="27.444723052898105" lon="-11.94450811086461"><ele>263.0</ele><time>2026-04-29T14:51:59Z</time></trkpt><trkpt lat="27.444670767237298" lon="-11.944730186010931"><ele>263.0</ele><time>2026-04-29T14:52:00Z</time></trkpt><trkpt lat="27.44461904651987" lon="-11.944950554825308"><ele>263.33333333333337</ele><time>2026-04-29T14:52:01Z</time></trkpt><trkpt lat="27.444560615061757" lon="-11.945189827297394"><ele>263.6666666666667</ele><time>2026-04-29T14:52:02Z</time></trkpt><trkpt lat="27.444499338694477" lon="-11.945430601049754"><ele>264.0</ele><time>2026-04-29T14:52:03Z</time></trkpt><trkpt lat="27.444434895882488" lon="-11.945677172193479"><ele>263.3333333333333</ele><time>2026-04-29T14:52:04Z</time></trkpt><trkpt lat="27.44437331885334" lon="-11.945920639181326"><ele>262.66666666666663</ele><time>2026-04-29T14:52:05Z</time></trkpt><trkpt lat="27.44431249335274" lon="-11.946163722817834"><ele>262.0</ele><time>2026-04-29T14:52:06Z</time></trkpt><trkpt lat="27.44425126110919" lon="-11.946406452076626"><ele>262.0</ele><time>2026-04-29T14:52:07Z</time></trkpt><trkpt lat="27.444192144124592" lon="-11.946651147671435"><ele>262.0</ele><time>2026-04-29T14:52:08Z</time></trkpt><trkpt lat="27.444133056811257" lon="-11.94687901084151"><ele>262.0</ele><time>2026-04-29T14:52:09Z</time></trkpt><trkpt lat="27.444067247105718" lon="-11.947118723225477"><ele>262.0</ele><time>2026-04-29T14:52:10Z</time></trkpt><trkpt lat="27.44400476395436" lon="-11.947352419851663"><ele>262.0</ele><time>2026-04-29T14:52:11Z</time></trkpt><trkpt lat="27.443933923179177" lon="-11.947605522872848"><ele>262.3333333333333</ele><time>2026-04-29T14:52:12Z</time></trkpt><trkpt lat="27.44387064208046" lon="-11.947845916752591"><ele>262.6666666666667</ele><time>2026-04-29T14:52:13Z</time></trkpt><trkpt lat="27.443811453632577" lon="-11.948068266191836"><ele>263.0</ele><time>2026-04-29T14:52:14Z</time></trkpt><trkpt lat="27.44374937678063" lon="-11.948288569064541"><ele>262.0</ele><time>2026-04-29T14:52:15Z</time></trkpt><trkpt lat="27.443694576786644" lon="-11.948498979987422"><ele>261.0</ele><time>2026-04-29T14:52:16Z</time></trkpt><trkpt lat="27.44364179849838" lon="-11.948707397413598"><ele>260.0</ele><time>2026-04-29T14:52:17Z</time></trkpt><trkpt lat="27.443595922345224" lon="-11.948904261660175"><ele>260.0</ele><time>2026-04-29T14:52:18Z</time></trkpt><trkpt lat="27.44355001968732" lon="-11.949101084470112"><ele>260.0</ele><time>2026-04-29T14:52:19Z</time></trkpt><trkpt lat="27.44351459775976" lon="-11.949281691185659"><ele>260.0</ele><time>2026-04-29T14:52:20Z</time></trkpt><trkpt lat="27.443482410467666" lon="-11.949444375002908"><ele>260.5</ele><time>2026-04-29T14:52:21Z</time></trkpt><trkpt lat="27.44345084468632" lon="-11.949591570058828"><ele>261.0</ele><time>2026-04-29T14:52:22Z</time></trkpt><trkpt lat="27.443421889417" lon="-11.949726742898289"><ele>261.5</ele><time>2026-04-29T14:52:23Z</time></trkpt><trkpt lat="27.443400356704288" lon="-11.949854857719407"><ele>262.0</ele><time>2026-04-29T14:52:24Z</time></trkpt><trkpt lat="27.443378688850306" lon="-11.94999912193818"><ele>262.0</ele><time>2026-04-29T14:52:25Z</time></trkpt><trkpt lat="27.443352472253352" lon="-11.950169010191575"><ele>262.0</ele><time>2026-04-29T14:52:26Z</time></trkpt><trkpt lat="27.44332202085344" lon="-11.950364931293652"><ele>262.0</ele><time>2026-04-29T14:52:27Z</time></trkpt><trkpt lat="27.4432935245397" lon="-11.95056507365536"><ele>262.0</ele><time>2026-04-29T14:52:28Z</time></trkpt><trkpt lat="27.443269833503823" lon="-11.950763728774263"><ele>262.0</ele><time>2026-04-29T14:52:29Z</time></trkpt><trkpt lat="27.443244052200672" lon="-11.950960472033927"><ele>262.0</ele><time>2026-04-29T14:52:30Z</time></trkpt><trkpt lat="27.443215996316617" lon="-11.951157423243998"><ele>262.0</ele><time>2026-04-29T14:52:31Z</time></trkpt><trkpt lat="27.443195195911283" lon="-11.951349630823561"><ele>262.0</ele><time>2026-04-29T14:52:32Z</time></trkpt><trkpt lat="27.443177333125252" lon="-11.951543862741094"><ele>262.0</ele><time>2026-04-29T14:52:33Z</time></trkpt><trkpt lat="27.443159602219758" lon="-11.951734514817504"><ele>261.66666666666663</ele><time>2026-04-29T14:52:34Z</time></trkpt><trkpt lat="27.443138236760454" lon="-11.95192167976837"><ele>261.3333333333333</ele><time>2026-04-29T14:52:35Z</time></trkpt><trkpt lat="27.443111669578766" lon="-11.952115208388083"><ele>261.0</ele><time>2026-04-29T14:52:36Z</time></trkpt><trkpt lat="27.443082161663238" lon="-11.952321287489902"><ele>261.0</ele><time>2026-04-29T14:52:37Z</time></trkpt><trkpt lat="27.443054646559407" lon="-11.952535875448582"><ele>261.0</ele><time>2026-04-29T14:52:38Z</time></trkpt><trkpt lat="27.44302586205738" lon="-11.952772399275668"><ele>261.0</ele><time>2026-04-29T14:52:39Z</time></trkpt><trkpt lat="27.4429974358906" lon="-11.952999523985998"><ele>261.0</ele><time>2026-04-29T14:52:40Z</time></trkpt><trkpt lat="27.442967742822407" lon="-11.953217838918498"><ele>261.0</ele><time>2026-04-29T14:52:41Z</time></trkpt><trkpt lat="27.442941223304054" lon="-11.95343168482457"><ele>261.0</ele><time>2026-04-29T14:52:42Z</time></trkpt><trkpt lat="27.442915033489058" lon="-11.953634654747644"><ele>261.6666666666667</ele><time>2026-04-29T14:52:43Z</time></trkpt><trkpt lat="27.442887710169096" lon="-11.953828383338815"><ele>262.33333333333337</ele><time>2026-04-29T14:52:44Z</time></trkpt><trkpt lat="27.44286590812272" lon="-11.95402059236476"><ele>263.0</ele><time>2026-04-29T14:52:45Z</time></trkpt><trkpt lat="27.442838730566546" lon="-11.954208680731778"><ele>263.0</ele><time>2026-04-29T14:52:46Z</time></trkpt><trkpt lat="27.442811532501263" lon="-11.954401088272181"><ele>263.0</ele><time>2026-04-29T14:52:47Z</time></trkpt><trkpt lat="27.442785845799207" lon="-11.954592771077461"><ele>263.0</ele><time>2026-04-29T14:52:48Z</time></trkpt><trkpt lat="27.442758193863916" lon="-11.954785317239066"><ele>263.0</ele><time>2026-04-29T14:52:49Z</time></trkpt><trkpt lat="27.442727903735022" lon="-11.954961056288717"><ele>263.0</ele><time>2026-04-29T14:52:50Z</time></trkpt><trkpt lat="27.442697158741158" lon="-11.955137307712345"><ele>263.0</ele><time>2026-04-29T14:52:51Z</time></trkpt><trkpt lat="27.442668253969202" lon="-11.955317482468123"><ele>263.0</ele><time>2026-04-29T14:52:52Z</time></trkpt><trkpt lat="27.442641983434235" lon="-11.95548722756909"><ele>263.0</ele><time>2026-04-29T14:52:53Z</time></trkpt><trkpt lat="27.442616665813144" lon="-11.95564599203092"><ele>263.0</ele><time>2026-04-29T14:52:54Z</time></trkpt><trkpt lat="27.442589857844357" lon="-11.955808881516004"><ele>263.0</ele><time>2026-04-29T14:52:55Z</time></trkpt><trkpt lat="27.44257130554963" lon="-11.955968429767807"><ele>263.0</ele><time>2026-04-29T14:52:56Z</time></trkpt><trkpt lat="27.442553680630954" lon="-11.956145073298197"><ele>263.0</ele><time>2026-04-29T14:52:57Z</time></trkpt><trkpt lat="27.442540573057947" lon="-11.956329762853484"><ele>263.0</ele><time>2026-04-29T14:52:58Z</time></trkpt><trkpt lat="27.44252498366987" lon="-11.956520428620761"><ele>263.0</ele><time>2026-04-29T14:52:59Z</time></trkpt><trkpt lat="27.442502394335914" lon="-11.956723819820771"><ele>263.0</ele><time>2026-04-29T14:53:00Z</time></trkpt><trkpt lat="27.442481697456664" lon="-11.956928514244982"><ele>263.0</ele><time>2026-04-29T14:53:01Z</time></trkpt><trkpt lat="27.442460311388864" lon="-11.957130636297633"><ele>263.0</ele><time>2026-04-29T14:53:02Z</time></trkpt><trkpt lat="27.442437279155985" lon="-11.957340520176691"><ele>263.0</ele><time>2026-04-29T14:53:03Z</time></trkpt><trkpt lat="27.442420840833055" lon="-11.957544649645746"><ele>263.0</ele><time>2026-04-29T14:53:04Z</time></trkpt><trkpt lat="27.44241305265055" lon="-11.957747470596415"><ele>262.0</ele><time>2026-04-29T14:53:05Z</time></trkpt><trkpt lat="27.44240346719695" lon="-11.957945229783128"><ele>261.0</ele><time>2026-04-29T14:53:06Z</time></trkpt><trkpt lat="27.442391098055484" lon="-11.958138697125632"><ele>260.0</ele><time>2026-04-29T14:53:07Z</time></trkpt><trkpt lat="27.44237691379648" lon="-11.95832456890994"><ele>259.75</ele><time>2026-04-29T14:53:08Z</time></trkpt><trkpt lat="27.442364933085475" lon="-11.958488990700642"><ele>259.5</ele><time>2026-04-29T14:53:09Z</time></trkpt><trkpt lat="27.44235581238358" lon="-11.958643358773646"><ele>259.25</ele><time>2026-04-29T14:53:10Z</time></trkpt><trkpt lat="27.442350191761648" lon="-11.958781064446482"><ele>259.0</ele><time>2026-04-29T14:53:11Z</time></trkpt><trkpt lat="27.44233988077039" lon="-11.958924718349111"><ele>259.0</ele><time>2026-04-29T14:53:12Z</time></trkpt><trkpt lat="27.44232440721308" lon="-11.959071959311142"><ele>259.0</ele><time>2026-04-29T14:53:13Z</time></trkpt><trkpt lat="27.44230397336889" lon="-11.959226875152545"><ele>259.0</ele><time>2026-04-29T14:53:14Z</time></trkpt><trkpt lat="27.442272022990995" lon="-11.95938383722226"><ele>259.0</ele><time>2026-04-29T14:53:15Z</time></trkpt><trkpt lat="27.442230366308863" lon="-11.95953396569893"><ele>259.5</ele><time>2026-04-29T14:53:16Z</time></trkpt><trkpt lat="27.442197608651085" lon="-11.95966762831457"><ele>260.0</ele><time>2026-04-29T14:53:17Z</time></trkpt><trkpt lat="27.44218246370009" lon="-11.95979388114781"><ele>260.5</ele><time>2026-04-29T14:53:18Z</time></trkpt><trkpt lat="27.442180401809395" lon="-11.95992415532661"><ele>261.0</ele><time>2026-04-29T14:53:19Z</time></trkpt><trkpt lat="27.44216109046115" lon="-11.960039571164442"><ele>261.0</ele><time>2026-04-29T14:53:20Z</time></trkpt><trkpt lat="27.442124406960517" lon="-11.960138628905634"><ele>261.0</ele><time>2026-04-29T14:53:21Z</time></trkpt><trkpt lat="27.44209177688116" lon="-11.960227123531078"><ele>261.0</ele><time>2026-04-29T14:53:22Z</time></trkpt><trkpt lat="27.442083594176975" lon="-11.960320421539931"><ele>261.0</ele><time>2026-04-29T14:53:23Z</time></trkpt><trkpt lat="27.44211150044522" lon="-11.960456622510184"><ele>261.0</ele><time>2026-04-29T14:53:24Z</time></trkpt><trkpt lat="27.442162753994953" lon="-11.960606046346783"><ele>261.0</ele><time>2026-04-29T14:53:25Z</time></trkpt><trkpt lat="27.44219343838007" lon="-11.960724675164549"><ele>261.0</ele><time>2026-04-29T14:53:26Z</time></trkpt><trkpt lat="27.442210358189012" lon="-11.960823455423158"><ele>261.0</ele><time>2026-04-29T14:53:27Z</time></trkpt><trkpt lat="27.442234146204935" lon="-11.960912966272408"><ele>261.0</ele><time>2026-04-29T14:53:28Z</time></trkpt><trkpt lat="27.442270796303017" lon="-11.961002336858096"><ele>261.0</ele><time>2026-04-29T14:53:29Z</time></trkpt><trkpt lat="27.44231846221337" lon="-11.961087596368987"><ele>260.6666666666667</ele><time>2026-04-29T14:53:30Z</time></trkpt><trkpt lat="27.44235406826217" lon="-11.961208888497998"><ele>260.33333333333337</ele><time>2026-04-29T14:53:31Z</time></trkpt><trkpt lat="27.44236600238748" lon="-11.961392560729163"><ele>260.0</ele><time>2026-04-29T14:53:32Z</time></trkpt><trkpt lat="27.44235380505353" lon="-11.961610639983691"><ele>260.75</ele><time>2026-04-29T14:53:33Z</time></trkpt><trkpt lat="27.442330417644953" lon="-11.961786255072404"><ele>261.5</ele><time>2026-04-29T14:53:34Z</time></trkpt><trkpt lat="27.442306709091692" lon="-11.961934152246652"><ele>262.25</ele><time>2026-04-29T14:53:35Z</time></trkpt><trkpt lat="27.442282089935027" lon="-11.96206431990856"><ele>263.0</ele><time>2026-04-29T14:53:36Z</time></trkpt><trkpt lat="27.442265976185237" lon="-11.962182860944479"><ele>263.0</ele><time>2026-04-29T14:53:37Z</time></trkpt><trkpt lat="27.442255250616583" lon="-11.962290541671164"><ele>263.0</ele><time>2026-04-29T14:53:38Z</time></trkpt><trkpt lat="27.44223828784489" lon="-11.96238716063149"><ele>263.0</ele><time>2026-04-29T14:53:39Z</time></trkpt><trkpt lat="27.442215387428714" lon="-11.962473264393207"><ele>263.0</ele><time>2026-04-29T14:53:40Z</time></trkpt><trkpt lat="27.44218863921553" lon="-11.962545047891082"><ele>263.0</ele><time>2026-04-29T14:53:41Z</time></trkpt><trkpt lat="27.44214074351794" lon="-11.962661622446015"><ele>263.0</ele><time>2026-04-29T14:53:43Z</time></trkpt><trkpt lat="27.442092918561936" lon="-11.962737390949613"><ele>262.2</ele><time>2026-04-29T14:53:45Z</time></trkpt><trkpt lat="27.442039309245242" lon="-11.962785128175142"><ele>261.4</ele><time>2026-04-29T14:53:47Z</time></trkpt><trkpt lat="27.442031281639043" lon="-11.96289536600076"><ele>260.59999999999997</ele><time>2026-04-29T14:53:49Z</time></trkpt><trkpt lat="27.442080075310766" lon="-11.963005058503098"><ele>259.8</ele><time>2026-04-29T14:53:50Z</time></trkpt><trkpt lat="27.442149519746675" lon="-11.963103654403692"><ele>259.0</ele><time>2026-04-29T14:53:51Z</time></trkpt><trkpt lat="27.442185935366382" lon="-11.963177339344977"><ele>258.8333333333333</ele><time>2026-04-29T14:53:52Z</time></trkpt><trkpt lat="27.4422112988399" lon="-11.96327717809997"><ele>258.66666666666663</ele><time>2026-04-29T14:53:54Z</time></trkpt><trkpt lat="27.442201376732918" lon="-11.96335433394937"><ele>258.5</ele><time>2026-04-29T14:53:56Z</time></trkpt><trkpt lat="27.442170215870654" lon="-11.963435321371923"><ele>258.3333333333333</ele><time>2026-04-29T14:53:58Z</time></trkpt><trkpt lat="27.44213476131623" lon="-11.963534622734976"><ele>258.1666666666667</ele><time>2026-04-29T14:54:00Z</time></trkpt><trkpt lat="27.44204034327145" lon="-11.963596395099232"><ele>258.0</ele><time>2026-04-29T14:54:02Z</time></trkpt><trkpt lat="27.441948521195854" lon="-11.963605030074923"><ele>258.2</ele><time>2026-04-29T14:54:03Z</time></trkpt><trkpt lat="27.441875492477095" lon="-11.96358315456377"><ele>258.4</ele><time>2026-04-29T14:54:04Z</time></trkpt><trkpt lat="27.441819065130538" lon="-11.96348432737888"><ele>258.59999999999997</ele><time>2026-04-29T14:54:06Z</time></trkpt><trkpt lat="27.441811018263344" lon="-11.963401837674033"><ele>258.8</ele><time>2026-04-29T14:54:07Z</time></trkpt><trkpt lat="27.441826662118" lon="-11.963277981829489"><ele>259.0</ele><time>2026-04-29T14:54:08Z</time></trkpt><trkpt lat="27.441840749976052" lon="-11.963169549108386"><ele>259.0</ele><time>2026-04-29T14:54:09Z</time></trkpt><trkpt lat="27.441841413994286" lon="-11.963066991791228"><ele>259.0</ele><time>2026-04-29T14:54:11Z</time></trkpt><trkpt lat="27.44175023722547" lon="-11.963040434982574"><ele>259.0</ele><time>2026-04-29T14:54:32Z</time></trkpt><trkpt lat="27.441689049307254" lon="-11.96313775441266"><ele>259.0</ele><time>2026-04-29T14:54:34Z</time></trkpt><trkpt lat="27.44166267666124" lon="-11.963214077647004"><ele>259.0</ele><time>2026-04-29T14:54:35Z</time></trkpt><trkpt lat="27.44163072368967" lon="-11.963307180638447"><ele>259.5</ele><time>2026-04-29T14:54:36Z</time></trkpt><trkpt lat="27.44158964038965" lon="-11.963416238731904"><ele>260.0</ele><time>2026-04-29T14:54:37Z</time></trkpt><trkpt lat="27.44153309899752" lon="-11.963552011579463"><ele>260.5</ele><time>2026-04-29T14:54:38Z</time></trkpt><trkpt lat="27.44146843041004" lon="-11.96371084901817"><ele>261.0</ele><time>2026-04-29T14:54:39Z</time></trkpt><trkpt lat="27.44138771413381" lon="-11.963898183936955"><ele>260.6666666666667</ele><time>2026-04-29T14:54:40Z</time></trkpt><trkpt lat="27.441297462951734" lon="-11.96410157126743"><ele>260.33333333333337</ele><time>2026-04-29T14:54:41Z</time></trkpt><trkpt lat="27.44120247403916" lon="-11.964311797528115"><ele>260.0</ele><time>2026-04-29T14:54:42Z</time></trkpt><trkpt lat="27.441119939229267" lon="-11.96449855673118"><ele>260.5</ele><time>2026-04-29T14:54:43Z</time></trkpt><trkpt lat="27.441053766910542" lon="-11.964652399841837"><ele>261.0</ele><time>2026-04-29T14:54:44Z</time></trkpt><trkpt lat="27.440999897391496" lon="-11.964782633375197"><ele>261.5</ele><time>2026-04-29T14:54:45Z</time></trkpt><trkpt lat="27.440953200435292" lon="-11.964891436683013"><ele>262.0</ele><time>2026-04-29T14:54:46Z</time></trkpt><trkpt lat="27.440917315997638" lon="-11.964974640260655"><ele>262.2</ele><time>2026-04-29T14:54:47Z</time></trkpt><trkpt lat="27.44087195437207" lon="-11.965082812371815"><ele>262.4</ele><time>2026-04-29T14:54:49Z</time></trkpt><trkpt lat="27.44086980279515" lon="-11.965167289648086"><ele>262.6</ele><time>2026-04-29T14:56:53.999Z</time></trkpt><trkpt lat="27.440931743244217" lon="-11.965264123062177"><ele>262.8</ele><time>2026-04-29T14:56:55.999Z</time></trkpt><trkpt lat="27.441039745433418" lon="-11.96530931217183"><ele>263.0</ele><time>2026-04-29T14:56:57.999Z</time></trkpt><trkpt lat="27.441113658086113" lon="-11.965299815426391"><ele>263.0</ele><time>2026-04-29T14:56:58.999Z</time></trkpt><trkpt lat="27.441196022711534" lon="-11.96525128769488"><ele>263.0</ele><time>2026-04-29T14:56:59.999Z</time></trkpt><trkpt lat="27.441279759623395" lon="-11.965147040099508"><ele>263.0</ele><time>2026-04-29T14:57:00.999Z</time></trkpt><trkpt lat="27.44133381655853" lon="-11.965000819780267"><ele>263.0</ele><time>2026-04-29T14:57:01.999Z</time></trkpt><trkpt lat="27.441370364359422" lon="-11.964825287125965"><ele>263.0</ele><time>2026-04-29T14:57:02.999Z</time></trkpt><trkpt lat="27.44138980672719" lon="-11.964689198052486"><ele>263.0</ele><time>2026-04-29T14:57:03.999Z</time></trkpt><trkpt lat="27.44141936037327" lon="-11.96457894829476"><ele>263.0</ele><time>2026-04-29T14:57:04.999Z</time></trkpt><trkpt lat="27.441460042911995" lon="-11.96449343272857"><ele>263.0</ele><time>2026-04-29T14:57:05.999Z</time></trkpt><trkpt lat="27.44151283396233" lon="-11.964432569683995"><ele>263.0</ele><time>2026-04-29T14:57:06.999Z</time></trkpt><trkpt lat="27.441570844739875" lon="-11.964394621705061"><ele>263.0</ele><time>2026-04-29T14:57:07.999Z</time></trkpt><trkpt lat="27.44167431516855" lon="-11.964390362417689"><ele>263.0</ele><time>2026-04-29T14:57:09.999Z</time></trkpt><trkpt lat="27.441760105750525" lon="-11.964379342467298"><ele>263.0</ele><time>2026-04-29T14:57:11.999Z</time></trkpt><trkpt lat="27.441830955450218" lon="-11.964388705210327"><ele>263.0</ele><time>2026-04-29T14:57:12.999Z</time></trkpt><trkpt lat="27.441895334385087" lon="-11.96439359477945"><ele>263.0</ele><time>2026-04-29T14:57:13.999Z</time></trkpt><trkpt lat="27.441997895523347" lon="-11.964389619102745"><ele>263.0</ele><time>2026-04-29T14:57:15.999Z</time></trkpt><trkpt lat="27.44207266219818" lon="-11.964493808899178"><ele>263.0</ele><time>2026-04-29T14:57:17.999Z</time></trkpt><trkpt lat="27.442137589783034" lon="-11.96460303496819"><ele>263.0</ele><time>2026-04-29T14:57:19.999Z</time></trkpt><trkpt lat="27.442262880476342" lon="-11.964634024828303"><ele>263.0</ele><time>2026-04-29T14:57:21.999Z</time></trkpt><trkpt lat="27.442344028094354" lon="-11.964589778688895"><ele>263.0</ele><time>2026-04-29T14:57:22.999Z</time></trkpt><trkpt lat="27.442401977932672" lon="-11.964505653759263"><ele>263.0</ele><time>2026-04-29T14:57:23.999Z</time></trkpt><trkpt lat="27.442433033009987" lon="-11.964374387498538"><ele>263.0</ele><time>2026-04-29T14:57:24.999Z</time></trkpt><trkpt lat="27.442412657226214" lon="-11.964231748057934"><ele>263.0</ele><time>2026-04-29T14:57:25.999Z</time></trkpt><trkpt lat="27.442366083142772" lon="-11.96412831532694"><ele>263.0</ele><time>2026-04-29T14:57:26.999Z</time></trkpt><trkpt lat="27.442313083330514" lon="-11.964072455598988"><ele>263.0</ele><time>2026-04-29T14:57:27.999Z</time></trkpt><trkpt lat="27.442251241846996" lon="-11.964034992845574"><ele>263.0</ele><time>2026-04-29T14:57:28.999Z</time></trkpt><trkpt lat="27.44217914480512" lon="-11.963983945069534"><ele>262.6</ele><time>2026-04-29T14:57:29.999Z</time></trkpt><trkpt lat="27.442108632265043" lon="-11.963926341878011"><ele>262.20000000000005</ele><time>2026-04-29T14:57:30.999Z</time></trkpt><trkpt lat="27.442037124517437" lon="-11.963887174131319"><ele>261.8</ele><time>2026-04-29T14:57:31.999Z</time></trkpt><trkpt lat="27.44197916411742" lon="-11.963820289186653"><ele>261.40000000000003</ele><time>2026-04-29T14:57:32.999Z</time></trkpt><trkpt lat="27.441919156396498" lon="-11.963691925573775"><ele>261.0</ele><time>2026-04-29T14:57:33.999Z</time></trkpt><trkpt lat="27.44187625014648" lon="-11.963568080237435"><ele>261.0</ele><time>2026-04-29T14:57:34.999Z</time></trkpt><trkpt lat="27.441857744277293" lon="-11.963471140716948"><ele>261.0</ele><time>2026-04-29T14:57:35.999Z</time></trkpt><trkpt lat="27.441852337642256" lon="-11.963391691349557"><ele>261.0</ele><time>2026-04-29T14:57:36.999Z</time></trkpt><trkpt lat="27.441839611765115" lon="-11.963273674380412"><ele>261.0</ele><time>2026-04-29T14:57:38.999Z</time></trkpt><trkpt lat="27.44182734058719" lon="-11.963177826701568"><ele>261.0</ele><time>2026-04-29T14:57:40.999Z</time></trkpt><trkpt lat="27.4417955643721" lon="-11.963115088286083"><ele>261.0</ele><time>2026-04-29T14:57:43.999Z</time></trkpt><trkpt lat="27.441794508852816" lon="-11.963035895902525"><ele>260.6</ele><time>2026-04-29T15:38:20Z</time></trkpt><trkpt lat="27.44178386800681" lon="-11.962955639648362"><ele>260.20000000000005</ele><time>2026-04-29T15:38:21Z</time></trkpt><trkpt lat="27.441795584114022" lon="-11.962860434086473"><ele>259.79999999999995</ele><time>2026-04-29T15:38:22Z</time></trkpt><trkpt lat="27.441820329839466" lon="-11.962754002156244"><ele>259.4</ele><time>2026-04-29T15:38:23Z</time></trkpt><trkpt lat="27.441861460338806" lon="-11.962621537479414"><ele>259.0</ele><time>2026-04-29T15:38:24Z</time></trkpt><trkpt lat="27.441903208797243" lon="-11.962486143064288"><ele>260.25</ele><time>2026-04-29T15:38:25Z</time></trkpt><trkpt lat="27.441942530659535" lon="-11.96235119161072"><ele>261.5</ele><time>2026-04-29T15:38:26Z</time></trkpt><trkpt lat="27.44197570758519" lon="-11.962214632018922"><ele>262.75</ele><time>2026-04-29T15:38:27Z</time></trkpt><trkpt lat="27.442011571507958" lon="-11.962062120468088"><ele>264.0</ele><time>2026-04-29T15:38:28Z</time></trkpt><trkpt lat="27.442049457674603" lon="-11.961905446549007"><ele>264.0</ele><time>2026-04-29T15:38:29Z</time></trkpt><trkpt lat="27.442083827074963" lon="-11.961752047877352"><ele>264.0</ele><time>2026-04-29T15:38:30Z</time></trkpt><trkpt lat="27.442116394116084" lon="-11.961601759330668"><ele>264.0</ele><time>2026-04-29T15:38:31Z</time></trkpt><trkpt lat="27.442145895902062" lon="-11.96145466074542"><ele>264.0</ele><time>2026-04-29T15:38:32Z</time></trkpt><trkpt lat="27.442177447386722" lon="-11.961309243125383"><ele>263.25</ele><time>2026-04-29T15:38:33Z</time></trkpt><trkpt lat="27.442205895572197" lon="-11.961162743340164"><ele>262.5</ele><time>2026-04-29T15:38:34Z</time></trkpt><trkpt lat="27.442231397079524" lon="-11.961003630952485"><ele>261.75</ele><time>2026-04-29T15:38:35Z</time></trkpt><trkpt lat="27.442252477657938" lon="-11.960843556285997"><ele>261.0</ele><time>2026-04-29T15:38:36Z</time></trkpt><trkpt lat="27.442272063576418" lon="-11.960681530455929"><ele>261.0</ele><time>2026-04-29T15:38:37Z</time></trkpt><trkpt lat="27.442289515489385" lon="-11.960518427661397"><ele>261.0</ele><time>2026-04-29T15:38:38Z</time></trkpt><trkpt lat="27.442307244006123" lon="-11.960358661495539"><ele>261.0</ele><time>2026-04-29T15:38:39Z</time></trkpt><trkpt lat="27.44232762535786" lon="-11.960197955094397"><ele>261.0</ele><time>2026-04-29T15:38:40Z</time></trkpt><trkpt lat="27.44234499406145" lon="-11.960053116020065"><ele>262.25</ele><time>2026-04-29T15:38:41Z</time></trkpt><trkpt lat="27.442363397962804" lon="-11.959917310479986"><ele>263.5</ele><time>2026-04-29T15:38:42Z</time></trkpt><trkpt lat="27.442375614977035" lon="-11.95977259609013"><ele>264.75</ele><time>2026-04-29T15:38:43Z</time></trkpt><trkpt lat="27.442380401138028" lon="-11.95962516517972"><ele>266.0</ele><time>2026-04-29T15:38:44Z</time></trkpt><trkpt lat="27.442385176837064" lon="-11.959472674099247"><ele>266.0</ele><time>2026-04-29T15:38:45Z</time></trkpt><trkpt lat="27.442384522955365" lon="-11.959321638849037"><ele>266.0</ele><time>2026-04-29T15:38:46Z</time></trkpt><trkpt lat="27.442381682702226" lon="-11.959176041147428"><ele>266.0</ele><time>2026-04-29T15:38:47Z</time></trkpt><trkpt lat="27.44237754711343" lon="-11.959029241279188"><ele>266.0</ele><time>2026-04-29T15:38:48Z</time></trkpt><trkpt lat="27.44237479173133" lon="-11.95887608265911"><ele>264.5</ele><time>2026-04-29T15:38:49Z</time></trkpt><trkpt lat="27.442374259716885" lon="-11.958723042085582"><ele>263.0</ele><time>2026-04-29T15:38:50Z</time></trkpt><trkpt lat="27.4423749648492" lon="-11.95855879880282"><ele>261.5</ele><time>2026-04-29T15:38:51Z</time></trkpt><trkpt lat="27.442378101007623" lon="-11.958392885045019"><ele>260.0</ele><time>2026-04-29T15:38:52Z</time></trkpt><trkpt lat="27.442385552423268" lon="-11.958222780921686"><ele>260.0</ele><time>2026-04-29T15:38:53Z</time></trkpt><trkpt lat="27.442395940772606" lon="-11.95805226200976"><ele>260.0</ele><time>2026-04-29T15:38:54Z</time></trkpt><trkpt lat="27.442408583606603" lon="-11.957883496420537"><ele>260.0</ele><time>2026-04-29T15:38:55Z</time></trkpt><trkpt lat="27.442420846752857" lon="-11.957712751804834"><ele>260.0</ele><time>2026-04-29T15:38:56Z</time></trkpt><trkpt lat="27.44243442178814" lon="-11.957548023243316"><ele>260.0</ele><time>2026-04-29T15:38:57Z</time></trkpt><trkpt lat="27.442449957206758" lon="-11.95737556764313"><ele>260.0</ele><time>2026-04-29T15:38:58Z</time></trkpt><trkpt lat="27.442473388478763" lon="-11.957195966708284"><ele>261.0</ele><time>2026-04-29T15:38:59Z</time></trkpt><trkpt lat="27.442491084023107" lon="-11.957014073288187"><ele>262.0</ele><time>2026-04-29T15:39:00Z</time></trkpt><trkpt lat="27.442501802633487" lon="-11.956829079432705"><ele>263.0</ele><time>2026-04-29T15:39:01Z</time></trkpt><trkpt lat="27.442517279302063" lon="-11.956643688469994"><ele>263.0</ele><time>2026-04-29T15:39:02Z</time></trkpt><trkpt lat="27.44253522756472" lon="-11.956461075080394"><ele>263.0</ele><time>2026-04-29T15:39:03Z</time></trkpt><trkpt lat="27.442557087051664" lon="-11.95627740869331"><ele>263.0</ele><time>2026-04-29T15:39:04Z</time></trkpt><trkpt lat="27.442583444582354" lon="-11.956088320036319"><ele>263.0</ele><time>2026-04-29T15:39:05Z</time></trkpt><trkpt lat="27.442612883369947" lon="-11.955898917995421"><ele>263.0</ele><time>2026-04-29T15:39:06Z</time></trkpt><trkpt lat="27.442639728990695" lon="-11.95571152628755"><ele>263.0</ele><time>2026-04-29T15:39:07Z</time></trkpt><trkpt lat="27.442667917093" lon="-11.955523786767293"><ele>263.0</ele><time>2026-04-29T15:39:08Z</time></trkpt><trkpt lat="27.44269951219521" lon="-11.955336466879794"><ele>263.0</ele><time>2026-04-29T15:39:09Z</time></trkpt><trkpt lat="27.44272847226987" lon="-11.955169914212483"><ele>263.0</ele><time>2026-04-29T15:39:10Z</time></trkpt><trkpt lat="27.442756195244268" lon="-11.95500218963853"><ele>263.0</ele><time>2026-04-29T15:39:11Z</time></trkpt><trkpt lat="27.44278103496801" lon="-11.954836775083166"><ele>263.0</ele><time>2026-04-29T15:39:12Z</time></trkpt><trkpt lat="27.442804179693066" lon="-11.954669433355209"><ele>263.0</ele><time>2026-04-29T15:39:13Z</time></trkpt><trkpt lat="27.44282962774339" lon="-11.954501644219391"><ele>263.0</ele><time>2026-04-29T15:39:14Z</time></trkpt><trkpt lat="27.44285162489219" lon="-11.954347307538551"><ele>263.0</ele><time>2026-04-29T15:39:15Z</time></trkpt><trkpt lat="27.44287399824575" lon="-11.954179080046625"><ele>263.0</ele><time>2026-04-29T15:39:16Z</time></trkpt><trkpt lat="27.442896313047832" lon="-11.954012446937352"><ele>263.0</ele><time>2026-04-29T15:39:17Z</time></trkpt><trkpt lat="27.442917935880732" lon="-11.953851513490282"><ele>263.0</ele><time>2026-04-29T15:39:18Z</time></trkpt><trkpt lat="27.44294369409216" lon="-11.95368375171849"><ele>263.0</ele><time>2026-04-29T15:39:19Z</time></trkpt><trkpt lat="27.4429632658027" lon="-11.953514635847279"><ele>263.0</ele><time>2026-04-29T15:39:20Z</time></trkpt><trkpt lat="27.44298263630648" lon="-11.953343155222719"><ele>262.33333333333337</ele><time>2026-04-29T15:39:21Z</time></trkpt><trkpt lat="27.443005483763358" lon="-11.953166627276559"><ele>261.6666666666667</ele><time>2026-04-29T15:39:22Z</time></trkpt><trkpt lat="27.44302874349297" lon="-11.952980354205222"><ele>261.0</ele><time>2026-04-29T15:39:23Z</time></trkpt><trkpt lat="27.443054282162482" lon="-11.952792977257957"><ele>261.0</ele><time>2026-04-29T15:39:24Z</time></trkpt><trkpt lat="27.44308250252333" lon="-11.95260755007894"><ele>261.0</ele><time>2026-04-29T15:39:25Z</time></trkpt><trkpt lat="27.443104246685696" lon="-11.952423914337826"><ele>261.0</ele><time>2026-04-29T15:39:26Z</time></trkpt><trkpt lat="27.443124919526714" lon="-11.952235307209426"><ele>261.0</ele><time>2026-04-29T15:39:27Z</time></trkpt><trkpt lat="27.44314476637809" lon="-11.952054261411497"><ele>261.0</ele><time>2026-04-29T15:39:28Z</time></trkpt><trkpt lat="27.443166901500568" lon="-11.951874440225863"><ele>261.0</ele><time>2026-04-29T15:39:29.001Z</time></trkpt><trkpt lat="27.443188815852697" lon="-11.951693440207526"><ele>261.3333333333333</ele><time>2026-04-29T15:39:30.001Z</time></trkpt><trkpt lat="27.4432148404385" lon="-11.951516369754641"><ele>261.66666666666663</ele><time>2026-04-29T15:39:31.001Z</time></trkpt><trkpt lat="27.44324474366082" lon="-11.951341155768857"><ele>262.0</ele><time>2026-04-29T15:39:32.001Z</time></trkpt><trkpt lat="27.44327036074262" lon="-11.951165803274545"><ele>262.0</ele><time>2026-04-29T15:39:33.001Z</time></trkpt><trkpt lat="27.44329779374415" lon="-11.950984673863951"><ele>262.0</ele><time>2026-04-29T15:39:34.001Z</time></trkpt><trkpt lat="27.443323055353705" lon="-11.950806973080649"><ele>262.0</ele><time>2026-04-29T15:39:35.001Z</time></trkpt><trkpt lat="27.44334681458155" lon="-11.950624545859595"><ele>262.0</ele><time>2026-04-29T15:39:36.001Z</time></trkpt><trkpt lat="27.44336998480932" lon="-11.950441412782043"><ele>262.0</ele><time>2026-04-29T15:39:37.001Z</time></trkpt><trkpt lat="27.443394419856766" lon="-11.950262618459071"><ele>262.0</ele><time>2026-04-29T15:39:38.001Z</time></trkpt><trkpt lat="27.443419707804797" lon="-11.950082835564018"><ele>262.0</ele><time>2026-04-29T15:39:39.001Z</time></trkpt><trkpt lat="27.44345155202485" lon="-11.949909750055355"><ele>262.0</ele><time>2026-04-29T15:39:40.001Z</time></trkpt><trkpt lat="27.443479907562537" lon="-11.949736915203328"><ele>262.0</ele><time>2026-04-29T15:39:41.001Z</time></trkpt><trkpt lat="27.443511272213232" lon="-11.949566116148068"><ele>262.0</ele><time>2026-04-29T15:39:42.001Z</time></trkpt><trkpt lat="27.44354184954336" lon="-11.949405185577737"><ele>262.0</ele><time>2026-04-29T15:39:43.001Z</time></trkpt><trkpt lat="27.44357695452372" lon="-11.949238153408366"><ele>262.0</ele><time>2026-04-29T15:39:44.001Z</time></trkpt><trkpt lat="27.443618723476025" lon="-11.949067918504012"><ele>261.3333333333333</ele><time>2026-04-29T15:39:45.001Z</time></trkpt><trkpt lat="27.443656906766122" lon="-11.948901859326519"><ele>260.6666666666667</ele><time>2026-04-29T15:39:46.001Z</time></trkpt><trkpt lat="27.44369753367966" lon="-11.94873354566867"><ele>260.0</ele><time>2026-04-29T15:39:47.001Z</time></trkpt><trkpt lat="27.443737302712062" lon="-11.948565152581988"><ele>260.0</ele><time>2026-04-29T15:39:48.001Z</time></trkpt><trkpt lat="27.443782217713554" lon="-11.94839941756592"><ele>260.0</ele><time>2026-04-29T15:39:49.001Z</time></trkpt><trkpt lat="27.443830229649485" lon="-11.948234106322403"><ele>260.0</ele><time>2026-04-29T15:39:50.001Z</time></trkpt><trkpt lat="27.443871905910722" lon="-11.94806732113367"><ele>261.6666666666667</ele><time>2026-04-29T15:39:51.001Z</time></trkpt><trkpt lat="27.443906974134645" lon="-11.947901760658624"><ele>263.3333333333333</ele><time>2026-04-29T15:39:52.001Z</time></trkpt><trkpt lat="27.443941342447808" lon="-11.94773001090678"><ele>265.0</ele><time>2026-04-29T15:39:53.001Z</time></trkpt><trkpt lat="27.443978541808118" lon="-11.947551609014011"><ele>264.0</ele><time>2026-04-29T15:39:54.001Z</time></trkpt><trkpt lat="27.44401951149489" lon="-11.947375485264727"><ele>263.0</ele><time>2026-04-29T15:39:55.001Z</time></trkpt><trkpt lat="27.44406715211645" lon="-11.947196282528731"><ele>262.0</ele><time>2026-04-29T15:39:56.001Z</time></trkpt><trkpt lat="27.444113533049784" lon="-11.947022240448655"><ele>262.0</ele><time>2026-04-29T15:39:57.001Z</time></trkpt><trkpt lat="27.44416251185212" lon="-11.946830931635338"><ele>262.0</ele><time>2026-04-29T15:39:58.001Z</time></trkpt><trkpt lat="27.444208435722803" lon="-11.946641414260386"><ele>262.0</ele><time>2026-04-29T15:39:59.001Z</time></trkpt><trkpt lat="27.44425097238001" lon="-11.946457706462507"><ele>262.0</ele><time>2026-04-29T15:40:00Z</time></trkpt><trkpt lat="27.44430151609092" lon="-11.946264393155548"><ele>262.0</ele><time>2026-04-29T15:40:01Z</time></trkpt><trkpt lat="27.44435335757953" lon="-11.946078365145178"><ele>262.0</ele><time>2026-04-29T15:40:02Z</time></trkpt><trkpt lat="27.44440591180429" lon="-11.945893212882664"><ele>262.66666666666663</ele><time>2026-04-29T15:40:03Z</time></trkpt><trkpt lat="27.4444597515404" lon="-11.945705233419902"><ele>263.3333333333333</ele><time>2026-04-29T15:40:04Z</time></trkpt><trkpt lat="27.444510795047652" lon="-11.945512894737718"><ele>264.0</ele><time>2026-04-29T15:40:05Z</time></trkpt><trkpt lat="27.44455480953088" lon="-11.945330220765685"><ele>264.0</ele><time>2026-04-29T15:40:06Z</time></trkpt><trkpt lat="27.44459431631425" lon="-11.945147662612584"><ele>264.0</ele><time>2026-04-29T15:40:07Z</time></trkpt><trkpt lat="27.44463655554164" lon="-11.94496996708738"><ele>264.0</ele><time>2026-04-29T15:40:08Z</time></trkpt><trkpt lat="27.444676332121215" lon="-11.944792390694833"><ele>263.3333333333333</ele><time>2026-04-29T15:40:09Z</time></trkpt><trkpt lat="27.444716915339143" lon="-11.944616395393423"><ele>262.66666666666663</ele><time>2026-04-29T15:40:10Z</time></trkpt><trkpt lat="27.444755882568366" lon="-11.944439570455012"><ele>262.0</ele><time>2026-04-29T15:40:11Z</time></trkpt><trkpt lat="27.444795508828385" lon="-11.944267192080625"><ele>262.3333333333333</ele><time>2026-04-29T15:40:12Z</time></trkpt><trkpt lat="27.44484218303417" lon="-11.94409326687374"><ele>262.6666666666667</ele><time>2026-04-29T15:40:13Z</time></trkpt><trkpt lat="27.444883686018947" lon="-11.943922601784065"><ele>263.0</ele><time>2026-04-29T15:40:14Z</time></trkpt><trkpt lat="27.44492355149255" lon="-11.943760687073295"><ele>263.0</ele><time>2026-04-29T15:40:15Z</time></trkpt><trkpt lat="27.444962158645914" lon="-11.94359261416258"><ele>263.0</ele><time>2026-04-29T15:40:16Z</time></trkpt><trkpt lat="27.445001250022976" lon="-11.943424568534539"><ele>263.0</ele><time>2026-04-29T15:40:17Z</time></trkpt><trkpt lat="27.44504075516977" lon="-11.943269851969637"><ele>263.5</ele><time>2026-04-29T15:40:18Z</time></trkpt><trkpt lat="27.44508025368819" lon="-11.9431125637036"><ele>264.0</ele><time>2026-04-29T15:40:19Z</time></trkpt><trkpt lat="27.44512373221674" lon="-11.94295513082578"><ele>264.5</ele><time>2026-04-29T15:40:20Z</time></trkpt><trkpt lat="27.445169962952413" lon="-11.942804221877097"><ele>265.0</ele><time>2026-04-29T15:40:21Z</time></trkpt><trkpt lat="27.445215027353182" lon="-11.942653746675802"><ele>264.5</ele><time>2026-04-29T15:40:22Z</time></trkpt><trkpt lat="27.445264375861107" lon="-11.94251759966805"><ele>264.0</ele><time>2026-04-29T15:40:23Z</time></trkpt><trkpt lat="27.445311599706653" lon="-11.942389853463203"><ele>263.5</ele><time>2026-04-29T15:40:24Z</time></trkpt><trkpt lat="27.44536299678231" lon="-11.942259080233201"><ele>263.0</ele><time>2026-04-29T15:40:25Z</time></trkpt><trkpt lat="27.44541772948258" lon="-11.942140312281042"><ele>263.25</ele><time>2026-04-29T15:40:26Z</time></trkpt><trkpt lat="27.445470462576935" lon="-11.942019217254645"><ele>263.5</ele><time>2026-04-29T15:40:27Z</time></trkpt><trkpt lat="27.445521365480165" lon="-11.941900095269581"><ele>263.75</ele><time>2026-04-29T15:40:28Z</time></trkpt><trkpt lat="27.445574533170003" lon="-11.941777421937966"><ele>264.0</ele><time>2026-04-29T15:40:29Z</time></trkpt><trkpt lat="27.44563236380933" lon="-11.94165415844211"><ele>264.5</ele><time>2026-04-29T15:40:30Z</time></trkpt><trkpt lat="27.445690703068802" lon="-11.94152746303266"><ele>265.0</ele><time>2026-04-29T15:40:31Z</time></trkpt><trkpt lat="27.44574537135794" lon="-11.941400039770619"><ele>265.5</ele><time>2026-04-29T15:40:32Z</time></trkpt><trkpt lat="27.445796732896156" lon="-11.941267241525864"><ele>266.0</ele><time>2026-04-29T15:40:33Z</time></trkpt><trkpt lat="27.44584202624846" lon="-11.941149001215924"><ele>266.0</ele><time>2026-04-29T15:40:34Z</time></trkpt><trkpt lat="27.445880247058486" lon="-11.941035022819232"><ele>266.0</ele><time>2026-04-29T15:40:35Z</time></trkpt><trkpt lat="27.445915387930114" lon="-11.940916928280613"><ele>266.0</ele><time>2026-04-29T15:40:36Z</time></trkpt><trkpt lat="27.44594439734057" lon="-11.940797429574651"><ele>266.0</ele><time>2026-04-29T15:40:37Z</time></trkpt><trkpt lat="27.445971053699918" lon="-11.940687700108999"><ele>266.0</ele><time>2026-04-29T15:40:38Z</time></trkpt><trkpt lat="27.445990236371802" lon="-11.940598476943102"><ele>265.6666666666667</ele><time>2026-04-29T15:40:39Z</time></trkpt><trkpt lat="27.446007328202455" lon="-11.940517437255453"><ele>265.33333333333337</ele><time>2026-04-29T15:40:40Z</time></trkpt><trkpt lat="27.446028728315586" lon="-11.940396662185007"><ele>265.0</ele><time>2026-04-29T15:40:42Z</time></trkpt><trkpt lat="27.446031418201557" lon="-11.94031517565741"><ele>264.6666666666667</ele><time>2026-04-29T15:40:45Z</time></trkpt><trkpt lat="27.445990420521944" lon="-11.940254274285277"><ele>264.3333333333333</ele><time>2026-04-29T15:40:48Z</time></trkpt><trkpt lat="27.445982035622702" lon="-11.940167012268722"><ele>264.0</ele><time>2026-04-29T16:16:38Z</time></trkpt><trkpt lat="27.445990393786495" lon="-11.94005772937482"><ele>264.0</ele><time>2026-04-29T16:16:40Z</time></trkpt><trkpt lat="27.446072158128008" lon="-11.940006991341303"><ele>264.0</ele><time>2026-04-29T16:16:42Z</time></trkpt><trkpt lat="27.44618338404576" lon="-11.940023887145804"><ele>264.0</ele><time>2026-04-29T16:16:44Z</time></trkpt><trkpt lat="27.446281370124325" lon="-11.94011283079698"><ele>264.0</ele><time>2026-04-29T16:16:46Z</time></trkpt><trkpt lat="27.446330994661036" lon="-11.940199533406291"><ele>264.0</ele><time>2026-04-29T16:16:47Z</time></trkpt><trkpt lat="27.446376586296893" lon="-11.940307602186692"><ele>264.2</ele><time>2026-04-29T16:16:48Z</time></trkpt><trkpt lat="27.44641151264263" lon="-11.9404151752972"><ele>264.4</ele><time>2026-04-29T16:16:49Z</time></trkpt><trkpt lat="27.44644790515365" lon="-11.940530790904548"><ele>264.6</ele><time>2026-04-29T16:16:50Z</time></trkpt><trkpt lat="27.44647683350537" lon="-11.940655441436668"><ele>264.8</ele><time>2026-04-29T16:16:51Z</time></trkpt><trkpt lat="27.44649699886831" lon="-11.940775920905878"><ele>265.0</ele><time>2026-04-29T16:16:52Z</time></trkpt><trkpt lat="27.446512376284527" lon="-11.94090193252882"><ele>264.4</ele><time>2026-04-29T16:16:53Z</time></trkpt><trkpt lat="27.446526670570506" lon="-11.941020570329226"><ele>263.8</ele><time>2026-04-29T16:16:54Z</time></trkpt><trkpt lat="27.446544120011175" lon="-11.94114027024806"><ele>263.2</ele><time>2026-04-29T16:16:55Z</time></trkpt><trkpt lat="27.446563786179976" lon="-11.941267831419227"><ele>262.6</ele><time>2026-04-29T16:16:56Z</time></trkpt><trkpt lat="27.446584964139483" lon="-11.941386011254357"><ele>262.0</ele><time>2026-04-29T16:16:57Z</time></trkpt><trkpt lat="27.446607434721237" lon="-11.9415062474008"><ele>262.0</ele><time>2026-04-29T16:16:58Z</time></trkpt><trkpt lat="27.446628903519585" lon="-11.941625547478887"><ele>262.0</ele><time>2026-04-29T16:16:59Z</time></trkpt><trkpt lat="27.446646793263128" lon="-11.941741985500775"><ele>262.0</ele><time>2026-04-29T16:17:00Z</time></trkpt><trkpt lat="27.446668340725232" lon="-11.941860574667935"><ele>262.0</ele><time>2026-04-29T16:17:01Z</time></trkpt><trkpt lat="27.44668790277859" lon="-11.941989268326935"><ele>262.0</ele><time>2026-04-29T16:17:02Z</time></trkpt><trkpt lat="27.446709640932852" lon="-11.942118209069072"><ele>262.25</ele><time>2026-04-29T16:17:03Z</time></trkpt><trkpt lat="27.446731340129908" lon="-11.94224311603894"><ele>262.5</ele><time>2026-04-29T16:17:04Z</time></trkpt><trkpt lat="27.44675548738052" lon="-11.942373490546366"><ele>262.75</ele><time>2026-04-29T16:17:05Z</time></trkpt><trkpt lat="27.446783983667007" lon="-11.942507436986494"><ele>263.0</ele><time>2026-04-29T16:17:06Z</time></trkpt><trkpt lat="27.44681227606823" lon="-11.942639188240094"><ele>263.5</ele><time>2026-04-29T16:17:07Z</time></trkpt><trkpt lat="27.446842198513608" lon="-11.942774772503865"><ele>264.0</ele><time>2026-04-29T16:17:08Z</time></trkpt><trkpt lat="27.446875183035786" lon="-11.942910625289716"><ele>264.5</ele><time>2026-04-29T16:17:09Z</time></trkpt><trkpt lat="27.446907884572376" lon="-11.943050100067797"><ele>265.0</ele><time>2026-04-29T16:17:10Z</time></trkpt><trkpt lat="27.446937013041968" lon="-11.943189121908045"><ele>265.0</ele><time>2026-04-29T16:17:11Z</time></trkpt><trkpt lat="27.446964879266467" lon="-11.943335751029966"><ele>265.0</ele><time>2026-04-29T16:17:12Z</time></trkpt><trkpt lat="27.44699236056666" lon="-11.943482091589257"><ele>265.0</ele><time>2026-04-29T16:17:13Z</time></trkpt><trkpt lat="27.447020660450608" lon="-11.943626634620298"><ele>265.0</ele><time>2026-04-29T16:17:14Z</time></trkpt><trkpt lat="27.447051012092306" lon="-11.94377301696392"><ele>265.25</ele><time>2026-04-29T16:17:15Z</time></trkpt><trkpt lat="27.447080909876153" lon="-11.94392328654051"><ele>265.5</ele><time>2026-04-29T16:17:16Z</time></trkpt><trkpt lat="27.447112817927895" lon="-11.944073674174522"><ele>265.75</ele><time>2026-04-29T16:17:17Z</time></trkpt><trkpt lat="27.447145410540344" lon="-11.944228455769311"><ele>266.0</ele><time>2026-04-29T16:17:18Z</time></trkpt><trkpt lat="27.447177169543448" lon="-11.944380919640821"><ele>266.0</ele><time>2026-04-29T16:17:19Z</time></trkpt><trkpt lat="27.447211212692114" lon="-11.94453205231932"><ele>266.0</ele><time>2026-04-29T16:17:20Z</time></trkpt><trkpt lat="27.447242398584546" lon="-11.944675728378458"><ele>266.0</ele><time>2026-04-29T16:17:21Z</time></trkpt><trkpt lat="27.44727652085123" lon="-11.944812543398287"><ele>266.0</ele><time>2026-04-29T16:17:22Z</time></trkpt><trkpt lat="27.447308055079922" lon="-11.944954076464564"><ele>266.25</ele><time>2026-04-29T16:17:23Z</time></trkpt><trkpt lat="27.447343065008923" lon="-11.945100884560622"><ele>266.5</ele><time>2026-04-29T16:17:24Z</time></trkpt><trkpt lat="27.447377819877463" lon="-11.945247308533505"><ele>266.75</ele><time>2026-04-29T16:17:25Z</time></trkpt><trkpt lat="27.447418168218448" lon="-11.945392764975105"><ele>267.0</ele><time>2026-04-29T16:17:26Z</time></trkpt><trkpt lat="27.447465135910367" lon="-11.945538183127606"><ele>267.0</ele><time>2026-04-29T16:17:27Z</time></trkpt><trkpt lat="27.447512867233232" lon="-11.945674401233441"><ele>267.0</ele><time>2026-04-29T16:17:28Z</time></trkpt><trkpt lat="27.447566097055866" lon="-11.94580144053101"><ele>267.0</ele><time>2026-04-29T16:17:29Z</time></trkpt><trkpt lat="27.447621405726775" lon="-11.945928603910986"><ele>267.0</ele><time>2026-04-29T16:17:30Z</time></trkpt><trkpt lat="27.447680544644328" lon="-11.946053603447787"><ele>266.4</ele><time>2026-04-29T16:17:31Z</time></trkpt><trkpt lat="27.447742616415024" lon="-11.94616002192669"><ele>265.79999999999995</ele><time>2026-04-29T16:17:32Z</time></trkpt><trkpt lat="27.447800724854464" lon="-11.946240973773417"><ele>265.2</ele><time>2026-04-29T16:17:33Z</time></trkpt><trkpt lat="27.44784961469548" lon="-11.946310652120005"><ele>264.59999999999997</ele><time>2026-04-29T16:17:34Z</time></trkpt><trkpt lat="27.447909686422424" lon="-11.94642898360487"><ele>264.0</ele><time>2026-04-29T16:17:36Z</time></trkpt><trkpt lat="27.447942520272225" lon="-11.946493742960552"><ele>264.2</ele><time>2026-04-29T16:17:37Z</time></trkpt><trkpt lat="27.447986833535595" lon="-11.94657582581245"><ele>264.4</ele><time>2026-04-29T16:17:38Z</time></trkpt><trkpt lat="27.44803744324045" lon="-11.946671110204075"><ele>264.6</ele><time>2026-04-29T16:17:39Z</time></trkpt><trkpt lat="27.448085797229243" lon="-11.946777021262326"><ele>264.8</ele><time>2026-04-29T16:17:40Z</time></trkpt><trkpt lat="27.44813536146754" lon="-11.946882534089017"><ele>265.0</ele><time>2026-04-29T16:17:41Z</time></trkpt><trkpt lat="27.448180411485794" lon="-11.946987681242874"><ele>265.0</ele><time>2026-04-29T16:17:42Z</time></trkpt><trkpt lat="27.448228651549822" lon="-11.947095878194443"><ele>265.0</ele><time>2026-04-29T16:17:43Z</time></trkpt><trkpt lat="27.448282891180128" lon="-11.947202411966694"><ele>265.0</ele><time>2026-04-29T16:17:44Z</time></trkpt><trkpt lat="27.448341053759147" lon="-11.947311683431332"><ele>265.0</ele><time>2026-04-29T16:17:45Z</time></trkpt><trkpt lat="27.448392357780847" lon="-11.947427856755537"><ele>265.0</ele><time>2026-04-29T16:17:46Z</time></trkpt><trkpt lat="27.44843412061608" lon="-11.947516116135496"><ele>264.66666666666663</ele><time>2026-04-29T16:17:47Z</time></trkpt><trkpt lat="27.448477786535978" lon="-11.94759661582235"><ele>264.3333333333333</ele><time>2026-04-29T16:17:48Z</time></trkpt><trkpt lat="27.44851813584266" lon="-11.947677598391532"><ele>264.0</ele><time>2026-04-29T16:17:49Z</time></trkpt><trkpt lat="27.448550111141788" lon="-11.947754531065808"><ele>263.6666666666667</ele><time>2026-04-29T16:17:50Z</time></trkpt><trkpt lat="27.448576897207314" lon="-11.947835751945927"><ele>263.33333333333337</ele><time>2026-04-29T16:17:52Z</time></trkpt><trkpt lat="27.448597661280125" lon="-11.947903245230759"><ele>263.0</ele><time>2026-04-29T16:17:54Z</time></trkpt><trkpt lat="27.448656441615316" lon="-11.948013083876575"><ele>263.0</ele><time>2026-04-29T16:17:56Z</time></trkpt><trkpt lat="27.448701459724262" lon="-11.94807955462821"><ele>263.0</ele><time>2026-04-29T16:17:57Z</time></trkpt><trkpt lat="27.44874361094381" lon="-11.948148413750909"><ele>263.0</ele><time>2026-04-29T16:17:58Z</time></trkpt><trkpt lat="27.448788224076946" lon="-11.948232293715861"><ele>263.0</ele><time>2026-04-29T16:17:59Z</time></trkpt><trkpt lat="27.448836714698544" lon="-11.94833907953228"><ele>263.0</ele><time>2026-04-29T16:18:00Z</time></trkpt><trkpt lat="27.44888690408815" lon="-11.948460430719663"><ele>264.0</ele><time>2026-04-29T16:18:01Z</time></trkpt><trkpt lat="27.448931822275842" lon="-11.9485798803949"><ele>265.0</ele><time>2026-04-29T16:18:02Z</time></trkpt><trkpt lat="27.4489767694786" lon="-11.94871054202796"><ele>266.0</ele><time>2026-04-29T16:18:03Z</time></trkpt><trkpt lat="27.44901948640523" lon="-11.948840483692145"><ele>267.0</ele><time>2026-04-29T16:18:04Z</time></trkpt><trkpt lat="27.449063899947024" lon="-11.948972034066513"><ele>267.0</ele><time>2026-04-29T16:18:05Z</time></trkpt><trkpt lat="27.449117730625527" lon="-11.949111082849297"><ele>267.0</ele><time>2026-04-29T16:18:06Z</time></trkpt><trkpt lat="27.44917565546067" lon="-11.949245476213607"><ele>267.0</ele><time>2026-04-29T16:18:07Z</time></trkpt><trkpt lat="27.449232541991897" lon="-11.949378053335417"><ele>267.0</ele><time>2026-04-29T16:18:08Z</time></trkpt><trkpt lat="27.449290029712078" lon="-11.949516690706412"><ele>267.0</ele><time>2026-04-29T16:18:09Z</time></trkpt><trkpt lat="27.449345394310594" lon="-11.949654044410536"><ele>267.0</ele><time>2026-04-29T16:18:10Z</time></trkpt><trkpt lat="27.449405812841704" lon="-11.949800195652188"><ele>267.0</ele><time>2026-04-29T16:18:11Z</time></trkpt><trkpt lat="27.449467359461213" lon="-11.949945740927582"><ele>267.0</ele><time>2026-04-29T16:18:12Z</time></trkpt><trkpt lat="27.449517319490376" lon="-11.950071055958722"><ele>267.0</ele><time>2026-04-29T16:18:13Z</time></trkpt><trkpt lat="27.449562973232148" lon="-11.950190984323498"><ele>267.0</ele><time>2026-04-29T16:18:14Z</time></trkpt><trkpt lat="27.449613956184265" lon="-11.950323785853888"><ele>267.0</ele><time>2026-04-29T16:18:15Z</time></trkpt><trkpt lat="27.449665038400838" lon="-11.950460132428017"><ele>267.0</ele><time>2026-04-29T16:18:16Z</time></trkpt><trkpt lat="27.449713236398154" lon="-11.950584126909764"><ele>267.0</ele><time>2026-04-29T16:18:17Z</time></trkpt><trkpt lat="27.449765821687045" lon="-11.950706568603087"><ele>267.0</ele><time>2026-04-29T16:18:18Z</time></trkpt><trkpt lat="27.449827454269485" lon="-11.950826736230406"><ele>267.0</ele><time>2026-04-29T16:18:19Z</time></trkpt><trkpt lat="27.44989343763476" lon="-11.950935740490058"><ele>267.0</ele><time>2026-04-29T16:18:20Z</time></trkpt><trkpt lat="27.44994767116341" lon="-11.951019922913309"><ele>267.0</ele><time>2026-04-29T16:18:21Z</time></trkpt><trkpt lat="27.449990605736357" lon="-11.951095198093986"><ele>267.0</ele><time>2026-04-29T16:18:22Z</time></trkpt><trkpt lat="27.450020239596274" lon="-11.951172187958734"><ele>267.0</ele><time>2026-04-29T16:18:23Z</time></trkpt><trkpt lat="27.450034329351812" lon="-11.951274454968623"><ele>267.0</ele><time>2026-04-29T16:18:24Z</time></trkpt><trkpt lat="27.450036533288596" lon="-11.951396982947362"><ele>267.0</ele><time>2026-04-29T16:18:25Z</time></trkpt><trkpt lat="27.450040859938913" lon="-11.951504387555755"><ele>267.0</ele><time>2026-04-29T16:18:26Z</time></trkpt><trkpt lat="27.450060931799865" lon="-11.951582970619205"><ele>267.0</ele><time>2026-04-29T16:18:27Z</time></trkpt><trkpt lat="27.450097100304575" lon="-11.951658735125246"><ele>267.0</ele><time>2026-04-29T16:18:28Z</time></trkpt><trkpt lat="27.450142376292458" lon="-11.95173118776946"><ele>267.0</ele><time>2026-04-29T16:18:29Z</time></trkpt><trkpt lat="27.450179713110444" lon="-11.951795927525417"><ele>267.0</ele><time>2026-04-29T16:18:30Z</time></trkpt><trkpt lat="27.45023290316735" lon="-11.951879402522223"><ele>267.0</ele><time>2026-04-29T16:18:32Z</time></trkpt><trkpt lat="27.450293572278547" lon="-11.951950772942409"><ele>266.8</ele><time>2026-04-29T16:18:35Z</time></trkpt><trkpt lat="27.450378580893112" lon="-11.951969406115339"><ele>266.6</ele><time>2026-04-29T16:21:00Z</time></trkpt><trkpt lat="27.45049138073304" lon="-11.951966383392413"><ele>266.40000000000003</ele><time>2026-04-29T16:21:02Z</time></trkpt><trkpt lat="27.450595678325772" lon="-11.952048953226207"><ele>266.2</ele><time>2026-04-29T16:21:04Z</time></trkpt><trkpt lat="27.450656738045357" lon="-11.952132789021885"><ele>266.0</ele><time>2026-04-29T16:21:05Z</time></trkpt><trkpt lat="27.450712502256" lon="-11.952231336093224"><ele>266.75</ele><time>2026-04-29T16:21:06Z</time></trkpt><trkpt lat="27.450772391810823" lon="-11.95234190280148"><ele>267.5</ele><time>2026-04-29T16:21:07Z</time></trkpt><trkpt lat="27.45083361440059" lon="-11.952449839006572"><ele>268.25</ele><time>2026-04-29T16:21:08Z</time></trkpt><trkpt lat="27.450894084667656" lon="-11.952559763831573"><ele>269.0</ele><time>2026-04-29T16:21:09Z</time></trkpt><trkpt lat="27.45095502362786" lon="-11.952683155999372"><ele>269.25</ele><time>2026-04-29T16:21:10Z</time></trkpt><trkpt lat="27.451020460361928" lon="-11.952816973667286"><ele>269.5</ele><time>2026-04-29T16:21:11Z</time></trkpt><trkpt lat="27.45108388994535" lon="-11.952950504496817"><ele>269.75</ele><time>2026-04-29T16:21:12Z</time></trkpt><trkpt lat="27.451151775261764" lon="-11.953089825240019"><ele>270.0</ele><time>2026-04-29T16:21:13Z</time></trkpt><trkpt lat="27.45122177821111" lon="-11.953228759300051"><ele>270.0</ele><time>2026-04-29T16:21:14Z</time></trkpt><trkpt lat="27.451288427520026" lon="-11.953358150578687"><ele>270.0</ele><time>2026-04-29T16:21:15Z</time></trkpt><trkpt lat="27.451358428252576" lon="-11.95350267401297"><ele>270.0</ele><time>2026-04-29T16:21:16Z</time></trkpt><trkpt lat="27.45142816228562" lon="-11.953648504774966"><ele>270.0</ele><time>2026-04-29T16:21:17Z</time></trkpt><trkpt lat="27.451494304235236" lon="-11.95379577065085"><ele>270.0</ele><time>2026-04-29T16:21:18Z</time></trkpt><trkpt lat="27.451564886551708" lon="-11.953945771763316"><ele>270.0</ele><time>2026-04-29T16:21:19Z</time></trkpt><trkpt lat="27.45163761759824" lon="-11.954099805666578"><ele>270.0</ele><time>2026-04-29T16:21:20Z</time></trkpt><trkpt lat="27.451712353783517" lon="-11.954254376110878"><ele>270.3333333333333</ele><time>2026-04-29T16:21:21Z</time></trkpt><trkpt lat="27.451780452406414" lon="-11.954403570341052"><ele>270.66666666666663</ele><time>2026-04-29T16:21:22Z</time></trkpt><trkpt lat="27.45185488177272" lon="-11.954554548282344"><ele>271.0</ele><time>2026-04-29T16:21:23Z</time></trkpt><trkpt lat="27.45193711884139" lon="-11.95471795900824"><ele>271.0</ele><time>2026-04-29T16:21:24Z</time></trkpt><trkpt lat="27.452013883158195" lon="-11.954866857879304"><ele>271.0</ele><time>2026-04-29T16:21:25Z</time></trkpt><trkpt lat="27.452094074171825" lon="-11.95502307372987"><ele>271.0</ele><time>2026-04-29T16:21:26Z</time></trkpt><trkpt lat="27.452175409747383" lon="-11.955179840343517"><ele>272.0</ele><time>2026-04-29T16:21:27Z</time></trkpt><trkpt lat="27.452253820095702" lon="-11.955333673415902"><ele>273.0</ele><time>2026-04-29T16:21:28Z</time></trkpt><trkpt lat="27.452338290132158" lon="-11.955496356032096"><ele>274.0</ele><time>2026-04-29T16:21:29Z</time></trkpt><trkpt lat="27.45241920271409" lon="-11.955649860786487"><ele>274.0</ele><time>2026-04-29T16:21:30Z</time></trkpt><trkpt lat="27.452506600377895" lon="-11.955812769180016"><ele>274.0</ele><time>2026-04-29T16:21:31Z</time></trkpt><trkpt lat="27.45258429062239" lon="-11.955962687726393"><ele>274.0</ele><time>2026-04-29T16:21:32Z</time></trkpt><trkpt lat="27.452660847322022" lon="-11.956113734338956"><ele>273.75</ele><time>2026-04-29T16:21:33Z</time></trkpt><trkpt lat="27.45273533018068" lon="-11.956257609075756"><ele>273.5</ele><time>2026-04-29T16:21:34Z</time></trkpt><trkpt lat="27.45280241028968" lon="-11.956391270703639"><ele>273.25</ele><time>2026-04-29T16:21:35Z</time></trkpt><trkpt lat="27.45285646389696" lon="-11.956506645227376"><ele>273.0</ele><time>2026-04-29T16:21:36Z</time></trkpt><trkpt lat="27.4529096850405" lon="-11.9566194614913"><ele>273.1666666666667</ele><time>2026-04-29T16:21:37Z</time></trkpt><trkpt lat="27.452952636300953" lon="-11.956711203160221"><ele>273.3333333333333</ele><time>2026-04-29T16:21:38Z</time></trkpt><trkpt lat="27.452995396623972" lon="-11.956789292394998"><ele>273.5</ele><time>2026-04-29T16:21:39Z</time></trkpt><trkpt lat="27.453066747328112" lon="-11.956874338715284"><ele>273.66666666666663</ele><time>2026-04-29T16:21:41Z</time></trkpt><trkpt lat="27.4530854258526" lon="-11.956947204131806"><ele>273.8333333333333</ele><time>2026-04-29T16:21:43Z</time></trkpt><trkpt lat="27.452993004145256" lon="-11.95697527656108"><ele>274.0</ele><time>2026-04-29T16:21:46Z</time></trkpt><trkpt lat="27.452887498326604" lon="-11.956906236605262"><ele>273.8</ele><time>2026-04-29T16:21:48Z</time></trkpt><trkpt lat="27.452833206243405" lon="-11.956843135049288"><ele>273.59999999999997</ele><time>2026-04-29T16:21:49Z</time></trkpt><trkpt lat="27.452767166420966" lon="-11.956755818339232"><ele>273.4</ele><time>2026-04-29T16:21:50Z</time></trkpt><trkpt lat="27.452685945682294" lon="-11.956633548903053"><ele>273.2</ele><time>2026-04-29T16:21:51Z</time></trkpt><trkpt lat="27.452609839227875" lon="-11.956515907401705"><ele>273.0</ele><time>2026-04-29T16:21:52Z</time></trkpt><trkpt lat="27.452533186173493" lon="-11.956391668112056"><ele>273.0</ele><time>2026-04-29T16:21:53Z</time></trkpt><trkpt lat="27.45244998009463" lon="-11.956246399129686"><ele>273.0</ele><time>2026-04-29T16:21:54Z</time></trkpt><trkpt lat="27.45236428525339" lon="-11.956089878053984"><ele>273.0</ele><time>2026-04-29T16:21:55Z</time></trkpt><trkpt lat="27.452270294949447" lon="-11.955913275695496"><ele>273.3333333333333</ele><time>2026-04-29T16:21:56Z</time></trkpt><trkpt lat="27.452159830690224" lon="-11.955723591503727"><ele>273.66666666666663</ele><time>2026-04-29T16:21:57Z</time></trkpt><trkpt lat="27.45204519088138" lon="-11.955526954253077"><ele>274.0</ele><time>2026-04-29T16:21:58Z</time></trkpt><trkpt lat="27.451921247686304" lon="-11.955317654021878"><ele>273.0</ele><time>2026-04-29T16:21:59Z</time></trkpt><trkpt lat="27.451813538458204" lon="-11.955149495889643"><ele>272.0</ele><time>2026-04-29T16:22:00Z</time></trkpt><trkpt lat="27.45170583766861" lon="-11.954990666364989"><ele>271.0</ele><time>2026-04-29T16:22:01Z</time></trkpt><trkpt lat="27.451598583972814" lon="-11.95481393751586"><ele>271.0</ele><time>2026-04-29T16:22:02Z</time></trkpt><trkpt lat="27.45148530345773" lon="-11.954621829993805"><ele>271.0</ele><time>2026-04-29T16:22:03Z</time></trkpt><trkpt lat="27.45137326282472" lon="-11.954422879994437"><ele>271.0</ele><time>2026-04-29T16:22:04Z</time></trkpt><trkpt lat="27.45126724584477" lon="-11.954227759096776"><ele>270.66666666666663</ele><time>2026-04-29T16:22:05Z</time></trkpt><trkpt lat="27.451161774400862" lon="-11.954010474158464"><ele>270.3333333333333</ele><time>2026-04-29T16:22:06Z</time></trkpt><trkpt lat="27.451049967119843" lon="-11.953784349830897"><ele>270.0</ele><time>2026-04-29T16:22:07Z</time></trkpt><trkpt lat="27.45095961328082" lon="-11.953584876192416"><ele>270.0</ele><time>2026-04-29T16:22:08Z</time></trkpt><trkpt lat="27.450875992166544" lon="-11.953406157279874"><ele>270.0</ele><time>2026-04-29T16:22:09Z</time></trkpt><trkpt lat="27.450792783125177" lon="-11.953218721727017"><ele>270.0</ele><time>2026-04-29T16:22:10Z</time></trkpt><trkpt lat="27.45070498234619" lon="-11.953027906600276"><ele>270.0</ele><time>2026-04-29T16:22:11Z</time></trkpt><trkpt lat="27.450631342245934" lon="-11.95286275005603"><ele>270.0</ele><time>2026-04-29T16:22:12Z</time></trkpt><trkpt lat="27.450555050863468" lon="-11.95269957025058"><ele>270.0</ele><time>2026-04-29T16:22:13Z</time></trkpt><trkpt lat="27.45047913723466" lon="-11.952534708169823"><ele>269.2</ele><time>2026-04-29T16:22:14Z</time></trkpt><trkpt lat="27.450415945012992" lon="-11.952387868255643"><ele>268.4</ele><time>2026-04-29T16:22:15Z</time></trkpt><trkpt lat="27.450366601076976" lon="-11.952270399944938"><ele>267.6</ele><time>2026-04-29T16:22:16Z</time></trkpt><trkpt lat="27.450323040693608" lon="-11.952164623585492"><ele>266.8</ele><time>2026-04-29T16:22:17Z</time></trkpt><trkpt lat="27.450295485484073" lon="-11.952086322921767"><ele>266.0</ele><time>2026-04-29T16:22:18Z</time></trkpt><trkpt lat="27.450266503415538" lon="-11.95200201086408"><ele>266.0</ele><time>2026-04-29T16:22:20Z</time></trkpt><trkpt lat="27.450223777822913" lon="-11.951949907773397"><ele>266.0</ele><time>2026-04-29T16:22:49Z</time></trkpt><trkpt lat="27.450216078525255" lon="-11.951869020031092"><ele>266.0</ele><time>2026-04-29T16:22:52Z</time></trkpt><trkpt lat="27.450256157787464" lon="-11.95180068668679"><ele>266.0</ele><time>2026-04-29T16:22:54Z</time></trkpt><trkpt lat="27.450346246554286" lon="-11.951772133371504"><ele>266.0</ele><time>2026-04-29T16:22:56Z</time></trkpt><trkpt lat="27.45046442005194" lon="-11.951801556956529"><ele>266.0</ele><time>2026-04-29T16:22:58Z</time></trkpt><trkpt lat="27.450516190455943" lon="-11.951843200435633"><ele>266.6</ele><time>2026-04-29T16:22:59Z</time></trkpt><trkpt lat="27.450565390661943" lon="-11.951891737624923"><ele>267.20000000000005</ele><time>2026-04-29T16:23:00Z</time></trkpt><trkpt lat="27.450635115892556" lon="-11.951990104279544"><ele>267.79999999999995</ele><time>2026-04-29T16:23:02Z</time></trkpt><trkpt lat="27.450678665639586" lon="-11.95207619952796"><ele>268.4</ele><time>2026-04-29T16:23:04Z</time></trkpt><trkpt lat="27.45072989310992" lon="-11.952182458496226"><ele>269.0</ele><time>2026-04-29T16:23:06Z</time></trkpt><trkpt lat="27.450776907342163" lon="-11.952272417554838"><ele>269.0</ele><time>2026-04-29T16:23:08Z</time></trkpt><trkpt lat="27.450826171228265" lon="-11.952375592931238"><ele>269.0</ele><time>2026-04-29T16:23:10Z</time></trkpt><trkpt lat="27.450884451456982" lon="-11.952502693957602"><ele>269.0</ele><time>2026-04-29T16:23:12Z</time></trkpt><trkpt lat="27.450945048740902" lon="-11.952620659098825"><ele>269.0</ele><time>2026-04-29T16:23:14Z</time></trkpt><trkpt lat="27.45101397481914" lon="-11.952737433992882"><ele>269.0</ele><time>2026-04-29T16:23:16Z</time></trkpt><trkpt lat="27.45104992349652" lon="-11.952801604482195"><ele>269.0</ele><time>2026-04-29T16:23:17Z</time></trkpt><trkpt lat="27.45109161038131" lon="-11.952869268621505"><ele>269.0</ele><time>2026-04-29T16:23:18Z</time></trkpt><trkpt lat="27.45113758337144" lon="-11.95292719008392"><ele>269.0</ele><time>2026-04-29T16:23:19Z</time></trkpt><trkpt lat="27.45118280981707" lon="-11.952989971283017"><ele>269.0</ele><time>2026-04-29T16:23:20Z</time></trkpt><trkpt lat="27.45122252473489" lon="-11.953049983392674"><ele>269.0</ele><time>2026-04-29T16:23:21Z</time></trkpt><trkpt lat="27.451264172074325" lon="-11.95311130821531"><ele>269.0</ele><time>2026-04-29T16:23:22Z</time></trkpt><trkpt lat="27.451302092932515" lon="-11.953177972287124"><ele>269.0</ele><time>2026-04-29T16:23:23Z</time></trkpt><trkpt lat="27.451333863250348" lon="-11.953247345974628"><ele>269.0</ele><time>2026-04-29T16:23:24Z</time></trkpt><trkpt lat="27.451359598260783" lon="-11.953321000830885"><ele>269.0</ele><time>2026-04-29T16:23:25Z</time></trkpt><trkpt lat="27.451388333313815" lon="-11.953397692351183"><ele>269.0</ele><time>2026-04-29T16:23:26Z</time></trkpt><trkpt lat="27.45142013611712" lon="-11.953470944554052"><ele>269.0</ele><time>2026-04-29T16:23:27Z</time></trkpt><trkpt lat="27.451451406222212" lon="-11.953543366027683"><ele>269.0</ele><time>2026-04-29T16:23:28Z</time></trkpt><trkpt lat="27.451486092055912" lon="-11.953615281251157"><ele>269.0</ele><time>2026-04-29T16:23:29Z</time></trkpt><trkpt lat="27.451542720893766" lon="-11.953730511265428"><ele>269.2</ele><time>2026-04-29T16:23:31Z</time></trkpt><trkpt lat="27.451604130192823" lon="-11.953847306885535"><ele>269.4</ele><time>2026-04-29T16:23:33Z</time></trkpt><trkpt lat="27.45163289604313" lon="-11.95391520639578"><ele>269.6</ele><time>2026-04-29T16:23:34Z</time></trkpt><trkpt lat="27.451679154569195" lon="-11.954040160388544"><ele>269.8</ele><time>2026-04-29T16:23:36Z</time></trkpt><trkpt lat="27.451736197842113" lon="-11.954171929472263"><ele>270.0</ele><time>2026-04-29T16:23:38Z</time></trkpt><trkpt lat="27.451766175829444" lon="-11.954241158043379"><ele>270.1666666666667</ele><time>2026-04-29T16:23:39Z</time></trkpt><trkpt lat="27.45179463434123" lon="-11.95430681284022"><ele>270.3333333333333</ele><time>2026-04-29T16:23:40Z</time></trkpt><trkpt lat="27.45182517557856" lon="-11.954371270088703"><ele>270.5</ele><time>2026-04-29T16:23:41Z</time></trkpt><trkpt lat="27.451878855308852" lon="-11.954489998839916"><ele>270.66666666666663</ele><time>2026-04-29T16:23:43Z</time></trkpt><trkpt lat="27.451907407124136" lon="-11.954554354163962"><ele>270.8333333333333</ele><time>2026-04-29T16:23:44Z</time></trkpt><trkpt lat="27.45195739188735" lon="-11.954679875681782"><ele>271.0</ele><time>2026-04-29T16:23:46Z</time></trkpt><trkpt lat="27.45201479672928" lon="-11.954810767296765"><ele>271.0</ele><time>2026-04-29T16:23:48Z</time></trkpt><trkpt lat="27.45204445353573" lon="-11.954883363224088"><ele>271.0</ele><time>2026-04-29T16:23:49Z</time></trkpt><trkpt lat="27.452075137405636" lon="-11.95496131331944"><ele>271.0</ele><time>2026-04-29T16:23:50Z</time></trkpt><trkpt lat="27.452105541317906" lon="-11.955042951398498"><ele>271.0</ele><time>2026-04-29T16:23:51Z</time></trkpt><trkpt lat="27.452133551233178" lon="-11.955130044285381"><ele>271.0</ele><time>2026-04-29T16:23:52Z</time></trkpt><trkpt lat="27.45215971760772" lon="-11.955200674311108"><ele>271.0</ele><time>2026-04-29T16:23:53Z</time></trkpt><trkpt lat="27.452184267187228" lon="-11.955269952797824"><ele>271.0</ele><time>2026-04-29T16:23:54Z</time></trkpt><trkpt lat="27.452206591468652" lon="-11.95534333834677"><ele>271.5</ele><time>2026-04-29T16:23:55Z</time></trkpt><trkpt lat="27.452233045384666" lon="-11.955418022523292"><ele>272.0</ele><time>2026-04-29T16:23:56Z</time></trkpt><trkpt lat="27.452262031768324" lon="-11.955490451562078"><ele>272.5</ele><time>2026-04-29T16:23:57Z</time></trkpt><trkpt lat="27.452288911944617" lon="-11.955558877856628"><ele>273.0</ele><time>2026-04-29T16:23:58Z</time></trkpt><trkpt lat="27.45234612407256" lon="-11.955689218452909"><ele>273.5</ele><time>2026-04-29T16:24:00Z</time></trkpt><trkpt lat="27.452375630218135" lon="-11.955760488673327"><ele>274.0</ele><time>2026-04-29T16:24:01Z</time></trkpt><trkpt lat="27.45240872035199" lon="-11.955825108731887"><ele>273.8333333333333</ele><time>2026-04-29T16:24:02Z</time></trkpt><trkpt lat="27.452446635734002" lon="-11.955892081502677"><ele>273.66666666666663</ele><time>2026-04-29T16:24:03Z</time></trkpt><trkpt lat="27.452485115170337" lon="-11.955960228641878"><ele>273.5</ele><time>2026-04-29T16:24:04Z</time></trkpt><trkpt lat="27.452529480478663" lon="-11.956034557502068"><ele>273.3333333333333</ele><time>2026-04-29T16:24:05Z</time></trkpt><trkpt lat="27.452580759854563" lon="-11.956119733410178"><ele>273.1666666666667</ele><time>2026-04-29T16:24:06Z</time></trkpt><trkpt lat="27.452630622027975" lon="-11.956200266633152"><ele>273.0</ele><time>2026-04-29T16:24:07Z</time></trkpt><trkpt lat="27.45267550867754" lon="-11.956275410144436"><ele>273.0</ele><time>2026-04-29T16:24:08Z</time></trkpt><trkpt lat="27.452721230798847" lon="-11.956360509773708"><ele>273.0</ele><time>2026-04-29T16:24:09Z</time></trkpt><trkpt lat="27.452775975839668" lon="-11.956440779816692"><ele>273.0</ele><time>2026-04-29T16:24:10Z</time></trkpt><trkpt lat="27.452831455542658" lon="-11.956518189896581"><ele>273.0</ele><time>2026-04-29T16:24:11Z</time></trkpt><trkpt lat="27.45288691321132" lon="-11.956581912043351"><ele>273.0</ele><time>2026-04-29T16:24:12Z</time></trkpt><trkpt lat="27.452945335842415" lon="-11.956651525410393"><ele>273.0</ele><time>2026-04-29T16:24:13Z</time></trkpt><trkpt lat="27.452991405418345" lon="-11.956701232720512"><ele>273.1666666666667</ele><time>2026-04-29T16:24:14Z</time></trkpt><trkpt lat="27.453043112888086" lon="-11.956796154452148"><ele>273.3333333333333</ele><time>2026-04-29T16:24:16Z</time></trkpt><trkpt lat="27.45307849770304" lon="-11.956864862266725"><ele>273.5</ele><time>2026-04-29T16:24:18Z</time></trkpt><trkpt lat="27.453123133885068" lon="-11.956935072025356"><ele>273.66666666666663</ele><time>2026-04-29T16:24:21Z</time></trkpt><trkpt lat="27.453081514160424" lon="-11.956996283323091"><ele>273.8333333333333</ele><time>2026-04-29T16:24:24Z</time></trkpt><trkpt lat="27.453035135832437" lon="-11.956947720079334"><ele>274.0</ele><time>2026-04-29T16:24:33Z</time></trkpt><trkpt lat="27.452989440143327" lon="-11.956876828567347"><ele>273.5714285714286</ele><time>2026-04-29T16:24:36Z</time></trkpt><trkpt lat="27.452915592501373" lon="-11.956876077427934"><ele>273.14285714285717</ele><time>2026-04-29T16:24:40Z</time></trkpt><trkpt lat="27.45285200110158" lon="-11.956922907451863"><ele>272.7142857142857</ele><time>2026-04-29T16:24:55Z</time></trkpt><trkpt lat="27.452791281334015" lon="-11.956964183200977"><ele>272.28571428571433</ele><time>2026-04-29T16:24:57Z</time></trkpt><trkpt lat="27.45276976754415" lon="-11.957034632244286"><ele>271.8571428571429</ele><time>2026-04-29T16:24:59Z</time></trkpt><trkpt lat="27.452763323014317" lon="-11.957105408849365"><ele>271.42857142857144</ele><time>2026-04-29T16:25:01Z</time></trkpt><trkpt lat="27.45277738162567" lon="-11.957183683638563"><ele>271.0</ele><time>2026-04-29T16:25:03Z</time></trkpt><trkpt lat="27.452792615461103" lon="-11.957258947989198"><ele>271.0</ele><time>2026-04-29T16:25:05Z</time></trkpt><trkpt lat="27.45282332738491" lon="-11.95732825849006"><ele>271.0</ele><time>2026-04-29T16:25:07Z</time></trkpt><trkpt lat="27.452872337162034" lon="-11.957383390727637"><ele>271.0</ele><time>2026-04-29T16:25:09Z</time></trkpt><trkpt lat="27.452955935643562" lon="-11.957382843355427"><ele>271.0</ele><time>2026-04-29T16:25:12Z</time></trkpt><trkpt lat="27.452984053961014" lon="-11.957471332278025"><ele>271.0</ele><time>2026-04-29T16:25:18Z</time></trkpt><trkpt lat="27.452995077591464" lon="-11.957549616735921"><ele>271.0</ele><time>2026-04-29T16:25:21Z</time></trkpt><trkpt lat="27.45294953769676" lon="-11.957631521099312"><ele>271.0</ele><time>2026-04-29T16:25:25Z</time></trkpt><trkpt lat="27.45288697229039" lon="-11.957641528197163"><ele>271.0</ele><time>2026-04-29T16:25:27Z</time></trkpt><trkpt lat="27.452819307892717" lon="-11.957600432833797"><ele>271.0</ele><time>2026-04-29T16:25:29Z</time></trkpt><trkpt lat="27.452765806505383" lon="-11.957546559734899"><ele>271.0</ele><time>2026-04-29T16:25:31Z</time></trkpt><trkpt lat="27.452756747666793" lon="-11.95745944592668"><ele>271.0</ele><time>2026-04-29T16:25:34Z</time></trkpt><trkpt lat="27.452816108477652" lon="-11.957396800842316"><ele>271.0</ele><time>2026-04-29T16:25:38Z</time></trkpt><trkpt lat="27.452880969734377" lon="-11.957417247579285"><ele>271.0</ele><time>2026-04-29T16:25:41Z</time></trkpt><trkpt lat="27.452943625578197" lon="-11.957484844796987"><ele>271.5</ele><time>2026-04-29T16:25:44Z</time></trkpt><trkpt lat="27.45301608510388" lon="-11.957482485354591"><ele>272.0</ele><time>2026-04-29T16:25:47Z</time></trkpt><trkpt lat="27.45303217380181" lon="-11.957413202718685"><ele>272.5</ele><time>2026-04-29T16:26:03Z</time></trkpt><trkpt lat="27.45310229142857" lon="-11.957398204973419"><ele>273.0</ele><time>2026-04-29T16:26:07Z</time></trkpt><trkpt lat="27.45313368291571" lon="-11.957476742840612"><ele>273.5</ele><time>2026-04-29T16:26:10Z</time></trkpt><trkpt lat="27.453183300789526" lon="-11.957533559650024"><ele>274.0</ele><time>2026-04-29T16:26:14Z</time></trkpt><trkpt lat="27.45325525669983" lon="-11.957605430190613"><ele>274.0</ele><time>2026-04-29T16:26:17Z</time></trkpt><trkpt lat="27.453314044334576" lon="-11.957636675497968"><ele>274.0</ele><time>2026-04-29T16:26:19Z</time></trkpt><trkpt lat="27.453390434459056" lon="-11.957610872890012"><ele>274.0</ele><time>2026-04-29T16:26:22Z</time></trkpt><trkpt lat="27.453385138829443" lon="-11.95751789045294"><ele>274.0</ele><time>2026-04-29T16:26:24Z</time></trkpt><trkpt lat="27.45334929147884" lon="-11.95744539309895"><ele>274.0</ele><time>2026-04-29T16:26:25Z</time></trkpt><trkpt lat="27.45331069866855" lon="-11.957377889398643"><ele>274.0</ele><time>2026-04-29T16:26:26Z</time></trkpt><trkpt lat="27.453259979819162" lon="-11.957264049206787"><ele>274.0</ele><time>2026-04-29T16:26:28Z</time></trkpt><trkpt lat="27.45321487055729" lon="-11.957169225638587"><ele>274.0</ele><time>2026-04-29T16:26:30Z</time></trkpt><trkpt lat="27.453136441260593" lon="-11.957182322524625"><ele>274.0</ele><time>2026-04-29T16:26:33Z</time></trkpt><trkpt lat="27.4531506849099" lon="-11.957271683101814"><ele>274.0</ele><time>2026-04-29T16:26:36Z</time></trkpt><trkpt lat="27.45323673590428" lon="-11.957313581628792"><ele>274.0</ele><time>2026-04-29T16:26:38Z</time></trkpt><trkpt lat="27.453319087920356" lon="-11.957339123319937"><ele>274.0</ele><time>2026-04-29T16:26:40Z</time></trkpt><trkpt lat="27.45335864862039" lon="-11.957434744145312"><ele>274.0</ele><time>2026-04-29T16:26:55Z</time></trkpt><trkpt lat="27.453381693381797" lon="-11.957527933750718"><ele>274.0</ele><time>2026-04-29T16:26:57Z</time></trkpt><trkpt lat="27.453461390928606" lon="-11.957584775941816"><ele>274.0</ele><time>2026-04-29T16:27:00Z</time></trkpt><trkpt lat="27.453542057745107" lon="-11.957535356986902"><ele>274.0</ele><time>2026-04-29T16:27:02Z</time></trkpt><trkpt lat="27.45361946582114" lon="-11.957458337331651"><ele>274.0</ele><time>2026-04-29T16:27:05Z</time></trkpt><trkpt lat="27.453721159499686" lon="-11.957392404173357"><ele>274.3333333333333</ele><time>2026-04-29T16:27:07Z</time></trkpt><trkpt lat="27.453795512614022" lon="-11.957357577769395"><ele>274.66666666666663</ele><time>2026-04-29T16:27:09Z</time></trkpt><trkpt lat="27.453866652901507" lon="-11.957362732526793"><ele>275.0</ele><time>2026-04-29T16:27:13Z</time></trkpt><trkpt lat="27.453928485896796" lon="-11.957429040333743"><ele>275.3333333333333</ele><time>2026-04-29T16:27:15Z</time></trkpt><trkpt lat="27.453999759063777" lon="-11.957512119208113"><ele>275.6666666666667</ele><time>2026-04-29T16:27:17Z</time></trkpt><trkpt lat="27.454066954092905" lon="-11.957597689346677"><ele>276.0</ele><time>2026-04-29T16:27:19Z</time></trkpt><trkpt lat="27.45415605721081" lon="-11.957713062130061"><ele>276.2</ele><time>2026-04-29T16:27:21Z</time></trkpt><trkpt lat="27.454212829054324" lon="-11.957788017365521"><ele>276.40000000000003</ele><time>2026-04-29T16:27:22Z</time></trkpt><trkpt lat="27.45426479662942" lon="-11.957850551062986"><ele>276.6</ele><time>2026-04-29T16:27:23Z</time></trkpt><trkpt lat="27.454323191310614" lon="-11.957916998323444"><ele>276.8</ele><time>2026-04-29T16:27:24Z</time></trkpt><trkpt lat="27.454396354117147" lon="-11.958004587926563"><ele>277.0</ele><time>2026-04-29T16:27:25Z</time></trkpt><trkpt lat="27.45447409938662" lon="-11.958103710145814"><ele>277.0</ele><time>2026-04-29T16:27:26Z</time></trkpt><trkpt lat="27.4545469948009" lon="-11.958195288425467"><ele>277.0</ele><time>2026-04-29T16:27:27Z</time></trkpt><trkpt lat="27.454621192473073" lon="-11.958291068171304"><ele>277.0</ele><time>2026-04-29T16:27:28Z</time></trkpt><trkpt lat="27.454699803292367" lon="-11.958392059223224"><ele>277.0</ele><time>2026-04-29T16:27:29Z</time></trkpt><trkpt lat="27.454779367502518" lon="-11.958491310798303"><ele>277.25</ele><time>2026-04-29T16:27:30Z</time></trkpt><trkpt lat="27.45486281611772" lon="-11.958590948676802"><ele>277.5</ele><time>2026-04-29T16:27:31Z</time></trkpt><trkpt lat="27.454951987150963" lon="-11.958696047606331"><ele>277.75</ele><time>2026-04-29T16:27:32Z</time></trkpt><trkpt lat="27.455034591054186" lon="-11.958791407274775"><ele>278.0</ele><time>2026-04-29T16:27:33Z</time></trkpt><trkpt lat="27.455100144360795" lon="-11.95886857874016"><ele>278.0</ele><time>2026-04-29T16:27:34Z</time></trkpt><trkpt lat="27.455156165403178" lon="-11.958937879140363"><ele>278.0</ele><time>2026-04-29T16:27:35Z</time></trkpt><trkpt lat="27.45519824798242" lon="-11.958994707950783"><ele>278.0</ele><time>2026-04-29T16:27:36Z</time></trkpt><trkpt lat="27.455249959308695" lon="-11.959111898712752"><ele>278.0</ele><time>2026-04-29T16:27:38Z</time></trkpt><trkpt lat="27.455283248668604" lon="-11.959184786895056"><ele>278.0</ele><time>2026-04-29T16:27:40Z</time></trkpt><trkpt lat="27.455324224694085" lon="-11.959284394093888"><ele>278.0</ele><time>2026-04-29T16:27:42Z</time></trkpt><trkpt lat="27.455366617077264" lon="-11.959338452605174"><ele>278.0</ele><time>2026-04-29T16:27:43Z</time></trkpt><trkpt lat="27.455426919959017" lon="-11.959397304006558"><ele>278.0</ele><time>2026-04-29T16:27:44Z</time></trkpt><trkpt lat="27.455495735582243" lon="-11.959459338578734"><ele>278.0</ele><time>2026-04-29T16:27:45Z</time></trkpt><trkpt lat="27.45556509000488" lon="-11.959523825488555"><ele>278.0</ele><time>2026-04-29T16:27:46Z</time></trkpt><trkpt lat="27.45562179011856" lon="-11.959578572692669"><ele>278.0</ele><time>2026-04-29T16:27:47Z</time></trkpt><trkpt lat="27.45570059175355" lon="-11.959632956125315"><ele>278.0</ele><time>2026-04-29T16:27:49Z</time></trkpt><trkpt lat="27.455802557607644" lon="-11.959711663265807"><ele>278.1666666666667</ele><time>2026-04-29T16:27:52Z</time></trkpt><trkpt lat="27.455855796907205" lon="-11.959759951955942"><ele>278.33333333333337</ele><time>2026-04-29T16:27:53Z</time></trkpt><trkpt lat="27.45592397519962" lon="-11.959820701495458"><ele>278.5</ele><time>2026-04-29T16:27:55Z</time></trkpt><trkpt lat="27.45601296820416" lon="-11.959872552353374"><ele>278.6666666666667</ele><time>2026-04-29T16:27:57Z</time></trkpt><trkpt lat="27.45606606614691" lon="-11.959920226461927"><ele>278.8333333333333</ele><time>2026-04-29T16:27:59Z</time></trkpt><trkpt lat="27.456095733286844" lon="-11.960001475374611"><ele>279.0</ele><time>2026-04-29T16:28:01Z</time></trkpt><trkpt lat="27.456064206479603" lon="-11.9600811193529"><ele>279.0</ele><time>2026-04-29T16:28:04Z</time></trkpt><trkpt lat="27.45605543536564" lon="-11.960173470732396"><ele>279.0</ele><time>2026-04-29T16:28:07Z</time></trkpt><trkpt lat="27.456134718340007" lon="-11.960220007710976"><ele>279.0</ele><time>2026-04-29T16:28:10Z</time></trkpt><trkpt lat="27.456183566082483" lon="-11.960173309997991"><ele>279.0</ele><time>2026-04-29T16:28:13Z</time></trkpt><trkpt lat="27.45615104615778" lon="-11.960106566566589"><ele>279.0</ele><time>2026-04-29T16:28:17Z</time></trkpt><trkpt lat="27.456069975998997" lon="-11.960138214675757"><ele>279.0</ele><time>2026-04-29T16:28:20Z</time></trkpt><trkpt lat="27.45603818984212" lon="-11.96020700915191"><ele>278.99999999999994</ele><time>2026-04-29T16:28:23Z</time></trkpt><trkpt lat="27.455953032370008" lon="-11.960196606114955"><ele>279.0</ele><time>2026-04-29T16:28:26Z</time></trkpt><trkpt lat="27.455889538062454" lon="-11.960148113414053"><ele>279.0</ele><time>2026-04-29T16:28:29Z</time></trkpt><trkpt lat="27.455847979720325" lon="-11.960083896477576"><ele>279.0</ele><time>2026-04-29T16:28:32Z</time></trkpt><trkpt lat="27.455860838642554" lon="-11.960008283626685"><ele>279.0</ele><time>2026-04-29T16:28:35Z</time></trkpt><trkpt lat="27.455922589928512" lon="-11.959982733447536"><ele>278.99999999999994</ele><time>2026-04-29T16:28:38Z</time></trkpt><trkpt lat="27.455971413826465" lon="-11.960033358668772"><ele>279.0</ele><time>2026-04-29T16:28:40Z</time></trkpt><trkpt lat="27.45603416826073" lon="-11.960097214297228"><ele>279.0</ele><time>2026-04-29T16:28:43Z</time></trkpt><trkpt lat="27.456114616961905" lon="-11.960142216512978"><ele>279.0</ele><time>2026-04-29T16:28:46Z</time></trkpt><trkpt lat="27.45616980114054" lon="-11.960209789234865"><ele>279.0</ele><time>2026-04-29T16:28:49Z</time></trkpt><trkpt lat="27.456229019435376" lon="-11.960272945615293"><ele>279.0</ele><time>2026-04-29T16:28:52Z</time></trkpt><trkpt lat="27.456293331493523" lon="-11.960233948432002"><ele>279.0</ele><time>2026-04-29T16:28:54Z</time></trkpt><trkpt lat="27.45633690825871" lon="-11.960134636516102"><ele>279.0</ele><time>2026-04-29T16:28:56Z</time></trkpt><trkpt lat="27.45633677889502" lon="-11.960039685313438"><ele>279.0</ele><time>2026-04-29T16:28:58Z</time></trkpt><trkpt lat="27.456322943684512" lon="-11.959934661222727"><ele>279.0</ele><time>2026-04-29T16:29:01Z</time></trkpt><trkpt lat="27.456285553953116" lon="-11.959858526855673"><ele>279.0</ele><time>2026-04-29T16:29:03Z</time></trkpt><trkpt lat="27.45624070857334" lon="-11.959803616743137"><ele>279.0</ele><time>2026-04-29T16:29:05Z</time></trkpt><trkpt lat="27.456171950272957" lon="-11.959787998740339"><ele>279.0</ele><time>2026-04-29T16:29:07Z</time></trkpt><trkpt lat="27.45611245474478" lon="-11.959837641540517"><ele>279.0</ele><time>2026-04-29T16:29:09Z</time></trkpt><trkpt lat="27.456089392001115" lon="-11.959927445448294"><ele>279.0</ele><time>2026-04-29T16:29:11Z</time></trkpt><trkpt lat="27.45608583897743" lon="-11.960032504727305"><ele>279.0</ele><time>2026-04-29T16:29:13Z</time></trkpt><trkpt lat="27.45609409817464" lon="-11.960124531362615"><ele>279.0</ele><time>2026-04-29T16:29:15Z</time></trkpt><trkpt lat="27.456147237851088" lon="-11.960168416962842"><ele>279.0</ele><time>2026-04-29T16:29:18Z</time></trkpt></trkseg></trk></gpx>